<?xml version='1.0' encoding='UTF-8'?><gpx version="1.1" creator="JPX - https://github.com/jenetics/jpx" xmlns="http://www.topografix.com/GPX/1/1"><trk><trkseg><trkpt lat="45.063567220251144" lon="7.707733605727775"><ele>237.2</ele><time>2026-04-04T10:06:37.998Z</time></trkpt><trkpt lat="45.06357761843051" lon="7.707846344860146"><ele>237.39999999999998</ele><time>2026-04-04T10:06:39.998Z</time></trkpt><trkpt lat="45.06351293668891" lon="7.7079397329802"><ele>237.60000000000002</ele><time>2026-04-04T10:06:41.998Z</time></trkpt><trkpt lat="45.06339153721635" lon="7.7080151780957475"><ele>237.8</ele><time>2026-04-04T10:06:43.998Z</time></trkpt><trkpt lat="45.06332246436378" lon="7.708059273726704"><ele>238.0</ele><time>2026-04-04T10:06:44.998Z</time></trkpt><trkpt lat="45.06325670259359" lon="7.708109284299496"><ele>238.83333333333331</ele><time>2026-04-04T10:06:45.998Z</time></trkpt><trkpt lat="45.06320310879915" lon="7.708157625606469"><ele>239.66666666666666</ele><time>2026-04-04T10:06:46.998Z</time></trkpt><trkpt lat="45.063143771358526" lon="7.70820553521181"><ele>240.5</ele><time>2026-04-04T10:06:47.998Z</time></trkpt><trkpt lat="45.06308740043016" lon="7.70824837373729"><ele>241.33333333333331</ele><time>2026-04-04T10:06:48.998Z</time></trkpt><trkpt lat="45.062974429977466" lon="7.7083403126973895"><ele>242.16666666666666</ele><time>2026-04-04T10:06:50.998Z</time></trkpt><trkpt lat="45.06290519911339" lon="7.708393989021971"><ele>243.0</ele><time>2026-04-04T10:06:52.998Z</time></trkpt><trkpt lat="45.062842679214526" lon="7.708430230703013"><ele>243.33333333333334</ele><time>2026-04-04T10:07:06.998Z</time></trkpt><trkpt lat="45.062889183123815" lon="7.708600613304946"><ele>243.66666666666669</ele><time>2026-04-04T10:07:08.998Z</time></trkpt><trkpt lat="45.06292888966689" lon="7.708678897388841"><ele>244.0</ele><time>2026-04-04T10:07:09.998Z</time></trkpt><trkpt lat="45.062972028194494" lon="7.708767705226481"><ele>244.33333333333334</ele><time>2026-04-04T10:07:10.998Z</time></trkpt><trkpt lat="45.06301272289933" lon="7.708850478505955"><ele>244.66666666666669</ele><time>2026-04-04T10:07:11.998Z</time></trkpt><trkpt lat="45.063057756779024" lon="7.70894226443841"><ele>245.0</ele><time>2026-04-04T10:07:12.998Z</time></trkpt><trkpt lat="45.06310084421434" lon="7.709048067965468"><ele>245.0</ele><time>2026-04-04T10:07:14Z</time></trkpt><trkpt lat="45.06315746829998" lon="7.709137375225181"><ele>245.0</ele><time>2026-04-04T10:07:15Z</time></trkpt><trkpt lat="45.06321315649598" lon="7.709240156949151"><ele>245.0</ele><time>2026-04-04T10:07:16Z</time></trkpt><trkpt lat="45.063261173508494" lon="7.709352204937577"><ele>245.0</ele><time>2026-04-04T10:07:17Z</time></trkpt><trkpt lat="45.063311073401586" lon="7.709461677335324"><ele>245.0</ele><time>2026-04-04T10:07:18Z</time></trkpt><trkpt lat="45.06336353372482" lon="7.709570173091145"><ele>243.8</ele><time>2026-04-04T10:07:19Z</time></trkpt><trkpt lat="45.06341283912326" lon="7.709679907634559"><ele>242.6</ele><time>2026-04-04T10:07:20Z</time></trkpt><trkpt lat="45.06346841102354" lon="7.7097824831033295"><ele>241.39999999999998</ele><time>2026-04-04T10:07:21Z</time></trkpt><trkpt lat="45.063517837061454" lon="7.7099013393615525"><ele>240.2</ele><time>2026-04-04T10:07:22Z</time></trkpt><trkpt lat="45.06356271406312" lon="7.710000810434049"><ele>239.0</ele><time>2026-04-04T10:07:23Z</time></trkpt><trkpt lat="45.063616961519806" lon="7.710099696367732"><ele>239.0</ele><time>2026-04-04T10:07:24Z</time></trkpt><trkpt lat="45.06365378778496" lon="7.710199065686678"><ele>238.99999999999997</ele><time>2026-04-04T10:07:25Z</time></trkpt><trkpt lat="45.06372617091312" lon="7.710341595794555"><ele>238.99999999999997</ele><time>2026-04-04T10:07:27Z</time></trkpt><trkpt lat="45.06377732908931" lon="7.710457850231583"><ele>239.0</ele><time>2026-04-04T10:07:29Z</time></trkpt><trkpt lat="45.06383290010379" lon="7.7105550748649"><ele>239.0</ele><time>2026-04-04T10:07:32Z</time></trkpt><trkpt lat="45.063880780881384" lon="7.710663507110425"><ele>239.33333333333334</ele><time>2026-04-04T10:07:34Z</time></trkpt><trkpt lat="45.06391626980022" lon="7.710738970799371"><ele>239.66666666666669</ele><time>2026-04-04T10:07:35Z</time></trkpt><trkpt lat="45.06398577288733" lon="7.710886182627413"><ele>240.0</ele><time>2026-04-04T10:07:37Z</time></trkpt><trkpt lat="45.0640330563876" lon="7.710947932358368"><ele>240.33333333333331</ele><time>2026-04-04T10:07:38Z</time></trkpt><trkpt lat="45.06407579205438" lon="7.711053534222444"><ele>240.66666666666666</ele><time>2026-04-04T10:07:40Z</time></trkpt><trkpt lat="45.06411953481731" lon="7.71114968960428"><ele>241.0</ele><time>2026-04-04T10:07:43Z</time></trkpt><trkpt lat="45.064143379649366" lon="7.711239719499562"><ele>241.0</ele><time>2026-04-04T10:07:45Z</time></trkpt><trkpt lat="45.06418797905868" lon="7.711381777379369"><ele>241.00000000000003</ele><time>2026-04-04T10:07:46.999Z</time></trkpt><trkpt lat="45.0642007180441" lon="7.711504985201429"><ele>241.00000000000003</ele><time>2026-04-04T10:07:48.999Z</time></trkpt><trkpt lat="45.06411102947644" lon="7.711616214752684"><ele>241.0</ele><time>2026-04-04T10:07:50.999Z</time></trkpt><trkpt lat="45.06405572286588" lon="7.7116636832612775"><ele>241.0</ele><time>2026-04-04T10:07:51.999Z</time></trkpt><trkpt lat="45.06399099102242" lon="7.7117069036410655"><ele>241.0</ele><time>2026-04-04T10:07:52.999Z</time></trkpt><trkpt lat="45.06392920343987" lon="7.711754352403718"><ele>241.00000000000003</ele><time>2026-04-04T10:07:53.999Z</time></trkpt><trkpt lat="45.06383977018987" lon="7.711851611757923"><ele>241.00000000000003</ele><time>2026-04-04T10:07:55.999Z</time></trkpt><trkpt lat="45.063767057496676" lon="7.7119318580128375"><ele>241.0</ele><time>2026-04-04T10:07:57.999Z</time></trkpt><trkpt lat="45.06383423722839" lon="7.712077025549076"><ele>241.0</ele><time>2026-04-04T10:07:58.999Z</time></trkpt><trkpt lat="45.06385291662546" lon="7.712165115509347"><ele>241.33333333333331</ele><time>2026-04-04T10:07:59.999Z</time></trkpt><trkpt lat="45.0638986881007" lon="7.712343837212221"><ele>241.66666666666666</ele><time>2026-04-04T10:08:01.999Z</time></trkpt><trkpt lat="45.06392952875365" lon="7.712428904821804"><ele>242.0</ele><time>2026-04-04T10:08:02.999Z</time></trkpt><trkpt lat="45.06395748101106" lon="7.712519568162641"><ele>242.33333333333331</ele><time>2026-04-04T10:08:03.999Z</time></trkpt><trkpt lat="45.06398683130259" lon="7.712614623201147"><ele>242.66666666666666</ele><time>2026-04-04T10:08:04.999Z</time></trkpt><trkpt lat="45.0639977717482" lon="7.712718779578711"><ele>243.0</ele><time>2026-04-04T10:08:05.999Z</time></trkpt><trkpt lat="45.06402583564983" lon="7.712820732204345"><ele>243.83333333333334</ele><time>2026-04-04T10:08:06.999Z</time></trkpt><trkpt lat="45.064015452092896" lon="7.712929663568259"><ele>244.66666666666669</ele><time>2026-04-04T10:08:07.999Z</time></trkpt><trkpt lat="45.064000679013944" lon="7.71303886659032"><ele>245.5</ele><time>2026-04-04T10:08:08.999Z</time></trkpt><trkpt lat="45.06397037873072" lon="7.713144087219418"><ele>246.33333333333334</ele><time>2026-04-04T10:08:09.999Z</time></trkpt><trkpt lat="45.063943035421424" lon="7.713248341131702"><ele>247.16666666666669</ele><time>2026-04-04T10:08:10.999Z</time></trkpt><trkpt lat="45.063909769122446" lon="7.713356430030812"><ele>248.0</ele><time>2026-04-04T10:08:11.999Z</time></trkpt><trkpt lat="45.06385959567639" lon="7.7134977831122145"><ele>247.8</ele><time>2026-04-04T10:08:12.999Z</time></trkpt><trkpt lat="45.063794820053985" lon="7.713647355988397"><ele>247.60000000000002</ele><time>2026-04-04T10:08:14.999Z</time></trkpt><trkpt lat="45.063760865636695" lon="7.713758522356085"><ele>247.39999999999998</ele><time>2026-04-04T10:08:15.999Z</time></trkpt><trkpt lat="45.06372220230508" lon="7.713876925812546"><ele>247.2</ele><time>2026-04-04T10:08:16.999Z</time></trkpt><trkpt lat="45.06366792942845" lon="7.714022894294497"><ele>247.0</ele><time>2026-04-04T10:08:17.999Z</time></trkpt><trkpt lat="45.06362428224288" lon="7.71413152409125"><ele>247.0</ele><time>2026-04-04T10:08:18.999Z</time></trkpt><trkpt lat="45.06357684093602" lon="7.714253546647561"><ele>247.0</ele><time>2026-04-04T10:08:19.999Z</time></trkpt><trkpt lat="45.06352776701229" lon="7.714395164626619"><ele>247.0</ele><time>2026-04-04T10:08:20.999Z</time></trkpt><trkpt lat="45.06349953559923" lon="7.7145409725553264"><ele>247.0</ele><time>2026-04-04T10:08:21.999Z</time></trkpt><trkpt lat="45.063440475546585" lon="7.714669899598507"><ele>247.0</ele><time>2026-04-04T10:08:22.999Z</time></trkpt><trkpt lat="45.063395827151474" lon="7.714808883469686"><ele>248.0</ele><time>2026-04-04T10:08:23.999Z</time></trkpt><trkpt lat="45.06334134070351" lon="7.714945208881622"><ele>249.0</ele><time>2026-04-04T10:08:24.999Z</time></trkpt><trkpt lat="45.0632864085036" lon="7.715066527173915"><ele>250.0</ele><time>2026-04-04T10:08:25.999Z</time></trkpt><trkpt lat="45.0632234849113" lon="7.7151930266015185"><ele>251.0</ele><time>2026-04-04T10:08:26.999Z</time></trkpt><trkpt lat="45.06316380762586" lon="7.715306384861047"><ele>252.0</ele><time>2026-04-04T10:08:27.999Z</time></trkpt><trkpt lat="45.063103928776236" lon="7.715410352746112"><ele>253.83333333333334</ele><time>2026-04-04T10:08:28.999Z</time></trkpt><trkpt lat="45.063043672062044" lon="7.715476185887894"><ele>255.66666666666669</ele><time>2026-04-04T10:08:29.999Z</time></trkpt><trkpt lat="45.06297027705852" lon="7.715521793216038"><ele>257.5</ele><time>2026-04-04T10:08:30.999Z</time></trkpt><trkpt lat="45.062883909253486" lon="7.715539930083138"><ele>259.33333333333337</ele><time>2026-04-04T10:08:31.999Z</time></trkpt><trkpt lat="45.062799690885" lon="7.715558937396828"><ele>261.1666666666667</ele><time>2026-04-04T10:08:32.999Z</time></trkpt><trkpt lat="45.062709740693215" lon="7.715572833228535"><ele>263.0</ele><time>2026-04-04T10:08:33.999Z</time></trkpt><trkpt lat="45.06261765421213" lon="7.715581740669654"><ele>263.0</ele><time>2026-04-04T10:08:34.999Z</time></trkpt><trkpt lat="45.062521731211206" lon="7.715609083590014"><ele>263.0</ele><time>2026-04-04T10:08:35.999Z</time></trkpt><trkpt lat="45.06241290254435" lon="7.715581365636622"><ele>263.0</ele><time>2026-04-04T10:08:36.998Z</time></trkpt><trkpt lat="45.06231744167289" lon="7.715576172068455"><ele>263.0</ele><time>2026-04-04T10:08:37.998Z</time></trkpt><trkpt lat="45.06220273276951" lon="7.715570724340685"><ele>263.0</ele><time>2026-04-04T10:08:38.998Z</time></trkpt><trkpt lat="45.06207840710662" lon="7.715575991947623"><ele>264.5</ele><time>2026-04-04T10:08:39.998Z</time></trkpt><trkpt lat="45.06195844689453" lon="7.715603933148432"><ele>266.0</ele><time>2026-04-04T10:08:40.998Z</time></trkpt><trkpt lat="45.06183482451368" lon="7.715624818368249"><ele>267.5</ele><time>2026-04-04T10:08:41.998Z</time></trkpt><trkpt lat="45.06171585725472" lon="7.715603296442519"><ele>269.0</ele><time>2026-04-04T10:08:42.998Z</time></trkpt><trkpt lat="45.06159107328333" lon="7.715600014653679"><ele>269.59999999999997</ele><time>2026-04-04T10:08:43.998Z</time></trkpt><trkpt lat="45.06147486587592" lon="7.71560254152505"><ele>270.2</ele><time>2026-04-04T10:08:44.998Z</time></trkpt><trkpt lat="45.06136595766212" lon="7.7156307184147614"><ele>270.79999999999995</ele><time>2026-04-04T10:08:45.998Z</time></trkpt><trkpt lat="45.06126283470281" lon="7.715685803218646"><ele>271.4</ele><time>2026-04-04T10:08:46.998Z</time></trkpt><trkpt lat="45.06117123909063" lon="7.715754633148676"><ele>272.0</ele><time>2026-04-04T10:08:47.998Z</time></trkpt><trkpt lat="45.06107250119964" lon="7.715814245999283"><ele>272.0</ele><time>2026-04-04T10:08:48.998Z</time></trkpt><trkpt lat="45.06098435414767" lon="7.715860139688165"><ele>272.0</ele><time>2026-04-04T10:08:49.998Z</time></trkpt><trkpt lat="45.06090690307529" lon="7.71591508930849"><ele>272.0</ele><time>2026-04-04T10:08:50.998Z</time></trkpt><trkpt lat="45.06083886095037" lon="7.715984565742377"><ele>272.0</ele><time>2026-04-04T10:08:51.998Z</time></trkpt><trkpt lat="45.0607825746128" lon="7.716087989025688"><ele>272.0</ele><time>2026-04-04T10:08:52.998Z</time></trkpt><trkpt lat="45.060743106126374" lon="7.716203096042389"><ele>272.0</ele><time>2026-04-04T10:08:53.998Z</time></trkpt><trkpt lat="45.06069340862557" lon="7.7163107357400165"><ele>273.4</ele><time>2026-04-04T10:08:54.998Z</time></trkpt><trkpt lat="45.06063547474023" lon="7.716412030237856"><ele>274.79999999999995</ele><time>2026-04-04T10:08:55.998Z</time></trkpt><trkpt lat="45.06056612583008" lon="7.7165213752400446"><ele>276.2</ele><time>2026-04-04T10:08:56.998Z</time></trkpt><trkpt lat="45.0605041242472" lon="7.716619883044462"><ele>277.59999999999997</ele><time>2026-04-04T10:08:57.998Z</time></trkpt><trkpt lat="45.060435580936826" lon="7.716724319879263"><ele>279.0</ele><time>2026-04-04T10:08:58.998Z</time></trkpt><trkpt lat="45.06036480340336" lon="7.7168321517522145"><ele>281.0</ele><time>2026-04-04T10:08:59.998Z</time></trkpt><trkpt lat="45.060298500833866" lon="7.716942369831434"><ele>283.0</ele><time>2026-04-04T10:09:00.998Z</time></trkpt><trkpt lat="45.0602219259709" lon="7.7170422077881"><ele>285.0</ele><time>2026-04-04T10:09:01.998Z</time></trkpt><trkpt lat="45.0601450703874" lon="7.7171233183567765"><ele>287.0</ele><time>2026-04-04T10:09:02.998Z</time></trkpt><trkpt lat="45.060052166090074" lon="7.717190373875253"><ele>289.0</ele><time>2026-04-04T10:09:03.998Z</time></trkpt><trkpt lat="45.059957777153826" lon="7.717217986036986"><ele>289.59999999999997</ele><time>2026-04-04T10:09:04.998Z</time></trkpt><trkpt lat="45.05986093285805" lon="7.717282325565618"><ele>290.2</ele><time>2026-04-04T10:09:05.998Z</time></trkpt><trkpt lat="45.05976488534917" lon="7.717333823313437"><ele>290.79999999999995</ele><time>2026-04-04T10:09:06.998Z</time></trkpt><trkpt lat="45.05965976089765" lon="7.717371638890702"><ele>291.4</ele><time>2026-04-04T10:09:07.998Z</time></trkpt><trkpt lat="45.05957509946985" lon="7.717434658574229"><ele>292.0</ele><time>2026-04-04T10:09:08.998Z</time></trkpt><trkpt lat="45.05950184338158" lon="7.717536004843159"><ele>292.0</ele><time>2026-04-04T10:09:09.998Z</time></trkpt><trkpt lat="45.059435016504885" lon="7.717618477094942"><ele>292.0</ele><time>2026-04-04T10:09:10.998Z</time></trkpt><trkpt lat="45.059362203366085" lon="7.717703644598547"><ele>292.0</ele><time>2026-04-04T10:09:11.998Z</time></trkpt><trkpt lat="45.05928719954213" lon="7.717783781528323"><ele>292.0</ele><time>2026-04-04T10:09:12.998Z</time></trkpt><trkpt lat="45.05920547966874" lon="7.717852149171828"><ele>292.0</ele><time>2026-04-04T10:09:13.998Z</time></trkpt><trkpt lat="45.05912552359017" lon="7.717919776763394"><ele>293.2</ele><time>2026-04-04T10:09:14.998Z</time></trkpt><trkpt lat="45.05903515956763" lon="7.717967192145814"><ele>294.4</ele><time>2026-04-04T10:09:15.998Z</time></trkpt><trkpt lat="45.058958432595134" lon="7.718033501533765"><ele>295.6</ele><time>2026-04-04T10:09:16.998Z</time></trkpt><trkpt lat="45.05888760993828" lon="7.7181464413347065"><ele>296.8</ele><time>2026-04-04T10:09:17.998Z</time></trkpt><trkpt lat="45.05885609054576" lon="7.7182719472142445"><ele>298.0</ele><time>2026-04-04T10:09:18.998Z</time></trkpt><trkpt lat="45.05881946905361" lon="7.7184008625806015"><ele>298.0</ele><time>2026-04-04T10:09:19.999Z</time></trkpt><trkpt lat="45.05878396174112" lon="7.718530816541151"><ele>298.0</ele><time>2026-04-04T10:09:20.999Z</time></trkpt><trkpt lat="45.05873796595554" lon="7.7186458419238555"><ele>298.0</ele><time>2026-04-04T10:09:21.999Z</time></trkpt><trkpt lat="45.05871761940342" lon="7.718773680129309"><ele>298.0</ele><time>2026-04-04T10:09:22.999Z</time></trkpt><trkpt lat="45.05871006824719" lon="7.7188961550828195"><ele>298.0</ele><time>2026-04-04T10:09:23.999Z</time></trkpt><trkpt lat="45.05872893855178" lon="7.719029759726374"><ele>299.66666666666663</ele><time>2026-04-04T10:09:24.999Z</time></trkpt><trkpt lat="45.05874226396039" lon="7.7191620196922965"><ele>301.3333333333333</ele><time>2026-04-04T10:09:25.999Z</time></trkpt><trkpt lat="45.058741229270666" lon="7.719292956179992"><ele>303.0</ele><time>2026-04-04T10:09:26.999Z</time></trkpt><trkpt lat="45.058719101479525" lon="7.719407571703613"><ele>304.6666666666667</ele><time>2026-04-04T10:09:27.999Z</time></trkpt><trkpt lat="45.05867148184781" lon="7.7194858334804755"><ele>306.33333333333337</ele><time>2026-04-04T10:09:28.999Z</time></trkpt><trkpt lat="45.05859332398246" lon="7.719527040907662"><ele>308.0</ele><time>2026-04-04T10:09:29.999Z</time></trkpt><trkpt lat="45.05851019425127" lon="7.71955260682361"><ele>309.4</ele><time>2026-04-04T10:09:30.999Z</time></trkpt><trkpt lat="45.058441051456136" lon="7.7195814660432065"><ele>310.8</ele><time>2026-04-04T10:09:31.999Z</time></trkpt><trkpt lat="45.05832655241805" lon="7.719596291108883"><ele>312.2</ele><time>2026-04-04T10:09:32.999Z</time></trkpt><trkpt lat="45.058212561626554" lon="7.719596483059928"><ele>313.6</ele><time>2026-04-04T10:09:33.999Z</time></trkpt><trkpt lat="45.05811345659708" lon="7.719610572405899"><ele>315.0</ele><time>2026-04-04T10:09:34.999Z</time></trkpt><trkpt lat="45.05801545060727" lon="7.719643722243481"><ele>315.0</ele><time>2026-04-04T10:09:35.999Z</time></trkpt><trkpt lat="45.05792375491949" lon="7.719708878224059"><ele>315.0</ele><time>2026-04-04T10:09:36.999Z</time></trkpt><trkpt lat="45.057842226151315" lon="7.719807008991992"><ele>315.0</ele><time>2026-04-04T10:09:37.999Z</time></trkpt><trkpt lat="45.057772546837754" lon="7.719925317051435"><ele>315.0</ele><time>2026-04-04T10:09:38.999Z</time></trkpt><trkpt lat="45.05770646377624" lon="7.720030239061876"><ele>315.0</ele><time>2026-04-04T10:09:39.999Z</time></trkpt><trkpt lat="45.057638445479746" lon="7.720125919668591"><ele>315.0</ele><time>2026-04-04T10:09:40.999Z</time></trkpt><trkpt lat="45.0575594055943" lon="7.720210230881754"><ele>315.0</ele><time>2026-04-04T10:09:41.999Z</time></trkpt><trkpt lat="45.05747859879992" lon="7.72029372727548"><ele>315.0</ele><time>2026-04-04T10:09:42.999Z</time></trkpt><trkpt lat="45.057399197462026" lon="7.720381772325783"><ele>315.0</ele><time>2026-04-04T10:09:43.999Z</time></trkpt><trkpt lat="45.0573106750744" lon="7.720484714603477"><ele>315.0</ele><time>2026-04-04T10:09:44.999Z</time></trkpt><trkpt lat="45.05722529509299" lon="7.720590801834308"><ele>315.8</ele><time>2026-04-04T10:09:45.999Z</time></trkpt><trkpt lat="45.057158608434506" lon="7.720690957607083"><ele>316.6</ele><time>2026-04-04T10:09:46.999Z</time></trkpt><trkpt lat="45.0570928929248" lon="7.720806554658051"><ele>317.4</ele><time>2026-04-04T10:09:47.999Z</time></trkpt><trkpt lat="45.05703224073596" lon="7.720915116620129"><ele>318.2</ele><time>2026-04-04T10:09:48.999Z</time></trkpt><trkpt lat="45.056965809720104" lon="7.72103967822173"><ele>319.0</ele><time>2026-04-04T10:09:49.999Z</time></trkpt><trkpt lat="45.05689738888066" lon="7.721144053653982"><ele>320.6</ele><time>2026-04-04T10:09:50.999Z</time></trkpt><trkpt lat="45.05681915808666" lon="7.721219965634755"><ele>322.2</ele><time>2026-04-04T10:09:51.999Z</time></trkpt><trkpt lat="45.056734310794134" lon="7.721279032053827"><ele>323.8</ele><time>2026-04-04T10:09:52.999Z</time></trkpt><trkpt lat="45.056642069864964" lon="7.721333327578001"><ele>325.40000000000003</ele><time>2026-04-04T10:09:53.999Z</time></trkpt><trkpt lat="45.05655035974748" lon="7.721376628879018"><ele>327.0</ele><time>2026-04-04T10:09:54.999Z</time></trkpt><trkpt lat="45.05647088847508" lon="7.7214304325910135"><ele>327.5</ele><time>2026-04-04T10:09:55.999Z</time></trkpt><trkpt lat="45.056397744308235" lon="7.72144837235875"><ele>328.0</ele><time>2026-04-04T10:09:56.999Z</time></trkpt><trkpt lat="45.05632362850456" lon="7.721439460779405"><ele>328.5</ele><time>2026-04-04T10:09:57.999Z</time></trkpt><trkpt lat="45.056229226508265" lon="7.721473736872391"><ele>329.0</ele><time>2026-04-04T10:09:58.999Z</time></trkpt><trkpt lat="45.056145472014826" lon="7.721492890482164"><ele>329.5</ele><time>2026-04-04T10:09:59.999Z</time></trkpt><trkpt lat="45.05605995550486" lon="7.721531287518051"><ele>330.0</ele><time>2026-04-04T10:10:00.999Z</time></trkpt><trkpt lat="45.05596634745413" lon="7.721540946284531"><ele>330.0</ele><time>2026-04-04T10:10:01.999Z</time></trkpt><trkpt lat="45.0558828446469" lon="7.721591034055993"><ele>330.0</ele><time>2026-04-04T10:10:02.999Z</time></trkpt><trkpt lat="45.05578762646861" lon="7.721583552287987"><ele>330.0</ele><time>2026-04-04T10:10:03.999Z</time></trkpt><trkpt lat="45.05571482150494" lon="7.721592186247195"><ele>330.0</ele><time>2026-04-04T10:10:04.999Z</time></trkpt><trkpt lat="45.05562848692315" lon="7.721569390346234"><ele>330.0</ele><time>2026-04-04T10:10:05.999Z</time></trkpt><trkpt lat="45.05554626451907" lon="7.721554330950653"><ele>330.0</ele><time>2026-04-04T10:10:06.999Z</time></trkpt><trkpt lat="45.05545592697119" lon="7.721545161617793"><ele>331.4</ele><time>2026-04-04T10:10:07.999Z</time></trkpt><trkpt lat="45.05536673697245" lon="7.721528468295078"><ele>332.8</ele><time>2026-04-04T10:10:08.999Z</time></trkpt><trkpt lat="45.05526191725779" lon="7.721579366549472"><ele>334.20000000000005</ele><time>2026-04-04T10:10:09.999Z</time></trkpt><trkpt lat="45.05515834190513" lon="7.721700236648034"><ele>335.6</ele><time>2026-04-04T10:10:11.999Z</time></trkpt><trkpt lat="45.05508551657026" lon="7.721798084972532"><ele>337.0</ele><time>2026-04-04T10:10:12.999Z</time></trkpt><trkpt lat="45.05499343248951" lon="7.721904474986035"><ele>333.25</ele><time>2026-04-04T10:10:13.999Z</time></trkpt><trkpt lat="45.054921305109815" lon="7.722013319517089"><ele>329.5</ele><time>2026-04-04T10:10:14.999Z</time></trkpt><trkpt lat="45.05484642848889" lon="7.72214066508556"><ele>325.75</ele><time>2026-04-04T10:10:15.999Z</time></trkpt><trkpt lat="45.054773504061146" lon="7.722272395042741"><ele>322.0</ele><time>2026-04-04T10:10:16.999Z</time></trkpt><trkpt lat="45.05468724034898" lon="7.722370748974976"><ele>322.0</ele><time>2026-04-04T10:10:17.999Z</time></trkpt><trkpt lat="45.05460448673385" lon="7.722479971776099"><ele>322.0</ele><time>2026-04-04T10:10:18.999Z</time></trkpt><trkpt lat="45.05452463995277" lon="7.7225725630181135"><ele>322.0</ele><time>2026-04-04T10:10:19.999Z</time></trkpt><trkpt lat="45.05443971780093" lon="7.722663267059738"><ele>322.0</ele><time>2026-04-04T10:10:20.999Z</time></trkpt><trkpt lat="45.05436300706631" lon="7.722734450868376"><ele>322.0</ele><time>2026-04-04T10:10:21.999Z</time></trkpt><trkpt lat="45.05426853728513" lon="7.722799486834554"><ele>323.8</ele><time>2026-04-04T10:10:22.999Z</time></trkpt><trkpt lat="45.05420095265432" lon="7.722881808056526"><ele>325.6</ele><time>2026-04-04T10:10:23.999Z</time></trkpt><trkpt lat="45.054109076399335" lon="7.722887280550544"><ele>327.40000000000003</ele><time>2026-04-04T10:10:24.999Z</time></trkpt><trkpt lat="45.05401897308927" lon="7.7228783154132294"><ele>329.20000000000005</ele><time>2026-04-04T10:10:25.999Z</time></trkpt><trkpt lat="45.05393614476079" lon="7.72282986472323"><ele>331.0</ele><time>2026-04-04T10:10:26.999Z</time></trkpt><trkpt lat="45.053853758246795" lon="7.722780697444823"><ele>331.8333333333333</ele><time>2026-04-04T10:10:27.999Z</time></trkpt><trkpt lat="45.05376254431206" lon="7.722724704632313"><ele>332.66666666666663</ele><time>2026-04-04T10:10:28.999Z</time></trkpt><trkpt lat="45.053674048058944" lon="7.722674960906448"><ele>333.5</ele><time>2026-04-04T10:10:29.999Z</time></trkpt><trkpt lat="45.05359125936115" lon="7.722617215447777"><ele>334.3333333333333</ele><time>2026-04-04T10:10:30.999Z</time></trkpt><trkpt lat="45.053528363042446" lon="7.722554690969029"><ele>335.1666666666667</ele><time>2026-04-04T10:10:31.999Z</time></trkpt><trkpt lat="45.05346987146676" lon="7.722472443819924"><ele>336.0</ele><time>2026-04-04T10:10:32.999Z</time></trkpt><trkpt lat="45.05343496972379" lon="7.722338703162128"><ele>336.0</ele><time>2026-04-04T10:10:33.999Z</time></trkpt><trkpt lat="45.053406268131866" lon="7.722226963303646"><ele>336.0</ele><time>2026-04-04T10:10:34.999Z</time></trkpt><trkpt lat="45.05337655442522" lon="7.722104536663044"><ele>336.0</ele><time>2026-04-04T10:10:35.999Z</time></trkpt><trkpt lat="45.053337422721945" lon="7.721980815975463"><ele>336.0</ele><time>2026-04-04T10:10:36.999Z</time></trkpt><trkpt lat="45.05330985928378" lon="7.721858984519032"><ele>336.0</ele><time>2026-04-04T10:10:37.999Z</time></trkpt><trkpt lat="45.053278963323486" lon="7.721730429016051"><ele>337.0</ele><time>2026-04-04T10:10:38.999Z</time></trkpt><trkpt lat="45.0532554100751" lon="7.721604037717306"><ele>338.0</ele><time>2026-04-04T10:10:39.999Z</time></trkpt><trkpt lat="45.053295113506955" lon="7.7214091638630045"><ele>339.0</ele><time>2026-04-04T10:10:40.998Z</time></trkpt><trkpt lat="45.05333096225567" lon="7.72120949491365"><ele>340.0</ele><time>2026-04-04T10:10:42.998Z</time></trkpt><trkpt lat="45.05336210565157" lon="7.721081495249862"><ele>341.16666666666663</ele><time>2026-04-04T10:10:43.998Z</time></trkpt><trkpt lat="45.05339768702372" lon="7.720956245293983"><ele>342.3333333333333</ele><time>2026-04-04T10:10:44.998Z</time></trkpt><trkpt lat="45.05343748535776" lon="7.72081355385972"><ele>343.5</ele><time>2026-04-04T10:10:45.998Z</time></trkpt><trkpt lat="45.05343932097962" lon="7.720716941718728"><ele>344.6666666666667</ele><time>2026-04-04T10:10:46.998Z</time></trkpt><trkpt lat="45.05343427866037" lon="7.720613635620672"><ele>345.83333333333337</ele><time>2026-04-04T10:10:47.998Z</time></trkpt><trkpt lat="45.053409445738495" lon="7.720526189624069"><ele>347.0</ele><time>2026-04-04T10:10:48.998Z</time></trkpt><trkpt lat="45.05330705099114" lon="7.720439640351186"><ele>351.83333333333337</ele><time>2026-04-04T10:10:50.998Z</time></trkpt><trkpt lat="45.05324189577469" lon="7.72046266893791"><ele>356.6666666666667</ele><time>2026-04-04T10:10:51.998Z</time></trkpt><trkpt lat="45.053197504142325" lon="7.720528990665804"><ele>361.5</ele><time>2026-04-04T10:10:52.998Z</time></trkpt><trkpt lat="45.05315221850988" lon="7.720599021204701"><ele>366.3333333333333</ele><time>2026-04-04T10:10:53.998Z</time></trkpt><trkpt lat="45.053099748703225" lon="7.720686045687068"><ele>371.16666666666663</ele><time>2026-04-04T10:10:54.998Z</time></trkpt><trkpt lat="45.0530488224727" lon="7.720794230123635"><ele>376.0</ele><time>2026-04-04T10:10:55.998Z</time></trkpt><trkpt lat="45.05298487115905" lon="7.720891456220103"><ele>376.0</ele><time>2026-04-04T10:10:56.998Z</time></trkpt><trkpt lat="45.05291936069532" lon="7.720991289208368"><ele>376.0</ele><time>2026-04-04T10:10:57.998Z</time></trkpt><trkpt lat="45.05285429077122" lon="7.72109621617725"><ele>376.0</ele><time>2026-04-04T10:10:58.998Z</time></trkpt><trkpt lat="45.052787689057645" lon="7.721204245052099"><ele>376.0</ele><time>2026-04-04T10:10:59.998Z</time></trkpt><trkpt lat="45.05272006766878" lon="7.721310985268634"><ele>376.0</ele><time>2026-04-04T10:11:00.998Z</time></trkpt><trkpt lat="45.05265150796736" lon="7.721414935183509"><ele>373.8</ele><time>2026-04-04T10:11:01.998Z</time></trkpt><trkpt lat="45.0525874154307" lon="7.721519136268428"><ele>371.6</ele><time>2026-04-04T10:11:02.998Z</time></trkpt><trkpt lat="45.05253189742929" lon="7.72160911773491"><ele>369.4</ele><time>2026-04-04T10:11:03.998Z</time></trkpt><trkpt lat="45.052458309385486" lon="7.721713831715721"><ele>367.2</ele><time>2026-04-04T10:11:05.998Z</time></trkpt><trkpt lat="45.05238741735401" lon="7.721659988593962"><ele>365.0</ele><time>2026-04-04T10:11:07.998Z</time></trkpt><trkpt lat="45.052420634421345" lon="7.7215105990644926"><ele>365.0</ele><time>2026-04-04T10:11:09.998Z</time></trkpt><trkpt lat="45.052459400887514" lon="7.72142505492609"><ele>365.0</ele><time>2026-04-04T10:11:10.998Z</time></trkpt><trkpt lat="45.05248130429622" lon="7.721317536427815"><ele>365.0</ele><time>2026-04-04T10:11:11.998Z</time></trkpt><trkpt lat="45.052476370652144" lon="7.721192374598286"><ele>365.0</ele><time>2026-04-04T10:11:12.998Z</time></trkpt><trkpt lat="45.05244347922469" lon="7.721072936581846"><ele>365.0</ele><time>2026-04-04T10:11:13.998Z</time></trkpt><trkpt lat="45.052420579165975" lon="7.720955611805649"><ele>365.0</ele><time>2026-04-04T10:11:14.998Z</time></trkpt><trkpt lat="45.05241420655941" lon="7.720835652500093"><ele>367.2</ele><time>2026-04-04T10:11:15.998Z</time></trkpt><trkpt lat="45.05243533988655" lon="7.7207107165149536"><ele>369.4</ele><time>2026-04-04T10:11:16.998Z</time></trkpt><trkpt lat="45.05244078986184" lon="7.720570163578261"><ele>371.6</ele><time>2026-04-04T10:11:17.998Z</time></trkpt><trkpt lat="45.052463126255184" lon="7.720439071250269"><ele>373.8</ele><time>2026-04-04T10:11:18.998Z</time></trkpt><trkpt lat="45.05248549734211" lon="7.720299672406236"><ele>376.0</ele><time>2026-04-04T10:11:19.998Z</time></trkpt><trkpt lat="45.0525135867978" lon="7.7201700047822275"><ele>378.20000000000005</ele><time>2026-04-04T10:11:20.998Z</time></trkpt><trkpt lat="45.05255531609235" lon="7.720058720095522"><ele>380.40000000000003</ele><time>2026-04-04T10:11:21.998Z</time></trkpt><trkpt lat="45.05260456053121" lon="7.719955115579404"><ele>382.6</ele><time>2026-04-04T10:11:22.998Z</time></trkpt><trkpt lat="45.05264023745416" lon="7.719826774086637"><ele>384.8</ele><time>2026-04-04T10:11:23.998Z</time></trkpt><trkpt lat="45.05265918488837" lon="7.719701712832052"><ele>387.0</ele><time>2026-04-04T10:11:24.998Z</time></trkpt><trkpt lat="45.05266986260156" lon="7.719572970479918"><ele>387.0</ele><time>2026-04-04T10:11:25.999Z</time></trkpt><trkpt lat="45.052656571447365" lon="7.7194301763038915"><ele>387.0</ele><time>2026-04-04T10:11:26.999Z</time></trkpt><trkpt lat="45.05266370178136" lon="7.719308706284113"><ele>387.0</ele><time>2026-04-04T10:11:27.999Z</time></trkpt><trkpt lat="45.052662763181736" lon="7.719164381141998"><ele>387.0</ele><time>2026-04-04T10:11:28.999Z</time></trkpt><trkpt lat="45.052656308997555" lon="7.719022763589672"><ele>387.0</ele><time>2026-04-04T10:11:29.999Z</time></trkpt><trkpt lat="45.052644440928724" lon="7.718886023411175"><ele>387.5</ele><time>2026-04-04T10:11:30.999Z</time></trkpt><trkpt lat="45.05263222684972" lon="7.718748320674938"><ele>388.0</ele><time>2026-04-04T10:11:31.999Z</time></trkpt><trkpt lat="45.05263032830662" lon="7.71863260448525"><ele>388.5</ele><time>2026-04-04T10:11:32.999Z</time></trkpt><trkpt lat="45.052615264892616" lon="7.71851921435235"><ele>389.0</ele><time>2026-04-04T10:11:33.999Z</time></trkpt><trkpt lat="45.0526100376309" lon="7.718418642131703"><ele>389.5</ele><time>2026-04-04T10:11:34.999Z</time></trkpt><trkpt lat="45.05258432794375" lon="7.718287594448424"><ele>390.0</ele><time>2026-04-04T10:11:37Z</time></trkpt><trkpt lat="45.0524791410852" lon="7.718197037160342"><ele>390.0</ele><time>2026-04-04T10:11:51.999Z</time></trkpt><trkpt lat="45.0524480822744" lon="7.718472830494579"><ele>390.0</ele><time>2026-04-04T10:11:54.999Z</time></trkpt><trkpt lat="45.05247514647351" lon="7.7185674224999445"><ele>390.0</ele><time>2026-04-04T10:11:55.999Z</time></trkpt><trkpt lat="45.05247836519348" lon="7.71875716378878"><ele>390.0</ele><time>2026-04-04T10:11:57.999Z</time></trkpt><trkpt lat="45.052444908060245" lon="7.718850351177564"><ele>392.0</ele><time>2026-04-04T10:11:58.999Z</time></trkpt><trkpt lat="45.05239479862854" lon="7.71895807516899"><ele>394.0</ele><time>2026-04-04T10:11:59.999Z</time></trkpt><trkpt lat="45.05233861195215" lon="7.719068008694267"><ele>396.0</ele><time>2026-04-04T10:12:00.999Z</time></trkpt><trkpt lat="45.05227805038371" lon="7.719184777056714"><ele>398.0</ele><time>2026-04-04T10:12:01.999Z</time></trkpt><trkpt lat="45.05219130878084" lon="7.7192672375596985"><ele>400.0</ele><time>2026-04-04T10:12:02.999Z</time></trkpt><trkpt lat="45.05212234092836" lon="7.719370327912789"><ele>401.6</ele><time>2026-04-04T10:12:03.999Z</time></trkpt><trkpt lat="45.05207383430825" lon="7.719492902978015"><ele>403.2</ele><time>2026-04-04T10:12:04.999Z</time></trkpt><trkpt lat="45.052012467721646" lon="7.7196161029750625"><ele>404.79999999999995</ele><time>2026-04-04T10:12:05.999Z</time></trkpt><trkpt lat="45.05196255720572" lon="7.719753921872553"><ele>406.4</ele><time>2026-04-04T10:12:06.999Z</time></trkpt><trkpt lat="45.051919639291725" lon="7.719897111768928"><ele>408.0</ele><time>2026-04-04T10:12:07.999Z</time></trkpt><trkpt lat="45.05186259264758" lon="7.720027224138264"><ele>408.0</ele><time>2026-04-04T10:12:08.999Z</time></trkpt><trkpt lat="45.05181896380103" lon="7.720177347440441"><ele>408.0</ele><time>2026-04-04T10:12:09.999Z</time></trkpt><trkpt lat="45.051759618471436" lon="7.72031655104361"><ele>408.0</ele><time>2026-04-04T10:12:10.999Z</time></trkpt><trkpt lat="45.05171103584222" lon="7.720460601447924"><ele>408.0</ele><time>2026-04-04T10:12:11.999Z</time></trkpt><trkpt lat="45.05167025783338" lon="7.720606777854505"><ele>407.59999999999997</ele><time>2026-04-04T10:12:12.999Z</time></trkpt><trkpt lat="45.051641349642686" lon="7.720751234870534"><ele>407.2</ele><time>2026-04-04T10:12:13.999Z</time></trkpt><trkpt lat="45.05158100295376" lon="7.72088152727744"><ele>406.8</ele><time>2026-04-04T10:12:14.999Z</time></trkpt><trkpt lat="45.051544068134184" lon="7.721014967332209"><ele>406.4</ele><time>2026-04-04T10:12:15.999Z</time></trkpt><trkpt lat="45.05151205357801" lon="7.721157819316302"><ele>406.0</ele><time>2026-04-04T10:12:16.999Z</time></trkpt><trkpt lat="45.051472464841105" lon="7.721287143753596"><ele>408.0</ele><time>2026-04-04T10:12:17.999Z</time></trkpt><trkpt lat="45.05142155906499" lon="7.721415173804515"><ele>410.0</ele><time>2026-04-04T10:12:18.999Z</time></trkpt><trkpt lat="45.05137109542285" lon="7.721532316216771"><ele>412.0</ele><time>2026-04-04T10:12:19.999Z</time></trkpt><trkpt lat="45.05132889836259" lon="7.721653982869745"><ele>414.0</ele><time>2026-04-04T10:12:20.999Z</time></trkpt><trkpt lat="45.05125963284959" lon="7.721775552263425"><ele>416.0</ele><time>2026-04-04T10:12:21.999Z</time></trkpt><trkpt lat="45.051193123491096" lon="7.721893154097176"><ele>417.0</ele><time>2026-04-04T10:12:22.999Z</time></trkpt><trkpt lat="45.05112644792082" lon="7.722012436396969"><ele>418.0</ele><time>2026-04-04T10:12:23.999Z</time></trkpt><trkpt lat="45.051059499286886" lon="7.72213033242003"><ele>419.0</ele><time>2026-04-04T10:12:24.999Z</time></trkpt><trkpt lat="45.05099281795385" lon="7.7222491908079585"><ele>420.0</ele><time>2026-04-04T10:12:25.999Z</time></trkpt><trkpt lat="45.0509194272282" lon="7.722363414573249"><ele>421.0</ele><time>2026-04-04T10:12:26.999Z</time></trkpt><trkpt lat="45.05083844289203" lon="7.722478488919497"><ele>422.5</ele><time>2026-04-04T10:12:27.999Z</time></trkpt><trkpt lat="45.0507551755289" lon="7.7225823925007395"><ele>424.0</ele><time>2026-04-04T10:12:28.999Z</time></trkpt><trkpt lat="45.050655583398466" lon="7.722681789548735"><ele>425.5</ele><time>2026-04-04T10:12:29.999Z</time></trkpt><trkpt lat="45.05054845466624" lon="7.722792422766643"><ele>427.0</ele><time>2026-04-04T10:12:30.999Z</time></trkpt><trkpt lat="45.050437810065084" lon="7.7228936896070834"><ele>427.25</ele><time>2026-04-04T10:12:31.999Z</time></trkpt><trkpt lat="45.050335805618346" lon="7.72299496178554"><ele>427.5</ele><time>2026-04-04T10:12:32.999Z</time></trkpt><trkpt lat="45.05021320502252" lon="7.723081684907341"><ele>427.75</ele><time>2026-04-04T10:12:33.999Z</time></trkpt><trkpt lat="45.050106497757824" lon="7.72318189734083"><ele>428.0</ele><time>2026-04-04T10:12:34.999Z</time></trkpt><trkpt lat="45.05001040341108" lon="7.723241585298209"><ele>429.4</ele><time>2026-04-04T10:12:35.999Z</time></trkpt><trkpt lat="45.04989690601363" lon="7.723283815502507"><ele>430.79999999999995</ele><time>2026-04-04T10:12:36.999Z</time></trkpt><trkpt lat="45.049771904204455" lon="7.7232989831006345"><ele>432.2</ele><time>2026-04-04T10:12:37.999Z</time></trkpt><trkpt lat="45.04967482601715" lon="7.723324073589538"><ele>433.6</ele><time>2026-04-04T10:12:38.999Z</time></trkpt><trkpt lat="45.04958240215866" lon="7.723386077637209"><ele>435.0</ele><time>2026-04-04T10:12:39.999Z</time></trkpt><trkpt lat="45.04950966453566" lon="7.7234778663302235"><ele>436.25</ele><time>2026-04-04T10:12:40.999Z</time></trkpt><trkpt lat="45.04945264401845" lon="7.723619821187635"><ele>437.5</ele><time>2026-04-04T10:12:41.999Z</time></trkpt><trkpt lat="45.0494346766327" lon="7.723788124510062"><ele>438.75</ele><time>2026-04-04T10:12:42.999Z</time></trkpt><trkpt lat="45.049431589842705" lon="7.7239573775145995"><ele>440.0</ele><time>2026-04-04T10:12:43.999Z</time></trkpt><trkpt lat="45.04941154153949" lon="7.724091446781041"><ele>440.0</ele><time>2026-04-04T10:12:44.999Z</time></trkpt><trkpt lat="45.04938940100836" lon="7.724210474513762"><ele>440.0</ele><time>2026-04-04T10:12:45.999Z</time></trkpt><trkpt lat="45.049331504783474" lon="7.724258945699566"><ele>440.0</ele><time>2026-04-04T10:12:46.999Z</time></trkpt><trkpt lat="45.04919923807576" lon="7.724320605842089"><ele>440.0</ele><time>2026-04-04T10:12:47.999Z</time></trkpt><trkpt lat="45.04907752273673" lon="7.724390843916662"><ele>440.0</ele><time>2026-04-04T10:12:48.999Z</time></trkpt><trkpt lat="45.048951144850946" lon="7.7244794814678945"><ele>441.3333333333333</ele><time>2026-04-04T10:12:49.999Z</time></trkpt><trkpt lat="45.04880962620489" lon="7.724623968037491"><ele>442.66666666666663</ele><time>2026-04-04T10:12:50.999Z</time></trkpt><trkpt lat="45.04869642804473" lon="7.7247468995929385"><ele>444.0</ele><time>2026-04-04T10:12:51.999Z</time></trkpt><trkpt lat="45.04858554560887" lon="7.724872426096353"><ele>444.0</ele><time>2026-04-04T10:12:52.999Z</time></trkpt><trkpt lat="45.04847829602694" lon="7.72499458766266"><ele>444.0</ele><time>2026-04-04T10:12:53.999Z</time></trkpt><trkpt lat="45.04835758197927" lon="7.725096778053832"><ele>444.0</ele><time>2026-04-04T10:12:54.999Z</time></trkpt><trkpt lat="45.048226349399314" lon="7.725191890328519"><ele>444.0</ele><time>2026-04-04T10:12:55.998Z</time></trkpt><trkpt lat="45.04809615727886" lon="7.725289696581611"><ele>446.33333333333337</ele><time>2026-04-04T10:12:56.998Z</time></trkpt><trkpt lat="45.04796532767591" lon="7.725395783804372"><ele>448.6666666666667</ele><time>2026-04-04T10:12:57.998Z</time></trkpt><trkpt lat="45.04783432434591" lon="7.7255098756743426"><ele>451.0</ele><time>2026-04-04T10:12:58.998Z</time></trkpt><trkpt lat="45.04769930210244" lon="7.725626554619836"><ele>451.0</ele><time>2026-04-04T10:12:59.998Z</time></trkpt><trkpt lat="45.04756597679285" lon="7.725753450998029"><ele>451.0</ele><time>2026-04-04T10:13:00.998Z</time></trkpt><trkpt lat="45.04742864641126" lon="7.725881711123202"><ele>451.0</ele><time>2026-04-04T10:13:01.998Z</time></trkpt><trkpt lat="45.04729382301176" lon="7.72601489618476"><ele>456.0</ele><time>2026-04-04T10:13:02.998Z</time></trkpt><trkpt lat="45.04715312474858" lon="7.726142678744413"><ele>461.0</ele><time>2026-04-04T10:13:03.998Z</time></trkpt><trkpt lat="45.04702141322122" lon="7.7262656508805"><ele>466.0</ele><time>2026-04-04T10:13:04.998Z</time></trkpt><trkpt lat="45.046901658776434" lon="7.726380393344046"><ele>466.0</ele><time>2026-04-04T10:13:05.998Z</time></trkpt><trkpt lat="45.04679217124575" lon="7.726495412861234"><ele>466.0</ele><time>2026-04-04T10:13:06.998Z</time></trkpt><trkpt lat="45.04668743514384" lon="7.7266307002978545"><ele>466.0</ele><time>2026-04-04T10:13:07.998Z</time></trkpt><trkpt lat="45.04660372114659" lon="7.726795171550482"><ele>466.0</ele><time>2026-04-04T10:13:08.998Z</time></trkpt><trkpt lat="45.04652675281855" lon="7.726969397275354"><ele>470.25</ele><time>2026-04-04T10:13:09.998Z</time></trkpt><trkpt lat="45.04645311385765" lon="7.727155492751614"><ele>474.5</ele><time>2026-04-04T10:13:10.998Z</time></trkpt><trkpt lat="45.04643035372729" lon="7.727335429013973"><ele>478.75</ele><time>2026-04-04T10:13:11.998Z</time></trkpt><trkpt lat="45.046375416591566" lon="7.727524397580149"><ele>483.0</ele><time>2026-04-04T10:13:12.998Z</time></trkpt><trkpt lat="45.046372687341105" lon="7.727721476775401"><ele>482.75</ele><time>2026-04-04T10:13:13.998Z</time></trkpt><trkpt lat="45.046350481472025" lon="7.727892255378433"><ele>482.5</ele><time>2026-04-04T10:13:14.998Z</time></trkpt><trkpt lat="45.04631495809539" lon="7.728045943151378"><ele>482.25</ele><time>2026-04-04T10:13:15.998Z</time></trkpt><trkpt lat="45.04623413975068" lon="7.728179555074505"><ele>482.0</ele><time>2026-04-04T10:13:16.998Z</time></trkpt><trkpt lat="45.04614915241177" lon="7.728306077927736"><ele>482.0</ele><time>2026-04-04T10:13:17.998Z</time></trkpt><trkpt lat="45.046046354448606" lon="7.728432650806371"><ele>482.0</ele><time>2026-04-04T10:13:18.998Z</time></trkpt><trkpt lat="45.04595040984021" lon="7.728566763564203"><ele>482.0</ele><time>2026-04-04T10:13:19.998Z</time></trkpt><trkpt lat="45.04586836487103" lon="7.7287428209591935"><ele>482.0</ele><time>2026-04-04T10:13:20.998Z</time></trkpt><trkpt lat="45.045765084622595" lon="7.728896458183223"><ele>484.6</ele><time>2026-04-04T10:13:21.998Z</time></trkpt><trkpt lat="45.04568391003214" lon="7.729044455354299"><ele>487.20000000000005</ele><time>2026-04-04T10:13:22.998Z</time></trkpt><trkpt lat="45.04560713173554" lon="7.729178827411205"><ele>489.8</ele><time>2026-04-04T10:13:23.998Z</time></trkpt><trkpt lat="45.04554327241303" lon="7.7292613078397165"><ele>492.4</ele><time>2026-04-04T10:13:24.998Z</time></trkpt><trkpt lat="45.0454458750364" lon="7.729238811994016"><ele>495.0</ele><time>2026-04-04T10:13:25.998Z</time></trkpt><trkpt lat="45.045348987133295" lon="7.729214270599198"><ele>495.0</ele><time>2026-04-04T10:13:26.998Z</time></trkpt><trkpt lat="45.04525022266035" lon="7.729152554069612"><ele>495.0</ele><time>2026-04-04T10:13:27.998Z</time></trkpt><trkpt lat="45.045128788840685" lon="7.7291355402402795"><ele>495.0</ele><time>2026-04-04T10:13:28.998Z</time></trkpt><trkpt lat="45.04505524642785" lon="7.729180002517218"><ele>495.0</ele><time>2026-04-04T10:13:29.998Z</time></trkpt><trkpt lat="45.04498220840794" lon="7.729266487191361"><ele>495.0</ele><time>2026-04-04T10:13:30.998Z</time></trkpt><trkpt lat="45.04490711399113" lon="7.729335368278362"><ele>501.4</ele><time>2026-04-04T10:13:32Z</time></trkpt><trkpt lat="45.04480868584147" lon="7.729358458865127"><ele>507.8</ele><time>2026-04-04T10:13:33Z</time></trkpt><trkpt lat="45.04474206888054" lon="7.72924695094041"><ele>514.2</ele><time>2026-04-04T10:13:35Z</time></trkpt><trkpt lat="45.04475764865858" lon="7.729121171127973"><ele>520.6</ele><time>2026-04-04T10:13:36Z</time></trkpt><trkpt lat="45.044766805401686" lon="7.728978852826893"><ele>527.0</ele><time>2026-04-04T10:13:37Z</time></trkpt><trkpt lat="45.044769145460364" lon="7.728795499421469"><ele>527.0</ele><time>2026-04-04T10:13:38Z</time></trkpt><trkpt lat="45.044767015791486" lon="7.728612515563212"><ele>527.0</ele><time>2026-04-04T10:13:39Z</time></trkpt><trkpt lat="45.04475259937969" lon="7.72843295086389"><ele>527.0</ele><time>2026-04-04T10:13:40Z</time></trkpt><trkpt lat="45.044753605359425" lon="7.728286264945047"><ele>527.0</ele><time>2026-04-04T10:13:41Z</time></trkpt><trkpt lat="45.0447888962599" lon="7.728161888758208"><ele>527.8000000000001</ele><time>2026-04-04T10:13:42Z</time></trkpt><trkpt lat="45.044819527069656" lon="7.72804255131738"><ele>528.6</ele><time>2026-04-04T10:13:43Z</time></trkpt><trkpt lat="45.04486168203325" lon="7.72793426129241"><ele>529.4000000000001</ele><time>2026-04-04T10:13:44Z</time></trkpt><trkpt lat="45.04485834455269" lon="7.727808472848103"><ele>530.2</ele><time>2026-04-04T10:13:45Z</time></trkpt><trkpt lat="45.04479803858846" lon="7.727693277587884"><ele>531.0</ele><time>2026-04-04T10:13:46Z</time></trkpt><trkpt lat="45.04473033259658" lon="7.727557928709244"><ele>531.0</ele><time>2026-04-04T10:13:47Z</time></trkpt><trkpt lat="45.04469395828025" lon="7.727403620214898"><ele>531.0</ele><time>2026-04-04T10:13:48Z</time></trkpt><trkpt lat="45.044659911323386" lon="7.727247378615948"><ele>531.0</ele><time>2026-04-04T10:13:49Z</time></trkpt><trkpt lat="45.04463773839453" lon="7.727086930191474"><ele>531.0</ele><time>2026-04-04T10:13:50Z</time></trkpt><trkpt lat="45.0446109575175" lon="7.726976577316617"><ele>531.0</ele><time>2026-04-04T10:13:51Z</time></trkpt><trkpt lat="45.04458093570605" lon="7.7268973674259405"><ele>531.0</ele><time>2026-04-04T10:13:52Z</time></trkpt><trkpt lat="45.044505482511546" lon="7.726850321044526"><ele>531.0</ele><time>2026-04-04T10:13:53Z</time></trkpt><trkpt lat="45.04443155059265" lon="7.726858639601623"><ele>531.0</ele><time>2026-04-04T10:13:54Z</time></trkpt><trkpt lat="45.044328267172624" lon="7.7269187607988234"><ele>531.0</ele><time>2026-04-04T10:13:55Z</time></trkpt><trkpt lat="45.04423114867764" lon="7.726942056573781"><ele>531.0</ele><time>2026-04-04T10:13:56Z</time></trkpt><trkpt lat="45.04413261078408" lon="7.726972305501225"><ele>532.4</ele><time>2026-04-04T10:13:57Z</time></trkpt><trkpt lat="45.04403195692917" lon="7.726994923233787"><ele>533.8</ele><time>2026-04-04T10:13:58Z</time></trkpt><trkpt lat="45.04393210453519" lon="7.726985642482885"><ele>535.1999999999999</ele><time>2026-04-04T10:13:59Z</time></trkpt><trkpt lat="45.04382952480314" lon="7.726953889349378"><ele>536.6</ele><time>2026-04-04T10:14:00Z</time></trkpt><trkpt lat="45.043721109784926" lon="7.7269225174449465"><ele>538.0</ele><time>2026-04-04T10:14:01Z</time></trkpt><trkpt lat="45.04359985474826" lon="7.726902762957449"><ele>538.0</ele><time>2026-04-04T10:14:02Z</time></trkpt><trkpt lat="45.04347987827129" lon="7.726899119779616"><ele>538.0</ele><time>2026-04-04T10:14:03Z</time></trkpt><trkpt lat="45.04335854828468" lon="7.726899744522954"><ele>538.0</ele><time>2026-04-04T10:14:04Z</time></trkpt><trkpt lat="45.04323927754315" lon="7.726885225213739"><ele>538.0</ele><time>2026-04-04T10:14:05Z</time></trkpt><trkpt lat="45.043124527739366" lon="7.726839736120162"><ele>536.3333333333334</ele><time>2026-04-04T10:14:06Z</time></trkpt><trkpt lat="45.043035028239665" lon="7.726786715939352"><ele>534.6666666666667</ele><time>2026-04-04T10:14:07Z</time></trkpt><trkpt lat="45.042941944510424" lon="7.726772103602316"><ele>533.0</ele><time>2026-04-04T10:14:08Z</time></trkpt><trkpt lat="45.042855478298" lon="7.726741242181661"><ele>531.3333333333334</ele><time>2026-04-04T10:14:09Z</time></trkpt><trkpt lat="45.04278158601284" lon="7.726749787586048"><ele>529.6666666666666</ele><time>2026-04-04T10:14:10Z</time></trkpt><trkpt lat="45.042726303220974" lon="7.726793776544009"><ele>528.0</ele><time>2026-04-04T10:14:11Z</time></trkpt><trkpt lat="45.042684499414655" lon="7.726892775173787"><ele>530.0</ele><time>2026-04-04T10:14:11.999Z</time></trkpt><trkpt lat="45.04268734143847" lon="7.7270314061453425"><ele>532.0</ele><time>2026-04-04T10:14:12.999Z</time></trkpt><trkpt lat="45.04271858200939" lon="7.72714647680797"><ele>534.0</ele><time>2026-04-04T10:14:13.999Z</time></trkpt><trkpt lat="45.042798800655184" lon="7.727199284262215"><ele>536.0</ele><time>2026-04-04T10:14:14.999Z</time></trkpt><trkpt lat="45.04288127316609" lon="7.727255245440012"><ele>538.0</ele><time>2026-04-04T10:14:15.999Z</time></trkpt><trkpt lat="45.04296492055519" lon="7.727290838685759"><ele>538.0</ele><time>2026-04-04T10:14:16.999Z</time></trkpt><trkpt lat="45.04302737063332" lon="7.727359262734653"><ele>538.0</ele><time>2026-04-04T10:14:17.999Z</time></trkpt><trkpt lat="45.04304528277992" lon="7.727461986322642"><ele>538.0</ele><time>2026-04-04T10:14:18.999Z</time></trkpt><trkpt lat="45.04302659324469" lon="7.72758433234789"><ele>538.0</ele><time>2026-04-04T10:14:19.999Z</time></trkpt><trkpt lat="45.04296048571065" lon="7.727675045244102"><ele>538.0</ele><time>2026-04-04T10:14:20.999Z</time></trkpt><trkpt lat="45.04290298380274" lon="7.7277771841697005"><ele>538.0</ele><time>2026-04-04T10:14:21.999Z</time></trkpt><trkpt lat="45.042831630983734" lon="7.727883770140601"><ele>538.25</ele><time>2026-04-04T10:14:22.999Z</time></trkpt><trkpt lat="45.042757964526146" lon="7.728017437779416"><ele>538.5</ele><time>2026-04-04T10:14:23.999Z</time></trkpt><trkpt lat="45.0426655791821" lon="7.72813084260965"><ele>538.75</ele><time>2026-04-04T10:14:24.999Z</time></trkpt><trkpt lat="45.04257275095829" lon="7.728250587151708"><ele>539.0</ele><time>2026-04-04T10:14:25.999Z</time></trkpt><trkpt lat="45.0424842937102" lon="7.7284060045644685"><ele>543.25</ele><time>2026-04-04T10:14:26.999Z</time></trkpt><trkpt lat="45.04240101066917" lon="7.728565160259117"><ele>547.5</ele><time>2026-04-04T10:14:27.999Z</time></trkpt><trkpt lat="45.04231977230641" lon="7.728721190032238"><ele>551.75</ele><time>2026-04-04T10:14:28.999Z</time></trkpt><trkpt lat="45.042249181638184" lon="7.728877153637901"><ele>556.0</ele><time>2026-04-04T10:14:29.999Z</time></trkpt><trkpt lat="45.04218055241971" lon="7.729018595739544"><ele>556.0</ele><time>2026-04-04T10:14:30.999Z</time></trkpt><trkpt lat="45.04211623418874" lon="7.7291464437691095"><ele>556.0</ele><time>2026-04-04T10:14:31.999Z</time></trkpt><trkpt lat="45.04205333410938" lon="7.729218626976077"><ele>556.0</ele><time>2026-04-04T10:14:32.999Z</time></trkpt><trkpt lat="45.0420035171806" lon="7.729296017763045"><ele>556.0</ele><time>2026-04-04T10:14:33.999Z</time></trkpt><trkpt lat="45.04191924660515" lon="7.729310885088369"><ele>556.0</ele><time>2026-04-04T10:14:34.999Z</time></trkpt><trkpt lat="45.04182104257545" lon="7.729248377283185"><ele>556.0</ele><time>2026-04-04T10:14:35.999Z</time></trkpt><trkpt lat="45.041729345548156" lon="7.72920016312082"><ele>556.0</ele><time>2026-04-04T10:14:36.999Z</time></trkpt><trkpt lat="45.04162439351751" lon="7.729172142292671"><ele>556.0</ele><time>2026-04-04T10:14:37.999Z</time></trkpt><trkpt lat="45.04151965885033" lon="7.729100706957051"><ele>556.0</ele><time>2026-04-04T10:14:38.999Z</time></trkpt><trkpt lat="45.041394934282096" lon="7.72904977493515"><ele>558.0</ele><time>2026-04-04T10:14:39.999Z</time></trkpt><trkpt lat="45.04127915281137" lon="7.728995076541705"><ele>560.0</ele><time>2026-04-04T10:14:40.999Z</time></trkpt><trkpt lat="45.041178024016375" lon="7.728934882221185"><ele>562.0</ele><time>2026-04-04T10:14:41.999Z</time></trkpt><trkpt lat="45.04109204076854" lon="7.728895853919065"><ele>564.0</ele><time>2026-04-04T10:14:42.999Z</time></trkpt><trkpt lat="45.0410055299941" lon="7.728866294530915"><ele>566.0</ele><time>2026-04-04T10:14:43.999Z</time></trkpt><trkpt lat="45.040878085354386" lon="7.728874923672465"><ele>566.0</ele><time>2026-04-04T10:14:45.999Z</time></trkpt><trkpt lat="45.04081812804083" lon="7.728954994345973"><ele>566.0</ele><time>2026-04-04T10:14:46.999Z</time></trkpt><trkpt lat="45.040786638360316" lon="7.729062762846445"><ele>566.0</ele><time>2026-04-04T10:14:47.999Z</time></trkpt><trkpt lat="45.040791542614905" lon="7.729190467021635"><ele>566.0</ele><time>2026-04-04T10:14:48.999Z</time></trkpt><trkpt lat="45.04081643615124" lon="7.729315606453494"><ele>566.0</ele><time>2026-04-04T10:14:49.999Z</time></trkpt><trkpt lat="45.04087702837866" lon="7.729426372708519"><ele>566.0</ele><time>2026-04-04T10:14:50.999Z</time></trkpt><trkpt lat="45.040927072604866" lon="7.729541370988284"><ele>566.8</ele><time>2026-04-04T10:14:51.999Z</time></trkpt><trkpt lat="45.04098709302132" lon="7.729658836927726"><ele>567.6</ele><time>2026-04-04T10:14:52.999Z</time></trkpt><trkpt lat="45.04101581536537" lon="7.729809760618771"><ele>568.4</ele><time>2026-04-04T10:14:53.999Z</time></trkpt><trkpt lat="45.041051577536436" lon="7.729957348588826"><ele>569.2</ele><time>2026-04-04T10:14:54.999Z</time></trkpt><trkpt lat="45.041071332094546" lon="7.730128538588248"><ele>570.0</ele><time>2026-04-04T10:14:55.999Z</time></trkpt><trkpt lat="45.04109220723834" lon="7.730303707936865"><ele>570.25</ele><time>2026-04-04T10:14:56.999Z</time></trkpt><trkpt lat="45.04111882013561" lon="7.730483277210962"><ele>570.5</ele><time>2026-04-04T10:14:57.999Z</time></trkpt><trkpt lat="45.041135156161836" lon="7.730663240387373"><ele>570.75</ele><time>2026-04-04T10:14:58.999Z</time></trkpt><trkpt lat="45.041131446456376" lon="7.730844413573759"><ele>571.0</ele><time>2026-04-04T10:14:59.999Z</time></trkpt><trkpt lat="45.04113051881454" lon="7.731025544787342"><ele>573.0</ele><time>2026-04-04T10:15:00.999Z</time></trkpt><trkpt lat="45.04111968997095" lon="7.7312012960379"><ele>575.0</ele><time>2026-04-04T10:15:01.999Z</time></trkpt><trkpt lat="45.04110792770198" lon="7.7313730373092975"><ele>577.0</ele><time>2026-04-04T10:15:02.999Z</time></trkpt><trkpt lat="45.041093504873984" lon="7.731544013365733"><ele>579.0</ele><time>2026-04-04T10:15:03.999Z</time></trkpt><trkpt lat="45.04107919920419" lon="7.731700257915709"><ele>579.0</ele><time>2026-04-04T10:15:04.999Z</time></trkpt><trkpt lat="45.04106095816491" lon="7.731834876911841"><ele>579.0</ele><time>2026-04-04T10:15:05.999Z</time></trkpt><trkpt lat="45.041039704327304" lon="7.7319387135509805"><ele>579.0</ele><time>2026-04-04T10:15:06.999Z</time></trkpt><trkpt lat="45.04098549203109" lon="7.7320634868459175"><ele>579.0</ele><time>2026-04-04T10:15:07.999Z</time></trkpt><trkpt lat="45.04092195055831" lon="7.732160637921872"><ele>579.0</ele><time>2026-04-04T10:15:08.999Z</time></trkpt><trkpt lat="45.04084754150605" lon="7.732211610665884"><ele>580.8333333333334</ele><time>2026-04-04T10:15:09.999Z</time></trkpt><trkpt lat="45.04076952457259" lon="7.732230383894194"><ele>582.6666666666666</ele><time>2026-04-04T10:15:10.999Z</time></trkpt><trkpt lat="45.040686309750335" lon="7.732216422287681"><ele>584.5</ele><time>2026-04-04T10:15:11.999Z</time></trkpt><trkpt lat="45.04055789807853" lon="7.73223602669142"><ele>586.3333333333333</ele><time>2026-04-04T10:15:12.999Z</time></trkpt><trkpt lat="45.04049462259319" lon="7.73225439880176"><ele>588.1666666666666</ele><time>2026-04-04T10:15:13.999Z</time></trkpt><trkpt lat="45.04042040978837" lon="7.732319665970837"><ele>590.0</ele><time>2026-04-04T10:15:14.999Z</time></trkpt><trkpt lat="45.04036174383241" lon="7.732419619567374"><ele>590.0</ele><time>2026-04-04T10:15:15.999Z</time></trkpt><trkpt lat="45.04031714263334" lon="7.732549829365361"><ele>590.0</ele><time>2026-04-04T10:15:16.998Z</time></trkpt><trkpt lat="45.04026911566156" lon="7.732684110996015"><ele>590.0</ele><time>2026-04-04T10:15:17.998Z</time></trkpt><trkpt lat="45.04022317159155" lon="7.732830270343856"><ele>590.0</ele><time>2026-04-04T10:15:18.998Z</time></trkpt><trkpt lat="45.0401745122896" lon="7.732985066962311"><ele>590.0</ele><time>2026-04-04T10:15:19.998Z</time></trkpt><trkpt lat="45.040124669508515" lon="7.733155126812845"><ele>591.75</ele><time>2026-04-04T10:15:20.998Z</time></trkpt><trkpt lat="45.04007630557561" lon="7.733311757803544"><ele>593.5</ele><time>2026-04-04T10:15:21.998Z</time></trkpt><trkpt lat="45.040020770852955" lon="7.7334836688989474"><ele>595.25</ele><time>2026-04-04T10:15:22.998Z</time></trkpt><trkpt lat="45.03995237843765" lon="7.733633876312432"><ele>597.0</ele><time>2026-04-04T10:15:23.998Z</time></trkpt><trkpt lat="45.03987500279838" lon="7.733770069761111"><ele>597.75</ele><time>2026-04-04T10:15:24.998Z</time></trkpt><trkpt lat="45.039797402990004" lon="7.733902827150016"><ele>598.5</ele><time>2026-04-04T10:15:25.998Z</time></trkpt><trkpt lat="45.03971591648409" lon="7.734036013346794"><ele>599.25</ele><time>2026-04-04T10:15:26.998Z</time></trkpt><trkpt lat="45.03963826178464" lon="7.7341757687495925"><ele>600.0</ele><time>2026-04-04T10:15:27.998Z</time></trkpt><trkpt lat="45.039561290624995" lon="7.734312814935601"><ele>602.2</ele><time>2026-04-04T10:15:28.998Z</time></trkpt><trkpt lat="45.03948726189265" lon="7.734441013459083"><ele>604.4</ele><time>2026-04-04T10:15:29.998Z</time></trkpt><trkpt lat="45.03941930716642" lon="7.734549899594359"><ele>606.6</ele><time>2026-04-04T10:15:30.998Z</time></trkpt><trkpt lat="45.039372020087356" lon="7.734630604163151"><ele>608.8</ele><time>2026-04-04T10:15:31.998Z</time></trkpt><trkpt lat="45.039271382137144" lon="7.734686405888454"><ele>611.0</ele><time>2026-04-04T10:15:32.998Z</time></trkpt><trkpt lat="45.0391759277606" lon="7.734680570257351"><ele>614.0</ele><time>2026-04-04T10:15:33.998Z</time></trkpt><trkpt lat="45.03906864738115" lon="7.734689903648677"><ele>617.0</ele><time>2026-04-04T10:15:34.998Z</time></trkpt><trkpt lat="45.038948303904505" lon="7.734719698124774"><ele>620.0</ele><time>2026-04-04T10:15:35.998Z</time></trkpt><trkpt lat="45.03882420010632" lon="7.7347335351991395"><ele>623.0</ele><time>2026-04-04T10:15:36.998Z</time></trkpt><trkpt lat="45.03870815632313" lon="7.734759839639656"><ele>623.0</ele><time>2026-04-04T10:15:38Z</time></trkpt><trkpt lat="45.038614305206174" lon="7.734797144775045"><ele>623.0</ele><time>2026-04-04T10:15:39Z</time></trkpt><trkpt lat="45.038547475742895" lon="7.734852743718538"><ele>623.0</ele><time>2026-04-04T10:15:40Z</time></trkpt><trkpt lat="45.038501700628224" lon="7.73494571764054"><ele>623.0</ele><time>2026-04-04T10:15:41Z</time></trkpt><trkpt lat="45.038485120931014" lon="7.735064554831322"><ele>623.0</ele><time>2026-04-04T10:15:42Z</time></trkpt><trkpt lat="45.03847683786346" lon="7.735193720308277"><ele>623.0</ele><time>2026-04-04T10:15:43Z</time></trkpt><trkpt lat="45.038466099138404" lon="7.735318918573164"><ele>623.0</ele><time>2026-04-04T10:15:44Z</time></trkpt><trkpt lat="45.03845420878238" lon="7.735456832561028"><ele>623.0</ele><time>2026-04-04T10:15:45Z</time></trkpt><trkpt lat="45.03844879225439" lon="7.735615829943057"><ele>623.0</ele><time>2026-04-04T10:15:46Z</time></trkpt><trkpt lat="45.03841840244013" lon="7.735801186052325"><ele>623.0</ele><time>2026-04-04T10:15:47Z</time></trkpt><trkpt lat="45.03841190607562" lon="7.735953582167475"><ele>621.6</ele><time>2026-04-04T10:15:48Z</time></trkpt><trkpt lat="45.03840732374404" lon="7.736099769488968"><ele>620.1999999999999</ele><time>2026-04-04T10:15:49Z</time></trkpt><trkpt lat="45.03840397629782" lon="7.736246615395107"><ele>618.8</ele><time>2026-04-04T10:15:50Z</time></trkpt><trkpt lat="45.03841572861453" lon="7.736404320034251"><ele>617.4</ele><time>2026-04-04T10:15:51Z</time></trkpt><trkpt lat="45.03843902644551" lon="7.736547825002406"><ele>616.0</ele><time>2026-04-04T10:15:52Z</time></trkpt><trkpt lat="45.03848557532708" lon="7.7366885302105475"><ele>616.0</ele><time>2026-04-04T10:15:53Z</time></trkpt><trkpt lat="45.03854808273091" lon="7.736827964232885"><ele>616.0</ele><time>2026-04-04T10:15:54Z</time></trkpt><trkpt lat="45.03861287787413" lon="7.736978210648106"><ele>616.0</ele><time>2026-04-04T10:15:55Z</time></trkpt><trkpt lat="45.038682838744506" lon="7.737131868899792"><ele>616.0</ele><time>2026-04-04T10:15:56Z</time></trkpt><trkpt lat="45.0387482079952" lon="7.737292592567783"><ele>613.5</ele><time>2026-04-04T10:15:57Z</time></trkpt><trkpt lat="45.03880515195687" lon="7.737446983823336"><ele>611.0</ele><time>2026-04-04T10:15:58Z</time></trkpt><trkpt lat="45.038862706355594" lon="7.737598547341655"><ele>608.5</ele><time>2026-04-04T10:15:59Z</time></trkpt><trkpt lat="45.038924969929894" lon="7.737734841978093"><ele>606.0</ele><time>2026-04-04T10:16:00Z</time></trkpt><trkpt lat="45.03898138279837" lon="7.7378619001251945"><ele>605.4</ele><time>2026-04-04T10:16:01Z</time></trkpt><trkpt lat="45.03903859953709" lon="7.737989311994031"><ele>604.8</ele><time>2026-04-04T10:16:02Z</time></trkpt><trkpt lat="45.039078775689084" lon="7.738109469285125"><ele>604.1999999999999</ele><time>2026-04-04T10:16:03Z</time></trkpt><trkpt lat="45.03909796033355" lon="7.73828444813344"><ele>603.6</ele><time>2026-04-04T10:16:04Z</time></trkpt><trkpt lat="45.03911091945987" lon="7.738451115218138"><ele>603.0</ele><time>2026-04-04T10:16:05Z</time></trkpt><trkpt lat="45.039124145356666" lon="7.738629296719695"><ele>602.5</ele><time>2026-04-04T10:16:06Z</time></trkpt><trkpt lat="45.03910698948684" lon="7.738809718914459"><ele>602.0</ele><time>2026-04-04T10:16:07Z</time></trkpt><trkpt lat="45.03909509986851" lon="7.738990736139569"><ele>601.5</ele><time>2026-04-04T10:16:08Z</time></trkpt><trkpt lat="45.03909139027046" lon="7.739169243572604"><ele>601.0</ele><time>2026-04-04T10:16:09Z</time></trkpt><trkpt lat="45.039081973146814" lon="7.739351149061659"><ele>599.75</ele><time>2026-04-04T10:16:10Z</time></trkpt><trkpt lat="45.039076869782804" lon="7.739523985544827"><ele>598.5</ele><time>2026-04-04T10:16:11Z</time></trkpt><trkpt lat="45.039066053974246" lon="7.739697985943013"><ele>597.25</ele><time>2026-04-04T10:16:12Z</time></trkpt><trkpt lat="45.039052916773535" lon="7.739870550040793"><ele>596.0</ele><time>2026-04-04T10:16:13Z</time></trkpt><trkpt lat="45.03904591348327" lon="7.740041354706719"><ele>596.0</ele><time>2026-04-04T10:16:14Z</time></trkpt><trkpt lat="45.03903148744676" lon="7.740212555948019"><ele>596.0</ele><time>2026-04-04T10:16:15Z</time></trkpt><trkpt lat="45.039019549227476" lon="7.740376286092004"><ele>596.0</ele><time>2026-04-04T10:16:16Z</time></trkpt><trkpt lat="45.03900746357851" lon="7.740538389306004"><ele>596.0</ele><time>2026-04-04T10:16:17Z</time></trkpt><trkpt lat="45.03898430012589" lon="7.74069643754938"><ele>594.0</ele><time>2026-04-04T10:16:18Z</time></trkpt><trkpt lat="45.038949292582465" lon="7.740861174218859"><ele>592.0</ele><time>2026-04-04T10:16:19Z</time></trkpt><trkpt lat="45.038897436738594" lon="7.741042075996255"><ele>590.0</ele><time>2026-04-04T10:16:20Z</time></trkpt><trkpt lat="45.03884791022537" lon="7.74120587149561"><ele>588.0</ele><time>2026-04-04T10:16:21Z</time></trkpt><trkpt lat="45.03878486153531" lon="7.741350626740192"><ele>586.75</ele><time>2026-04-04T10:16:21.999Z</time></trkpt><trkpt lat="45.038714637023986" lon="7.741479931657826"><ele>585.5</ele><time>2026-04-04T10:16:22.999Z</time></trkpt><trkpt lat="45.038636099851466" lon="7.741610221220885"><ele>584.25</ele><time>2026-04-04T10:16:23.999Z</time></trkpt><trkpt lat="45.038567163903025" lon="7.741745173193364"><ele>583.0</ele><time>2026-04-04T10:16:24.999Z</time></trkpt><trkpt lat="45.03849810469752" lon="7.741895821786685"><ele>581.25</ele><time>2026-04-04T10:16:25.999Z</time></trkpt><trkpt lat="45.03843084948576" lon="7.742050160271918"><ele>579.5</ele><time>2026-04-04T10:16:26.999Z</time></trkpt><trkpt lat="45.03835877051757" lon="7.7422080697852405"><ele>577.75</ele><time>2026-04-04T10:16:27.999Z</time></trkpt><trkpt lat="45.03829583121783" lon="7.742375707717351"><ele>576.0</ele><time>2026-04-04T10:16:28.999Z</time></trkpt><trkpt lat="45.03823694596325" lon="7.742551249872697"><ele>572.75</ele><time>2026-04-04T10:16:29.999Z</time></trkpt><trkpt lat="45.038178844220546" lon="7.742720191490953"><ele>569.5</ele><time>2026-04-04T10:16:30.999Z</time></trkpt><trkpt lat="45.03812062108765" lon="7.74288734891738"><ele>566.25</ele><time>2026-04-04T10:16:31.999Z</time></trkpt><trkpt lat="45.03806386841632" lon="7.743054382476361"><ele>563.0</ele><time>2026-04-04T10:16:32.999Z</time></trkpt><trkpt lat="45.03800536724731" lon="7.7432194758921975"><ele>563.0</ele><time>2026-04-04T10:16:33.999Z</time></trkpt><trkpt lat="45.03795011186435" lon="7.743385274144221"><ele>563.0</ele><time>2026-04-04T10:16:34.999Z</time></trkpt><trkpt lat="45.0378940383907" lon="7.743550195149325"><ele>563.0</ele><time>2026-04-04T10:16:35.999Z</time></trkpt><trkpt lat="45.0378430285612" lon="7.7437174912184075"><ele>563.0</ele><time>2026-04-04T10:16:36.999Z</time></trkpt><trkpt lat="45.037790008257765" lon="7.743870906702846"><ele>562.25</ele><time>2026-04-04T10:16:37.999Z</time></trkpt><trkpt lat="45.037736326525284" lon="7.744026559034363"><ele>561.5</ele><time>2026-04-04T10:16:38.999Z</time></trkpt><trkpt lat="45.03768139889832" lon="7.744181846610503"><ele>560.75</ele><time>2026-04-04T10:16:39.999Z</time></trkpt><trkpt lat="45.037622969215164" lon="7.74433219782137"><ele>560.0</ele><time>2026-04-04T10:16:40.999Z</time></trkpt><trkpt lat="45.03756926294446" lon="7.744485640689088"><ele>559.25</ele><time>2026-04-04T10:16:41.999Z</time></trkpt><trkpt lat="45.03751763250826" lon="7.744637043716892"><ele>558.5</ele><time>2026-04-04T10:16:42.999Z</time></trkpt><trkpt lat="45.037466905182356" lon="7.744784140996534"><ele>557.75</ele><time>2026-04-04T10:16:43.999Z</time></trkpt><trkpt lat="45.037415156018774" lon="7.744931514216912"><ele>557.0</ele><time>2026-04-04T10:16:44.999Z</time></trkpt><trkpt lat="45.03736028679657" lon="7.745074284502659"><ele>556.0</ele><time>2026-04-04T10:16:45.999Z</time></trkpt><trkpt lat="45.037305031242646" lon="7.7452165183232395"><ele>555.0</ele><time>2026-04-04T10:16:46.999Z</time></trkpt><trkpt lat="45.037257973966305" lon="7.745351965169845"><ele>554.0</ele><time>2026-04-04T10:16:47.999Z</time></trkpt><trkpt lat="45.037211735479936" lon="7.7454727545683495"><ele>553.0</ele><time>2026-04-04T10:16:48.999Z</time></trkpt><trkpt lat="45.03716396136248" lon="7.745575022866012"><ele>552.0</ele><time>2026-04-04T10:16:49.999Z</time></trkpt><trkpt lat="45.03711490959232" lon="7.745650119146402"><ele>552.0</ele><time>2026-04-04T10:16:50.999Z</time></trkpt><trkpt lat="45.03704494116492" lon="7.745710625528123"><ele>552.0</ele><time>2026-04-04T10:16:51.999Z</time></trkpt><trkpt lat="45.03697607961188" lon="7.745729119708588"><ele>552.0</ele><time>2026-04-04T10:16:52.999Z</time></trkpt><trkpt lat="45.03690726273872" lon="7.7457279345357835"><ele>552.0</ele><time>2026-04-04T10:16:53.999Z</time></trkpt><trkpt lat="45.036836748533815" lon="7.745708757152434"><ele>552.0</ele><time>2026-04-04T10:16:54.999Z</time></trkpt><trkpt lat="45.03676313017765" lon="7.745681557202727"><ele>552.0</ele><time>2026-04-04T10:16:55.999Z</time></trkpt><trkpt lat="45.03669547593677" lon="7.745649685564632"><ele>552.0</ele><time>2026-04-04T10:16:56.999Z</time></trkpt><trkpt lat="45.03662371931191" lon="7.745616655611325"><ele>549.8333333333334</ele><time>2026-04-04T10:16:57.999Z</time></trkpt><trkpt lat="45.03655124628228" lon="7.745585213345779"><ele>547.6666666666666</ele><time>2026-04-04T10:16:58.999Z</time></trkpt><trkpt lat="45.036473604685675" lon="7.74555943467475"><ele>545.5</ele><time>2026-04-04T10:16:59.999Z</time></trkpt><trkpt lat="45.03640084849198" lon="7.745527641600393"><ele>543.3333333333333</ele><time>2026-04-04T10:17:00.999Z</time></trkpt><trkpt lat="45.03633342828327" lon="7.745478866612496"><ele>541.1666666666666</ele><time>2026-04-04T10:17:01.999Z</time></trkpt><trkpt lat="45.03625630981595" lon="7.74546929643041"><ele>539.0</ele><time>2026-04-04T10:17:02.999Z</time></trkpt><trkpt lat="45.036184891346245" lon="7.745433005336288"><ele>539.0</ele><time>2026-04-04T10:17:03.999Z</time></trkpt><trkpt lat="45.0361095441551" lon="7.745412972327875"><ele>539.0</ele><time>2026-04-04T10:17:04.999Z</time></trkpt><trkpt lat="45.036031358816686" lon="7.745400006810684"><ele>539.0</ele><time>2026-04-04T10:17:05.999Z</time></trkpt><trkpt lat="45.03595001374199" lon="7.745398515630805"><ele>539.0</ele><time>2026-04-04T10:17:06.999Z</time></trkpt><trkpt lat="45.035864572289576" lon="7.745404182368816"><ele>539.0</ele><time>2026-04-04T10:17:07.999Z</time></trkpt><trkpt lat="45.03577732451085" lon="7.7454098793129615"><ele>539.0</ele><time>2026-04-04T10:17:08.999Z</time></trkpt><trkpt lat="45.03568793364058" lon="7.745417033982463"><ele>537.4</ele><time>2026-04-04T10:17:09.999Z</time></trkpt><trkpt lat="45.03559810601994" lon="7.745424115654179"><ele>535.8</ele><time>2026-04-04T10:17:10.999Z</time></trkpt><trkpt lat="45.03550364114862" lon="7.745424411179929"><ele>534.2</ele><time>2026-04-04T10:17:11.999Z</time></trkpt><trkpt lat="45.03540107566593" lon="7.745433002335417"><ele>532.6</ele><time>2026-04-04T10:17:12.999Z</time></trkpt><trkpt lat="45.03528207812911" lon="7.745450234081943"><ele>531.0</ele><time>2026-04-04T10:17:13.999Z</time></trkpt><trkpt lat="45.03515297532318" lon="7.745467849717156"><ele>531.0</ele><time>2026-04-04T10:17:14.999Z</time></trkpt><trkpt lat="45.03502033959377" lon="7.745466228459771"><ele>531.0</ele><time>2026-04-04T10:17:15.999Z</time></trkpt><trkpt lat="45.034884664628045" lon="7.745482205668661"><ele>531.0</ele><time>2026-04-04T10:17:16.999Z</time></trkpt><trkpt lat="45.03474950947091" lon="7.745493868058759"><ele>531.0</ele><time>2026-04-04T10:17:17.999Z</time></trkpt><trkpt lat="45.03461101315799" lon="7.745503020161011"><ele>528.5</ele><time>2026-04-04T10:17:18.999Z</time></trkpt><trkpt lat="45.034478070406614" lon="7.74552053640348"><ele>526.0</ele><time>2026-04-04T10:17:19.999Z</time></trkpt><trkpt lat="45.03434810981096" lon="7.745541508966996"><ele>523.5</ele><time>2026-04-04T10:17:20.999Z</time></trkpt><trkpt lat="45.03422028069984" lon="7.74554721763386"><ele>521.0</ele><time>2026-04-04T10:17:21.999Z</time></trkpt><trkpt lat="45.03407219368514" lon="7.745569378806334"><ele>518.25</ele><time>2026-04-04T10:17:22.999Z</time></trkpt><trkpt lat="45.033938548499854" lon="7.745566610172225"><ele>515.5</ele><time>2026-04-04T10:17:23.999Z</time></trkpt><trkpt lat="45.03379838261323" lon="7.745578915711276"><ele>512.75</ele><time>2026-04-04T10:17:24.999Z</time></trkpt><trkpt lat="45.0336617836712" lon="7.745599147438635"><ele>510.0</ele><time>2026-04-04T10:17:25.999Z</time></trkpt><trkpt lat="45.0335263723222" lon="7.745606952231555"><ele>510.0</ele><time>2026-04-04T10:17:26.998Z</time></trkpt><trkpt lat="45.03339122844562" lon="7.745622027537328"><ele>510.0</ele><time>2026-04-04T10:17:27.998Z</time></trkpt><trkpt lat="45.0332550268522" lon="7.745637747821821"><ele>510.0</ele><time>2026-04-04T10:17:28.998Z</time></trkpt><trkpt lat="45.03313064108962" lon="7.745655271518083"><ele>510.0</ele><time>2026-04-04T10:17:29.998Z</time></trkpt><trkpt lat="45.03301222810643" lon="7.745666989053485"><ele>508.0</ele><time>2026-04-04T10:17:30.998Z</time></trkpt><trkpt lat="45.03289674985145" lon="7.745701807689931"><ele>506.0</ele><time>2026-04-04T10:17:31.998Z</time></trkpt><trkpt lat="45.03278844496133" lon="7.7457607453506405"><ele>504.0</ele><time>2026-04-04T10:17:32.998Z</time></trkpt><trkpt lat="45.03267506182099" lon="7.745844171497478"><ele>502.0</ele><time>2026-04-04T10:17:33.998Z</time></trkpt><trkpt lat="45.032572174950126" lon="7.745935222373588"><ele>502.0</ele><time>2026-04-04T10:17:34.998Z</time></trkpt><trkpt lat="45.03247630937856" lon="7.746044092046766"><ele>502.00000000000006</ele><time>2026-04-04T10:17:35.998Z</time></trkpt><trkpt lat="45.03239530894857" lon="7.746160933563368"><ele>502.00000000000006</ele><time>2026-04-04T10:17:36.998Z</time></trkpt><trkpt lat="45.032331728943475" lon="7.746273121805526"><ele>502.0</ele><time>2026-04-04T10:17:37.998Z</time></trkpt><trkpt lat="45.03227370034482" lon="7.746386902552128"><ele>502.0</ele><time>2026-04-04T10:17:38.998Z</time></trkpt><trkpt lat="45.03223609309081" lon="7.746499929209223"><ele>499.8</ele><time>2026-04-04T10:17:39.998Z</time></trkpt><trkpt lat="45.03222415445783" lon="7.74663481745365"><ele>497.6</ele><time>2026-04-04T10:17:40.998Z</time></trkpt><trkpt lat="45.032241244760854" lon="7.746758603778053"><ele>495.40000000000003</ele><time>2026-04-04T10:17:41.998Z</time></trkpt><trkpt lat="45.032242987405326" lon="7.746887688115901"><ele>493.20000000000005</ele><time>2026-04-04T10:17:44Z</time></trkpt><trkpt lat="45.032111987502724" lon="7.746983888193848"><ele>491.0</ele><time>2026-04-04T10:17:46Z</time></trkpt><trkpt lat="45.03204979585849" lon="7.7469547245409895"><ele>490.99999999999994</ele><time>2026-04-04T10:17:47Z</time></trkpt><trkpt lat="45.03199507418353" lon="7.74687285882304"><ele>491.0</ele><time>2026-04-04T10:17:48Z</time></trkpt><trkpt lat="45.03194795035415" lon="7.7467518085166835"><ele>491.0</ele><time>2026-04-04T10:17:49Z</time></trkpt><trkpt lat="45.031899355926505" lon="7.74663854946613"><ele>491.0</ele><time>2026-04-04T10:17:50Z</time></trkpt><trkpt lat="45.03183005100718" lon="7.746553128581921"><ele>490.99999999999994</ele><time>2026-04-04T10:17:51Z</time></trkpt><trkpt lat="45.03175185568325" lon="7.746503116660064"><ele>491.0</ele><time>2026-04-04T10:17:52Z</time></trkpt><trkpt lat="45.031649554183936" lon="7.746508706274363"><ele>490.8</ele><time>2026-04-04T10:17:53Z</time></trkpt><trkpt lat="45.03156281170049" lon="7.746527615921295"><ele>490.6</ele><time>2026-04-04T10:17:54Z</time></trkpt><trkpt lat="45.03147028106054" lon="7.74658800065766"><ele>490.4</ele><time>2026-04-04T10:17:55Z</time></trkpt><trkpt lat="45.0313972411144" lon="7.746689144071492"><ele>490.2</ele><time>2026-04-04T10:17:56Z</time></trkpt><trkpt lat="45.03133934232475" lon="7.746806144846197"><ele>490.0</ele><time>2026-04-04T10:17:57Z</time></trkpt><trkpt lat="45.03129512432283" lon="7.746920782159656"><ele>490.0</ele><time>2026-04-04T10:17:58Z</time></trkpt><trkpt lat="45.031251588603524" lon="7.747040602924957"><ele>490.0</ele><time>2026-04-04T10:17:59Z</time></trkpt><trkpt lat="45.03119708730759" lon="7.747152041512887"><ele>490.0</ele><time>2026-04-04T10:18:00Z</time></trkpt><trkpt lat="45.03114365222146" lon="7.747260961269902"><ele>490.0</ele><time>2026-04-04T10:18:01Z</time></trkpt><trkpt lat="45.031081850635644" lon="7.747358438236912"><ele>490.0</ele><time>2026-04-04T10:18:02Z</time></trkpt><trkpt lat="45.031019643828486" lon="7.747477648918736"><ele>490.0</ele><time>2026-04-04T10:18:03Z</time></trkpt><trkpt lat="45.03094906420104" lon="7.747582794216508"><ele>490.0</ele><time>2026-04-04T10:18:04Z</time></trkpt><trkpt lat="45.0308827717691" lon="7.747683993123527"><ele>490.0</ele><time>2026-04-04T10:18:05Z</time></trkpt><trkpt lat="45.03081083965793" lon="7.747760840758617"><ele>490.0</ele><time>2026-04-04T10:18:06Z</time></trkpt><trkpt lat="45.030762364161305" lon="7.747831259789085"><ele>490.0</ele><time>2026-04-04T10:18:07Z</time></trkpt><trkpt lat="45.03069953090593" lon="7.747925305195235"><ele>490.0</ele><time>2026-04-04T10:18:09Z</time></trkpt><trkpt lat="45.03076496720611" lon="7.74782586600274"><ele>490.0</ele><time>2026-04-04T10:18:18Z</time></trkpt><trkpt lat="45.03083691425798" lon="7.747751481211886"><ele>490.0</ele><time>2026-04-04T10:18:20Z</time></trkpt><trkpt lat="45.03090405417854" lon="7.747637105203156"><ele>490.0</ele><time>2026-04-04T10:18:22Z</time></trkpt><trkpt lat="45.03096472837385" lon="7.747555985296409"><ele>490.0</ele><time>2026-04-04T10:18:23Z</time></trkpt><trkpt lat="45.03102511161675" lon="7.747468222945551"><ele>490.00000000000006</ele><time>2026-04-04T10:18:24Z</time></trkpt><trkpt lat="45.03110444500866" lon="7.747397569954781"><ele>490.0</ele><time>2026-04-04T10:18:25Z</time></trkpt><trkpt lat="45.03114735711582" lon="7.747294788481327"><ele>490.0</ele><time>2026-04-04T10:18:26Z</time></trkpt><trkpt lat="45.03120000991815" lon="7.747213922161296"><ele>490.0</ele><time>2026-04-04T10:18:27Z</time></trkpt><trkpt lat="45.031247628632634" lon="7.747114099092468"><ele>490.00000000000006</ele><time>2026-04-04T10:18:28Z</time></trkpt><trkpt lat="45.031310257353546" lon="7.7470170246406305"><ele>490.0</ele><time>2026-04-04T10:18:29Z</time></trkpt><trkpt lat="45.031360668688954" lon="7.746917523741703"><ele>490.1666666666667</ele><time>2026-04-04T10:18:30Z</time></trkpt><trkpt lat="45.031399371166266" lon="7.746800490084954"><ele>490.33333333333337</ele><time>2026-04-04T10:18:31Z</time></trkpt><trkpt lat="45.031451043107865" lon="7.74671378367619"><ele>490.5</ele><time>2026-04-04T10:18:32Z</time></trkpt><trkpt lat="45.03149811578733" lon="7.746626704648961"><ele>490.66666666666663</ele><time>2026-04-04T10:18:32.999Z</time></trkpt><trkpt lat="45.03156041579034" lon="7.746570459787629"><ele>490.8333333333333</ele><time>2026-04-04T10:18:33.999Z</time></trkpt><trkpt lat="45.031622747548916" lon="7.746541546874571"><ele>491.0</ele><time>2026-04-04T10:18:34.999Z</time></trkpt><trkpt lat="45.031703978918145" lon="7.746539874623911"><ele>490.99999999999994</ele><time>2026-04-04T10:18:35.999Z</time></trkpt><trkpt lat="45.03177236155388" lon="7.746573613854415"><ele>491.0</ele><time>2026-04-04T10:18:36.999Z</time></trkpt><trkpt lat="45.031833196262404" lon="7.7466281381663675"><ele>491.0</ele><time>2026-04-04T10:18:37.999Z</time></trkpt><trkpt lat="45.03188743025548" lon="7.7467489072761175"><ele>491.0</ele><time>2026-04-04T10:18:38.999Z</time></trkpt><trkpt lat="45.03193137519713" lon="7.746918956103933"><ele>490.99999999999994</ele><time>2026-04-04T10:18:40.999Z</time></trkpt><trkpt lat="45.03196773313959" lon="7.747000256135405"><ele>491.0</ele><time>2026-04-04T10:18:41.999Z</time></trkpt><trkpt lat="45.03204140222581" lon="7.7470530339687445"><ele>491.66666666666663</ele><time>2026-04-04T10:18:42.999Z</time></trkpt><trkpt lat="45.03210501490357" lon="7.747077859727705"><ele>492.3333333333333</ele><time>2026-04-04T10:18:43.999Z</time></trkpt><trkpt lat="45.03217454977901" lon="7.747068944137072"><ele>493.0</ele><time>2026-04-04T10:18:44.999Z</time></trkpt><trkpt lat="45.032280183397816" lon="7.747066240652343"><ele>493.66666666666663</ele><time>2026-04-04T10:18:46.999Z</time></trkpt><trkpt lat="45.03236117396365" lon="7.747096264640788"><ele>494.3333333333333</ele><time>2026-04-04T10:18:48.999Z</time></trkpt><trkpt lat="45.032414376203526" lon="7.747178886292282"><ele>495.0</ele><time>2026-04-04T10:18:49.999Z</time></trkpt><trkpt lat="45.03247746139646" lon="7.747233907292404"><ele>495.0</ele><time>2026-04-04T10:18:50.999Z</time></trkpt><trkpt lat="45.03251522529865" lon="7.747317830675339"><ele>495.0</ele><time>2026-04-04T10:18:51.999Z</time></trkpt><trkpt lat="45.03252539080707" lon="7.747411483168748"><ele>495.0</ele><time>2026-04-04T10:18:52.999Z</time></trkpt><trkpt lat="45.03251216122995" lon="7.747508292767999"><ele>495.0</ele><time>2026-04-04T10:18:53.999Z</time></trkpt><trkpt lat="45.03247703765253" lon="7.747587176907496"><ele>495.0</ele><time>2026-04-04T10:18:54.999Z</time></trkpt><trkpt lat="45.03241918999498" lon="7.747677246249712"><ele>495.0</ele><time>2026-04-04T10:18:55.999Z</time></trkpt><trkpt lat="45.03233416029007" lon="7.747735065608362"><ele>492.1666666666667</ele><time>2026-04-04T10:18:56.999Z</time></trkpt><trkpt lat="45.032272588512555" lon="7.747810915404847"><ele>489.33333333333337</ele><time>2026-04-04T10:18:57.999Z</time></trkpt><trkpt lat="45.03222073398842" lon="7.747882517910613"><ele>486.5</ele><time>2026-04-04T10:18:58.999Z</time></trkpt><trkpt lat="45.032165587892024" lon="7.747945676852892"><ele>483.6666666666667</ele><time>2026-04-04T10:18:59.999Z</time></trkpt><trkpt lat="45.03210575592975" lon="7.747993627895489"><ele>480.83333333333337</ele><time>2026-04-04T10:19:00.999Z</time></trkpt><trkpt lat="45.03200305178606" lon="7.748045344863203"><ele>478.0</ele><time>2026-04-04T10:19:02.999Z</time></trkpt><trkpt lat="45.03193200450532" lon="7.748080846060705"><ele>478.00000000000006</ele><time>2026-04-04T10:19:03.999Z</time></trkpt><trkpt lat="45.031867351415414" lon="7.748119186130714"><ele>478.0</ele><time>2026-04-04T10:19:04.999Z</time></trkpt><trkpt lat="45.03181110808229" lon="7.748178118691767"><ele>478.0</ele><time>2026-04-04T10:19:05.999Z</time></trkpt><trkpt lat="45.031754904088885" lon="7.748273542674076"><ele>478.0</ele><time>2026-04-04T10:19:06.999Z</time></trkpt><trkpt lat="45.03171442836598" lon="7.748364098147776"><ele>478.00000000000006</ele><time>2026-04-04T10:19:07.999Z</time></trkpt><trkpt lat="45.031669502613546" lon="7.7484533402520315"><ele>478.0</ele><time>2026-04-04T10:19:08.999Z</time></trkpt><trkpt lat="45.03161425096154" lon="7.748526480094784"><ele>476.00000000000006</ele><time>2026-04-04T10:19:09.999Z</time></trkpt><trkpt lat="45.03155905827866" lon="7.748598804138856"><ele>474.0</ele><time>2026-04-04T10:19:10.999Z</time></trkpt><trkpt lat="45.03150927583396" lon="7.748674975316073"><ele>472.00000000000006</ele><time>2026-04-04T10:19:11.999Z</time></trkpt><trkpt lat="45.03146146925857" lon="7.748764856651018"><ele>470.00000000000006</ele><time>2026-04-04T10:19:12.999Z</time></trkpt><trkpt lat="45.03142268472796" lon="7.748851046372735"><ele>468.0</ele><time>2026-04-04T10:19:13.999Z</time></trkpt><trkpt lat="45.03138686958519" lon="7.748942147888271"><ele>466.00000000000006</ele><time>2026-04-04T10:19:14.999Z</time></trkpt><trkpt lat="45.03135230381053" lon="7.74902465087172"><ele>464.00000000000006</ele><time>2026-04-04T10:19:15.999Z</time></trkpt><trkpt lat="45.03131898661417" lon="7.7491027020061685"><ele>463.99999999999994</ele><time>2026-04-04T10:19:16.999Z</time></trkpt><trkpt lat="45.03128159209919" lon="7.74920178981507"><ele>464.0</ele><time>2026-04-04T10:19:17.999Z</time></trkpt><trkpt lat="45.03125023093624" lon="7.749301895908046"><ele>464.0</ele><time>2026-04-04T10:19:18.999Z</time></trkpt><trkpt lat="45.03122554160875" lon="7.749405500328042"><ele>464.0</ele><time>2026-04-04T10:19:19.999Z</time></trkpt><trkpt lat="45.031202582061894" lon="7.749511685537814"><ele>463.99999999999994</ele><time>2026-04-04T10:19:20.999Z</time></trkpt><trkpt lat="45.03118399023169" lon="7.749607173317323"><ele>464.0</ele><time>2026-04-04T10:19:21.999Z</time></trkpt><trkpt lat="45.031156167825216" lon="7.749801131870706"><ele>462.66666666666663</ele><time>2026-04-04T10:19:23.999Z</time></trkpt><trkpt lat="45.03114959553721" lon="7.749900955040196"><ele>461.3333333333333</ele><time>2026-04-04T10:19:24.999Z</time></trkpt><trkpt lat="45.0311547448197" lon="7.750012547931514"><ele>460.0</ele><time>2026-04-04T10:19:25.999Z</time></trkpt><trkpt lat="45.03117870689562" lon="7.750112536496109"><ele>458.66666666666663</ele><time>2026-04-04T10:19:26.999Z</time></trkpt><trkpt lat="45.03121719534022" lon="7.750210661574669"><ele>457.3333333333333</ele><time>2026-04-04T10:19:27.999Z</time></trkpt><trkpt lat="45.0312282071434" lon="7.750302544180626"><ele>456.0</ele><time>2026-04-04T10:19:28.999Z</time></trkpt><trkpt lat="45.031194961938844" lon="7.750472059363725"><ele>455.0</ele><time>2026-04-04T10:19:30.999Z</time></trkpt><trkpt lat="45.03114953824536" lon="7.750547033558526"><ele>454.0</ele><time>2026-04-04T10:19:31.999Z</time></trkpt><trkpt lat="45.03111008396573" lon="7.75062125547012"><ele>453.0</ele><time>2026-04-04T10:19:32.999Z</time></trkpt><trkpt lat="45.031070486399784" lon="7.75071505624659"><ele>452.0</ele><time>2026-04-04T10:19:33.999Z</time></trkpt><trkpt lat="45.03104517206271" lon="7.750820026194018"><ele>451.0</ele><time>2026-04-04T10:19:34.999Z</time></trkpt><trkpt lat="45.03104785435724" lon="7.750942493538063"><ele>450.0</ele><time>2026-04-04T10:19:35.999Z</time></trkpt><trkpt lat="45.03106266095046" lon="7.751054857940788"><ele>449.7142857142858</ele><time>2026-04-04T10:19:36.999Z</time></trkpt><trkpt lat="45.03107451746001" lon="7.751160563549845"><ele>449.42857142857144</ele><time>2026-04-04T10:19:37.998Z</time></trkpt><trkpt lat="45.03108554227333" lon="7.751258854275242"><ele>449.14285714285717</ele><time>2026-04-04T10:19:38.998Z</time></trkpt><trkpt lat="45.031096748021014" lon="7.7513558380425325"><ele>448.8571428571429</ele><time>2026-04-04T10:19:39.998Z</time></trkpt><trkpt lat="45.03110860477101" lon="7.751458334982116"><ele>448.57142857142856</ele><time>2026-04-04T10:19:40.998Z</time></trkpt><trkpt lat="45.03112049430949" lon="7.751561115414606"><ele>448.2857142857143</ele><time>2026-04-04T10:19:41.998Z</time></trkpt><trkpt lat="45.03113085887579" lon="7.7516544757628285"><ele>448.0</ele><time>2026-04-04T10:19:42.998Z</time></trkpt><trkpt lat="45.0311546576845" lon="7.751820160527529"><ele>448.4</ele><time>2026-04-04T10:19:44.998Z</time></trkpt><trkpt lat="45.03112021701612" lon="7.751979155072496"><ele>448.79999999999995</ele><time>2026-04-04T10:19:46.998Z</time></trkpt><trkpt lat="45.03107285273373" lon="7.752048044711435"><ele>449.2</ele><time>2026-04-04T10:19:47.998Z</time></trkpt><trkpt lat="45.031002777140046" lon="7.752073551995408"><ele>449.6</ele><time>2026-04-04T10:19:49Z</time></trkpt><trkpt lat="45.030934597702526" lon="7.752223754529962"><ele>450.0</ele><time>2026-04-04T10:19:51Z</time></trkpt><trkpt lat="45.03089478092333" lon="7.752306626114659"><ele>450.0</ele><time>2026-04-04T10:19:52Z</time></trkpt><trkpt lat="45.030899396450884" lon="7.752417841112994"><ele>450.0</ele><time>2026-04-04T10:19:53Z</time></trkpt><trkpt lat="45.030870221261175" lon="7.752523841509943"><ele>450.0</ele><time>2026-04-04T10:19:54Z</time></trkpt><trkpt lat="45.03085489488531" lon="7.752631880248421"><ele>450.0</ele><time>2026-04-04T10:19:55Z</time></trkpt><trkpt lat="45.03085140651512" lon="7.7527442401647235"><ele>450.0</ele><time>2026-04-04T10:19:56Z</time></trkpt><trkpt lat="45.03082462184527" lon="7.752846780482239"><ele>450.0</ele><time>2026-04-04T10:19:57Z</time></trkpt><trkpt lat="45.03082476527305" lon="7.752951060535782"><ele>450.6666666666667</ele><time>2026-04-04T10:19:58Z</time></trkpt><trkpt lat="45.030815827061495" lon="7.753054968648607"><ele>451.33333333333337</ele><time>2026-04-04T10:19:59Z</time></trkpt><trkpt lat="45.03079763961299" lon="7.7531571756770035"><ele>452.0</ele><time>2026-04-04T10:20:00Z</time></trkpt><trkpt lat="45.03080268634045" lon="7.753290274699128"><ele>452.6666666666667</ele><time>2026-04-04T10:20:01Z</time></trkpt><trkpt lat="45.03079826217677" lon="7.753381116814446"><ele>453.33333333333337</ele><time>2026-04-04T10:20:02Z</time></trkpt><trkpt lat="45.03080207372351" lon="7.753491700403365"><ele>454.0</ele><time>2026-04-04T10:20:03Z</time></trkpt><trkpt lat="45.03080421398304" lon="7.753606240313581"><ele>450.83333333333337</ele><time>2026-04-04T10:20:04Z</time></trkpt><trkpt lat="45.030802291984834" lon="7.7537209006807455"><ele>447.6666666666667</ele><time>2026-04-04T10:20:05Z</time></trkpt><trkpt lat="45.03080332422436" lon="7.753831813984979"><ele>444.5</ele><time>2026-04-04T10:20:06Z</time></trkpt><trkpt lat="45.03079818218716" lon="7.753942232131112"><ele>441.33333333333337</ele><time>2026-04-04T10:20:07Z</time></trkpt><trkpt lat="45.03080424667715" lon="7.754049623813592"><ele>438.1666666666667</ele><time>2026-04-04T10:20:08Z</time></trkpt><trkpt lat="45.03080117472994" lon="7.754152901323286"><ele>435.0</ele><time>2026-04-04T10:20:09Z</time></trkpt><trkpt lat="45.030803818647605" lon="7.75424456662811"><ele>434.8</ele><time>2026-04-04T10:20:10Z</time></trkpt><trkpt lat="45.030806290431876" lon="7.754415773749957"><ele>434.6</ele><time>2026-04-04T10:20:12Z</time></trkpt><trkpt lat="45.03081877784601" lon="7.754583340778739"><ele>434.4</ele><time>2026-04-04T10:20:14Z</time></trkpt><trkpt lat="45.030837004142974" lon="7.754729496581129"><ele>434.2</ele><time>2026-04-04T10:20:16Z</time></trkpt><trkpt lat="45.03082934787855" lon="7.754843267821351"><ele>434.0</ele><time>2026-04-04T10:20:18Z</time></trkpt><trkpt lat="45.03073561276471" lon="7.754924829688129"><ele>433.99999999999994</ele><time>2026-04-04T10:20:20Z</time></trkpt><trkpt lat="45.030698950797294" lon="7.755001828549757"><ele>434.0</ele><time>2026-04-04T10:20:21Z</time></trkpt><trkpt lat="45.030636631089536" lon="7.755044071368931"><ele>434.0</ele><time>2026-04-04T10:20:22Z</time></trkpt><trkpt lat="45.03058381474331" lon="7.755104135001813"><ele>434.0</ele><time>2026-04-04T10:20:23Z</time></trkpt><trkpt lat="45.03053351423645" lon="7.75516133758485"><ele>433.99999999999994</ele><time>2026-04-04T10:20:24Z</time></trkpt><trkpt lat="45.03048206969574" lon="7.755214608528286"><ele>434.0</ele><time>2026-04-04T10:20:25Z</time></trkpt><trkpt lat="45.03038149035421" lon="7.7553123099735926"><ele>433.79999999999995</ele><time>2026-04-04T10:20:27Z</time></trkpt><trkpt lat="45.03027357485004" lon="7.755347409862858"><ele>433.59999999999997</ele><time>2026-04-04T10:20:29Z</time></trkpt><trkpt lat="45.03020839097432" lon="7.755335674202306"><ele>433.4</ele><time>2026-04-04T10:20:30Z</time></trkpt><trkpt lat="45.03009221900223" lon="7.755343566290812"><ele>433.2</ele><time>2026-04-04T10:20:32Z</time></trkpt><trkpt lat="45.030008772756894" lon="7.755333896774754"><ele>433.0</ele><time>2026-04-04T10:20:34Z</time></trkpt><trkpt lat="45.02991935265054" lon="7.755293621831696"><ele>433.2</ele><time>2026-04-04T10:20:35.999Z</time></trkpt><trkpt lat="45.02990348616517" lon="7.75519089048323"><ele>433.4</ele><time>2026-04-04T10:20:37.999Z</time></trkpt><trkpt lat="45.0299460800257" lon="7.755059541803596"><ele>433.59999999999997</ele><time>2026-04-04T10:20:39.999Z</time></trkpt><trkpt lat="45.030028534779554" lon="7.754945579976639"><ele>433.79999999999995</ele><time>2026-04-04T10:20:41.999Z</time></trkpt><trkpt lat="45.030074946675555" lon="7.754817450458468"><ele>434.0</ele><time>2026-04-04T10:20:43.999Z</time></trkpt><trkpt lat="45.03002860466083" lon="7.7546807327957685"><ele>430.6</ele><time>2026-04-04T10:20:45.999Z</time></trkpt><trkpt lat="45.02993989808406" lon="7.754650134170527"><ele>427.2</ele><time>2026-04-04T10:20:46.999Z</time></trkpt><trkpt lat="45.029877724089154" lon="7.754628029692046"><ele>423.8</ele><time>2026-04-04T10:20:47.999Z</time></trkpt><trkpt lat="45.02976377233225" lon="7.754550109389383"><ele>420.40000000000003</ele><time>2026-04-04T10:20:49.999Z</time></trkpt><trkpt lat="45.02968299374837" lon="7.754421447251542"><ele>417.0</ele><time>2026-04-04T10:20:51.999Z</time></trkpt><trkpt lat="45.02963980943809" lon="7.7543544537449085"><ele>416.42857142857144</ele><time>2026-04-04T10:20:52.999Z</time></trkpt><trkpt lat="45.029617700287666" lon="7.754264941816536"><ele>415.85714285714283</ele><time>2026-04-04T10:20:53.999Z</time></trkpt><trkpt lat="45.02960598524362" lon="7.754172521564902"><ele>415.2857142857143</ele><time>2026-04-04T10:20:54.999Z</time></trkpt><trkpt lat="45.02960336741125" lon="7.754077476447019"><ele>414.7142857142857</ele><time>2026-04-04T10:20:55.999Z</time></trkpt><trkpt lat="45.02960730969099" lon="7.753984097735029"><ele>414.1428571428571</ele><time>2026-04-04T10:20:56.999Z</time></trkpt><trkpt lat="45.029611646737884" lon="7.753890833457387"><ele>413.57142857142856</ele><time>2026-04-04T10:20:57.999Z</time></trkpt><trkpt lat="45.029617594453" lon="7.753802036783196"><ele>413.0</ele><time>2026-04-04T10:20:58.999Z</time></trkpt><trkpt lat="45.02961834949038" lon="7.753706020272372"><ele>413.66666666666663</ele><time>2026-04-04T10:20:59.999Z</time></trkpt><trkpt lat="45.02960810077685" lon="7.7535067751394555"><ele>414.3333333333333</ele><time>2026-04-04T10:21:01.999Z</time></trkpt><trkpt lat="45.029596474470694" lon="7.753406345629168"><ele>415.0</ele><time>2026-04-04T10:21:02.999Z</time></trkpt><trkpt lat="45.02959744133671" lon="7.753304900727852"><ele>415.66666666666663</ele><time>2026-04-04T10:21:03.999Z</time></trkpt><trkpt lat="45.02958964391559" lon="7.753205071058818"><ele>416.3333333333333</ele><time>2026-04-04T10:21:04.999Z</time></trkpt><trkpt lat="45.029579390347216" lon="7.753106934788314"><ele>417.0</ele><time>2026-04-04T10:21:05.999Z</time></trkpt><trkpt lat="45.02955723962483" lon="7.753013321563632"><ele>417.0</ele><time>2026-04-04T10:21:06.999Z</time></trkpt><trkpt lat="45.029545119895104" lon="7.752869747958071"><ele>417.0</ele><time>2026-04-04T10:21:08.999Z</time></trkpt><trkpt lat="45.02950053401901" lon="7.752702202268355"><ele>417.0</ele><time>2026-04-04T10:21:10.999Z</time></trkpt><trkpt lat="45.02944358702213" lon="7.752636111432425"><ele>417.0</ele><time>2026-04-04T10:21:11.999Z</time></trkpt><trkpt lat="45.02935827279701" lon="7.752622943932088"><ele>417.0</ele><time>2026-04-04T10:21:12.999Z</time></trkpt><trkpt lat="45.02927778674921" lon="7.752634034809151"><ele>418.6666666666667</ele><time>2026-04-04T10:21:13.999Z</time></trkpt><trkpt lat="45.029206224207606" lon="7.752647192702658"><ele>420.33333333333337</ele><time>2026-04-04T10:21:14.999Z</time></trkpt><trkpt lat="45.029080299977885" lon="7.752694829073223"><ele>422.0</ele><time>2026-04-04T10:21:16.999Z</time></trkpt><trkpt lat="45.02900963486476" lon="7.7527430693740875"><ele>423.6666666666667</ele><time>2026-04-04T10:21:17.999Z</time></trkpt><trkpt lat="45.02894826770677" lon="7.752815832773179"><ele>425.33333333333337</ele><time>2026-04-04T10:21:18.999Z</time></trkpt><trkpt lat="45.02889537257032" lon="7.752910427273943"><ele>427.0</ele><time>2026-04-04T10:21:19.999Z</time></trkpt><trkpt lat="45.02884789226141" lon="7.753025350926554"><ele>426.1666666666667</ele><time>2026-04-04T10:21:20.999Z</time></trkpt><trkpt lat="45.02880387608175" lon="7.753123776482884"><ele>425.33333333333337</ele><time>2026-04-04T10:21:21.999Z</time></trkpt><trkpt lat="45.028759214511574" lon="7.753213747354611"><ele>424.5</ele><time>2026-04-04T10:21:22.999Z</time></trkpt><trkpt lat="45.028710337645684" lon="7.753310285206672"><ele>423.66666666666663</ele><time>2026-04-04T10:21:23.999Z</time></trkpt><trkpt lat="45.028669881770554" lon="7.753416380490953"><ele>422.8333333333333</ele><time>2026-04-04T10:21:24.999Z</time></trkpt><trkpt lat="45.028624928647254" lon="7.753507861046533"><ele>422.0</ele><time>2026-04-04T10:21:25.999Z</time></trkpt><trkpt lat="45.02856935876238" lon="7.753595159535544"><ele>421.99999999999994</ele><time>2026-04-04T10:21:26.999Z</time></trkpt><trkpt lat="45.028529600907106" lon="7.753688678214274"><ele>422.0</ele><time>2026-04-04T10:21:27.999Z</time></trkpt><trkpt lat="45.02848529855955" lon="7.753779121052189"><ele>422.0</ele><time>2026-04-04T10:21:28.999Z</time></trkpt><trkpt lat="45.028441292767496" lon="7.753864656569245"><ele>422.0</ele><time>2026-04-04T10:21:29.999Z</time></trkpt><trkpt lat="45.02839182396019" lon="7.753931399566009"><ele>421.99999999999994</ele><time>2026-04-04T10:21:30.999Z</time></trkpt><trkpt lat="45.028311953082785" lon="7.75405726631325"><ele>422.0</ele><time>2026-04-04T10:21:32.999Z</time></trkpt><trkpt lat="45.028269972172254" lon="7.754136385091005"><ele>421.8</ele><time>2026-04-04T10:21:33.999Z</time></trkpt><trkpt lat="45.0282313935308" lon="7.7542076911695075"><ele>421.6</ele><time>2026-04-04T10:21:34.999Z</time></trkpt><trkpt lat="45.028161274991824" lon="7.754351372860041"><ele>421.40000000000003</ele><time>2026-04-04T10:21:36.999Z</time></trkpt><trkpt lat="45.02808514018841" lon="7.754494098909253"><ele>421.20000000000005</ele><time>2026-04-04T10:21:38.998Z</time></trkpt><trkpt lat="45.028018483484786" lon="7.754627872332307"><ele>421.0</ele><time>2026-04-04T10:21:40.998Z</time></trkpt><trkpt lat="45.02794665166866" lon="7.754727838574735"><ele>421.00000000000006</ele><time>2026-04-04T10:21:42.998Z</time></trkpt><trkpt lat="45.02784442321451" lon="7.754815766115824"><ele>421.0</ele><time>2026-04-04T10:21:44.998Z</time></trkpt><trkpt lat="45.02778185594593" lon="7.75484312943916"><ele>421.0</ele><time>2026-04-04T10:21:45.998Z</time></trkpt><trkpt lat="45.0277137606296" lon="7.754865122099666"><ele>421.0</ele><time>2026-04-04T10:21:46.998Z</time></trkpt><trkpt lat="45.02764836013113" lon="7.754881565149742"><ele>421.00000000000006</ele><time>2026-04-04T10:21:47.998Z</time></trkpt><trkpt lat="45.0275611457971" lon="7.7549030591265975"><ele>421.0</ele><time>2026-04-04T10:21:48.998Z</time></trkpt><trkpt lat="45.02747227750324" lon="7.754927688595395"><ele>421.4</ele><time>2026-04-04T10:21:49.998Z</time></trkpt><trkpt lat="45.02737015549586" lon="7.754968069500694"><ele>421.8</ele><time>2026-04-04T10:21:50.998Z</time></trkpt><trkpt lat="45.02728619666972" lon="7.754979260135138"><ele>422.2</ele><time>2026-04-04T10:21:51.998Z</time></trkpt><trkpt lat="45.02720195261276" lon="7.755003484827128"><ele>422.59999999999997</ele><time>2026-04-04T10:21:52.998Z</time></trkpt><trkpt lat="45.02710695513032" lon="7.755031568660284"><ele>423.0</ele><time>2026-04-04T10:21:53.998Z</time></trkpt><trkpt lat="45.02702107458876" lon="7.755058993936321"><ele>423.0</ele><time>2026-04-04T10:21:55Z</time></trkpt><trkpt lat="45.02693357030111" lon="7.755108544094136"><ele>423.0</ele><time>2026-04-04T10:21:56Z</time></trkpt><trkpt lat="45.02684338685393" lon="7.755102243498792"><ele>423.0</ele><time>2026-04-04T10:21:57Z</time></trkpt><trkpt lat="45.02675020791618" lon="7.755119231275156"><ele>423.0</ele><time>2026-04-04T10:21:58Z</time></trkpt><trkpt lat="45.026643150161725" lon="7.755142055266666"><ele>423.0</ele><time>2026-04-04T10:21:59Z</time></trkpt><trkpt lat="45.026544297389584" lon="7.755156087010497"><ele>421.59999999999997</ele><time>2026-04-04T10:22:00Z</time></trkpt><trkpt lat="45.02645507949573" lon="7.755191699004766"><ele>420.2</ele><time>2026-04-04T10:22:01Z</time></trkpt><trkpt lat="45.02637228782764" lon="7.755224637951763"><ele>418.8</ele><time>2026-04-04T10:22:02Z</time></trkpt><trkpt lat="45.0263035394377" lon="7.7552243423669776"><ele>417.4</ele><time>2026-04-04T10:22:03Z</time></trkpt><trkpt lat="45.02616485344235" lon="7.7552033904128725"><ele>416.0</ele><time>2026-04-04T10:22:05Z</time></trkpt><trkpt lat="45.02608229445185" lon="7.755177175766323"><ele>416.0</ele><time>2026-04-04T10:22:06Z</time></trkpt><trkpt lat="45.02599373313255" lon="7.755137981770609"><ele>416.0</ele><time>2026-04-04T10:22:07Z</time></trkpt><trkpt lat="45.02590061744243" lon="7.755089826065302"><ele>416.0</ele><time>2026-04-04T10:22:08Z</time></trkpt><trkpt lat="45.02580421984037" lon="7.75504373397075"><ele>416.0</ele><time>2026-04-04T10:22:09Z</time></trkpt><trkpt lat="45.02570734324083" lon="7.75500004519604"><ele>416.0</ele><time>2026-04-04T10:22:10Z</time></trkpt><trkpt lat="45.02560410885908" lon="7.754953489235628"><ele>414.6</ele><time>2026-04-04T10:22:11Z</time></trkpt><trkpt lat="45.02552128651532" lon="7.754916182975023"><ele>413.20000000000005</ele><time>2026-04-04T10:22:12Z</time></trkpt><trkpt lat="45.02542700363772" lon="7.75487620973638"><ele>411.79999999999995</ele><time>2026-04-04T10:22:13Z</time></trkpt><trkpt lat="45.025319417254195" lon="7.7548276730586325"><ele>410.4</ele><time>2026-04-04T10:22:14Z</time></trkpt><trkpt lat="45.02521358516272" lon="7.754784116678912"><ele>409.0</ele><time>2026-04-04T10:22:15Z</time></trkpt><trkpt lat="45.02513083412314" lon="7.754678846884933"><ele>409.0</ele><time>2026-04-04T10:22:16Z</time></trkpt><trkpt lat="45.025041681442765" lon="7.754591338999227"><ele>409.0</ele><time>2026-04-04T10:22:17Z</time></trkpt><trkpt lat="45.02495402905445" lon="7.754516465431913"><ele>409.0</ele><time>2026-04-04T10:22:18Z</time></trkpt><trkpt lat="45.02487122904976" lon="7.754438035131639"><ele>409.0</ele><time>2026-04-04T10:22:19Z</time></trkpt><trkpt lat="45.02479346226071" lon="7.754355724144783"><ele>409.0</ele><time>2026-04-04T10:22:20Z</time></trkpt><trkpt lat="45.024723394093705" lon="7.754262714554451"><ele>410.6</ele><time>2026-04-04T10:22:21Z</time></trkpt><trkpt lat="45.02463143271246" lon="7.7542027486315614"><ele>412.2</ele><time>2026-04-04T10:22:22Z</time></trkpt><trkpt lat="45.02452719262376" lon="7.754194473960226"><ele>413.8</ele><time>2026-04-04T10:22:23Z</time></trkpt><trkpt lat="45.024431295476596" lon="7.754148318165584"><ele>415.40000000000003</ele><time>2026-04-04T10:22:24Z</time></trkpt><trkpt lat="45.02434517383606" lon="7.7541277670564455"><ele>417.0</ele><time>2026-04-04T10:22:25Z</time></trkpt><trkpt lat="45.024262811644505" lon="7.754103746123835"><ele>417.0</ele><time>2026-04-04T10:22:26Z</time></trkpt><trkpt lat="45.024187701083996" lon="7.7540800710562126"><ele>417.0</ele><time>2026-04-04T10:22:27Z</time></trkpt><trkpt lat="45.024106460273345" lon="7.754067223480924"><ele>417.0</ele><time>2026-04-04T10:22:28Z</time></trkpt><trkpt lat="45.02404138601676" lon="7.753998802913452"><ele>417.0</ele><time>2026-04-04T10:22:29Z</time></trkpt><trkpt lat="45.023971660452915" lon="7.753933083136099"><ele>417.0</ele><time>2026-04-04T10:22:30Z</time></trkpt><trkpt lat="45.02390375477358" lon="7.753864531233765"><ele>417.0</ele><time>2026-04-04T10:22:31Z</time></trkpt><trkpt lat="45.023841998507734" lon="7.7537993140092425"><ele>416.0</ele><time>2026-04-04T10:22:32Z</time></trkpt><trkpt lat="45.02377864238734" lon="7.75375327729732"><ele>415.0</ele><time>2026-04-04T10:22:33Z</time></trkpt><trkpt lat="45.02373254553362" lon="7.753690747985672"><ele>414.0</ele><time>2026-04-04T10:22:34Z</time></trkpt><trkpt lat="45.023676472681366" lon="7.753647171798241"><ele>413.0</ele><time>2026-04-04T10:22:35Z</time></trkpt><trkpt lat="45.02357004204951" lon="7.753580685520434"><ele>412.0</ele><time>2026-04-04T10:22:36.999Z</time></trkpt><trkpt lat="45.02349737995148" lon="7.7535592857146005"><ele>411.0</ele><time>2026-04-04T10:22:37.999Z</time></trkpt><trkpt lat="45.02337910106568" lon="7.753601975250076"><ele>410.1666666666667</ele><time>2026-04-04T10:22:39.999Z</time></trkpt><trkpt lat="45.02330691341546" lon="7.7536656617807465"><ele>409.33333333333337</ele><time>2026-04-04T10:22:40.999Z</time></trkpt><trkpt lat="45.02324188725048" lon="7.753733082349986"><ele>408.5</ele><time>2026-04-04T10:22:41.999Z</time></trkpt><trkpt lat="45.023176236492134" lon="7.75379819438313"><ele>407.6666666666667</ele><time>2026-04-04T10:22:42.999Z</time></trkpt><trkpt lat="45.02311007185398" lon="7.753868033002233"><ele>406.83333333333337</ele><time>2026-04-04T10:22:43.999Z</time></trkpt><trkpt lat="45.023049594078884" lon="7.753939194515951"><ele>406.0</ele><time>2026-04-04T10:22:44.999Z</time></trkpt><trkpt lat="45.02297552955097" lon="7.753985262843486"><ele>406.00000000000006</ele><time>2026-04-04T10:22:45.999Z</time></trkpt><trkpt lat="45.022906456454464" lon="7.7540549965668815"><ele>406.0</ele><time>2026-04-04T10:22:46.999Z</time></trkpt><trkpt lat="45.02284448739806" lon="7.7541179406564416"><ele>406.0</ele><time>2026-04-04T10:22:47.999Z</time></trkpt><trkpt lat="45.02278808277804" lon="7.754192761129741"><ele>406.0</ele><time>2026-04-04T10:22:48.999Z</time></trkpt><trkpt lat="45.02271971814137" lon="7.754256258536433"><ele>406.00000000000006</ele><time>2026-04-04T10:22:49.999Z</time></trkpt><trkpt lat="45.02265470162924" lon="7.754322653346845"><ele>406.0</ele><time>2026-04-04T10:22:50.999Z</time></trkpt><trkpt lat="45.02258654310474" lon="7.754384415510472"><ele>405.00000000000006</ele><time>2026-04-04T10:22:51.999Z</time></trkpt><trkpt lat="45.02250886221082" lon="7.754419065876842"><ele>404.0</ele><time>2026-04-04T10:22:52.999Z</time></trkpt><trkpt lat="45.022433617253476" lon="7.754478786748845"><ele>403.0</ele><time>2026-04-04T10:22:53.999Z</time></trkpt><trkpt lat="45.022353211162134" lon="7.754524384858447"><ele>402.0</ele><time>2026-04-04T10:22:54.999Z</time></trkpt><trkpt lat="45.02227699016588" lon="7.754567615158228"><ele>401.00000000000006</ele><time>2026-04-04T10:22:55.999Z</time></trkpt><trkpt lat="45.022203596080466" lon="7.754615026572259"><ele>400.0</ele><time>2026-04-04T10:22:56.999Z</time></trkpt><trkpt lat="45.0221267247015" lon="7.754662617277058"><ele>399.7142857142857</ele><time>2026-04-04T10:22:57.999Z</time></trkpt><trkpt lat="45.02205406798662" lon="7.754708072086001"><ele>399.42857142857144</ele><time>2026-04-04T10:22:58.999Z</time></trkpt><trkpt lat="45.021982994676215" lon="7.754752318524629"><ele>399.1428571428571</ele><time>2026-04-04T10:22:59.999Z</time></trkpt><trkpt lat="45.02191589585106" lon="7.754790688172072"><ele>398.8571428571429</ele><time>2026-04-04T10:23:00.999Z</time></trkpt><trkpt lat="45.02185267694553" lon="7.75483484985287"><ele>398.57142857142856</ele><time>2026-04-04T10:23:01.999Z</time></trkpt><trkpt lat="45.02178718512287" lon="7.7548779089544295"><ele>398.2857142857143</ele><time>2026-04-04T10:23:02.999Z</time></trkpt><trkpt lat="45.02171774985405" lon="7.7548969222439545"><ele>398.0</ele><time>2026-04-04T10:23:03.999Z</time></trkpt><trkpt lat="45.02165700986589" lon="7.754939989286211"><ele>397.66666666666663</ele><time>2026-04-04T10:23:04.999Z</time></trkpt><trkpt lat="45.021586247756474" lon="7.754946321292414"><ele>397.3333333333333</ele><time>2026-04-04T10:23:05.999Z</time></trkpt><trkpt lat="45.021513381798734" lon="7.754942101086168"><ele>397.0</ele><time>2026-04-04T10:23:06.999Z</time></trkpt><trkpt lat="45.02144723332669" lon="7.754940776881247"><ele>396.66666666666663</ele><time>2026-04-04T10:23:07.999Z</time></trkpt><trkpt lat="45.0213818261643" lon="7.754912109872965"><ele>396.3333333333333</ele><time>2026-04-04T10:23:08.999Z</time></trkpt><trkpt lat="45.02126673613567" lon="7.754879885718851"><ele>396.0</ele><time>2026-04-04T10:23:10.999Z</time></trkpt><trkpt lat="45.021198195540094" lon="7.754762106862008"><ele>396.0</ele><time>2026-04-04T10:23:12.999Z</time></trkpt><trkpt lat="45.02116231722137" lon="7.754599529817601"><ele>396.0</ele><time>2026-04-04T10:23:14.999Z</time></trkpt><trkpt lat="45.02116462741919" lon="7.754429731331341"><ele>396.0</ele><time>2026-04-04T10:23:16.999Z</time></trkpt><trkpt lat="45.021173254106984" lon="7.75426440430539"><ele>396.0</ele><time>2026-04-04T10:23:18.999Z</time></trkpt><trkpt lat="45.021158554633004" lon="7.7540841965040554"><ele>396.6666666666667</ele><time>2026-04-04T10:23:20.999Z</time></trkpt><trkpt lat="45.021138659006354" lon="7.753988104259612"><ele>397.33333333333337</ele><time>2026-04-04T10:23:21.999Z</time></trkpt><trkpt lat="45.021099841272815" lon="7.753900933857644"><ele>398.0</ele><time>2026-04-04T10:23:22.999Z</time></trkpt><trkpt lat="45.02107633613844" lon="7.753792881681326"><ele>398.6666666666667</ele><time>2026-04-04T10:23:23.999Z</time></trkpt><trkpt lat="45.021032573872816" lon="7.753697354012247"><ele>399.33333333333337</ele><time>2026-04-04T10:23:24.999Z</time></trkpt><trkpt lat="45.02099145467392" lon="7.753604220836268"><ele>400.0</ele><time>2026-04-04T10:23:25.999Z</time></trkpt><trkpt lat="45.020954491164524" lon="7.753513661590921"><ele>398.28571428571433</ele><time>2026-04-04T10:23:26.999Z</time></trkpt><trkpt lat="45.02091732883423" lon="7.753435271932964"><ele>396.57142857142856</ele><time>2026-04-04T10:23:27.999Z</time></trkpt><trkpt lat="45.020912411124854" lon="7.753332483938202"><ele>394.8571428571429</ele><time>2026-04-04T10:23:28.999Z</time></trkpt><trkpt lat="45.02092178759874" lon="7.7532344962967565"><ele>393.14285714285717</ele><time>2026-04-04T10:23:29.999Z</time></trkpt><trkpt lat="45.02094055375022" lon="7.753137677350935"><ele>391.42857142857144</ele><time>2026-04-04T10:23:30.999Z</time></trkpt><trkpt lat="45.020976111737674" lon="7.753052986192305"><ele>389.7142857142857</ele><time>2026-04-04T10:23:31.999Z</time></trkpt><trkpt lat="45.02101588845898" lon="7.752971738196206"><ele>388.0</ele><time>2026-04-04T10:23:32.999Z</time></trkpt><trkpt lat="45.021056144632354" lon="7.752896046410659"><ele>388.00000000000006</ele><time>2026-04-04T10:23:33.999Z</time></trkpt><trkpt lat="45.02109158500549" lon="7.752821466496918"><ele>388.0</ele><time>2026-04-04T10:23:34.999Z</time></trkpt><trkpt lat="45.021140021990405" lon="7.752662249057309"><ele>388.0</ele><time>2026-04-04T10:23:36.999Z</time></trkpt><trkpt lat="45.02115284585891" lon="7.752568818922303"><ele>388.0</ele><time>2026-04-04T10:23:37.999Z</time></trkpt><trkpt lat="45.021124468843034" lon="7.752471197207539"><ele>388.00000000000006</ele><time>2026-04-04T10:23:38.999Z</time></trkpt><trkpt lat="45.0210739743225" lon="7.752389859413066"><ele>388.0</ele><time>2026-04-04T10:23:39.999Z</time></trkpt><trkpt lat="45.020990769048744" lon="7.752381153473479"><ele>386.4</ele><time>2026-04-04T10:23:40.999Z</time></trkpt><trkpt lat="45.0208597363538" lon="7.752340796165603"><ele>384.79999999999995</ele><time>2026-04-04T10:23:42.998Z</time></trkpt><trkpt lat="45.02078646750959" lon="7.752288093553383"><ele>383.2</ele><time>2026-04-04T10:23:43.998Z</time></trkpt><trkpt lat="45.020701484430774" lon="7.752276504535609"><ele>381.6</ele><time>2026-04-04T10:23:44.998Z</time></trkpt><trkpt lat="45.02062088540595" lon="7.752239242499014"><ele>380.0</ele><time>2026-04-04T10:23:45.998Z</time></trkpt><trkpt lat="45.02054384583191" lon="7.752187654682646"><ele>379.2</ele><time>2026-04-04T10:23:46.998Z</time></trkpt><trkpt lat="45.020479824099986" lon="7.752126393126004"><ele>378.4</ele><time>2026-04-04T10:23:47.998Z</time></trkpt><trkpt lat="45.02041323248571" lon="7.752110789349413"><ele>377.6</ele><time>2026-04-04T10:23:48.998Z</time></trkpt><trkpt lat="45.020301746866224" lon="7.752063488679702"><ele>376.8</ele><time>2026-04-04T10:23:50.998Z</time></trkpt><trkpt lat="45.020176553277054" lon="7.7520118804280775"><ele>376.0</ele><time>2026-04-04T10:23:52.998Z</time></trkpt><trkpt lat="45.019995298092056" lon="7.7520096580899205"><ele>375.66666666666663</ele><time>2026-04-04T10:23:54.998Z</time></trkpt><trkpt lat="45.01989289907779" lon="7.75201842728825"><ele>375.3333333333333</ele><time>2026-04-04T10:23:55.998Z</time></trkpt><trkpt lat="45.01982166561835" lon="7.752031833609712"><ele>375.0</ele><time>2026-04-04T10:23:56.998Z</time></trkpt><trkpt lat="45.01974698354738" lon="7.752076249256625"><ele>374.6666666666667</ele><time>2026-04-04T10:23:57.998Z</time></trkpt><trkpt lat="45.01967085223353" lon="7.752076876508386"><ele>374.33333333333337</ele><time>2026-04-04T10:23:58.998Z</time></trkpt><trkpt lat="45.01959850953942" lon="7.752106623667871"><ele>374.0</ele><time>2026-04-04T10:23:59.998Z</time></trkpt><trkpt lat="45.01953709900796" lon="7.752128007884724"><ele>374.0</ele><time>2026-04-04T10:24:01Z</time></trkpt><trkpt lat="45.01943730186844" lon="7.752127964960914"><ele>374.0</ele><time>2026-04-04T10:24:03Z</time></trkpt><trkpt lat="45.0193327328457" lon="7.752101538731443"><ele>374.0</ele><time>2026-04-04T10:24:06Z</time></trkpt><trkpt lat="45.0192922980148" lon="7.752206704431469"><ele>374.0</ele><time>2026-04-04T10:24:07Z</time></trkpt><trkpt lat="45.019221720212926" lon="7.7522755785092725"><ele>374.0</ele><time>2026-04-04T10:24:08Z</time></trkpt><trkpt lat="45.01916676586973" lon="7.752328523802593"><ele>374.0</ele><time>2026-04-04T10:24:09Z</time></trkpt><trkpt lat="45.019090288493075" lon="7.752368933198497"><ele>374.2</ele><time>2026-04-04T10:24:10Z</time></trkpt><trkpt lat="45.01901456981844" lon="7.7524109610583345"><ele>374.4</ele><time>2026-04-04T10:24:11Z</time></trkpt><trkpt lat="45.01893375381994" lon="7.752460610861275"><ele>374.6</ele><time>2026-04-04T10:24:12Z</time></trkpt><trkpt lat="45.01883728469218" lon="7.752532266092029"><ele>374.8</ele><time>2026-04-04T10:24:13Z</time></trkpt><trkpt lat="45.018762900023475" lon="7.752549200886212"><ele>375.0</ele><time>2026-04-04T10:24:14Z</time></trkpt><trkpt lat="45.01865969233183" lon="7.752629124887389"><ele>375.0</ele><time>2026-04-04T10:24:15Z</time></trkpt><trkpt lat="45.0185545897659" lon="7.752628630462756"><ele>375.0</ele><time>2026-04-04T10:24:16Z</time></trkpt><trkpt lat="45.01845153720979" lon="7.752652072081096"><ele>375.0</ele><time>2026-04-04T10:24:17Z</time></trkpt><trkpt lat="45.018343448951065" lon="7.7526611164415495"><ele>375.0</ele><time>2026-04-04T10:24:18Z</time></trkpt><trkpt lat="45.01823719410352" lon="7.7526726091823095"><ele>375.0</ele><time>2026-04-04T10:24:19Z</time></trkpt><trkpt lat="45.01813695688755" lon="7.75267924986461"><ele>375.0</ele><time>2026-04-04T10:24:20Z</time></trkpt><trkpt lat="45.01805188033537" lon="7.752681667400259"><ele>375.0</ele><time>2026-04-04T10:24:21Z</time></trkpt><trkpt lat="45.01795220356066" lon="7.7526701431155844"><ele>375.0</ele><time>2026-04-04T10:24:22Z</time></trkpt><trkpt lat="45.01784359562939" lon="7.752686313041713"><ele>375.0</ele><time>2026-04-04T10:24:23Z</time></trkpt><trkpt lat="45.017735526915736" lon="7.752722942736978"><ele>375.0</ele><time>2026-04-04T10:24:24Z</time></trkpt><trkpt lat="45.0176339886732" lon="7.752786126791919"><ele>374.0</ele><time>2026-04-04T10:24:25Z</time></trkpt><trkpt lat="45.0175271878579" lon="7.752831024256805"><ele>373.0</ele><time>2026-04-04T10:24:26Z</time></trkpt><trkpt lat="45.01742173934232" lon="7.752856412389897"><ele>372.0</ele><time>2026-04-04T10:24:27Z</time></trkpt><trkpt lat="45.01732426358904" lon="7.752899307106039"><ele>371.0</ele><time>2026-04-04T10:24:28Z</time></trkpt><trkpt lat="45.01723306113936" lon="7.75296042451264"><ele>370.0</ele><time>2026-04-04T10:24:29Z</time></trkpt><trkpt lat="45.01714952751121" lon="7.7529758318932585"><ele>369.8333333333333</ele><time>2026-04-04T10:24:30Z</time></trkpt><trkpt lat="45.0170726538073" lon="7.753008176176174"><ele>369.66666666666663</ele><time>2026-04-04T10:24:31Z</time></trkpt><trkpt lat="45.01701038218419" lon="7.753038854369806"><ele>369.5</ele><time>2026-04-04T10:24:32Z</time></trkpt><trkpt lat="45.016931053043095" lon="7.753090280776762"><ele>369.3333333333333</ele><time>2026-04-04T10:24:34Z</time></trkpt><trkpt lat="45.01680705058261" lon="7.75313268185849"><ele>369.1666666666667</ele><time>2026-04-04T10:24:36Z</time></trkpt><trkpt lat="45.01672823196698" lon="7.753128838201124"><ele>369.0</ele><time>2026-04-04T10:24:37Z</time></trkpt><trkpt lat="45.016653691100544" lon="7.75316487800182"><ele>369.0</ele><time>2026-04-04T10:24:38Z</time></trkpt><trkpt lat="45.016570244500514" lon="7.753204913770915"><ele>369.0</ele><time>2026-04-04T10:24:39Z</time></trkpt><trkpt lat="45.01650094065368" lon="7.753235418666447"><ele>369.0</ele><time>2026-04-04T10:24:40Z</time></trkpt><trkpt lat="45.016420434199574" lon="7.753270854548069"><ele>369.0</ele><time>2026-04-04T10:24:41Z</time></trkpt><trkpt lat="45.01634152799108" lon="7.753319885933504"><ele>369.0</ele><time>2026-04-04T10:24:42Z</time></trkpt><trkpt lat="45.01625746701434" lon="7.753353732417034"><ele>369.0</ele><time>2026-04-04T10:24:42.999Z</time></trkpt><trkpt lat="45.01618715001277" lon="7.753397841295974"><ele>369.0</ele><time>2026-04-04T10:24:43.999Z</time></trkpt><trkpt lat="45.016033742464145" lon="7.753441061447759"><ele>369.0</ele><time>2026-04-04T10:24:45.999Z</time></trkpt><trkpt lat="45.015960713533275" lon="7.753473854315457"><ele>369.0</ele><time>2026-04-04T10:24:46.999Z</time></trkpt><trkpt lat="45.01584342146358" lon="7.7535463157634945"><ele>369.0</ele><time>2026-04-04T10:24:48.999Z</time></trkpt><trkpt lat="45.01577385222095" lon="7.7535803505762075"><ele>369.0</ele><time>2026-04-04T10:24:49.999Z</time></trkpt><trkpt lat="45.015701199595945" lon="7.753608651597275"><ele>368.2</ele><time>2026-04-04T10:24:50.999Z</time></trkpt><trkpt lat="45.01560500190552" lon="7.753630054921"><ele>367.4</ele><time>2026-04-04T10:24:51.999Z</time></trkpt><trkpt lat="45.015508707801224" lon="7.753671888308111"><ele>366.6</ele><time>2026-04-04T10:24:52.999Z</time></trkpt><trkpt lat="45.01540251870533" lon="7.753718222144429"><ele>365.8</ele><time>2026-04-04T10:24:53.999Z</time></trkpt><trkpt lat="45.015293151921796" lon="7.753768014069026"><ele>365.0</ele><time>2026-04-04T10:24:54.999Z</time></trkpt><trkpt lat="45.015170508613075" lon="7.753823484578219"><ele>365.0</ele><time>2026-04-04T10:24:55.999Z</time></trkpt><trkpt lat="45.015051448567064" lon="7.753872046996351"><ele>365.0</ele><time>2026-04-04T10:24:56.999Z</time></trkpt><trkpt lat="45.014934337593864" lon="7.753919383578552"><ele>365.0</ele><time>2026-04-04T10:24:57.999Z</time></trkpt><trkpt lat="45.01481335921741" lon="7.753974959680191"><ele>365.0</ele><time>2026-04-04T10:24:58.999Z</time></trkpt><trkpt lat="45.014692404120225" lon="7.754032659613088"><ele>365.75</ele><time>2026-04-04T10:24:59.999Z</time></trkpt><trkpt lat="45.01457235257373" lon="7.754090346733011"><ele>366.5</ele><time>2026-04-04T10:25:00.999Z</time></trkpt><trkpt lat="45.01445494516526" lon="7.754143995072142"><ele>367.25</ele><time>2026-04-04T10:25:01.999Z</time></trkpt><trkpt lat="45.014335937723345" lon="7.75419733411945"><ele>368.0</ele><time>2026-04-04T10:25:02.999Z</time></trkpt><trkpt lat="45.01421511771954" lon="7.754251486230074"><ele>368.25</ele><time>2026-04-04T10:25:03.999Z</time></trkpt><trkpt lat="45.014100748772314" lon="7.754295548971589"><ele>368.5</ele><time>2026-04-04T10:25:04.999Z</time></trkpt><trkpt lat="45.0139780772572" lon="7.754345365331756"><ele>368.75</ele><time>2026-04-04T10:25:05.999Z</time></trkpt><trkpt lat="45.013852510317534" lon="7.754396357505606"><ele>369.0</ele><time>2026-04-04T10:25:06.999Z</time></trkpt><trkpt lat="45.01373143163465" lon="7.754445817935934"><ele>367.0</ele><time>2026-04-04T10:25:07.999Z</time></trkpt><trkpt lat="45.01360597499814" lon="7.754497804789132"><ele>365.0</ele><time>2026-04-04T10:25:08.999Z</time></trkpt><trkpt lat="45.01349416905067" lon="7.754544135064561"><ele>363.0</ele><time>2026-04-04T10:25:09.999Z</time></trkpt><trkpt lat="45.01338532750516" lon="7.754610865132841"><ele>361.0</ele><time>2026-04-04T10:25:10.999Z</time></trkpt><trkpt lat="45.01328035887729" lon="7.754650398704151"><ele>361.0</ele><time>2026-04-04T10:25:11.999Z</time></trkpt><trkpt lat="45.01317898128683" lon="7.754674742816142"><ele>361.0</ele><time>2026-04-04T10:25:12.999Z</time></trkpt><trkpt lat="45.01309479315866" lon="7.75473243238027"><ele>361.0</ele><time>2026-04-04T10:25:13.999Z</time></trkpt><trkpt lat="45.01300359875496" lon="7.754755243634684"><ele>361.0</ele><time>2026-04-04T10:25:14.999Z</time></trkpt><trkpt lat="45.01292449009734" lon="7.754795139148629"><ele>361.0</ele><time>2026-04-04T10:25:15.999Z</time></trkpt><trkpt lat="45.0128463637629" lon="7.754836498468791"><ele>361.0</ele><time>2026-04-04T10:25:16.999Z</time></trkpt><trkpt lat="45.01276952224054" lon="7.754863073682422"><ele>361.0</ele><time>2026-04-04T10:25:17.999Z</time></trkpt><trkpt lat="45.01270611019071" lon="7.754887033565071"><ele>361.0</ele><time>2026-04-04T10:25:18.999Z</time></trkpt><trkpt lat="45.0126397097409" lon="7.754921176778211"><ele>361.0</ele><time>2026-04-04T10:25:19.999Z</time></trkpt><trkpt lat="45.012573382139834" lon="7.754927193605573"><ele>361.0</ele><time>2026-04-04T10:25:20.999Z</time></trkpt><trkpt lat="45.01249142679011" lon="7.754965538433721"><ele>361.0</ele><time>2026-04-04T10:25:22.999Z</time></trkpt><trkpt lat="45.01241817215886" lon="7.754955582207705"><ele>361.0</ele><time>2026-04-04T10:25:25.999Z</time></trkpt><trkpt lat="45.01232811109089" lon="7.754968133610495"><ele>361.16666666666663</ele><time>2026-04-04T10:25:28.999Z</time></trkpt><trkpt lat="45.01227252797014" lon="7.755015921180253"><ele>361.3333333333333</ele><time>2026-04-04T10:25:29.999Z</time></trkpt><trkpt lat="45.01220953956852" lon="7.7550911739403325"><ele>361.5</ele><time>2026-04-04T10:25:30.999Z</time></trkpt><trkpt lat="45.01213512731106" lon="7.755156099992904"><ele>361.6666666666667</ele><time>2026-04-04T10:25:31.999Z</time></trkpt><trkpt lat="45.01205589692187" lon="7.755220150744206"><ele>361.83333333333337</ele><time>2026-04-04T10:25:32.999Z</time></trkpt><trkpt lat="45.01196397614967" lon="7.755289442689674"><ele>362.0</ele><time>2026-04-04T10:25:33.999Z</time></trkpt><trkpt lat="45.01186375264033" lon="7.755356014567099"><ele>360.75</ele><time>2026-04-04T10:25:34.999Z</time></trkpt><trkpt lat="45.011758552287944" lon="7.755420712904629"><ele>359.5</ele><time>2026-04-04T10:25:35.999Z</time></trkpt><trkpt lat="45.0116546629066" lon="7.755489912052266"><ele>358.25</ele><time>2026-04-04T10:25:36.999Z</time></trkpt><trkpt lat="45.01154717014851" lon="7.755563319569733"><ele>357.0</ele><time>2026-04-04T10:25:37.999Z</time></trkpt><trkpt lat="45.01143787470302" lon="7.755629794002195"><ele>357.0</ele><time>2026-04-04T10:25:38.999Z</time></trkpt><trkpt lat="45.01131503118148" lon="7.755683009646247"><ele>357.0</ele><time>2026-04-04T10:25:39.999Z</time></trkpt><trkpt lat="45.011207102602505" lon="7.755773626614143"><ele>357.0</ele><time>2026-04-04T10:25:40.999Z</time></trkpt><trkpt lat="45.01109578426294" lon="7.755852447249253"><ele>357.0</ele><time>2026-04-04T10:25:41.999Z</time></trkpt><trkpt lat="45.010986964658244" lon="7.755917861909408"><ele>357.0</ele><time>2026-04-04T10:25:42.999Z</time></trkpt><trkpt lat="45.010868282019544" lon="7.755972990323584"><ele>357.0</ele><time>2026-04-04T10:25:43.999Z</time></trkpt><trkpt lat="45.01075799017731" lon="7.756045172721357"><ele>357.0</ele><time>2026-04-04T10:25:44.999Z</time></trkpt><trkpt lat="45.010639635020816" lon="7.756122629811032"><ele>357.0</ele><time>2026-04-04T10:25:45.999Z</time></trkpt><trkpt lat="45.01053496726377" lon="7.756216362940488"><ele>354.75</ele><time>2026-04-04T10:25:46.999Z</time></trkpt><trkpt lat="45.010422648635085" lon="7.756283090624136"><ele>352.5</ele><time>2026-04-04T10:25:47.999Z</time></trkpt><trkpt lat="45.01031372543855" lon="7.756332456410839"><ele>350.25</ele><time>2026-04-04T10:25:48.999Z</time></trkpt><trkpt lat="45.01020669749318" lon="7.756399550813915"><ele>348.0</ele><time>2026-04-04T10:25:49.998Z</time></trkpt><trkpt lat="45.01009655893959" lon="7.756471635868558"><ele>347.75</ele><time>2026-04-04T10:25:50.998Z</time></trkpt><trkpt lat="45.009986505859345" lon="7.756565274125365"><ele>347.5</ele><time>2026-04-04T10:25:51.998Z</time></trkpt><trkpt lat="45.00987052793632" lon="7.75661971753948"><ele>347.25</ele><time>2026-04-04T10:25:52.998Z</time></trkpt><trkpt lat="45.009762418945414" lon="7.756703736405013"><ele>347.0</ele><time>2026-04-04T10:25:53.998Z</time></trkpt><trkpt lat="45.00965559664206" lon="7.756771039344077"><ele>347.0</ele><time>2026-04-04T10:25:54.998Z</time></trkpt><trkpt lat="45.00955524908817" lon="7.75684483871228"><ele>347.0</ele><time>2026-04-04T10:25:55.998Z</time></trkpt><trkpt lat="45.00945598896868" lon="7.756904665646637"><ele>347.0</ele><time>2026-04-04T10:25:56.998Z</time></trkpt><trkpt lat="45.00935494865965" lon="7.75695310608284"><ele>347.0</ele><time>2026-04-04T10:25:57.998Z</time></trkpt><trkpt lat="45.00926894900978" lon="7.757029396441007"><ele>347.0</ele><time>2026-04-04T10:25:58.998Z</time></trkpt><trkpt lat="45.009178448086466" lon="7.757086582461106"><ele>345.8</ele><time>2026-04-04T10:25:59.998Z</time></trkpt><trkpt lat="45.009085631022025" lon="7.757148550606365"><ele>344.6</ele><time>2026-04-04T10:26:00.998Z</time></trkpt><trkpt lat="45.008988953220936" lon="7.757213009344332"><ele>343.40000000000003</ele><time>2026-04-04T10:26:01.998Z</time></trkpt><trkpt lat="45.00889410944852" lon="7.757277479830343"><ele>342.20000000000005</ele><time>2026-04-04T10:26:02.998Z</time></trkpt><trkpt lat="45.00880157991566" lon="7.757330613920055"><ele>341.0</ele><time>2026-04-04T10:26:03.998Z</time></trkpt><trkpt lat="45.00870353182609" lon="7.7573819962156145"><ele>341.0</ele><time>2026-04-04T10:26:04.998Z</time></trkpt><trkpt lat="45.00861589900088" lon="7.75743718560568"><ele>341.0</ele><time>2026-04-04T10:26:05.998Z</time></trkpt><trkpt lat="45.00852870380285" lon="7.757492909378271"><ele>341.0</ele><time>2026-04-04T10:26:07Z</time></trkpt><trkpt lat="45.00846180680054" lon="7.757541082067337"><ele>341.0</ele><time>2026-04-04T10:26:08Z</time></trkpt><trkpt lat="45.00841121654014" lon="7.7576044433904245"><ele>341.0</ele><time>2026-04-04T10:26:09Z</time></trkpt><trkpt lat="45.008310730689125" lon="7.757662143751362"><ele>341.0</ele><time>2026-04-04T10:26:11Z</time></trkpt><trkpt lat="45.00833853341785" lon="7.757866009795995"><ele>340.83333333333337</ele><time>2026-04-04T10:26:13Z</time></trkpt><trkpt lat="45.008381818488814" lon="7.758030010768368"><ele>340.6666666666667</ele><time>2026-04-04T10:26:15Z</time></trkpt><trkpt lat="45.00838491584788" lon="7.758126276068756"><ele>340.5</ele><time>2026-04-04T10:26:16Z</time></trkpt><trkpt lat="45.00837673570922" lon="7.758240486598618"><ele>340.3333333333333</ele><time>2026-04-04T10:26:17Z</time></trkpt><trkpt lat="45.00837075928571" lon="7.758362620930309"><ele>340.16666666666663</ele><time>2026-04-04T10:26:18Z</time></trkpt><trkpt lat="45.00836729512048" lon="7.75848719792301"><ele>340.0</ele><time>2026-04-04T10:26:19Z</time></trkpt><trkpt lat="45.008367116457094" lon="7.758618067019536"><ele>337.6</ele><time>2026-04-04T10:26:20Z</time></trkpt><trkpt lat="45.00836874116569" lon="7.758754402240262"><ele>335.2</ele><time>2026-04-04T10:26:21Z</time></trkpt><trkpt lat="45.00837308883516" lon="7.758902000018105"><ele>332.79999999999995</ele><time>2026-04-04T10:26:22Z</time></trkpt><trkpt lat="45.00837640008436" lon="7.759052136338512"><ele>330.4</ele><time>2026-04-04T10:26:23Z</time></trkpt><trkpt lat="45.00837515597501" lon="7.759209465955126"><ele>328.0</ele><time>2026-04-04T10:26:24Z</time></trkpt><trkpt lat="45.00837613732996" lon="7.7593617478836965"><ele>326.59999999999997</ele><time>2026-04-04T10:26:25Z</time></trkpt><trkpt lat="45.00836940676647" lon="7.759516397364363"><ele>325.2</ele><time>2026-04-04T10:26:26Z</time></trkpt><trkpt lat="45.00836780589517" lon="7.759661326294626"><ele>323.8</ele><time>2026-04-04T10:26:27Z</time></trkpt><trkpt lat="45.00836673500473" lon="7.759803274949049"><ele>322.4</ele><time>2026-04-04T10:26:28Z</time></trkpt><trkpt lat="45.008370009725375" lon="7.75993939071523"><ele>321.0</ele><time>2026-04-04T10:26:29Z</time></trkpt><trkpt lat="45.00836662940646" lon="7.760080360794851"><ele>320.5</ele><time>2026-04-04T10:26:30Z</time></trkpt><trkpt lat="45.0083673103046" lon="7.760215816693328"><ele>320.0</ele><time>2026-04-04T10:26:31Z</time></trkpt><trkpt lat="45.00836657751564" lon="7.760347375705729"><ele>319.5</ele><time>2026-04-04T10:26:32Z</time></trkpt><trkpt lat="45.008367322413065" lon="7.76047321918672"><ele>319.0</ele><time>2026-04-04T10:26:33Z</time></trkpt><trkpt lat="45.00836253337386" lon="7.760592767960802"><ele>318.5</ele><time>2026-04-04T10:26:34Z</time></trkpt><trkpt lat="45.0083524743919" lon="7.760706882386959"><ele>318.0</ele><time>2026-04-04T10:26:35Z</time></trkpt><trkpt lat="45.008347685563166" lon="7.760812282379726"><ele>318.0</ele><time>2026-04-04T10:26:36Z</time></trkpt><trkpt lat="45.00834139736533" lon="7.760907787854371"><ele>318.0</ele><time>2026-04-04T10:26:37Z</time></trkpt><trkpt lat="45.008291578536216" lon="7.761069187526365"><ele>318.0</ele><time>2026-04-04T10:26:39Z</time></trkpt><trkpt lat="45.008247265508665" lon="7.761147870319568"><ele>318.0</ele><time>2026-04-04T10:26:40Z</time></trkpt><trkpt lat="45.00818302891145" lon="7.76121060969587"><ele>318.0</ele><time>2026-04-04T10:26:41Z</time></trkpt><trkpt lat="45.00811429233969" lon="7.761273930151915"><ele>318.0</ele><time>2026-04-04T10:26:42Z</time></trkpt><trkpt lat="45.008043537292295" lon="7.761345421657558"><ele>317.8333333333333</ele><time>2026-04-04T10:26:43Z</time></trkpt><trkpt lat="45.00797220109473" lon="7.761408778804141"><ele>317.6666666666667</ele><time>2026-04-04T10:26:44Z</time></trkpt><trkpt lat="45.00790003387532" lon="7.761471179784479"><ele>317.5</ele><time>2026-04-04T10:26:45Z</time></trkpt><trkpt lat="45.00782276653135" lon="7.76152857796993"><ele>317.33333333333337</ele><time>2026-04-04T10:26:46Z</time></trkpt><trkpt lat="45.007746348590246" lon="7.761580009961026"><ele>317.1666666666667</ele><time>2026-04-04T10:26:47Z</time></trkpt><trkpt lat="45.007667019755914" lon="7.761626195041464"><ele>317.0</ele><time>2026-04-04T10:26:48Z</time></trkpt><trkpt lat="45.00758523779654" lon="7.76166327331013"><ele>317.0</ele><time>2026-04-04T10:26:48.999Z</time></trkpt><trkpt lat="45.007501755822666" lon="7.761700511152121"><ele>317.0</ele><time>2026-04-04T10:26:49.999Z</time></trkpt><trkpt lat="45.0074179963791" lon="7.761736666303344"><ele>317.0</ele><time>2026-04-04T10:26:50.999Z</time></trkpt><trkpt lat="45.00733224522893" lon="7.7617685196157264"><ele>317.0</ele><time>2026-04-04T10:26:51.999Z</time></trkpt><trkpt lat="45.007243341496824" lon="7.761807106109381"><ele>317.0</ele><time>2026-04-04T10:26:52.999Z</time></trkpt><trkpt lat="45.00715397542052" lon="7.761848507472618"><ele>316.5</ele><time>2026-04-04T10:26:53.999Z</time></trkpt><trkpt lat="45.00706306491592" lon="7.7618621350247325"><ele>316.0</ele><time>2026-04-04T10:26:54.999Z</time></trkpt><trkpt lat="45.006981772831466" lon="7.761899752364334"><ele>315.5</ele><time>2026-04-04T10:26:55.999Z</time></trkpt><trkpt lat="45.00690150865694" lon="7.7619425849601535"><ele>315.0</ele><time>2026-04-04T10:26:56.999Z</time></trkpt><trkpt lat="45.00682454226484" lon="7.761990548735689"><ele>314.5</ele><time>2026-04-04T10:26:57.999Z</time></trkpt><trkpt lat="45.00674736140361" lon="7.762046294340859"><ele>314.0</ele><time>2026-04-04T10:26:58.999Z</time></trkpt><trkpt lat="45.00667764703556" lon="7.76212353847358"><ele>313.33333333333337</ele><time>2026-04-04T10:26:59.999Z</time></trkpt><trkpt lat="45.00660057715508" lon="7.7621818948521994"><ele>312.6666666666667</ele><time>2026-04-04T10:27:00.999Z</time></trkpt><trkpt lat="45.00651480298575" lon="7.762220373559389"><ele>312.0</ele><time>2026-04-04T10:27:01.999Z</time></trkpt><trkpt lat="45.006437833547935" lon="7.762289775697588"><ele>311.3333333333333</ele><time>2026-04-04T10:27:02.999Z</time></trkpt><trkpt lat="45.006359123447886" lon="7.76234981490856"><ele>310.66666666666663</ele><time>2026-04-04T10:27:03.999Z</time></trkpt><trkpt lat="45.00627862131377" lon="7.762406985714784"><ele>310.0</ele><time>2026-04-04T10:27:04.999Z</time></trkpt><trkpt lat="45.00619866394098" lon="7.762459103509806"><ele>310.0</ele><time>2026-04-04T10:27:05.999Z</time></trkpt><trkpt lat="45.00612322610463" lon="7.762500031784302"><ele>310.0</ele><time>2026-04-04T10:27:06.999Z</time></trkpt><trkpt lat="45.006043971576084" lon="7.762543148439512"><ele>310.0</ele><time>2026-04-04T10:27:07.999Z</time></trkpt><trkpt lat="45.0059632356375" lon="7.762578647943384"><ele>310.0</ele><time>2026-04-04T10:27:08.999Z</time></trkpt><trkpt lat="45.00588199961929" lon="7.762614199455659"><ele>310.0</ele><time>2026-04-04T10:27:09.999Z</time></trkpt><trkpt lat="45.005812676527334" lon="7.76264868562151"><ele>310.0</ele><time>2026-04-04T10:27:10.999Z</time></trkpt><trkpt lat="45.005731838711824" lon="7.762676537674812"><ele>309.16666666666663</ele><time>2026-04-04T10:27:11.999Z</time></trkpt><trkpt lat="45.00566595392049" lon="7.7626992395173975"><ele>308.3333333333333</ele><time>2026-04-04T10:27:12.999Z</time></trkpt><trkpt lat="45.00560908936128" lon="7.76274501666145"><ele>307.5</ele><time>2026-04-04T10:27:13.999Z</time></trkpt><trkpt lat="45.00555426959006" lon="7.7628077487331435"><ele>306.6666666666667</ele><time>2026-04-04T10:27:14.999Z</time></trkpt><trkpt lat="45.00554180372257" lon="7.762933702738657"><ele>305.83333333333337</ele><time>2026-04-04T10:27:15.999Z</time></trkpt><trkpt lat="45.00550843240069" lon="7.763045774255151"><ele>305.0</ele><time>2026-04-04T10:27:16.999Z</time></trkpt><trkpt lat="45.00547164441735" lon="7.763159644734391"><ele>305.0</ele><time>2026-04-04T10:27:17.999Z</time></trkpt><trkpt lat="45.00543761219165" lon="7.7632742143527365"><ele>305.0</ele><time>2026-04-04T10:27:18.999Z</time></trkpt><trkpt lat="45.00539945018654" lon="7.763392908363844"><ele>305.0</ele><time>2026-04-04T10:27:19.999Z</time></trkpt><trkpt lat="45.00536106937292" lon="7.763513652508942"><ele>305.0</ele><time>2026-04-04T10:27:20.999Z</time></trkpt><trkpt lat="45.00531421335993" lon="7.763636140426972"><ele>305.0</ele><time>2026-04-04T10:27:21.999Z</time></trkpt><trkpt lat="45.00526289507876" lon="7.763757298333925"><ele>304.2</ele><time>2026-04-04T10:27:22.999Z</time></trkpt><trkpt lat="45.005203478558336" lon="7.763870611997974"><ele>303.4</ele><time>2026-04-04T10:27:23.999Z</time></trkpt><trkpt lat="45.00513813620542" lon="7.7639787420824335"><ele>302.6</ele><time>2026-04-04T10:27:24.999Z</time></trkpt><trkpt lat="45.00506769336999" lon="7.764073555647929"><ele>301.8</ele><time>2026-04-04T10:27:25.999Z</time></trkpt><trkpt lat="45.004991874395806" lon="7.764156475576926"><ele>301.0</ele><time>2026-04-04T10:27:26.999Z</time></trkpt><trkpt lat="45.00491654230722" lon="7.764238749718649"><ele>300.6</ele><time>2026-04-04T10:27:27.999Z</time></trkpt><trkpt lat="45.0048411399769" lon="7.764319885403976"><ele>300.20000000000005</ele><time>2026-04-04T10:27:28.999Z</time></trkpt><trkpt lat="45.00477131162344" lon="7.7644004344512405"><ele>299.79999999999995</ele><time>2026-04-04T10:27:29.999Z</time></trkpt><trkpt lat="45.00470275244004" lon="7.764482689325049"><ele>299.4</ele><time>2026-04-04T10:27:30.999Z</time></trkpt><trkpt lat="45.00463194203053" lon="7.764559691187765"><ele>299.0</ele><time>2026-04-04T10:27:31.999Z</time></trkpt><trkpt lat="45.00455816270633" lon="7.764629947704687"><ele>298.4</ele><time>2026-04-04T10:27:32.999Z</time></trkpt><trkpt lat="45.00448307550549" lon="7.764697399088611"><ele>297.79999999999995</ele><time>2026-04-04T10:27:33.999Z</time></trkpt><trkpt lat="45.004410220029" lon="7.764769886571027"><ele>297.20000000000005</ele><time>2026-04-04T10:27:34.999Z</time></trkpt><trkpt lat="45.004341387156565" lon="7.764851092742878"><ele>296.6</ele><time>2026-04-04T10:27:35.999Z</time></trkpt><trkpt lat="45.00426540811595" lon="7.764934519867065"><ele>296.0</ele><time>2026-04-04T10:27:36.999Z</time></trkpt><trkpt lat="45.00418096344087" lon="7.765016375026753"><ele>295.8</ele><time>2026-04-04T10:27:37.999Z</time></trkpt><trkpt lat="45.004097049169815" lon="7.765102352822"><ele>295.6</ele><time>2026-04-04T10:27:38.999Z</time></trkpt><trkpt lat="45.00401493127281" lon="7.765186763832446"><ele>295.4</ele><time>2026-04-04T10:27:39.999Z</time></trkpt><trkpt lat="45.00393302016866" lon="7.765267974550082"><ele>295.2</ele><time>2026-04-04T10:27:40.999Z</time></trkpt><trkpt lat="45.00385524319254" lon="7.7653561227595596"><ele>295.0</ele><time>2026-04-04T10:27:41.999Z</time></trkpt><trkpt lat="45.003781338613166" lon="7.76543950384423"><ele>294.8</ele><time>2026-04-04T10:27:42.999Z</time></trkpt><trkpt lat="45.00370243683075" lon="7.765524413750649"><ele>294.6</ele><time>2026-04-04T10:27:43.999Z</time></trkpt><trkpt lat="45.00362119156077" lon="7.765599656288985"><ele>294.4</ele><time>2026-04-04T10:27:44.999Z</time></trkpt><trkpt lat="45.00355271567889" lon="7.765681520313474"><ele>294.2</ele><time>2026-04-04T10:27:45.999Z</time></trkpt><trkpt lat="45.00347530851105" lon="7.765760924956391"><ele>294.0</ele><time>2026-04-04T10:27:46.999Z</time></trkpt><trkpt lat="45.00339640202827" lon="7.765844848769444"><ele>294.0</ele><time>2026-04-04T10:27:47.999Z</time></trkpt><trkpt lat="45.003317007375074" lon="7.765926816429251"><ele>294.0</ele><time>2026-04-04T10:27:48.999Z</time></trkpt><trkpt lat="45.003238799179975" lon="7.76601298433497"><ele>294.0</ele><time>2026-04-04T10:27:49.999Z</time></trkpt><trkpt lat="45.00315948074304" lon="7.76609038828279"><ele>294.0</ele><time>2026-04-04T10:27:50.999Z</time></trkpt><trkpt lat="45.00307695825178" lon="7.766175748263345"><ele>294.0</ele><time>2026-04-04T10:27:51.999Z</time></trkpt><trkpt lat="45.002996083286575" lon="7.766262969976213"><ele>294.0</ele><time>2026-04-04T10:27:52.999Z</time></trkpt><trkpt lat="45.002906487334904" lon="7.766343786323035"><ele>294.0</ele><time>2026-04-04T10:27:53.999Z</time></trkpt><trkpt lat="45.00282312931" lon="7.766427803125151"><ele>294.0</ele><time>2026-04-04T10:27:54.999Z</time></trkpt><trkpt lat="45.00273791052659" lon="7.766511358476642"><ele>294.0</ele><time>2026-04-04T10:27:55.999Z</time></trkpt><trkpt lat="45.002653117013736" lon="7.7665969844358305"><ele>294.0</ele><time>2026-04-04T10:27:56.999Z</time></trkpt><trkpt lat="45.00257059976347" lon="7.766685264513182"><ele>293.59999999999997</ele><time>2026-04-04T10:27:57.999Z</time></trkpt><trkpt lat="45.00249062303222" lon="7.76679086127123"><ele>293.2</ele><time>2026-04-04T10:27:58.998Z</time></trkpt><trkpt lat="45.002408516911245" lon="7.766883250084036"><ele>292.79999999999995</ele><time>2026-04-04T10:27:59.998Z</time></trkpt><trkpt lat="45.00232389894046" lon="7.766972368336906"><ele>292.4</ele><time>2026-04-04T10:28:00.998Z</time></trkpt><trkpt lat="45.00224238731113" lon="7.76706235013759"><ele>292.0</ele><time>2026-04-04T10:28:01.998Z</time></trkpt><trkpt lat="45.00215517105706" lon="7.767145888193018"><ele>291.0</ele><time>2026-04-04T10:28:02.998Z</time></trkpt><trkpt lat="45.0020712076841" lon="7.767237167126594"><ele>290.0</ele><time>2026-04-04T10:28:03.998Z</time></trkpt><trkpt lat="45.00198857623625" lon="7.767329722622042"><ele>289.0</ele><time>2026-04-04T10:28:04.998Z</time></trkpt><trkpt lat="45.001910378912186" lon="7.7674197115137575"><ele>288.0</ele><time>2026-04-04T10:28:05.998Z</time></trkpt><trkpt lat="45.001822411330124" lon="7.7675090037061265"><ele>287.0</ele><time>2026-04-04T10:28:06.998Z</time></trkpt><trkpt lat="45.00174447539976" lon="7.767597587509714"><ele>286.8</ele><time>2026-04-04T10:28:07.998Z</time></trkpt><trkpt lat="45.00165816423188" lon="7.767678427799354"><ele>286.6</ele><time>2026-04-04T10:28:08.998Z</time></trkpt><trkpt lat="45.00157785305165" lon="7.767762558237443"><ele>286.40000000000003</ele><time>2026-04-04T10:28:09.998Z</time></trkpt><trkpt lat="45.00150056318039" lon="7.76785214371678"><ele>286.2</ele><time>2026-04-04T10:28:10.998Z</time></trkpt><trkpt lat="45.00141909563755" lon="7.767936831317342"><ele>286.0</ele><time>2026-04-04T10:28:11.998Z</time></trkpt><trkpt lat="45.0013361890219" lon="7.768023872577988"><ele>286.0</ele><time>2026-04-04T10:28:13Z</time></trkpt><trkpt lat="45.001247577511116" lon="7.768096554995891"><ele>286.0</ele><time>2026-04-04T10:28:14Z</time></trkpt><trkpt lat="45.001150157894784" lon="7.768158840834557"><ele>286.0</ele><time>2026-04-04T10:28:15Z</time></trkpt><trkpt lat="45.00104737216155" lon="7.768178685558397"><ele>286.0</ele><time>2026-04-04T10:28:16Z</time></trkpt><trkpt lat="45.000943383356514" lon="7.76823203127459"><ele>286.0</ele><time>2026-04-04T10:28:17Z</time></trkpt><trkpt lat="45.00083749782725" lon="7.768254742738692"><ele>285.2</ele><time>2026-04-04T10:28:18Z</time></trkpt><trkpt lat="45.000730107210494" lon="7.7682955856945854"><ele>284.40000000000003</ele><time>2026-04-04T10:28:19Z</time></trkpt><trkpt lat="45.000635323322875" lon="7.76835009428492"><ele>283.6</ele><time>2026-04-04T10:28:20Z</time></trkpt><trkpt lat="45.000552898064896" lon="7.768441161642944"><ele>282.8</ele><time>2026-04-04T10:28:21Z</time></trkpt><trkpt lat="45.00046838552079" lon="7.768547144240364"><ele>282.0</ele><time>2026-04-04T10:28:22Z</time></trkpt><trkpt lat="45.00037856927297" lon="7.768632369314481"><ele>281.75</ele><time>2026-04-04T10:28:23Z</time></trkpt><trkpt lat="45.00027011169086" lon="7.76872219645897"><ele>281.5</ele><time>2026-04-04T10:28:24Z</time></trkpt><trkpt lat="45.00017729708631" lon="7.768836381977611"><ele>281.25</ele><time>2026-04-04T10:28:25Z</time></trkpt><trkpt lat="45.000085382539346" lon="7.768942489328078"><ele>281.0</ele><time>2026-04-04T10:28:26Z</time></trkpt><trkpt lat="44.99999416646231" lon="7.769041884130861"><ele>281.0</ele><time>2026-04-04T10:28:27Z</time></trkpt><trkpt lat="44.99990173873725" lon="7.76914491597954"><ele>281.0</ele><time>2026-04-04T10:28:28Z</time></trkpt><trkpt lat="44.99981000073594" lon="7.769242014771306"><ele>281.0</ele><time>2026-04-04T10:28:29Z</time></trkpt><trkpt lat="44.99971807943801" lon="7.769341024820517"><ele>281.0</ele><time>2026-04-04T10:28:30Z</time></trkpt><trkpt lat="44.99962602668312" lon="7.769441800824599"><ele>282.25</ele><time>2026-04-04T10:28:31Z</time></trkpt><trkpt lat="44.99953520642717" lon="7.769541357938935"><ele>283.5</ele><time>2026-04-04T10:28:32Z</time></trkpt><trkpt lat="44.99944675572574" lon="7.769637614407104"><ele>284.75</ele><time>2026-04-04T10:28:33Z</time></trkpt><trkpt lat="44.999356125968156" lon="7.769734309670224"><ele>286.0</ele><time>2026-04-04T10:28:34Z</time></trkpt><trkpt lat="44.99926484395982" lon="7.769828440006354"><ele>286.0</ele><time>2026-04-04T10:28:35Z</time></trkpt><trkpt lat="44.999174603370186" lon="7.769922077264609"><ele>286.0</ele><time>2026-04-04T10:28:36Z</time></trkpt><trkpt lat="44.99908512020925" lon="7.770017836102775"><ele>286.0</ele><time>2026-04-04T10:28:37Z</time></trkpt><trkpt lat="44.998997216835384" lon="7.770115458709408"><ele>286.0</ele><time>2026-04-04T10:28:38Z</time></trkpt><trkpt lat="44.99890586279482" lon="7.77020708384374"><ele>286.0</ele><time>2026-04-04T10:28:39Z</time></trkpt><trkpt lat="44.998816733128415" lon="7.770298099751907"><ele>285.40000000000003</ele><time>2026-04-04T10:28:40Z</time></trkpt><trkpt lat="44.99873192065841" lon="7.77039316044764"><ele>284.8</ele><time>2026-04-04T10:28:41Z</time></trkpt><trkpt lat="44.99863789885166" lon="7.770482023107764"><ele>284.20000000000005</ele><time>2026-04-04T10:28:42Z</time></trkpt><trkpt lat="44.99855226598328" lon="7.770582109986779"><ele>283.6</ele><time>2026-04-04T10:28:43Z</time></trkpt><trkpt lat="44.998464697960145" lon="7.7706609148235"><ele>283.0</ele><time>2026-04-04T10:28:44Z</time></trkpt><trkpt lat="44.998391333576954" lon="7.770739795469741"><ele>282.8</ele><time>2026-04-04T10:28:45Z</time></trkpt><trkpt lat="44.99831324565411" lon="7.770823754042862"><ele>282.6</ele><time>2026-04-04T10:28:46Z</time></trkpt><trkpt lat="44.9982296337762" lon="7.770913652236353"><ele>282.4</ele><time>2026-04-04T10:28:47Z</time></trkpt><trkpt lat="44.998150625094404" lon="7.77099763880269"><ele>282.2</ele><time>2026-04-04T10:28:48Z</time></trkpt><trkpt lat="44.998076915906395" lon="7.771075399886331"><ele>282.0</ele><time>2026-04-04T10:28:49Z</time></trkpt><trkpt lat="44.997960758492" lon="7.771197942991295"><ele>282.0</ele><time>2026-04-04T10:28:50Z</time></trkpt><trkpt lat="44.997870484662165" lon="7.771292115634858"><ele>282.0</ele><time>2026-04-04T10:28:51Z</time></trkpt><trkpt lat="44.99777617421387" lon="7.771389134310141"><ele>282.0</ele><time>2026-04-04T10:28:52Z</time></trkpt><trkpt lat="44.997686690918705" lon="7.771481187464004"><ele>282.0</ele><time>2026-04-04T10:28:52.999Z</time></trkpt><trkpt lat="44.9976002109537" lon="7.771588306803797"><ele>282.0</ele><time>2026-04-04T10:28:53.999Z</time></trkpt><trkpt lat="44.99751119790516" lon="7.771675554904716"><ele>282.0</ele><time>2026-04-04T10:28:54.999Z</time></trkpt><trkpt lat="44.99742014026483" lon="7.7717645240628475"><ele>282.0</ele><time>2026-04-04T10:28:55.999Z</time></trkpt><trkpt lat="44.9973294713738" lon="7.771860315149134"><ele>282.0</ele><time>2026-04-04T10:28:56.999Z</time></trkpt><trkpt lat="44.99723999607208" lon="7.771953953164786"><ele>282.0</ele><time>2026-04-04T10:28:57.999Z</time></trkpt><trkpt lat="44.99715131030497" lon="7.772042548917772"><ele>281.0</ele><time>2026-04-04T10:28:58.999Z</time></trkpt><trkpt lat="44.997047182497845" lon="7.772116556062101"><ele>280.0</ele><time>2026-04-04T10:28:59.999Z</time></trkpt><trkpt lat="44.99695015214492" lon="7.772197196370302"><ele>279.0</ele><time>2026-04-04T10:29:00.999Z</time></trkpt><trkpt lat="44.99685097438682" lon="7.772265626366889"><ele>278.0</ele><time>2026-04-04T10:29:01.999Z</time></trkpt><trkpt lat="44.99670738841887" lon="7.772353399810656"><ele>277.0</ele><time>2026-04-04T10:29:02.999Z</time></trkpt><trkpt lat="44.99662314658568" lon="7.772400776812878"><ele>276.0</ele><time>2026-04-04T10:29:03.999Z</time></trkpt><trkpt lat="44.99652622814766" lon="7.772455283005781"><ele>275.0</ele><time>2026-04-04T10:29:04.999Z</time></trkpt><trkpt lat="44.996428006388676" lon="7.77253514440882"><ele>274.0</ele><time>2026-04-04T10:29:05.999Z</time></trkpt><trkpt lat="44.99632308025599" lon="7.772589635222171"><ele>273.0</ele><time>2026-04-04T10:29:06.999Z</time></trkpt><trkpt lat="44.99621908934348" lon="7.7726506533722"><ele>273.0</ele><time>2026-04-04T10:29:07.999Z</time></trkpt><trkpt lat="44.99611139367756" lon="7.772710494493452"><ele>273.0</ele><time>2026-04-04T10:29:08.999Z</time></trkpt><trkpt lat="44.99600576579172" lon="7.77277264240016"><ele>273.0</ele><time>2026-04-04T10:29:09.999Z</time></trkpt><trkpt lat="44.99589420858239" lon="7.7728289923017835"><ele>273.0</ele><time>2026-04-04T10:29:10.999Z</time></trkpt><trkpt lat="44.99578921894144" lon="7.772900444014033"><ele>273.0</ele><time>2026-04-04T10:29:11.999Z</time></trkpt><trkpt lat="44.9956818959671" lon="7.7729580136228416"><ele>273.0</ele><time>2026-04-04T10:29:12.999Z</time></trkpt><trkpt lat="44.99557440469307" lon="7.773020847013953"><ele>273.0</ele><time>2026-04-04T10:29:13.999Z</time></trkpt><trkpt lat="44.99546884062459" lon="7.773079755812138"><ele>273.0</ele><time>2026-04-04T10:29:14.999Z</time></trkpt><trkpt lat="44.99536397126611" lon="7.773141035463138"><ele>273.0</ele><time>2026-04-04T10:29:15.999Z</time></trkpt><trkpt lat="44.99525791145671" lon="7.773203622527361"><ele>273.0</ele><time>2026-04-04T10:29:16.999Z</time></trkpt><trkpt lat="44.99514776428323" lon="7.773260713753618"><ele>273.0</ele><time>2026-04-04T10:29:17.999Z</time></trkpt><trkpt lat="44.99504344262225" lon="7.773322509504276"><ele>273.0</ele><time>2026-04-04T10:29:18.999Z</time></trkpt><trkpt lat="44.994935104093486" lon="7.7733744815694195"><ele>273.25</ele><time>2026-04-04T10:29:19.999Z</time></trkpt><trkpt lat="44.99483033891467" lon="7.773441734446013"><ele>273.5</ele><time>2026-04-04T10:29:20.999Z</time></trkpt><trkpt lat="44.994723762549675" lon="7.773506263244997"><ele>273.75</ele><time>2026-04-04T10:29:21.999Z</time></trkpt><trkpt lat="44.99461718420718" lon="7.773569231710032"><ele>274.0</ele><time>2026-04-04T10:29:22.999Z</time></trkpt><trkpt lat="44.99451114035059" lon="7.773633719279423"><ele>274.0</ele><time>2026-04-04T10:29:23.999Z</time></trkpt><trkpt lat="44.994403110695806" lon="7.7736896143781316"><ele>274.0</ele><time>2026-04-04T10:29:24.999Z</time></trkpt><trkpt lat="44.99429907660675" lon="7.773753335416384"><ele>274.0</ele><time>2026-04-04T10:29:25.999Z</time></trkpt><trkpt lat="44.99419082055722" lon="7.773812241508648"><ele>274.0</ele><time>2026-04-04T10:29:26.999Z</time></trkpt><trkpt lat="44.99408774205847" lon="7.77387311767641"><ele>272.75</ele><time>2026-04-04T10:29:27.999Z</time></trkpt><trkpt lat="44.993981517457826" lon="7.773930164323972"><ele>271.5</ele><time>2026-04-04T10:29:28.999Z</time></trkpt><trkpt lat="44.99387708271695" lon="7.773991700103465"><ele>270.25</ele><time>2026-04-04T10:29:29.999Z</time></trkpt><trkpt lat="44.99377275299062" lon="7.774047791818092"><ele>269.0</ele><time>2026-04-04T10:29:30.999Z</time></trkpt><trkpt lat="44.99366889709183" lon="7.77411256335834"><ele>269.0</ele><time>2026-04-04T10:29:31.999Z</time></trkpt><trkpt lat="44.99356269412043" lon="7.7741712075221265"><ele>269.0</ele><time>2026-04-04T10:29:32.999Z</time></trkpt><trkpt lat="44.993449827351505" lon="7.774205918474472"><ele>269.0</ele><time>2026-04-04T10:29:33.999Z</time></trkpt><trkpt lat="44.993340917899" lon="7.774259729648322"><ele>269.0</ele><time>2026-04-04T10:29:34.999Z</time></trkpt><trkpt lat="44.99323241413733" lon="7.774312461277614"><ele>270.25</ele><time>2026-04-04T10:29:35.999Z</time></trkpt><trkpt lat="44.99312703289979" lon="7.774361919712619"><ele>271.5</ele><time>2026-04-04T10:29:36.999Z</time></trkpt><trkpt lat="44.9930162715066" lon="7.774413697874265"><ele>272.75</ele><time>2026-04-04T10:29:37.999Z</time></trkpt><trkpt lat="44.99290552456974" lon="7.77446314317174"><ele>274.0</ele><time>2026-04-04T10:29:38.999Z</time></trkpt><trkpt lat="44.9927941093689" lon="7.774509622894514"><ele>274.0</ele><time>2026-04-04T10:29:39.999Z</time></trkpt><trkpt lat="44.99268602114555" lon="7.77455453151199"><ele>274.0</ele><time>2026-04-04T10:29:40.999Z</time></trkpt><trkpt lat="44.99257460146743" lon="7.774599191085004"><ele>274.0</ele><time>2026-04-04T10:29:41.999Z</time></trkpt><trkpt lat="44.992468572165315" lon="7.774640189431295"><ele>274.0</ele><time>2026-04-04T10:29:42.999Z</time></trkpt><trkpt lat="44.99235661349362" lon="7.774682034932148"><ele>273.5</ele><time>2026-04-04T10:29:43.999Z</time></trkpt><trkpt lat="44.99224292372964" lon="7.774724754579554"><ele>273.0</ele><time>2026-04-04T10:29:44.999Z</time></trkpt><trkpt lat="44.99213506456237" lon="7.7747813945412645"><ele>272.5</ele><time>2026-04-04T10:29:45.999Z</time></trkpt><trkpt lat="44.99203048425602" lon="7.774828624781714"><ele>272.0</ele><time>2026-04-04T10:29:46.999Z</time></trkpt><trkpt lat="44.99193128089147" lon="7.774901557016908"><ele>272.0</ele><time>2026-04-04T10:29:47.999Z</time></trkpt><trkpt lat="44.99183998896934" lon="7.775003956946138"><ele>272.0</ele><time>2026-04-04T10:29:48.999Z</time></trkpt><trkpt lat="44.99176840385696" lon="7.775121697952426"><ele>272.0</ele><time>2026-04-04T10:29:49.999Z</time></trkpt><trkpt lat="44.991701387627565" lon="7.775245216405539"><ele>272.0</ele><time>2026-04-04T10:29:50.999Z</time></trkpt><trkpt lat="44.99164263883378" lon="7.775376322479042"><ele>272.0</ele><time>2026-04-04T10:29:51.999Z</time></trkpt><trkpt lat="44.99158844880708" lon="7.7755156159907814"><ele>272.5</ele><time>2026-04-04T10:29:52.999Z</time></trkpt><trkpt lat="44.991531623308504" lon="7.775659241515074"><ele>273.0</ele><time>2026-04-04T10:29:53.999Z</time></trkpt><trkpt lat="44.99147181593661" lon="7.775791951750529"><ele>273.5</ele><time>2026-04-04T10:29:54.999Z</time></trkpt><trkpt lat="44.99140527690652" lon="7.775941178144561"><ele>274.0</ele><time>2026-04-04T10:29:55.999Z</time></trkpt><trkpt lat="44.99133784851946" lon="7.776064060700095"><ele>274.0</ele><time>2026-04-04T10:29:56.999Z</time></trkpt><trkpt lat="44.99126823190944" lon="7.776194881148166"><ele>274.0</ele><time>2026-04-04T10:29:57.999Z</time></trkpt><trkpt lat="44.99119610261536" lon="7.7763280876915735"><ele>274.0</ele><time>2026-04-04T10:29:58.999Z</time></trkpt><trkpt lat="44.991123835003236" lon="7.776458489052711"><ele>274.0</ele><time>2026-04-04T10:29:59.999Z</time></trkpt><trkpt lat="44.99104505087457" lon="7.776586042275558"><ele>274.0</ele><time>2026-04-04T10:30:00.999Z</time></trkpt><trkpt lat="44.99096784726004" lon="7.776714988076091"><ele>274.0</ele><time>2026-04-04T10:30:01.999Z</time></trkpt><trkpt lat="44.99088943835443" lon="7.7768432341678615"><ele>274.0</ele><time>2026-04-04T10:30:02.999Z</time></trkpt><trkpt lat="44.99081235920129" lon="7.776976046940402"><ele>274.0</ele><time>2026-04-04T10:30:03.999Z</time></trkpt><trkpt lat="44.9907301105504" lon="7.777108369379579"><ele>272.75</ele><time>2026-04-04T10:30:04.999Z</time></trkpt><trkpt lat="44.99064284330028" lon="7.777234479096868"><ele>271.5</ele><time>2026-04-04T10:30:05.998Z</time></trkpt><trkpt lat="44.99055041111382" lon="7.777355191935487"><ele>270.25</ele><time>2026-04-04T10:30:06.998Z</time></trkpt><trkpt lat="44.99045656872834" lon="7.777475980767193"><ele>269.0</ele><time>2026-04-04T10:30:07.998Z</time></trkpt><trkpt lat="44.990353425954076" lon="7.777590311205497"><ele>268.75</ele><time>2026-04-04T10:30:08.998Z</time></trkpt><trkpt lat="44.99025468590229" lon="7.777693851433109"><ele>268.5</ele><time>2026-04-04T10:30:09.998Z</time></trkpt><trkpt lat="44.99014885800328" lon="7.7778090037244105"><ele>268.25</ele><time>2026-04-04T10:30:10.998Z</time></trkpt><trkpt lat="44.99004121187448" lon="7.777916570442343"><ele>268.0</ele><time>2026-04-04T10:30:11.998Z</time></trkpt><trkpt lat="44.98993029822012" lon="7.778017026446731"><ele>267.75</ele><time>2026-04-04T10:30:12.998Z</time></trkpt><trkpt lat="44.989815315420806" lon="7.778114820482978"><ele>267.5</ele><time>2026-04-04T10:30:13.998Z</time></trkpt><trkpt lat="44.989697314019246" lon="7.778206615314667"><ele>267.25</ele><time>2026-04-04T10:30:14.998Z</time></trkpt><trkpt lat="44.989581142998944" lon="7.7782978384721195"><ele>267.0</ele><time>2026-04-04T10:30:15.998Z</time></trkpt><trkpt lat="44.98946019597876" lon="7.778399300257245"><ele>267.0</ele><time>2026-04-04T10:30:16.998Z</time></trkpt><trkpt lat="44.98933917513441" lon="7.778503248414297"><ele>267.0</ele><time>2026-04-04T10:30:17.998Z</time></trkpt><trkpt lat="44.98921697179773" lon="7.7786043915601875"><ele>267.0</ele><time>2026-04-04T10:30:19Z</time></trkpt><trkpt lat="44.98909702186805" lon="7.778711239080732"><ele>267.0</ele><time>2026-04-04T10:30:20Z</time></trkpt><trkpt lat="44.9889713584417" lon="7.778810962479391"><ele>266.6666666666667</ele><time>2026-04-04T10:30:21Z</time></trkpt><trkpt lat="44.988839886911386" lon="7.778917895994818"><ele>266.33333333333337</ele><time>2026-04-04T10:30:22Z</time></trkpt><trkpt lat="44.98871788651239" lon="7.779034007906182"><ele>266.0</ele><time>2026-04-04T10:30:23Z</time></trkpt><trkpt lat="44.98858415314949" lon="7.779133250507422"><ele>266.0</ele><time>2026-04-04T10:30:24Z</time></trkpt><trkpt lat="44.988447185704736" lon="7.779223751941976"><ele>266.0</ele><time>2026-04-04T10:30:25Z</time></trkpt><trkpt lat="44.98830616626153" lon="7.7793036928661765"><ele>266.0</ele><time>2026-04-04T10:30:26Z</time></trkpt><trkpt lat="44.98816277948647" lon="7.779378423448243"><ele>265.0</ele><time>2026-04-04T10:30:27Z</time></trkpt><trkpt lat="44.988015732014695" lon="7.779429347504042"><ele>264.0</ele><time>2026-04-04T10:30:28Z</time></trkpt><trkpt lat="44.98787664772404" lon="7.7795192775762745"><ele>263.0</ele><time>2026-04-04T10:30:29Z</time></trkpt><trkpt lat="44.98773205178558" lon="7.779588291952"><ele>263.0</ele><time>2026-04-04T10:30:30Z</time></trkpt><trkpt lat="44.987591063706034" lon="7.779657046144208"><ele>263.0</ele><time>2026-04-04T10:30:31Z</time></trkpt><trkpt lat="44.98745386381261" lon="7.779723946265485"><ele>263.0</ele><time>2026-04-04T10:30:32Z</time></trkpt><trkpt lat="44.987326843818984" lon="7.779783725294377"><ele>263.0</ele><time>2026-04-04T10:30:33Z</time></trkpt><trkpt lat="44.987205321627485" lon="7.779839555614746"><ele>262.75</ele><time>2026-04-04T10:30:34Z</time></trkpt><trkpt lat="44.98708914153306" lon="7.779891272500877"><ele>262.5</ele><time>2026-04-04T10:30:35Z</time></trkpt><trkpt lat="44.986951769599344" lon="7.779932607793457"><ele>262.25</ele><time>2026-04-04T10:30:36Z</time></trkpt><trkpt lat="44.98682982900626" lon="7.779986000889611"><ele>262.0</ele><time>2026-04-04T10:30:37Z</time></trkpt><trkpt lat="44.986696225310965" lon="7.780047060022613"><ele>261.75</ele><time>2026-04-04T10:30:38Z</time></trkpt><trkpt lat="44.98655791704921" lon="7.780101716296805"><ele>261.5</ele><time>2026-04-04T10:30:39Z</time></trkpt><trkpt lat="44.986409868694324" lon="7.780117638143816"><ele>261.25</ele><time>2026-04-04T10:30:40Z</time></trkpt><trkpt lat="44.98626192332532" lon="7.78017705028022"><ele>261.0</ele><time>2026-04-04T10:30:41Z</time></trkpt><trkpt lat="44.98611211957317" lon="7.780208389277536"><ele>260.6666666666667</ele><time>2026-04-04T10:30:42Z</time></trkpt><trkpt lat="44.98595516659914" lon="7.780242074443436"><ele>260.33333333333337</ele><time>2026-04-04T10:30:43Z</time></trkpt><trkpt lat="44.98580158067838" lon="7.780279036977268"><ele>260.0</ele><time>2026-04-04T10:30:44Z</time></trkpt><trkpt lat="44.985643039112105" lon="7.7803267478134845"><ele>260.0</ele><time>2026-04-04T10:30:45Z</time></trkpt><trkpt lat="44.98548591538853" lon="7.780392073355628"><ele>260.0</ele><time>2026-04-04T10:30:46Z</time></trkpt><trkpt lat="44.98533733599519" lon="7.780460167240062"><ele>260.0</ele><time>2026-04-04T10:30:47Z</time></trkpt><trkpt lat="44.98518535298538" lon="7.780536326971047"><ele>260.0</ele><time>2026-04-04T10:30:48Z</time></trkpt><trkpt lat="44.985032824345005" lon="7.780608992585289"><ele>260.0</ele><time>2026-04-04T10:30:49Z</time></trkpt><trkpt lat="44.98487360801578" lon="7.780683515728528"><ele>260.0</ele><time>2026-04-04T10:30:50Z</time></trkpt><trkpt lat="44.98472031304287" lon="7.780753057757807"><ele>260.0</ele><time>2026-04-04T10:30:51Z</time></trkpt><trkpt lat="44.98457339213419" lon="7.780822197273723"><ele>260.0</ele><time>2026-04-04T10:30:52Z</time></trkpt><trkpt lat="44.984430996570616" lon="7.780891312463161"><ele>260.0</ele><time>2026-04-04T10:30:53Z</time></trkpt><trkpt lat="44.98429006729547" lon="7.780957254097836"><ele>259.6666666666667</ele><time>2026-04-04T10:30:54Z</time></trkpt><trkpt lat="44.98414524152371" lon="7.78102082384942"><ele>259.3333333333333</ele><time>2026-04-04T10:30:55Z</time></trkpt><trkpt lat="44.984001442954586" lon="7.781085838573013"><ele>259.0</ele><time>2026-04-04T10:30:56Z</time></trkpt><trkpt lat="44.98385837564088" lon="7.781148053432816"><ele>259.0</ele><time>2026-04-04T10:30:57Z</time></trkpt><trkpt lat="44.98371127723959" lon="7.781218928858408"><ele>259.0</ele><time>2026-04-04T10:30:58Z</time></trkpt><trkpt lat="44.98356759288604" lon="7.781287073324421"><ele>259.0</ele><time>2026-04-04T10:30:59Z</time></trkpt><trkpt lat="44.98342360818062" lon="7.781355804438168"><ele>259.25</ele><time>2026-04-04T10:31:00Z</time></trkpt><trkpt lat="44.98328387878638" lon="7.781417612704541"><ele>259.5</ele><time>2026-04-04T10:31:01Z</time></trkpt><trkpt lat="44.98314460073101" lon="7.781484273944247"><ele>259.75</ele><time>2026-04-04T10:31:02Z</time></trkpt><trkpt lat="44.98300232012135" lon="7.781550161058901"><ele>260.0</ele><time>2026-04-04T10:31:03Z</time></trkpt><trkpt lat="44.98286180583181" lon="7.781618285810974"><ele>260.0</ele><time>2026-04-04T10:31:04Z</time></trkpt><trkpt lat="44.982720192685186" lon="7.7816819439628295"><ele>260.0</ele><time>2026-04-04T10:31:05Z</time></trkpt><trkpt lat="44.982578645771014" lon="7.781710297468492"><ele>260.0</ele><time>2026-04-04T10:31:06Z</time></trkpt><trkpt lat="44.9824541087772" lon="7.781774640165076"><ele>260.0</ele><time>2026-04-04T10:31:07Z</time></trkpt><trkpt lat="44.982327276025146" lon="7.781810126307053"><ele>259.75</ele><time>2026-04-04T10:31:08Z</time></trkpt><trkpt lat="44.98220763207052" lon="7.781815195191862"><ele>259.5</ele><time>2026-04-04T10:31:09Z</time></trkpt><trkpt lat="44.98208162839793" lon="7.781840170176623"><ele>259.25</ele><time>2026-04-04T10:31:10Z</time></trkpt><trkpt lat="44.98196966286426" lon="7.781882542323941"><ele>259.0</ele><time>2026-04-04T10:31:10.999Z</time></trkpt><trkpt lat="44.98184658396517" lon="7.781888774073077"><ele>258.2</ele><time>2026-04-04T10:31:11.999Z</time></trkpt><trkpt lat="44.98173559802046" lon="7.781902083780694"><ele>257.4</ele><time>2026-04-04T10:31:12.999Z</time></trkpt><trkpt lat="44.98163670478469" lon="7.781901158540744"><ele>256.6</ele><time>2026-04-04T10:31:13.999Z</time></trkpt><trkpt lat="44.981537137432255" lon="7.781914649347623"><ele>255.8</ele><time>2026-04-04T10:31:14.999Z</time></trkpt><trkpt lat="44.98146225651857" lon="7.7819185794567325"><ele>255.0</ele><time>2026-04-04T10:31:15.999Z</time></trkpt><trkpt lat="44.98136203763605" lon="7.781922448168267"><ele>255.0</ele><time>2026-04-04T10:31:17.999Z</time></trkpt><trkpt lat="44.981298385729794" lon="7.781926484631957"><ele>255.0</ele><time>2026-04-04T10:31:19.999Z</time></trkpt><trkpt lat="44.98123373951336" lon="7.781933835270839"><ele>255.0</ele><time>2026-04-04T10:31:22.999Z</time></trkpt><trkpt lat="44.981252535395" lon="7.782141347371293"><ele>255.0</ele><time>2026-04-04T10:31:23.999Z</time></trkpt><trkpt lat="44.98126281910873" lon="7.782235623258628"><ele>255.0</ele><time>2026-04-04T10:31:24.999Z</time></trkpt><trkpt lat="44.981258852894456" lon="7.782346933374515"><ele>255.0</ele><time>2026-04-04T10:31:25.999Z</time></trkpt><trkpt lat="44.98125228723289" lon="7.782449352273387"><ele>255.0</ele><time>2026-04-04T10:31:26.999Z</time></trkpt><trkpt lat="44.98124130448602" lon="7.782568042689096"><ele>255.0</ele><time>2026-04-04T10:31:27.999Z</time></trkpt><trkpt lat="44.98123462039374" lon="7.7826999953632825"><ele>255.0</ele><time>2026-04-04T10:31:28.999Z</time></trkpt><trkpt lat="44.98122253165983" lon="7.7828335833086975"><ele>255.0</ele><time>2026-04-04T10:31:29.999Z</time></trkpt><trkpt lat="44.98121309380341" lon="7.782967094897556"><ele>255.0</ele><time>2026-04-04T10:31:30.999Z</time></trkpt><trkpt lat="44.981204199165965" lon="7.783107581543001"><ele>255.16666666666666</ele><time>2026-04-04T10:31:31.999Z</time></trkpt><trkpt lat="44.981197804944" lon="7.7832422212560175"><ele>255.33333333333331</ele><time>2026-04-04T10:31:32.999Z</time></trkpt><trkpt lat="44.9811926058639" lon="7.783362961135758"><ele>255.5</ele><time>2026-04-04T10:31:33.999Z</time></trkpt><trkpt lat="44.98118650025767" lon="7.7834682279513006"><ele>255.66666666666666</ele><time>2026-04-04T10:31:34.999Z</time></trkpt><trkpt lat="44.98117623968049" lon="7.783558316227484"><ele>255.83333333333331</ele><time>2026-04-04T10:31:35.999Z</time></trkpt><trkpt lat="44.981164014383936" lon="7.783662303495089"><ele>256.0</ele><time>2026-04-04T10:31:37.999Z</time></trkpt><trkpt lat="44.98114675834046" lon="7.783772337833735"><ele>256.3333333333333</ele><time>2026-04-04T10:31:40.999Z</time></trkpt><trkpt lat="44.98122571381759" lon="7.783847977595723"><ele>256.66666666666663</ele><time>2026-04-04T10:31:41.999Z</time></trkpt><trkpt lat="44.98128754704751" lon="7.783911528870815"><ele>257.0</ele><time>2026-04-04T10:31:42.999Z</time></trkpt><trkpt lat="44.98134523491148" lon="7.783974212592534"><ele>257.3333333333333</ele><time>2026-04-04T10:31:43.999Z</time></trkpt><trkpt lat="44.98141250173313" lon="7.78412785174592"><ele>257.6666666666667</ele><time>2026-04-04T10:31:45.999Z</time></trkpt><trkpt lat="44.981414200102996" lon="7.784232485492404"><ele>258.0</ele><time>2026-04-04T10:31:46.999Z</time></trkpt><trkpt lat="44.98139788843512" lon="7.784328347907836"><ele>257.6</ele><time>2026-04-04T10:31:47.999Z</time></trkpt><trkpt lat="44.981363662644064" lon="7.78441457226429"><ele>257.20000000000005</ele><time>2026-04-04T10:31:48.999Z</time></trkpt><trkpt lat="44.981284026482186" lon="7.784532782022139"><ele>256.8</ele><time>2026-04-04T10:31:50.999Z</time></trkpt><trkpt lat="44.981144463429416" lon="7.784575285199206"><ele>256.40000000000003</ele><time>2026-04-04T10:31:52.999Z</time></trkpt><trkpt lat="44.981057289239494" lon="7.784568339692663"><ele>256.0</ele><time>2026-04-04T10:31:53.999Z</time></trkpt><trkpt lat="44.98094758734417" lon="7.784551637111264"><ele>255.8</ele><time>2026-04-04T10:31:54.999Z</time></trkpt><trkpt lat="44.98084125802868" lon="7.784553434156137"><ele>255.60000000000002</ele><time>2026-04-04T10:31:55.999Z</time></trkpt><trkpt lat="44.980723928672546" lon="7.784552793417433"><ele>255.4</ele><time>2026-04-04T10:31:56.999Z</time></trkpt><trkpt lat="44.98062364741053" lon="7.784565979494486"><ele>255.2</ele><time>2026-04-04T10:31:57.999Z</time></trkpt><trkpt lat="44.980503855977425" lon="7.784566623534514"><ele>255.0</ele><time>2026-04-04T10:31:58.999Z</time></trkpt><trkpt lat="44.980393083681285" lon="7.784562414983587"><ele>255.0</ele><time>2026-04-04T10:31:59.999Z</time></trkpt><trkpt lat="44.98025508987241" lon="7.784568353826082"><ele>255.0</ele><time>2026-04-04T10:32:00.999Z</time></trkpt><trkpt lat="44.98011873108402" lon="7.784567339782914"><ele>255.0</ele><time>2026-04-04T10:32:01.999Z</time></trkpt><trkpt lat="44.97997210385203" lon="7.784575027828293"><ele>255.0</ele><time>2026-04-04T10:32:02.999Z</time></trkpt><trkpt lat="44.97982221276171" lon="7.784584695635839"><ele>255.66666666666669</ele><time>2026-04-04T10:32:03.999Z</time></trkpt><trkpt lat="44.97967439111454" lon="7.784590779944498"><ele>256.33333333333337</ele><time>2026-04-04T10:32:04.999Z</time></trkpt><trkpt lat="44.97951678361333" lon="7.784590776564157"><ele>257.0</ele><time>2026-04-04T10:32:05.999Z</time></trkpt><trkpt lat="44.979352159767075" lon="7.784598375827976"><ele>257.0</ele><time>2026-04-04T10:32:06.999Z</time></trkpt><trkpt lat="44.97918424087684" lon="7.784602363921681"><ele>257.0</ele><time>2026-04-04T10:32:07.999Z</time></trkpt><trkpt lat="44.97901610009256" lon="7.784600484279334"><ele>257.0</ele><time>2026-04-04T10:32:08.999Z</time></trkpt><trkpt lat="44.97884824480732" lon="7.784604179302947"><ele>256.0</ele><time>2026-04-04T10:32:09.999Z</time></trkpt><trkpt lat="44.97868959129916" lon="7.784611381671446"><ele>255.0</ele><time>2026-04-04T10:32:10.999Z</time></trkpt><trkpt lat="44.97852251203724" lon="7.7846211912477665"><ele>254.0</ele><time>2026-04-04T10:32:11.999Z</time></trkpt><trkpt lat="44.978352485438755" lon="7.784657997118841"><ele>253.66666666666669</ele><time>2026-04-04T10:32:12.999Z</time></trkpt><trkpt lat="44.978184836612435" lon="7.784688209084046"><ele>253.33333333333331</ele><time>2026-04-04T10:32:13.999Z</time></trkpt><trkpt lat="44.97801598470498" lon="7.784722939770324"><ele>253.0</ele><time>2026-04-04T10:32:14.999Z</time></trkpt><trkpt lat="44.977850167858946" lon="7.78476799241222"><ele>253.0</ele><time>2026-04-04T10:32:15.999Z</time></trkpt><trkpt lat="44.97767777057935" lon="7.784814815112434"><ele>253.0</ele><time>2026-04-04T10:32:16.999Z</time></trkpt><trkpt lat="44.977506804557294" lon="7.784865599399635"><ele>253.0</ele><time>2026-04-04T10:32:17.999Z</time></trkpt><trkpt lat="44.97733410200272" lon="7.784931330949787"><ele>252.66666666666666</ele><time>2026-04-04T10:32:18.999Z</time></trkpt><trkpt lat="44.97716674329262" lon="7.78500173189662"><ele>252.33333333333331</ele><time>2026-04-04T10:32:19.998Z</time></trkpt><trkpt lat="44.977004171256" lon="7.7850977663999235"><ele>252.0</ele><time>2026-04-04T10:32:20.998Z</time></trkpt><trkpt lat="44.97683737032854" lon="7.785179236160384"><ele>253.0</ele><time>2026-04-04T10:32:21.998Z</time></trkpt><trkpt lat="44.97667297891333" lon="7.785273267130497"><ele>254.0</ele><time>2026-04-04T10:32:22.998Z</time></trkpt><trkpt lat="44.97651064630808" lon="7.785372117466165"><ele>255.0</ele><time>2026-04-04T10:32:23.998Z</time></trkpt><trkpt lat="44.97634616385597" lon="7.785471117335836"><ele>255.0</ele><time>2026-04-04T10:32:25Z</time></trkpt><trkpt lat="44.97617924292137" lon="7.785573956160477"><ele>255.0</ele><time>2026-04-04T10:32:26Z</time></trkpt><trkpt lat="44.97601607957828" lon="7.7856875816511435"><ele>255.0</ele><time>2026-04-04T10:32:27Z</time></trkpt><trkpt lat="44.97584735853701" lon="7.785787535693576"><ele>254.33333333333331</ele><time>2026-04-04T10:32:28Z</time></trkpt><trkpt lat="44.97568413433495" lon="7.785890867472018"><ele>253.66666666666666</ele><time>2026-04-04T10:32:29Z</time></trkpt><trkpt lat="44.97551809478297" lon="7.785994342541372"><ele>253.0</ele><time>2026-04-04T10:32:30Z</time></trkpt><trkpt lat="44.97535454448882" lon="7.786095609659224"><ele>253.0</ele><time>2026-04-04T10:32:31Z</time></trkpt><trkpt lat="44.97519593861941" lon="7.786207660463377"><ele>253.0</ele><time>2026-04-04T10:32:32Z</time></trkpt><trkpt lat="44.975027787075675" lon="7.78630878125902"><ele>253.0</ele><time>2026-04-04T10:32:33Z</time></trkpt><trkpt lat="44.974874013239614" lon="7.7864193923996625"><ele>252.0</ele><time>2026-04-04T10:32:34Z</time></trkpt><trkpt lat="44.97471487835694" lon="7.786514312527971"><ele>251.0</ele><time>2026-04-04T10:32:35Z</time></trkpt><trkpt lat="44.97455260442876" lon="7.786620467135746"><ele>250.0</ele><time>2026-04-04T10:32:36Z</time></trkpt><trkpt lat="44.97439025649455" lon="7.786728410804255"><ele>250.0</ele><time>2026-04-04T10:32:37Z</time></trkpt><trkpt lat="44.97421924459964" lon="7.78681437690853"><ele>250.0</ele><time>2026-04-04T10:32:38Z</time></trkpt><trkpt lat="44.97406427175013" lon="7.786927474513911"><ele>250.0</ele><time>2026-04-04T10:32:39Z</time></trkpt><trkpt lat="44.973898007410924" lon="7.7870255054328545"><ele>249.33333333333331</ele><time>2026-04-04T10:32:40Z</time></trkpt><trkpt lat="44.973735439124596" lon="7.787107413855164"><ele>248.66666666666669</ele><time>2026-04-04T10:32:41Z</time></trkpt><trkpt lat="44.9735689211426" lon="7.787184720222632"><ele>248.0</ele><time>2026-04-04T10:32:42Z</time></trkpt><trkpt lat="44.973402891484284" lon="7.787246767181979"><ele>249.33333333333334</ele><time>2026-04-04T10:32:43Z</time></trkpt><trkpt lat="44.97323071925934" lon="7.7873008454178825"><ele>250.66666666666669</ele><time>2026-04-04T10:32:44Z</time></trkpt><trkpt lat="44.97305803987439" lon="7.787345208359988"><ele>252.0</ele><time>2026-04-04T10:32:45Z</time></trkpt><trkpt lat="44.97287893011259" lon="7.787384695362391"><ele>252.0</ele><time>2026-04-04T10:32:46Z</time></trkpt><trkpt lat="44.972704510588095" lon="7.787410541026345"><ele>252.0</ele><time>2026-04-04T10:32:47Z</time></trkpt><trkpt lat="44.972526590536226" lon="7.78742778186793"><ele>252.0</ele><time>2026-04-04T10:32:48Z</time></trkpt><trkpt lat="44.9723496765397" lon="7.787434603396047"><ele>250.33333333333331</ele><time>2026-04-04T10:32:49Z</time></trkpt><trkpt lat="44.97216998850743" lon="7.78743748693282"><ele>248.66666666666666</ele><time>2026-04-04T10:32:50Z</time></trkpt><trkpt lat="44.97199333231556" lon="7.787419304369034"><ele>247.0</ele><time>2026-04-04T10:32:51Z</time></trkpt><trkpt lat="44.971805188006975" lon="7.7874057295933"><ele>246.66666666666666</ele><time>2026-04-04T10:32:52Z</time></trkpt><trkpt lat="44.97162382014" lon="7.787363445726767"><ele>246.33333333333331</ele><time>2026-04-04T10:32:53Z</time></trkpt><trkpt lat="44.97143712273104" lon="7.787317517659854"><ele>246.0</ele><time>2026-04-04T10:32:54Z</time></trkpt><trkpt lat="44.97125162139837" lon="7.7872627554625575"><ele>246.0</ele><time>2026-04-04T10:32:55Z</time></trkpt><trkpt lat="44.97106665402526" lon="7.787204834253607"><ele>246.0</ele><time>2026-04-04T10:32:56Z</time></trkpt><trkpt lat="44.970881352018004" lon="7.787146057584663"><ele>246.0</ele><time>2026-04-04T10:32:57Z</time></trkpt><trkpt lat="44.9706949264136" lon="7.787087323378842"><ele>245.33333333333331</ele><time>2026-04-04T10:32:58Z</time></trkpt><trkpt lat="44.97050938780518" lon="7.787030388836457"><ele>244.66666666666666</ele><time>2026-04-04T10:32:59Z</time></trkpt><trkpt lat="44.970330536468985" lon="7.786972427043896"><ele>244.0</ele><time>2026-04-04T10:33:00Z</time></trkpt><trkpt lat="44.97015189583799" lon="7.786922424689103"><ele>243.66666666666666</ele><time>2026-04-04T10:33:01Z</time></trkpt><trkpt lat="44.96997494632197" lon="7.786866769885871"><ele>243.33333333333331</ele><time>2026-04-04T10:33:02Z</time></trkpt><trkpt lat="44.969794007174016" lon="7.786820579378695"><ele>243.0</ele><time>2026-04-04T10:33:03Z</time></trkpt><trkpt lat="44.96962116540719" lon="7.7867524277187155"><ele>243.33333333333331</ele><time>2026-04-04T10:33:04Z</time></trkpt><trkpt lat="44.96944616475595" lon="7.786695323417463"><ele>243.66666666666666</ele><time>2026-04-04T10:33:05Z</time></trkpt><trkpt lat="44.96927011175898" lon="7.786628891168441"><ele>244.0</ele><time>2026-04-04T10:33:06Z</time></trkpt><trkpt lat="44.96909967650369" lon="7.786569870491857"><ele>244.0</ele><time>2026-04-04T10:33:07Z</time></trkpt><trkpt lat="44.96892830476866" lon="7.786501657517481"><ele>244.0</ele><time>2026-04-04T10:33:08Z</time></trkpt><trkpt lat="44.96875423044994" lon="7.786431330996686"><ele>244.0</ele><time>2026-04-04T10:33:09Z</time></trkpt><trkpt lat="44.96858847207002" lon="7.786356869228931"><ele>244.0</ele><time>2026-04-04T10:33:10Z</time></trkpt><trkpt lat="44.96842158795576" lon="7.78627335520444"><ele>244.0</ele><time>2026-04-04T10:33:11Z</time></trkpt><trkpt lat="44.96825734320336" lon="7.786187153505314"><ele>244.0</ele><time>2026-04-04T10:33:12Z</time></trkpt><trkpt lat="44.96809434847726" lon="7.786092512956278"><ele>245.0</ele><time>2026-04-04T10:33:12.999Z</time></trkpt><trkpt lat="44.967929214900714" lon="7.785991975134465"><ele>246.0</ele><time>2026-04-04T10:33:13.999Z</time></trkpt><trkpt lat="44.96776820738652" lon="7.785891580337416"><ele>247.0</ele><time>2026-04-04T10:33:14.999Z</time></trkpt><trkpt lat="44.967608071762186" lon="7.785785104697147"><ele>246.0</ele><time>2026-04-04T10:33:15.999Z</time></trkpt><trkpt lat="44.96745185095235" lon="7.785684525450699"><ele>245.0</ele><time>2026-04-04T10:33:16.999Z</time></trkpt><trkpt lat="44.96729346401627" lon="7.7855736290194795"><ele>244.0</ele><time>2026-04-04T10:33:17.999Z</time></trkpt><trkpt lat="44.96714140835408" lon="7.7854641680497645"><ele>244.0</ele><time>2026-04-04T10:33:18.999Z</time></trkpt><trkpt lat="44.96698558447997" lon="7.785365418453971"><ele>244.0</ele><time>2026-04-04T10:33:19.999Z</time></trkpt><trkpt lat="44.96682973682051" lon="7.785260853207095"><ele>244.0</ele><time>2026-04-04T10:33:20.999Z</time></trkpt><trkpt lat="44.96667369070629" lon="7.785155490417887"><ele>243.66666666666666</ele><time>2026-04-04T10:33:21.999Z</time></trkpt><trkpt lat="44.96652105741514" lon="7.785055745546126"><ele>243.33333333333331</ele><time>2026-04-04T10:33:22.999Z</time></trkpt><trkpt lat="44.96637249033059" lon="7.78495971993541"><ele>243.0</ele><time>2026-04-04T10:33:23.999Z</time></trkpt><trkpt lat="44.96622423174394" lon="7.784869956945078"><ele>243.0</ele><time>2026-04-04T10:33:24.999Z</time></trkpt><trkpt lat="44.966081939737876" lon="7.784768624995376"><ele>243.0</ele><time>2026-04-04T10:33:25.999Z</time></trkpt><trkpt lat="44.965936959497554" lon="7.784658583122393"><ele>243.0</ele><time>2026-04-04T10:33:26.999Z</time></trkpt><trkpt lat="44.96579883227873" lon="7.784517123717509"><ele>243.33333333333331</ele><time>2026-04-04T10:33:27.999Z</time></trkpt><trkpt lat="44.96565703614868" lon="7.7843854855600805"><ele>243.66666666666666</ele><time>2026-04-04T10:33:28.999Z</time></trkpt><trkpt lat="44.96551739787654" lon="7.7842279260979454"><ele>244.0</ele><time>2026-04-04T10:33:29.999Z</time></trkpt><trkpt lat="44.96539607054965" lon="7.7840508421314345"><ele>244.0</ele><time>2026-04-04T10:33:30.999Z</time></trkpt><trkpt lat="44.96528358251163" lon="7.783864945274762"><ele>244.0</ele><time>2026-04-04T10:33:31.999Z</time></trkpt><trkpt lat="44.96518522139192" lon="7.783672705422988"><ele>244.0</ele><time>2026-04-04T10:33:32.999Z</time></trkpt><trkpt lat="44.96509661379827" lon="7.783476269490927"><ele>243.0</ele><time>2026-04-04T10:33:33.999Z</time></trkpt><trkpt lat="44.96501699481092" lon="7.783266001471328"><ele>242.0</ele><time>2026-04-04T10:33:34.999Z</time></trkpt><trkpt lat="44.96494547345415" lon="7.783045473657208"><ele>241.0</ele><time>2026-04-04T10:33:35.999Z</time></trkpt><trkpt lat="44.96489076101664" lon="7.782820858599147"><ele>240.33333333333331</ele><time>2026-04-04T10:33:36.999Z</time></trkpt><trkpt lat="44.96484530129495" lon="7.7825788738745"><ele>239.66666666666669</ele><time>2026-04-04T10:33:37.999Z</time></trkpt><trkpt lat="44.96480658641995" lon="7.782348502849324"><ele>239.0</ele><time>2026-04-04T10:33:38.999Z</time></trkpt><trkpt lat="44.9647745157518" lon="7.782127722899367"><ele>239.0</ele><time>2026-04-04T10:33:39.999Z</time></trkpt><trkpt lat="44.964743521102356" lon="7.781914432877386"><ele>239.0</ele><time>2026-04-04T10:33:40.999Z</time></trkpt><trkpt lat="44.96471607459465" lon="7.781699888689299"><ele>239.0</ele><time>2026-04-04T10:33:41.999Z</time></trkpt><trkpt lat="44.96469670533026" lon="7.781480526302859"><ele>239.75</ele><time>2026-04-04T10:33:42.999Z</time></trkpt><trkpt lat="44.96467646969347" lon="7.781262832478944"><ele>240.5</ele><time>2026-04-04T10:33:43.999Z</time></trkpt><trkpt lat="44.964665659685046" lon="7.781040190497496"><ele>241.25</ele><time>2026-04-04T10:33:44.999Z</time></trkpt><trkpt lat="44.9646695732421" lon="7.780868069264684"><ele>242.0</ele><time>2026-04-04T10:33:45.999Z</time></trkpt><trkpt lat="44.96465496194898" lon="7.7806349207739265"><ele>242.0</ele><time>2026-04-04T10:33:46.999Z</time></trkpt><trkpt lat="44.96465002473623" lon="7.780438175583578"><ele>242.0</ele><time>2026-04-04T10:33:47.999Z</time></trkpt><trkpt lat="44.964649778264345" lon="7.780261384996777"><ele>242.0</ele><time>2026-04-04T10:33:48.999Z</time></trkpt><trkpt lat="44.96464533503047" lon="7.780079032740876"><ele>242.0</ele><time>2026-04-04T10:33:49.999Z</time></trkpt><trkpt lat="44.964638188658405" lon="7.779890272189532"><ele>242.0</ele><time>2026-04-04T10:33:50.999Z</time></trkpt><trkpt lat="44.96463444092052" lon="7.7796951923179725"><ele>242.0</ele><time>2026-04-04T10:33:51.999Z</time></trkpt><trkpt lat="44.96462824291007" lon="7.779504897582911"><ele>242.0</ele><time>2026-04-04T10:33:52.999Z</time></trkpt><trkpt lat="44.964620739528215" lon="7.779322975078144"><ele>242.0</ele><time>2026-04-04T10:33:53.999Z</time></trkpt><trkpt lat="44.964616859872166" lon="7.779151003226372"><ele>242.0</ele><time>2026-04-04T10:33:54.999Z</time></trkpt><trkpt lat="44.96460558213289" lon="7.778996808029825"><ele>242.0</ele><time>2026-04-04T10:33:55.999Z</time></trkpt><trkpt lat="44.964593589412026" lon="7.778868736344651"><ele>242.0</ele><time>2026-04-04T10:33:56.999Z</time></trkpt><trkpt lat="44.96458125658311" lon="7.778776975868422"><ele>242.0</ele><time>2026-04-04T10:33:57.999Z</time></trkpt><trkpt lat="44.96454892254438" lon="7.778618832525824"><ele>242.0</ele><time>2026-04-04T10:33:59.999Z</time></trkpt><trkpt lat="44.964517926142044" lon="7.778457808334851"><ele>242.16666666666669</ele><time>2026-04-04T10:34:01.999Z</time></trkpt><trkpt lat="44.9645149558328" lon="7.778367368093027"><ele>242.33333333333334</ele><time>2026-04-04T10:34:02.999Z</time></trkpt><trkpt lat="44.96452035990634" lon="7.778268107719871"><ele>242.5</ele><time>2026-04-04T10:34:03.999Z</time></trkpt><trkpt lat="44.96452315211856" lon="7.7781731755726184"><ele>242.66666666666669</ele><time>2026-04-04T10:34:04.999Z</time></trkpt><trkpt lat="44.96451108522401" lon="7.778081653622436"><ele>242.83333333333334</ele><time>2026-04-04T10:34:05.999Z</time></trkpt><trkpt lat="44.964446838575896" lon="7.777935510435156"><ele>243.0</ele><time>2026-04-04T10:34:07.999Z</time></trkpt><trkpt lat="44.96436298202893" lon="7.7779359011544305"><ele>243.0</ele><time>2026-04-04T10:34:08.999Z</time></trkpt><trkpt lat="44.964296699603864" lon="7.77793788178358"><ele>243.0</ele><time>2026-04-04T10:34:09.999Z</time></trkpt><trkpt lat="44.964229215183444" lon="7.777938755149763"><ele>243.0</ele><time>2026-04-04T10:34:10.999Z</time></trkpt><trkpt lat="44.96415104683232" lon="7.777908029898835"><ele>243.0</ele><time>2026-04-04T10:34:11.999Z</time></trkpt><trkpt lat="44.964072359369425" lon="7.77787605633965"><ele>243.0</ele><time>2026-04-04T10:34:12.999Z</time></trkpt><trkpt lat="44.96398719780991" lon="7.777843428131766"><ele>243.0</ele><time>2026-04-04T10:34:13.999Z</time></trkpt><trkpt lat="44.963898106726006" lon="7.777815618284962"><ele>243.33333333333334</ele><time>2026-04-04T10:34:14.999Z</time></trkpt><trkpt lat="44.96380444221001" lon="7.777788974377918"><ele>243.66666666666669</ele><time>2026-04-04T10:34:15.999Z</time></trkpt><trkpt lat="44.96370954749835" lon="7.777771568860106"><ele>244.0</ele><time>2026-04-04T10:34:16.999Z</time></trkpt><trkpt lat="44.963612739279746" lon="7.777767459159388"><ele>244.33333333333334</ele><time>2026-04-04T10:34:17.999Z</time></trkpt><trkpt lat="44.963523550935406" lon="7.777764200300603"><ele>244.66666666666669</ele><time>2026-04-04T10:34:18.999Z</time></trkpt><trkpt lat="44.96345333674583" lon="7.77776061347994"><ele>245.0</ele><time>2026-04-04T10:34:19.999Z</time></trkpt><trkpt lat="44.96335168060632" lon="7.7777512844409"><ele>244.0</ele><time>2026-04-04T10:34:21.998Z</time></trkpt><trkpt lat="44.96328747669854" lon="7.777740305610648"><ele>243.0</ele><time>2026-04-04T10:34:23.998Z</time></trkpt><trkpt lat="44.96320472328627" lon="7.777676862738023"><ele>242.0</ele><time>2026-04-04T10:34:26.998Z</time></trkpt><trkpt lat="44.96315736232843" lon="7.777566196088495"><ele>241.0</ele><time>2026-04-04T10:34:28.998Z</time></trkpt><trkpt lat="44.96310534235808" lon="7.777438331128391"><ele>240.0</ele><time>2026-04-04T10:34:31Z</time></trkpt><trkpt lat="44.96301646883693" lon="7.777372336352529"><ele>240.0</ele><time>2026-04-04T10:34:33Z</time></trkpt><trkpt lat="44.96290840528822" lon="7.777410680377268"><ele>240.0</ele><time>2026-04-04T10:34:35Z</time></trkpt><trkpt lat="44.9628185490097" lon="7.777493081789421"><ele>240.0</ele><time>2026-04-04T10:34:37Z</time></trkpt><trkpt lat="44.96283394332296" lon="7.777663525941942"><ele>240.0</ele><time>2026-04-04T10:34:38Z</time></trkpt><trkpt lat="44.962800795502986" lon="7.777767246760895"><ele>240.0</ele><time>2026-04-04T10:34:39Z</time></trkpt><trkpt lat="44.96275754245909" lon="7.777869831914375"><ele>240.0</ele><time>2026-04-04T10:34:40Z</time></trkpt><trkpt lat="44.96270961357457" lon="7.777967301515863"><ele>240.0</ele><time>2026-04-04T10:34:41Z</time></trkpt><trkpt lat="44.96264970219033" lon="7.778070525994592"><ele>240.0</ele><time>2026-04-04T10:34:42Z</time></trkpt><trkpt lat="44.96256079305756" lon="7.7781802774207485"><ele>240.0</ele><time>2026-04-04T10:34:43Z</time></trkpt><trkpt lat="44.96247657062171" lon="7.778308760769573"><ele>240.0</ele><time>2026-04-04T10:34:44Z</time></trkpt><trkpt lat="44.9623861288583" lon="7.778450719019249"><ele>240.0</ele><time>2026-04-04T10:34:45Z</time></trkpt><trkpt lat="44.96228469672302" lon="7.77860363986195"><ele>240.0</ele><time>2026-04-04T10:34:46Z</time></trkpt><trkpt lat="44.96217935497991" lon="7.778763428877443"><ele>240.0</ele><time>2026-04-04T10:34:47Z</time></trkpt><trkpt lat="44.96207261291041" lon="7.778924926864218"><ele>240.0</ele><time>2026-04-04T10:34:48Z</time></trkpt><trkpt lat="44.96196906897743" lon="7.77909352610924"><ele>240.0</ele><time>2026-04-04T10:34:49Z</time></trkpt><trkpt lat="44.96185461004662" lon="7.779258673538752"><ele>240.0</ele><time>2026-04-04T10:34:50Z</time></trkpt><trkpt lat="44.96173973591315" lon="7.779431352806563"><ele>240.33333333333331</ele><time>2026-04-04T10:34:51Z</time></trkpt><trkpt lat="44.96162292629004" lon="7.779610505551863"><ele>240.66666666666666</ele><time>2026-04-04T10:34:52Z</time></trkpt><trkpt lat="44.96150193688276" lon="7.779791205066914"><ele>241.0</ele><time>2026-04-04T10:34:53Z</time></trkpt><trkpt lat="44.96137782698728" lon="7.779975929214989"><ele>241.0</ele><time>2026-04-04T10:34:54Z</time></trkpt><trkpt lat="44.96125231752812" lon="7.7801659052232495"><ele>241.0</ele><time>2026-04-04T10:34:55Z</time></trkpt><trkpt lat="44.96113305022172" lon="7.780352340307885"><ele>241.0</ele><time>2026-04-04T10:34:56Z</time></trkpt><trkpt lat="44.961013181540366" lon="7.780534209282744"><ele>241.0</ele><time>2026-04-04T10:34:57Z</time></trkpt><trkpt lat="44.96089367858373" lon="7.780718933899346"><ele>241.0</ele><time>2026-04-04T10:34:58Z</time></trkpt><trkpt lat="44.96077448630062" lon="7.780903101230415"><ele>241.0</ele><time>2026-04-04T10:34:59Z</time></trkpt><trkpt lat="44.96065267765064" lon="7.781087387305654"><ele>241.33333333333331</ele><time>2026-04-04T10:35:00Z</time></trkpt><trkpt lat="44.96053228267539" lon="7.781272359839842"><ele>241.66666666666669</ele><time>2026-04-04T10:35:01Z</time></trkpt><trkpt lat="44.96041015551417" lon="7.7814553853762884"><ele>242.0</ele><time>2026-04-04T10:35:02Z</time></trkpt><trkpt lat="44.96028892556827" lon="7.781644116535525"><ele>242.0</ele><time>2026-04-04T10:35:03Z</time></trkpt><trkpt lat="44.960169444595515" lon="7.781837049636115"><ele>242.0</ele><time>2026-04-04T10:35:04Z</time></trkpt><trkpt lat="44.96004703122051" lon="7.782029859621434"><ele>242.0</ele><time>2026-04-04T10:35:05Z</time></trkpt><trkpt lat="44.95992567092185" lon="7.78222067723704"><ele>242.0</ele><time>2026-04-04T10:35:06Z</time></trkpt><trkpt lat="44.95980449161559" lon="7.7824082509308"><ele>242.0</ele><time>2026-04-04T10:35:07Z</time></trkpt><trkpt lat="44.95968462270698" lon="7.782596086771598"><ele>242.0</ele><time>2026-04-04T10:35:08Z</time></trkpt><trkpt lat="44.95956384390207" lon="7.782787948606323"><ele>242.0</ele><time>2026-04-04T10:35:09Z</time></trkpt><trkpt lat="44.95944230284544" lon="7.782983313670599"><ele>242.0</ele><time>2026-04-04T10:35:10Z</time></trkpt><trkpt lat="44.95932147018069" lon="7.783176725747021"><ele>242.0</ele><time>2026-04-04T10:35:11Z</time></trkpt><trkpt lat="44.95919261363791" lon="7.783353233280121"><ele>242.66666666666669</ele><time>2026-04-04T10:35:12Z</time></trkpt><trkpt lat="44.95907293394389" lon="7.783537061471514"><ele>243.33333333333331</ele><time>2026-04-04T10:35:13Z</time></trkpt><trkpt lat="44.958948900477445" lon="7.783713299221017"><ele>244.0</ele><time>2026-04-04T10:35:14Z</time></trkpt><trkpt lat="44.95882864559894" lon="7.783903921756917"><ele>244.0</ele><time>2026-04-04T10:35:15Z</time></trkpt><trkpt lat="44.958703984254974" lon="7.784090979433054"><ele>244.0</ele><time>2026-04-04T10:35:16Z</time></trkpt><trkpt lat="44.95859097892574" lon="7.784264174731032"><ele>244.0</ele><time>2026-04-04T10:35:17Z</time></trkpt><trkpt lat="44.95847762805062" lon="7.78443854911068"><ele>244.66666666666666</ele><time>2026-04-04T10:35:18Z</time></trkpt><trkpt lat="44.95837136779237" lon="7.784612028181764"><ele>245.33333333333331</ele><time>2026-04-04T10:35:19Z</time></trkpt><trkpt lat="44.95827415227349" lon="7.784778154179894"><ele>246.0</ele><time>2026-04-04T10:35:20Z</time></trkpt><trkpt lat="44.95816846101827" lon="7.784934903881325"><ele>246.33333333333331</ele><time>2026-04-04T10:35:20.999Z</time></trkpt><trkpt lat="44.95806506299038" lon="7.785098524565676"><ele>246.66666666666666</ele><time>2026-04-04T10:35:21.999Z</time></trkpt><trkpt lat="44.95796440043467" lon="7.785267668849168"><ele>247.0</ele><time>2026-04-04T10:35:22.999Z</time></trkpt><trkpt lat="44.95786921527327" lon="7.7854399591745675"><ele>247.75</ele><time>2026-04-04T10:35:23.999Z</time></trkpt><trkpt lat="44.95777947214791" lon="7.78561263094719"><ele>248.5</ele><time>2026-04-04T10:35:24.999Z</time></trkpt><trkpt lat="44.957701034935994" lon="7.785779814134317"><ele>249.25</ele><time>2026-04-04T10:35:25.999Z</time></trkpt><trkpt lat="44.95762701257209" lon="7.785933989193454"><ele>250.0</ele><time>2026-04-04T10:35:26.999Z</time></trkpt><trkpt lat="44.957551409212805" lon="7.786070953610025"><ele>249.49999999999997</ele><time>2026-04-04T10:35:27.999Z</time></trkpt><trkpt lat="44.95749667588661" lon="7.786190649903571"><ele>249.0</ele><time>2026-04-04T10:35:28.999Z</time></trkpt><trkpt lat="44.95745549973756" lon="7.786277399895413"><ele>248.5</ele><time>2026-04-04T10:35:29.999Z</time></trkpt><trkpt lat="44.95740851843305" lon="7.786380324105937"><ele>248.0</ele><time>2026-04-04T10:35:31.999Z</time></trkpt><trkpt lat="44.95736474432521" lon="7.7864653826770205"><ele>247.49999999999997</ele><time>2026-04-04T10:35:34.999Z</time></trkpt><trkpt lat="44.95732547506111" lon="7.786538177639174"><ele>247.0</ele><time>2026-04-04T10:35:36.999Z</time></trkpt><trkpt lat="44.95727168043879" lon="7.786649950037904"><ele>247.0</ele><time>2026-04-04T10:35:39.999Z</time></trkpt><trkpt lat="44.95723159523604" lon="7.786741847647631"><ele>247.0</ele><time>2026-04-04T10:35:41.999Z</time></trkpt><trkpt lat="44.95718793873955" lon="7.78681349111853"><ele>247.0</ele><time>2026-04-04T10:35:43.999Z</time></trkpt><trkpt lat="44.95714342309341" lon="7.786903106095189"><ele>247.0</ele><time>2026-04-04T10:35:45.999Z</time></trkpt><trkpt lat="44.957106045347125" lon="7.78701552245451"><ele>247.0</ele><time>2026-04-04T10:35:47.999Z</time></trkpt><trkpt lat="44.95706177607984" lon="7.787094405266896"><ele>247.0</ele><time>2026-04-04T10:35:48.999Z</time></trkpt><trkpt lat="44.95702728437216" lon="7.787175232258419"><ele>247.0</ele><time>2026-04-04T10:35:49.999Z</time></trkpt><trkpt lat="44.956971400237904" lon="7.787281072179796"><ele>247.39999999999998</ele><time>2026-04-04T10:35:51.999Z</time></trkpt><trkpt lat="44.95686154551306" lon="7.78729370276403"><ele>247.79999999999998</ele><time>2026-04-04T10:35:53.999Z</time></trkpt><trkpt lat="44.956784343631284" lon="7.787297653958906"><ele>248.2</ele><time>2026-04-04T10:35:54.999Z</time></trkpt><trkpt lat="44.9567167447844" lon="7.787365663454656"><ele>248.6</ele><time>2026-04-04T10:35:55.999Z</time></trkpt><trkpt lat="44.95666881430666" lon="7.787467626282406"><ele>249.0</ele><time>2026-04-04T10:35:56.999Z</time></trkpt><trkpt lat="44.956635973482385" lon="7.7875966944375845"><ele>249.0</ele><time>2026-04-04T10:35:57.999Z</time></trkpt><trkpt lat="44.9566259522714" lon="7.787714536496017"><ele>248.99999999999997</ele><time>2026-04-04T10:35:58.999Z</time></trkpt><trkpt lat="44.956600870709046" lon="7.787857506392665"><ele>248.99999999999997</ele><time>2026-04-04T10:35:59.999Z</time></trkpt><trkpt lat="44.9565626575784" lon="7.787976800079678"><ele>249.0</ele><time>2026-04-04T10:36:00.999Z</time></trkpt><trkpt lat="44.95651917705604" lon="7.788113797001913"><ele>249.0</ele><time>2026-04-04T10:36:01.999Z</time></trkpt><trkpt lat="44.95647482467043" lon="7.78824111929971"><ele>249.0</ele><time>2026-04-04T10:36:02.999Z</time></trkpt><trkpt lat="44.95642451345666" lon="7.788378398115577"><ele>249.0</ele><time>2026-04-04T10:36:03.999Z</time></trkpt><trkpt lat="44.956372738083424" lon="7.788526702890916"><ele>249.0</ele><time>2026-04-04T10:36:04.999Z</time></trkpt><trkpt lat="44.9563287323526" lon="7.788680320804284"><ele>249.0</ele><time>2026-04-04T10:36:05.999Z</time></trkpt><trkpt lat="44.95628305340994" lon="7.7888398465229125"><ele>249.5</ele><time>2026-04-04T10:36:06.999Z</time></trkpt><trkpt lat="44.956239354942056" lon="7.78900829319356"><ele>250.0</ele><time>2026-04-04T10:36:07.999Z</time></trkpt><trkpt lat="44.956079628016155" lon="7.7890623675025195"><ele>250.5</ele><time>2026-04-04T10:36:08.999Z</time></trkpt><trkpt lat="44.95599836225561" lon="7.789222821772542"><ele>251.0</ele><time>2026-04-04T10:36:09.999Z</time></trkpt><trkpt lat="44.95591795681625" lon="7.7893815358166725"><ele>250.75</ele><time>2026-04-04T10:36:10.999Z</time></trkpt><trkpt lat="44.95583677988557" lon="7.789542020356898"><ele>250.5</ele><time>2026-04-04T10:36:11.999Z</time></trkpt><trkpt lat="44.95574752610972" lon="7.789697438856524"><ele>250.25</ele><time>2026-04-04T10:36:12.999Z</time></trkpt><trkpt lat="44.9556715132326" lon="7.7898592753358615"><ele>250.0</ele><time>2026-04-04T10:36:13.999Z</time></trkpt><trkpt lat="44.95559563423876" lon="7.790022388325605"><ele>249.75</ele><time>2026-04-04T10:36:14.999Z</time></trkpt><trkpt lat="44.955515535844874" lon="7.790187176257314"><ele>249.5</ele><time>2026-04-04T10:36:15.999Z</time></trkpt><trkpt lat="44.95543887800055" lon="7.7903505278685"><ele>249.25</ele><time>2026-04-04T10:36:16.999Z</time></trkpt><trkpt lat="44.95535934764732" lon="7.790513332631732"><ele>249.0</ele><time>2026-04-04T10:36:17.999Z</time></trkpt><trkpt lat="44.95528378965623" lon="7.790671102610491"><ele>249.0</ele><time>2026-04-04T10:36:18.999Z</time></trkpt><trkpt lat="44.955212980864296" lon="7.790809654446498"><ele>248.99999999999997</ele><time>2026-04-04T10:36:19.999Z</time></trkpt><trkpt lat="44.955150972603654" lon="7.790941165296183"><ele>248.99999999999997</ele><time>2026-04-04T10:36:20.999Z</time></trkpt><trkpt lat="44.95509613544745" lon="7.791059014026224"><ele>249.0</ele><time>2026-04-04T10:36:21.999Z</time></trkpt><trkpt lat="44.95503548913249" lon="7.791170489202279"><ele>249.0</ele><time>2026-04-04T10:36:22.999Z</time></trkpt><trkpt lat="44.95497483006796" lon="7.7912637667288465"><ele>249.5</ele><time>2026-04-04T10:36:23.999Z</time></trkpt><trkpt lat="44.95490735390378" lon="7.791330753365374"><ele>250.0</ele><time>2026-04-04T10:36:24.999Z</time></trkpt><trkpt lat="44.95482858239796" lon="7.791384438903472"><ele>250.5</ele><time>2026-04-04T10:36:25.999Z</time></trkpt><trkpt lat="44.95476393312906" lon="7.791444108771267"><ele>251.0</ele><time>2026-04-04T10:36:26.999Z</time></trkpt><trkpt lat="44.95472516406205" lon="7.791536655888636"><ele>251.5</ele><time>2026-04-04T10:36:27.998Z</time></trkpt><trkpt lat="44.954710629812524" lon="7.791649803001037"><ele>252.0</ele><time>2026-04-04T10:36:28.998Z</time></trkpt><trkpt lat="44.95470940712549" lon="7.791773001681648"><ele>251.8</ele><time>2026-04-04T10:36:29.998Z</time></trkpt><trkpt lat="44.954685029644864" lon="7.791892809086326"><ele>251.6</ele><time>2026-04-04T10:36:30.998Z</time></trkpt><trkpt lat="44.95462596547811" lon="7.7920102940883265"><ele>251.40000000000003</ele><time>2026-04-04T10:36:31.998Z</time></trkpt><trkpt lat="44.954564092176426" lon="7.792131660088584"><ele>251.20000000000002</ele><time>2026-04-04T10:36:32.998Z</time></trkpt><trkpt lat="44.95449234176907" lon="7.792260068797935"><ele>251.0</ele><time>2026-04-04T10:36:33.998Z</time></trkpt><trkpt lat="44.95442032642862" lon="7.792399384183872"><ele>251.0</ele><time>2026-04-04T10:36:34.998Z</time></trkpt><trkpt lat="44.95427284127185" lon="7.792490670527665"><ele>251.0</ele><time>2026-04-04T10:36:35.998Z</time></trkpt><trkpt lat="44.95425475908863" lon="7.792703851263963"><ele>251.0</ele><time>2026-04-04T10:36:37Z</time></trkpt><trkpt lat="44.954174084247676" lon="7.792856333998622"><ele>251.0</ele><time>2026-04-04T10:36:38Z</time></trkpt><trkpt lat="44.954092805727846" lon="7.793013000445369"><ele>251.5</ele><time>2026-04-04T10:36:39Z</time></trkpt><trkpt lat="44.95400772996932" lon="7.793182678622411"><ele>252.0</ele><time>2026-04-04T10:36:40Z</time></trkpt><trkpt lat="44.95392042645848" lon="7.793355372308159"><ele>252.5</ele><time>2026-04-04T10:36:41Z</time></trkpt><trkpt lat="44.95383930309728" lon="7.793517253464757"><ele>253.0</ele><time>2026-04-04T10:36:42Z</time></trkpt><trkpt lat="44.95374040131246" lon="7.793704678601733"><ele>253.33333333333331</ele><time>2026-04-04T10:36:43Z</time></trkpt><trkpt lat="44.953650748595415" lon="7.793893621638932"><ele>253.66666666666669</ele><time>2026-04-04T10:36:44Z</time></trkpt><trkpt lat="44.953556263129215" lon="7.794086263329145"><ele>254.0</ele><time>2026-04-04T10:36:45Z</time></trkpt><trkpt lat="44.95346625212749" lon="7.794270799981398"><ele>253.66666666666669</ele><time>2026-04-04T10:36:46Z</time></trkpt><trkpt lat="44.953372305879356" lon="7.794457724479774"><ele>253.33333333333331</ele><time>2026-04-04T10:36:47Z</time></trkpt><trkpt lat="44.95327580894275" lon="7.7946506090630026"><ele>253.0</ele><time>2026-04-04T10:36:48Z</time></trkpt><trkpt lat="44.95316844028119" lon="7.794853968583785"><ele>253.0</ele><time>2026-04-04T10:36:49Z</time></trkpt><trkpt lat="44.95306622482315" lon="7.79505300320234"><ele>253.0</ele><time>2026-04-04T10:36:50Z</time></trkpt><trkpt lat="44.9529610517737" lon="7.795257321048318"><ele>253.0</ele><time>2026-04-04T10:36:51Z</time></trkpt><trkpt lat="44.952854115393244" lon="7.795466563529102"><ele>253.0</ele><time>2026-04-04T10:36:52Z</time></trkpt><trkpt lat="44.952743561515476" lon="7.795680090391698"><ele>253.0</ele><time>2026-04-04T10:36:53Z</time></trkpt><trkpt lat="44.95263152728766" lon="7.795898368573979"><ele>253.0</ele><time>2026-04-04T10:36:54Z</time></trkpt><trkpt lat="44.95252040418944" lon="7.79613156579775"><ele>253.0</ele><time>2026-04-04T10:36:55Z</time></trkpt><trkpt lat="44.95240598225076" lon="7.796359874481584"><ele>253.0</ele><time>2026-04-04T10:36:56Z</time></trkpt><trkpt lat="44.95229131253487" lon="7.796584909063581"><ele>253.0</ele><time>2026-04-04T10:36:57Z</time></trkpt><trkpt lat="44.95217744979007" lon="7.796812387488883"><ele>253.0</ele><time>2026-04-04T10:36:58Z</time></trkpt><trkpt lat="44.95205329513966" lon="7.797052915988294"><ele>253.0</ele><time>2026-04-04T10:36:59Z</time></trkpt><trkpt lat="44.951929559168704" lon="7.797296544049841"><ele>253.0</ele><time>2026-04-04T10:37:00Z</time></trkpt><trkpt lat="44.951808703310604" lon="7.797537195712204"><ele>253.0</ele><time>2026-04-04T10:37:01Z</time></trkpt><trkpt lat="44.9516846158956" lon="7.7977788064704985"><ele>253.0</ele><time>2026-04-04T10:37:02Z</time></trkpt><trkpt lat="44.95155713837734" lon="7.798018926022686"><ele>253.0</ele><time>2026-04-04T10:37:03Z</time></trkpt><trkpt lat="44.95143418143648" lon="7.7982590305812565"><ele>253.0</ele><time>2026-04-04T10:37:04Z</time></trkpt><trkpt lat="44.95130442184892" lon="7.7984723502649995"><ele>253.0</ele><time>2026-04-04T10:37:05Z</time></trkpt><trkpt lat="44.95119141582298" lon="7.798707539688421"><ele>253.0</ele><time>2026-04-04T10:37:06Z</time></trkpt><trkpt lat="44.95107677741569" lon="7.798946220348475"><ele>253.33333333333331</ele><time>2026-04-04T10:37:07Z</time></trkpt><trkpt lat="44.95095715631287" lon="7.799186491626768"><ele>253.66666666666669</ele><time>2026-04-04T10:37:08Z</time></trkpt><trkpt lat="44.95083494486415" lon="7.799432125482094"><ele>254.0</ele><time>2026-04-04T10:37:09Z</time></trkpt><trkpt lat="44.95071143538105" lon="7.799679155178156"><ele>254.0</ele><time>2026-04-04T10:37:10Z</time></trkpt><trkpt lat="44.950584759838904" lon="7.799930443913176"><ele>254.0</ele><time>2026-04-04T10:37:11Z</time></trkpt><trkpt lat="44.9504609750092" lon="7.800194556533165"><ele>254.0</ele><time>2026-04-04T10:37:12Z</time></trkpt><trkpt lat="44.950324735103536" lon="7.8004573544185405"><ele>253.5</ele><time>2026-04-04T10:37:13Z</time></trkpt><trkpt lat="44.95016708058892" lon="7.800733240728267"><ele>253.0</ele><time>2026-04-04T10:37:14Z</time></trkpt><trkpt lat="44.95004460181036" lon="7.8009961622290485"><ele>251.0</ele><time>2026-04-04T10:37:15Z</time></trkpt><trkpt lat="44.94991024791786" lon="7.801268621258895"><ele>249.0</ele><time>2026-04-04T10:37:16Z</time></trkpt><trkpt lat="44.94976952558616" lon="7.80154107149335"><ele>249.0</ele><time>2026-04-04T10:37:17Z</time></trkpt><trkpt lat="44.949627227440374" lon="7.801823058890427"><ele>249.0</ele><time>2026-04-04T10:37:18Z</time></trkpt><trkpt lat="44.9494850742437" lon="7.80209649855456"><ele>249.0</ele><time>2026-04-04T10:37:19Z</time></trkpt><trkpt lat="44.94934199156214" lon="7.802375835998853"><ele>249.0</ele><time>2026-04-04T10:37:20Z</time></trkpt><trkpt lat="44.94920164035345" lon="7.802653918406867"><ele>250.0</ele><time>2026-04-04T10:37:21Z</time></trkpt><trkpt lat="44.9490656736665" lon="7.802929170230054"><ele>251.0</ele><time>2026-04-04T10:37:22Z</time></trkpt><trkpt lat="44.94893658576647" lon="7.803181065468905"><ele>251.0</ele><time>2026-04-04T10:37:23Z</time></trkpt><trkpt lat="44.948810321653475" lon="7.803428021265686"><ele>251.0</ele><time>2026-04-04T10:37:23.999Z</time></trkpt><trkpt lat="44.948686296949525" lon="7.803674089952345"><ele>251.0</ele><time>2026-04-04T10:37:24.999Z</time></trkpt><trkpt lat="44.94855915136674" lon="7.803916605954564"><ele>251.0</ele><time>2026-04-04T10:37:25.999Z</time></trkpt><trkpt lat="44.94843339607529" lon="7.8041616509180605"><ele>251.0</ele><time>2026-04-04T10:37:26.999Z</time></trkpt><trkpt lat="44.94831279799654" lon="7.80440866636955"><ele>251.0</ele><time>2026-04-04T10:37:27.999Z</time></trkpt><trkpt lat="44.94818920616662" lon="7.8046512925990905"><ele>251.0</ele><time>2026-04-04T10:37:28.999Z</time></trkpt><trkpt lat="44.94807121979029" lon="7.804905547349806"><ele>251.0</ele><time>2026-04-04T10:37:29.999Z</time></trkpt><trkpt lat="44.94794282645277" lon="7.805147076708572"><ele>251.0</ele><time>2026-04-04T10:37:30.999Z</time></trkpt><trkpt lat="44.94782037192765" lon="7.805385267338004"><ele>251.33333333333334</ele><time>2026-04-04T10:37:31.999Z</time></trkpt><trkpt lat="44.94769574523414" lon="7.80561757627739"><ele>251.66666666666669</ele><time>2026-04-04T10:37:32.999Z</time></trkpt><trkpt lat="44.94757934028986" lon="7.8058676357754235"><ele>252.0</ele><time>2026-04-04T10:37:33.999Z</time></trkpt><trkpt lat="44.94745921286672" lon="7.80610602450645"><ele>251.0</ele><time>2026-04-04T10:37:34.999Z</time></trkpt><trkpt lat="44.94734913441994" lon="7.806319793677263"><ele>250.0</ele><time>2026-04-04T10:37:35.999Z</time></trkpt><trkpt lat="44.9472199034998" lon="7.806584925046195"><ele>249.0</ele><time>2026-04-04T10:37:36.999Z</time></trkpt><trkpt lat="44.947100757279614" lon="7.806824655072368"><ele>249.0</ele><time>2026-04-04T10:37:37.999Z</time></trkpt><trkpt lat="44.94698057563848" lon="7.807066321877654"><ele>249.0</ele><time>2026-04-04T10:37:38.999Z</time></trkpt><trkpt lat="44.94686003888487" lon="7.807303269203285"><ele>249.0</ele><time>2026-04-04T10:37:39.999Z</time></trkpt><trkpt lat="44.946736414239936" lon="7.8075416282299095"><ele>249.33333333333331</ele><time>2026-04-04T10:37:40.999Z</time></trkpt><trkpt lat="44.94661346597209" lon="7.80778210330149"><ele>249.66666666666666</ele><time>2026-04-04T10:37:41.999Z</time></trkpt><trkpt lat="44.94648972921019" lon="7.8080217704662855"><ele>250.0</ele><time>2026-04-04T10:37:42.999Z</time></trkpt><trkpt lat="44.94637004294214" lon="7.808266204978461"><ele>249.66666666666666</ele><time>2026-04-04T10:37:43.999Z</time></trkpt><trkpt lat="44.9462500902673" lon="7.808507949164019"><ele>249.33333333333331</ele><time>2026-04-04T10:37:44.999Z</time></trkpt><trkpt lat="44.9461261943744" lon="7.80874557808425"><ele>249.0</ele><time>2026-04-04T10:37:45.999Z</time></trkpt><trkpt lat="44.946002081784364" lon="7.808990813285895"><ele>249.0</ele><time>2026-04-04T10:37:46.999Z</time></trkpt><trkpt lat="44.945879936454375" lon="7.8092313328757275"><ele>249.0</ele><time>2026-04-04T10:37:47.999Z</time></trkpt><trkpt lat="44.94575766431717" lon="7.809471014191944"><ele>249.0</ele><time>2026-04-04T10:37:48.999Z</time></trkpt><trkpt lat="44.94563837490588" lon="7.809712337185505"><ele>249.0</ele><time>2026-04-04T10:37:49.999Z</time></trkpt><trkpt lat="44.94551801471874" lon="7.809952968834765"><ele>249.0</ele><time>2026-04-04T10:37:50.999Z</time></trkpt><trkpt lat="44.945393469547206" lon="7.810196469636714"><ele>249.0</ele><time>2026-04-04T10:37:51.999Z</time></trkpt><trkpt lat="44.94527077301324" lon="7.8104332398454375"><ele>249.0</ele><time>2026-04-04T10:37:52.999Z</time></trkpt><trkpt lat="44.94514501214786" lon="7.810671435099559"><ele>249.0</ele><time>2026-04-04T10:37:53.999Z</time></trkpt><trkpt lat="44.94502777353942" lon="7.810908028196747"><ele>249.0</ele><time>2026-04-04T10:37:54.999Z</time></trkpt><trkpt lat="44.94491299086398" lon="7.8111395891001205"><ele>249.0</ele><time>2026-04-04T10:37:55.999Z</time></trkpt><trkpt lat="44.94479881465829" lon="7.811369441872667"><ele>249.0</ele><time>2026-04-04T10:37:56.999Z</time></trkpt><trkpt lat="44.944687011141625" lon="7.811593125836168"><ele>249.0</ele><time>2026-04-04T10:37:57.999Z</time></trkpt><trkpt lat="44.944570318401546" lon="7.8118207326980125"><ele>248.66666666666669</ele><time>2026-04-04T10:37:58.999Z</time></trkpt><trkpt lat="44.94445633637803" lon="7.812055905234884"><ele>248.33333333333334</ele><time>2026-04-04T10:37:59.999Z</time></trkpt><trkpt lat="44.944339029190814" lon="7.812281435592126"><ele>248.0</ele><time>2026-04-04T10:38:00.999Z</time></trkpt><trkpt lat="44.94422246210288" lon="7.812510097037115"><ele>248.33333333333334</ele><time>2026-04-04T10:38:01.999Z</time></trkpt><trkpt lat="44.944105802786524" lon="7.812739516331479"><ele>248.66666666666669</ele><time>2026-04-04T10:38:02.999Z</time></trkpt><trkpt lat="44.94399276345138" lon="7.812964601065646"><ele>249.0</ele><time>2026-04-04T10:38:03.999Z</time></trkpt><trkpt lat="44.943884238021745" lon="7.813188942438874"><ele>249.0</ele><time>2026-04-04T10:38:04.999Z</time></trkpt><trkpt lat="44.943782401265324" lon="7.813391939102968"><ele>249.0</ele><time>2026-04-04T10:38:05.999Z</time></trkpt><trkpt lat="44.94368429571407" lon="7.813588310292934"><ele>249.0</ele><time>2026-04-04T10:38:06.999Z</time></trkpt><trkpt lat="44.9435904668014" lon="7.813774126526657"><ele>248.33333333333331</ele><time>2026-04-04T10:38:07.999Z</time></trkpt><trkpt lat="44.94349503279827" lon="7.813954389815764"><ele>247.66666666666666</ele><time>2026-04-04T10:38:08.999Z</time></trkpt><trkpt lat="44.943401839921435" lon="7.814142725161197"><ele>247.0</ele><time>2026-04-04T10:38:09.999Z</time></trkpt><trkpt lat="44.943310797363765" lon="7.814334212805886"><ele>247.0</ele><time>2026-04-04T10:38:10.999Z</time></trkpt><trkpt lat="44.943223627467006" lon="7.814515320241459"><ele>247.0</ele><time>2026-04-04T10:38:11.999Z</time></trkpt><trkpt lat="44.943123855249084" lon="7.814700988991826"><ele>247.0</ele><time>2026-04-04T10:38:12.999Z</time></trkpt><trkpt lat="44.943031483078705" lon="7.814887394866644"><ele>247.0</ele><time>2026-04-04T10:38:13.999Z</time></trkpt><trkpt lat="44.94293737381068" lon="7.815072322398724"><ele>247.0</ele><time>2026-04-04T10:38:14.999Z</time></trkpt><trkpt lat="44.94284253630158" lon="7.81525642481236"><ele>247.0</ele><time>2026-04-04T10:38:15.999Z</time></trkpt><trkpt lat="44.942748694725964" lon="7.815443580936507"><ele>246.66666666666666</ele><time>2026-04-04T10:38:16.999Z</time></trkpt><trkpt lat="44.94265295621211" lon="7.815628836212964"><ele>246.33333333333331</ele><time>2026-04-04T10:38:17.999Z</time></trkpt><trkpt lat="44.94255897415655" lon="7.815820604250464"><ele>246.0</ele><time>2026-04-04T10:38:18.999Z</time></trkpt><trkpt lat="44.94246414639321" lon="7.816005112681405"><ele>245.33333333333331</ele><time>2026-04-04T10:38:19.999Z</time></trkpt><trkpt lat="44.94237067055136" lon="7.816199029037528"><ele>244.66666666666666</ele><time>2026-04-04T10:38:20.999Z</time></trkpt><trkpt lat="44.94226562347838" lon="7.816387597090497"><ele>244.0</ele><time>2026-04-04T10:38:21.999Z</time></trkpt><trkpt lat="44.94217591818081" lon="7.81657239732655"><ele>244.0</ele><time>2026-04-04T10:38:22.999Z</time></trkpt><trkpt lat="44.94208174358723" lon="7.816758361757791"><ele>244.0</ele><time>2026-04-04T10:38:23.999Z</time></trkpt><trkpt lat="44.941989204400635" lon="7.816955061527628"><ele>244.0</ele><time>2026-04-04T10:38:24.999Z</time></trkpt><trkpt lat="44.94189783471379" lon="7.8171473757964005"><ele>244.0</ele><time>2026-04-04T10:38:25.999Z</time></trkpt><trkpt lat="44.94180022171381" lon="7.817331385354474"><ele>244.0</ele><time>2026-04-04T10:38:26.999Z</time></trkpt><trkpt lat="44.94170334720822" lon="7.817519993270467"><ele>244.0</ele><time>2026-04-04T10:38:27.999Z</time></trkpt><trkpt lat="44.94161008492632" lon="7.817700743715718"><ele>244.0</ele><time>2026-04-04T10:38:28.999Z</time></trkpt><trkpt lat="44.94150756690682" lon="7.817892190723132"><ele>244.0</ele><time>2026-04-04T10:38:29.998Z</time></trkpt><trkpt lat="44.94139754569255" lon="7.818070387727432"><ele>244.0</ele><time>2026-04-04T10:38:30.998Z</time></trkpt><trkpt lat="44.9413125642723" lon="7.8182628698159515"><ele>244.0</ele><time>2026-04-04T10:38:31.998Z</time></trkpt><trkpt lat="44.94122168317382" lon="7.818445359508318"><ele>244.0</ele><time>2026-04-04T10:38:32.998Z</time></trkpt><trkpt lat="44.941123411602675" lon="7.818637169825689"><ele>244.0</ele><time>2026-04-04T10:38:33.998Z</time></trkpt><trkpt lat="44.941034077544565" lon="7.81882754669195"><ele>244.0</ele><time>2026-04-04T10:38:34.998Z</time></trkpt><trkpt lat="44.940940881409986" lon="7.8190120673038015"><ele>244.0</ele><time>2026-04-04T10:38:35.998Z</time></trkpt><trkpt lat="44.94084603502163" lon="7.819200216659659"><ele>244.0</ele><time>2026-04-04T10:38:36.998Z</time></trkpt><trkpt lat="44.94074836284424" lon="7.819376475690329"><ele>244.33333333333331</ele><time>2026-04-04T10:38:37.998Z</time></trkpt><trkpt lat="44.94065331734487" lon="7.819569141834449"><ele>244.66666666666669</ele><time>2026-04-04T10:38:38.998Z</time></trkpt><trkpt lat="44.940566288868446" lon="7.819758644416768"><ele>245.0</ele><time>2026-04-04T10:38:39.998Z</time></trkpt><trkpt lat="44.9404693530495" lon="7.819946076684067"><ele>245.0</ele><time>2026-04-04T10:38:40.998Z</time></trkpt><trkpt lat="44.940376773862894" lon="7.8201321498766205"><ele>245.0</ele><time>2026-04-04T10:38:41.998Z</time></trkpt><trkpt lat="44.94028152915312" lon="7.820315723928536"><ele>245.0</ele><time>2026-04-04T10:38:43Z</time></trkpt><trkpt lat="44.94018579026686" lon="7.8204986587001235"><ele>245.0</ele><time>2026-04-04T10:38:44Z</time></trkpt><trkpt lat="44.94009196691544" lon="7.820689755050891"><ele>245.0</ele><time>2026-04-04T10:38:45Z</time></trkpt><trkpt lat="44.93999711325903" lon="7.820878994168276"><ele>245.0</ele><time>2026-04-04T10:38:46Z</time></trkpt><trkpt lat="44.939898834213196" lon="7.82106928666325"><ele>245.0</ele><time>2026-04-04T10:38:47Z</time></trkpt><trkpt lat="44.93979365563508" lon="7.8212559202998735"><ele>245.0</ele><time>2026-04-04T10:38:48Z</time></trkpt><trkpt lat="44.939696624110155" lon="7.8214443513274565"><ele>245.0</ele><time>2026-04-04T10:38:49Z</time></trkpt><trkpt lat="44.93960980387272" lon="7.821643490641734"><ele>245.33333333333334</ele><time>2026-04-04T10:38:50Z</time></trkpt><trkpt lat="44.939509915006965" lon="7.821834217735791"><ele>245.66666666666669</ele><time>2026-04-04T10:38:51Z</time></trkpt><trkpt lat="44.939407998409216" lon="7.822023796408845"><ele>246.0</ele><time>2026-04-04T10:38:52Z</time></trkpt><trkpt lat="44.939312291485" lon="7.822225015389808"><ele>246.0</ele><time>2026-04-04T10:38:53Z</time></trkpt><trkpt lat="44.939210073448585" lon="7.822422548686801"><ele>246.0</ele><time>2026-04-04T10:38:54Z</time></trkpt><trkpt lat="44.93910878527984" lon="7.8226196480612975"><ele>246.0</ele><time>2026-04-04T10:38:55Z</time></trkpt><trkpt lat="44.93900810520621" lon="7.822818717268819"><ele>246.0</ele><time>2026-04-04T10:38:56Z</time></trkpt><trkpt lat="44.938910917188046" lon="7.823023942694335"><ele>246.0</ele><time>2026-04-04T10:38:57Z</time></trkpt><trkpt lat="44.93880398811235" lon="7.82318323419299"><ele>246.0</ele><time>2026-04-04T10:38:58Z</time></trkpt><trkpt lat="44.93870270307124" lon="7.823411095672933"><ele>246.33333333333331</ele><time>2026-04-04T10:38:59Z</time></trkpt><trkpt lat="44.93859819272516" lon="7.8236201316549625"><ele>246.66666666666666</ele><time>2026-04-04T10:39:00Z</time></trkpt><trkpt lat="44.93849404593895" lon="7.823827065514814"><ele>247.0</ele><time>2026-04-04T10:39:01Z</time></trkpt><trkpt lat="44.938390291353784" lon="7.824037734069633"><ele>246.33333333333331</ele><time>2026-04-04T10:39:02Z</time></trkpt><trkpt lat="44.9382844003382" lon="7.824251768640696"><ele>245.66666666666669</ele><time>2026-04-04T10:39:03Z</time></trkpt><trkpt lat="44.93818715491723" lon="7.824459620026547"><ele>245.0</ele><time>2026-04-04T10:39:04Z</time></trkpt><trkpt lat="44.93808619569938" lon="7.8246615874055285"><ele>245.0</ele><time>2026-04-04T10:39:05Z</time></trkpt><trkpt lat="44.937988834198826" lon="7.824851996933263"><ele>245.0</ele><time>2026-04-04T10:39:06Z</time></trkpt><trkpt lat="44.93788610530794" lon="7.825029434425532"><ele>245.0</ele><time>2026-04-04T10:39:07Z</time></trkpt><trkpt lat="44.93780912283899" lon="7.825212620548058"><ele>245.0</ele><time>2026-04-04T10:39:08Z</time></trkpt><trkpt lat="44.93771850814253" lon="7.825394250187681"><ele>245.0</ele><time>2026-04-04T10:39:09Z</time></trkpt><trkpt lat="44.937624750163124" lon="7.825569985020412"><ele>245.0</ele><time>2026-04-04T10:39:10Z</time></trkpt><trkpt lat="44.93753270365899" lon="7.825741642984623"><ele>244.0</ele><time>2026-04-04T10:39:11Z</time></trkpt><trkpt lat="44.93744346899737" lon="7.825927377191456"><ele>243.0</ele><time>2026-04-04T10:39:12Z</time></trkpt><trkpt lat="44.937349861657154" lon="7.8261082129150985"><ele>242.0</ele><time>2026-04-04T10:39:13Z</time></trkpt><trkpt lat="44.93724298839318" lon="7.826282022307106"><ele>241.5</ele><time>2026-04-04T10:39:14Z</time></trkpt><trkpt lat="44.9371461779279" lon="7.826450768987021"><ele>241.0</ele><time>2026-04-04T10:39:15Z</time></trkpt><trkpt lat="44.93705089513833" lon="7.826613153010172"><ele>240.5</ele><time>2026-04-04T10:39:16Z</time></trkpt><trkpt lat="44.93695636855415" lon="7.826768137228529"><ele>240.0</ele><time>2026-04-04T10:39:17Z</time></trkpt><trkpt lat="44.93687440351203" lon="7.82692473605407"><ele>239.75</ele><time>2026-04-04T10:39:18Z</time></trkpt><trkpt lat="44.93677890170425" lon="7.827064164659287"><ele>239.5</ele><time>2026-04-04T10:39:19Z</time></trkpt><trkpt lat="44.93667489527914" lon="7.827193065797128"><ele>239.25</ele><time>2026-04-04T10:39:20Z</time></trkpt><trkpt lat="44.93657592673138" lon="7.827321349180055"><ele>239.0</ele><time>2026-04-04T10:39:21Z</time></trkpt><trkpt lat="44.93647267470638" lon="7.827456862973622"><ele>239.0</ele><time>2026-04-04T10:39:22Z</time></trkpt><trkpt lat="44.936367384140034" lon="7.827581688151564"><ele>239.0</ele><time>2026-04-04T10:39:23Z</time></trkpt><trkpt lat="44.936260535107074" lon="7.827719580314498"><ele>239.0</ele><time>2026-04-04T10:39:24Z</time></trkpt><trkpt lat="44.93612053699344" lon="7.8278558561308325"><ele>239.0</ele><time>2026-04-04T10:39:25Z</time></trkpt><trkpt lat="44.935971040244034" lon="7.828028477566944"><ele>239.0</ele><time>2026-04-04T10:39:26Z</time></trkpt><trkpt lat="44.935810031493" lon="7.828214391724263"><ele>239.0</ele><time>2026-04-04T10:39:27Z</time></trkpt><trkpt lat="44.93564089801663" lon="7.828405756370713"><ele>238.66666666666669</ele><time>2026-04-04T10:39:28Z</time></trkpt><trkpt lat="44.935478157903596" lon="7.8286063816450815"><ele>238.33333333333331</ele><time>2026-04-04T10:39:29Z</time></trkpt><trkpt lat="44.93530915538526" lon="7.828789511719535"><ele>238.0</ele><time>2026-04-04T10:39:30Z</time></trkpt><trkpt lat="44.93513288097293" lon="7.828975992381542"><ele>237.66666666666666</ele><time>2026-04-04T10:39:31Z</time></trkpt><trkpt lat="44.9349579232917" lon="7.829159903544728"><ele>237.33333333333331</ele><time>2026-04-04T10:39:32Z</time></trkpt><trkpt lat="44.93478049486827" lon="7.829341014299098"><ele>237.0</ele><time>2026-04-04T10:39:32.999Z</time></trkpt><trkpt lat="44.93460113219098" lon="7.829526248511874"><ele>238.5</ele><time>2026-04-04T10:39:33.999Z</time></trkpt><trkpt lat="44.93441609778861" lon="7.829710829244977"><ele>240.0</ele><time>2026-04-04T10:39:34.999Z</time></trkpt><trkpt lat="44.93423023511908" lon="7.829886148479053"><ele>239.33333333333331</ele><time>2026-04-04T10:39:35.999Z</time></trkpt><trkpt lat="44.9340320455129" lon="7.830032451014954"><ele>238.66666666666666</ele><time>2026-04-04T10:39:36.999Z</time></trkpt><trkpt lat="44.933849633216106" lon="7.83021344336396"><ele>238.0</ele><time>2026-04-04T10:39:37.999Z</time></trkpt><trkpt lat="44.93365084422808" lon="7.830372111078951"><ele>238.0</ele><time>2026-04-04T10:39:38.999Z</time></trkpt><trkpt lat="44.93346401961547" lon="7.830536735717766"><ele>238.0</ele><time>2026-04-04T10:39:39.999Z</time></trkpt><trkpt lat="44.93327590985486" lon="7.830700712538945"><ele>238.0</ele><time>2026-04-04T10:39:40.999Z</time></trkpt><trkpt lat="44.93308718586045" lon="7.8308597235238695"><ele>238.0</ele><time>2026-04-04T10:39:41.999Z</time></trkpt><trkpt lat="44.93290035142014" lon="7.831022988271062"><ele>238.0</ele><time>2026-04-04T10:39:42.999Z</time></trkpt><trkpt lat="44.93271301914761" lon="7.831184023614889"><ele>238.0</ele><time>2026-04-04T10:39:43.999Z</time></trkpt><trkpt lat="44.93252399946971" lon="7.831343542525292"><ele>238.0</ele><time>2026-04-04T10:39:44.999Z</time></trkpt><trkpt lat="44.932341394307755" lon="7.8315051918842356"><ele>238.0</ele><time>2026-04-04T10:39:45.999Z</time></trkpt><trkpt lat="44.932150944365354" lon="7.831665758300227"><ele>238.0</ele><time>2026-04-04T10:39:46.999Z</time></trkpt><trkpt lat="44.93196586431442" lon="7.831826748427265"><ele>237.66666666666666</ele><time>2026-04-04T10:39:47.999Z</time></trkpt><trkpt lat="44.93177171299245" lon="7.831965624031151"><ele>237.33333333333331</ele><time>2026-04-04T10:39:48.999Z</time></trkpt><trkpt lat="44.93158621462994" lon="7.832123980696175"><ele>237.0</ele><time>2026-04-04T10:39:49.999Z</time></trkpt><trkpt lat="44.93140126553898" lon="7.832281845757864"><ele>237.0</ele><time>2026-04-04T10:39:50.999Z</time></trkpt><trkpt lat="44.93122371218882" lon="7.8324335928908795"><ele>237.0</ele><time>2026-04-04T10:39:51.999Z</time></trkpt><trkpt lat="44.93105738649814" lon="7.83257770570818"><ele>237.0</ele><time>2026-04-04T10:39:52.999Z</time></trkpt><trkpt lat="44.930893132186604" lon="7.832746815919594"><ele>237.33333333333331</ele><time>2026-04-04T10:39:53.999Z</time></trkpt><trkpt lat="44.93073486660096" lon="7.832881028102653"><ele>237.66666666666666</ele><time>2026-04-04T10:39:54.999Z</time></trkpt><trkpt lat="44.93058564735979" lon="7.83301150246328"><ele>238.0</ele><time>2026-04-04T10:39:55.999Z</time></trkpt><trkpt lat="44.9304439867171" lon="7.833131367691811"><ele>238.0</ele><time>2026-04-04T10:39:56.999Z</time></trkpt><trkpt lat="44.93030189872749" lon="7.833250354943146"><ele>238.0</ele><time>2026-04-04T10:39:57.999Z</time></trkpt><trkpt lat="44.930166967091125" lon="7.833364901750701"><ele>238.0</ele><time>2026-04-04T10:39:58.999Z</time></trkpt><trkpt lat="44.93004698053117" lon="7.83347380971482"><ele>238.0</ele><time>2026-04-04T10:39:59.999Z</time></trkpt><trkpt lat="44.929924723202625" lon="7.833586490709478"><ele>238.0</ele><time>2026-04-04T10:40:00.999Z</time></trkpt><trkpt lat="44.92979517953332" lon="7.833695822843914"><ele>238.0</ele><time>2026-04-04T10:40:01.999Z</time></trkpt><trkpt lat="44.92966363621034" lon="7.83380317976208"><ele>238.0</ele><time>2026-04-04T10:40:02.999Z</time></trkpt><trkpt lat="44.92953112852861" lon="7.833912420436888"><ele>238.0</ele><time>2026-04-04T10:40:03.999Z</time></trkpt><trkpt lat="44.92940005979251" lon="7.834022408130325"><ele>238.0</ele><time>2026-04-04T10:40:04.999Z</time></trkpt><trkpt lat="44.92927723712791" lon="7.8341267132119174"><ele>238.0</ele><time>2026-04-04T10:40:05.999Z</time></trkpt><trkpt lat="44.92916136362395" lon="7.834226760131205"><ele>238.0</ele><time>2026-04-04T10:40:06.999Z</time></trkpt><trkpt lat="44.92905380960335" lon="7.834320871504287"><ele>238.25</ele><time>2026-04-04T10:40:07.999Z</time></trkpt><trkpt lat="44.92895006190101" lon="7.834411198322068"><ele>238.5</ele><time>2026-04-04T10:40:08.999Z</time></trkpt><trkpt lat="44.92885288525165" lon="7.83449869917462"><ele>238.75</ele><time>2026-04-04T10:40:09.999Z</time></trkpt><trkpt lat="44.92875906203213" lon="7.8345823104642545"><ele>239.0</ele><time>2026-04-04T10:40:10.999Z</time></trkpt><trkpt lat="44.9286666151849" lon="7.834657278467297"><ele>239.00000000000003</ele><time>2026-04-04T10:40:11.999Z</time></trkpt><trkpt lat="44.92858201525488" lon="7.834721600974105"><ele>239.0</ele><time>2026-04-04T10:40:12.999Z</time></trkpt><trkpt lat="44.92850100777842" lon="7.8347766255715685"><ele>239.0</ele><time>2026-04-04T10:40:13.999Z</time></trkpt><trkpt lat="44.928428728351214" lon="7.834831738094785"><ele>239.0</ele><time>2026-04-04T10:40:14.999Z</time></trkpt><trkpt lat="44.928357749173884" lon="7.834891854172089"><ele>239.00000000000003</ele><time>2026-04-04T10:40:15.999Z</time></trkpt><trkpt lat="44.9282966481388" lon="7.834943312565118"><ele>239.0</ele><time>2026-04-04T10:40:16.999Z</time></trkpt><trkpt lat="44.9282409663837" lon="7.835008122808732"><ele>239.0</ele><time>2026-04-04T10:40:17.999Z</time></trkpt><trkpt lat="44.928188814886894" lon="7.83506354362012"><ele>238.99999999999997</ele><time>2026-04-04T10:40:18.999Z</time></trkpt><trkpt lat="44.9281166344299" lon="7.8351924882433615"><ele>238.99999999999997</ele><time>2026-04-04T10:40:20.999Z</time></trkpt><trkpt lat="44.928069874765036" lon="7.835276457981877"><ele>239.0</ele><time>2026-04-04T10:40:22.999Z</time></trkpt><trkpt lat="44.92798601261817" lon="7.835356853731747"><ele>239.0</ele><time>2026-04-04T10:40:24.999Z</time></trkpt><trkpt lat="44.92788331483021" lon="7.835430809674611"><ele>239.00000000000003</ele><time>2026-04-04T10:40:26.999Z</time></trkpt><trkpt lat="44.92785209233108" lon="7.835509731294332"><ele>239.0</ele><time>2026-04-04T10:40:27.999Z</time></trkpt><trkpt lat="44.927752547766026" lon="7.835502332556629"><ele>239.0</ele><time>2026-04-04T10:40:28.999Z</time></trkpt><trkpt lat="44.92767578313105" lon="7.835528945078935"><ele>239.0</ele><time>2026-04-04T10:40:29.999Z</time></trkpt><trkpt lat="44.92759419017305" lon="7.835569845685356"><ele>239.00000000000003</ele><time>2026-04-04T10:40:30.999Z</time></trkpt><trkpt lat="44.92751744305911" lon="7.835631189901474"><ele>239.0</ele><time>2026-04-04T10:40:31.999Z</time></trkpt><trkpt lat="44.92744066326968" lon="7.835697554178995"><ele>239.0</ele><time>2026-04-04T10:40:32.999Z</time></trkpt><trkpt lat="44.9273577180985" lon="7.83576060110939"><ele>238.99999999999997</ele><time>2026-04-04T10:40:33.999Z</time></trkpt><trkpt lat="44.92727357485712" lon="7.835834250357012"><ele>238.99999999999997</ele><time>2026-04-04T10:40:34.999Z</time></trkpt><trkpt lat="44.92719225892099" lon="7.835908730765467"><ele>239.0</ele><time>2026-04-04T10:40:35.999Z</time></trkpt><trkpt lat="44.92710165026856" lon="7.835959423868022"><ele>239.0</ele><time>2026-04-04T10:40:36.998Z</time></trkpt><trkpt lat="44.92702187829666" lon="7.836026134140918"><ele>239.2</ele><time>2026-04-04T10:40:37.998Z</time></trkpt><trkpt lat="44.92695155350489" lon="7.836119439546677"><ele>239.39999999999998</ele><time>2026-04-04T10:40:38.998Z</time></trkpt><trkpt lat="44.92687591528009" lon="7.836180664945612"><ele>239.6</ele><time>2026-04-04T10:40:39.998Z</time></trkpt><trkpt lat="44.92679890850539" lon="7.836244605453205"><ele>239.8</ele><time>2026-04-04T10:40:40.998Z</time></trkpt><trkpt lat="44.92671157317438" lon="7.836316580642854"><ele>240.0</ele><time>2026-04-04T10:40:41.998Z</time></trkpt><trkpt lat="44.92661203392389" lon="7.83637364519467"><ele>240.0</ele><time>2026-04-04T10:40:42.998Z</time></trkpt><trkpt lat="44.926517511732754" lon="7.836454271344032"><ele>240.0</ele><time>2026-04-04T10:40:43.998Z</time></trkpt><trkpt lat="44.926425082631674" lon="7.836556264458298"><ele>240.0</ele><time>2026-04-04T10:40:44.998Z</time></trkpt><trkpt lat="44.92632454717603" lon="7.836642715420375"><ele>240.0</ele><time>2026-04-04T10:40:45.998Z</time></trkpt><trkpt lat="44.92622099339381" lon="7.836730966866231"><ele>239.5</ele><time>2026-04-04T10:40:46.998Z</time></trkpt><trkpt lat="44.92612461807611" lon="7.8368137253549"><ele>239.0</ele><time>2026-04-04T10:40:47.998Z</time></trkpt><trkpt lat="44.92601719365473" lon="7.836881107537693"><ele>238.5</ele><time>2026-04-04T10:40:49Z</time></trkpt><trkpt lat="44.92592241094094" lon="7.8369763367884335"><ele>238.0</ele><time>2026-04-04T10:40:50Z</time></trkpt><trkpt lat="44.92582566339089" lon="7.837061975784542"><ele>238.0</ele><time>2026-04-04T10:40:51Z</time></trkpt><trkpt lat="44.9257311678439" lon="7.837139374019815"><ele>238.0</ele><time>2026-04-04T10:40:52Z</time></trkpt><trkpt lat="44.92563102824049" lon="7.837209429913475"><ele>238.0</ele><time>2026-04-04T10:40:53Z</time></trkpt><trkpt lat="44.92554479179251" lon="7.83728283430999"><ele>238.0</ele><time>2026-04-04T10:40:54Z</time></trkpt><trkpt lat="44.92545411332036" lon="7.837360019765099"><ele>238.0</ele><time>2026-04-04T10:40:55Z</time></trkpt><trkpt lat="44.925356924944424" lon="7.837442746449635"><ele>238.0</ele><time>2026-04-04T10:40:56Z</time></trkpt><trkpt lat="44.92526350797387" lon="7.8375222631367665"><ele>238.0</ele><time>2026-04-04T10:40:57Z</time></trkpt><trkpt lat="44.925177168124506" lon="7.837596792982054"><ele>238.0</ele><time>2026-04-04T10:40:58Z</time></trkpt><trkpt lat="44.92509918238738" lon="7.837663234257023"><ele>238.0</ele><time>2026-04-04T10:40:59Z</time></trkpt><trkpt lat="44.92503126325155" lon="7.83772123261178"><ele>238.0</ele><time>2026-04-04T10:41:00Z</time></trkpt><trkpt lat="44.924969002400374" lon="7.8377743991871895"><ele>237.99999999999997</ele><time>2026-04-04T10:41:01Z</time></trkpt><trkpt lat="44.924911727725934" lon="7.837823307884945"><ele>238.0</ele><time>2026-04-04T10:41:02Z</time></trkpt><trkpt lat="44.924809384384055" lon="7.83790803069554"><ele>238.0</ele><time>2026-04-04T10:41:04Z</time></trkpt><trkpt lat="44.92472863617355" lon="7.837973326635918"><ele>238.0</ele><time>2026-04-04T10:41:06Z</time></trkpt><trkpt lat="44.92465718389879" lon="7.837971402570879"><ele>237.99999999999997</ele><time>2026-04-04T10:41:09Z</time></trkpt><trkpt lat="44.92456787726339" lon="7.8379363989895685"><ele>238.0</ele><time>2026-04-04T10:41:11Z</time></trkpt><trkpt lat="44.92445155183639" lon="7.837877767486293"><ele>237.99999999999997</ele><time>2026-04-04T10:41:13Z</time></trkpt><trkpt lat="44.92433946566282" lon="7.8379689582314125"><ele>238.0</ele><time>2026-04-04T10:41:15Z</time></trkpt><trkpt lat="44.92429048357068" lon="7.838034148548926"><ele>238.0</ele><time>2026-04-04T10:41:16Z</time></trkpt><trkpt lat="44.92429438971312" lon="7.838143115945773"><ele>238.0</ele><time>2026-04-04T10:41:17Z</time></trkpt><trkpt lat="44.92431995280764" lon="7.838235539264122"><ele>237.99999999999997</ele><time>2026-04-04T10:41:18Z</time></trkpt><trkpt lat="44.92434681300555" lon="7.83831747968651"><ele>238.0</ele><time>2026-04-04T10:41:19Z</time></trkpt><trkpt lat="44.92440103103258" lon="7.838389579737889"><ele>238.0</ele><time>2026-04-04T10:41:20Z</time></trkpt><trkpt lat="44.92446035890548" lon="7.838441367084643"><ele>238.0</ele><time>2026-04-04T10:41:21Z</time></trkpt><trkpt lat="44.9245761256402" lon="7.838534610495835"><ele>238.0</ele><time>2026-04-04T10:41:23Z</time></trkpt><trkpt lat="44.92463922470172" lon="7.838613454515399"><ele>238.0</ele><time>2026-04-04T10:41:24Z</time></trkpt><trkpt lat="44.924700410496975" lon="7.8387016292412905"><ele>238.0</ele><time>2026-04-04T10:41:25Z</time></trkpt><trkpt lat="44.92475244458887" lon="7.838811835738308"><ele>238.0</ele><time>2026-04-04T10:41:26Z</time></trkpt><trkpt lat="44.924801136961456" lon="7.8389267714433695"><ele>238.0</ele><time>2026-04-04T10:41:27Z</time></trkpt><trkpt lat="44.924835234992585" lon="7.8390693868652015"><ele>238.0</ele><time>2026-04-04T10:41:28Z</time></trkpt><trkpt lat="44.92487323862603" lon="7.83920985742863"><ele>238.0</ele><time>2026-04-04T10:41:29Z</time></trkpt><trkpt lat="44.924906075629934" lon="7.839344379240258"><ele>238.0</ele><time>2026-04-04T10:41:30Z</time></trkpt><trkpt lat="44.924935282826695" lon="7.839488318377035"><ele>238.0</ele><time>2026-04-04T10:41:31Z</time></trkpt><trkpt lat="44.924961813508624" lon="7.839643336430113"><ele>238.0</ele><time>2026-04-04T10:41:32Z</time></trkpt><trkpt lat="44.92497402277475" lon="7.839802116178605"><ele>238.0</ele><time>2026-04-04T10:41:33Z</time></trkpt><trkpt lat="44.92498416808476" lon="7.8399726772177525"><ele>238.0</ele><time>2026-04-04T10:41:34Z</time></trkpt><trkpt lat="44.92498789057314" lon="7.840150634618506"><ele>237.75</ele><time>2026-04-04T10:41:35Z</time></trkpt><trkpt lat="44.92498366118287" lon="7.840328007486151"><ele>237.5</ele><time>2026-04-04T10:41:36Z</time></trkpt><trkpt lat="44.924978970073134" lon="7.840508138278414"><ele>237.25</ele><time>2026-04-04T10:41:37Z</time></trkpt><trkpt lat="44.924983827900014" lon="7.8406932606272"><ele>237.0</ele><time>2026-04-04T10:41:38Z</time></trkpt><trkpt lat="44.924993687788366" lon="7.840862947971272"><ele>236.75</ele><time>2026-04-04T10:41:39Z</time></trkpt><trkpt lat="44.92499212368561" lon="7.841051110637092"><ele>236.5</ele><time>2026-04-04T10:41:40Z</time></trkpt><trkpt lat="44.9249849665488" lon="7.841248149534303"><ele>236.25</ele><time>2026-04-04T10:41:41Z</time></trkpt><trkpt lat="44.92497516181853" lon="7.841452481550453"><ele>236.0</ele><time>2026-04-04T10:41:42Z</time></trkpt><trkpt lat="44.92496823348655" lon="7.841661424035349"><ele>236.66666666666669</ele><time>2026-04-04T10:41:43Z</time></trkpt><trkpt lat="44.92495953424115" lon="7.841876957199088"><ele>237.33333333333331</ele><time>2026-04-04T10:41:43.999Z</time></trkpt><trkpt lat="44.92494853660532" lon="7.842084744537789"><ele>238.0</ele><time>2026-04-04T10:41:44.999Z</time></trkpt><trkpt lat="44.92494491016465" lon="7.842304395065008"><ele>238.0</ele><time>2026-04-04T10:41:45.999Z</time></trkpt><trkpt lat="44.92495186013399" lon="7.84253334649887"><ele>238.0</ele><time>2026-04-04T10:41:46.999Z</time></trkpt><trkpt lat="44.92497211518565" lon="7.842765798395969"><ele>238.0</ele><time>2026-04-04T10:41:47.999Z</time></trkpt><trkpt lat="44.92500282460039" lon="7.843002260903957"><ele>238.0</ele><time>2026-04-04T10:41:48.999Z</time></trkpt><trkpt lat="44.92504024950159" lon="7.84324227526483"><ele>238.0</ele><time>2026-04-04T10:41:49.999Z</time></trkpt><trkpt lat="44.92508968392175" lon="7.843483330117854"><ele>238.0</ele><time>2026-04-04T10:41:50.999Z</time></trkpt><trkpt lat="44.92515573234899" lon="7.843725313985352"><ele>238.0</ele><time>2026-04-04T10:41:51.999Z</time></trkpt><trkpt lat="44.925230527927745" lon="7.8439650187120025"><ele>238.0</ele><time>2026-04-04T10:41:52.999Z</time></trkpt><trkpt lat="44.92532031687067" lon="7.844201626907336"><ele>238.0</ele><time>2026-04-04T10:41:53.999Z</time></trkpt><trkpt lat="44.925422413509835" lon="7.844434223118233"><ele>238.0</ele><time>2026-04-04T10:41:54.999Z</time></trkpt><trkpt lat="44.9255300203351" lon="7.844666465932614"><ele>238.0</ele><time>2026-04-04T10:41:55.999Z</time></trkpt><trkpt lat="44.92564187170116" lon="7.844901553057285"><ele>238.0</ele><time>2026-04-04T10:41:56.999Z</time></trkpt><trkpt lat="44.925755002278215" lon="7.845141966359307"><ele>238.0</ele><time>2026-04-04T10:41:57.999Z</time></trkpt><trkpt lat="44.9258669724935" lon="7.845386611561502"><ele>238.0</ele><time>2026-04-04T10:41:58.999Z</time></trkpt><trkpt lat="44.9259800458876" lon="7.845630757358855"><ele>238.0</ele><time>2026-04-04T10:41:59.999Z</time></trkpt><trkpt lat="44.92609183155949" lon="7.845865585096292"><ele>238.33333333333331</ele><time>2026-04-04T10:42:00.999Z</time></trkpt><trkpt lat="44.92619853758865" lon="7.846086207447493"><ele>238.66666666666669</ele><time>2026-04-04T10:42:01.999Z</time></trkpt><trkpt lat="44.926298859051" lon="7.84629186128831"><ele>239.0</ele><time>2026-04-04T10:42:02.999Z</time></trkpt><trkpt lat="44.926399081558586" lon="7.846487415405438"><ele>239.0</ele><time>2026-04-04T10:42:03.999Z</time></trkpt><trkpt lat="44.92650541821839" lon="7.846666650016391"><ele>239.0</ele><time>2026-04-04T10:42:04.999Z</time></trkpt><trkpt lat="44.926622897636314" lon="7.846835591091078"><ele>239.0</ele><time>2026-04-04T10:42:05.999Z</time></trkpt><trkpt lat="44.92675490337317" lon="7.8469880754654024"><ele>238.66666666666669</ele><time>2026-04-04T10:42:06.999Z</time></trkpt><trkpt lat="44.92689793960114" lon="7.84712748158896"><ele>238.33333333333331</ele><time>2026-04-04T10:42:07.999Z</time></trkpt><trkpt lat="44.92704812138669" lon="7.847251561920877"><ele>238.0</ele><time>2026-04-04T10:42:08.999Z</time></trkpt><trkpt lat="44.927203845064845" lon="7.847354109201244"><ele>238.0</ele><time>2026-04-04T10:42:09.999Z</time></trkpt><trkpt lat="44.92736486983683" lon="7.847434254120155"><ele>238.0</ele><time>2026-04-04T10:42:10.999Z</time></trkpt><trkpt lat="44.92752815732248" lon="7.847493656828052"><ele>238.0</ele><time>2026-04-04T10:42:11.999Z</time></trkpt><trkpt lat="44.92768443200953" lon="7.847557820125015"><ele>238.0</ele><time>2026-04-04T10:42:12.999Z</time></trkpt><trkpt lat="44.92784332583539" lon="7.847591782887146"><ele>238.0</ele><time>2026-04-04T10:42:13.999Z</time></trkpt><trkpt lat="44.92800177987516" lon="7.847646372073231"><ele>238.0</ele><time>2026-04-04T10:42:14.999Z</time></trkpt><trkpt lat="44.92814435985419" lon="7.847726225752937"><ele>238.0</ele><time>2026-04-04T10:42:15.999Z</time></trkpt><trkpt lat="44.92828110120688" lon="7.84782796993276"><ele>238.0</ele><time>2026-04-04T10:42:16.999Z</time></trkpt><trkpt lat="44.92840379201627" lon="7.847952377513542"><ele>238.0</ele><time>2026-04-04T10:42:17.999Z</time></trkpt><trkpt lat="44.92850625420792" lon="7.848078744982317"><ele>238.0</ele><time>2026-04-04T10:42:18.999Z</time></trkpt><trkpt lat="44.92857917950432" lon="7.848199839673659"><ele>238.16666666666666</ele><time>2026-04-04T10:42:19.999Z</time></trkpt><trkpt lat="44.92863243972522" lon="7.84831282336684"><ele>238.33333333333331</ele><time>2026-04-04T10:42:20.999Z</time></trkpt><trkpt lat="44.92866654981856" lon="7.84841560849974"><ele>238.5</ele><time>2026-04-04T10:42:21.999Z</time></trkpt><trkpt lat="44.928683266979654" lon="7.848516920337012"><ele>238.66666666666669</ele><time>2026-04-04T10:42:22.999Z</time></trkpt><trkpt lat="44.928677468189136" lon="7.848617480096762"><ele>238.83333333333334</ele><time>2026-04-04T10:42:23.999Z</time></trkpt><trkpt lat="44.928651007744016" lon="7.848710612612301"><ele>239.0</ele><time>2026-04-04T10:42:24.999Z</time></trkpt><trkpt lat="44.92860177952955" lon="7.8488023061308745"><ele>239.0</ele><time>2026-04-04T10:42:25.999Z</time></trkpt><trkpt lat="44.92855503722197" lon="7.848904762892997"><ele>238.99999999999997</ele><time>2026-04-04T10:42:26.999Z</time></trkpt><trkpt lat="44.92852996580252" lon="7.849030639751145"><ele>238.99999999999997</ele><time>2026-04-04T10:42:27.999Z</time></trkpt><trkpt lat="44.92853351892991" lon="7.849170622405128"><ele>239.0</ele><time>2026-04-04T10:42:28.999Z</time></trkpt><trkpt lat="44.928571268946676" lon="7.849311519003207"><ele>239.0</ele><time>2026-04-04T10:42:29.999Z</time></trkpt><trkpt lat="44.92863248331277" lon="7.849443630679278"><ele>238.75</ele><time>2026-04-04T10:42:30.999Z</time></trkpt><trkpt lat="44.92869116234027" lon="7.849587452243587"><ele>238.5</ele><time>2026-04-04T10:42:31.999Z</time></trkpt><trkpt lat="44.92873507194162" lon="7.849750683275149"><ele>238.25</ele><time>2026-04-04T10:42:32.999Z</time></trkpt><trkpt lat="44.92874759159832" lon="7.849931991046614"><ele>238.0</ele><time>2026-04-04T10:42:33.999Z</time></trkpt><trkpt lat="44.92873525370527" lon="7.8501149031547"><ele>238.0</ele><time>2026-04-04T10:42:34.999Z</time></trkpt><trkpt lat="44.928710032070256" lon="7.850298211647321"><ele>238.0</ele><time>2026-04-04T10:42:35.999Z</time></trkpt><trkpt lat="44.928676582478815" lon="7.850491603965154"><ele>238.0</ele><time>2026-04-04T10:42:36.999Z</time></trkpt><trkpt lat="44.92863941327578" lon="7.850694698618171"><ele>238.0</ele><time>2026-04-04T10:42:37.999Z</time></trkpt><trkpt lat="44.92859183085405" lon="7.850902448644794"><ele>238.0</ele><time>2026-04-04T10:42:38.999Z</time></trkpt><trkpt lat="44.92854020380195" lon="7.851118032199695"><ele>238.0</ele><time>2026-04-04T10:42:39.999Z</time></trkpt><trkpt lat="44.92848709106708" lon="7.851322940476013"><ele>238.0</ele><time>2026-04-04T10:42:40.999Z</time></trkpt><trkpt lat="44.9284278507975" lon="7.851528210995674"><ele>238.0</ele><time>2026-04-04T10:42:41.999Z</time></trkpt><trkpt lat="44.92836205739391" lon="7.851741333358199"><ele>238.0</ele><time>2026-04-04T10:42:42.999Z</time></trkpt><trkpt lat="44.928296493078875" lon="7.851958258428473"><ele>238.0</ele><time>2026-04-04T10:42:43.999Z</time></trkpt><trkpt lat="44.92822920690935" lon="7.852181426473915"><ele>238.0</ele><time>2026-04-04T10:42:44.998Z</time></trkpt><trkpt lat="44.92815918222545" lon="7.852406053031238"><ele>238.0</ele><time>2026-04-04T10:42:45.998Z</time></trkpt><trkpt lat="44.928087837376225" lon="7.852636940667717"><ele>238.0</ele><time>2026-04-04T10:42:46.998Z</time></trkpt><trkpt lat="44.92801825477373" lon="7.85287157576879"><ele>238.0</ele><time>2026-04-04T10:42:47.998Z</time></trkpt><trkpt lat="44.92794865883212" lon="7.853110320784512"><ele>238.0</ele><time>2026-04-04T10:42:48.998Z</time></trkpt><trkpt lat="44.92787810005779" lon="7.853348809331339"><ele>238.0</ele><time>2026-04-04T10:42:49.998Z</time></trkpt><trkpt lat="44.92780289366762" lon="7.85356804231219"><ele>238.0</ele><time>2026-04-04T10:42:50.998Z</time></trkpt><trkpt lat="44.927732892611544" lon="7.853795601518418"><ele>238.0</ele><time>2026-04-04T10:42:51.998Z</time></trkpt><trkpt lat="44.92765478842278" lon="7.854025564896106"><ele>238.0</ele><time>2026-04-04T10:42:52.998Z</time></trkpt><trkpt lat="44.92755076051881" lon="7.854237802984552"><ele>238.0</ele><time>2026-04-04T10:42:53.998Z</time></trkpt><trkpt lat="44.92745164849295" lon="7.854456378709288"><ele>238.0</ele><time>2026-04-04T10:42:55Z</time></trkpt><trkpt lat="44.927344998981134" lon="7.854674979150945"><ele>238.0</ele><time>2026-04-04T10:42:56Z</time></trkpt><trkpt lat="44.927235260771425" lon="7.85488558538018"><ele>238.0</ele><time>2026-04-04T10:42:57Z</time></trkpt><trkpt lat="44.927116610761864" lon="7.855089930281915"><ele>238.0</ele><time>2026-04-04T10:42:58Z</time></trkpt><trkpt lat="44.926994066378334" lon="7.855288100900284"><ele>238.0</ele><time>2026-04-04T10:42:59Z</time></trkpt><trkpt lat="44.926864611528146" lon="7.855484827526082"><ele>238.0</ele><time>2026-04-04T10:43:00Z</time></trkpt><trkpt lat="44.92672866039911" lon="7.855670944543507"><ele>238.0</ele><time>2026-04-04T10:43:01Z</time></trkpt><trkpt lat="44.92658475398615" lon="7.855850200392696"><ele>238.0</ele><time>2026-04-04T10:43:02Z</time></trkpt><trkpt lat="44.92643869305744" lon="7.8560274356452515"><ele>240.33333333333331</ele><time>2026-04-04T10:43:03Z</time></trkpt><trkpt lat="44.92628307738127" lon="7.856195680329809"><ele>242.66666666666669</ele><time>2026-04-04T10:43:04Z</time></trkpt><trkpt lat="44.92612699379793" lon="7.856364430762603"><ele>245.0</ele><time>2026-04-04T10:43:05Z</time></trkpt><trkpt lat="44.9259722874752" lon="7.856531692257992"><ele>247.33333333333334</ele><time>2026-04-04T10:43:06Z</time></trkpt><trkpt lat="44.925813693904686" lon="7.856703214183276"><ele>249.66666666666669</ele><time>2026-04-04T10:43:07Z</time></trkpt><trkpt lat="44.925662846758215" lon="7.85686639544654"><ele>252.0</ele><time>2026-04-04T10:43:08Z</time></trkpt><trkpt lat="44.9255150905496" lon="7.857048597174083"><ele>252.33333333333331</ele><time>2026-04-04T10:43:09Z</time></trkpt><trkpt lat="44.92535886911039" lon="7.857214851141857"><ele>252.66666666666666</ele><time>2026-04-04T10:43:10Z</time></trkpt><trkpt lat="44.92518376651742" lon="7.8573827409555665"><ele>253.0</ele><time>2026-04-04T10:43:11Z</time></trkpt><trkpt lat="44.925018393300384" lon="7.857560502146377"><ele>252.0</ele><time>2026-04-04T10:43:12Z</time></trkpt><trkpt lat="44.924847504197075" lon="7.85774419237779"><ele>251.0</ele><time>2026-04-04T10:43:13Z</time></trkpt><trkpt lat="44.92470945424134" lon="7.8579129786121955"><ele>250.0</ele><time>2026-04-04T10:43:14Z</time></trkpt><trkpt lat="44.924546423602195" lon="7.85808512081718"><ele>250.0</ele><time>2026-04-04T10:43:15Z</time></trkpt><trkpt lat="44.92438729426801" lon="7.858265589048464"><ele>250.0</ele><time>2026-04-04T10:43:16Z</time></trkpt><trkpt lat="44.92422259074496" lon="7.858440359915228"><ele>250.0</ele><time>2026-04-04T10:43:17Z</time></trkpt><trkpt lat="44.92405558066346" lon="7.8586115602977795"><ele>250.33333333333331</ele><time>2026-04-04T10:43:18Z</time></trkpt><trkpt lat="44.92389112350137" lon="7.85878864820567"><ele>250.66666666666669</ele><time>2026-04-04T10:43:19Z</time></trkpt><trkpt lat="44.92372983646569" lon="7.858963856359476"><ele>251.0</ele><time>2026-04-04T10:43:20Z</time></trkpt><trkpt lat="44.92356204130776" lon="7.859143646191273"><ele>251.33333333333334</ele><time>2026-04-04T10:43:21Z</time></trkpt><trkpt lat="44.923394726203696" lon="7.859325372071904"><ele>251.66666666666669</ele><time>2026-04-04T10:43:22Z</time></trkpt><trkpt lat="44.92321889127448" lon="7.859487782706198"><ele>252.0</ele><time>2026-04-04T10:43:23Z</time></trkpt><trkpt lat="44.92305701234294" lon="7.859682996414778"><ele>252.0</ele><time>2026-04-04T10:43:24Z</time></trkpt><trkpt lat="44.922888524882225" lon="7.859860720826183"><ele>252.0</ele><time>2026-04-04T10:43:25Z</time></trkpt><trkpt lat="44.922717931251" lon="7.860037683848557"><ele>252.0</ele><time>2026-04-04T10:43:26Z</time></trkpt><trkpt lat="44.922559554824694" lon="7.860205532692327"><ele>251.33333333333331</ele><time>2026-04-04T10:43:27Z</time></trkpt><trkpt lat="44.922415054886166" lon="7.8603684707630945"><ele>250.66666666666666</ele><time>2026-04-04T10:43:28Z</time></trkpt><trkpt lat="44.92227978259847" lon="7.860526087618015"><ele>250.0</ele><time>2026-04-04T10:43:29Z</time></trkpt><trkpt lat="44.92216269881197" lon="7.860682304835811"><ele>250.0</ele><time>2026-04-04T10:43:30Z</time></trkpt><trkpt lat="44.922055335196305" lon="7.860838631132617"><ele>250.0</ele><time>2026-04-04T10:43:31Z</time></trkpt><trkpt lat="44.921941229906146" lon="7.860984925256095"><ele>250.0</ele><time>2026-04-04T10:43:32Z</time></trkpt><trkpt lat="44.92184766938595" lon="7.8611385130368845"><ele>249.99999999999997</ele><time>2026-04-04T10:43:33Z</time></trkpt><trkpt lat="44.921783671017394" lon="7.861279164678547"><ele>250.0</ele><time>2026-04-04T10:43:34Z</time></trkpt><trkpt lat="44.921723707290525" lon="7.861367659574736"><ele>250.0</ele><time>2026-04-04T10:43:35Z</time></trkpt><trkpt lat="44.9216857270644" lon="7.861450383976913"><ele>250.0</ele><time>2026-04-04T10:43:36Z</time></trkpt><trkpt lat="44.921644855845" lon="7.861518398528469"><ele>249.99999999999997</ele><time>2026-04-04T10:43:38Z</time></trkpt><trkpt lat="44.921568564371235" lon="7.861562070134375"><ele>250.0</ele><time>2026-04-04T10:43:42Z</time></trkpt><trkpt lat="44.92147190153694" lon="7.861578579316694"><ele>250.33333333333331</ele><time>2026-04-04T10:43:43.999Z</time></trkpt><trkpt lat="44.92136322406775" lon="7.861662097796139"><ele>250.66666666666666</ele><time>2026-04-04T10:43:45.999Z</time></trkpt><trkpt lat="44.92132260935905" lon="7.8617582034448175"><ele>251.0</ele><time>2026-04-04T10:43:46.999Z</time></trkpt><trkpt lat="44.92129355679401" lon="7.8618599696821265"><ele>251.33333333333331</ele><time>2026-04-04T10:43:47.999Z</time></trkpt><trkpt lat="44.92125997316362" lon="7.861958392722027"><ele>251.66666666666666</ele><time>2026-04-04T10:43:48.999Z</time></trkpt><trkpt lat="44.92121107530776" lon="7.862058470873665"><ele>252.0</ele><time>2026-04-04T10:43:49.999Z</time></trkpt><trkpt lat="44.92114436323805" lon="7.862164530913887"><ele>252.0</ele><time>2026-04-04T10:43:50.999Z</time></trkpt><trkpt lat="44.92105018257679" lon="7.862238211002466"><ele>252.0</ele><time>2026-04-04T10:43:51.999Z</time></trkpt><trkpt lat="44.92095166202203" lon="7.862326634652286"><ele>252.0</ele><time>2026-04-04T10:43:52.999Z</time></trkpt><trkpt lat="44.92084552404978" lon="7.862430642136121"><ele>252.0</ele><time>2026-04-04T10:43:53.999Z</time></trkpt><trkpt lat="44.92071996425504" lon="7.862518518037861"><ele>251.5</ele><time>2026-04-04T10:43:54.999Z</time></trkpt><trkpt lat="44.92058720217386" lon="7.862602417165283"><ele>251.0</ele><time>2026-04-04T10:43:55.999Z</time></trkpt><trkpt lat="44.92044824591646" lon="7.862654978562776"><ele>250.5</ele><time>2026-04-04T10:43:56.999Z</time></trkpt><trkpt lat="44.92031068484916" lon="7.8627179481452165"><ele>250.0</ele><time>2026-04-04T10:43:57.999Z</time></trkpt><trkpt lat="44.92017000860156" lon="7.862793027169144"><ele>250.66666666666666</ele><time>2026-04-04T10:43:58.999Z</time></trkpt><trkpt lat="44.920015997132964" lon="7.862833039920435"><ele>251.33333333333331</ele><time>2026-04-04T10:43:59.999Z</time></trkpt><trkpt lat="44.919860860071054" lon="7.8628420146749365"><ele>252.0</ele><time>2026-04-04T10:44:00.999Z</time></trkpt><trkpt lat="44.91970266405823" lon="7.862859100401449"><ele>252.0</ele><time>2026-04-04T10:44:01.999Z</time></trkpt><trkpt lat="44.91953945410911" lon="7.862862372467661"><ele>252.0</ele><time>2026-04-04T10:44:02.999Z</time></trkpt><trkpt lat="44.91938571900572" lon="7.86285550923789"><ele>252.0</ele><time>2026-04-04T10:44:03.999Z</time></trkpt><trkpt lat="44.9192334834528" lon="7.862832259858222"><ele>251.66666666666669</ele><time>2026-04-04T10:44:04.999Z</time></trkpt><trkpt lat="44.91908436595984" lon="7.86279777986409"><ele>251.33333333333334</ele><time>2026-04-04T10:44:05.999Z</time></trkpt><trkpt lat="44.9189315249079" lon="7.862752497386296"><ele>251.0</ele><time>2026-04-04T10:44:06.999Z</time></trkpt><trkpt lat="44.91878795576329" lon="7.862702693509544"><ele>251.0</ele><time>2026-04-04T10:44:07.999Z</time></trkpt><trkpt lat="44.91863224830913" lon="7.862644220345299"><ele>251.0</ele><time>2026-04-04T10:44:08.999Z</time></trkpt><trkpt lat="44.918483829001644" lon="7.862587252931292"><ele>251.0</ele><time>2026-04-04T10:44:09.999Z</time></trkpt><trkpt lat="44.91834143451493" lon="7.862532597911206"><ele>250.75</ele><time>2026-04-04T10:44:10.999Z</time></trkpt><trkpt lat="44.918207719597795" lon="7.862480540915167"><ele>250.5</ele><time>2026-04-04T10:44:11.999Z</time></trkpt><trkpt lat="44.91806062266244" lon="7.86244352461902"><ele>250.25</ele><time>2026-04-04T10:44:12.999Z</time></trkpt><trkpt lat="44.91791802243009" lon="7.862391821655218"><ele>250.0</ele><time>2026-04-04T10:44:13.999Z</time></trkpt><trkpt lat="44.917773286311544" lon="7.862333780996417"><ele>250.0</ele><time>2026-04-04T10:44:14.999Z</time></trkpt><trkpt lat="44.91763475520869" lon="7.862259627427421"><ele>250.0</ele><time>2026-04-04T10:44:15.999Z</time></trkpt><trkpt lat="44.917492011920224" lon="7.862204662050834"><ele>250.0</ele><time>2026-04-04T10:44:16.999Z</time></trkpt><trkpt lat="44.917347223178936" lon="7.862148909137629"><ele>250.0</ele><time>2026-04-04T10:44:17.999Z</time></trkpt><trkpt lat="44.917206314807196" lon="7.862092425460645"><ele>250.0</ele><time>2026-04-04T10:44:18.999Z</time></trkpt><trkpt lat="44.91706000187807" lon="7.862026618326259"><ele>250.0</ele><time>2026-04-04T10:44:19.999Z</time></trkpt><trkpt lat="44.91692590416957" lon="7.861947178946929"><ele>250.0</ele><time>2026-04-04T10:44:20.999Z</time></trkpt><trkpt lat="44.91679326412932" lon="7.861856998981962"><ele>250.0</ele><time>2026-04-04T10:44:21.999Z</time></trkpt><trkpt lat="44.91666902436473" lon="7.8617522184219295"><ele>251.33333333333331</ele><time>2026-04-04T10:44:22.999Z</time></trkpt><trkpt lat="44.91654732078206" lon="7.8616252862436005"><ele>252.66666666666669</ele><time>2026-04-04T10:44:23.999Z</time></trkpt><trkpt lat="44.91643058306726" lon="7.861488197406098"><ele>254.0</ele><time>2026-04-04T10:44:24.999Z</time></trkpt><trkpt lat="44.916320338561675" lon="7.861338800529449"><ele>254.0</ele><time>2026-04-04T10:44:25.999Z</time></trkpt><trkpt lat="44.91620282617416" lon="7.86120113625933"><ele>254.0</ele><time>2026-04-04T10:44:26.999Z</time></trkpt><trkpt lat="44.916096014459534" lon="7.861040694890803"><ele>254.0</ele><time>2026-04-04T10:44:27.999Z</time></trkpt><trkpt lat="44.91600125167491" lon="7.860864027580243"><ele>253.66666666666669</ele><time>2026-04-04T10:44:28.999Z</time></trkpt><trkpt lat="44.91587863306005" lon="7.860720938759053"><ele>253.33333333333331</ele><time>2026-04-04T10:44:29.999Z</time></trkpt><trkpt lat="44.91577609051702" lon="7.860563874165337"><ele>253.0</ele><time>2026-04-04T10:44:30.999Z</time></trkpt><trkpt lat="44.915646656223835" lon="7.860426898800307"><ele>253.0</ele><time>2026-04-04T10:44:31.999Z</time></trkpt><trkpt lat="44.91551465440306" lon="7.860312275408916"><ele>253.0</ele><time>2026-04-04T10:44:32.999Z</time></trkpt><trkpt lat="44.91536909218517" lon="7.860212018461206"><ele>253.0</ele><time>2026-04-04T10:44:33.999Z</time></trkpt><trkpt lat="44.91521494707175" lon="7.860128916947951"><ele>253.66666666666666</ele><time>2026-04-04T10:44:34.999Z</time></trkpt><trkpt lat="44.91505470956332" lon="7.860064101901902"><ele>254.33333333333331</ele><time>2026-04-04T10:44:35.999Z</time></trkpt><trkpt lat="44.91489289368132" lon="7.860012095494089"><ele>255.0</ele><time>2026-04-04T10:44:36.999Z</time></trkpt><trkpt lat="44.914726804613494" lon="7.859963550275075"><ele>255.0</ele><time>2026-04-04T10:44:37.999Z</time></trkpt><trkpt lat="44.91455901003567" lon="7.859914506605165"><ele>255.0</ele><time>2026-04-04T10:44:38.999Z</time></trkpt><trkpt lat="44.91439630676314" lon="7.859865899357814"><ele>255.0</ele><time>2026-04-04T10:44:39.999Z</time></trkpt><trkpt lat="44.91425149331905" lon="7.859812154605417"><ele>254.5</ele><time>2026-04-04T10:44:40.999Z</time></trkpt><trkpt lat="44.91410814065521" lon="7.8597628966011746"><ele>254.0</ele><time>2026-04-04T10:44:41.999Z</time></trkpt><trkpt lat="44.913967183123965" lon="7.859686460185058"><ele>253.5</ele><time>2026-04-04T10:44:42.999Z</time></trkpt><trkpt lat="44.91383992086579" lon="7.85960153243016"><ele>253.0</ele><time>2026-04-04T10:44:43.998Z</time></trkpt><trkpt lat="44.91371972077946" lon="7.859516020777459"><ele>253.0</ele><time>2026-04-04T10:44:44.998Z</time></trkpt><trkpt lat="44.91361370558273" lon="7.859406469108985"><ele>253.0</ele><time>2026-04-04T10:44:45.998Z</time></trkpt><trkpt lat="44.9135168844769" lon="7.859313936864198"><ele>253.0</ele><time>2026-04-04T10:44:46.998Z</time></trkpt><trkpt lat="44.91342564022318" lon="7.859219442760479"><ele>253.0</ele><time>2026-04-04T10:44:47.998Z</time></trkpt><trkpt lat="44.91333894844015" lon="7.859124988277438"><ele>252.99999999999997</ele><time>2026-04-04T10:44:48.998Z</time></trkpt><trkpt lat="44.91324918729179" lon="7.859047478346252"><ele>253.0</ele><time>2026-04-04T10:44:49.998Z</time></trkpt><trkpt lat="44.91317651708811" lon="7.85895889550574"><ele>253.0</ele><time>2026-04-04T10:44:50.998Z</time></trkpt><trkpt lat="44.91311726535781" lon="7.858880071931081"><ele>253.0</ele><time>2026-04-04T10:44:51.998Z</time></trkpt><trkpt lat="44.913064059597126" lon="7.858806670976367"><ele>252.99999999999997</ele><time>2026-04-04T10:44:52.998Z</time></trkpt><trkpt lat="44.91302663770551" lon="7.8587229261733516"><ele>253.0</ele><time>2026-04-04T10:44:53.998Z</time></trkpt><trkpt lat="44.913004947688954" lon="7.858626369722309"><ele>253.00000000000003</ele><time>2026-04-04T10:44:54.998Z</time></trkpt><trkpt lat="44.91299369637417" lon="7.858525435514783"><ele>253.0</ele><time>2026-04-04T10:44:55.998Z</time></trkpt><trkpt lat="44.91296863916973" lon="7.858431550732641"><ele>253.00000000000003</ele><time>2026-04-04T10:44:56.998Z</time></trkpt><trkpt lat="44.912938274912335" lon="7.858344268270866"><ele>253.00000000000003</ele><time>2026-04-04T10:44:57.998Z</time></trkpt><trkpt lat="44.912890036268216" lon="7.858285876744126"><ele>253.0</ele><time>2026-04-04T10:44:58.998Z</time></trkpt><trkpt lat="44.91279692152144" lon="7.858322843239763"><ele>253.00000000000003</ele><time>2026-04-04T10:44:59.998Z</time></trkpt><trkpt lat="44.91273393184578" lon="7.8583545120503"><ele>253.00000000000003</ele><time>2026-04-04T10:45:01Z</time></trkpt><trkpt lat="44.9126558740468" lon="7.858510517995559"><ele>252.99999999999997</ele><time>2026-04-04T10:45:03Z</time></trkpt><trkpt lat="44.912646175182495" lon="7.85861267015554"><ele>253.0</ele><time>2026-04-04T10:45:04Z</time></trkpt><trkpt lat="44.912647914858816" lon="7.858708806098416"><ele>253.0</ele><time>2026-04-04T10:45:05Z</time></trkpt><trkpt lat="44.912628542577" lon="7.858815439190797"><ele>253.0</ele><time>2026-04-04T10:45:06Z</time></trkpt><trkpt lat="44.912590837310525" lon="7.858930471751522"><ele>252.99999999999997</ele><time>2026-04-04T10:45:07Z</time></trkpt><trkpt lat="44.91253656854545" lon="7.8590268329097315"><ele>253.0</ele><time>2026-04-04T10:45:08Z</time></trkpt><trkpt lat="44.9124967161693" lon="7.8591187184688795"><ele>252.99999999999997</ele><time>2026-04-04T10:45:09Z</time></trkpt><trkpt lat="44.91247038420496" lon="7.8592193466025915"><ele>253.0</ele><time>2026-04-04T10:45:10Z</time></trkpt><trkpt lat="44.91241488963808" lon="7.8593046067296815"><ele>253.0</ele><time>2026-04-04T10:45:12Z</time></trkpt><trkpt lat="44.91233590808072" lon="7.859230897411961"><ele>253.0</ele><time>2026-04-04T10:45:13Z</time></trkpt><trkpt lat="44.912273700288694" lon="7.859210385601166"><ele>252.99999999999997</ele><time>2026-04-04T10:45:14Z</time></trkpt><trkpt lat="44.91220478359828" lon="7.859192375186204"><ele>253.0</ele><time>2026-04-04T10:45:15Z</time></trkpt><trkpt lat="44.91212601527608" lon="7.859196871414355"><ele>253.0</ele><time>2026-04-04T10:45:16Z</time></trkpt><trkpt lat="44.91204693971442" lon="7.859154719824317"><ele>253.0</ele><time>2026-04-04T10:45:17Z</time></trkpt><trkpt lat="44.91195253895394" lon="7.859145593035649"><ele>253.0</ele><time>2026-04-04T10:45:18Z</time></trkpt><trkpt lat="44.911859493264856" lon="7.859130536500145"><ele>253.0</ele><time>2026-04-04T10:45:19Z</time></trkpt><trkpt lat="44.91177058783128" lon="7.859103755110997"><ele>253.0</ele><time>2026-04-04T10:45:20Z</time></trkpt><trkpt lat="44.911674818482844" lon="7.859080738063517"><ele>253.8</ele><time>2026-04-04T10:45:21Z</time></trkpt><trkpt lat="44.911580391062145" lon="7.859056725127387"><ele>254.60000000000002</ele><time>2026-04-04T10:45:22Z</time></trkpt><trkpt lat="44.911493805648256" lon="7.859039211068709"><ele>255.39999999999998</ele><time>2026-04-04T10:45:23Z</time></trkpt><trkpt lat="44.9113980875576" lon="7.85901295620226"><ele>256.2</ele><time>2026-04-04T10:45:24Z</time></trkpt><trkpt lat="44.91130548670992" lon="7.858969127276058"><ele>257.0</ele><time>2026-04-04T10:45:25Z</time></trkpt><trkpt lat="44.911214753704385" lon="7.858967756698414"><ele>257.0</ele><time>2026-04-04T10:45:26Z</time></trkpt><trkpt lat="44.9111253259192" lon="7.858941979776565"><ele>257.0</ele><time>2026-04-04T10:45:27Z</time></trkpt><trkpt lat="44.91103678342698" lon="7.858921941549941"><ele>257.0</ele><time>2026-04-04T10:45:28Z</time></trkpt><trkpt lat="44.910940871452304" lon="7.858891167984937"><ele>257.0</ele><time>2026-04-04T10:45:29Z</time></trkpt><trkpt lat="44.91084940051793" lon="7.858864888844341"><ele>257.0</ele><time>2026-04-04T10:45:30Z</time></trkpt><trkpt lat="44.91075404598655" lon="7.858840355104104"><ele>256.8</ele><time>2026-04-04T10:45:31Z</time></trkpt><trkpt lat="44.91065729487245" lon="7.858813627888051"><ele>256.6</ele><time>2026-04-04T10:45:32Z</time></trkpt><trkpt lat="44.910563819870085" lon="7.858790890804238"><ele>256.40000000000003</ele><time>2026-04-04T10:45:33Z</time></trkpt><trkpt lat="44.910468110150475" lon="7.858777192385757"><ele>256.2</ele><time>2026-04-04T10:45:34Z</time></trkpt><trkpt lat="44.9103847987699" lon="7.858762931907379"><ele>256.0</ele><time>2026-04-04T10:45:35Z</time></trkpt><trkpt lat="44.910305785355504" lon="7.858775192980683"><ele>255.99999999999997</ele><time>2026-04-04T10:45:36Z</time></trkpt><trkpt lat="44.910232442644805" lon="7.8587984345974755"><ele>256.0</ele><time>2026-04-04T10:45:37Z</time></trkpt><trkpt lat="44.91017195259037" lon="7.858846851408598"><ele>256.0</ele><time>2026-04-04T10:45:38Z</time></trkpt><trkpt lat="44.91012892151496" lon="7.85892218601208"><ele>256.0</ele><time>2026-04-04T10:45:39Z</time></trkpt><trkpt lat="44.9100993941042" lon="7.8590253569462405"><ele>255.99999999999997</ele><time>2026-04-04T10:45:40Z</time></trkpt><trkpt lat="44.91007964863113" lon="7.859140578656145"><ele>256.0</ele><time>2026-04-04T10:45:41Z</time></trkpt><trkpt lat="44.910071482548766" lon="7.85926450370865"><ele>255.83333333333331</ele><time>2026-04-04T10:45:42Z</time></trkpt><trkpt lat="44.91004362903518" lon="7.859386519466295"><ele>255.66666666666666</ele><time>2026-04-04T10:45:43Z</time></trkpt><trkpt lat="44.91002888469779" lon="7.859501298252908"><ele>255.5</ele><time>2026-04-04T10:45:44Z</time></trkpt><trkpt lat="44.91000791746355" lon="7.859607353932804"><ele>255.33333333333331</ele><time>2026-04-04T10:45:45Z</time></trkpt><trkpt lat="44.90997518933492" lon="7.859703199622268"><ele>255.16666666666666</ele><time>2026-04-04T10:45:45.999Z</time></trkpt><trkpt lat="44.909923314637474" lon="7.85978726363712"><ele>255.0</ele><time>2026-04-04T10:45:46.999Z</time></trkpt><trkpt lat="44.90985566979149" lon="7.859855540266686"><ele>255.0</ele><time>2026-04-04T10:45:47.999Z</time></trkpt><trkpt lat="44.90978278735682" lon="7.859912469537994"><ele>255.0</ele><time>2026-04-04T10:45:48.999Z</time></trkpt><trkpt lat="44.90970150594853" lon="7.859942266074046"><ele>255.0</ele><time>2026-04-04T10:45:49.999Z</time></trkpt><trkpt lat="44.90961604335806" lon="7.859973910175899"><ele>255.0</ele><time>2026-04-04T10:45:50.999Z</time></trkpt><trkpt lat="44.9095207104795" lon="7.860010582985158"><ele>255.0</ele><time>2026-04-04T10:45:51.999Z</time></trkpt><trkpt lat="44.909428302727406" lon="7.860046130553164"><ele>255.0</ele><time>2026-04-04T10:45:52.999Z</time></trkpt><trkpt lat="44.90932939147309" lon="7.860084289444819"><ele>255.0</ele><time>2026-04-04T10:45:53.999Z</time></trkpt><trkpt lat="44.90923142101642" lon="7.860126569284201"><ele>255.0</ele><time>2026-04-04T10:45:54.999Z</time></trkpt><trkpt lat="44.90913386711848" lon="7.860172406324642"><ele>255.0</ele><time>2026-04-04T10:45:55.999Z</time></trkpt><trkpt lat="44.909034994684994" lon="7.860221006890313"><ele>255.0</ele><time>2026-04-04T10:45:56.999Z</time></trkpt><trkpt lat="44.90893353651036" lon="7.860273199035032"><ele>255.2</ele><time>2026-04-04T10:45:57.999Z</time></trkpt><trkpt lat="44.908836651594086" lon="7.860327059653383"><ele>255.4</ele><time>2026-04-04T10:45:58.999Z</time></trkpt><trkpt lat="44.90874872114683" lon="7.860380748183071"><ele>255.60000000000002</ele><time>2026-04-04T10:45:59.999Z</time></trkpt><trkpt lat="44.90867561732831" lon="7.8604528270491585"><ele>255.8</ele><time>2026-04-04T10:46:00.999Z</time></trkpt><trkpt lat="44.90858737701762" lon="7.8604865805667945"><ele>256.0</ele><time>2026-04-04T10:46:01.999Z</time></trkpt><trkpt lat="44.90849966994201" lon="7.860545698405"><ele>256.0</ele><time>2026-04-04T10:46:02.999Z</time></trkpt><trkpt lat="44.90840900995342" lon="7.860609682652655"><ele>256.0</ele><time>2026-04-04T10:46:03.999Z</time></trkpt><trkpt lat="44.908316368945776" lon="7.860675065018567"><ele>256.0</ele><time>2026-04-04T10:46:04.999Z</time></trkpt><trkpt lat="44.9082426945174" lon="7.860753076017002"><ele>256.0</ele><time>2026-04-04T10:46:05.999Z</time></trkpt><trkpt lat="44.90815345349417" lon="7.8608018723187"><ele>256.0</ele><time>2026-04-04T10:46:06.999Z</time></trkpt><trkpt lat="44.908069106944104" lon="7.86087352340697"><ele>256.0</ele><time>2026-04-04T10:46:07.999Z</time></trkpt><trkpt lat="44.90798334452143" lon="7.8609377023639855"><ele>256.0</ele><time>2026-04-04T10:46:08.999Z</time></trkpt><trkpt lat="44.907905200455176" lon="7.861021969127918"><ele>256.0</ele><time>2026-04-04T10:46:09.999Z</time></trkpt><trkpt lat="44.90783243741235" lon="7.861119278610502"><ele>256.0</ele><time>2026-04-04T10:46:10.999Z</time></trkpt><trkpt lat="44.90776997559406" lon="7.8612374937270735"><ele>256.0</ele><time>2026-04-04T10:46:11.999Z</time></trkpt><trkpt lat="44.90771296205668" lon="7.86137021199686"><ele>256.0</ele><time>2026-04-04T10:46:12.999Z</time></trkpt><trkpt lat="44.90764961158326" lon="7.861504190313932"><ele>256.0</ele><time>2026-04-04T10:46:13.999Z</time></trkpt><trkpt lat="44.907591612120875" lon="7.8616446668787985"><ele>256.0</ele><time>2026-04-04T10:46:14.999Z</time></trkpt><trkpt lat="44.90753300825052" lon="7.861785886225217"><ele>256.0</ele><time>2026-04-04T10:46:15.999Z</time></trkpt><trkpt lat="44.90747537394719" lon="7.86192950957329"><ele>256.0</ele><time>2026-04-04T10:46:16.999Z</time></trkpt><trkpt lat="44.907410861260885" lon="7.862074023497639"><ele>256.0</ele><time>2026-04-04T10:46:17.999Z</time></trkpt><trkpt lat="44.90734608390268" lon="7.862219095714079"><ele>256.0</ele><time>2026-04-04T10:46:18.999Z</time></trkpt><trkpt lat="44.90728202618775" lon="7.862359801829348"><ele>256.0</ele><time>2026-04-04T10:46:19.999Z</time></trkpt><trkpt lat="44.907219113371305" lon="7.862510868583686"><ele>256.25</ele><time>2026-04-04T10:46:20.999Z</time></trkpt><trkpt lat="44.907157814207636" lon="7.862664935228077"><ele>256.5</ele><time>2026-04-04T10:46:21.999Z</time></trkpt><trkpt lat="44.90709488179726" lon="7.862814341610852"><ele>256.75</ele><time>2026-04-04T10:46:22.999Z</time></trkpt><trkpt lat="44.90701878271405" lon="7.8629556530712525"><ele>257.0</ele><time>2026-04-04T10:46:23.999Z</time></trkpt><trkpt lat="44.90696991110967" lon="7.8631233430633385"><ele>257.0</ele><time>2026-04-04T10:46:24.999Z</time></trkpt><trkpt lat="44.90690442693063" lon="7.8632744091460465"><ele>257.0</ele><time>2026-04-04T10:46:25.999Z</time></trkpt><trkpt lat="44.90684891090397" lon="7.863432121902267"><ele>257.0</ele><time>2026-04-04T10:46:26.999Z</time></trkpt><trkpt lat="44.90679258878054" lon="7.86358811010661"><ele>257.0</ele><time>2026-04-04T10:46:27.999Z</time></trkpt><trkpt lat="44.906753117537846" lon="7.863752121830812"><ele>257.0</ele><time>2026-04-04T10:46:28.999Z</time></trkpt><trkpt lat="44.90671788822645" lon="7.863899177239059"><ele>257.0</ele><time>2026-04-04T10:46:29.999Z</time></trkpt><trkpt lat="44.906679487237426" lon="7.8640287222338685"><ele>257.0</ele><time>2026-04-04T10:46:30.999Z</time></trkpt><trkpt lat="44.906634648114526" lon="7.864155453836093"><ele>257.0</ele><time>2026-04-04T10:46:31.999Z</time></trkpt><trkpt lat="44.90655583376623" lon="7.864245897989416"><ele>257.0</ele><time>2026-04-04T10:46:32.999Z</time></trkpt><trkpt lat="44.90647835581134" lon="7.864330318835805"><ele>256.6</ele><time>2026-04-04T10:46:33.999Z</time></trkpt><trkpt lat="44.9063884122877" lon="7.864403300533252"><ele>256.2</ele><time>2026-04-04T10:46:34.999Z</time></trkpt><trkpt lat="44.90629125324514" lon="7.864470450285056"><ele>255.8</ele><time>2026-04-04T10:46:35.999Z</time></trkpt><trkpt lat="44.90618774129374" lon="7.864536930474927"><ele>255.4</ele><time>2026-04-04T10:46:36.999Z</time></trkpt><trkpt lat="44.906082016612444" lon="7.864602971511087"><ele>255.0</ele><time>2026-04-04T10:46:37.999Z</time></trkpt><trkpt lat="44.90597253501554" lon="7.864670322145665"><ele>255.6</ele><time>2026-04-04T10:46:38.999Z</time></trkpt><trkpt lat="44.90586700915542" lon="7.864734814771608"><ele>256.2</ele><time>2026-04-04T10:46:39.999Z</time></trkpt><trkpt lat="44.90576924105942" lon="7.864794566220309"><ele>256.8</ele><time>2026-04-04T10:46:40.999Z</time></trkpt><trkpt lat="44.905683676556905" lon="7.864846859359127"><ele>257.4</ele><time>2026-04-04T10:46:41.999Z</time></trkpt><trkpt lat="44.90560186160079" lon="7.8648997042562625"><ele>258.0</ele><time>2026-04-04T10:46:42.999Z</time></trkpt><trkpt lat="44.9055279846646" lon="7.8649480220848265"><ele>258.0</ele><time>2026-04-04T10:46:43.999Z</time></trkpt><trkpt lat="44.905452025885396" lon="7.8649934258154"><ele>258.0</ele><time>2026-04-04T10:46:44.999Z</time></trkpt><trkpt lat="44.90537083950823" lon="7.865053494259692"><ele>258.0</ele><time>2026-04-04T10:46:45.999Z</time></trkpt><trkpt lat="44.90527695111139" lon="7.8650557665159795"><ele>258.0</ele><time>2026-04-04T10:46:46.999Z</time></trkpt><trkpt lat="44.905201907149426" lon="7.865042188897539"><ele>258.0</ele><time>2026-04-04T10:46:47.999Z</time></trkpt><trkpt lat="44.90511907460986" lon="7.865037742185412"><ele>258.0</ele><time>2026-04-04T10:46:48.998Z</time></trkpt><trkpt lat="44.905045834186474" lon="7.86504294610185"><ele>257.8333333333333</ele><time>2026-04-04T10:46:49.998Z</time></trkpt><trkpt lat="44.90497265395434" lon="7.865063148358018"><ele>257.6666666666667</ele><time>2026-04-04T10:46:50.998Z</time></trkpt><trkpt lat="44.90490751051371" lon="7.865140168867659"><ele>257.5</ele><time>2026-04-04T10:46:51.998Z</time></trkpt><trkpt lat="44.904843974658434" lon="7.865224392463041"><ele>257.33333333333337</ele><time>2026-04-04T10:46:52.998Z</time></trkpt><trkpt lat="44.90478516066574" lon="7.865330148617946"><ele>257.1666666666667</ele><time>2026-04-04T10:46:53.998Z</time></trkpt><trkpt lat="44.90472373654215" lon="7.865438145160376"><ele>257.0</ele><time>2026-04-04T10:46:54.998Z</time></trkpt><trkpt lat="44.904657351422806" lon="7.865549160494005"><ele>257.0</ele><time>2026-04-04T10:46:55.998Z</time></trkpt><trkpt lat="44.90458423036046" lon="7.86565543969389"><ele>257.0</ele><time>2026-04-04T10:46:56.998Z</time></trkpt><trkpt lat="44.904519005570975" lon="7.865766177738371"><ele>257.0</ele><time>2026-04-04T10:46:57.998Z</time></trkpt><trkpt lat="44.9044466689401" lon="7.8658614790492685"><ele>257.0</ele><time>2026-04-04T10:46:58.998Z</time></trkpt><trkpt lat="44.904397996871616" lon="7.865979592567701"><ele>257.0</ele><time>2026-04-04T10:46:59.998Z</time></trkpt><trkpt lat="44.90433196063983" lon="7.866082309289167"><ele>257.0</ele><time>2026-04-04T10:47:00.998Z</time></trkpt><trkpt lat="44.90426823782894" lon="7.866192680000038"><ele>257.0</ele><time>2026-04-04T10:47:01.998Z</time></trkpt><trkpt lat="44.90420533613403" lon="7.866306013054871"><ele>257.0</ele><time>2026-04-04T10:47:02.998Z</time></trkpt><trkpt lat="44.904142928944175" lon="7.866417940093383"><ele>257.0</ele><time>2026-04-04T10:47:03.998Z</time></trkpt><trkpt lat="44.90408022090331" lon="7.866535183360396"><ele>257.0</ele><time>2026-04-04T10:47:04.998Z</time></trkpt><trkpt lat="44.90401263577346" lon="7.866648861170118"><ele>256.6</ele><time>2026-04-04T10:47:05.998Z</time></trkpt><trkpt lat="44.90395126014015" lon="7.866768225071016"><ele>256.2</ele><time>2026-04-04T10:47:07Z</time></trkpt><trkpt lat="44.90386350679354" lon="7.8668569814276035"><ele>255.8</ele><time>2026-04-04T10:47:08Z</time></trkpt><trkpt lat="44.90377870359416" lon="7.866926882358745"><ele>255.4</ele><time>2026-04-04T10:47:09Z</time></trkpt><trkpt lat="44.903695942250025" lon="7.866960678130876"><ele>255.0</ele><time>2026-04-04T10:47:10Z</time></trkpt><trkpt lat="44.903615273417294" lon="7.866985169516446"><ele>255.0</ele><time>2026-04-04T10:47:11Z</time></trkpt><trkpt lat="44.90353093980457" lon="7.867021731824494"><ele>255.0</ele><time>2026-04-04T10:47:12Z</time></trkpt><trkpt lat="44.90345301902261" lon="7.86708636015622"><ele>255.0</ele><time>2026-04-04T10:47:13Z</time></trkpt><trkpt lat="44.90339024789185" lon="7.8672065862619425"><ele>255.0</ele><time>2026-04-04T10:47:14Z</time></trkpt><trkpt lat="44.903368158284586" lon="7.867336510539361"><ele>255.0</ele><time>2026-04-04T10:47:15Z</time></trkpt><trkpt lat="44.90332794430521" lon="7.867423661983349"><ele>255.0</ele><time>2026-04-04T10:47:16Z</time></trkpt><trkpt lat="44.903307804786586" lon="7.86750853050292"><ele>255.0</ele><time>2026-04-04T10:47:17Z</time></trkpt><trkpt lat="44.90327705571842" lon="7.867655648050642"><ele>255.0</ele><time>2026-04-04T10:47:19Z</time></trkpt><trkpt lat="44.90325535069361" lon="7.867814525111455"><ele>255.0</ele><time>2026-04-04T10:47:21Z</time></trkpt><trkpt lat="44.903234173534344" lon="7.867908667066256"><ele>255.0</ele><time>2026-04-04T10:47:22Z</time></trkpt><trkpt lat="44.90321114706848" lon="7.868007385952587"><ele>255.0</ele><time>2026-04-04T10:47:23Z</time></trkpt><trkpt lat="44.903190706563905" lon="7.868115762535368"><ele>255.0</ele><time>2026-04-04T10:47:24Z</time></trkpt><trkpt lat="44.90316527064009" lon="7.8682277468717805"><ele>255.0</ele><time>2026-04-04T10:47:25Z</time></trkpt><trkpt lat="44.90312749032573" lon="7.868340530381312"><ele>255.0</ele><time>2026-04-04T10:47:26Z</time></trkpt><trkpt lat="44.90308582071307" lon="7.868455381636036"><ele>255.0</ele><time>2026-04-04T10:47:27Z</time></trkpt><trkpt lat="44.90304513576277" lon="7.868571561963497"><ele>255.0</ele><time>2026-04-04T10:47:28Z</time></trkpt><trkpt lat="44.9030090179089" lon="7.868696358174969"><ele>255.0</ele><time>2026-04-04T10:47:29Z</time></trkpt><trkpt lat="44.90297135907562" lon="7.868822708006916"><ele>255.0</ele><time>2026-04-04T10:47:30Z</time></trkpt><trkpt lat="44.902928577083735" lon="7.868945920682209"><ele>255.0</ele><time>2026-04-04T10:47:31Z</time></trkpt><trkpt lat="44.90288249564461" lon="7.8690657042959335"><ele>255.0</ele><time>2026-04-04T10:47:32Z</time></trkpt><trkpt lat="44.90283720144888" lon="7.869183174229286"><ele>255.0</ele><time>2026-04-04T10:47:33Z</time></trkpt><trkpt lat="44.90279178089646" lon="7.869300826777658"><ele>255.0</ele><time>2026-04-04T10:47:34Z</time></trkpt><trkpt lat="44.90274683441333" lon="7.869415149043897"><ele>255.0</ele><time>2026-04-04T10:47:35Z</time></trkpt><trkpt lat="44.902686075462704" lon="7.869519875362235"><ele>255.0</ele><time>2026-04-04T10:47:36Z</time></trkpt><trkpt lat="44.9026382988515" lon="7.869637244199052"><ele>255.0</ele><time>2026-04-04T10:47:37Z</time></trkpt><trkpt lat="44.90259124065436" lon="7.869757367126752"><ele>255.0</ele><time>2026-04-04T10:47:38Z</time></trkpt><trkpt lat="44.90255654811409" lon="7.869886622550746"><ele>255.8</ele><time>2026-04-04T10:47:39Z</time></trkpt><trkpt lat="44.90251048866085" lon="7.869998277527096"><ele>256.6</ele><time>2026-04-04T10:47:40Z</time></trkpt><trkpt lat="44.90246744406373" lon="7.8701217406734205"><ele>257.4</ele><time>2026-04-04T10:47:41Z</time></trkpt><trkpt lat="44.90242610453786" lon="7.870254557144982"><ele>258.2</ele><time>2026-04-04T10:47:42Z</time></trkpt><trkpt lat="44.90239082078635" lon="7.870394812328105"><ele>259.0</ele><time>2026-04-04T10:47:43Z</time></trkpt><trkpt lat="44.90236199379697" lon="7.8705416266733454"><ele>259.0</ele><time>2026-04-04T10:47:44Z</time></trkpt><trkpt lat="44.902338248329784" lon="7.870691880305705"><ele>259.0</ele><time>2026-04-04T10:47:45Z</time></trkpt><trkpt lat="44.90230356371545" lon="7.870849032892702"><ele>259.0</ele><time>2026-04-04T10:47:46Z</time></trkpt><trkpt lat="44.90227541757689" lon="7.871009419535909"><ele>259.0</ele><time>2026-04-04T10:47:47Z</time></trkpt><trkpt lat="44.9022449721589" lon="7.871173457791862"><ele>259.0</ele><time>2026-04-04T10:47:47.999Z</time></trkpt><trkpt lat="44.90222442626715" lon="7.871338202267319"><ele>259.0</ele><time>2026-04-04T10:47:48.999Z</time></trkpt><trkpt lat="44.90220874001352" lon="7.871495356315821"><ele>259.0</ele><time>2026-04-04T10:47:49.999Z</time></trkpt><trkpt lat="44.90219798546322" lon="7.871646024108283"><ele>259.0</ele><time>2026-04-04T10:47:50.999Z</time></trkpt><trkpt lat="44.90217125601078" lon="7.8717940323197375"><ele>259.0</ele><time>2026-04-04T10:47:51.999Z</time></trkpt><trkpt lat="44.902125396800486" lon="7.871935155287063"><ele>259.2</ele><time>2026-04-04T10:47:52.999Z</time></trkpt><trkpt lat="44.90207804593334" lon="7.872070512088944"><ele>259.4</ele><time>2026-04-04T10:47:53.999Z</time></trkpt><trkpt lat="44.90202900133894" lon="7.8721906130661985"><ele>259.6</ele><time>2026-04-04T10:47:54.999Z</time></trkpt><trkpt lat="44.901983980208165" lon="7.872295644160101"><ele>259.8</ele><time>2026-04-04T10:47:55.999Z</time></trkpt><trkpt lat="44.901939734512204" lon="7.872398043428366"><ele>260.0</ele><time>2026-04-04T10:47:56.999Z</time></trkpt><trkpt lat="44.90189624720267" lon="7.872493073289916"><ele>259.75</ele><time>2026-04-04T10:47:57.999Z</time></trkpt><trkpt lat="44.901778066271135" lon="7.872755263167604"><ele>259.5</ele><time>2026-04-04T10:47:58.999Z</time></trkpt><trkpt lat="44.90172048351644" lon="7.872886073925712"><ele>259.25</ele><time>2026-04-04T10:47:59.999Z</time></trkpt><trkpt lat="44.90166751351449" lon="7.873008619726833"><ele>259.0</ele><time>2026-04-04T10:48:00.999Z</time></trkpt><trkpt lat="44.90161952424931" lon="7.873124111836807"><ele>259.0</ele><time>2026-04-04T10:48:01.999Z</time></trkpt><trkpt lat="44.901586388442794" lon="7.873257139912833"><ele>259.0</ele><time>2026-04-04T10:48:02.999Z</time></trkpt><trkpt lat="44.901525102567994" lon="7.873371782080752"><ele>259.0</ele><time>2026-04-04T10:48:03.999Z</time></trkpt><trkpt lat="44.901493725305315" lon="7.873512048102504"><ele>259.0</ele><time>2026-04-04T10:48:04.999Z</time></trkpt><trkpt lat="44.901445754040026" lon="7.873646646608527"><ele>259.0</ele><time>2026-04-04T10:48:05.999Z</time></trkpt><trkpt lat="44.901394779706536" lon="7.873782812800543"><ele>258.8</ele><time>2026-04-04T10:48:06.999Z</time></trkpt><trkpt lat="44.901350929058985" lon="7.873921677427005"><ele>258.59999999999997</ele><time>2026-04-04T10:48:07.999Z</time></trkpt><trkpt lat="44.901305955529985" lon="7.874064624837721"><ele>258.4</ele><time>2026-04-04T10:48:08.999Z</time></trkpt><trkpt lat="44.901275968478785" lon="7.874208458283654"><ele>258.2</ele><time>2026-04-04T10:48:09.999Z</time></trkpt><trkpt lat="44.90124787576822" lon="7.87436313243744"><ele>258.0</ele><time>2026-04-04T10:48:10.999Z</time></trkpt><trkpt lat="44.90122111757424" lon="7.874519388935542"><ele>257.8</ele><time>2026-04-04T10:48:11.999Z</time></trkpt><trkpt lat="44.90119811023927" lon="7.87466904260444"><ele>257.6</ele><time>2026-04-04T10:48:12.999Z</time></trkpt><trkpt lat="44.901175483622175" lon="7.874824151006436"><ele>257.4</ele><time>2026-04-04T10:48:13.999Z</time></trkpt><trkpt lat="44.901151552239945" lon="7.874971391282633"><ele>257.2</ele><time>2026-04-04T10:48:14.999Z</time></trkpt><trkpt lat="44.901125638928555" lon="7.875105619133695"><ele>257.0</ele><time>2026-04-04T10:48:15.999Z</time></trkpt><trkpt lat="44.901105745907365" lon="7.875226178798636"><ele>257.0</ele><time>2026-04-04T10:48:16.999Z</time></trkpt><trkpt lat="44.901088460547115" lon="7.875335638612051"><ele>257.0</ele><time>2026-04-04T10:48:17.999Z</time></trkpt><trkpt lat="44.9010633940689" lon="7.875439163326028"><ele>257.0</ele><time>2026-04-04T10:48:18.999Z</time></trkpt><trkpt lat="44.90105044946383" lon="7.875527768508246"><ele>257.0</ele><time>2026-04-04T10:48:19.999Z</time></trkpt><trkpt lat="44.90103963020672" lon="7.875629210729398"><ele>257.0</ele><time>2026-04-04T10:48:21.999Z</time></trkpt><trkpt lat="44.90100857225069" lon="7.875727900916423"><ele>257.0</ele><time>2026-04-04T10:48:23.999Z</time></trkpt><trkpt lat="44.90098405603261" lon="7.875850558991489"><ele>257.0</ele><time>2026-04-04T10:48:25.999Z</time></trkpt><trkpt lat="44.90094618227426" lon="7.875989528919453"><ele>257.0</ele><time>2026-04-04T10:48:27.999Z</time></trkpt><trkpt lat="44.900890286646465" lon="7.876106463587813"><ele>257.0</ele><time>2026-04-04T10:48:29.999Z</time></trkpt><trkpt lat="44.90078052954867" lon="7.876163909641233"><ele>257.0</ele><time>2026-04-04T10:48:31.999Z</time></trkpt><trkpt lat="44.90065220524008" lon="7.876142718989313"><ele>257.0</ele><time>2026-04-04T10:48:33.999Z</time></trkpt><trkpt lat="44.900581364744426" lon="7.876141625397729"><ele>257.0</ele><time>2026-04-04T10:48:34.999Z</time></trkpt><trkpt lat="44.9005050184731" lon="7.876141338315727"><ele>257.0</ele><time>2026-04-04T10:48:35.999Z</time></trkpt><trkpt lat="44.90042488163953" lon="7.876141850750363"><ele>257.0</ele><time>2026-04-04T10:48:36.999Z</time></trkpt><trkpt lat="44.900345406808825" lon="7.876142293925593"><ele>257.0</ele><time>2026-04-04T10:48:37.999Z</time></trkpt><trkpt lat="44.90026545931439" lon="7.876144478727779"><ele>257.0</ele><time>2026-04-04T10:48:38.999Z</time></trkpt><trkpt lat="44.900193002523395" lon="7.8761483278330795"><ele>257.0</ele><time>2026-04-04T10:48:39.999Z</time></trkpt><trkpt lat="44.90011464264949" lon="7.876177094647493"><ele>257.0</ele><time>2026-04-04T10:48:40.999Z</time></trkpt><trkpt lat="44.900033445242514" lon="7.87618404479039"><ele>257.0</ele><time>2026-04-04T10:48:41.999Z</time></trkpt><trkpt lat="44.89995134094921" lon="7.876196174545332"><ele>257.0</ele><time>2026-04-04T10:48:42.999Z</time></trkpt><trkpt lat="44.89985953094679" lon="7.876204248989481"><ele>257.0</ele><time>2026-04-04T10:48:43.999Z</time></trkpt><trkpt lat="44.89977174785923" lon="7.876240939745038"><ele>257.0</ele><time>2026-04-04T10:48:44.999Z</time></trkpt><trkpt lat="44.89968360106026" lon="7.8762817471068285"><ele>257.4</ele><time>2026-04-04T10:48:45.999Z</time></trkpt><trkpt lat="44.89959831449563" lon="7.876323991904013"><ele>257.79999999999995</ele><time>2026-04-04T10:48:46.999Z</time></trkpt><trkpt lat="44.89951470412922" lon="7.876369343610263"><ele>258.2</ele><time>2026-04-04T10:48:47.999Z</time></trkpt><trkpt lat="44.899431691178286" lon="7.876418604495474"><ele>258.59999999999997</ele><time>2026-04-04T10:48:48.999Z</time></trkpt><trkpt lat="44.899346122274494" lon="7.876469382107037"><ele>259.0</ele><time>2026-04-04T10:48:49.999Z</time></trkpt><trkpt lat="44.899260092821535" lon="7.876518316403612"><ele>259.0</ele><time>2026-04-04T10:48:50.999Z</time></trkpt><trkpt lat="44.89917424211019" lon="7.876567000034396"><ele>259.0</ele><time>2026-04-04T10:48:51.998Z</time></trkpt><trkpt lat="44.89909231468347" lon="7.876613534271582"><ele>259.0</ele><time>2026-04-04T10:48:52.998Z</time></trkpt><trkpt lat="44.89901076511352" lon="7.876662714376502"><ele>259.0</ele><time>2026-04-04T10:48:53.998Z</time></trkpt><trkpt lat="44.898926504411676" lon="7.8767184756755775"><ele>259.0</ele><time>2026-04-04T10:48:54.998Z</time></trkpt><trkpt lat="44.89885110520759" lon="7.87679611219834"><ele>259.59999999999997</ele><time>2026-04-04T10:48:55.998Z</time></trkpt><trkpt lat="44.898761824161255" lon="7.876845281173474"><ele>260.2</ele><time>2026-04-04T10:48:56.998Z</time></trkpt><trkpt lat="44.89867783926257" lon="7.876933998305643"><ele>260.79999999999995</ele><time>2026-04-04T10:48:57.998Z</time></trkpt><trkpt lat="44.89862682415939" lon="7.8770442368334495"><ele>261.4</ele><time>2026-04-04T10:48:58.998Z</time></trkpt><trkpt lat="44.89857437025427" lon="7.877154582811164"><ele>262.0</ele><time>2026-04-04T10:48:59.998Z</time></trkpt><trkpt lat="44.89853113970981" lon="7.8772776742159305"><ele>262.0</ele><time>2026-04-04T10:49:00.998Z</time></trkpt><trkpt lat="44.89849809244298" lon="7.877406518674259"><ele>262.0</ele><time>2026-04-04T10:49:01.998Z</time></trkpt><trkpt lat="44.89846601845044" lon="7.877539702283405"><ele>262.0</ele><time>2026-04-04T10:49:02.998Z</time></trkpt><trkpt lat="44.898435344336" lon="7.877672960919507"><ele>262.0</ele><time>2026-04-04T10:49:03.998Z</time></trkpt><trkpt lat="44.898406626427324" lon="7.8778076482803305"><ele>262.0</ele><time>2026-04-04T10:49:04.998Z</time></trkpt><trkpt lat="44.898376473825735" lon="7.877945461844326"><ele>262.6</ele><time>2026-04-04T10:49:05.998Z</time></trkpt><trkpt lat="44.898349519698776" lon="7.878086374870805"><ele>263.2</ele><time>2026-04-04T10:49:06.998Z</time></trkpt><trkpt lat="44.898330244730964" lon="7.87822986161224"><ele>263.8</ele><time>2026-04-04T10:49:07.998Z</time></trkpt><trkpt lat="44.89830726487584" lon="7.878371931700279"><ele>264.4</ele><time>2026-04-04T10:49:08.998Z</time></trkpt><trkpt lat="44.898279338219204" lon="7.878510403645744"><ele>265.0</ele><time>2026-04-04T10:49:09.998Z</time></trkpt><trkpt lat="44.898252993482934" lon="7.87865718275479"><ele>265.0</ele><time>2026-04-04T10:49:10.998Z</time></trkpt><trkpt lat="44.898227038131054" lon="7.878804779929722"><ele>265.0</ele><time>2026-04-04T10:49:11.998Z</time></trkpt><trkpt lat="44.89820051329563" lon="7.87895639683141"><ele>265.0</ele><time>2026-04-04T10:49:13Z</time></trkpt><trkpt lat="44.89816452810944" lon="7.879106831374487"><ele>265.0</ele><time>2026-04-04T10:49:14Z</time></trkpt><trkpt lat="44.898146323020626" lon="7.8792510803212155"><ele>265.0</ele><time>2026-04-04T10:49:15Z</time></trkpt><trkpt lat="44.89812499226056" lon="7.879378663473163"><ele>265.0</ele><time>2026-04-04T10:49:16Z</time></trkpt><trkpt lat="44.89810115629865" lon="7.879492199834535"><ele>265.0</ele><time>2026-04-04T10:49:17Z</time></trkpt><trkpt lat="44.898079215451894" lon="7.879596369603722"><ele>265.0</ele><time>2026-04-04T10:49:18Z</time></trkpt><trkpt lat="44.89804812869887" lon="7.879694496688189"><ele>265.0</ele><time>2026-04-04T10:49:19Z</time></trkpt><trkpt lat="44.89800749057866" lon="7.8797689819544035"><ele>265.0</ele><time>2026-04-04T10:49:20Z</time></trkpt><trkpt lat="44.89786524527308" lon="7.879798503451624"><ele>265.0</ele><time>2026-04-04T10:49:22Z</time></trkpt><trkpt lat="44.89779537322111" lon="7.879824768253056"><ele>265.0</ele><time>2026-04-04T10:49:23Z</time></trkpt><trkpt lat="44.897702472084546" lon="7.879857330469096"><ele>265.0</ele><time>2026-04-04T10:49:24Z</time></trkpt><trkpt lat="44.89761650001673" lon="7.879887464017338"><ele>265.0</ele><time>2026-04-04T10:49:25Z</time></trkpt><trkpt lat="44.89752456326908" lon="7.879919654011492"><ele>265.0</ele><time>2026-04-04T10:49:26Z</time></trkpt><trkpt lat="44.89742804940653" lon="7.879952251947754"><ele>265.0</ele><time>2026-04-04T10:49:27Z</time></trkpt><trkpt lat="44.89732690482733" lon="7.879986413920665"><ele>264.25</ele><time>2026-04-04T10:49:28Z</time></trkpt><trkpt lat="44.89721411357115" lon="7.880024509605636"><ele>263.5</ele><time>2026-04-04T10:49:29Z</time></trkpt><trkpt lat="44.897102360576426" lon="7.880062256484975"><ele>262.75</ele><time>2026-04-04T10:49:30Z</time></trkpt><trkpt lat="44.896986024557215" lon="7.880101549465459"><ele>262.0</ele><time>2026-04-04T10:49:31Z</time></trkpt><trkpt lat="44.89686748689379" lon="7.880142331197136"><ele>262.0</ele><time>2026-04-04T10:49:32Z</time></trkpt><trkpt lat="44.89674613813689" lon="7.880184728561765"><ele>262.0</ele><time>2026-04-04T10:49:33Z</time></trkpt><trkpt lat="44.89662141523709" lon="7.8802283048636745"><ele>262.0</ele><time>2026-04-04T10:49:34Z</time></trkpt><trkpt lat="44.89649219259269" lon="7.880273453280094"><ele>262.0</ele><time>2026-04-04T10:49:35Z</time></trkpt><trkpt lat="44.89636399291944" lon="7.880318244314025"><ele>262.0</ele><time>2026-04-04T10:49:36Z</time></trkpt><trkpt lat="44.896232560055914" lon="7.880364164972443"><ele>262.0</ele><time>2026-04-04T10:49:37Z</time></trkpt><trkpt lat="44.89610359121656" lon="7.880409224732244"><ele>262.0</ele><time>2026-04-04T10:49:38Z</time></trkpt><trkpt lat="44.89597454009098" lon="7.8804543132334"><ele>262.0</ele><time>2026-04-04T10:49:39Z</time></trkpt><trkpt lat="44.89584153305611" lon="7.880500255760357"><ele>262.25</ele><time>2026-04-04T10:49:40Z</time></trkpt><trkpt lat="44.895710064580875" lon="7.880544789405222"><ele>262.5</ele><time>2026-04-04T10:49:41Z</time></trkpt><trkpt lat="44.89557608502478" lon="7.8805896045328225"><ele>262.75</ele><time>2026-04-04T10:49:42Z</time></trkpt><trkpt lat="44.895440832750936" lon="7.88063388286613"><ele>263.0</ele><time>2026-04-04T10:49:43Z</time></trkpt><trkpt lat="44.895307499530766" lon="7.880677532946644"><ele>263.0</ele><time>2026-04-04T10:49:44Z</time></trkpt><trkpt lat="44.89517113237936" lon="7.880723432704434"><ele>263.0</ele><time>2026-04-04T10:49:45Z</time></trkpt><trkpt lat="44.89503500449706" lon="7.880769665880299"><ele>263.0</ele><time>2026-04-04T10:49:46Z</time></trkpt><trkpt lat="44.89489645692269" lon="7.880816720860501"><ele>263.0</ele><time>2026-04-04T10:49:47Z</time></trkpt><trkpt lat="44.894757629737995" lon="7.8808643214729255"><ele>263.25</ele><time>2026-04-04T10:49:48Z</time></trkpt><trkpt lat="44.894620105213285" lon="7.880912841617173"><ele>263.5</ele><time>2026-04-04T10:49:49Z</time></trkpt><trkpt lat="44.894479070263245" lon="7.88096260028198"><ele>263.75</ele><time>2026-04-04T10:49:50Z</time></trkpt><trkpt lat="44.89433958783895" lon="7.881011726248398"><ele>264.0</ele><time>2026-04-04T10:49:51Z</time></trkpt><trkpt lat="44.89420199525802" lon="7.8810601420787"><ele>264.5</ele><time>2026-04-04T10:49:52Z</time></trkpt><trkpt lat="44.894063552242756" lon="7.881108299897892"><ele>265.0</ele><time>2026-04-04T10:49:53Z</time></trkpt><trkpt lat="44.893922581684556" lon="7.881156979582"><ele>265.5</ele><time>2026-04-04T10:49:54Z</time></trkpt><trkpt lat="44.893782009055215" lon="7.881205521850561"><ele>266.0</ele><time>2026-04-04T10:49:55Z</time></trkpt><trkpt lat="44.89364197197948" lon="7.881253879186797"><ele>266.0</ele><time>2026-04-04T10:49:55.999Z</time></trkpt><trkpt lat="44.89350198920068" lon="7.881302217774534"><ele>266.0</ele><time>2026-04-04T10:49:56.999Z</time></trkpt><trkpt lat="44.893356054849846" lon="7.881352611546601"><ele>266.0</ele><time>2026-04-04T10:49:57.999Z</time></trkpt><trkpt lat="44.8932179602903" lon="7.881400298097728"><ele>266.0</ele><time>2026-04-04T10:49:58.999Z</time></trkpt><trkpt lat="44.89307696470059" lon="7.881448986424524"><ele>266.0</ele><time>2026-04-04T10:49:59.999Z</time></trkpt><trkpt lat="44.892937625009445" lon="7.881497761350149"><ele>266.0</ele><time>2026-04-04T10:50:00.999Z</time></trkpt><trkpt lat="44.8928115251942" lon="7.8815425841589875"><ele>266.0</ele><time>2026-04-04T10:50:01.999Z</time></trkpt><trkpt lat="44.89266764995557" lon="7.881593725322695"><ele>266.0</ele><time>2026-04-04T10:50:02.999Z</time></trkpt><trkpt lat="44.892527785417364" lon="7.881643440863707"><ele>265.5</ele><time>2026-04-04T10:50:03.999Z</time></trkpt><trkpt lat="44.89239287540149" lon="7.881691395291462"><ele>265.0</ele><time>2026-04-04T10:50:04.999Z</time></trkpt><trkpt lat="44.89226675914939" lon="7.881736225960052"><ele>264.5</ele><time>2026-04-04T10:50:05.999Z</time></trkpt><trkpt lat="44.892144478382384" lon="7.881779691072528"><ele>264.0</ele><time>2026-04-04T10:50:06.999Z</time></trkpt><trkpt lat="44.89202353523054" lon="7.88182085322418"><ele>263.5</ele><time>2026-04-04T10:50:07.999Z</time></trkpt><trkpt lat="44.89190745525807" lon="7.881859228491669"><ele>263.0</ele><time>2026-04-04T10:50:08.999Z</time></trkpt><trkpt lat="44.89178768196826" lon="7.881898824801315"><ele>262.5</ele><time>2026-04-04T10:50:09.999Z</time></trkpt><trkpt lat="44.891672901882224" lon="7.8819377351184885"><ele>262.0</ele><time>2026-04-04T10:50:10.999Z</time></trkpt><trkpt lat="44.89156986662986" lon="7.881973913784673"><ele>262.8</ele><time>2026-04-04T10:50:11.999Z</time></trkpt><trkpt lat="44.89146815392248" lon="7.882006821760854"><ele>263.6</ele><time>2026-04-04T10:50:12.999Z</time></trkpt><trkpt lat="44.89136479749752" lon="7.8820319793687075"><ele>264.40000000000003</ele><time>2026-04-04T10:50:13.999Z</time></trkpt><trkpt lat="44.89125738720657" lon="7.882051467465764"><ele>265.2</ele><time>2026-04-04T10:50:14.999Z</time></trkpt><trkpt lat="44.89114118944736" lon="7.882061658806305"><ele>266.0</ele><time>2026-04-04T10:50:15.999Z</time></trkpt><trkpt lat="44.89102717511543" lon="7.88205772924573"><ele>266.25</ele><time>2026-04-04T10:50:16.999Z</time></trkpt><trkpt lat="44.89090455091536" lon="7.882042778149225"><ele>266.5</ele><time>2026-04-04T10:50:17.999Z</time></trkpt><trkpt lat="44.89077630865782" lon="7.88202967392904"><ele>266.75</ele><time>2026-04-04T10:50:18.999Z</time></trkpt><trkpt lat="44.89064916805366" lon="7.882017100685915"><ele>267.0</ele><time>2026-04-04T10:50:19.999Z</time></trkpt><trkpt lat="44.89051742523" lon="7.882004072328106"><ele>267.0</ele><time>2026-04-04T10:50:20.999Z</time></trkpt><trkpt lat="44.89038352139314" lon="7.881992390981054"><ele>267.0</ele><time>2026-04-04T10:50:21.999Z</time></trkpt><trkpt lat="44.8902517413119" lon="7.881981333572949"><ele>267.0</ele><time>2026-04-04T10:50:22.999Z</time></trkpt><trkpt lat="44.89011837787189" lon="7.881970143311086"><ele>267.0</ele><time>2026-04-04T10:50:23.999Z</time></trkpt><trkpt lat="44.88998546294439" lon="7.881981301215782"><ele>267.0</ele><time>2026-04-04T10:50:24.999Z</time></trkpt><trkpt lat="44.889873391282705" lon="7.8819729055054015"><ele>267.0</ele><time>2026-04-04T10:50:25.999Z</time></trkpt><trkpt lat="44.889764568731934" lon="7.881962787896524"><ele>267.0</ele><time>2026-04-04T10:50:26.999Z</time></trkpt><trkpt lat="44.88965790279063" lon="7.881931218885796"><ele>267.0</ele><time>2026-04-04T10:50:27.999Z</time></trkpt><trkpt lat="44.8895531484435" lon="7.8819217860323185"><ele>267.0</ele><time>2026-04-04T10:50:28.999Z</time></trkpt><trkpt lat="44.889438563826765" lon="7.881934609473657"><ele>267.0</ele><time>2026-04-04T10:50:29.999Z</time></trkpt><trkpt lat="44.88932286370383" lon="7.881921417607027"><ele>267.0</ele><time>2026-04-04T10:50:30.999Z</time></trkpt><trkpt lat="44.88920735237131" lon="7.881909878683032"><ele>267.0</ele><time>2026-04-04T10:50:31.999Z</time></trkpt><trkpt lat="44.8890998085681" lon="7.881901534044373"><ele>267.0</ele><time>2026-04-04T10:50:32.999Z</time></trkpt><trkpt lat="44.88898159530761" lon="7.881888744060357"><ele>267.2</ele><time>2026-04-04T10:50:33.999Z</time></trkpt><trkpt lat="44.88886705814437" lon="7.881885790938084"><ele>267.4</ele><time>2026-04-04T10:50:34.999Z</time></trkpt><trkpt lat="44.888760577633555" lon="7.881859632888877"><ele>267.6</ele><time>2026-04-04T10:50:35.999Z</time></trkpt><trkpt lat="44.88867016939959" lon="7.8818539083728565"><ele>267.8</ele><time>2026-04-04T10:50:36.999Z</time></trkpt><trkpt lat="44.88857535026318" lon="7.881846462259899"><ele>268.0</ele><time>2026-04-04T10:50:37.999Z</time></trkpt><trkpt lat="44.88849236699288" lon="7.881837699006938"><ele>268.16666666666663</ele><time>2026-04-04T10:50:38.999Z</time></trkpt><trkpt lat="44.88841489680154" lon="7.88182772883473"><ele>268.3333333333333</ele><time>2026-04-04T10:50:39.999Z</time></trkpt><trkpt lat="44.88834420973851" lon="7.8818055445204545"><ele>268.5</ele><time>2026-04-04T10:50:40.999Z</time></trkpt><trkpt lat="44.888276194728654" lon="7.8816941329694075"><ele>268.6666666666667</ele><time>2026-04-04T10:50:42.999Z</time></trkpt><trkpt lat="44.88830280070869" lon="7.881538852043865"><ele>268.83333333333337</ele><time>2026-04-04T10:50:44.999Z</time></trkpt><trkpt lat="44.88831101139641" lon="7.881423916520391"><ele>269.0</ele><time>2026-04-04T10:50:45.999Z</time></trkpt><trkpt lat="44.88833388016282" lon="7.881305234907266"><ele>269.0</ele><time>2026-04-04T10:50:46.999Z</time></trkpt><trkpt lat="44.88835630566674" lon="7.88117479049922"><ele>269.0</ele><time>2026-04-04T10:50:47.999Z</time></trkpt><trkpt lat="44.8883847103484" lon="7.881034596613119"><ele>269.0</ele><time>2026-04-04T10:50:48.999Z</time></trkpt><trkpt lat="44.888412140266496" lon="7.880887263903559"><ele>269.0</ele><time>2026-04-04T10:50:49.999Z</time></trkpt><trkpt lat="44.888441493345" lon="7.880741961370991"><ele>269.0</ele><time>2026-04-04T10:50:50.999Z</time></trkpt><trkpt lat="44.88847569815321" lon="7.880603030770372"><ele>269.0</ele><time>2026-04-04T10:50:51.999Z</time></trkpt><trkpt lat="44.888513430705544" lon="7.8804661422894675"><ele>269.0</ele><time>2026-04-04T10:50:52.999Z</time></trkpt><trkpt lat="44.888550746804036" lon="7.880328197186907"><ele>269.0</ele><time>2026-04-04T10:50:53.999Z</time></trkpt><trkpt lat="44.88859118413395" lon="7.880188321081911"><ele>269.0</ele><time>2026-04-04T10:50:54.999Z</time></trkpt><trkpt lat="44.888635835141265" lon="7.880058198017074"><ele>269.0</ele><time>2026-04-04T10:50:55.999Z</time></trkpt><trkpt lat="44.888675447033435" lon="7.879922350622322"><ele>269.0</ele><time>2026-04-04T10:50:56.999Z</time></trkpt><trkpt lat="44.88871428052877" lon="7.879784214991802"><ele>269.0</ele><time>2026-04-04T10:50:57.999Z</time></trkpt><trkpt lat="44.88874886860508" lon="7.879653514819887"><ele>269.0</ele><time>2026-04-04T10:50:58.999Z</time></trkpt><trkpt lat="44.88878638421867" lon="7.8795235495836025"><ele>269.0</ele><time>2026-04-04T10:50:59.999Z</time></trkpt><trkpt lat="44.88882282147548" lon="7.87939225297755"><ele>269.0</ele><time>2026-04-04T10:51:00.999Z</time></trkpt><trkpt lat="44.88886151238035" lon="7.8792602892357655"><ele>269.2</ele><time>2026-04-04T10:51:01.998Z</time></trkpt><trkpt lat="44.888897815396255" lon="7.879125602501622"><ele>269.4</ele><time>2026-04-04T10:51:02.998Z</time></trkpt><trkpt lat="44.88893856417747" lon="7.878994690480937"><ele>269.6</ele><time>2026-04-04T10:51:03.998Z</time></trkpt><trkpt lat="44.88897685222624" lon="7.878864026883904"><ele>269.8</ele><time>2026-04-04T10:51:04.998Z</time></trkpt><trkpt lat="44.88900644651125" lon="7.878741361981299"><ele>270.0</ele><time>2026-04-04T10:51:05.998Z</time></trkpt><trkpt lat="44.889012777626846" lon="7.878637108677896"><ele>270.0</ele><time>2026-04-04T10:51:06.998Z</time></trkpt><trkpt lat="44.88897412713244" lon="7.878516653634532"><ele>270.0</ele><time>2026-04-04T10:51:08.998Z</time></trkpt><trkpt lat="44.8888594035451" lon="7.878540172824275"><ele>270.0</ele><time>2026-04-04T10:51:10.998Z</time></trkpt><trkpt lat="44.88880082518236" lon="7.878597490681025"><ele>270.0</ele><time>2026-04-04T10:51:11.998Z</time></trkpt><trkpt lat="44.88874117088376" lon="7.878655572330359"><ele>270.0</ele><time>2026-04-04T10:51:12.998Z</time></trkpt><trkpt lat="44.88867543593565" lon="7.87872018003652"><ele>270.0</ele><time>2026-04-04T10:51:13.998Z</time></trkpt><trkpt lat="44.888601138470754" lon="7.87879164324633"><ele>270.0</ele><time>2026-04-04T10:51:14.998Z</time></trkpt><trkpt lat="44.88852154433521" lon="7.878866783570059"><ele>270.0</ele><time>2026-04-04T10:51:15.998Z</time></trkpt><trkpt lat="44.88843944778702" lon="7.878930572745453"><ele>270.0</ele><time>2026-04-04T10:51:16.998Z</time></trkpt><trkpt lat="44.88835064410116" lon="7.878982976756847"><ele>270.0</ele><time>2026-04-04T10:51:17.998Z</time></trkpt><trkpt lat="44.88825402925683" lon="7.879026211541509"><ele>270.0</ele><time>2026-04-04T10:51:19Z</time></trkpt><trkpt lat="44.88816169608832" lon="7.879052186374"><ele>270.0</ele><time>2026-04-04T10:51:20Z</time></trkpt><trkpt lat="44.88806311837974" lon="7.8790689226600366"><ele>270.0</ele><time>2026-04-04T10:51:21Z</time></trkpt><trkpt lat="44.887968219467616" lon="7.879073822751485"><ele>270.0</ele><time>2026-04-04T10:51:22Z</time></trkpt><trkpt lat="44.88787050375043" lon="7.879073610820776"><ele>270.0</ele><time>2026-04-04T10:51:23Z</time></trkpt><trkpt lat="44.887773112280584" lon="7.87907015277453"><ele>270.0</ele><time>2026-04-04T10:51:24Z</time></trkpt><trkpt lat="44.887673376219006" lon="7.8790644501030505"><ele>270.4</ele><time>2026-04-04T10:51:25Z</time></trkpt><trkpt lat="44.88757529776476" lon="7.879058842213333"><ele>270.8</ele><time>2026-04-04T10:51:26Z</time></trkpt><trkpt lat="44.887475193124196" lon="7.879053554092215"><ele>271.2</ele><time>2026-04-04T10:51:27Z</time></trkpt><trkpt lat="44.88737621426126" lon="7.879049992105564"><ele>271.6</ele><time>2026-04-04T10:51:28Z</time></trkpt><trkpt lat="44.887278845141026" lon="7.879046490047674"><ele>272.0</ele><time>2026-04-04T10:51:29Z</time></trkpt><trkpt lat="44.8871766791952" lon="7.879043284987734"><ele>272.0</ele><time>2026-04-04T10:51:30Z</time></trkpt><trkpt lat="44.88708274295612" lon="7.879040363014957"><ele>272.0</ele><time>2026-04-04T10:51:31Z</time></trkpt><trkpt lat="44.88699019635622" lon="7.879037499546224"><ele>272.0</ele><time>2026-04-04T10:51:32Z</time></trkpt><trkpt lat="44.886893797344364" lon="7.879034565979501"><ele>272.0</ele><time>2026-04-04T10:51:33Z</time></trkpt><trkpt lat="44.886788349566224" lon="7.8790313570446875"><ele>272.0</ele><time>2026-04-04T10:51:34Z</time></trkpt><trkpt lat="44.88667673552338" lon="7.879027960463894"><ele>272.5</ele><time>2026-04-04T10:51:35Z</time></trkpt><trkpt lat="44.886557795518385" lon="7.879024340944361"><ele>273.0</ele><time>2026-04-04T10:51:36Z</time></trkpt><trkpt lat="44.886441609286116" lon="7.8790208052186514"><ele>273.5</ele><time>2026-04-04T10:51:37Z</time></trkpt><trkpt lat="44.88631482605831" lon="7.8790165037999165"><ele>274.0</ele><time>2026-04-04T10:51:38Z</time></trkpt><trkpt lat="44.8861890961232" lon="7.879011195730416"><ele>274.0</ele><time>2026-04-04T10:51:39Z</time></trkpt><trkpt lat="44.88606527341003" lon="7.87900596818033"><ele>274.0</ele><time>2026-04-04T10:51:40Z</time></trkpt><trkpt lat="44.885952583098536" lon="7.879001210621049"><ele>274.0</ele><time>2026-04-04T10:51:41Z</time></trkpt><trkpt lat="44.88584617003914" lon="7.879011121842587"><ele>274.0</ele><time>2026-04-04T10:51:42Z</time></trkpt><trkpt lat="44.885746197533464" lon="7.879006270606235"><ele>274.0</ele><time>2026-04-04T10:51:43Z</time></trkpt><trkpt lat="44.885649568746935" lon="7.879014102667199"><ele>274.0</ele><time>2026-04-04T10:51:44Z</time></trkpt><trkpt lat="44.88554778016154" lon="7.8789974274594465"><ele>274.0</ele><time>2026-04-04T10:51:45Z</time></trkpt><trkpt lat="44.88546640243427" lon="7.8790176694580785"><ele>274.0</ele><time>2026-04-04T10:51:46Z</time></trkpt><trkpt lat="44.88538002174755" lon="7.879057306655"><ele>274.0</ele><time>2026-04-04T10:51:47Z</time></trkpt><trkpt lat="44.88529977572152" lon="7.879106511972897"><ele>274.0</ele><time>2026-04-04T10:51:48Z</time></trkpt><trkpt lat="44.8852132689383" lon="7.879160765300425"><ele>274.0</ele><time>2026-04-04T10:51:49Z</time></trkpt><trkpt lat="44.88511301179183" lon="7.879161457054815"><ele>274.0</ele><time>2026-04-04T10:51:50Z</time></trkpt><trkpt lat="44.885012224052836" lon="7.879126673228351"><ele>274.0</ele><time>2026-04-04T10:51:51Z</time></trkpt><trkpt lat="44.884902445236925" lon="7.879109697113664"><ele>274.0</ele><time>2026-04-04T10:51:52Z</time></trkpt><trkpt lat="44.88478394505328" lon="7.879114591254966"><ele>274.0</ele><time>2026-04-04T10:51:53Z</time></trkpt><trkpt lat="44.88466084349605" lon="7.879071836607972"><ele>274.5</ele><time>2026-04-04T10:51:54Z</time></trkpt><trkpt lat="44.88452950464145" lon="7.879050386271085"><ele>275.0</ele><time>2026-04-04T10:51:55Z</time></trkpt><trkpt lat="44.8843951527941" lon="7.8790284438511"><ele>275.5</ele><time>2026-04-04T10:51:56Z</time></trkpt><trkpt lat="44.88426851570225" lon="7.879007761405494"><ele>276.0</ele><time>2026-04-04T10:51:57Z</time></trkpt><trkpt lat="44.88412422885684" lon="7.8789841964170515"><ele>276.0</ele><time>2026-04-04T10:51:58Z</time></trkpt><trkpt lat="44.883982067587496" lon="7.878960978553783"><ele>276.0</ele><time>2026-04-04T10:51:59Z</time></trkpt><trkpt lat="44.8838397594734" lon="7.878937736717643"><ele>276.0</ele><time>2026-04-04T10:52:00Z</time></trkpt><trkpt lat="44.88369791187937" lon="7.878911710231543"><ele>276.0</ele><time>2026-04-04T10:52:01Z</time></trkpt><trkpt lat="44.883559018730104" lon="7.878883901612686"><ele>276.25</ele><time>2026-04-04T10:52:02Z</time></trkpt><trkpt lat="44.88342581645489" lon="7.878853078260422"><ele>276.5</ele><time>2026-04-04T10:52:03Z</time></trkpt><trkpt lat="44.88329617483323" lon="7.878815601637882"><ele>276.75</ele><time>2026-04-04T10:52:03.999Z</time></trkpt><trkpt lat="44.88316494588171" lon="7.87876009053155"><ele>277.0</ele><time>2026-04-04T10:52:04.999Z</time></trkpt><trkpt lat="44.88304233282966" lon="7.878720016495987"><ele>277.0</ele><time>2026-04-04T10:52:05.999Z</time></trkpt><trkpt lat="44.882935508703056" lon="7.87866314516357"><ele>277.0</ele><time>2026-04-04T10:52:06.999Z</time></trkpt><trkpt lat="44.88283261572877" lon="7.878616037003518"><ele>277.0</ele><time>2026-04-04T10:52:07.999Z</time></trkpt><trkpt lat="44.88273816192088" lon="7.878571786847762"><ele>277.0</ele><time>2026-04-04T10:52:08.999Z</time></trkpt><trkpt lat="44.8826500371044" lon="7.878525035853137"><ele>277.0</ele><time>2026-04-04T10:52:09.999Z</time></trkpt><trkpt lat="44.88256077474775" lon="7.878504564071552"><ele>277.16666666666663</ele><time>2026-04-04T10:52:10.999Z</time></trkpt><trkpt lat="44.88247900314187" lon="7.878518168865621"><ele>277.3333333333333</ele><time>2026-04-04T10:52:11.999Z</time></trkpt><trkpt lat="44.882388769343855" lon="7.878513548899304"><ele>277.5</ele><time>2026-04-04T10:52:12.999Z</time></trkpt><trkpt lat="44.88232363813822" lon="7.878505484862766"><ele>277.6666666666667</ele><time>2026-04-04T10:52:13.999Z</time></trkpt><trkpt lat="44.882243389976466" lon="7.878478973776753"><ele>277.83333333333337</ele><time>2026-04-04T10:52:15.999Z</time></trkpt><trkpt lat="44.88213871000018" lon="7.878462547864515"><ele>278.0</ele><time>2026-04-04T10:52:19.999Z</time></trkpt><trkpt lat="44.8820698757335" lon="7.878630272029338"><ele>278.0</ele><time>2026-04-04T10:52:20.999Z</time></trkpt><trkpt lat="44.88200318096824" lon="7.878766905170026"><ele>278.0</ele><time>2026-04-04T10:52:21.999Z</time></trkpt><trkpt lat="44.881916684283176" lon="7.878926021414327"><ele>278.0</ele><time>2026-04-04T10:52:22.999Z</time></trkpt><trkpt lat="44.88182426021014" lon="7.879096211058265"><ele>278.0</ele><time>2026-04-04T10:52:23.999Z</time></trkpt><trkpt lat="44.88173647979122" lon="7.87926077467407"><ele>277.6666666666667</ele><time>2026-04-04T10:52:24.999Z</time></trkpt><trkpt lat="44.88162861129627" lon="7.879446600528882"><ele>277.3333333333333</ele><time>2026-04-04T10:52:25.999Z</time></trkpt><trkpt lat="44.881500613638565" lon="7.879628426161748"><ele>277.0</ele><time>2026-04-04T10:52:26.999Z</time></trkpt><trkpt lat="44.88138295643467" lon="7.879844386937101"><ele>277.0</ele><time>2026-04-04T10:52:27.999Z</time></trkpt><trkpt lat="44.88125857147556" lon="7.880035626701174"><ele>277.0</ele><time>2026-04-04T10:52:28.999Z</time></trkpt><trkpt lat="44.8811363077095" lon="7.880203603280147"><ele>277.0</ele><time>2026-04-04T10:52:29.999Z</time></trkpt><trkpt lat="44.881006245429575" lon="7.880362903782746"><ele>278.0</ele><time>2026-04-04T10:52:30.999Z</time></trkpt><trkpt lat="44.880893278148" lon="7.8805486679777506"><ele>279.0</ele><time>2026-04-04T10:52:31.999Z</time></trkpt><trkpt lat="44.880764680380615" lon="7.880719675318247"><ele>280.0</ele><time>2026-04-04T10:52:32.999Z</time></trkpt><trkpt lat="44.880630776407884" lon="7.880887712095423"><ele>279.66666666666663</ele><time>2026-04-04T10:52:33.999Z</time></trkpt><trkpt lat="44.880493852396654" lon="7.881027136780356"><ele>279.3333333333333</ele><time>2026-04-04T10:52:34.999Z</time></trkpt><trkpt lat="44.88037946226839" lon="7.881181406975631"><ele>279.0</ele><time>2026-04-04T10:52:35.999Z</time></trkpt><trkpt lat="44.88025067135591" lon="7.881336381325749"><ele>279.0</ele><time>2026-04-04T10:52:36.999Z</time></trkpt><trkpt lat="44.88011710725357" lon="7.881486785064773"><ele>279.0</ele><time>2026-04-04T10:52:37.999Z</time></trkpt><trkpt lat="44.879982404579096" lon="7.881633080782186"><ele>279.0</ele><time>2026-04-04T10:52:38.999Z</time></trkpt><trkpt lat="44.87984488713122" lon="7.8817821972954265"><ele>279.6666666666667</ele><time>2026-04-04T10:52:39.999Z</time></trkpt><trkpt lat="44.87970557365186" lon="7.881922833234652"><ele>280.33333333333337</ele><time>2026-04-04T10:52:40.999Z</time></trkpt><trkpt lat="44.87956967541788" lon="7.882076027811363"><ele>281.0</ele><time>2026-04-04T10:52:41.999Z</time></trkpt><trkpt lat="44.87942954498679" lon="7.882219601021074"><ele>281.0</ele><time>2026-04-04T10:52:42.999Z</time></trkpt><trkpt lat="44.87928608452465" lon="7.882352789520664"><ele>281.0</ele><time>2026-04-04T10:52:43.999Z</time></trkpt><trkpt lat="44.8791554424745" lon="7.882519743791824"><ele>281.0</ele><time>2026-04-04T10:52:44.999Z</time></trkpt><trkpt lat="44.87901335016971" lon="7.88266820505666"><ele>281.33333333333337</ele><time>2026-04-04T10:52:45.999Z</time></trkpt><trkpt lat="44.87887796363611" lon="7.882815160238108"><ele>281.6666666666667</ele><time>2026-04-04T10:52:46.999Z</time></trkpt><trkpt lat="44.87873187512329" lon="7.882949519015612"><ele>282.0</ele><time>2026-04-04T10:52:47.999Z</time></trkpt><trkpt lat="44.87860244511433" lon="7.883117351606234"><ele>282.0</ele><time>2026-04-04T10:52:48.999Z</time></trkpt><trkpt lat="44.87845982625176" lon="7.883263007924492"><ele>282.0</ele><time>2026-04-04T10:52:49.999Z</time></trkpt><trkpt lat="44.8783210218716" lon="7.883419263721082"><ele>282.0</ele><time>2026-04-04T10:52:50.999Z</time></trkpt><trkpt lat="44.87817941451796" lon="7.883571478816029"><ele>282.3333333333333</ele><time>2026-04-04T10:52:51.999Z</time></trkpt><trkpt lat="44.87804303666328" lon="7.883718200092073"><ele>282.66666666666663</ele><time>2026-04-04T10:52:52.999Z</time></trkpt><trkpt lat="44.87790411293773" lon="7.883861657471888"><ele>283.0</ele><time>2026-04-04T10:52:53.999Z</time></trkpt><trkpt lat="44.8777728680956" lon="7.884000230736299"><ele>283.0</ele><time>2026-04-04T10:52:54.999Z</time></trkpt><trkpt lat="44.87763384095314" lon="7.884134614899223"><ele>283.0</ele><time>2026-04-04T10:52:55.999Z</time></trkpt><trkpt lat="44.877502642753214" lon="7.884281119339607"><ele>283.0</ele><time>2026-04-04T10:52:56.999Z</time></trkpt><trkpt lat="44.877369070653806" lon="7.884430503645704"><ele>282.3333333333333</ele><time>2026-04-04T10:52:57.999Z</time></trkpt><trkpt lat="44.87722661893067" lon="7.884582584737996"><ele>281.6666666666667</ele><time>2026-04-04T10:52:58.999Z</time></trkpt><trkpt lat="44.877075252136486" lon="7.884743114029701"><ele>281.0</ele><time>2026-04-04T10:52:59.999Z</time></trkpt><trkpt lat="44.87693412020529" lon="7.884905947307216"><ele>281.0</ele><time>2026-04-04T10:53:00.999Z</time></trkpt><trkpt lat="44.87678053090637" lon="7.885065708818533"><ele>281.0</ele><time>2026-04-04T10:53:01.999Z</time></trkpt><trkpt lat="44.876630777664325" lon="7.885227408482399"><ele>281.0</ele><time>2026-04-04T10:53:02.999Z</time></trkpt><trkpt lat="44.87648106748027" lon="7.885393605522509"><ele>280.0</ele><time>2026-04-04T10:53:03.999Z</time></trkpt><trkpt lat="44.87632681400734" lon="7.88553112136495"><ele>279.0</ele><time>2026-04-04T10:53:04.999Z</time></trkpt><trkpt lat="44.8761914398461" lon="7.885676732222127"><ele>278.0</ele><time>2026-04-04T10:53:05.999Z</time></trkpt><trkpt lat="44.8760604255501" lon="7.885817653280041"><ele>278.6666666666667</ele><time>2026-04-04T10:53:06.999Z</time></trkpt><trkpt lat="44.87593417129521" lon="7.885975587133724"><ele>279.3333333333333</ele><time>2026-04-04T10:53:07.999Z</time></trkpt><trkpt lat="44.875800727229205" lon="7.886116737597586"><ele>280.0</ele><time>2026-04-04T10:53:08.999Z</time></trkpt><trkpt lat="44.875663961259015" lon="7.886265887890965"><ele>280.0</ele><time>2026-04-04T10:53:09.999Z</time></trkpt><trkpt lat="44.87551691521652" lon="7.886402458744021"><ele>280.0</ele><time>2026-04-04T10:53:10.998Z</time></trkpt><trkpt lat="44.87537607776796" lon="7.88656102678708"><ele>280.0</ele><time>2026-04-04T10:53:11.998Z</time></trkpt><trkpt lat="44.87525061037213" lon="7.88673470112436"><ele>281.3333333333333</ele><time>2026-04-04T10:53:12.998Z</time></trkpt><trkpt lat="44.87511746643088" lon="7.886901594538118"><ele>282.6666666666667</ele><time>2026-04-04T10:53:13.998Z</time></trkpt><trkpt lat="44.87498892594023" lon="7.887080714480746"><ele>284.0</ele><time>2026-04-04T10:53:14.998Z</time></trkpt><trkpt lat="44.874867706034465" lon="7.887274038798675"><ele>284.0</ele><time>2026-04-04T10:53:15.998Z</time></trkpt><trkpt lat="44.87474838857239" lon="7.887469205069855"><ele>284.0</ele><time>2026-04-04T10:53:16.998Z</time></trkpt><trkpt lat="44.87462383622823" lon="7.88765804161952"><ele>284.0</ele><time>2026-04-04T10:53:17.998Z</time></trkpt><trkpt lat="44.87452759254406" lon="7.88787529113799"><ele>285.0</ele><time>2026-04-04T10:53:18.998Z</time></trkpt><trkpt lat="44.87441529154963" lon="7.888077255066083"><ele>286.0</ele><time>2026-04-04T10:53:19.998Z</time></trkpt><trkpt lat="44.87430698634651" lon="7.8882754720661845"><ele>287.0</ele><time>2026-04-04T10:53:20.998Z</time></trkpt><trkpt lat="44.874202892829125" lon="7.888471256097008"><ele>288.0</ele><time>2026-04-04T10:53:21.998Z</time></trkpt><trkpt lat="44.874104605412796" lon="7.888660523430486"><ele>289.0</ele><time>2026-04-04T10:53:22.998Z</time></trkpt><trkpt lat="44.874009360668985" lon="7.888846046828571"><ele>290.0</ele><time>2026-04-04T10:53:23.998Z</time></trkpt><trkpt lat="44.873915113265845" lon="7.8890256512827355"><ele>290.0</ele><time>2026-04-04T10:53:25Z</time></trkpt><trkpt lat="44.87382487334195" lon="7.889204164457449"><ele>290.0</ele><time>2026-04-04T10:53:26Z</time></trkpt><trkpt lat="44.87371496910174" lon="7.88937097587653"><ele>290.0</ele><time>2026-04-04T10:53:27Z</time></trkpt><trkpt lat="44.87362938037704" lon="7.8895644762905"><ele>289.6666666666667</ele><time>2026-04-04T10:53:28Z</time></trkpt><trkpt lat="44.87353429550378" lon="7.889754156466659"><ele>289.3333333333333</ele><time>2026-04-04T10:53:29Z</time></trkpt><trkpt lat="44.873434469017525" lon="7.8899336134269085"><ele>289.0</ele><time>2026-04-04T10:53:30Z</time></trkpt><trkpt lat="44.87333544020123" lon="7.89012302716742"><ele>290.3333333333333</ele><time>2026-04-04T10:53:31Z</time></trkpt><trkpt lat="44.873224726438885" lon="7.890300163538967"><ele>291.6666666666667</ele><time>2026-04-04T10:53:32Z</time></trkpt><trkpt lat="44.8731303108309" lon="7.89049707234639"><ele>293.0</ele><time>2026-04-04T10:53:33Z</time></trkpt><trkpt lat="44.87302958082673" lon="7.89068857054836"><ele>293.0</ele><time>2026-04-04T10:53:34Z</time></trkpt><trkpt lat="44.87293190598464" lon="7.8908797723154915"><ele>293.0</ele><time>2026-04-04T10:53:35Z</time></trkpt><trkpt lat="44.87283480128957" lon="7.891073872975869"><ele>293.0</ele><time>2026-04-04T10:53:36Z</time></trkpt><trkpt lat="44.87272325717452" lon="7.891249950494488"><ele>292.6666666666667</ele><time>2026-04-04T10:53:37Z</time></trkpt><trkpt lat="44.872621827430564" lon="7.891440659274799"><ele>292.3333333333333</ele><time>2026-04-04T10:53:38Z</time></trkpt><trkpt lat="44.872520136891765" lon="7.891631858555007"><ele>292.0</ele><time>2026-04-04T10:53:39Z</time></trkpt><trkpt lat="44.872420177516624" lon="7.89181979944941"><ele>292.0</ele><time>2026-04-04T10:53:40Z</time></trkpt><trkpt lat="44.87232322158476" lon="7.892003755098435"><ele>292.0</ele><time>2026-04-04T10:53:41Z</time></trkpt><trkpt lat="44.872240666834635" lon="7.8921991684595065"><ele>292.0</ele><time>2026-04-04T10:53:42Z</time></trkpt><trkpt lat="44.87212998395958" lon="7.892369526174662"><ele>292.0</ele><time>2026-04-04T10:53:43Z</time></trkpt><trkpt lat="44.872040276553" lon="7.892539329626454"><ele>292.0</ele><time>2026-04-04T10:53:44Z</time></trkpt><trkpt lat="44.87195391421822" lon="7.892702801064918"><ele>292.0</ele><time>2026-04-04T10:53:45Z</time></trkpt><trkpt lat="44.87187241178648" lon="7.892856744184533"><ele>292.0</ele><time>2026-04-04T10:53:46Z</time></trkpt><trkpt lat="44.87179136614159" lon="7.8930097328682685"><ele>292.25</ele><time>2026-04-04T10:53:47Z</time></trkpt><trkpt lat="44.87170840301265" lon="7.893166340800077"><ele>292.5</ele><time>2026-04-04T10:53:48Z</time></trkpt><trkpt lat="44.87161691873743" lon="7.893339033876877"><ele>292.75</ele><time>2026-04-04T10:53:49Z</time></trkpt><trkpt lat="44.871530532749176" lon="7.893502103448862"><ele>293.0</ele><time>2026-04-04T10:53:50Z</time></trkpt><trkpt lat="44.871440103778866" lon="7.893672804478179"><ele>293.0</ele><time>2026-04-04T10:53:51Z</time></trkpt><trkpt lat="44.8713581701986" lon="7.893865018689579"><ele>293.0</ele><time>2026-04-04T10:53:52Z</time></trkpt><trkpt lat="44.871261280447115" lon="7.894034838320579"><ele>293.0</ele><time>2026-04-04T10:53:53Z</time></trkpt><trkpt lat="44.87117048057156" lon="7.8942032762177785"><ele>292.6666666666667</ele><time>2026-04-04T10:53:54Z</time></trkpt><trkpt lat="44.87107843289004" lon="7.894368538922226"><ele>292.3333333333333</ele><time>2026-04-04T10:53:55Z</time></trkpt><trkpt lat="44.870985225755504" lon="7.894535383158661"><ele>292.0</ele><time>2026-04-04T10:53:56Z</time></trkpt><trkpt lat="44.870890537555226" lon="7.894703870163194"><ele>292.25</ele><time>2026-04-04T10:53:57Z</time></trkpt><trkpt lat="44.8708013177106" lon="7.894856313485795"><ele>292.5</ele><time>2026-04-04T10:53:58Z</time></trkpt><trkpt lat="44.87071018573924" lon="7.894988735695515"><ele>292.75</ele><time>2026-04-04T10:53:59Z</time></trkpt><trkpt lat="44.87061032029931" lon="7.895103634605234"><ele>293.0</ele><time>2026-04-04T10:54:00Z</time></trkpt><trkpt lat="44.87050514550376" lon="7.895222078729152"><ele>293.0</ele><time>2026-04-04T10:54:01Z</time></trkpt><trkpt lat="44.870384209997404" lon="7.8953096153685545"><ele>293.0</ele><time>2026-04-04T10:54:02Z</time></trkpt><trkpt lat="44.87026473928719" lon="7.895399584251157"><ele>293.0</ele><time>2026-04-04T10:54:03Z</time></trkpt><trkpt lat="44.87013869762476" lon="7.895481790732571"><ele>293.0</ele><time>2026-04-04T10:54:04Z</time></trkpt><trkpt lat="44.8700138026922" lon="7.895574653460125"><ele>294.0</ele><time>2026-04-04T10:54:05Z</time></trkpt><trkpt lat="44.869876855862884" lon="7.895644647023641"><ele>295.0</ele><time>2026-04-04T10:54:06Z</time></trkpt><trkpt lat="44.86975796841867" lon="7.895710870177733"><ele>296.0</ele><time>2026-04-04T10:54:06.999Z</time></trkpt><trkpt lat="44.869641741090945" lon="7.8957767786828486"><ele>297.0</ele><time>2026-04-04T10:54:07.999Z</time></trkpt><trkpt lat="44.86953339312596" lon="7.895845709207384"><ele>297.0</ele><time>2026-04-04T10:54:08.999Z</time></trkpt><trkpt lat="44.86942672420645" lon="7.895899843709464"><ele>297.0</ele><time>2026-04-04T10:54:09.999Z</time></trkpt><trkpt lat="44.86932093748183" lon="7.895962422669722"><ele>297.0</ele><time>2026-04-04T10:54:10.999Z</time></trkpt><trkpt lat="44.8692419075338" lon="7.895997134190212"><ele>297.0</ele><time>2026-04-04T10:54:11.999Z</time></trkpt><trkpt lat="44.86912395222293" lon="7.89607103385059"><ele>297.0</ele><time>2026-04-04T10:54:12.999Z</time></trkpt><trkpt lat="44.86902339837904" lon="7.896124345728922"><ele>297.6</ele><time>2026-04-04T10:54:13.999Z</time></trkpt><trkpt lat="44.86892907915885" lon="7.896184122611962"><ele>298.2</ele><time>2026-04-04T10:54:14.999Z</time></trkpt><trkpt lat="44.86881524680802" lon="7.896211203144471"><ele>298.8</ele><time>2026-04-04T10:54:15.999Z</time></trkpt><trkpt lat="44.86871046280145" lon="7.896246865348947"><ele>299.4</ele><time>2026-04-04T10:54:16.999Z</time></trkpt><trkpt lat="44.86861312442442" lon="7.896268394685527"><ele>300.0</ele><time>2026-04-04T10:54:17.999Z</time></trkpt><trkpt lat="44.86846717182919" lon="7.896281941952155"><ele>298.5</ele><time>2026-04-04T10:54:18.999Z</time></trkpt><trkpt lat="44.8683372546555" lon="7.896283261500063"><ele>297.0</ele><time>2026-04-04T10:54:19.999Z</time></trkpt><trkpt lat="44.868214342834634" lon="7.896305219721392"><ele>295.5</ele><time>2026-04-04T10:54:20.999Z</time></trkpt><trkpt lat="44.868073215221834" lon="7.8962972185960485"><ele>294.0</ele><time>2026-04-04T10:54:21.999Z</time></trkpt><trkpt lat="44.8679470825828" lon="7.896293384764263"><ele>294.0</ele><time>2026-04-04T10:54:22.999Z</time></trkpt><trkpt lat="44.86781087120091" lon="7.896303053003626"><ele>294.0</ele><time>2026-04-04T10:54:23.999Z</time></trkpt><trkpt lat="44.86767690513988" lon="7.896302066015155"><ele>294.0</ele><time>2026-04-04T10:54:24.999Z</time></trkpt><trkpt lat="44.86754351923583" lon="7.89629935841684"><ele>294.0</ele><time>2026-04-04T10:54:25.999Z</time></trkpt><trkpt lat="44.86741220653229" lon="7.896313164693938"><ele>292.5</ele><time>2026-04-04T10:54:26.999Z</time></trkpt><trkpt lat="44.86726840105179" lon="7.89632943515067"><ele>291.0</ele><time>2026-04-04T10:54:27.999Z</time></trkpt><trkpt lat="44.86714227639328" lon="7.896331068970293"><ele>289.5</ele><time>2026-04-04T10:54:28.999Z</time></trkpt><trkpt lat="44.867013215161364" lon="7.896347522230101"><ele>288.0</ele><time>2026-04-04T10:54:29.999Z</time></trkpt><trkpt lat="44.866900585252715" lon="7.896351310796466"><ele>286.0</ele><time>2026-04-04T10:54:30.999Z</time></trkpt><trkpt lat="44.86677055320191" lon="7.896365472139262"><ele>284.0</ele><time>2026-04-04T10:54:31.999Z</time></trkpt><trkpt lat="44.86667041535108" lon="7.896375544976327"><ele>282.0</ele><time>2026-04-04T10:54:32.999Z</time></trkpt><trkpt lat="44.86653846617546" lon="7.8963806207500635"><ele>280.0</ele><time>2026-04-04T10:54:33.999Z</time></trkpt><trkpt lat="44.866417099062346" lon="7.896390844295787"><ele>280.0</ele><time>2026-04-04T10:54:34.999Z</time></trkpt><trkpt lat="44.86629232491441" lon="7.89639854512432"><ele>280.0</ele><time>2026-04-04T10:54:35.999Z</time></trkpt><trkpt lat="44.866174817118285" lon="7.896391101488731"><ele>280.0</ele><time>2026-04-04T10:54:36.999Z</time></trkpt><trkpt lat="44.86604701990725" lon="7.896398896327263"><ele>280.0</ele><time>2026-04-04T10:54:37.999Z</time></trkpt><trkpt lat="44.865925164735664" lon="7.8964291425729405"><ele>278.5</ele><time>2026-04-04T10:54:38.999Z</time></trkpt><trkpt lat="44.86581593334657" lon="7.89644099372135"><ele>277.0</ele><time>2026-04-04T10:54:39.999Z</time></trkpt><trkpt lat="44.865689021694244" lon="7.89644666976271"><ele>275.5</ele><time>2026-04-04T10:54:40.999Z</time></trkpt><trkpt lat="44.865566053740714" lon="7.896461711303595"><ele>274.0</ele><time>2026-04-04T10:54:41.999Z</time></trkpt><trkpt lat="44.86544641274886" lon="7.896472570780161"><ele>274.0</ele><time>2026-04-04T10:54:42.999Z</time></trkpt><trkpt lat="44.86532369715289" lon="7.896485816071388"><ele>274.0</ele><time>2026-04-04T10:54:43.999Z</time></trkpt><trkpt lat="44.865215857883456" lon="7.8964879853898085"><ele>274.0</ele><time>2026-04-04T10:54:44.999Z</time></trkpt><trkpt lat="44.86511304151848" lon="7.896494038287818"><ele>274.0</ele><time>2026-04-04T10:54:45.999Z</time></trkpt><trkpt lat="44.86501041144252" lon="7.896503154896047"><ele>274.0</ele><time>2026-04-04T10:54:46.999Z</time></trkpt><trkpt lat="44.86491056743563" lon="7.896501179301202"><ele>274.0</ele><time>2026-04-04T10:54:47.999Z</time></trkpt><trkpt lat="44.864809550696265" lon="7.89651606567162"><ele>274.0</ele><time>2026-04-04T10:54:48.999Z</time></trkpt><trkpt lat="44.86471212321683" lon="7.896521901768534"><ele>274.0</ele><time>2026-04-04T10:54:49.999Z</time></trkpt><trkpt lat="44.86461781376382" lon="7.896528762651455"><ele>274.0</ele><time>2026-04-04T10:54:50.999Z</time></trkpt><trkpt lat="44.86452228003904" lon="7.896533940010544"><ele>274.0</ele><time>2026-04-04T10:54:51.999Z</time></trkpt><trkpt lat="44.86442888414343" lon="7.896543514123763"><ele>274.0</ele><time>2026-04-04T10:54:52.999Z</time></trkpt><trkpt lat="44.86433978275898" lon="7.896554497789971"><ele>274.0</ele><time>2026-04-04T10:54:53.999Z</time></trkpt><trkpt lat="44.864239269701315" lon="7.896563349685123"><ele>274.0</ele><time>2026-04-04T10:54:54.999Z</time></trkpt><trkpt lat="44.86412851521817" lon="7.896556278813904"><ele>274.0</ele><time>2026-04-04T10:54:55.999Z</time></trkpt><trkpt lat="44.864016711591944" lon="7.896545673838955"><ele>274.0</ele><time>2026-04-04T10:54:56.999Z</time></trkpt><trkpt lat="44.86389944273449" lon="7.896524904287777"><ele>272.75</ele><time>2026-04-04T10:54:57.999Z</time></trkpt><trkpt lat="44.86377984813321" lon="7.896499956421385"><ele>271.5</ele><time>2026-04-04T10:54:58.999Z</time></trkpt><trkpt lat="44.86365732398672" lon="7.896475295795385"><ele>270.25</ele><time>2026-04-04T10:54:59.999Z</time></trkpt><trkpt lat="44.86353076177943" lon="7.896439998523181"><ele>269.0</ele><time>2026-04-04T10:55:00.999Z</time></trkpt><trkpt lat="44.863401801184146" lon="7.896400402849931"><ele>268.75</ele><time>2026-04-04T10:55:01.999Z</time></trkpt><trkpt lat="44.86326875648174" lon="7.896363432028351"><ele>268.5</ele><time>2026-04-04T10:55:02.999Z</time></trkpt><trkpt lat="44.863133610428115" lon="7.89632889254363"><ele>268.25</ele><time>2026-04-04T10:55:03.999Z</time></trkpt><trkpt lat="44.863000690578716" lon="7.896288731519043"><ele>268.0</ele><time>2026-04-04T10:55:04.999Z</time></trkpt><trkpt lat="44.86287059596866" lon="7.896251284750674"><ele>268.0</ele><time>2026-04-04T10:55:05.999Z</time></trkpt><trkpt lat="44.862745338192454" lon="7.89622056737536"><ele>268.0</ele><time>2026-04-04T10:55:06.999Z</time></trkpt><trkpt lat="44.86263036574503" lon="7.896196582270274"><ele>268.0</ele><time>2026-04-04T10:55:07.999Z</time></trkpt><trkpt lat="44.86253113621334" lon="7.896149204434818"><ele>268.0</ele><time>2026-04-04T10:55:08.999Z</time></trkpt><trkpt lat="44.862443612678895" lon="7.896123356507767"><ele>268.0</ele><time>2026-04-04T10:55:09.999Z</time></trkpt><trkpt lat="44.86236650109095" lon="7.896110756750086"><ele>268.3333333333333</ele><time>2026-04-04T10:55:10.999Z</time></trkpt><trkpt lat="44.862304109330196" lon="7.896050417685598"><ele>268.66666666666663</ele><time>2026-04-04T10:55:11.999Z</time></trkpt><trkpt lat="44.86225200115397" lon="7.895999330384083"><ele>269.0</ele><time>2026-04-04T10:55:12.999Z</time></trkpt><trkpt lat="44.86218652208788" lon="7.895892957791186"><ele>269.3333333333333</ele><time>2026-04-04T10:55:14.998Z</time></trkpt><trkpt lat="44.86212717358114" lon="7.8957650900378935"><ele>269.6666666666667</ele><time>2026-04-04T10:55:16.998Z</time></trkpt><trkpt lat="44.86207406769592" lon="7.895715418826337"><ele>270.0</ele><time>2026-04-04T10:55:17.998Z</time></trkpt><trkpt lat="44.86200816927143" lon="7.895687835454985"><ele>270.0</ele><time>2026-04-04T10:55:18.998Z</time></trkpt><trkpt lat="44.861937374929816" lon="7.895701915697868"><ele>270.0</ele><time>2026-04-04T10:55:19.998Z</time></trkpt><trkpt lat="44.86188155498945" lon="7.895743411459284"><ele>270.0</ele><time>2026-04-04T10:55:20.998Z</time></trkpt><trkpt lat="44.86183369535087" lon="7.895822819703209"><ele>270.0</ele><time>2026-04-04T10:55:21.998Z</time></trkpt><trkpt lat="44.86179655974388" lon="7.895923686146842"><ele>270.0</ele><time>2026-04-04T10:55:22.998Z</time></trkpt><trkpt lat="44.86174710600245" lon="7.896022189755776"><ele>270.0</ele><time>2026-04-04T10:55:23.998Z</time></trkpt><trkpt lat="44.86167755914334" lon="7.89609550444283"><ele>269.8</ele><time>2026-04-04T10:55:24.998Z</time></trkpt><trkpt lat="44.861589193667136" lon="7.8961523111469365"><ele>269.6</ele><time>2026-04-04T10:55:25.998Z</time></trkpt><trkpt lat="44.86149219634958" lon="7.896213331383113"><ele>269.4</ele><time>2026-04-04T10:55:26.998Z</time></trkpt><trkpt lat="44.86138725466262" lon="7.8962840180333025"><ele>269.2</ele><time>2026-04-04T10:55:27.998Z</time></trkpt><trkpt lat="44.86128388446105" lon="7.8963617320761035"><ele>269.0</ele><time>2026-04-04T10:55:28.998Z</time></trkpt><trkpt lat="44.86119704139249" lon="7.896449458758861"><ele>269.0</ele><time>2026-04-04T10:55:29.998Z</time></trkpt><trkpt lat="44.86110535291244" lon="7.896563906035955"><ele>269.0</ele><time>2026-04-04T10:55:31Z</time></trkpt><trkpt lat="44.861004809796" lon="7.8966853778766115"><ele>269.0</ele><time>2026-04-04T10:55:32Z</time></trkpt><trkpt lat="44.860919464742345" lon="7.896837516468688"><ele>269.0</ele><time>2026-04-04T10:55:33Z</time></trkpt><trkpt lat="44.86084535168554" lon="7.897008081825157"><ele>269.0</ele><time>2026-04-04T10:55:34Z</time></trkpt><trkpt lat="44.86076291918829" lon="7.897181008594156"><ele>269.0</ele><time>2026-04-04T10:55:35Z</time></trkpt><trkpt lat="44.860682393668945" lon="7.897345221079562"><ele>269.0</ele><time>2026-04-04T10:55:36Z</time></trkpt><trkpt lat="44.860601007232724" lon="7.897498797602729"><ele>269.0</ele><time>2026-04-04T10:55:37Z</time></trkpt><trkpt lat="44.86051529263519" lon="7.897661341863087"><ele>269.5</ele><time>2026-04-04T10:55:38Z</time></trkpt><trkpt lat="44.860430691805625" lon="7.897831530599239"><ele>270.0</ele><time>2026-04-04T10:55:39Z</time></trkpt><trkpt lat="44.860348921411386" lon="7.898008025862874"><ele>270.5</ele><time>2026-04-04T10:55:40Z</time></trkpt><trkpt lat="44.86026695097522" lon="7.898184659866084"><ele>271.0</ele><time>2026-04-04T10:55:41Z</time></trkpt><trkpt lat="44.86018663355805" lon="7.898361828276343"><ele>270.5</ele><time>2026-04-04T10:55:42Z</time></trkpt><trkpt lat="44.86010855499191" lon="7.898526366253735"><ele>270.0</ele><time>2026-04-04T10:55:43Z</time></trkpt><trkpt lat="44.86002793687295" lon="7.898688090941148"><ele>269.5</ele><time>2026-04-04T10:55:44Z</time></trkpt><trkpt lat="44.8599541791495" lon="7.898844788241363"><ele>269.0</ele><time>2026-04-04T10:55:45Z</time></trkpt><trkpt lat="44.85988142784758" lon="7.898991783946321"><ele>269.0</ele><time>2026-04-04T10:55:46Z</time></trkpt><trkpt lat="44.85981318225631" lon="7.899129984520528"><ele>269.0</ele><time>2026-04-04T10:55:47Z</time></trkpt><trkpt lat="44.85973836555222" lon="7.899264753941081"><ele>269.0</ele><time>2026-04-04T10:55:48Z</time></trkpt><trkpt lat="44.85967799816255" lon="7.899377990774698"><ele>269.0</ele><time>2026-04-04T10:55:49Z</time></trkpt><trkpt lat="44.85960467162849" lon="7.899512449559701"><ele>270.2</ele><time>2026-04-04T10:55:50Z</time></trkpt><trkpt lat="44.85954151934855" lon="7.899624975532793"><ele>271.4</ele><time>2026-04-04T10:55:51Z</time></trkpt><trkpt lat="44.85948143485362" lon="7.89973202841151"><ele>272.6</ele><time>2026-04-04T10:55:52Z</time></trkpt><trkpt lat="44.8594254940443" lon="7.89982921142526"><ele>273.8</ele><time>2026-04-04T10:55:53Z</time></trkpt><trkpt lat="44.85936921622808" lon="7.89992248079275"><ele>275.0</ele><time>2026-04-04T10:55:54Z</time></trkpt><trkpt lat="44.85931679957608" lon="7.900013249453698"><ele>274.6666666666667</ele><time>2026-04-04T10:55:55Z</time></trkpt><trkpt lat="44.85926735701044" lon="7.900104576821527"><ele>274.33333333333337</ele><time>2026-04-04T10:55:56Z</time></trkpt><trkpt lat="44.85920934855469" lon="7.900182327172381"><ele>274.0</ele><time>2026-04-04T10:55:57Z</time></trkpt><trkpt lat="44.85916874321379" lon="7.900255355855588"><ele>273.6666666666667</ele><time>2026-04-04T10:55:58Z</time></trkpt><trkpt lat="44.85911444173717" lon="7.900358745859436"><ele>273.3333333333333</ele><time>2026-04-04T10:56:00Z</time></trkpt><trkpt lat="44.859062383151894" lon="7.900459148840592"><ele>273.0</ele><time>2026-04-04T10:57:03.999Z</time></trkpt><trkpt lat="44.85902406038181" lon="7.900533516748615"><ele>273.0</ele><time>2026-04-04T10:57:04.999Z</time></trkpt><trkpt lat="44.85897857353328" lon="7.900624766469713"><ele>273.0</ele><time>2026-04-04T10:57:05.999Z</time></trkpt><trkpt lat="44.85893712443072" lon="7.900714860301393"><ele>273.0</ele><time>2026-04-04T10:57:06.999Z</time></trkpt><trkpt lat="44.85890094887199" lon="7.9007932663798455"><ele>273.0</ele><time>2026-04-04T10:57:07.999Z</time></trkpt><trkpt lat="44.85886283786852" lon="7.900883196074388"><ele>273.0</ele><time>2026-04-04T10:57:08.999Z</time></trkpt><trkpt lat="44.85882041491488" lon="7.900983821339585"><ele>273.0</ele><time>2026-04-04T10:57:09.999Z</time></trkpt><trkpt lat="44.858772435602134" lon="7.901103509972183"><ele>274.5</ele><time>2026-04-04T10:57:10.999Z</time></trkpt><trkpt lat="44.85871658519872" lon="7.901246089105852"><ele>276.0</ele><time>2026-04-04T10:57:11.999Z</time></trkpt><trkpt lat="44.85865348162633" lon="7.901408710727266"><ele>277.5</ele><time>2026-04-04T10:57:12.999Z</time></trkpt><trkpt lat="44.858582098947" lon="7.901595190264458"><ele>279.0</ele><time>2026-04-04T10:57:13.999Z</time></trkpt><trkpt lat="44.85850594754632" lon="7.9017943778454525"><ele>277.0</ele><time>2026-04-04T10:57:14.999Z</time></trkpt><trkpt lat="44.858427771427046" lon="7.902002110964387"><ele>275.0</ele><time>2026-04-04T10:57:15.999Z</time></trkpt><trkpt lat="44.858352472509424" lon="7.902203276749649"><ele>273.0</ele><time>2026-04-04T10:57:16.999Z</time></trkpt><trkpt lat="44.85827597339139" lon="7.902408084688723"><ele>275.0</ele><time>2026-04-04T10:57:17.999Z</time></trkpt><trkpt lat="44.858197315843924" lon="7.902619086650979"><ele>277.0</ele><time>2026-04-04T10:57:18.999Z</time></trkpt><trkpt lat="44.85811838712385" lon="7.902830816098826"><ele>279.0</ele><time>2026-04-04T10:57:19.999Z</time></trkpt><trkpt lat="44.85803852195569" lon="7.903044080290889"><ele>279.0</ele><time>2026-04-04T10:57:20.999Z</time></trkpt><trkpt lat="44.857956948538" lon="7.903259735268278"><ele>279.0</ele><time>2026-04-04T10:57:21.999Z</time></trkpt><trkpt lat="44.85787469312578" lon="7.903477193243108"><ele>279.0</ele><time>2026-04-04T10:57:22.999Z</time></trkpt><trkpt lat="44.85779179633836" lon="7.90369669746397"><ele>278.3333333333333</ele><time>2026-04-04T10:57:23.999Z</time></trkpt><trkpt lat="44.857710359544804" lon="7.903913191265983"><ele>277.66666666666663</ele><time>2026-04-04T10:57:24.998Z</time></trkpt><trkpt lat="44.85763012707601" lon="7.904126483421339"><ele>277.0</ele><time>2026-04-04T10:57:25.998Z</time></trkpt><trkpt lat="44.85755131992654" lon="7.904333563708904"><ele>277.0</ele><time>2026-04-04T10:57:26.998Z</time></trkpt><trkpt lat="44.85747045850647" lon="7.904529650941611"><ele>277.0</ele><time>2026-04-04T10:57:27.998Z</time></trkpt><trkpt lat="44.85738181396537" lon="7.904723720017132"><ele>277.0</ele><time>2026-04-04T10:57:28.998Z</time></trkpt><trkpt lat="44.857293321671584" lon="7.904921365231117"><ele>279.0</ele><time>2026-04-04T10:57:29.998Z</time></trkpt><trkpt lat="44.857169458101055" lon="7.905089733995048"><ele>281.0</ele><time>2026-04-04T10:57:30.998Z</time></trkpt><trkpt lat="44.85703237068031" lon="7.905251697785525"><ele>283.0</ele><time>2026-04-04T10:57:31.998Z</time></trkpt><trkpt lat="44.85687955953855" lon="7.905404265900848"><ele>281.3333333333333</ele><time>2026-04-04T10:57:32.998Z</time></trkpt><trkpt lat="44.85671507647203" lon="7.905554413501383"><ele>279.6666666666667</ele><time>2026-04-04T10:57:33.998Z</time></trkpt><trkpt lat="44.856544421643484" lon="7.905680591150447"><ele>278.0</ele><time>2026-04-04T10:57:34.998Z</time></trkpt><trkpt lat="44.85638743988071" lon="7.905816799373854"><ele>278.6666666666667</ele><time>2026-04-04T10:57:35.998Z</time></trkpt><trkpt lat="44.85622405654107" lon="7.905959379059596"><ele>279.3333333333333</ele><time>2026-04-04T10:57:37Z</time></trkpt><trkpt lat="44.85605977095687" lon="7.9060989043009995"><ele>280.0</ele><time>2026-04-04T10:57:38Z</time></trkpt><trkpt lat="44.85589414626251" lon="7.906239204845164"><ele>280.0</ele><time>2026-04-04T10:57:39Z</time></trkpt><trkpt lat="44.85572732975558" lon="7.906382046579253"><ele>280.0</ele><time>2026-04-04T10:57:40Z</time></trkpt><trkpt lat="44.85556795874284" lon="7.906518887251422"><ele>280.0</ele><time>2026-04-04T10:57:41Z</time></trkpt><trkpt lat="44.85541452529182" lon="7.906650538669089"><ele>279.0</ele><time>2026-04-04T10:57:42Z</time></trkpt><trkpt lat="44.855250341318964" lon="7.906787358783968"><ele>278.0</ele><time>2026-04-04T10:57:43Z</time></trkpt><trkpt lat="44.855077217224135" lon="7.9069224646156435"><ele>277.0</ele><time>2026-04-04T10:57:44Z</time></trkpt><trkpt lat="44.85490489482297" lon="7.907076504992597"><ele>277.0</ele><time>2026-04-04T10:57:45Z</time></trkpt><trkpt lat="44.854719454413534" lon="7.9072033859701785"><ele>277.0</ele><time>2026-04-04T10:57:46Z</time></trkpt><trkpt lat="44.85453112586137" lon="7.907327772206573"><ele>277.0</ele><time>2026-04-04T10:57:47Z</time></trkpt><trkpt lat="44.85434462776505" lon="7.907446411802587"><ele>275.3333333333333</ele><time>2026-04-04T10:57:48Z</time></trkpt><trkpt lat="44.85415619892571" lon="7.90756584661283"><ele>273.6666666666667</ele><time>2026-04-04T10:57:49Z</time></trkpt><trkpt lat="44.85397024755268" lon="7.907657880503407"><ele>272.0</ele><time>2026-04-04T10:57:50Z</time></trkpt><trkpt lat="44.853793492729864" lon="7.907769328732269"><ele>274.33333333333337</ele><time>2026-04-04T10:57:51Z</time></trkpt><trkpt lat="44.85362549809113" lon="7.90787525350625"><ele>276.6666666666667</ele><time>2026-04-04T10:57:52Z</time></trkpt><trkpt lat="44.853455033931965" lon="7.907982737158084"><ele>279.0</ele><time>2026-04-04T10:57:53Z</time></trkpt><trkpt lat="44.85329440424761" lon="7.908084018110227"><ele>279.0</ele><time>2026-04-04T10:57:54Z</time></trkpt><trkpt lat="44.85313853575587" lon="7.90818108108643"><ele>279.0</ele><time>2026-04-04T10:57:55Z</time></trkpt><trkpt lat="44.852990432820846" lon="7.9082843641475415"><ele>279.0</ele><time>2026-04-04T10:57:56Z</time></trkpt><trkpt lat="44.85282734609099" lon="7.908350606970695"><ele>279.0</ele><time>2026-04-04T10:57:57Z</time></trkpt><trkpt lat="44.85265633288023" lon="7.908399249774296"><ele>279.0</ele><time>2026-04-04T10:57:58Z</time></trkpt><trkpt lat="44.852479159337385" lon="7.908441415771551"><ele>279.0</ele><time>2026-04-04T10:57:59Z</time></trkpt><trkpt lat="44.85230080134223" lon="7.908476532110533"><ele>278.0</ele><time>2026-04-04T10:58:00Z</time></trkpt><trkpt lat="44.852125842427725" lon="7.908509974160572"><ele>277.0</ele><time>2026-04-04T10:58:01Z</time></trkpt><trkpt lat="44.85194826869432" lon="7.908536901440428"><ele>276.0</ele><time>2026-04-04T10:58:02Z</time></trkpt><trkpt lat="44.85177061903567" lon="7.908573411149713"><ele>275.0</ele><time>2026-04-04T10:58:03Z</time></trkpt><trkpt lat="44.85158783547473" lon="7.908608561386835"><ele>274.0</ele><time>2026-04-04T10:58:04Z</time></trkpt><trkpt lat="44.85140113418959" lon="7.9086365080699395"><ele>273.0</ele><time>2026-04-04T10:58:05Z</time></trkpt><trkpt lat="44.85121182284394" lon="7.908649483967816"><ele>273.0</ele><time>2026-04-04T10:58:06Z</time></trkpt><trkpt lat="44.85101110477816" lon="7.9086594296643575"><ele>273.0</ele><time>2026-04-04T10:58:07Z</time></trkpt><trkpt lat="44.85081453429868" lon="7.9086587124093"><ele>273.0</ele><time>2026-04-04T10:58:08Z</time></trkpt><trkpt lat="44.85062219627065" lon="7.908653891509528"><ele>272.6666666666667</ele><time>2026-04-04T10:58:09Z</time></trkpt><trkpt lat="44.850426013817035" lon="7.908651425024527"><ele>272.33333333333337</ele><time>2026-04-04T10:58:10Z</time></trkpt><trkpt lat="44.850227120804774" lon="7.908649265079625"><ele>272.0</ele><time>2026-04-04T10:58:11Z</time></trkpt><trkpt lat="44.850024488010526" lon="7.908651791862514"><ele>272.0</ele><time>2026-04-04T10:58:12Z</time></trkpt><trkpt lat="44.84981961351199" lon="7.908651864917463"><ele>272.0</ele><time>2026-04-04T10:58:13Z</time></trkpt><trkpt lat="44.84961413344123" lon="7.908648770216353"><ele>272.0</ele><time>2026-04-04T10:58:14Z</time></trkpt><trkpt lat="44.849406793110674" lon="7.908648268294698"><ele>272.6666666666667</ele><time>2026-04-04T10:58:15Z</time></trkpt><trkpt lat="44.84919949596307" lon="7.908645390830882"><ele>273.3333333333333</ele><time>2026-04-04T10:58:16Z</time></trkpt><trkpt lat="44.84899557170444" lon="7.908643604454344"><ele>274.0</ele><time>2026-04-04T10:58:17Z</time></trkpt><trkpt lat="44.8487937517156" lon="7.908641085123938"><ele>274.0</ele><time>2026-04-04T10:58:18Z</time></trkpt><trkpt lat="44.848593495950496" lon="7.908637956597895"><ele>274.0</ele><time>2026-04-04T10:58:19Z</time></trkpt><trkpt lat="44.84839616253221" lon="7.908640117507245"><ele>274.0</ele><time>2026-04-04T10:58:20Z</time></trkpt><trkpt lat="44.84819791825914" lon="7.9086519270839215"><ele>274.0</ele><time>2026-04-04T10:58:21Z</time></trkpt><trkpt lat="44.84798926254574" lon="7.908671485792684"><ele>274.0</ele><time>2026-04-04T10:58:22Z</time></trkpt><trkpt lat="44.84778133566507" lon="7.908705579185841"><ele>274.0</ele><time>2026-04-04T10:58:23Z</time></trkpt><trkpt lat="44.8475684171789" lon="7.908754729625441"><ele>274.0</ele><time>2026-04-04T10:58:24Z</time></trkpt><trkpt lat="44.847351712989116" lon="7.908821610470436"><ele>274.0</ele><time>2026-04-04T10:58:25Z</time></trkpt><trkpt lat="44.847134738859" lon="7.908906069175351"><ele>274.0</ele><time>2026-04-04T10:58:26Z</time></trkpt><trkpt lat="44.84690593042129" lon="7.908978671279052"><ele>275.0</ele><time>2026-04-04T10:58:27Z</time></trkpt><trkpt lat="44.84668389432975" lon="7.909095067051965"><ele>276.0</ele><time>2026-04-04T10:58:28Z</time></trkpt><trkpt lat="44.84645707267854" lon="7.909195122264852"><ele>278.0</ele><time>2026-04-04T10:58:29Z</time></trkpt><trkpt lat="44.846224495617435" lon="7.909275356373205"><ele>280.0</ele><time>2026-04-04T10:58:30Z</time></trkpt><trkpt lat="44.846004418789946" lon="7.909397287919082"><ele>279.5</ele><time>2026-04-04T10:58:31Z</time></trkpt><trkpt lat="44.84578124129221" lon="7.9094922860339025"><ele>279.0</ele><time>2026-04-04T10:58:31.999Z</time></trkpt><trkpt lat="44.84556440069479" lon="7.909589148364758"><ele>279.0</ele><time>2026-04-04T10:58:32.999Z</time></trkpt><trkpt lat="44.84535261481631" lon="7.909682583226641"><ele>279.0</ele><time>2026-04-04T10:58:33.999Z</time></trkpt><trkpt lat="44.845145824561364" lon="7.909778306922128"><ele>279.0</ele><time>2026-04-04T10:58:34.999Z</time></trkpt><trkpt lat="44.84493650093056" lon="7.909862241749285"><ele>278.6666666666667</ele><time>2026-04-04T10:58:35.999Z</time></trkpt><trkpt lat="44.844729388731494" lon="7.909955618136669"><ele>278.33333333333337</ele><time>2026-04-04T10:58:36.999Z</time></trkpt><trkpt lat="44.84452781973025" lon="7.91005041196899"><ele>278.0</ele><time>2026-04-04T10:58:37.999Z</time></trkpt><trkpt lat="44.84432563885355" lon="7.910139551810702"><ele>278.6666666666667</ele><time>2026-04-04T10:58:38.999Z</time></trkpt><trkpt lat="44.84412290983497" lon="7.91023223681787"><ele>279.3333333333333</ele><time>2026-04-04T10:58:39.999Z</time></trkpt><trkpt lat="44.84392411796242" lon="7.910319480891019"><ele>280.0</ele><time>2026-04-04T10:58:40.999Z</time></trkpt><trkpt lat="44.84373712524397" lon="7.910397134723412"><ele>280.0</ele><time>2026-04-04T10:58:41.999Z</time></trkpt><trkpt lat="44.84354999060133" lon="7.910487096910198"><ele>280.0</ele><time>2026-04-04T10:58:42.999Z</time></trkpt><trkpt lat="44.843391180026046" lon="7.9105492438311"><ele>280.0</ele><time>2026-04-04T10:58:43.999Z</time></trkpt><trkpt lat="44.84322261481009" lon="7.9106308973309485"><ele>279.0</ele><time>2026-04-04T10:58:44.999Z</time></trkpt><trkpt lat="44.84305041137791" lon="7.910706263138222"><ele>278.0</ele><time>2026-04-04T10:58:45.999Z</time></trkpt><trkpt lat="44.84288756980172" lon="7.910837378972928"><ele>277.0</ele><time>2026-04-04T10:58:46.999Z</time></trkpt><trkpt lat="44.84271287461769" lon="7.910959483060754"><ele>276.66666666666663</ele><time>2026-04-04T10:58:47.999Z</time></trkpt><trkpt lat="44.842559807079034" lon="7.911118857140732"><ele>276.3333333333333</ele><time>2026-04-04T10:58:48.999Z</time></trkpt><trkpt lat="44.842385880909475" lon="7.911266756024308"><ele>276.0</ele><time>2026-04-04T10:58:49.999Z</time></trkpt><trkpt lat="44.84222343369771" lon="7.911408105153141"><ele>276.0</ele><time>2026-04-04T10:58:50.999Z</time></trkpt><trkpt lat="44.84205985594055" lon="7.911546270163448"><ele>276.0</ele><time>2026-04-04T10:58:51.999Z</time></trkpt><trkpt lat="44.84188131798942" lon="7.911693993142367"><ele>276.0</ele><time>2026-04-04T10:58:52.999Z</time></trkpt><trkpt lat="44.84171022674404" lon="7.911848944959553"><ele>275.0</ele><time>2026-04-04T10:58:53.999Z</time></trkpt><trkpt lat="44.841543113442405" lon="7.911987993333259"><ele>274.0</ele><time>2026-04-04T10:58:54.999Z</time></trkpt><trkpt lat="44.841365352609444" lon="7.912145298053976"><ele>273.0</ele><time>2026-04-04T10:58:55.999Z</time></trkpt><trkpt lat="44.84118932321245" lon="7.912300935296982"><ele>273.0</ele><time>2026-04-04T10:58:56.999Z</time></trkpt><trkpt lat="44.84101253244682" lon="7.912457245650864"><ele>273.0</ele><time>2026-04-04T10:58:57.999Z</time></trkpt><trkpt lat="44.84083253190244" lon="7.912616394043518"><ele>273.0</ele><time>2026-04-04T10:58:58.999Z</time></trkpt><trkpt lat="44.840648243315115" lon="7.912779333790222"><ele>273.0</ele><time>2026-04-04T10:58:59.999Z</time></trkpt><trkpt lat="44.84046178281678" lon="7.912944193534433"><ele>273.0</ele><time>2026-04-04T10:59:00.999Z</time></trkpt><trkpt lat="44.840278490910755" lon="7.9131062519017155"><ele>273.0</ele><time>2026-04-04T10:59:01.999Z</time></trkpt><trkpt lat="44.84009845402959" lon="7.913292493827865"><ele>274.0</ele><time>2026-04-04T10:59:02.999Z</time></trkpt><trkpt lat="44.8399059560395" lon="7.913458946131616"><ele>275.0</ele><time>2026-04-04T10:59:03.999Z</time></trkpt><trkpt lat="44.839715004344306" lon="7.913627476607689"><ele>275.0</ele><time>2026-04-04T10:59:04.999Z</time></trkpt><trkpt lat="44.8395249939698" lon="7.913793195614381"><ele>275.0</ele><time>2026-04-04T10:59:05.999Z</time></trkpt><trkpt lat="44.839335260065376" lon="7.913966230367187"><ele>275.0</ele><time>2026-04-04T10:59:06.999Z</time></trkpt><trkpt lat="44.839148594050904" lon="7.914126275258419"><ele>277.0</ele><time>2026-04-04T10:59:07.999Z</time></trkpt><trkpt lat="44.83895862611226" lon="7.914290932858115"><ele>279.0</ele><time>2026-04-04T10:59:08.999Z</time></trkpt><trkpt lat="44.83876925704852" lon="7.914462068719064"><ele>281.0</ele><time>2026-04-04T10:59:09.999Z</time></trkpt><trkpt lat="44.83858146130591" lon="7.914626087734061"><ele>280.6666666666667</ele><time>2026-04-04T10:59:10.999Z</time></trkpt><trkpt lat="44.838393602988354" lon="7.91479475481834"><ele>280.3333333333333</ele><time>2026-04-04T10:59:11.999Z</time></trkpt><trkpt lat="44.83820598754931" lon="7.914955438188927"><ele>280.0</ele><time>2026-04-04T10:59:12.999Z</time></trkpt><trkpt lat="44.83801867544134" lon="7.915118166568967"><ele>280.3333333333333</ele><time>2026-04-04T10:59:13.999Z</time></trkpt><trkpt lat="44.8378320739356" lon="7.915280111567452"><ele>280.6666666666667</ele><time>2026-04-04T10:59:14.999Z</time></trkpt><trkpt lat="44.837655640062394" lon="7.915430854158184"><ele>281.0</ele><time>2026-04-04T10:59:15.999Z</time></trkpt><trkpt lat="44.83749608911813" lon="7.915569639004072"><ele>281.0</ele><time>2026-04-04T10:59:16.999Z</time></trkpt><trkpt lat="44.83735208937051" lon="7.915703374617801"><ele>281.0</ele><time>2026-04-04T10:59:17.999Z</time></trkpt><trkpt lat="44.83720583715486" lon="7.915851080719781"><ele>281.0</ele><time>2026-04-04T10:59:18.999Z</time></trkpt><trkpt lat="44.837059134473" lon="7.916020982176959"><ele>282.33333333333337</ele><time>2026-04-04T10:59:19.999Z</time></trkpt><trkpt lat="44.8369189523622" lon="7.916205567064538"><ele>283.6666666666667</ele><time>2026-04-04T10:59:20.999Z</time></trkpt><trkpt lat="44.83678861688887" lon="7.916404900850295"><ele>285.0</ele><time>2026-04-04T10:59:21.999Z</time></trkpt><trkpt lat="44.83667479137734" lon="7.916604737245081"><ele>284.3333333333333</ele><time>2026-04-04T10:59:22.999Z</time></trkpt><trkpt lat="44.83657266439301" lon="7.916790028098526"><ele>283.66666666666663</ele><time>2026-04-04T10:59:23.999Z</time></trkpt><trkpt lat="44.836491123533996" lon="7.916983010184198"><ele>283.0</ele><time>2026-04-04T10:59:24.999Z</time></trkpt><trkpt lat="44.836428520694746" lon="7.917172686425571"><ele>283.0</ele><time>2026-04-04T10:59:25.999Z</time></trkpt><trkpt lat="44.83637756659696" lon="7.917367642602811"><ele>283.0</ele><time>2026-04-04T10:59:26.999Z</time></trkpt><trkpt lat="44.83634090229013" lon="7.917579704467797"><ele>283.0</ele><time>2026-04-04T10:59:27.999Z</time></trkpt><trkpt lat="44.8363236839066" lon="7.91781564900047"><ele>283.66666666666663</ele><time>2026-04-04T10:59:28.999Z</time></trkpt><trkpt lat="44.83631402978963" lon="7.91806206957136"><ele>284.3333333333333</ele><time>2026-04-04T10:59:29.999Z</time></trkpt><trkpt lat="44.83630164926907" lon="7.918332599075262"><ele>285.0</ele><time>2026-04-04T10:59:30.999Z</time></trkpt><trkpt lat="44.83628397070327" lon="7.918608028971271"><ele>285.6666666666667</ele><time>2026-04-04T10:59:31.999Z</time></trkpt><trkpt lat="44.836264543103155" lon="7.918884881258388"><ele>286.33333333333337</ele><time>2026-04-04T10:59:32.999Z</time></trkpt><trkpt lat="44.836246301906" lon="7.919162535497251"><ele>287.0</ele><time>2026-04-04T10:59:33.998Z</time></trkpt><trkpt lat="44.83623091862366" lon="7.9194392191851035"><ele>287.0</ele><time>2026-04-04T10:59:34.998Z</time></trkpt><trkpt lat="44.8362144329071" lon="7.919712571300249"><ele>287.0</ele><time>2026-04-04T10:59:35.998Z</time></trkpt><trkpt lat="44.83620265618025" lon="7.919973657736689"><ele>287.0</ele><time>2026-04-04T10:59:36.998Z</time></trkpt><trkpt lat="44.83618736115487" lon="7.920219003149508"><ele>287.0</ele><time>2026-04-04T10:59:37.998Z</time></trkpt><trkpt lat="44.836169141400596" lon="7.920463114915238"><ele>287.0</ele><time>2026-04-04T10:59:38.998Z</time></trkpt><trkpt lat="44.83615578372083" lon="7.920704911509563"><ele>287.0</ele><time>2026-04-04T10:59:39.998Z</time></trkpt><trkpt lat="44.83614051817934" lon="7.920946109068583"><ele>287.0</ele><time>2026-04-04T10:59:40.998Z</time></trkpt><trkpt lat="44.83611607233683" lon="7.921182155746297"><ele>287.0</ele><time>2026-04-04T10:59:41.998Z</time></trkpt><trkpt lat="44.83608431914837" lon="7.921414055914598"><ele>287.0</ele><time>2026-04-04T10:59:43Z</time></trkpt><trkpt lat="44.83603438958588" lon="7.921645678206366"><ele>287.0</ele><time>2026-04-04T10:59:44Z</time></trkpt><trkpt lat="44.835975117622496" lon="7.921872479366625"><ele>287.0</ele><time>2026-04-04T10:59:45Z</time></trkpt><trkpt lat="44.83589924198677" lon="7.922103287793397"><ele>287.0</ele><time>2026-04-04T10:59:46Z</time></trkpt><trkpt lat="44.8358172507838" lon="7.922333757267541"><ele>286.0</ele><time>2026-04-04T10:59:47Z</time></trkpt><trkpt lat="44.83571443715027" lon="7.922548343363082"><ele>285.0</ele><time>2026-04-04T10:59:48Z</time></trkpt><trkpt lat="44.835595837939216" lon="7.922758115767352"><ele>284.0</ele><time>2026-04-04T10:59:49Z</time></trkpt><trkpt lat="44.83547348836908" lon="7.922962186838768"><ele>284.0</ele><time>2026-04-04T10:59:50Z</time></trkpt><trkpt lat="44.835333940438325" lon="7.92315272049364"><ele>284.0</ele><time>2026-04-04T10:59:51Z</time></trkpt><trkpt lat="44.83517876423999" lon="7.923328700495518"><ele>284.0</ele><time>2026-04-04T10:59:52Z</time></trkpt><trkpt lat="44.83501228377088" lon="7.923489268533669"><ele>284.6666666666667</ele><time>2026-04-04T10:59:53Z</time></trkpt><trkpt lat="44.83483611352073" lon="7.923636783525318"><ele>285.3333333333333</ele><time>2026-04-04T10:59:54Z</time></trkpt><trkpt lat="44.834653325637085" lon="7.923774688221473"><ele>286.0</ele><time>2026-04-04T10:59:55Z</time></trkpt><trkpt lat="44.83446720809958" lon="7.923910992453041"><ele>285.66666666666663</ele><time>2026-04-04T10:59:56Z</time></trkpt><trkpt lat="44.83427417635079" lon="7.924059007340064"><ele>285.3333333333333</ele><time>2026-04-04T10:59:57Z</time></trkpt><trkpt lat="44.834093086995466" lon="7.924196556794496"><ele>285.0</ele><time>2026-04-04T10:59:58Z</time></trkpt><trkpt lat="44.83390604999088" lon="7.924337960527201"><ele>285.3333333333333</ele><time>2026-04-04T10:59:59Z</time></trkpt><trkpt lat="44.83370902257225" lon="7.924508176782358"><ele>285.66666666666663</ele><time>2026-04-04T11:00:00Z</time></trkpt><trkpt lat="44.83352595940143" lon="7.924646014394376"><ele>286.0</ele><time>2026-04-04T11:00:01Z</time></trkpt><trkpt lat="44.833333895333126" lon="7.924793884082189"><ele>286.0</ele><time>2026-04-04T11:00:02Z</time></trkpt><trkpt lat="44.83314282696743" lon="7.92493745117665"><ele>286.0</ele><time>2026-04-04T11:00:03Z</time></trkpt><trkpt lat="44.83294004383556" lon="7.925101899148577"><ele>287.0</ele><time>2026-04-04T11:00:04Z</time></trkpt><trkpt lat="44.83274096982917" lon="7.925246625109995"><ele>288.0</ele><time>2026-04-04T11:00:05Z</time></trkpt><trkpt lat="44.832541467820114" lon="7.925399186994479"><ele>288.0</ele><time>2026-04-04T11:00:06Z</time></trkpt><trkpt lat="44.832357413450545" lon="7.92556580546998"><ele>288.0</ele><time>2026-04-04T11:00:07Z</time></trkpt><trkpt lat="44.832151465969" lon="7.925717098604252"><ele>288.0</ele><time>2026-04-04T11:00:08Z</time></trkpt><trkpt lat="44.83195659856496" lon="7.925823914977911"><ele>288.0</ele><time>2026-04-04T11:00:09Z</time></trkpt><trkpt lat="44.831790892747236" lon="7.925979307464432"><ele>288.0</ele><time>2026-04-04T11:00:10Z</time></trkpt><trkpt lat="44.83162854979214" lon="7.9261039957492345"><ele>287.6666666666667</ele><time>2026-04-04T11:00:11Z</time></trkpt><trkpt lat="44.83147248494655" lon="7.92623206743898"><ele>287.33333333333337</ele><time>2026-04-04T11:00:12Z</time></trkpt><trkpt lat="44.83131186404446" lon="7.926354689335914"><ele>287.0</ele><time>2026-04-04T11:00:13Z</time></trkpt><trkpt lat="44.83117324970344" lon="7.926526951781881"><ele>287.0</ele><time>2026-04-04T11:00:14Z</time></trkpt><trkpt lat="44.83103638812965" lon="7.926700201470988"><ele>287.0</ele><time>2026-04-04T11:00:15Z</time></trkpt><trkpt lat="44.83090073923809" lon="7.926875021952036"><ele>287.0</ele><time>2026-04-04T11:00:16Z</time></trkpt><trkpt lat="44.830777238033704" lon="7.9270830083648445"><ele>287.33333333333337</ele><time>2026-04-04T11:00:17Z</time></trkpt><trkpt lat="44.83065381897581" lon="7.927308718152716"><ele>287.6666666666667</ele><time>2026-04-04T11:00:18Z</time></trkpt><trkpt lat="44.830534562274295" lon="7.927554025426791"><ele>288.0</ele><time>2026-04-04T11:00:19Z</time></trkpt><trkpt lat="44.83042028372255" lon="7.927806687779443"><ele>288.0</ele><time>2026-04-04T11:00:20Z</time></trkpt><trkpt lat="44.830297566705184" lon="7.928064002776407"><ele>288.0</ele><time>2026-04-04T11:00:21Z</time></trkpt><trkpt lat="44.830167796835504" lon="7.9283321488109975"><ele>288.0</ele><time>2026-04-04T11:00:22Z</time></trkpt><trkpt lat="44.8300356826382" lon="7.928605139032742"><ele>288.0</ele><time>2026-04-04T11:00:23Z</time></trkpt><trkpt lat="44.829900978988924" lon="7.92888347979124"><ele>288.0</ele><time>2026-04-04T11:00:24Z</time></trkpt><trkpt lat="44.82976712496117" lon="7.929160065021978"><ele>288.0</ele><time>2026-04-04T11:00:25Z</time></trkpt><trkpt lat="44.82963394367399" lon="7.9294352590666115"><ele>289.0</ele><time>2026-04-04T11:00:26Z</time></trkpt><trkpt lat="44.829506265661905" lon="7.929702730466724"><ele>290.0</ele><time>2026-04-04T11:00:27Z</time></trkpt><trkpt lat="44.82937318846622" lon="7.929975405293922"><ele>290.0</ele><time>2026-04-04T11:00:28Z</time></trkpt><trkpt lat="44.8292596936281" lon="7.930251006807742"><ele>290.0</ele><time>2026-04-04T11:00:28.999Z</time></trkpt><trkpt lat="44.82912715606971" lon="7.930520452055283"><ele>290.0</ele><time>2026-04-04T11:00:29.999Z</time></trkpt><trkpt lat="44.828999679465184" lon="7.930802054669484"><ele>290.0</ele><time>2026-04-04T11:00:30.999Z</time></trkpt><trkpt lat="44.828882017029926" lon="7.931091492363537"><ele>290.5</ele><time>2026-04-04T11:00:31.999Z</time></trkpt><trkpt lat="44.82876269800503" lon="7.9313878209868"><ele>291.0</ele><time>2026-04-04T11:00:32.999Z</time></trkpt><trkpt lat="44.82864596724357" lon="7.931687028480659"><ele>291.0</ele><time>2026-04-04T11:00:33.999Z</time></trkpt><trkpt lat="44.82852417269226" lon="7.9319871005083336"><ele>291.0</ele><time>2026-04-04T11:00:34.999Z</time></trkpt><trkpt lat="44.82840562512602" lon="7.932285257618002"><ele>290.5</ele><time>2026-04-04T11:00:35.999Z</time></trkpt><trkpt lat="44.82828533608737" lon="7.932576358586031"><ele>290.0</ele><time>2026-04-04T11:00:36.999Z</time></trkpt><trkpt lat="44.82816978571071" lon="7.932870293223327"><ele>290.0</ele><time>2026-04-04T11:00:37.999Z</time></trkpt><trkpt lat="44.82805291696332" lon="7.933158929782443"><ele>290.0</ele><time>2026-04-04T11:00:38.999Z</time></trkpt><trkpt lat="44.82793723181448" lon="7.933447657260216"><ele>290.0</ele><time>2026-04-04T11:00:39.999Z</time></trkpt><trkpt lat="44.82782126034901" lon="7.933735742768311"><ele>290.0</ele><time>2026-04-04T11:00:40.999Z</time></trkpt><trkpt lat="44.8277087674121" lon="7.934021587865543"><ele>290.0</ele><time>2026-04-04T11:00:41.999Z</time></trkpt><trkpt lat="44.82759259524212" lon="7.934293286289126"><ele>290.0</ele><time>2026-04-04T11:00:42.999Z</time></trkpt><trkpt lat="44.827476905161106" lon="7.934574534149834"><ele>290.0</ele><time>2026-04-04T11:00:43.999Z</time></trkpt><trkpt lat="44.82736694625493" lon="7.934856882499474"><ele>290.0</ele><time>2026-04-04T11:00:44.999Z</time></trkpt><trkpt lat="44.82725387068526" lon="7.935129023793027"><ele>291.0</ele><time>2026-04-04T11:00:45.999Z</time></trkpt><trkpt lat="44.82713148559459" lon="7.935406207549599"><ele>292.0</ele><time>2026-04-04T11:00:46.999Z</time></trkpt><trkpt lat="44.8270326866782" lon="7.935685603136559"><ele>291.66666666666663</ele><time>2026-04-04T11:00:47.999Z</time></trkpt><trkpt lat="44.826915963294475" lon="7.935962215043305"><ele>291.3333333333333</ele><time>2026-04-04T11:00:48.999Z</time></trkpt><trkpt lat="44.826812983100524" lon="7.936224638658978"><ele>291.0</ele><time>2026-04-04T11:00:49.999Z</time></trkpt><trkpt lat="44.82670824947743" lon="7.936490624924729"><ele>290.6666666666667</ele><time>2026-04-04T11:00:50.999Z</time></trkpt><trkpt lat="44.82660175269067" lon="7.936753324288241"><ele>290.33333333333337</ele><time>2026-04-04T11:00:51.999Z</time></trkpt><trkpt lat="44.82649657799982" lon="7.9370136201302195"><ele>290.0</ele><time>2026-04-04T11:00:52.999Z</time></trkpt><trkpt lat="44.82639439700275" lon="7.937277828153345"><ele>290.0</ele><time>2026-04-04T11:00:53.999Z</time></trkpt><trkpt lat="44.82629243395867" lon="7.93753303084579"><ele>290.0</ele><time>2026-04-04T11:00:54.999Z</time></trkpt><trkpt lat="44.82619116646239" lon="7.937791069806973"><ele>290.0</ele><time>2026-04-04T11:00:55.999Z</time></trkpt><trkpt lat="44.8260852051798" lon="7.938028996438328"><ele>290.6666666666667</ele><time>2026-04-04T11:00:56.999Z</time></trkpt><trkpt lat="44.82598364788056" lon="7.938280833605183"><ele>291.3333333333333</ele><time>2026-04-04T11:00:57.999Z</time></trkpt><trkpt lat="44.82588457025032" lon="7.938528677474196"><ele>292.0</ele><time>2026-04-04T11:00:58.999Z</time></trkpt><trkpt lat="44.82579201986851" lon="7.938775134612441"><ele>292.0</ele><time>2026-04-04T11:00:59.999Z</time></trkpt><trkpt lat="44.825696610361234" lon="7.939015966705868"><ele>292.0</ele><time>2026-04-04T11:01:00.999Z</time></trkpt><trkpt lat="44.825603579196674" lon="7.9392523093944245"><ele>292.0</ele><time>2026-04-04T11:01:01.999Z</time></trkpt><trkpt lat="44.82551060652522" lon="7.93948434723915"><ele>292.0</ele><time>2026-04-04T11:01:02.999Z</time></trkpt><trkpt lat="44.82542029954934" lon="7.939705328530008"><ele>292.0</ele><time>2026-04-04T11:01:03.999Z</time></trkpt><trkpt lat="44.82532554258996" lon="7.939915571485119"><ele>292.0</ele><time>2026-04-04T11:01:04.999Z</time></trkpt><trkpt lat="44.82524662436693" lon="7.940109886245515"><ele>292.3333333333333</ele><time>2026-04-04T11:01:05.999Z</time></trkpt><trkpt lat="44.82516814747537" lon="7.940305664457451"><ele>292.6666666666667</ele><time>2026-04-04T11:01:06.999Z</time></trkpt><trkpt lat="44.82509379726947" lon="7.940505805712046"><ele>293.0</ele><time>2026-04-04T11:01:07.999Z</time></trkpt><trkpt lat="44.82501518394226" lon="7.9407058838629565"><ele>292.6666666666667</ele><time>2026-04-04T11:01:08.999Z</time></trkpt><trkpt lat="44.82493495568356" lon="7.9409059495230885"><ele>292.3333333333333</ele><time>2026-04-04T11:01:09.999Z</time></trkpt><trkpt lat="44.824856010146334" lon="7.941104429944086"><ele>292.0</ele><time>2026-04-04T11:01:10.999Z</time></trkpt><trkpt lat="44.82477747106494" lon="7.941304027963353"><ele>292.0</ele><time>2026-04-04T11:01:11.999Z</time></trkpt><trkpt lat="44.824699041670335" lon="7.941504163529784"><ele>292.0</ele><time>2026-04-04T11:01:12.999Z</time></trkpt><trkpt lat="44.824620879071006" lon="7.941697869134758"><ele>292.0</ele><time>2026-04-04T11:01:13.999Z</time></trkpt><trkpt lat="44.82453808844417" lon="7.941886951613182"><ele>292.3333333333333</ele><time>2026-04-04T11:01:14.999Z</time></trkpt><trkpt lat="44.82446247055993" lon="7.942080798633786"><ele>292.6666666666667</ele><time>2026-04-04T11:01:15.999Z</time></trkpt><trkpt lat="44.824385492405305" lon="7.9422648339816995"><ele>293.0</ele><time>2026-04-04T11:01:16.999Z</time></trkpt><trkpt lat="44.82431939275601" lon="7.942447572737514"><ele>293.25</ele><time>2026-04-04T11:01:17.999Z</time></trkpt><trkpt lat="44.82425470666959" lon="7.942614884673942"><ele>293.5</ele><time>2026-04-04T11:01:18.999Z</time></trkpt><trkpt lat="44.82419358510625" lon="7.94276790627099"><ele>293.75</ele><time>2026-04-04T11:01:19.999Z</time></trkpt><trkpt lat="44.82414088715224" lon="7.94291267884767"><ele>294.0</ele><time>2026-04-04T11:01:20.999Z</time></trkpt><trkpt lat="44.82408500813763" lon="7.943032725668011"><ele>294.0</ele><time>2026-04-04T11:01:21.999Z</time></trkpt><trkpt lat="44.824030351837685" lon="7.9431278953972"><ele>294.0</ele><time>2026-04-04T11:01:22.999Z</time></trkpt><trkpt lat="44.82396796049744" lon="7.94320217538222"><ele>294.0</ele><time>2026-04-04T11:01:23.999Z</time></trkpt><trkpt lat="44.8239053961484" lon="7.943277841838397"><ele>294.0</ele><time>2026-04-04T11:01:24.999Z</time></trkpt><trkpt lat="44.8238528249783" lon="7.943365638124531"><ele>294.0</ele><time>2026-04-04T11:01:25.999Z</time></trkpt><trkpt lat="44.82381719849469" lon="7.943472945395911"><ele>294.0</ele><time>2026-04-04T11:01:26.999Z</time></trkpt><trkpt lat="44.82379608849261" lon="7.9435974823245274"><ele>294.4</ele><time>2026-04-04T11:01:27.999Z</time></trkpt><trkpt lat="44.823774341840334" lon="7.943724183207447"><ele>294.79999999999995</ele><time>2026-04-04T11:01:28.998Z</time></trkpt><trkpt lat="44.82373683675404" lon="7.943861476462536"><ele>295.20000000000005</ele><time>2026-04-04T11:01:29.998Z</time></trkpt><trkpt lat="44.82367613267451" lon="7.9439999886187715"><ele>295.6</ele><time>2026-04-04T11:01:30.998Z</time></trkpt><trkpt lat="44.82360033530401" lon="7.944147366459027"><ele>296.0</ele><time>2026-04-04T11:01:31.998Z</time></trkpt><trkpt lat="44.823520363024606" lon="7.944306414669271"><ele>295.6666666666667</ele><time>2026-04-04T11:01:32.998Z</time></trkpt><trkpt lat="44.82343494560031" lon="7.944477911009817"><ele>295.3333333333333</ele><time>2026-04-04T11:01:33.998Z</time></trkpt><trkpt lat="44.82334101358044" lon="7.944657680091493"><ele>295.0</ele><time>2026-04-04T11:01:34.998Z</time></trkpt><trkpt lat="44.82324404911275" lon="7.944840725089408"><ele>295.0</ele><time>2026-04-04T11:01:35.998Z</time></trkpt><trkpt lat="44.82314789982922" lon="7.94502303392075"><ele>295.0</ele><time>2026-04-04T11:01:36.998Z</time></trkpt><trkpt lat="44.823059138925025" lon="7.945195512253183"><ele>295.0</ele><time>2026-04-04T11:01:37.998Z</time></trkpt><trkpt lat="44.82297146899063" lon="7.9453703447020825"><ele>295.66666666666663</ele><time>2026-04-04T11:01:38.998Z</time></trkpt><trkpt lat="44.82287496994345" lon="7.945553169570459"><ele>296.3333333333333</ele><time>2026-04-04T11:01:39.998Z</time></trkpt><trkpt lat="44.822770617706446" lon="7.945742090948959"><ele>297.0</ele><time>2026-04-04T11:01:40.998Z</time></trkpt><trkpt lat="44.82266688359839" lon="7.94593564475704"><ele>296.6666666666667</ele><time>2026-04-04T11:01:41.998Z</time></trkpt><trkpt lat="44.822559553362495" lon="7.94613123106118"><ele>296.33333333333337</ele><time>2026-04-04T11:01:42.998Z</time></trkpt><trkpt lat="44.822448369677424" lon="7.946326601687922"><ele>296.0</ele><time>2026-04-04T11:01:43.998Z</time></trkpt><trkpt lat="44.82233264892328" lon="7.946512290215755"><ele>296.0</ele><time>2026-04-04T11:01:44.998Z</time></trkpt><trkpt lat="44.82222010800476" lon="7.9466828098934545"><ele>296.0</ele><time>2026-04-04T11:01:45.998Z</time></trkpt><trkpt lat="44.82210822747762" lon="7.946821664502291"><ele>296.0</ele><time>2026-04-04T11:01:46.998Z</time></trkpt><trkpt lat="44.82200746762281" lon="7.946951287864368"><ele>296.25</ele><time>2026-04-04T11:01:47.998Z</time></trkpt><trkpt lat="44.82190567455851" lon="7.947071689838106"><ele>296.5</ele><time>2026-04-04T11:01:49Z</time></trkpt><trkpt lat="44.82181509003408" lon="7.94717894814031"><ele>296.75</ele><time>2026-04-04T11:01:50Z</time></trkpt><trkpt lat="44.82173049731353" lon="7.947271509822437"><ele>297.0</ele><time>2026-04-04T11:01:51Z</time></trkpt><trkpt lat="44.82165583884951" lon="7.947351292413982"><ele>296.6</ele><time>2026-04-04T11:01:52Z</time></trkpt><trkpt lat="44.82159101111441" lon="7.9474256555000995"><ele>296.2</ele><time>2026-04-04T11:01:53Z</time></trkpt><trkpt lat="44.82148682096929" lon="7.947491872938365"><ele>295.8</ele><time>2026-04-04T11:01:55Z</time></trkpt><trkpt lat="44.821411774810684" lon="7.947506045341749"><ele>295.4</ele><time>2026-04-04T11:01:56Z</time></trkpt><trkpt lat="44.82132897731273" lon="7.947511973761361"><ele>295.0</ele><time>2026-04-04T11:01:57Z</time></trkpt><trkpt lat="44.82123026883335" lon="7.9474928778770995"><ele>295.2</ele><time>2026-04-04T11:01:58Z</time></trkpt><trkpt lat="44.82114051590698" lon="7.94757431856065"><ele>295.4</ele><time>2026-04-04T11:01:59Z</time></trkpt><trkpt lat="44.82109069201099" lon="7.947720400036398"><ele>295.6</ele><time>2026-04-04T11:02:00Z</time></trkpt><trkpt lat="44.82102147904134" lon="7.947818759479509"><ele>295.8</ele><time>2026-04-04T11:02:01Z</time></trkpt><trkpt lat="44.82093723028521" lon="7.947906753665057"><ele>296.0</ele><time>2026-04-04T11:02:02Z</time></trkpt><trkpt lat="44.820827221569374" lon="7.94796572294365"><ele>296.75</ele><time>2026-04-04T11:02:03Z</time></trkpt><trkpt lat="44.820692790929996" lon="7.947973800912057"><ele>297.5</ele><time>2026-04-04T11:02:04Z</time></trkpt><trkpt lat="44.82056395472179" lon="7.948028264480652"><ele>298.25</ele><time>2026-04-04T11:02:05Z</time></trkpt><trkpt lat="44.82042711120904" lon="7.94808242303137"><ele>299.0</ele><time>2026-04-04T11:02:06Z</time></trkpt><trkpt lat="44.82028180034561" lon="7.948134311199505"><ele>297.6666666666667</ele><time>2026-04-04T11:02:07Z</time></trkpt><trkpt lat="44.82012529243377" lon="7.948178385573397"><ele>296.3333333333333</ele><time>2026-04-04T11:02:08Z</time></trkpt><trkpt lat="44.81995898271831" lon="7.948216940215008"><ele>295.0</ele><time>2026-04-04T11:02:09Z</time></trkpt><trkpt lat="44.81979768539436" lon="7.948241033782963"><ele>295.0</ele><time>2026-04-04T11:02:10Z</time></trkpt><trkpt lat="44.819633806478286" lon="7.948257176637896"><ele>295.0</ele><time>2026-04-04T11:02:11Z</time></trkpt><trkpt lat="44.81946536124008" lon="7.94826593671485"><ele>295.0</ele><time>2026-04-04T11:02:12Z</time></trkpt><trkpt lat="44.819293155245596" lon="7.9482558277120425"><ele>295.66666666666663</ele><time>2026-04-04T11:02:13Z</time></trkpt><trkpt lat="44.81911506209059" lon="7.948242604182904"><ele>296.3333333333333</ele><time>2026-04-04T11:02:14Z</time></trkpt><trkpt lat="44.81893465564982" lon="7.948214510664062"><ele>297.0</ele><time>2026-04-04T11:02:15Z</time></trkpt><trkpt lat="44.818751987886735" lon="7.948170214492428"><ele>297.0</ele><time>2026-04-04T11:02:16Z</time></trkpt><trkpt lat="44.81856946845604" lon="7.948119012496078"><ele>297.0</ele><time>2026-04-04T11:02:17Z</time></trkpt><trkpt lat="44.818395411086065" lon="7.948054857037211"><ele>297.0</ele><time>2026-04-04T11:02:18Z</time></trkpt><trkpt lat="44.818227987407845" lon="7.947990375171335"><ele>297.0</ele><time>2026-04-04T11:02:19Z</time></trkpt><trkpt lat="44.81805724708418" lon="7.947919154498505"><ele>297.0</ele><time>2026-04-04T11:02:20Z</time></trkpt><trkpt lat="44.81786792226662" lon="7.947829870660991"><ele>297.0</ele><time>2026-04-04T11:02:21Z</time></trkpt><trkpt lat="44.81770710952636" lon="7.947749026129864"><ele>297.6666666666667</ele><time>2026-04-04T11:02:22Z</time></trkpt><trkpt lat="44.817534421564375" lon="7.94765991041865"><ele>298.33333333333337</ele><time>2026-04-04T11:02:23Z</time></trkpt><trkpt lat="44.817359012619214" lon="7.947569389746569"><ele>299.0</ele><time>2026-04-04T11:02:24Z</time></trkpt><trkpt lat="44.8171812392621" lon="7.947478449720393"><ele>299.0</ele><time>2026-04-04T11:02:25Z</time></trkpt><trkpt lat="44.817001309834836" lon="7.947386199493461"><ele>299.0</ele><time>2026-04-04T11:02:26Z</time></trkpt><trkpt lat="44.816818758662556" lon="7.947295054328953"><ele>299.0</ele><time>2026-04-04T11:02:27Z</time></trkpt><trkpt lat="44.816630400545684" lon="7.947222098600207"><ele>298.33333333333337</ele><time>2026-04-04T11:02:28Z</time></trkpt><trkpt lat="44.816447035086895" lon="7.94712780276603"><ele>297.6666666666667</ele><time>2026-04-04T11:02:29Z</time></trkpt><trkpt lat="44.816264630136466" lon="7.947039946123994"><ele>297.0</ele><time>2026-04-04T11:02:30Z</time></trkpt><trkpt lat="44.81607853665066" lon="7.946957551192698"><ele>297.6666666666667</ele><time>2026-04-04T11:02:31Z</time></trkpt><trkpt lat="44.81588836414639" lon="7.946882408750888"><ele>298.33333333333337</ele><time>2026-04-04T11:02:31.999Z</time></trkpt><trkpt lat="44.81570068107089" lon="7.946790971291932"><ele>299.0</ele><time>2026-04-04T11:02:32.999Z</time></trkpt><trkpt lat="44.81550372029571" lon="7.94673710104604"><ele>299.0</ele><time>2026-04-04T11:02:33.999Z</time></trkpt><trkpt lat="44.81531127412974" lon="7.94670460840719"><ele>299.0</ele><time>2026-04-04T11:02:34.999Z</time></trkpt><trkpt lat="44.81511702101377" lon="7.946675735162335"><ele>299.0</ele><time>2026-04-04T11:02:35.999Z</time></trkpt><trkpt lat="44.81493151216889" lon="7.946650189770178"><ele>300.33333333333337</ele><time>2026-04-04T11:02:36.999Z</time></trkpt><trkpt lat="44.81474676441475" lon="7.946627308225896"><ele>301.6666666666667</ele><time>2026-04-04T11:02:37.999Z</time></trkpt><trkpt lat="44.81455795717009" lon="7.946622112378254"><ele>303.0</ele><time>2026-04-04T11:02:38.999Z</time></trkpt><trkpt lat="44.81437613626085" lon="7.9466353259754605"><ele>303.3333333333333</ele><time>2026-04-04T11:02:39.999Z</time></trkpt><trkpt lat="44.814194276571236" lon="7.9466546319627485"><ele>303.66666666666663</ele><time>2026-04-04T11:02:40.999Z</time></trkpt><trkpt lat="44.81401085731794" lon="7.946682029145139"><ele>304.0</ele><time>2026-04-04T11:02:41.999Z</time></trkpt><trkpt lat="44.81382435896766" lon="7.946715916006922"><ele>304.0</ele><time>2026-04-04T11:02:43.016Z</time></trkpt><trkpt lat="44.81363950798547" lon="7.946756895960262"><ele>304.0</ele><time>2026-04-04T11:02:44.019Z</time></trkpt><trkpt lat="44.81345802152779" lon="7.946800295592658"><ele>304.0</ele><time>2026-04-04T11:02:45.016Z</time></trkpt><trkpt lat="44.81327491548225" lon="7.94684408236977"><ele>307.0</ele><time>2026-04-04T11:02:46.017Z</time></trkpt><trkpt lat="44.8112748398495" lon="7.9473498894489705"><ele>309.0</ele><time>2026-04-04T11:02:49.386Z</time></trkpt><trkpt lat="44.81083177812094" lon="7.94745933134123"><ele>315.0</ele><time>2026-04-04T11:02:50.386Z</time></trkpt><trkpt lat="44.81038861838392" lon="7.947571056515022"><ele>315.5</ele><time>2026-04-04T11:02:51.387Z</time></trkpt><trkpt lat="44.80994536236842" lon="7.947676130645097"><ele>316.0</ele><time>2026-04-04T11:02:52.386Z</time></trkpt><trkpt lat="44.809505100380875" lon="7.9478051283288425"><ele>315.5</ele><time>2026-04-04T11:02:53.385Z</time></trkpt><trkpt lat="44.8091217" lon="7.9479331"><ele>315.0</ele><time>2026-04-04T11:02:54.387Z</time></trkpt><trkpt lat="44.805703167845316" lon="7.950613601140631"><ele>294.3333333333333</ele><time>2026-04-04T11:03:25.999Z</time></trkpt><trkpt lat="44.80553923271641" lon="7.950793309531225"><ele>273.66666666666663</ele><time>2026-04-04T11:03:26.999Z</time></trkpt><trkpt lat="44.805359309399925" lon="7.950969767407925"><ele>253.0</ele><time>2026-04-04T11:03:27.999Z</time></trkpt><trkpt lat="44.80517384849872" lon="7.951114096204767"><ele>253.0</ele><time>2026-04-04T11:03:28.999Z</time></trkpt><trkpt lat="44.80500979932816" lon="7.9512954064009715"><ele>253.0</ele><time>2026-04-04T11:03:29.999Z</time></trkpt><trkpt lat="44.80484828613808" lon="7.951473352701168"><ele>253.0</ele><time>2026-04-04T11:03:30.999Z</time></trkpt><trkpt lat="44.80468427682339" lon="7.951654049078311"><ele>259.3333333333333</ele><time>2026-04-04T11:03:31.999Z</time></trkpt><trkpt lat="44.80452683497224" lon="7.951827902631713"><ele>265.6666666666667</ele><time>2026-04-04T11:03:32.998Z</time></trkpt><trkpt lat="44.8043522114004" lon="7.95202113662245"><ele>272.0</ele><time>2026-04-04T11:03:33.998Z</time></trkpt><trkpt lat="44.80417884666227" lon="7.95221271995862"><ele>273.0</ele><time>2026-04-04T11:03:34.998Z</time></trkpt><trkpt lat="44.804006740270474" lon="7.952405632976937"><ele>274.0</ele><time>2026-04-04T11:03:35.998Z</time></trkpt><trkpt lat="44.80384228549519" lon="7.952618059894977"><ele>275.0</ele><time>2026-04-04T11:03:37.019Z</time></trkpt><trkpt lat="44.80366657654268" lon="7.952802929264523"><ele>268.6666666666667</ele><time>2026-04-04T11:03:38.017Z</time></trkpt><trkpt lat="44.80349197713297" lon="7.952985866892378"><ele>262.3333333333333</ele><time>2026-04-04T11:03:39.021Z</time></trkpt><trkpt lat="44.803319393899" lon="7.95316620165484"><ele>256.0</ele><time>2026-04-04T11:03:40.016Z</time></trkpt><trkpt lat="44.80294556361139" lon="7.9536184296086"><ele>252.0</ele><time>2026-04-04T11:03:42.998Z</time></trkpt><trkpt lat="44.802792305648424" lon="7.953811143387978"><ele>248.0</ele><time>2026-04-04T11:03:43.998Z</time></trkpt><trkpt lat="44.802666617750255" lon="7.954036111151472"><ele>244.0</ele><time>2026-04-04T11:03:44.998Z</time></trkpt><trkpt lat="44.802535504546235" lon="7.9542621444232084"><ele>241.0</ele><time>2026-04-04T11:03:45.998Z</time></trkpt><trkpt lat="44.80240203090076" lon="7.954475927099067"><ele>238.0</ele><time>2026-04-04T11:03:46.998Z</time></trkpt><trkpt lat="44.80228642373225" lon="7.954701501317145"><ele>235.0</ele><time>2026-04-04T11:03:47.998Z</time></trkpt><trkpt lat="44.80215316706067" lon="7.954942459491483"><ele>233.66666666666666</ele><time>2026-04-04T11:03:48.998Z</time></trkpt><trkpt lat="44.802044018862375" lon="7.955170923072496"><ele>232.33333333333331</ele><time>2026-04-04T11:03:49.998Z</time></trkpt><trkpt lat="44.80194430719597" lon="7.955409478756045"><ele>231.0</ele><time>2026-04-04T11:03:50.998Z</time></trkpt><trkpt lat="44.80185246312223" lon="7.95565505629414"><ele>233.33333333333331</ele><time>2026-04-04T11:03:51.998Z</time></trkpt><trkpt lat="44.80176953428568" lon="7.955903130286425"><ele>235.66666666666666</ele><time>2026-04-04T11:03:52.998Z</time></trkpt><trkpt lat="44.80170748917844" lon="7.956152488159387"><ele>238.0</ele><time>2026-04-04T11:03:53.998Z</time></trkpt><trkpt lat="44.80164427422152" lon="7.956400896677842"><ele>238.0</ele><time>2026-04-04T11:03:55Z</time></trkpt><trkpt lat="44.80158945492825" lon="7.956661824333777"><ele>238.0</ele><time>2026-04-04T11:03:56Z</time></trkpt><trkpt lat="44.80153946517243" lon="7.95692450357546"><ele>238.0</ele><time>2026-04-04T11:03:57Z</time></trkpt><trkpt lat="44.801497383169" lon="7.957191976467573"><ele>235.0</ele><time>2026-04-04T11:03:58Z</time></trkpt><trkpt lat="44.80146625571371" lon="7.957461068510905"><ele>232.0</ele><time>2026-04-04T11:03:59Z</time></trkpt><trkpt lat="44.8014445825956" lon="7.957731079388624"><ele>229.0</ele><time>2026-04-04T11:04:00Z</time></trkpt><trkpt lat="44.801436761512086" lon="7.958002090456712"><ele>227.0</ele><time>2026-04-04T11:04:01Z</time></trkpt><trkpt lat="44.80142751646558" lon="7.958282761850121"><ele>225.0</ele><time>2026-04-04T11:04:02Z</time></trkpt><trkpt lat="44.801435993682695" lon="7.95857002120909"><ele>223.0</ele><time>2026-04-04T11:04:03Z</time></trkpt><trkpt lat="44.80144192145273" lon="7.958858527106736"><ele>222.66666666666666</ele><time>2026-04-04T11:04:04Z</time></trkpt><trkpt lat="44.80146019376859" lon="7.959144990753175"><ele>222.33333333333331</ele><time>2026-04-04T11:04:05Z</time></trkpt><trkpt lat="44.80149589773283" lon="7.959440104615327"><ele>222.0</ele><time>2026-04-04T11:04:06Z</time></trkpt><trkpt lat="44.80153875312034" lon="7.959731888444477"><ele>222.0</ele><time>2026-04-04T11:04:07Z</time></trkpt><trkpt lat="44.801583212992135" lon="7.960027374767422"><ele>222.0</ele><time>2026-04-04T11:04:08Z</time></trkpt><trkpt lat="44.80163233460113" lon="7.960320595879593"><ele>222.0</ele><time>2026-04-04T11:04:09Z</time></trkpt><trkpt lat="44.80168886398888" lon="7.960616824676921"><ele>220.66666666666669</ele><time>2026-04-04T11:04:10Z</time></trkpt><trkpt lat="44.80175178930016" lon="7.960907811912448"><ele>219.33333333333334</ele><time>2026-04-04T11:04:11Z</time></trkpt><trkpt lat="44.801819451563404" lon="7.961200684149702"><ele>218.0</ele><time>2026-04-04T11:04:12Z</time></trkpt><trkpt lat="44.80189083525201" lon="7.961492893596585"><ele>219.66666666666669</ele><time>2026-04-04T11:04:13Z</time></trkpt><trkpt lat="44.801962050568505" lon="7.961781767500205"><ele>221.33333333333331</ele><time>2026-04-04T11:04:14Z</time></trkpt><trkpt lat="44.80203296271004" lon="7.962071351993578"><ele>223.0</ele><time>2026-04-04T11:04:15Z</time></trkpt><trkpt lat="44.80211040555871" lon="7.96236113606124"><ele>225.0</ele><time>2026-04-04T11:04:16Z</time></trkpt><trkpt lat="44.80218653530733" lon="7.962646750678135"><ele>227.0</ele><time>2026-04-04T11:04:17Z</time></trkpt><trkpt lat="44.80226489046785" lon="7.962932509274309"><ele>229.0</ele><time>2026-04-04T11:04:18Z</time></trkpt><trkpt lat="44.80233780476376" lon="7.963205182196726"><ele>231.66666666666666</ele><time>2026-04-04T11:04:19Z</time></trkpt><trkpt lat="44.802410927332005" lon="7.963465134462059"><ele>234.33333333333331</ele><time>2026-04-04T11:04:20Z</time></trkpt><trkpt lat="44.802484144556935" lon="7.963710798919608"><ele>237.0</ele><time>2026-04-04T11:04:21Z</time></trkpt><trkpt lat="44.802561082873645" lon="7.963956879025811"><ele>237.66666666666669</ele><time>2026-04-04T11:04:22Z</time></trkpt><trkpt lat="44.802646290239274" lon="7.964209365548491"><ele>238.33333333333334</ele><time>2026-04-04T11:04:23Z</time></trkpt><trkpt lat="44.80272830321291" lon="7.964468262653365"><ele>239.0</ele><time>2026-04-04T11:04:24Z</time></trkpt><trkpt lat="44.8028103297658" lon="7.964727656423381"><ele>232.66666666666669</ele><time>2026-04-04T11:04:25Z</time></trkpt><trkpt lat="44.80289637369261" lon="7.964972876389158"><ele>226.33333333333331</ele><time>2026-04-04T11:04:26Z</time></trkpt><trkpt lat="44.803026176645695" lon="7.965226225826654"><ele>220.0</ele><time>2026-04-04T11:04:27Z</time></trkpt><trkpt lat="44.803172836642865" lon="7.965450760808117"><ele>220.66666666666666</ele><time>2026-04-04T11:04:28Z</time></trkpt><trkpt lat="44.80329200718336" lon="7.965689753291683"><ele>221.33333333333331</ele><time>2026-04-04T11:04:29Z</time></trkpt><trkpt lat="44.80341800215615" lon="7.965931525345065"><ele>222.0</ele><time>2026-04-04T11:04:30Z</time></trkpt><trkpt lat="44.80355482082475" lon="7.966170330192178"><ele>222.33333333333331</ele><time>2026-04-04T11:04:31Z</time></trkpt><trkpt lat="44.80369528470593" lon="7.966409511990967"><ele>222.66666666666666</ele><time>2026-04-04T11:04:32Z</time></trkpt><trkpt lat="44.803834116465964" lon="7.96665005748035"><ele>223.0</ele><time>2026-04-04T11:04:33Z</time></trkpt><trkpt lat="44.80396929841772" lon="7.9668846612618145"><ele>223.0</ele><time>2026-04-04T11:04:34Z</time></trkpt><trkpt lat="44.80409371624502" lon="7.967110331912429"><ele>223.0</ele><time>2026-04-04T11:04:35Z</time></trkpt><trkpt lat="44.80421854847247" lon="7.967340941822434"><ele>223.0</ele><time>2026-04-04T11:04:36Z</time></trkpt><trkpt lat="44.804342678464636" lon="7.96757092710512"><ele>219.33333333333331</ele><time>2026-04-04T11:04:37Z</time></trkpt><trkpt lat="44.80446488109529" lon="7.967806676162776"><ele>215.66666666666669</ele><time>2026-04-04T11:04:38Z</time></trkpt><trkpt lat="44.80457807174642" lon="7.968053045076558"><ele>212.0</ele><time>2026-04-04T11:04:39Z</time></trkpt><trkpt lat="44.804692958948046" lon="7.968270915760359"><ele>212.66666666666669</ele><time>2026-04-04T11:04:39.999Z</time></trkpt><trkpt lat="44.80479285186218" lon="7.9685559424202825"><ele>213.33333333333331</ele><time>2026-04-04T11:04:40.999Z</time></trkpt><trkpt lat="44.804890983070415" lon="7.9688258455191034"><ele>214.0</ele><time>2026-04-04T11:04:41.999Z</time></trkpt><trkpt lat="44.8049737781918" lon="7.969101664792264"><ele>214.66666666666666</ele><time>2026-04-04T11:04:42.999Z</time></trkpt><trkpt lat="44.80504946758269" lon="7.969384266906086"><ele>215.33333333333331</ele><time>2026-04-04T11:04:43.999Z</time></trkpt><trkpt lat="44.80511508847131" lon="7.969657171182591"><ele>216.0</ele><time>2026-04-04T11:04:44.999Z</time></trkpt><trkpt lat="44.80516562808914" lon="7.969922146095025"><ele>213.66666666666669</ele><time>2026-04-04T11:04:45.999Z</time></trkpt><trkpt lat="44.805207907164515" lon="7.970197637916178"><ele>211.33333333333334</ele><time>2026-04-04T11:04:46.999Z</time></trkpt><trkpt lat="44.805240173910704" lon="7.970482017817672"><ele>209.0</ele><time>2026-04-04T11:04:47.999Z</time></trkpt><trkpt lat="44.80526753119814" lon="7.970772180018951"><ele>208.66666666666669</ele><time>2026-04-04T11:04:48.999Z</time></trkpt><trkpt lat="44.80529417551417" lon="7.971061804692091"><ele>208.33333333333331</ele><time>2026-04-04T11:04:49.999Z</time></trkpt><trkpt lat="44.80530338733774" lon="7.971354836189431"><ele>208.0</ele><time>2026-04-04T11:04:50.999Z</time></trkpt><trkpt lat="44.80530238755078" lon="7.971650604886748"><ele>207.66666666666666</ele><time>2026-04-04T11:04:51.999Z</time></trkpt><trkpt lat="44.80528832384936" lon="7.971942730121749"><ele>207.33333333333331</ele><time>2026-04-04T11:04:52.999Z</time></trkpt><trkpt lat="44.805269675232076" lon="7.972237096197641"><ele>207.0</ele><time>2026-04-04T11:04:53.999Z</time></trkpt><trkpt lat="44.80524302776297" lon="7.972531299038911"><ele>207.33333333333331</ele><time>2026-04-04T11:04:54.999Z</time></trkpt><trkpt lat="44.80520741377976" lon="7.97282146091511"><ele>207.66666666666666</ele><time>2026-04-04T11:04:55.999Z</time></trkpt><trkpt lat="44.80516044346105" lon="7.973104188790153"><ele>208.0</ele><time>2026-04-04T11:04:56.999Z</time></trkpt><trkpt lat="44.80510737371684" lon="7.973384142522516"><ele>208.66666666666666</ele><time>2026-04-04T11:04:57.999Z</time></trkpt><trkpt lat="44.805039798725936" lon="7.973663367075971"><ele>209.33333333333331</ele><time>2026-04-04T11:04:58.999Z</time></trkpt><trkpt lat="44.80496429869767" lon="7.973936375260574"><ele>210.0</ele><time>2026-04-04T11:04:59.999Z</time></trkpt><trkpt lat="44.80487977203208" lon="7.974197479888667"><ele>210.0</ele><time>2026-04-04T11:05:00.999Z</time></trkpt><trkpt lat="44.804787398976664" lon="7.9744493088010415"><ele>210.0</ele><time>2026-04-04T11:05:01.999Z</time></trkpt><trkpt lat="44.80469153703036" lon="7.974697836907264"><ele>210.0</ele><time>2026-04-04T11:05:02.999Z</time></trkpt><trkpt lat="44.80459763387195" lon="7.974948708773009"><ele>209.33333333333331</ele><time>2026-04-04T11:05:03.999Z</time></trkpt><trkpt lat="44.80448712315089" lon="7.97518368505828"><ele>208.66666666666666</ele><time>2026-04-04T11:05:04.999Z</time></trkpt><trkpt lat="44.804366536761506" lon="7.975410369091127"><ele>208.0</ele><time>2026-04-04T11:05:05.999Z</time></trkpt><trkpt lat="44.80424090262151" lon="7.975624253767215"><ele>208.0</ele><time>2026-04-04T11:05:06.999Z</time></trkpt><trkpt lat="44.804099481467105" lon="7.975820747292382"><ele>208.0</ele><time>2026-04-04T11:05:07.999Z</time></trkpt><trkpt lat="44.80396233093179" lon="7.97601443177712"><ele>208.0</ele><time>2026-04-04T11:05:08.999Z</time></trkpt><trkpt lat="44.803819855835386" lon="7.976207744912141"><ele>209.33333333333331</ele><time>2026-04-04T11:05:09.999Z</time></trkpt><trkpt lat="44.803671713962174" lon="7.976401083189886"><ele>210.66666666666669</ele><time>2026-04-04T11:05:10.999Z</time></trkpt><trkpt lat="44.80351892253338" lon="7.976592941308911"><ele>212.0</ele><time>2026-04-04T11:05:11.999Z</time></trkpt><trkpt lat="44.803363165397435" lon="7.976779043394226"><ele>208.66666666666669</ele><time>2026-04-04T11:05:12.999Z</time></trkpt><trkpt lat="44.80320283209755" lon="7.976961755354498"><ele>205.33333333333331</ele><time>2026-04-04T11:05:13.999Z</time></trkpt><trkpt lat="44.80303632718647" lon="7.977137777652447"><ele>202.0</ele><time>2026-04-04T11:05:14.999Z</time></trkpt><trkpt lat="44.802868512054424" lon="7.977316144328737"><ele>202.0</ele><time>2026-04-04T11:05:15.999Z</time></trkpt><trkpt lat="44.80270037691568" lon="7.977492842466008"><ele>202.0</ele><time>2026-04-04T11:05:16.999Z</time></trkpt><trkpt lat="44.80253648218792" lon="7.97766924006978"><ele>202.0</ele><time>2026-04-04T11:05:17.999Z</time></trkpt><trkpt lat="44.80237929659119" lon="7.977842577910881"><ele>201.0</ele><time>2026-04-04T11:05:18.999Z</time></trkpt><trkpt lat="44.802225282619254" lon="7.9780180303018104"><ele>200.0</ele><time>2026-04-04T11:05:19.999Z</time></trkpt><trkpt lat="44.80207588874247" lon="7.978195683176186"><ele>199.0</ele><time>2026-04-04T11:05:20.999Z</time></trkpt><trkpt lat="44.80192952552944" lon="7.978361186947761"><ele>198.66666666666666</ele><time>2026-04-04T11:05:21.999Z</time></trkpt><trkpt lat="44.8017877788079" lon="7.978517516034828"><ele>198.33333333333331</ele><time>2026-04-04T11:05:22.999Z</time></trkpt><trkpt lat="44.80164601410602" lon="7.978669790001929"><ele>198.0</ele><time>2026-04-04T11:05:23.999Z</time></trkpt><trkpt lat="44.80150997019391" lon="7.978810437129946"><ele>198.0</ele><time>2026-04-04T11:05:24.999Z</time></trkpt><trkpt lat="44.801377629511606" lon="7.9789520631734625"><ele>198.0</ele><time>2026-04-04T11:05:25.999Z</time></trkpt><trkpt lat="44.80125010438012" lon="7.979084451463857"><ele>198.0</ele><time>2026-04-04T11:05:26.999Z</time></trkpt><trkpt lat="44.80113558856467" lon="7.979218642065451"><ele>198.0</ele><time>2026-04-04T11:05:27.999Z</time></trkpt><trkpt lat="44.80102639635835" lon="7.979347975853049"><ele>198.0</ele><time>2026-04-04T11:05:28.999Z</time></trkpt><trkpt lat="44.80091490994194" lon="7.979475464598804"><ele>198.0</ele><time>2026-04-04T11:05:29.999Z</time></trkpt><trkpt lat="44.8008236001966" lon="7.979553854021749"><ele>198.0</ele><time>2026-04-04T11:05:30.999Z</time></trkpt><trkpt lat="44.80074012465719" lon="7.979623284651116"><ele>198.0</ele><time>2026-04-04T11:05:31.999Z</time></trkpt><trkpt lat="44.800661105592425" lon="7.979694486888086"><ele>198.0</ele><time>2026-04-04T11:05:32.999Z</time></trkpt><trkpt lat="44.800589125463304" lon="7.979738875224315"><ele>198.0</ele><time>2026-04-04T11:05:33.999Z</time></trkpt><trkpt lat="44.800514742087124" lon="7.979769625585173"><ele>198.0</ele><time>2026-04-04T11:05:34.999Z</time></trkpt><trkpt lat="44.80045252045293" lon="7.9798364628881275"><ele>198.0</ele><time>2026-04-04T11:05:35.999Z</time></trkpt><trkpt lat="44.8004000369476" lon="7.979932207422818"><ele>198.0</ele><time>2026-04-04T11:05:36.999Z</time></trkpt><trkpt lat="44.80034663982591" lon="7.980040101396584"><ele>198.25</ele><time>2026-04-04T11:05:37.999Z</time></trkpt><trkpt lat="44.800273211660496" lon="7.980150804785438"><ele>198.5</ele><time>2026-04-04T11:05:38.998Z</time></trkpt><trkpt lat="44.80018387246915" lon="7.98025524701464"><ele>198.75</ele><time>2026-04-04T11:05:39.998Z</time></trkpt><trkpt lat="44.8000846595008" lon="7.980358049338881"><ele>199.0</ele><time>2026-04-04T11:05:40.998Z</time></trkpt><trkpt lat="44.79997988945572" lon="7.9804636785057665"><ele>199.0</ele><time>2026-04-04T11:05:41.998Z</time></trkpt><trkpt lat="44.79986989629233" lon="7.980580189312193"><ele>199.0</ele><time>2026-04-04T11:05:42.998Z</time></trkpt><trkpt lat="44.79975590382019" lon="7.980696181924268"><ele>199.0</ele><time>2026-04-04T11:05:43.998Z</time></trkpt><trkpt lat="44.79963891018799" lon="7.9808221579577125"><ele>199.0</ele><time>2026-04-04T11:05:44.998Z</time></trkpt><trkpt lat="44.79951894776736" lon="7.980951970384912"><ele>198.66666666666666</ele><time>2026-04-04T11:05:45.998Z</time></trkpt><trkpt lat="44.79939297419813" lon="7.981084544920273"><ele>198.33333333333331</ele><time>2026-04-04T11:05:46.998Z</time></trkpt><trkpt lat="44.79926341568768" lon="7.981218516798557"><ele>198.0</ele><time>2026-04-04T11:05:47.998Z</time></trkpt><trkpt lat="44.799132437653064" lon="7.981355666360019"><ele>197.33333333333331</ele><time>2026-04-04T11:05:48.998Z</time></trkpt><trkpt lat="44.799000267823246" lon="7.981496783479728"><ele>196.66666666666666</ele><time>2026-04-04T11:05:49.998Z</time></trkpt><trkpt lat="44.798874095329495" lon="7.9816353543339975"><ele>196.0</ele><time>2026-04-04T11:05:50.998Z</time></trkpt><trkpt lat="44.79874871706569" lon="7.981769105958616"><ele>196.0</ele><time>2026-04-04T11:05:51.998Z</time></trkpt><trkpt lat="44.798618998100316" lon="7.9819120938424994"><ele>196.0</ele><time>2026-04-04T11:05:52.998Z</time></trkpt><trkpt lat="44.79849161821172" lon="7.982056122026843"><ele>196.0</ele><time>2026-04-04T11:05:53.998Z</time></trkpt><trkpt lat="44.798357505522624" lon="7.982188342223376"><ele>198.33333333333331</ele><time>2026-04-04T11:05:54.998Z</time></trkpt><trkpt lat="44.79822601359517" lon="7.982333948075829"><ele>200.66666666666669</ele><time>2026-04-04T11:05:55.998Z</time></trkpt><trkpt lat="44.79808647178609" lon="7.982481270661528"><ele>203.0</ele><time>2026-04-04T11:05:56.998Z</time></trkpt><trkpt lat="44.79795888839321" lon="7.982623951096725"><ele>203.0</ele><time>2026-04-04T11:05:57.998Z</time></trkpt><trkpt lat="44.797825989745064" lon="7.982766606135383"><ele>203.0</ele><time>2026-04-04T11:05:58.998Z</time></trkpt><trkpt lat="44.797691279379364" lon="7.982911414120884"><ele>203.0</ele><time>2026-04-04T11:05:59.998Z</time></trkpt><trkpt lat="44.7975563796036" lon="7.983061469062103"><ele>204.33333333333334</ele><time>2026-04-04T11:06:01Z</time></trkpt><trkpt lat="44.797417241856635" lon="7.983205416696084"><ele>205.66666666666669</ele><time>2026-04-04T11:06:02Z</time></trkpt><trkpt lat="44.79727751182073" lon="7.983352413608955"><ele>207.0</ele><time>2026-04-04T11:06:03Z</time></trkpt><trkpt lat="44.797138641175266" lon="7.983504979822865"><ele>207.0</ele><time>2026-04-04T11:06:04Z</time></trkpt><trkpt lat="44.797001711463714" lon="7.983654948032959"><ele>207.0</ele><time>2026-04-04T11:06:05Z</time></trkpt><trkpt lat="44.79686685529715" lon="7.983799548916575"><ele>207.0</ele><time>2026-04-04T11:06:06Z</time></trkpt><trkpt lat="44.79673816322669" lon="7.983934914611315"><ele>207.66666666666669</ele><time>2026-04-04T11:06:07Z</time></trkpt><trkpt lat="44.79661211126536" lon="7.984067111083706"><ele>208.33333333333334</ele><time>2026-04-04T11:06:08Z</time></trkpt><trkpt lat="44.796486301540654" lon="7.984198133537122"><ele>209.0</ele><time>2026-04-04T11:06:09Z</time></trkpt><trkpt lat="44.796365850486886" lon="7.984330747714819"><ele>207.5</ele><time>2026-04-04T11:06:10Z</time></trkpt><trkpt lat="44.79624871847566" lon="7.984458048311204"><ele>206.0</ele><time>2026-04-04T11:06:11Z</time></trkpt><trkpt lat="44.79613408143973" lon="7.984581159534549"><ele>204.5</ele><time>2026-04-04T11:06:12Z</time></trkpt><trkpt lat="44.7960250753613" lon="7.984700080049148"><ele>203.0</ele><time>2026-04-04T11:06:13Z</time></trkpt><trkpt lat="44.79591174229457" lon="7.9847996776652295"><ele>202.0</ele><time>2026-04-04T11:06:14Z</time></trkpt><trkpt lat="44.7958166216998" lon="7.984911193829986"><ele>201.0</ele><time>2026-04-04T11:06:15Z</time></trkpt><trkpt lat="44.795728294476994" lon="7.985020036307157"><ele>200.0</ele><time>2026-04-04T11:06:16Z</time></trkpt><trkpt lat="44.79564205893966" lon="7.985133071011112"><ele>199.0</ele><time>2026-04-04T11:06:17Z</time></trkpt><trkpt lat="44.79556301747122" lon="7.985247341191399"><ele>198.5</ele><time>2026-04-04T11:06:18Z</time></trkpt><trkpt lat="44.795498641507486" lon="7.985384039355858"><ele>198.0</ele><time>2026-04-04T11:06:19Z</time></trkpt><trkpt lat="44.7954297761107" lon="7.98549967422416"><ele>197.5</ele><time>2026-04-04T11:06:20Z</time></trkpt><trkpt lat="44.79535198667286" lon="7.985612397510327"><ele>197.0</ele><time>2026-04-04T11:06:21Z</time></trkpt><trkpt lat="44.79529312354409" lon="7.985765051666789"><ele>196.75</ele><time>2026-04-04T11:06:22Z</time></trkpt><trkpt lat="44.79521800108426" lon="7.985905265981997"><ele>196.5</ele><time>2026-04-04T11:06:23Z</time></trkpt><trkpt lat="44.79515343031179" lon="7.98606052006162"><ele>196.25</ele><time>2026-04-04T11:06:24Z</time></trkpt><trkpt lat="44.795085405760894" lon="7.986226763856907"><ele>196.0</ele><time>2026-04-04T11:06:25Z</time></trkpt><trkpt lat="44.79502178859888" lon="7.986389677297679"><ele>196.75</ele><time>2026-04-04T11:06:26Z</time></trkpt><trkpt lat="44.79495567158348" lon="7.9865486826220025"><ele>197.5</ele><time>2026-04-04T11:06:27Z</time></trkpt><trkpt lat="44.79488826178291" lon="7.986712700390833"><ele>198.25</ele><time>2026-04-04T11:06:28Z</time></trkpt><trkpt lat="44.79482519815759" lon="7.986868619475346"><ele>199.0</ele><time>2026-04-04T11:06:29Z</time></trkpt><trkpt lat="44.794764898528086" lon="7.987015693044174"><ele>197.5</ele><time>2026-04-04T11:06:30Z</time></trkpt><trkpt lat="44.79470411132762" lon="7.987160005705335"><ele>196.0</ele><time>2026-04-04T11:06:31Z</time></trkpt><trkpt lat="44.7946394153999" lon="7.987317545711482"><ele>194.5</ele><time>2026-04-04T11:06:32Z</time></trkpt><trkpt lat="44.794571576708485" lon="7.987476333871757"><ele>193.0</ele><time>2026-04-04T11:06:33Z</time></trkpt><trkpt lat="44.794507282192164" lon="7.98764048098354"><ele>192.75</ele><time>2026-04-04T11:06:34Z</time></trkpt><trkpt lat="44.79444119678371" lon="7.9877991969921265"><ele>192.5</ele><time>2026-04-04T11:06:35Z</time></trkpt><trkpt lat="44.79436933226605" lon="7.987959283953292"><ele>192.25</ele><time>2026-04-04T11:06:36Z</time></trkpt><trkpt lat="44.794299800701694" lon="7.988117802288236"><ele>192.0</ele><time>2026-04-04T11:06:37Z</time></trkpt><trkpt lat="44.79423083657347" lon="7.988280492263351"><ele>192.25</ele><time>2026-04-04T11:06:38Z</time></trkpt><trkpt lat="44.794159630453834" lon="7.988453380700233"><ele>192.5</ele><time>2026-04-04T11:06:39Z</time></trkpt><trkpt lat="44.79408923389267" lon="7.988623246893734"><ele>192.75</ele><time>2026-04-04T11:06:40Z</time></trkpt><trkpt lat="44.79401583515165" lon="7.988801158214044"><ele>193.0</ele><time>2026-04-04T11:06:41Z</time></trkpt><trkpt lat="44.793944293294864" lon="7.98898346711218"><ele>193.0</ele><time>2026-04-04T11:06:42Z</time></trkpt><trkpt lat="44.79387006310424" lon="7.989171881316646"><ele>193.0</ele><time>2026-04-04T11:06:43Z</time></trkpt><trkpt lat="44.79379372912191" lon="7.98935469082073"><ele>193.0</ele><time>2026-04-04T11:06:44Z</time></trkpt><trkpt lat="44.79371305139857" lon="7.989539265495982"><ele>193.0</ele><time>2026-04-04T11:06:45Z</time></trkpt><trkpt lat="44.793626424572196" lon="7.989731379754027"><ele>193.0</ele><time>2026-04-04T11:06:46Z</time></trkpt><trkpt lat="44.79354801931041" lon="7.989916117098598"><ele>193.0</ele><time>2026-04-04T11:06:47Z</time></trkpt><trkpt lat="44.79347609954174" lon="7.990115745580008"><ele>192.5</ele><time>2026-04-04T11:06:47.999Z</time></trkpt><trkpt lat="44.79340071376132" lon="7.990312725394258"><ele>192.0</ele><time>2026-04-04T11:06:48.999Z</time></trkpt><trkpt lat="44.79332498080997" lon="7.990475092186166"><ele>191.5</ele><time>2026-04-04T11:06:49.999Z</time></trkpt><trkpt lat="44.793284127580534" lon="7.990647267158451"><ele>191.0</ele><time>2026-04-04T11:06:50.999Z</time></trkpt><trkpt lat="44.793217431635576" lon="7.990808571993371"><ele>191.0</ele><time>2026-04-04T11:06:51.999Z</time></trkpt><trkpt lat="44.793168613692735" lon="7.990970466788211"><ele>191.0</ele><time>2026-04-04T11:06:52.999Z</time></trkpt><trkpt lat="44.79312599886486" lon="7.991118968846933"><ele>191.0</ele><time>2026-04-04T11:06:53.999Z</time></trkpt><trkpt lat="44.79310139463408" lon="7.9912620517534165"><ele>191.0</ele><time>2026-04-04T11:06:54.999Z</time></trkpt><trkpt lat="44.79306107832992" lon="7.991384394227815"><ele>191.0</ele><time>2026-04-04T11:06:55.999Z</time></trkpt><trkpt lat="44.79303092979349" lon="7.991507860140064"><ele>191.0</ele><time>2026-04-04T11:06:56.999Z</time></trkpt><trkpt lat="44.79299765065191" lon="7.991606427069114"><ele>191.0</ele><time>2026-04-04T11:06:57.999Z</time></trkpt><trkpt lat="44.79294815456253" lon="7.991669892486506"><ele>191.0</ele><time>2026-04-04T11:06:58.999Z</time></trkpt><trkpt lat="44.79288672566744" lon="7.991738494827026"><ele>191.0</ele><time>2026-04-04T11:06:59.999Z</time></trkpt><trkpt lat="44.792831540558886" lon="7.991821057029254"><ele>191.0</ele><time>2026-04-04T11:07:00.999Z</time></trkpt><trkpt lat="44.792786885460536" lon="7.991915753459282"><ele>191.0</ele><time>2026-04-04T11:07:01.999Z</time></trkpt><trkpt lat="44.79280020138057" lon="7.992044885482071"><ele>190.60000000000002</ele><time>2026-04-04T11:07:02.999Z</time></trkpt><trkpt lat="44.792838432799044" lon="7.992151268510418"><ele>190.2</ele><time>2026-04-04T11:07:03.999Z</time></trkpt><trkpt lat="44.79288016439662" lon="7.992256747874668"><ele>189.8</ele><time>2026-04-04T11:07:04.999Z</time></trkpt><trkpt lat="44.79293790120373" lon="7.992375625870331"><ele>189.39999999999998</ele><time>2026-04-04T11:07:05.999Z</time></trkpt><trkpt lat="44.792977808906166" lon="7.992494069061188"><ele>189.0</ele><time>2026-04-04T11:07:06.999Z</time></trkpt><trkpt lat="44.79299071169475" lon="7.992652661948904"><ele>188.75</ele><time>2026-04-04T11:07:07.999Z</time></trkpt><trkpt lat="44.793027157312814" lon="7.992826979053315"><ele>188.5</ele><time>2026-04-04T11:07:08.999Z</time></trkpt><trkpt lat="44.793040684549" lon="7.993009789330178"><ele>188.25</ele><time>2026-04-04T11:07:09.999Z</time></trkpt><trkpt lat="44.79306078841836" lon="7.993201777039026"><ele>188.0</ele><time>2026-04-04T11:07:10.999Z</time></trkpt><trkpt lat="44.7930765685565" lon="7.99342469638058"><ele>188.66666666666666</ele><time>2026-04-04T11:07:11.999Z</time></trkpt><trkpt lat="44.79310277839133" lon="7.993594716792284"><ele>189.33333333333334</ele><time>2026-04-04T11:07:12.999Z</time></trkpt><trkpt lat="44.79314136226159" lon="7.993810653546312"><ele>190.0</ele><time>2026-04-04T11:07:13.999Z</time></trkpt><trkpt lat="44.79319929263166" lon="7.994038336468639"><ele>191.33333333333334</ele><time>2026-04-04T11:07:14.999Z</time></trkpt><trkpt lat="44.79325656021226" lon="7.9942719495854355"><ele>192.66666666666669</ele><time>2026-04-04T11:07:15.999Z</time></trkpt><trkpt lat="44.79333935408278" lon="7.994510242830407"><ele>194.0</ele><time>2026-04-04T11:07:16.999Z</time></trkpt><trkpt lat="44.793420894958814" lon="7.994746652721488"><ele>193.0</ele><time>2026-04-04T11:07:17.999Z</time></trkpt><trkpt lat="44.79352030074256" lon="7.994979853897774"><ele>192.0</ele><time>2026-04-04T11:07:18.999Z</time></trkpt><trkpt lat="44.793632414090034" lon="7.995212087434478"><ele>191.0</ele><time>2026-04-04T11:07:19.999Z</time></trkpt><trkpt lat="44.79376121875508" lon="7.995434333259888"><ele>191.0</ele><time>2026-04-04T11:07:20.999Z</time></trkpt><trkpt lat="44.79388116519614" lon="7.995667291273441"><ele>191.0</ele><time>2026-04-04T11:07:21.999Z</time></trkpt><trkpt lat="44.7940084542151" lon="7.995883912520981"><ele>191.0</ele><time>2026-04-04T11:07:22.999Z</time></trkpt><trkpt lat="44.794131394071506" lon="7.996092483725554"><ele>192.66666666666666</ele><time>2026-04-04T11:07:23.999Z</time></trkpt><trkpt lat="44.79425465888873" lon="7.996303431895183"><ele>194.33333333333331</ele><time>2026-04-04T11:07:24.999Z</time></trkpt><trkpt lat="44.79437619115585" lon="7.9965181416963285"><ele>196.0</ele><time>2026-04-04T11:07:25.999Z</time></trkpt><trkpt lat="44.7944755952692" lon="7.996723855760448"><ele>196.0</ele><time>2026-04-04T11:07:26.999Z</time></trkpt><trkpt lat="44.79455533604148" lon="7.996926647220248"><ele>196.0</ele><time>2026-04-04T11:07:27.999Z</time></trkpt><trkpt lat="44.794620537413024" lon="7.997143549107497"><ele>196.0</ele><time>2026-04-04T11:07:28.999Z</time></trkpt><trkpt lat="44.79466426046247" lon="7.997330405743198"><ele>194.66666666666666</ele><time>2026-04-04T11:07:29.999Z</time></trkpt><trkpt lat="44.79470088622174" lon="7.997542985883254"><ele>193.33333333333331</ele><time>2026-04-04T11:07:30.999Z</time></trkpt><trkpt lat="44.79472421986066" lon="7.997756299769758"><ele>192.0</ele><time>2026-04-04T11:07:31.999Z</time></trkpt><trkpt lat="44.79473345880816" lon="7.997970940091216"><ele>192.0</ele><time>2026-04-04T11:07:32.999Z</time></trkpt><trkpt lat="44.79473067518668" lon="7.9981902640043"><ele>192.0</ele><time>2026-04-04T11:07:33.999Z</time></trkpt><trkpt lat="44.794715190356605" lon="7.9984143422787515"><ele>192.0</ele><time>2026-04-04T11:07:34.999Z</time></trkpt><trkpt lat="44.79469606717057" lon="7.9986450564221325"><ele>191.66666666666666</ele><time>2026-04-04T11:07:35.999Z</time></trkpt><trkpt lat="44.794644117747346" lon="7.998865519861785"><ele>191.33333333333331</ele><time>2026-04-04T11:07:36.999Z</time></trkpt><trkpt lat="44.79458253927422" lon="7.999068183828678"><ele>191.0</ele><time>2026-04-04T11:07:37.999Z</time></trkpt><trkpt lat="44.79451911518701" lon="7.99926075345804"><ele>190.0</ele><time>2026-04-04T11:07:38.999Z</time></trkpt><trkpt lat="44.7944522325028" lon="7.999449887066559"><ele>189.0</ele><time>2026-04-04T11:07:39.999Z</time></trkpt><trkpt lat="44.79437926871578" lon="7.999638411591086"><ele>188.0</ele><time>2026-04-04T11:07:40.999Z</time></trkpt><trkpt lat="44.79431294780297" lon="7.999843327969878"><ele>188.0</ele><time>2026-04-04T11:07:41.999Z</time></trkpt><trkpt lat="44.794243732362254" lon="8.000024040587423"><ele>188.0</ele><time>2026-04-04T11:07:42.999Z</time></trkpt><trkpt lat="44.79417925631506" lon="8.000199123583837"><ele>188.0</ele><time>2026-04-04T11:07:43.999Z</time></trkpt><trkpt lat="44.79411585699385" lon="8.000377038119401"><ele>188.0</ele><time>2026-04-04T11:07:44.998Z</time></trkpt><trkpt lat="44.794055099150235" lon="8.000555625074574"><ele>188.0</ele><time>2026-04-04T11:07:45.998Z</time></trkpt><trkpt lat="44.79399174624735" lon="8.000723803816106"><ele>188.0</ele><time>2026-04-04T11:07:46.998Z</time></trkpt><trkpt lat="44.79391406945889" lon="8.000858105843182"><ele>188.0</ele><time>2026-04-04T11:07:47.998Z</time></trkpt><trkpt lat="44.793845854232075" lon="8.000997442422053"><ele>188.0</ele><time>2026-04-04T11:07:48.998Z</time></trkpt><trkpt lat="44.79378884666136" lon="8.001137821428117"><ele>187.8</ele><time>2026-04-04T11:07:49.998Z</time></trkpt><trkpt lat="44.793718427868626" lon="8.001258753245095"><ele>187.60000000000002</ele><time>2026-04-04T11:07:50.998Z</time></trkpt><trkpt lat="44.79364074183933" lon="8.001354964817477"><ele>187.39999999999998</ele><time>2026-04-04T11:07:51.998Z</time></trkpt><trkpt lat="44.793584386388886" lon="8.001467344179085"><ele>187.2</ele><time>2026-04-04T11:07:52.998Z</time></trkpt><trkpt lat="44.79351643013517" lon="8.001559464449166"><ele>187.0</ele><time>2026-04-04T11:07:53.998Z</time></trkpt><trkpt lat="44.79344730149918" lon="8.001632171006232"><ele>187.0</ele><time>2026-04-04T11:07:54.998Z</time></trkpt><trkpt lat="44.79337401556782" lon="8.00167088077877"><ele>187.0</ele><time>2026-04-04T11:07:55.998Z</time></trkpt><trkpt lat="44.793288715577816" lon="8.001682185521503"><ele>187.0</ele><time>2026-04-04T11:07:56.998Z</time></trkpt><trkpt lat="44.79321705573086" lon="8.001659266662097"><ele>187.0</ele><time>2026-04-04T11:07:57.998Z</time></trkpt><trkpt lat="44.793146344165294" lon="8.001660818485313"><ele>187.0</ele><time>2026-04-04T11:07:58.998Z</time></trkpt><trkpt lat="44.79307522531349" lon="8.00168830443204"><ele>187.0</ele><time>2026-04-04T11:07:59.998Z</time></trkpt><trkpt lat="44.7930159748664" lon="8.001746350211137"><ele>186.83333333333334</ele><time>2026-04-04T11:08:00.998Z</time></trkpt><trkpt lat="44.792963139591926" lon="8.001827723898826"><ele>186.66666666666669</ele><time>2026-04-04T11:08:01.998Z</time></trkpt><trkpt lat="44.79292994566769" lon="8.00194122251474"><ele>186.5</ele><time>2026-04-04T11:08:02.998Z</time></trkpt><trkpt lat="44.79290431043121" lon="8.002048852117463"><ele>186.33333333333334</ele><time>2026-04-04T11:08:03.998Z</time></trkpt><trkpt lat="44.79286080208684" lon="8.002160190972852"><ele>186.16666666666666</ele><time>2026-04-04T11:08:04.998Z</time></trkpt><trkpt lat="44.79278921308792" lon="8.002259632117374"><ele>186.0</ele><time>2026-04-04T11:08:05.998Z</time></trkpt><trkpt lat="44.792684026843155" lon="8.002312785435324"><ele>186.25</ele><time>2026-04-04T11:08:07Z</time></trkpt><trkpt lat="44.792574937136514" lon="8.00239228145285"><ele>186.5</ele><time>2026-04-04T11:08:08Z</time></trkpt><trkpt lat="44.792446560941436" lon="8.002439198773612"><ele>186.75</ele><time>2026-04-04T11:08:09Z</time></trkpt><trkpt lat="44.79230985776647" lon="8.002491178611324"><ele>187.0</ele><time>2026-04-04T11:08:10Z</time></trkpt><trkpt lat="44.79216648523347" lon="8.002540809036464"><ele>188.0</ele><time>2026-04-04T11:08:11Z</time></trkpt><trkpt lat="44.79201285343577" lon="8.00257743382189"><ele>189.0</ele><time>2026-04-04T11:08:12Z</time></trkpt><trkpt lat="44.791852873798064" lon="8.002594311765048"><ele>190.0</ele><time>2026-04-04T11:08:13Z</time></trkpt><trkpt lat="44.79169143555492" lon="8.002598617167763"><ele>190.33333333333334</ele><time>2026-04-04T11:08:14Z</time></trkpt><trkpt lat="44.79153714323778" lon="8.00259951028252"><ele>190.66666666666666</ele><time>2026-04-04T11:08:15Z</time></trkpt><trkpt lat="44.79138331749597" lon="8.002598192732014"><ele>191.0</ele><time>2026-04-04T11:08:16Z</time></trkpt><trkpt lat="44.7912237944215" lon="8.002595002844735"><ele>191.0</ele><time>2026-04-04T11:08:17Z</time></trkpt><trkpt lat="44.79106329623004" lon="8.002590600460769"><ele>191.0</ele><time>2026-04-04T11:08:18Z</time></trkpt><trkpt lat="44.79090226597548" lon="8.002589140727258"><ele>191.0</ele><time>2026-04-04T11:08:19Z</time></trkpt><trkpt lat="44.79073471755387" lon="8.00258900459617"><ele>191.33333333333331</ele><time>2026-04-04T11:08:20Z</time></trkpt><trkpt lat="44.79056176683829" lon="8.002595527011994"><ele>191.66666666666666</ele><time>2026-04-04T11:08:21Z</time></trkpt><trkpt lat="44.790395876715486" lon="8.002591024897077"><ele>192.0</ele><time>2026-04-04T11:08:22Z</time></trkpt><trkpt lat="44.790234580906386" lon="8.002588447384632"><ele>191.75</ele><time>2026-04-04T11:08:23Z</time></trkpt><trkpt lat="44.79008268699863" lon="8.002582394530217"><ele>191.5</ele><time>2026-04-04T11:08:24Z</time></trkpt><trkpt lat="44.789941895260704" lon="8.002571048900448"><ele>191.25</ele><time>2026-04-04T11:08:25Z</time></trkpt><trkpt lat="44.78979631413943" lon="8.002570601889603"><ele>191.0</ele><time>2026-04-04T11:08:26Z</time></trkpt><trkpt lat="44.789652003637485" lon="8.002573883263176"><ele>191.0</ele><time>2026-04-04T11:08:27Z</time></trkpt><trkpt lat="44.78950517607525" lon="8.002575612895546"><ele>191.0</ele><time>2026-04-04T11:08:28Z</time></trkpt><trkpt lat="44.7893652210349" lon="8.00256327660564"><ele>191.0</ele><time>2026-04-04T11:08:29Z</time></trkpt><trkpt lat="44.78922249278416" lon="8.002555843147414"><ele>191.0</ele><time>2026-04-04T11:08:30Z</time></trkpt><trkpt lat="44.789076411847134" lon="8.002551260544855"><ele>190.5</ele><time>2026-04-04T11:08:31Z</time></trkpt><trkpt lat="44.78893374587525" lon="8.002547375422713"><ele>190.0</ele><time>2026-04-04T11:08:32Z</time></trkpt><trkpt lat="44.78878494392374" lon="8.002552774532225"><ele>189.5</ele><time>2026-04-04T11:08:33Z</time></trkpt><trkpt lat="44.78864182778284" lon="8.002549291151118"><ele>189.0</ele><time>2026-04-04T11:08:34Z</time></trkpt><trkpt lat="44.78849481445402" lon="8.002544675170665"><ele>189.0</ele><time>2026-04-04T11:08:35Z</time></trkpt><trkpt lat="44.78834897694936" lon="8.002540518664274"><ele>189.0</ele><time>2026-04-04T11:08:36Z</time></trkpt><trkpt lat="44.78820086364925" lon="8.002539101784835"><ele>189.0</ele><time>2026-04-04T11:08:37Z</time></trkpt><trkpt lat="44.78805509072181" lon="8.002539115763756"><ele>189.0</ele><time>2026-04-04T11:08:38Z</time></trkpt><trkpt lat="44.78787707089389" lon="8.002543505281762"><ele>189.0</ele><time>2026-04-04T11:08:39Z</time></trkpt><trkpt lat="44.78775109190503" lon="8.002538770934407"><ele>189.0</ele><time>2026-04-04T11:08:40Z</time></trkpt><trkpt lat="44.78760277703276" lon="8.002538871441233"><ele>189.0</ele><time>2026-04-04T11:08:41Z</time></trkpt><trkpt lat="44.78747466608381" lon="8.002527923215391"><ele>189.0</ele><time>2026-04-04T11:08:42Z</time></trkpt><trkpt lat="44.78730980991718" lon="8.00253503354765"><ele>188.66666666666666</ele><time>2026-04-04T11:08:43Z</time></trkpt><trkpt lat="44.78715645988472" lon="8.002532533268385"><ele>188.33333333333331</ele><time>2026-04-04T11:08:44Z</time></trkpt><trkpt lat="44.78699862606122" lon="8.00252834666415"><ele>188.0</ele><time>2026-04-04T11:08:45Z</time></trkpt><trkpt lat="44.78684437779796" lon="8.002523790025116"><ele>188.33333333333331</ele><time>2026-04-04T11:08:46Z</time></trkpt><trkpt lat="44.78668744112222" lon="8.002523305724662"><ele>188.66666666666666</ele><time>2026-04-04T11:08:47Z</time></trkpt><trkpt lat="44.786526649748055" lon="8.002524322838575"><ele>189.0</ele><time>2026-04-04T11:08:48Z</time></trkpt><trkpt lat="44.78636578105138" lon="8.002512429675962"><ele>189.0</ele><time>2026-04-04T11:08:48.999Z</time></trkpt><trkpt lat="44.78621008824238" lon="8.00250950638027"><ele>189.0</ele><time>2026-04-04T11:08:49.999Z</time></trkpt><trkpt lat="44.78605851480069" lon="8.002525606953236"><ele>189.0</ele><time>2026-04-04T11:08:50.999Z</time></trkpt><trkpt lat="44.78590125940915" lon="8.002519485157048"><ele>189.33333333333334</ele><time>2026-04-04T11:08:51.999Z</time></trkpt><trkpt lat="44.78573845175819" lon="8.00251163763107"><ele>189.66666666666669</ele><time>2026-04-04T11:08:52.999Z</time></trkpt><trkpt lat="44.785574817296094" lon="8.002505778322696"><ele>190.0</ele><time>2026-04-04T11:08:53.999Z</time></trkpt><trkpt lat="44.78541013676153" lon="8.002498127712771"><ele>190.0</ele><time>2026-04-04T11:08:54.999Z</time></trkpt><trkpt lat="44.78524544492994" lon="8.00250103165562"><ele>190.0</ele><time>2026-04-04T11:08:55.999Z</time></trkpt><trkpt lat="44.78507824003144" lon="8.002501359299377"><ele>190.0</ele><time>2026-04-04T11:08:56.999Z</time></trkpt><trkpt lat="44.78491954588701" lon="8.002502099600896"><ele>190.0</ele><time>2026-04-04T11:08:57.999Z</time></trkpt><trkpt lat="44.78477106443038" lon="8.002498191819175"><ele>190.0</ele><time>2026-04-04T11:08:58.999Z</time></trkpt><trkpt lat="44.784635925926295" lon="8.002485848709666"><ele>190.0</ele><time>2026-04-04T11:08:59.999Z</time></trkpt><trkpt lat="44.78449552308683" lon="8.00248869010871"><ele>190.0</ele><time>2026-04-04T11:09:00.999Z</time></trkpt><trkpt lat="44.78435718862934" lon="8.002507063869936"><ele>190.2</ele><time>2026-04-04T11:09:01.999Z</time></trkpt><trkpt lat="44.784244391351976" lon="8.00250603390786"><ele>190.4</ele><time>2026-04-04T11:09:02.999Z</time></trkpt><trkpt lat="44.78413259292236" lon="8.002514182133805"><ele>190.60000000000002</ele><time>2026-04-04T11:09:03.999Z</time></trkpt><trkpt lat="44.78402940728687" lon="8.002522350902744"><ele>190.8</ele><time>2026-04-04T11:09:04.999Z</time></trkpt><trkpt lat="44.783933533976516" lon="8.002538802035927"><ele>191.0</ele><time>2026-04-04T11:09:05.999Z</time></trkpt><trkpt lat="44.783850982013746" lon="8.002550307720647"><ele>191.0</ele><time>2026-04-04T11:09:06.999Z</time></trkpt><trkpt lat="44.78377827045683" lon="8.002555126744687"><ele>191.0</ele><time>2026-04-04T11:09:07.999Z</time></trkpt><trkpt lat="44.7836694520769" lon="8.002537268501612"><ele>191.0</ele><time>2026-04-04T11:09:09.999Z</time></trkpt><trkpt lat="44.78359341297273" lon="8.002470025114041"><ele>191.0</ele><time>2026-04-04T11:09:11.999Z</time></trkpt><trkpt lat="44.78350266066627" lon="8.002361945484292"><ele>191.0</ele><time>2026-04-04T11:09:13.999Z</time></trkpt><trkpt lat="44.7834417668053" lon="8.002331725625146"><ele>191.20000000000002</ele><time>2026-04-04T11:09:14.999Z</time></trkpt><trkpt lat="44.78331907742832" lon="8.002342272085"><ele>191.4</ele><time>2026-04-04T11:09:16.999Z</time></trkpt><trkpt lat="44.78326920065326" lon="8.0024146191665"><ele>191.6</ele><time>2026-04-04T11:09:17.999Z</time></trkpt><trkpt lat="44.78319310594742" lon="8.00255533427266"><ele>191.8</ele><time>2026-04-04T11:09:19.999Z</time></trkpt><trkpt lat="44.783138437050354" lon="8.002634759767231"><ele>192.0</ele><time>2026-04-04T11:09:20.999Z</time></trkpt><trkpt lat="44.78306700862048" lon="8.002697859587634"><ele>192.0</ele><time>2026-04-04T11:09:21.999Z</time></trkpt><trkpt lat="44.78297509417964" lon="8.002737955279645"><ele>192.0</ele><time>2026-04-04T11:09:22.999Z</time></trkpt><trkpt lat="44.78287027323481" lon="8.002776927345542"><ele>192.0</ele><time>2026-04-04T11:09:23.999Z</time></trkpt><trkpt lat="44.782766222787544" lon="8.002816308263474"><ele>192.0</ele><time>2026-04-04T11:09:24.999Z</time></trkpt><trkpt lat="44.782649997576904" lon="8.002865275356564"><ele>192.0</ele><time>2026-04-04T11:09:25.999Z</time></trkpt><trkpt lat="44.78252459200679" lon="8.002918781244269"><ele>192.33333333333331</ele><time>2026-04-04T11:09:26.999Z</time></trkpt><trkpt lat="44.78238595689792" lon="8.002979061845375"><ele>192.66666666666666</ele><time>2026-04-04T11:09:27.999Z</time></trkpt><trkpt lat="44.78223837616151" lon="8.003050159597757"><ele>193.0</ele><time>2026-04-04T11:09:28.999Z</time></trkpt><trkpt lat="44.78208909661914" lon="8.003132507103226"><ele>193.0</ele><time>2026-04-04T11:09:29.999Z</time></trkpt><trkpt lat="44.781945704105105" lon="8.003216111918755"><ele>193.0</ele><time>2026-04-04T11:09:30.999Z</time></trkpt><trkpt lat="44.781797959872414" lon="8.00331396457369"><ele>193.0</ele><time>2026-04-04T11:09:31.999Z</time></trkpt><trkpt lat="44.78164243696248" lon="8.00342176814537"><ele>193.33333333333331</ele><time>2026-04-04T11:09:32.999Z</time></trkpt><trkpt lat="44.781478637883296" lon="8.003536146665198"><ele>193.66666666666669</ele><time>2026-04-04T11:09:33.999Z</time></trkpt><trkpt lat="44.78131075125078" lon="8.003653276700621"><ele>194.0</ele><time>2026-04-04T11:09:34.999Z</time></trkpt><trkpt lat="44.78113875311201" lon="8.003777784110497"><ele>195.33333333333334</ele><time>2026-04-04T11:09:35.999Z</time></trkpt><trkpt lat="44.78096637436506" lon="8.003897413184983"><ele>196.66666666666669</ele><time>2026-04-04T11:09:36.999Z</time></trkpt><trkpt lat="44.78080977802643" lon="8.004004909644499"><ele>198.0</ele><time>2026-04-04T11:09:37.999Z</time></trkpt><trkpt lat="44.78066639890697" lon="8.004104308882619"><ele>197.25</ele><time>2026-04-04T11:09:38.999Z</time></trkpt><trkpt lat="44.780531493714555" lon="8.004200451143307"><ele>196.5</ele><time>2026-04-04T11:09:39.999Z</time></trkpt><trkpt lat="44.78040213012631" lon="8.004289812698078"><ele>195.75</ele><time>2026-04-04T11:09:40.999Z</time></trkpt><trkpt lat="44.78026967199777" lon="8.00437850362182"><ele>195.0</ele><time>2026-04-04T11:09:41.999Z</time></trkpt><trkpt lat="44.78013832024866" lon="8.00446757499765"><ele>195.0</ele><time>2026-04-04T11:09:42.999Z</time></trkpt><trkpt lat="44.78001236363903" lon="8.004555269983797"><ele>195.0</ele><time>2026-04-04T11:09:43.999Z</time></trkpt><trkpt lat="44.779884321132876" lon="8.004648546496702"><ele>195.0</ele><time>2026-04-04T11:09:44.999Z</time></trkpt><trkpt lat="44.779757973211474" lon="8.00473774344794"><ele>195.0</ele><time>2026-04-04T11:09:45.999Z</time></trkpt><trkpt lat="44.77963447351684" lon="8.004831519839056"><ele>195.0</ele><time>2026-04-04T11:09:46.998Z</time></trkpt><trkpt lat="44.779502481267244" lon="8.004918056538576"><ele>195.0</ele><time>2026-04-04T11:09:47.998Z</time></trkpt><trkpt lat="44.779376632588914" lon="8.00501036977634"><ele>195.0</ele><time>2026-04-04T11:09:48.998Z</time></trkpt><trkpt lat="44.77925152205025" lon="8.005102127387964"><ele>195.0</ele><time>2026-04-04T11:09:49.998Z</time></trkpt><trkpt lat="44.779124481192646" lon="8.005193226864469"><ele>195.5</ele><time>2026-04-04T11:09:50.998Z</time></trkpt><trkpt lat="44.77899682523097" lon="8.005285250238481"><ele>196.0</ele><time>2026-04-04T11:09:51.998Z</time></trkpt><trkpt lat="44.778872415523075" lon="8.005373063427266"><ele>196.5</ele><time>2026-04-04T11:09:52.998Z</time></trkpt><trkpt lat="44.77874488498948" lon="8.00546087819929"><ele>197.0</ele><time>2026-04-04T11:09:53.998Z</time></trkpt><trkpt lat="44.77861711979982" lon="8.00554887783461"><ele>196.75</ele><time>2026-04-04T11:09:54.998Z</time></trkpt><trkpt lat="44.77848705179373" lon="8.005641372570606"><ele>196.5</ele><time>2026-04-04T11:09:55.998Z</time></trkpt><trkpt lat="44.77835248560282" lon="8.005736136549947"><ele>196.25</ele><time>2026-04-04T11:09:56.998Z</time></trkpt><trkpt lat="44.77822158281984" lon="8.005832986991246"><ele>196.0</ele><time>2026-04-04T11:09:57.998Z</time></trkpt><trkpt lat="44.77808745977425" lon="8.005923236368483"><ele>196.0</ele><time>2026-04-04T11:09:58.998Z</time></trkpt><trkpt lat="44.77795202325857" lon="8.006017527788494"><ele>196.0</ele><time>2026-04-04T11:09:59.998Z</time></trkpt><trkpt lat="44.777819340205895" lon="8.006112346902905"><ele>196.0</ele><time>2026-04-04T11:10:00.998Z</time></trkpt><trkpt lat="44.77768403520173" lon="8.00621107971362"><ele>197.66666666666666</ele><time>2026-04-04T11:10:01.998Z</time></trkpt><trkpt lat="44.777547267123786" lon="8.00630516270529"><ele>199.33333333333331</ele><time>2026-04-04T11:10:02.998Z</time></trkpt><trkpt lat="44.7774023874668" lon="8.006390500569818"><ele>201.0</ele><time>2026-04-04T11:10:03.998Z</time></trkpt><trkpt lat="44.77727141990192" lon="8.006492645703904"><ele>201.0</ele><time>2026-04-04T11:10:04.998Z</time></trkpt><trkpt lat="44.77713829683958" lon="8.00659842145679"><ele>201.0</ele><time>2026-04-04T11:10:05.998Z</time></trkpt><trkpt lat="44.77700712230878" lon="8.00668468256678"><ele>201.0</ele><time>2026-04-04T11:10:06.998Z</time></trkpt><trkpt lat="44.77688370740558" lon="8.006758682312753"><ele>201.0</ele><time>2026-04-04T11:10:07.998Z</time></trkpt><trkpt lat="44.77677077433731" lon="8.006833512027386"><ele>200.8</ele><time>2026-04-04T11:10:08.998Z</time></trkpt><trkpt lat="44.7766765645071" lon="8.00690538631753"><ele>200.60000000000002</ele><time>2026-04-04T11:10:09.998Z</time></trkpt><trkpt lat="44.77657752844161" lon="8.006973290730901"><ele>200.4</ele><time>2026-04-04T11:10:10.998Z</time></trkpt><trkpt lat="44.77648093804838" lon="8.007033956512842"><ele>200.2</ele><time>2026-04-04T11:10:12Z</time></trkpt><trkpt lat="44.77638548615873" lon="8.007083159552653"><ele>200.0</ele><time>2026-04-04T11:10:13Z</time></trkpt><trkpt lat="44.77629148525371" lon="8.007114420036832"><ele>200.00000000000003</ele><time>2026-04-04T11:10:14Z</time></trkpt><trkpt lat="44.776208204985245" lon="8.00714858176742"><ele>200.0</ele><time>2026-04-04T11:10:15Z</time></trkpt><trkpt lat="44.77613192253861" lon="8.007164606444002"><ele>200.0</ele><time>2026-04-04T11:10:16Z</time></trkpt><trkpt lat="44.77604116859646" lon="8.007191545836587"><ele>200.0</ele><time>2026-04-04T11:10:17Z</time></trkpt><trkpt lat="44.77595023724791" lon="8.007189089522045"><ele>200.00000000000003</ele><time>2026-04-04T11:10:18Z</time></trkpt><trkpt lat="44.775874174600176" lon="8.007152559071573"><ele>200.0</ele><time>2026-04-04T11:10:19Z</time></trkpt><trkpt lat="44.77578913996422" lon="8.007133427756727"><ele>201.0</ele><time>2026-04-04T11:10:20Z</time></trkpt><trkpt lat="44.775699925748725" lon="8.007151619679616"><ele>202.0</ele><time>2026-04-04T11:10:21Z</time></trkpt><trkpt lat="44.77562280462356" lon="8.007201807317154"><ele>203.0</ele><time>2026-04-04T11:10:22Z</time></trkpt><trkpt lat="44.77554248263064" lon="8.00728741452273"><ele>204.0</ele><time>2026-04-04T11:10:23Z</time></trkpt><trkpt lat="44.77545826755509" lon="8.00739324031413"><ele>205.0</ele><time>2026-04-04T11:10:24Z</time></trkpt><trkpt lat="44.77536357765411" lon="8.00748949521691"><ele>204.75</ele><time>2026-04-04T11:10:25Z</time></trkpt><trkpt lat="44.775257740228305" lon="8.007546116957036"><ele>204.5</ele><time>2026-04-04T11:10:26Z</time></trkpt><trkpt lat="44.77514087669895" lon="8.007608606305435"><ele>204.25</ele><time>2026-04-04T11:10:27Z</time></trkpt><trkpt lat="44.775020786842234" lon="8.007635632131231"><ele>204.0</ele><time>2026-04-04T11:10:28Z</time></trkpt><trkpt lat="44.77489636404506" lon="8.007682063330812"><ele>204.0</ele><time>2026-04-04T11:10:29Z</time></trkpt><trkpt lat="44.77476459775672" lon="8.007723446574596"><ele>204.0</ele><time>2026-04-04T11:10:30Z</time></trkpt><trkpt lat="44.774632731137" lon="8.007766575953127"><ele>204.0</ele><time>2026-04-04T11:10:31Z</time></trkpt><trkpt lat="44.77449614233257" lon="8.007801171600121"><ele>204.0</ele><time>2026-04-04T11:10:32Z</time></trkpt><trkpt lat="44.77435561786959" lon="8.007843530234442"><ele>206.0</ele><time>2026-04-04T11:10:33Z</time></trkpt><trkpt lat="44.77421406238316" lon="8.007884553365875"><ele>208.0</ele><time>2026-04-04T11:10:34Z</time></trkpt><trkpt lat="44.774070360346855" lon="8.007923653244852"><ele>210.0</ele><time>2026-04-04T11:10:35Z</time></trkpt><trkpt lat="44.77392366851967" lon="8.007964720142189"><ele>212.0</ele><time>2026-04-04T11:10:36Z</time></trkpt><trkpt lat="44.773772742589664" lon="8.008008229642792"><ele>212.0</ele><time>2026-04-04T11:10:37Z</time></trkpt><trkpt lat="44.77361874028753" lon="8.008051318518513"><ele>212.0</ele><time>2026-04-04T11:10:38Z</time></trkpt><trkpt lat="44.773474100511294" lon="8.008096127118636"><ele>212.0</ele><time>2026-04-04T11:10:39Z</time></trkpt><trkpt lat="44.77332104424624" lon="8.008125767856438"><ele>215.66666666666669</ele><time>2026-04-04T11:10:40Z</time></trkpt><trkpt lat="44.77316879566772" lon="8.008192713432283"><ele>219.33333333333331</ele><time>2026-04-04T11:10:41Z</time></trkpt><trkpt lat="44.773020024486414" lon="8.008230427048403"><ele>223.0</ele><time>2026-04-04T11:10:42Z</time></trkpt><trkpt lat="44.772871752448964" lon="8.008275097455439"><ele>223.0</ele><time>2026-04-04T11:10:43Z</time></trkpt><trkpt lat="44.77272003757849" lon="8.008305047455815"><ele>223.0</ele><time>2026-04-04T11:10:44Z</time></trkpt><trkpt lat="44.77257215415998" lon="8.008342046374217"><ele>223.0</ele><time>2026-04-04T11:10:45Z</time></trkpt><trkpt lat="44.772424801908045" lon="8.008381502015835"><ele>214.66666666666666</ele><time>2026-04-04T11:10:46Z</time></trkpt><trkpt lat="44.77227473152978" lon="8.008417990793953"><ele>206.33333333333331</ele><time>2026-04-04T11:10:46.999Z</time></trkpt><trkpt lat="44.77212404325278" lon="8.008455574809561"><ele>198.0</ele><time>2026-04-04T11:10:47.999Z</time></trkpt><trkpt lat="44.77197470758288" lon="8.008498599832944"><ele>199.0</ele><time>2026-04-04T11:10:48.999Z</time></trkpt><trkpt lat="44.77182440081833" lon="8.008541539318323"><ele>200.0</ele><time>2026-04-04T11:10:49.999Z</time></trkpt><trkpt lat="44.77167749357826" lon="8.008579625385519"><ele>201.0</ele><time>2026-04-04T11:10:50.999Z</time></trkpt><trkpt lat="44.7715367327564" lon="8.008618087232596"><ele>202.0</ele><time>2026-04-04T11:10:51.999Z</time></trkpt><trkpt lat="44.77141153312719" lon="8.008655348671219"><ele>202.0</ele><time>2026-04-04T11:10:52.999Z</time></trkpt><trkpt lat="44.771290424612985" lon="8.008694778344017"><ele>202.0</ele><time>2026-04-04T11:10:53.999Z</time></trkpt><trkpt lat="44.77117503627457" lon="8.00872173786867"><ele>202.0</ele><time>2026-04-04T11:10:54.999Z</time></trkpt><trkpt lat="44.771065006745324" lon="8.00875378417484"><ele>202.0</ele><time>2026-04-04T11:10:55.999Z</time></trkpt><trkpt lat="44.770959291916576" lon="8.008782402110945"><ele>205.25</ele><time>2026-04-04T11:10:56.999Z</time></trkpt><trkpt lat="44.770850639348275" lon="8.008809525384645"><ele>208.5</ele><time>2026-04-04T11:10:57.999Z</time></trkpt><trkpt lat="44.770735354610274" lon="8.008843077610223"><ele>211.75</ele><time>2026-04-04T11:10:58.999Z</time></trkpt><trkpt lat="44.77061414011569" lon="8.008879713726804"><ele>215.0</ele><time>2026-04-04T11:10:59.999Z</time></trkpt><trkpt lat="44.77048844664539" lon="8.008917437237246"><ele>215.0</ele><time>2026-04-04T11:11:00.999Z</time></trkpt><trkpt lat="44.77035594208777" lon="8.008958175574312"><ele>215.0</ele><time>2026-04-04T11:11:01.999Z</time></trkpt><trkpt lat="44.770217949857376" lon="8.00900007485543"><ele>215.0</ele><time>2026-04-04T11:11:02.999Z</time></trkpt><trkpt lat="44.77007316887911" lon="8.009042411028053"><ele>215.0</ele><time>2026-04-04T11:11:03.999Z</time></trkpt><trkpt lat="44.76992309037808" lon="8.009086282196671"><ele>215.66666666666669</ele><time>2026-04-04T11:11:04.999Z</time></trkpt><trkpt lat="44.76977585981357" lon="8.00913309757279"><ele>216.33333333333331</ele><time>2026-04-04T11:11:05.999Z</time></trkpt><trkpt lat="44.769615570969115" lon="8.009184385650594"><ele>217.0</ele><time>2026-04-04T11:11:06.999Z</time></trkpt><trkpt lat="44.769461948393285" lon="8.009221335453779"><ele>212.0</ele><time>2026-04-04T11:11:07.999Z</time></trkpt><trkpt lat="44.76930596528306" lon="8.009265500686865"><ele>207.0</ele><time>2026-04-04T11:11:08.999Z</time></trkpt><trkpt lat="44.76914731551732" lon="8.009309643112998"><ele>202.0</ele><time>2026-04-04T11:11:09.999Z</time></trkpt><trkpt lat="44.768970899515054" lon="8.009355592105646"><ele>202.0</ele><time>2026-04-04T11:11:10.999Z</time></trkpt><trkpt lat="44.76881421016604" lon="8.009384000471577"><ele>202.0</ele><time>2026-04-04T11:11:11.999Z</time></trkpt><trkpt lat="44.76865916232532" lon="8.009395869390332"><ele>202.0</ele><time>2026-04-04T11:11:12.999Z</time></trkpt><trkpt lat="44.76847562039356" lon="8.009387509067706"><ele>201.66666666666666</ele><time>2026-04-04T11:11:13.999Z</time></trkpt><trkpt lat="44.76830574588729" lon="8.009371147288114"><ele>201.33333333333331</ele><time>2026-04-04T11:11:14.999Z</time></trkpt><trkpt lat="44.76814046287826" lon="8.009345284285647"><ele>201.0</ele><time>2026-04-04T11:11:15.999Z</time></trkpt><trkpt lat="44.767976146624335" lon="8.009327158219335"><ele>201.0</ele><time>2026-04-04T11:11:16.999Z</time></trkpt><trkpt lat="44.76781274167309" lon="8.009305618269494"><ele>201.0</ele><time>2026-04-04T11:11:17.999Z</time></trkpt><trkpt lat="44.767655369708265" lon="8.009284822470182"><ele>201.0</ele><time>2026-04-04T11:11:18.999Z</time></trkpt><trkpt lat="44.7675036410869" lon="8.009265042595691"><ele>200.66666666666669</ele><time>2026-04-04T11:11:19.999Z</time></trkpt><trkpt lat="44.767352686558766" lon="8.009246376882514"><ele>200.33333333333334</ele><time>2026-04-04T11:11:20.999Z</time></trkpt><trkpt lat="44.76719843016188" lon="8.00922664480757"><ele>200.0</ele><time>2026-04-04T11:11:21.999Z</time></trkpt><trkpt lat="44.76704867753862" lon="8.009195262067735"><ele>200.0</ele><time>2026-04-04T11:11:22.999Z</time></trkpt><trkpt lat="44.76688340876673" lon="8.009162914275784"><ele>200.0</ele><time>2026-04-04T11:11:23.999Z</time></trkpt><trkpt lat="44.766723074944004" lon="8.009139837876877"><ele>200.0</ele><time>2026-04-04T11:11:24.999Z</time></trkpt><trkpt lat="44.76658360741484" lon="8.009119567055162"><ele>201.66666666666669</ele><time>2026-04-04T11:11:25.999Z</time></trkpt><trkpt lat="44.76640725728558" lon="8.009094988407124"><ele>203.33333333333331</ele><time>2026-04-04T11:11:26.999Z</time></trkpt><trkpt lat="44.76624302975124" lon="8.009078962258023"><ele>205.0</ele><time>2026-04-04T11:11:27.999Z</time></trkpt><trkpt lat="44.76607921699253" lon="8.009060326047695"><ele>205.33333333333331</ele><time>2026-04-04T11:11:28.999Z</time></trkpt><trkpt lat="44.7659200634783" lon="8.009043745004844"><ele>205.66666666666669</ele><time>2026-04-04T11:11:29.999Z</time></trkpt><trkpt lat="44.765765673202154" lon="8.00901439914394"><ele>206.0</ele><time>2026-04-04T11:11:30.999Z</time></trkpt><trkpt lat="44.76560784657745" lon="8.008989832717647"><ele>206.0</ele><time>2026-04-04T11:11:31.999Z</time></trkpt><trkpt lat="44.76545209925638" lon="8.008970024984079"><ele>206.0</ele><time>2026-04-04T11:11:32.999Z</time></trkpt><trkpt lat="44.76530350604543" lon="8.008951760517109"><ele>206.0</ele><time>2026-04-04T11:11:33.999Z</time></trkpt><trkpt lat="44.76516578393359" lon="8.008932459439242"><ele>206.0</ele><time>2026-04-04T11:11:34.999Z</time></trkpt><trkpt lat="44.76502384565092" lon="8.008925323224965"><ele>206.0</ele><time>2026-04-04T11:11:35.999Z</time></trkpt><trkpt lat="44.76488807344033" lon="8.008913364906821"><ele>206.0</ele><time>2026-04-04T11:11:36.999Z</time></trkpt><trkpt lat="44.76475233013293" lon="8.008910611694061"><ele>206.0</ele><time>2026-04-04T11:11:37.999Z</time></trkpt><trkpt lat="44.76461598772078" lon="8.008922206179047"><ele>206.0</ele><time>2026-04-04T11:11:38.999Z</time></trkpt><trkpt lat="44.76448803237486" lon="8.008960376719893"><ele>206.0</ele><time>2026-04-04T11:11:39.999Z</time></trkpt><trkpt lat="44.764380676002524" lon="8.009002333870253"><ele>206.0</ele><time>2026-04-04T11:11:40.999Z</time></trkpt><trkpt lat="44.76425616582459" lon="8.009074535334687"><ele>206.0</ele><time>2026-04-04T11:11:41.999Z</time></trkpt><trkpt lat="44.76411104327081" lon="8.00917452160084"><ele>206.0</ele><time>2026-04-04T11:11:42.999Z</time></trkpt><trkpt lat="44.76397512352185" lon="8.009262736088147"><ele>205.5</ele><time>2026-04-04T11:11:43.999Z</time></trkpt><trkpt lat="44.76385160322031" lon="8.00934320786624"><ele>205.0</ele><time>2026-04-04T11:11:44.999Z</time></trkpt><trkpt lat="44.76372487285181" lon="8.009398383111632"><ele>204.5</ele><time>2026-04-04T11:11:45.999Z</time></trkpt><trkpt lat="44.76360960098651" lon="8.009456598341638"><ele>204.0</ele><time>2026-04-04T11:11:46.999Z</time></trkpt><trkpt lat="44.76348743694667" lon="8.009500682567026"><ele>204.0</ele><time>2026-04-04T11:11:47.998Z</time></trkpt><trkpt lat="44.76335676313974" lon="8.009485620881769"><ele>204.0</ele><time>2026-04-04T11:11:48.998Z</time></trkpt><trkpt lat="44.76322560631606" lon="8.009503111816265"><ele>204.0</ele><time>2026-04-04T11:11:49.998Z</time></trkpt><trkpt lat="44.76310707512058" lon="8.009499137009437"><ele>204.0</ele><time>2026-04-04T11:11:50.998Z</time></trkpt><trkpt lat="44.76297656776749" lon="8.009479819461346"><ele>204.0</ele><time>2026-04-04T11:11:51.998Z</time></trkpt><trkpt lat="44.762849901999914" lon="8.009475545068591"><ele>204.0</ele><time>2026-04-04T11:11:52.998Z</time></trkpt><trkpt lat="44.76271965669587" lon="8.009479240680385"><ele>204.0</ele><time>2026-04-04T11:11:53.998Z</time></trkpt><trkpt lat="44.76259225840686" lon="8.009478440056423"><ele>204.0</ele><time>2026-04-04T11:11:54.998Z</time></trkpt><trkpt lat="44.76246135796974" lon="8.009478409155367"><ele>204.0</ele><time>2026-04-04T11:11:55.998Z</time></trkpt><trkpt lat="44.762331976987575" lon="8.009476156205851"><ele>204.0</ele><time>2026-04-04T11:11:56.998Z</time></trkpt><trkpt lat="44.76220759191241" lon="8.009475093849506"><ele>204.0</ele><time>2026-04-04T11:11:57.998Z</time></trkpt><trkpt lat="44.76209415450059" lon="8.009458677249796"><ele>204.0</ele><time>2026-04-04T11:11:58.998Z</time></trkpt><trkpt lat="44.76197373747636" lon="8.009453571262833"><ele>204.0</ele><time>2026-04-04T11:11:59.998Z</time></trkpt><trkpt lat="44.76186880392346" lon="8.009451246849473"><ele>204.0</ele><time>2026-04-04T11:12:00.998Z</time></trkpt><trkpt lat="44.76176500251256" lon="8.009462485350255"><ele>204.0</ele><time>2026-04-04T11:12:01.998Z</time></trkpt><trkpt lat="44.7616703581206" lon="8.009459392036538"><ele>204.0</ele><time>2026-04-04T11:12:02.998Z</time></trkpt><trkpt lat="44.761582416999055" lon="8.009463952830918"><ele>204.0</ele><time>2026-04-04T11:12:03.998Z</time></trkpt><trkpt lat="44.7615018201228" lon="8.0094642981552"><ele>204.16666666666666</ele><time>2026-04-04T11:12:04.998Z</time></trkpt><trkpt lat="44.76142554847476" lon="8.00946180320351"><ele>204.33333333333331</ele><time>2026-04-04T11:12:05.998Z</time></trkpt><trkpt lat="44.76135937826767" lon="8.00946806932522"><ele>204.5</ele><time>2026-04-04T11:12:06.998Z</time></trkpt><trkpt lat="44.761289478327846" lon="8.009457212639157"><ele>204.66666666666666</ele><time>2026-04-04T11:12:07.998Z</time></trkpt><trkpt lat="44.76121404606938" lon="8.009424915168061"><ele>204.83333333333331</ele><time>2026-04-04T11:12:08.998Z</time></trkpt><trkpt lat="44.761140176085114" lon="8.009373956481504"><ele>205.0</ele><time>2026-04-04T11:12:09.998Z</time></trkpt><trkpt lat="44.761070574484435" lon="8.009326357467092"><ele>204.83333333333331</ele><time>2026-04-04T11:12:10.998Z</time></trkpt><trkpt lat="44.76099161724847" lon="8.009323362177225"><ele>204.66666666666666</ele><time>2026-04-04T11:12:11.998Z</time></trkpt><trkpt lat="44.760923459205486" lon="8.009358836558865"><ele>204.5</ele><time>2026-04-04T11:12:12.998Z</time></trkpt><trkpt lat="44.76085056931859" lon="8.009412515742435"><ele>204.33333333333331</ele><time>2026-04-04T11:12:13.998Z</time></trkpt><trkpt lat="44.760773902161816" lon="8.009458698487197"><ele>204.16666666666666</ele><time>2026-04-04T11:12:14.998Z</time></trkpt><trkpt lat="44.76068063509158" lon="8.009475544926454"><ele>204.0</ele><time>2026-04-04T11:12:15.998Z</time></trkpt><trkpt lat="44.760580482533335" lon="8.009469486870024"><ele>204.0</ele><time>2026-04-04T11:12:16.998Z</time></trkpt><trkpt lat="44.760475067972074" lon="8.009459637492668"><ele>204.0</ele><time>2026-04-04T11:12:18Z</time></trkpt><trkpt lat="44.76037667620895" lon="8.009460396898618"><ele>204.0</ele><time>2026-04-04T11:12:19Z</time></trkpt><trkpt lat="44.76024971848924" lon="8.009447565166935"><ele>204.0</ele><time>2026-04-04T11:12:20Z</time></trkpt><trkpt lat="44.76013350213171" lon="8.009424615274517"><ele>204.0</ele><time>2026-04-04T11:12:21Z</time></trkpt><trkpt lat="44.7600237857108" lon="8.009396746818425"><ele>205.0</ele><time>2026-04-04T11:12:22Z</time></trkpt><trkpt lat="44.75991649119278" lon="8.009361193953287"><ele>206.0</ele><time>2026-04-04T11:12:23Z</time></trkpt><trkpt lat="44.7597978489656" lon="8.009327401071856"><ele>207.0</ele><time>2026-04-04T11:12:24Z</time></trkpt><trkpt lat="44.759682471329704" lon="8.009284184548603"><ele>208.0</ele><time>2026-04-04T11:12:25Z</time></trkpt><trkpt lat="44.75957744330955" lon="8.009223425348013"><ele>208.0</ele><time>2026-04-04T11:12:26Z</time></trkpt><trkpt lat="44.75946913175712" lon="8.009157532269656"><ele>208.0</ele><time>2026-04-04T11:12:27Z</time></trkpt><trkpt lat="44.759367160843695" lon="8.009082756292527"><ele>208.0</ele><time>2026-04-04T11:12:28Z</time></trkpt><trkpt lat="44.759267512451245" lon="8.009000859250696"><ele>208.0</ele><time>2026-04-04T11:12:29Z</time></trkpt><trkpt lat="44.75917011892129" lon="8.008913184362816"><ele>208.0</ele><time>2026-04-04T11:12:30Z</time></trkpt><trkpt lat="44.75907604184943" lon="8.00881380311801"><ele>208.0</ele><time>2026-04-04T11:12:31Z</time></trkpt><trkpt lat="44.75897604356786" lon="8.008701830225172"><ele>208.0</ele><time>2026-04-04T11:12:32Z</time></trkpt><trkpt lat="44.75888024459109" lon="8.008581099695698"><ele>208.0</ele><time>2026-04-04T11:12:33Z</time></trkpt><trkpt lat="44.75878724741178" lon="8.008452961695385"><ele>208.0</ele><time>2026-04-04T11:12:34Z</time></trkpt><trkpt lat="44.758690987888144" lon="8.008322190416791"><ele>208.0</ele><time>2026-04-04T11:12:35Z</time></trkpt><trkpt lat="44.75859506567446" lon="8.008192367215111"><ele>208.0</ele><time>2026-04-04T11:12:36Z</time></trkpt><trkpt lat="44.75850314157452" lon="8.008041959189146"><ele>208.0</ele><time>2026-04-04T11:12:37Z</time></trkpt><trkpt lat="44.75840992838233" lon="8.00790894592735"><ele>208.0</ele><time>2026-04-04T11:12:38Z</time></trkpt><trkpt lat="44.75830620667201" lon="8.007789336357758"><ele>208.0</ele><time>2026-04-04T11:12:39Z</time></trkpt><trkpt lat="44.75822046540731" lon="8.00764074626162"><ele>208.0</ele><time>2026-04-04T11:12:40Z</time></trkpt><trkpt lat="44.75811485083856" lon="8.00750817827597"><ele>208.0</ele><time>2026-04-04T11:12:41Z</time></trkpt><trkpt lat="44.75801563071334" lon="8.007365197663237"><ele>208.75</ele><time>2026-04-04T11:12:42Z</time></trkpt><trkpt lat="44.757920617132534" lon="8.007226453503272"><ele>209.5</ele><time>2026-04-04T11:12:43Z</time></trkpt><trkpt lat="44.75781718908247" lon="8.007085802246701"><ele>210.25</ele><time>2026-04-04T11:12:44Z</time></trkpt><trkpt lat="44.757714627848635" lon="8.00694066703848"><ele>211.0</ele><time>2026-04-04T11:12:45Z</time></trkpt><trkpt lat="44.75761088387189" lon="8.006791349197725"><ele>211.0</ele><time>2026-04-04T11:12:46Z</time></trkpt><trkpt lat="44.75750281885631" lon="8.006637798234376"><ele>211.0</ele><time>2026-04-04T11:12:47Z</time></trkpt><trkpt lat="44.75739869385498" lon="8.00648609061462"><ele>211.0</ele><time>2026-04-04T11:12:48Z</time></trkpt><trkpt lat="44.75730005642585" lon="8.006335178053643"><ele>211.0</ele><time>2026-04-04T11:12:49Z</time></trkpt><trkpt lat="44.757191132528995" lon="8.006185191999364"><ele>211.0</ele><time>2026-04-04T11:12:50Z</time></trkpt><trkpt lat="44.757075841349845" lon="8.00603228668683"><ele>211.0</ele><time>2026-04-04T11:12:51Z</time></trkpt><trkpt lat="44.7569647310827" lon="8.005874197826747"><ele>211.0</ele><time>2026-04-04T11:12:52Z</time></trkpt><trkpt lat="44.7568531003258" lon="8.005715759135567"><ele>211.0</ele><time>2026-04-04T11:12:53Z</time></trkpt><trkpt lat="44.75674525891937" lon="8.005563772863262"><ele>211.0</ele><time>2026-04-04T11:12:54Z</time></trkpt><trkpt lat="44.75663858875014" lon="8.005413869074859"><ele>211.0</ele><time>2026-04-04T11:12:55Z</time></trkpt><trkpt lat="44.756535369045736" lon="8.005263167099217"><ele>211.0</ele><time>2026-04-04T11:12:56Z</time></trkpt><trkpt lat="44.75643108363824" lon="8.005114544189938"><ele>211.0</ele><time>2026-04-04T11:12:57Z</time></trkpt><trkpt lat="44.75633015550486" lon="8.004971431323952"><ele>211.0</ele><time>2026-04-04T11:12:57.999Z</time></trkpt><trkpt lat="44.75622826332267" lon="8.004831003304494"><ele>211.0</ele><time>2026-04-04T11:12:58.999Z</time></trkpt><trkpt lat="44.756129431149276" lon="8.004690945809646"><ele>211.0</ele><time>2026-04-04T11:12:59.999Z</time></trkpt><trkpt lat="44.756029012356294" lon="8.004549705672398"><ele>211.0</ele><time>2026-04-04T11:13:00.999Z</time></trkpt><trkpt lat="44.75592978505867" lon="8.004409960409676"><ele>211.0</ele><time>2026-04-04T11:13:01.999Z</time></trkpt><trkpt lat="44.75584079909039" lon="8.004256320823163"><ele>211.0</ele><time>2026-04-04T11:13:02.999Z</time></trkpt><trkpt lat="44.7557418577696" lon="8.00411573458566"><ele>211.0</ele><time>2026-04-04T11:13:03.999Z</time></trkpt><trkpt lat="44.75562834127743" lon="8.003991763429731"><ele>211.0</ele><time>2026-04-04T11:13:04.999Z</time></trkpt><trkpt lat="44.755527181010095" lon="8.00384588492975"><ele>211.0</ele><time>2026-04-04T11:13:05.999Z</time></trkpt><trkpt lat="44.755424186219024" lon="8.003698697548915"><ele>211.0</ele><time>2026-04-04T11:13:06.999Z</time></trkpt><trkpt lat="44.75532211872549" lon="8.0035521254401"><ele>211.0</ele><time>2026-04-04T11:13:07.999Z</time></trkpt><trkpt lat="44.75522269177668" lon="8.003410740466471"><ele>211.0</ele><time>2026-04-04T11:13:08.999Z</time></trkpt><trkpt lat="44.75514161937025" lon="8.003267940662866"><ele>211.0</ele><time>2026-04-04T11:13:09.999Z</time></trkpt><trkpt lat="44.755057389778635" lon="8.003147797494785"><ele>211.0</ele><time>2026-04-04T11:13:10.999Z</time></trkpt><trkpt lat="44.75497752602659" lon="8.003034279315033"><ele>211.8</ele><time>2026-04-04T11:13:11.999Z</time></trkpt><trkpt lat="44.75489093898645" lon="8.00294360972344"><ele>212.60000000000002</ele><time>2026-04-04T11:13:12.999Z</time></trkpt><trkpt lat="44.754817783013436" lon="8.00282981145073"><ele>213.4</ele><time>2026-04-04T11:13:13.999Z</time></trkpt><trkpt lat="44.754750137866225" lon="8.002735252638548"><ele>214.2</ele><time>2026-04-04T11:13:14.999Z</time></trkpt><trkpt lat="44.75469427937754" lon="8.002647544850452"><ele>215.0</ele><time>2026-04-04T11:13:15.999Z</time></trkpt><trkpt lat="44.75463891570119" lon="8.002556229879092"><ele>215.2</ele><time>2026-04-04T11:13:16.999Z</time></trkpt><trkpt lat="44.754575979663045" lon="8.002480181019216"><ele>215.4</ele><time>2026-04-04T11:13:17.999Z</time></trkpt><trkpt lat="44.754493397194416" lon="8.00242103617689"><ele>215.60000000000002</ele><time>2026-04-04T11:13:18.999Z</time></trkpt><trkpt lat="44.75440388266279" lon="8.002360162528655"><ele>215.8</ele><time>2026-04-04T11:13:19.999Z</time></trkpt><trkpt lat="44.754303980919225" lon="8.002281485408156"><ele>216.0</ele><time>2026-04-04T11:13:20.999Z</time></trkpt><trkpt lat="44.75420426196893" lon="8.002196749158115"><ele>216.0</ele><time>2026-04-04T11:13:21.999Z</time></trkpt><trkpt lat="44.75409729724359" lon="8.002103994482413"><ele>216.0</ele><time>2026-04-04T11:13:22.999Z</time></trkpt><trkpt lat="44.753979975780645" lon="8.002015130147882"><ele>216.0</ele><time>2026-04-04T11:13:23.999Z</time></trkpt><trkpt lat="44.75385271351586" lon="8.001935796832791"><ele>216.0</ele><time>2026-04-04T11:13:24.999Z</time></trkpt><trkpt lat="44.75371809839607" lon="8.00186636872711"><ele>216.0</ele><time>2026-04-04T11:13:25.999Z</time></trkpt><trkpt lat="44.75357789582458" lon="8.001771379179859"><ele>216.0</ele><time>2026-04-04T11:13:26.999Z</time></trkpt><trkpt lat="44.75342144357911" lon="8.001697672392146"><ele>216.0</ele><time>2026-04-04T11:13:27.999Z</time></trkpt><trkpt lat="44.753238780849536" lon="8.00162059752662"><ele>216.0</ele><time>2026-04-04T11:13:28.999Z</time></trkpt><trkpt lat="44.753039297003504" lon="8.00153698030246"><ele>216.0</ele><time>2026-04-04T11:13:29.999Z</time></trkpt><trkpt lat="44.75283029582284" lon="8.001449373880297"><ele>216.0</ele><time>2026-04-04T11:13:30.999Z</time></trkpt><trkpt lat="44.75262324770447" lon="8.001362586137324"><ele>216.0</ele><time>2026-04-04T11:13:31.999Z</time></trkpt><trkpt lat="44.75242773706982" lon="8.001280634491964"><ele>216.0</ele><time>2026-04-04T11:13:32.999Z</time></trkpt><trkpt lat="44.75223427445377" lon="8.001199541424016"><ele>216.0</ele><time>2026-04-04T11:13:33.999Z</time></trkpt><trkpt lat="44.752042922737374" lon="8.001119331543919"><ele>216.0</ele><time>2026-04-04T11:13:34.999Z</time></trkpt><trkpt lat="44.75187630108054" lon="8.001049035529576"><ele>216.0</ele><time>2026-04-04T11:13:35.999Z</time></trkpt><trkpt lat="44.75168204507957" lon="8.000989734526073"><ele>216.0</ele><time>2026-04-04T11:13:36.999Z</time></trkpt><trkpt lat="44.75149867257228" lon="8.00090910048425"><ele>216.66666666666669</ele><time>2026-04-04T11:13:37.999Z</time></trkpt><trkpt lat="44.75131313594401" lon="8.000833315529619"><ele>217.33333333333334</ele><time>2026-04-04T11:13:38.999Z</time></trkpt><trkpt lat="44.751142585757385" lon="8.000740732563157"><ele>218.0</ele><time>2026-04-04T11:13:39.999Z</time></trkpt><trkpt lat="44.7509840074282" lon="8.000697785546762"><ele>218.33333333333334</ele><time>2026-04-04T11:13:40.999Z</time></trkpt><trkpt lat="44.75085324613113" lon="8.000626993454372"><ele>218.66666666666669</ele><time>2026-04-04T11:13:41.999Z</time></trkpt><trkpt lat="44.75068854714144" lon="8.00056328335132"><ele>219.0</ele><time>2026-04-04T11:13:42.999Z</time></trkpt><trkpt lat="44.75055013158352" lon="8.000510231189478"><ele>219.0</ele><time>2026-04-04T11:13:43.999Z</time></trkpt><trkpt lat="44.75040990782387" lon="8.000445989372661"><ele>219.0</ele><time>2026-04-04T11:13:44.999Z</time></trkpt><trkpt lat="44.750261756213725" lon="8.000386880116368"><ele>219.0</ele><time>2026-04-04T11:13:45.999Z</time></trkpt><trkpt lat="44.75011107596884" lon="8.00032460222999"><ele>218.66666666666669</ele><time>2026-04-04T11:13:46.999Z</time></trkpt><trkpt lat="44.74995567363519" lon="8.00024388072979"><ele>218.33333333333334</ele><time>2026-04-04T11:13:47.999Z</time></trkpt><trkpt lat="44.74980643576679" lon="8.000198326391459"><ele>218.0</ele><time>2026-04-04T11:13:48.999Z</time></trkpt><trkpt lat="44.74965814654651" lon="8.000134648548505"><ele>218.0</ele><time>2026-04-04T11:13:49.999Z</time></trkpt><trkpt lat="44.749508131291485" lon="8.000070825135875"><ele>218.0</ele><time>2026-04-04T11:13:50.999Z</time></trkpt><trkpt lat="44.74935765470388" lon="8.00000307196069"><ele>218.0</ele><time>2026-04-04T11:13:51.999Z</time></trkpt><trkpt lat="44.74919769688185" lon="7.999940937371442"><ele>218.0</ele><time>2026-04-04T11:13:52.999Z</time></trkpt><trkpt lat="44.749049311810154" lon="7.999892737383664"><ele>218.0</ele><time>2026-04-04T11:13:53.999Z</time></trkpt><trkpt lat="44.74888916900548" lon="7.999846290323036"><ele>218.0</ele><time>2026-04-04T11:13:54.999Z</time></trkpt><trkpt lat="44.748721050663264" lon="7.999800219958598"><ele>218.0</ele><time>2026-04-04T11:13:55.999Z</time></trkpt><trkpt lat="44.74855129139052" lon="7.99975895423597"><ele>218.0</ele><time>2026-04-04T11:13:56.999Z</time></trkpt><trkpt lat="44.74837790507399" lon="7.999724814622544"><ele>218.0</ele><time>2026-04-04T11:13:57.999Z</time></trkpt><trkpt lat="44.7482078478697" lon="7.999693475732096"><ele>218.66666666666669</ele><time>2026-04-04T11:13:58.999Z</time></trkpt><trkpt lat="44.74804088031534" lon="7.999658169465028"><ele>219.33333333333331</ele><time>2026-04-04T11:13:59.999Z</time></trkpt><trkpt lat="44.747872298815025" lon="7.999641161610687"><ele>220.0</ele><time>2026-04-04T11:14:00.999Z</time></trkpt><trkpt lat="44.747711389537635" lon="7.99962885565133"><ele>220.75</ele><time>2026-04-04T11:14:01.999Z</time></trkpt><trkpt lat="44.747563318107964" lon="7.999613439286066"><ele>221.5</ele><time>2026-04-04T11:14:02.998Z</time></trkpt><trkpt lat="44.74742160610714" lon="7.999605901003643"><ele>222.25</ele><time>2026-04-04T11:14:03.998Z</time></trkpt><trkpt lat="44.74728662176893" lon="7.9996050158536764"><ele>223.0</ele><time>2026-04-04T11:14:04.998Z</time></trkpt><trkpt lat="44.74715637296278" lon="7.999606586075583"><ele>223.0</ele><time>2026-04-04T11:14:05.998Z</time></trkpt><trkpt lat="44.74701682656895" lon="7.999609840174679"><ele>223.0</ele><time>2026-04-04T11:14:06.998Z</time></trkpt><trkpt lat="44.74688421123356" lon="7.999617096647086"><ele>223.0</ele><time>2026-04-04T11:14:07.998Z</time></trkpt><trkpt lat="44.746759798995335" lon="7.999612569198852"><ele>223.0</ele><time>2026-04-04T11:14:08.998Z</time></trkpt><trkpt lat="44.74663508177435" lon="7.999611379527135"><ele>224.25</ele><time>2026-04-04T11:14:09.998Z</time></trkpt><trkpt lat="44.74649883976" lon="7.999631905274981"><ele>225.5</ele><time>2026-04-04T11:14:10.998Z</time></trkpt><trkpt lat="44.7463623568691" lon="7.999653751200184"><ele>226.75</ele><time>2026-04-04T11:14:11.998Z</time></trkpt><trkpt lat="44.746225928101374" lon="7.999677220485463"><ele>228.0</ele><time>2026-04-04T11:14:12.998Z</time></trkpt><trkpt lat="44.74607879162373" lon="7.999697476955582"><ele>230.25</ele><time>2026-04-04T11:14:13.998Z</time></trkpt><trkpt lat="44.745956013395414" lon="7.999697940624176"><ele>232.5</ele><time>2026-04-04T11:14:14.998Z</time></trkpt><trkpt lat="44.745836384850264" lon="7.999701160706095"><ele>234.75</ele><time>2026-04-04T11:14:15.998Z</time></trkpt><trkpt lat="44.74571136028123" lon="7.9996907194175755"><ele>237.0</ele><time>2026-04-04T11:14:16.998Z</time></trkpt><trkpt lat="44.745581609099204" lon="7.999667074038622"><ele>237.0</ele><time>2026-04-04T11:14:17.998Z</time></trkpt><trkpt lat="44.745441438199855" lon="7.999636642506984"><ele>237.0</ele><time>2026-04-04T11:14:18.998Z</time></trkpt><trkpt lat="44.74530093503211" lon="7.999593810670935"><ele>237.0</ele><time>2026-04-04T11:14:19.998Z</time></trkpt><trkpt lat="44.745184655341035" lon="7.999530984888014"><ele>237.0</ele><time>2026-04-04T11:14:20.998Z</time></trkpt><trkpt lat="44.745062772514835" lon="7.999463261163233"><ele>238.25</ele><time>2026-04-04T11:14:21.998Z</time></trkpt><trkpt lat="44.744941165924836" lon="7.999389694694565"><ele>239.5</ele><time>2026-04-04T11:14:22.998Z</time></trkpt><trkpt lat="44.7448209648178" lon="7.999316750776134"><ele>240.75</ele><time>2026-04-04T11:14:24Z</time></trkpt><trkpt lat="44.74470171281753" lon="7.999223501398253"><ele>242.0</ele><time>2026-04-04T11:14:25Z</time></trkpt><trkpt lat="44.744596762032224" lon="7.999126776730811"><ele>242.5</ele><time>2026-04-04T11:14:26Z</time></trkpt><trkpt lat="44.744496335920836" lon="7.9990165020138635"><ele>243.0</ele><time>2026-04-04T11:14:27Z</time></trkpt><trkpt lat="44.74439891879068" lon="7.998894903364593"><ele>243.5</ele><time>2026-04-04T11:14:28Z</time></trkpt><trkpt lat="44.74430419883777" lon="7.998763262644117"><ele>244.0</ele><time>2026-04-04T11:14:29Z</time></trkpt><trkpt lat="44.744213296109116" lon="7.998621733011525"><ele>243.75</ele><time>2026-04-04T11:14:30Z</time></trkpt><trkpt lat="44.744125829961284" lon="7.998477503719761"><ele>243.5</ele><time>2026-04-04T11:14:31Z</time></trkpt><trkpt lat="44.7440394198519" lon="7.9983235036614655"><ele>243.25</ele><time>2026-04-04T11:14:32Z</time></trkpt><trkpt lat="44.74396327100124" lon="7.998174298044118"><ele>243.0</ele><time>2026-04-04T11:14:33Z</time></trkpt><trkpt lat="44.7438964963838" lon="7.998030245683782"><ele>243.0</ele><time>2026-04-04T11:14:34Z</time></trkpt><trkpt lat="44.743830473229245" lon="7.997896213238818"><ele>243.0</ele><time>2026-04-04T11:14:35Z</time></trkpt><trkpt lat="44.74376573155479" lon="7.997771677382979"><ele>243.0</ele><time>2026-04-04T11:14:36Z</time></trkpt><trkpt lat="44.743705016041005" lon="7.997650365539138"><ele>243.0</ele><time>2026-04-04T11:14:37Z</time></trkpt><trkpt lat="44.743645793058654" lon="7.997535130168638"><ele>243.0</ele><time>2026-04-04T11:14:38Z</time></trkpt><trkpt lat="44.743591868077694" lon="7.997421723346217"><ele>241.16666666666666</ele><time>2026-04-04T11:14:39Z</time></trkpt><trkpt lat="44.743537767815305" lon="7.99731206964126"><ele>239.33333333333331</ele><time>2026-04-04T11:14:40Z</time></trkpt><trkpt lat="44.743478584826846" lon="7.997214918270586"><ele>237.5</ele><time>2026-04-04T11:14:41Z</time></trkpt><trkpt lat="44.7434146065049" lon="7.997126556928624"><ele>235.66666666666666</ele><time>2026-04-04T11:14:42Z</time></trkpt><trkpt lat="44.74334764583564" lon="7.997045527246923"><ele>233.83333333333331</ele><time>2026-04-04T11:14:43Z</time></trkpt><trkpt lat="44.74328922802146" lon="7.996959883464094"><ele>232.0</ele><time>2026-04-04T11:14:44Z</time></trkpt><trkpt lat="44.74324445609645" lon="7.996857184107851"><ele>231.99999999999997</ele><time>2026-04-04T11:14:45Z</time></trkpt><trkpt lat="44.743207754640174" lon="7.996759431746821"><ele>232.0</ele><time>2026-04-04T11:14:46Z</time></trkpt><trkpt lat="44.74315375513846" lon="7.996683897758937"><ele>232.0</ele><time>2026-04-04T11:14:47Z</time></trkpt><trkpt lat="44.74308495794066" lon="7.996637487592559"><ele>232.0</ele><time>2026-04-04T11:14:48Z</time></trkpt><trkpt lat="44.74300744545401" lon="7.99660824900146"><ele>231.99999999999997</ele><time>2026-04-04T11:14:49Z</time></trkpt><trkpt lat="44.74292051340493" lon="7.996559642485636"><ele>232.0</ele><time>2026-04-04T11:14:50Z</time></trkpt><trkpt lat="44.74283366339849" lon="7.996483489303104"><ele>231.75</ele><time>2026-04-04T11:14:51Z</time></trkpt><trkpt lat="44.742750248292595" lon="7.996385329225902"><ele>231.5</ele><time>2026-04-04T11:14:52Z</time></trkpt><trkpt lat="44.74266407516229" lon="7.996287382693182"><ele>231.25</ele><time>2026-04-04T11:14:53Z</time></trkpt><trkpt lat="44.74257469601036" lon="7.996187947132051"><ele>231.0</ele><time>2026-04-04T11:14:54Z</time></trkpt><trkpt lat="44.74246509481242" lon="7.996128830059694"><ele>228.75</ele><time>2026-04-04T11:14:55Z</time></trkpt><trkpt lat="44.742350657525954" lon="7.996063470508775"><ele>226.5</ele><time>2026-04-04T11:14:56Z</time></trkpt><trkpt lat="44.742220275316456" lon="7.996004590322716"><ele>224.25</ele><time>2026-04-04T11:14:57Z</time></trkpt><trkpt lat="44.742085449766584" lon="7.995948366779022"><ele>222.0</ele><time>2026-04-04T11:14:58Z</time></trkpt><trkpt lat="44.74193642753232" lon="7.995906043134649"><ele>219.33333333333331</ele><time>2026-04-04T11:14:59Z</time></trkpt><trkpt lat="44.74178609142459" lon="7.995881826911387"><ele>216.66666666666666</ele><time>2026-04-04T11:15:00Z</time></trkpt><trkpt lat="44.74162728414428" lon="7.99587401318824"><ele>214.0</ele><time>2026-04-04T11:15:01Z</time></trkpt><trkpt lat="44.74147161954148" lon="7.9958767130181165"><ele>214.0</ele><time>2026-04-04T11:15:02Z</time></trkpt><trkpt lat="44.741309874823116" lon="7.995893745838527"><ele>214.0</ele><time>2026-04-04T11:15:03Z</time></trkpt><trkpt lat="44.74114103580512" lon="7.99592598896824"><ele>214.0</ele><time>2026-04-04T11:15:03.999Z</time></trkpt><trkpt lat="44.740972344906396" lon="7.9959814869913926"><ele>213.0</ele><time>2026-04-04T11:15:04.999Z</time></trkpt><trkpt lat="44.740808086490205" lon="7.996054758151044"><ele>212.0</ele><time>2026-04-04T11:15:05.999Z</time></trkpt><trkpt lat="44.74064800407114" lon="7.996143698806312"><ele>211.0</ele><time>2026-04-04T11:15:06.999Z</time></trkpt><trkpt lat="44.74049070223351" lon="7.996251571156616"><ele>211.0</ele><time>2026-04-04T11:15:07.999Z</time></trkpt><trkpt lat="44.74033243814573" lon="7.996376034477549"><ele>211.0</ele><time>2026-04-04T11:15:08.999Z</time></trkpt><trkpt lat="44.740178607224884" lon="7.996524487300846"><ele>211.0</ele><time>2026-04-04T11:15:09.999Z</time></trkpt><trkpt lat="44.74002833025214" lon="7.996693006481367"><ele>209.66666666666666</ele><time>2026-04-04T11:15:10.999Z</time></trkpt><trkpt lat="44.739870144793414" lon="7.996848770246169"><ele>208.33333333333331</ele><time>2026-04-04T11:15:11.999Z</time></trkpt><trkpt lat="44.73971010184177" lon="7.997008003119082"><ele>207.0</ele><time>2026-04-04T11:15:12.999Z</time></trkpt><trkpt lat="44.73954497819258" lon="7.997165527845283"><ele>207.0</ele><time>2026-04-04T11:15:13.999Z</time></trkpt><trkpt lat="44.739392629634274" lon="7.997325241008718"><ele>207.0</ele><time>2026-04-04T11:15:14.999Z</time></trkpt><trkpt lat="44.73925060454979" lon="7.997477846849148"><ele>207.0</ele><time>2026-04-04T11:15:15.999Z</time></trkpt><trkpt lat="44.73911828460421" lon="7.9976330251656185"><ele>210.0</ele><time>2026-04-04T11:15:16.999Z</time></trkpt><trkpt lat="44.73900690370465" lon="7.997781549351034"><ele>213.0</ele><time>2026-04-04T11:15:17.999Z</time></trkpt><trkpt lat="44.73889864524528" lon="7.997930961491185"><ele>216.0</ele><time>2026-04-04T11:15:18.999Z</time></trkpt><trkpt lat="44.73879760996633" lon="7.998078550693671"><ele>216.0</ele><time>2026-04-04T11:15:19.999Z</time></trkpt><trkpt lat="44.73870143620914" lon="7.998216512890444"><ele>216.0</ele><time>2026-04-04T11:15:20.999Z</time></trkpt><trkpt lat="44.73861687414328" lon="7.998347133959405"><ele>216.0</ele><time>2026-04-04T11:15:21.999Z</time></trkpt><trkpt lat="44.73853523244927" lon="7.998474645819776"><ele>216.0</ele><time>2026-04-04T11:15:22.999Z</time></trkpt><trkpt lat="44.7384543383738" lon="7.998598203230104"><ele>215.0</ele><time>2026-04-04T11:15:23.999Z</time></trkpt><trkpt lat="44.738375778306406" lon="7.9987347634369215"><ele>214.0</ele><time>2026-04-04T11:15:24.999Z</time></trkpt><trkpt lat="44.73829720895804" lon="7.998885191614842"><ele>213.0</ele><time>2026-04-04T11:15:25.999Z</time></trkpt><trkpt lat="44.73821884071197" lon="7.999026425277082"><ele>212.0</ele><time>2026-04-04T11:15:26.999Z</time></trkpt><trkpt lat="44.7381456358391" lon="7.999160249311849"><ele>213.0</ele><time>2026-04-04T11:15:27.999Z</time></trkpt><trkpt lat="44.738080562655576" lon="7.999294103771587"><ele>214.0</ele><time>2026-04-04T11:15:28.999Z</time></trkpt><trkpt lat="44.73801730090973" lon="7.999430303561076"><ele>215.0</ele><time>2026-04-04T11:15:29.999Z</time></trkpt><trkpt lat="44.737959962024824" lon="7.999575071415604"><ele>216.0</ele><time>2026-04-04T11:15:30.999Z</time></trkpt><trkpt lat="44.73790478735227" lon="7.9997261195287415"><ele>216.0</ele><time>2026-04-04T11:15:31.999Z</time></trkpt><trkpt lat="44.73784997000073" lon="7.999884641741678"><ele>216.0</ele><time>2026-04-04T11:15:32.999Z</time></trkpt><trkpt lat="44.73779628965077" lon="8.000051773130783"><ele>216.0</ele><time>2026-04-04T11:15:33.999Z</time></trkpt><trkpt lat="44.737733662384045" lon="8.000227123247843"><ele>216.0</ele><time>2026-04-04T11:15:34.999Z</time></trkpt><trkpt lat="44.737665822425264" lon="8.000406037643362"><ele>212.75</ele><time>2026-04-04T11:15:35.999Z</time></trkpt><trkpt lat="44.7375987026133" lon="8.000591762046433"><ele>209.5</ele><time>2026-04-04T11:15:36.999Z</time></trkpt><trkpt lat="44.73753861086921" lon="8.000767159953114"><ele>206.25</ele><time>2026-04-04T11:15:37.999Z</time></trkpt><trkpt lat="44.737480150241616" lon="8.000944461466036"><ele>203.0</ele><time>2026-04-04T11:15:38.999Z</time></trkpt><trkpt lat="44.73742238702669" lon="8.001122175006817"><ele>203.0</ele><time>2026-04-04T11:15:39.999Z</time></trkpt><trkpt lat="44.73736566416143" lon="8.001300376355635"><ele>203.0</ele><time>2026-04-04T11:15:40.999Z</time></trkpt><trkpt lat="44.737304449016555" lon="8.001478865453388"><ele>203.0</ele><time>2026-04-04T11:15:41.999Z</time></trkpt><trkpt lat="44.737238983596654" lon="8.001659141212611"><ele>203.0</ele><time>2026-04-04T11:15:42.999Z</time></trkpt><trkpt lat="44.73716945395213" lon="8.001847353286799"><ele>204.0</ele><time>2026-04-04T11:15:43.999Z</time></trkpt><trkpt lat="44.73709441350709" lon="8.002036144887194"><ele>205.0</ele><time>2026-04-04T11:15:44.999Z</time></trkpt><trkpt lat="44.73700628461691" lon="8.002222049932046"><ele>206.0</ele><time>2026-04-04T11:15:45.999Z</time></trkpt><trkpt lat="44.73690761360056" lon="8.002411431486124"><ele>202.33333333333334</ele><time>2026-04-04T11:15:46.999Z</time></trkpt><trkpt lat="44.73679749894573" lon="8.002596565690906"><ele>198.66666666666669</ele><time>2026-04-04T11:15:47.999Z</time></trkpt><trkpt lat="44.73667561973412" lon="8.002772658786903"><ele>195.0</ele><time>2026-04-04T11:15:48.999Z</time></trkpt><trkpt lat="44.736539560116015" lon="8.002939124103477"><ele>195.0</ele><time>2026-04-04T11:15:49.999Z</time></trkpt><trkpt lat="44.7363918566533" lon="8.003092315684324"><ele>195.0</ele><time>2026-04-04T11:15:50.999Z</time></trkpt><trkpt lat="44.736239534583795" lon="8.003237766211106"><ele>195.0</ele><time>2026-04-04T11:15:51.999Z</time></trkpt><trkpt lat="44.73607713925491" lon="8.003370911269968"><ele>194.66666666666669</ele><time>2026-04-04T11:15:52.999Z</time></trkpt><trkpt lat="44.735912113735246" lon="8.003501209699644"><ele>194.33333333333334</ele><time>2026-04-04T11:15:53.999Z</time></trkpt><trkpt lat="44.73574576728872" lon="8.003625771039227"><ele>194.0</ele><time>2026-04-04T11:15:54.999Z</time></trkpt><trkpt lat="44.73558061607466" lon="8.003741246458311"><ele>194.0</ele><time>2026-04-04T11:15:55.999Z</time></trkpt><trkpt lat="44.73543286500248" lon="8.003844843891978"><ele>194.0</ele><time>2026-04-04T11:15:56.999Z</time></trkpt><trkpt lat="44.73524573197593" lon="8.00398098293079"><ele>194.0</ele><time>2026-04-04T11:15:57.999Z</time></trkpt><trkpt lat="44.73508215588622" lon="8.004103901496425"><ele>193.66666666666669</ele><time>2026-04-04T11:15:58.999Z</time></trkpt><trkpt lat="44.734916275061515" lon="8.004226597208419"><ele>193.33333333333331</ele><time>2026-04-04T11:15:59.999Z</time></trkpt><trkpt lat="44.73475313150039" lon="8.00434503550935"><ele>193.0</ele><time>2026-04-04T11:16:00.999Z</time></trkpt><trkpt lat="44.73458792449624" lon="8.00446590450001"><ele>193.0</ele><time>2026-04-04T11:16:01.999Z</time></trkpt><trkpt lat="44.73442735546316" lon="8.004588221510659"><ele>193.0</ele><time>2026-04-04T11:16:02.999Z</time></trkpt><trkpt lat="44.734266210462565" lon="8.004712947371916"><ele>193.0</ele><time>2026-04-04T11:16:03.999Z</time></trkpt><trkpt lat="44.73410267701646" lon="8.004835982754248"><ele>192.66666666666666</ele><time>2026-04-04T11:16:04.999Z</time></trkpt><trkpt lat="44.73392943638208" lon="8.004972333906734"><ele>192.33333333333331</ele><time>2026-04-04T11:16:05.999Z</time></trkpt><trkpt lat="44.7337690164635" lon="8.005089362612436"><ele>192.0</ele><time>2026-04-04T11:16:06.999Z</time></trkpt><trkpt lat="44.733595973550145" lon="8.005217593995015"><ele>191.66666666666666</ele><time>2026-04-04T11:16:07.999Z</time></trkpt><trkpt lat="44.73342834596104" lon="8.00533207216042"><ele>191.33333333333331</ele><time>2026-04-04T11:16:08.999Z</time></trkpt><trkpt lat="44.733250498555186" lon="8.005477417898465"><ele>191.0</ele><time>2026-04-04T11:16:09.998Z</time></trkpt><trkpt lat="44.73307552953829" lon="8.005608741546132"><ele>191.0</ele><time>2026-04-04T11:16:10.998Z</time></trkpt><trkpt lat="44.73290006188454" lon="8.00574070773326"><ele>191.0</ele><time>2026-04-04T11:16:11.998Z</time></trkpt><trkpt lat="44.732722276809234" lon="8.005876426059306"><ele>191.0</ele><time>2026-04-04T11:16:12.998Z</time></trkpt><trkpt lat="44.732545201878274" lon="8.006005233939897"><ele>190.0</ele><time>2026-04-04T11:16:13.998Z</time></trkpt><trkpt lat="44.732364394797344" lon="8.006145387611639"><ele>189.0</ele><time>2026-04-04T11:16:14.998Z</time></trkpt><trkpt lat="44.732188309680495" lon="8.006280911505822"><ele>188.0</ele><time>2026-04-04T11:16:15.998Z</time></trkpt><trkpt lat="44.7320181607268" lon="8.006414248243917"><ele>187.33333333333331</ele><time>2026-04-04T11:16:16.998Z</time></trkpt><trkpt lat="44.731852684803386" lon="8.006540536880957"><ele>186.66666666666666</ele><time>2026-04-04T11:16:17.998Z</time></trkpt><trkpt lat="44.731694706069376" lon="8.006655054437374"><ele>186.0</ele><time>2026-04-04T11:16:18.998Z</time></trkpt><trkpt lat="44.731540068024294" lon="8.006771772089225"><ele>186.0</ele><time>2026-04-04T11:16:19.998Z</time></trkpt><trkpt lat="44.73138573962868" lon="8.006886794971868"><ele>186.0</ele><time>2026-04-04T11:16:20.998Z</time></trkpt><trkpt lat="44.73122732987199" lon="8.007008009314715"><ele>186.0</ele><time>2026-04-04T11:16:21.998Z</time></trkpt><trkpt lat="44.731068175077894" lon="8.007126854225438"><ele>185.0</ele><time>2026-04-04T11:16:22.998Z</time></trkpt><trkpt lat="44.7309187275026" lon="8.007236795804525"><ele>184.0</ele><time>2026-04-04T11:16:23.998Z</time></trkpt><trkpt lat="44.730772629587854" lon="8.007340766149726"><ele>183.0</ele><time>2026-04-04T11:16:24.998Z</time></trkpt><trkpt lat="44.73063024053846" lon="8.007437944104055"><ele>183.0</ele><time>2026-04-04T11:16:25.998Z</time></trkpt><trkpt lat="44.73048162971685" lon="8.007514407939606"><ele>183.0</ele><time>2026-04-04T11:16:26.998Z</time></trkpt><trkpt lat="44.73032983898263" lon="8.007570778129503"><ele>183.0</ele><time>2026-04-04T11:16:27.998Z</time></trkpt><trkpt lat="44.730173767276746" lon="8.007617180877299"><ele>182.5</ele><time>2026-04-04T11:16:29Z</time></trkpt><trkpt lat="44.73002383507433" lon="8.007656651076829"><ele>182.0</ele><time>2026-04-04T11:16:30Z</time></trkpt><trkpt lat="44.72988295971495" lon="8.007685735948904"><ele>181.5</ele><time>2026-04-04T11:16:31Z</time></trkpt><trkpt lat="44.72974891329609" lon="8.007710064843273"><ele>181.0</ele><time>2026-04-04T11:16:32Z</time></trkpt><trkpt lat="44.72961711117914" lon="8.007739936085905"><ele>181.0</ele><time>2026-04-04T11:16:33Z</time></trkpt><trkpt lat="44.72950191170937" lon="8.007757560216621"><ele>181.0</ele><time>2026-04-04T11:16:34Z</time></trkpt><trkpt lat="44.729404198981875" lon="8.007783486170219"><ele>181.0</ele><time>2026-04-04T11:16:35Z</time></trkpt><trkpt lat="44.72932478848908" lon="8.007799170806562"><ele>181.0</ele><time>2026-04-04T11:16:36Z</time></trkpt><trkpt lat="44.729257128535906" lon="8.007815870174962"><ele>181.0</ele><time>2026-04-04T11:16:37Z</time></trkpt><trkpt lat="44.72914483603988" lon="8.007797769368882"><ele>181.0</ele><time>2026-04-04T11:16:39Z</time></trkpt><trkpt lat="44.729043974176875" lon="8.007718448901803"><ele>181.0</ele><time>2026-04-04T11:16:41Z</time></trkpt><trkpt lat="44.72898015961231" lon="8.007677055087543"><ele>181.0</ele><time>2026-04-04T11:16:42Z</time></trkpt><trkpt lat="44.72891041745332" lon="8.00768001289661"><ele>181.0</ele><time>2026-04-04T11:16:43Z</time></trkpt><trkpt lat="44.72885076402546" lon="8.007729209705179"><ele>181.0</ele><time>2026-04-04T11:16:44Z</time></trkpt><trkpt lat="44.728801174643294" lon="8.00780323304932"><ele>181.0</ele><time>2026-04-04T11:16:45Z</time></trkpt><trkpt lat="44.728750391958364" lon="8.007888836234388"><ele>181.0</ele><time>2026-04-04T11:16:46Z</time></trkpt><trkpt lat="44.728715149244394" lon="8.007978802143754"><ele>181.0</ele><time>2026-04-04T11:16:47Z</time></trkpt><trkpt lat="44.72852328705386" lon="8.007981534289566"><ele>181.0</ele><time>2026-04-04T11:16:49Z</time></trkpt><trkpt lat="44.72844160060178" lon="8.007993841243131"><ele>181.0</ele><time>2026-04-04T11:16:50Z</time></trkpt><trkpt lat="44.72835989577771" lon="8.008007666918106"><ele>181.0</ele><time>2026-04-04T11:16:51Z</time></trkpt><trkpt lat="44.72827918645221" lon="8.00802216725202"><ele>180.8</ele><time>2026-04-04T11:16:52Z</time></trkpt><trkpt lat="44.728196519328804" lon="8.008040111688931"><ele>180.60000000000002</ele><time>2026-04-04T11:16:53Z</time></trkpt><trkpt lat="44.72810678019951" lon="8.008055962618803"><ele>180.4</ele><time>2026-04-04T11:16:54Z</time></trkpt><trkpt lat="44.72801169262554" lon="8.008072202351443"><ele>180.2</ele><time>2026-04-04T11:16:55Z</time></trkpt><trkpt lat="44.72791567070115" lon="8.008096192029209"><ele>180.0</ele><time>2026-04-04T11:16:56Z</time></trkpt><trkpt lat="44.72781630723612" lon="8.008123140203887"><ele>179.8</ele><time>2026-04-04T11:16:57Z</time></trkpt><trkpt lat="44.72771191702829" lon="8.008147388571821"><ele>179.6</ele><time>2026-04-04T11:16:58Z</time></trkpt><trkpt lat="44.727611062204" lon="8.00816644922352"><ele>179.39999999999998</ele><time>2026-04-04T11:16:59Z</time></trkpt><trkpt lat="44.72750402377641" lon="8.008190424896812"><ele>179.2</ele><time>2026-04-04T11:17:00Z</time></trkpt><trkpt lat="44.7274040690237" lon="8.008208317352487"><ele>179.0</ele><time>2026-04-04T11:17:01Z</time></trkpt><trkpt lat="44.72729942441388" lon="8.008236919821995"><ele>179.0</ele><time>2026-04-04T11:17:02Z</time></trkpt><trkpt lat="44.72719215093921" lon="8.008264522797555"><ele>179.0</ele><time>2026-04-04T11:17:03Z</time></trkpt><trkpt lat="44.72708003246009" lon="8.008287740644118"><ele>179.0</ele><time>2026-04-04T11:17:04Z</time></trkpt><trkpt lat="44.72696682208471" lon="8.008311218393187"><ele>179.0</ele><time>2026-04-04T11:17:05Z</time></trkpt><trkpt lat="44.72685084212932" lon="8.008333936563723"><ele>178.75</ele><time>2026-04-04T11:17:05.999Z</time></trkpt><trkpt lat="44.72672828985744" lon="8.008356594695726"><ele>178.5</ele><time>2026-04-04T11:17:06.999Z</time></trkpt><trkpt lat="44.726604141548066" lon="8.008381897655545"><ele>178.25</ele><time>2026-04-04T11:17:07.999Z</time></trkpt><trkpt lat="44.726473762396495" lon="8.008410994868097"><ele>178.0</ele><time>2026-04-04T11:17:08.999Z</time></trkpt><trkpt lat="44.72634182138837" lon="8.008442090348916"><ele>178.0</ele><time>2026-04-04T11:17:09.999Z</time></trkpt><trkpt lat="44.72620584801022" lon="8.008475751031991"><ele>178.0</ele><time>2026-04-04T11:17:10.999Z</time></trkpt><trkpt lat="44.72606346388557" lon="8.008508777321456"><ele>178.0</ele><time>2026-04-04T11:17:11.999Z</time></trkpt><trkpt lat="44.72591392755782" lon="8.008540940622995"><ele>178.0</ele><time>2026-04-04T11:17:12.999Z</time></trkpt><trkpt lat="44.72575188481537" lon="8.008567996387644"><ele>178.66666666666669</ele><time>2026-04-04T11:17:13.999Z</time></trkpt><trkpt lat="44.72559161947991" lon="8.008587495812995"><ele>179.33333333333334</ele><time>2026-04-04T11:17:14.999Z</time></trkpt><trkpt lat="44.72541925683094" lon="8.008624750352752"><ele>180.0</ele><time>2026-04-04T11:17:15.999Z</time></trkpt><trkpt lat="44.725259243601705" lon="8.008664707879403"><ele>180.33333333333334</ele><time>2026-04-04T11:17:16.999Z</time></trkpt><trkpt lat="44.72509650463606" lon="8.00868226701112"><ele>180.66666666666669</ele><time>2026-04-04T11:17:17.999Z</time></trkpt><trkpt lat="44.72495148071737" lon="8.008723546941393"><ele>181.0</ele><time>2026-04-04T11:17:18.999Z</time></trkpt><trkpt lat="44.724809217624475" lon="8.00875500233615"><ele>181.0</ele><time>2026-04-04T11:17:19.999Z</time></trkpt><trkpt lat="44.72466647635763" lon="8.008789253633294"><ele>181.0</ele><time>2026-04-04T11:17:20.999Z</time></trkpt><trkpt lat="44.724524543958836" lon="8.008825723570775"><ele>181.0</ele><time>2026-04-04T11:17:21.999Z</time></trkpt><trkpt lat="44.72438180707961" lon="8.008856021771592"><ele>181.0</ele><time>2026-04-04T11:17:22.999Z</time></trkpt><trkpt lat="44.72424066155803" lon="8.008883333660615"><ele>181.0</ele><time>2026-04-04T11:17:23.999Z</time></trkpt><trkpt lat="44.7241035330636" lon="8.008911580889146"><ele>181.0</ele><time>2026-04-04T11:17:24.999Z</time></trkpt><trkpt lat="44.72396276443076" lon="8.008944961693446"><ele>181.0</ele><time>2026-04-04T11:17:25.999Z</time></trkpt><trkpt lat="44.72381961895841" lon="8.008975540791237"><ele>181.0</ele><time>2026-04-04T11:17:26.999Z</time></trkpt><trkpt lat="44.723664603066126" lon="8.00903959827188"><ele>182.0</ele><time>2026-04-04T11:17:27.999Z</time></trkpt><trkpt lat="44.72353168818598" lon="8.009047693377385"><ele>183.0</ele><time>2026-04-04T11:17:28.999Z</time></trkpt><trkpt lat="44.723374795338124" lon="8.009082147325206"><ele>184.0</ele><time>2026-04-04T11:17:29.999Z</time></trkpt><trkpt lat="44.72322041696437" lon="8.009115288018734"><ele>185.0</ele><time>2026-04-04T11:17:30.999Z</time></trkpt><trkpt lat="44.7230642213123" lon="8.009148610099345"><ele>182.75</ele><time>2026-04-04T11:17:31.999Z</time></trkpt><trkpt lat="44.72291602752117" lon="8.009172554223184"><ele>180.5</ele><time>2026-04-04T11:17:32.999Z</time></trkpt><trkpt lat="44.722775663737174" lon="8.0092062010692"><ele>178.25</ele><time>2026-04-04T11:17:33.999Z</time></trkpt><trkpt lat="44.722639726395045" lon="8.009236801609694"><ele>176.0</ele><time>2026-04-04T11:17:34.999Z</time></trkpt><trkpt lat="44.72250982683398" lon="8.009267218236882"><ele>176.0</ele><time>2026-04-04T11:17:35.999Z</time></trkpt><trkpt lat="44.72238367118047" lon="8.009305334563008"><ele>176.0</ele><time>2026-04-04T11:17:36.999Z</time></trkpt><trkpt lat="44.72225089506207" lon="8.009333198874028"><ele>176.0</ele><time>2026-04-04T11:17:37.999Z</time></trkpt><trkpt lat="44.722113324716275" lon="8.00936239746362"><ele>176.0</ele><time>2026-04-04T11:17:38.999Z</time></trkpt><trkpt lat="44.721978447544124" lon="8.009391647552295"><ele>175.8</ele><time>2026-04-04T11:17:39.999Z</time></trkpt><trkpt lat="44.7218482639992" lon="8.009416641947256"><ele>175.60000000000002</ele><time>2026-04-04T11:17:40.999Z</time></trkpt><trkpt lat="44.721731540260166" lon="8.009439724097358"><ele>175.4</ele><time>2026-04-04T11:17:41.999Z</time></trkpt><trkpt lat="44.72161825385295" lon="8.009468517098258"><ele>175.2</ele><time>2026-04-04T11:17:42.999Z</time></trkpt><trkpt lat="44.72153675924669" lon="8.009480120621127"><ele>175.0</ele><time>2026-04-04T11:17:43.999Z</time></trkpt><trkpt lat="44.72145171775282" lon="8.009518587793474"><ele>175.0</ele><time>2026-04-04T11:17:44.999Z</time></trkpt><trkpt lat="44.7213606557496" lon="8.00945133107169"><ele>175.0</ele><time>2026-04-04T11:17:46.999Z</time></trkpt><trkpt lat="44.72126592941931" lon="8.009318242921367"><ele>175.0</ele><time>2026-04-04T11:17:48.999Z</time></trkpt><trkpt lat="44.7211988335068" lon="8.009279089662323"><ele>175.0</ele><time>2026-04-04T11:17:49.999Z</time></trkpt><trkpt lat="44.721117258483666" lon="8.009308520525005"><ele>175.0</ele><time>2026-04-04T11:17:50.999Z</time></trkpt><trkpt lat="44.72105299240851" lon="8.00937706680168"><ele>174.6</ele><time>2026-04-04T11:17:51.999Z</time></trkpt><trkpt lat="44.721013250526916" lon="8.009474510717299"><ele>174.2</ele><time>2026-04-04T11:17:52.999Z</time></trkpt><trkpt lat="44.72098656413196" lon="8.009565977615983"><ele>173.8</ele><time>2026-04-04T11:17:53.999Z</time></trkpt><trkpt lat="44.72084659209598" lon="8.009633911931669"><ele>173.4</ele><time>2026-04-04T11:17:55.999Z</time></trkpt><trkpt lat="44.72074912674035" lon="8.009677520742885"><ele>173.0</ele><time>2026-04-04T11:17:56.999Z</time></trkpt><trkpt lat="44.72064251680595" lon="8.009692147922532"><ele>173.0</ele><time>2026-04-04T11:17:57.999Z</time></trkpt><trkpt lat="44.72052711492428" lon="8.009720434135465"><ele>173.0</ele><time>2026-04-04T11:17:58.999Z</time></trkpt><trkpt lat="44.72040920257578" lon="8.009746807159047"><ele>173.0</ele><time>2026-04-04T11:17:59.999Z</time></trkpt><trkpt lat="44.72028349940199" lon="8.00977613593394"><ele>173.0</ele><time>2026-04-04T11:18:00.999Z</time></trkpt><trkpt lat="44.72015875267341" lon="8.009801491432787"><ele>172.75</ele><time>2026-04-04T11:18:01.999Z</time></trkpt><trkpt lat="44.72002752461133" lon="8.009831988612302"><ele>172.5</ele><time>2026-04-04T11:18:02.999Z</time></trkpt><trkpt lat="44.7198881559268" lon="8.009862626387596"><ele>172.25</ele><time>2026-04-04T11:18:03.999Z</time></trkpt><trkpt lat="44.719738590053936" lon="8.009893938866362"><ele>172.0</ele><time>2026-04-04T11:18:04.999Z</time></trkpt><trkpt lat="44.719574630858055" lon="8.009925616165384"><ele>172.0</ele><time>2026-04-04T11:18:05.999Z</time></trkpt><trkpt lat="44.71940829121366" lon="8.009955657171275"><ele>172.0</ele><time>2026-04-04T11:18:06.999Z</time></trkpt><trkpt lat="44.719244067383265" lon="8.009996771337672"><ele>172.0</ele><time>2026-04-04T11:18:07.999Z</time></trkpt><trkpt lat="44.71907593139058" lon="8.010032671135347"><ele>172.0</ele><time>2026-04-04T11:18:08.999Z</time></trkpt><trkpt lat="44.71891235614261" lon="8.010070213755395"><ele>172.0</ele><time>2026-04-04T11:18:09.999Z</time></trkpt><trkpt lat="44.71873996899043" lon="8.01010940383361"><ele>172.0</ele><time>2026-04-04T11:18:10.999Z</time></trkpt><trkpt lat="44.71856949357871" lon="8.010147110398245"><ele>171.75</ele><time>2026-04-04T11:18:11.999Z</time></trkpt><trkpt lat="44.71841604232396" lon="8.010178115244136"><ele>171.5</ele><time>2026-04-04T11:18:12.999Z</time></trkpt><trkpt lat="44.71826981759241" lon="8.01021289579996"><ele>171.25</ele><time>2026-04-04T11:18:13.998Z</time></trkpt><trkpt lat="44.718140432794605" lon="8.010245860400913"><ele>171.0</ele><time>2026-04-04T11:18:14.998Z</time></trkpt><trkpt lat="44.71802616200467" lon="8.010275373586751"><ele>171.0</ele><time>2026-04-04T11:18:15.998Z</time></trkpt><trkpt lat="44.7178961160673" lon="8.0103096096697"><ele>171.0</ele><time>2026-04-04T11:18:16.998Z</time></trkpt><trkpt lat="44.717810530513525" lon="8.010322705745452"><ele>171.0</ele><time>2026-04-04T11:18:18.998Z</time></trkpt><trkpt lat="44.717692954104415" lon="8.010338266965011"><ele>171.0</ele><time>2026-04-04T11:18:20.998Z</time></trkpt><trkpt lat="44.717593050443" lon="8.010392411264572"><ele>171.0</ele><time>2026-04-04T11:18:22.998Z</time></trkpt><trkpt lat="44.717536803064434" lon="8.010454440372243"><ele>171.0</ele><time>2026-04-04T11:18:23.998Z</time></trkpt><trkpt lat="44.71746931285705" lon="8.010531158337615"><ele>171.0</ele><time>2026-04-04T11:18:24.998Z</time></trkpt><trkpt lat="44.71738831413151" lon="8.01063434792794"><ele>171.0</ele><time>2026-04-04T11:18:25.998Z</time></trkpt><trkpt lat="44.717305245079146" lon="8.010747008145612"><ele>171.0</ele><time>2026-04-04T11:18:26.998Z</time></trkpt><trkpt lat="44.71721051905042" lon="8.010870015823478"><ele>171.0</ele><time>2026-04-04T11:18:27.998Z</time></trkpt><trkpt lat="44.71711011454339" lon="8.011003644959276"><ele>171.0</ele><time>2026-04-04T11:18:28.998Z</time></trkpt><trkpt lat="44.71700540119983" lon="8.011150741779849"><ele>171.0</ele><time>2026-04-04T11:18:29.998Z</time></trkpt><trkpt lat="44.71689767013046" lon="8.011309139628885"><ele>171.0</ele><time>2026-04-04T11:18:30.998Z</time></trkpt><trkpt lat="44.71678008281124" lon="8.011475949455921"><ele>170.66666666666666</ele><time>2026-04-04T11:18:31.998Z</time></trkpt><trkpt lat="44.71666131840727" lon="8.011649884588818"><ele>170.33333333333331</ele><time>2026-04-04T11:18:32.998Z</time></trkpt><trkpt lat="44.71653936838801" lon="8.011827362215506"><ele>170.0</ele><time>2026-04-04T11:18:33.998Z</time></trkpt><trkpt lat="44.71641117310698" lon="8.012004007328628"><ele>170.0</ele><time>2026-04-04T11:18:35Z</time></trkpt><trkpt lat="44.71629207979007" lon="8.012179200201384"><ele>170.0</ele><time>2026-04-04T11:18:36Z</time></trkpt><trkpt lat="44.716182679103994" lon="8.012339124527525"><ele>170.0</ele><time>2026-04-04T11:18:37Z</time></trkpt><trkpt lat="44.7160857667393" lon="8.012483648050353"><ele>170.0</ele><time>2026-04-04T11:18:38Z</time></trkpt><trkpt lat="44.71599562270151" lon="8.012615356742174"><ele>170.0</ele><time>2026-04-04T11:18:39Z</time></trkpt><trkpt lat="44.71590932666533" lon="8.012743721353367"><ele>170.0</ele><time>2026-04-04T11:18:40Z</time></trkpt><trkpt lat="44.715811577667374" lon="8.012856864537142"><ele>170.0</ele><time>2026-04-04T11:18:41Z</time></trkpt><trkpt lat="44.71574012568351" lon="8.012986233527919"><ele>170.0</ele><time>2026-04-04T11:18:42Z</time></trkpt><trkpt lat="44.715646871629986" lon="8.013078012035082"><ele>170.0</ele><time>2026-04-04T11:18:43Z</time></trkpt><trkpt lat="44.715578907772034" lon="8.013183508924692"><ele>170.0</ele><time>2026-04-04T11:18:44Z</time></trkpt><trkpt lat="44.715497433892075" lon="8.013270624121267"><ele>170.0</ele><time>2026-04-04T11:18:45Z</time></trkpt><trkpt lat="44.7154044072783" lon="8.01334941133521"><ele>170.0</ele><time>2026-04-04T11:18:46Z</time></trkpt><trkpt lat="44.71531559028455" lon="8.013415467931958"><ele>170.0</ele><time>2026-04-04T11:18:47Z</time></trkpt><trkpt lat="44.715231702951094" lon="8.01347054982656"><ele>170.0</ele><time>2026-04-04T11:18:48Z</time></trkpt><trkpt lat="44.715151979337" lon="8.013509756166172"><ele>170.0</ele><time>2026-04-04T11:18:49Z</time></trkpt><trkpt lat="44.71507378322604" lon="8.013536393427149"><ele>170.0</ele><time>2026-04-04T11:18:50Z</time></trkpt><trkpt lat="44.715003728980044" lon="8.01355987872447"><ele>170.0</ele><time>2026-04-04T11:18:51Z</time></trkpt><trkpt lat="44.71494893055212" lon="8.013607995218566"><ele>170.0</ele><time>2026-04-04T11:18:52Z</time></trkpt><trkpt lat="44.71490099653894" lon="8.013749099640387"><ele>170.0</ele><time>2026-04-04T11:18:54Z</time></trkpt><trkpt lat="44.714918913092596" lon="8.013912200877803"><ele>170.0</ele><time>2026-04-04T11:18:56Z</time></trkpt><trkpt lat="44.71492820689573" lon="8.014008122639353"><ele>170.0</ele><time>2026-04-04T11:18:57Z</time></trkpt><trkpt lat="44.71491898885513" lon="8.0141216357992"><ele>170.0</ele><time>2026-04-04T11:18:58Z</time></trkpt><trkpt lat="44.714891831915146" lon="8.014232494402496"><ele>170.0</ele><time>2026-04-04T11:18:59Z</time></trkpt><trkpt lat="44.714844883319664" lon="8.014329872195287"><ele>170.0</ele><time>2026-04-04T11:19:00Z</time></trkpt><trkpt lat="44.714778482429395" lon="8.014414727715693"><ele>170.0</ele><time>2026-04-04T11:19:01Z</time></trkpt><trkpt lat="44.714699239417754" lon="8.014505295415121"><ele>170.0</ele><time>2026-04-04T11:19:02Z</time></trkpt><trkpt lat="44.71462275551965" lon="8.01459323015788"><ele>170.0</ele><time>2026-04-04T11:19:03Z</time></trkpt><trkpt lat="44.71456081411672" lon="8.014681942796972"><ele>170.0</ele><time>2026-04-04T11:19:04Z</time></trkpt><trkpt lat="44.71450195691459" lon="8.014770070095524"><ele>170.0</ele><time>2026-04-04T11:19:05Z</time></trkpt><trkpt lat="44.71443924570818" lon="8.014860357630896"><ele>169.83333333333331</ele><time>2026-04-04T11:19:06Z</time></trkpt><trkpt lat="44.71437743966939" lon="8.01495629231727"><ele>169.66666666666666</ele><time>2026-04-04T11:19:07Z</time></trkpt><trkpt lat="44.714316695493046" lon="8.015054863360985"><ele>169.5</ele><time>2026-04-04T11:19:08Z</time></trkpt><trkpt lat="44.714262731519405" lon="8.015147449267387"><ele>169.33333333333334</ele><time>2026-04-04T11:19:09Z</time></trkpt><trkpt lat="44.71420957411445" lon="8.015235779268135"><ele>169.16666666666669</ele><time>2026-04-04T11:19:10Z</time></trkpt><trkpt lat="44.71415876058376" lon="8.015324602303085"><ele>169.0</ele><time>2026-04-04T11:19:11Z</time></trkpt><trkpt lat="44.71410822430004" lon="8.015411202195816"><ele>169.0</ele><time>2026-04-04T11:19:12Z</time></trkpt><trkpt lat="44.7140502490624" lon="8.015493502800918"><ele>169.0</ele><time>2026-04-04T11:19:13Z</time></trkpt><trkpt lat="44.71398599257143" lon="8.015570675443652"><ele>169.0</ele><time>2026-04-04T11:19:14Z</time></trkpt><trkpt lat="44.71391691389717" lon="8.015636327696997"><ele>169.0</ele><time>2026-04-04T11:19:15Z</time></trkpt><trkpt lat="44.713851009761385" lon="8.015713962466544"><ele>169.0</ele><time>2026-04-04T11:19:16Z</time></trkpt><trkpt lat="44.71378452848223" lon="8.015803683562819"><ele>169.0</ele><time>2026-04-04T11:19:17Z</time></trkpt><trkpt lat="44.71371997518121" lon="8.015903240906812"><ele>169.0</ele><time>2026-04-04T11:19:18Z</time></trkpt><trkpt lat="44.71365731264476" lon="8.01600359400409"><ele>169.0</ele><time>2026-04-04T11:19:18.999Z</time></trkpt><trkpt lat="44.713596711855864" lon="8.01609583836369"><ele>169.0</ele><time>2026-04-04T11:19:19.999Z</time></trkpt><trkpt lat="44.71354039416058" lon="8.01617423666131"><ele>169.0</ele><time>2026-04-04T11:19:20.999Z</time></trkpt><trkpt lat="44.71348452279507" lon="8.016248146771092"><ele>169.0</ele><time>2026-04-04T11:19:21.999Z</time></trkpt><trkpt lat="44.713436955442894" lon="8.016319990852814"><ele>169.0</ele><time>2026-04-04T11:19:22.999Z</time></trkpt><trkpt lat="44.713388627286825" lon="8.01639276743449"><ele>169.0</ele><time>2026-04-04T11:19:23.999Z</time></trkpt><trkpt lat="44.71333608204255" lon="8.01646662592813"><ele>169.0</ele><time>2026-04-04T11:19:24.999Z</time></trkpt><trkpt lat="44.713280532028215" lon="8.016532547817501"><ele>169.0</ele><time>2026-04-04T11:19:25.999Z</time></trkpt><trkpt lat="44.71321276109066" lon="8.016606951295998"><ele>169.0</ele><time>2026-04-04T11:19:27.999Z</time></trkpt><trkpt lat="44.71314651309551" lon="8.016643643336774"><ele>169.0</ele><time>2026-04-04T11:19:30.999Z</time></trkpt><trkpt lat="44.71307033303763" lon="8.016674176955167"><ele>169.0</ele><time>2026-04-04T11:19:32.999Z</time></trkpt><trkpt lat="44.7130257117248" lon="8.01679943422138"><ele>168.79999999999998</ele><time>2026-04-04T11:19:34.999Z</time></trkpt><trkpt lat="44.7129952320947" lon="8.016878941420567"><ele>168.6</ele><time>2026-04-04T11:19:35.999Z</time></trkpt><trkpt lat="44.712949183032876" lon="8.017047225676526"><ele>168.4</ele><time>2026-04-04T11:19:37.999Z</time></trkpt><trkpt lat="44.71290438976323" lon="8.017143655907786"><ele>168.2</ele><time>2026-04-04T11:19:38.999Z</time></trkpt><trkpt lat="44.71285689442601" lon="8.01724774387514"><ele>168.0</ele><time>2026-04-04T11:19:39.999Z</time></trkpt><trkpt lat="44.71280661451735" lon="8.017370663453683"><ele>168.0</ele><time>2026-04-04T11:19:40.999Z</time></trkpt><trkpt lat="44.712759769106476" lon="8.017488215123354"><ele>168.0</ele><time>2026-04-04T11:19:41.999Z</time></trkpt><trkpt lat="44.71271031861125" lon="8.017605572530954"><ele>168.0</ele><time>2026-04-04T11:19:42.999Z</time></trkpt><trkpt lat="44.712661189146715" lon="8.017722383194396"><ele>168.0</ele><time>2026-04-04T11:19:43.999Z</time></trkpt><trkpt lat="44.712608123567485" lon="8.017841794433453"><ele>168.0</ele><time>2026-04-04T11:19:44.999Z</time></trkpt><trkpt lat="44.71255647978197" lon="8.01796014558015"><ele>168.0</ele><time>2026-04-04T11:19:45.999Z</time></trkpt><trkpt lat="44.71250337027966" lon="8.018083113731638"><ele>168.0</ele><time>2026-04-04T11:19:46.999Z</time></trkpt><trkpt lat="44.71245000001986" lon="8.018200086699498"><ele>168.0</ele><time>2026-04-04T11:19:47.999Z</time></trkpt><trkpt lat="44.71240397792667" lon="8.018315490456551"><ele>168.0</ele><time>2026-04-04T11:19:48.999Z</time></trkpt><trkpt lat="44.71235153266751" lon="8.01844036104767"><ele>168.0</ele><time>2026-04-04T11:19:49.999Z</time></trkpt><trkpt lat="44.7122993423504" lon="8.018570488597863"><ele>168.0</ele><time>2026-04-04T11:19:50.999Z</time></trkpt><trkpt lat="44.71224906493611" lon="8.018708570915853"><ele>168.0</ele><time>2026-04-04T11:19:51.999Z</time></trkpt><trkpt lat="44.712196672195184" lon="8.018845544935802"><ele>168.0</ele><time>2026-04-04T11:19:52.999Z</time></trkpt><trkpt lat="44.712143649998055" lon="8.018970378567264"><ele>168.0</ele><time>2026-04-04T11:19:53.999Z</time></trkpt><trkpt lat="44.71207664996511" lon="8.01911785687381"><ele>168.0</ele><time>2026-04-04T11:19:54.999Z</time></trkpt><trkpt lat="44.71201080843671" lon="8.019241726509962"><ele>167.75</ele><time>2026-04-04T11:19:55.999Z</time></trkpt><trkpt lat="44.71195253282925" lon="8.019386934999137"><ele>167.5</ele><time>2026-04-04T11:19:56.999Z</time></trkpt><trkpt lat="44.71190009065853" lon="8.019527028109989"><ele>167.25</ele><time>2026-04-04T11:19:57.999Z</time></trkpt><trkpt lat="44.711841260567496" lon="8.019673245767597"><ele>167.0</ele><time>2026-04-04T11:19:58.999Z</time></trkpt><trkpt lat="44.71177459865638" lon="8.01981470174796"><ele>167.0</ele><time>2026-04-04T11:19:59.999Z</time></trkpt><trkpt lat="44.71171598300852" lon="8.019952378626682"><ele>167.0</ele><time>2026-04-04T11:20:00.999Z</time></trkpt><trkpt lat="44.711651429968725" lon="8.02009079906706"><ele>167.0</ele><time>2026-04-04T11:20:01.999Z</time></trkpt><trkpt lat="44.71159772254049" lon="8.020226301114983"><ele>167.0</ele><time>2026-04-04T11:20:02.999Z</time></trkpt><trkpt lat="44.711548666878286" lon="8.020346972758375"><ele>167.0</ele><time>2026-04-04T11:20:03.999Z</time></trkpt><trkpt lat="44.71149045391708" lon="8.020498380873983"><ele>167.0</ele><time>2026-04-04T11:20:04.999Z</time></trkpt><trkpt lat="44.71143537840993" lon="8.020632667003962"><ele>167.0</ele><time>2026-04-04T11:20:05.999Z</time></trkpt><trkpt lat="44.71136222335589" lon="8.020757542797348"><ele>167.0</ele><time>2026-04-04T11:20:06.999Z</time></trkpt><trkpt lat="44.71132347764442" lon="8.020896279528056"><ele>167.0</ele><time>2026-04-04T11:20:07.999Z</time></trkpt><trkpt lat="44.711263770226104" lon="8.021030527072822"><ele>167.0</ele><time>2026-04-04T11:20:08.999Z</time></trkpt><trkpt lat="44.71121105503868" lon="8.021168868353449"><ele>167.0</ele><time>2026-04-04T11:20:09.999Z</time></trkpt><trkpt lat="44.71115507137" lon="8.021307137798715"><ele>167.0</ele><time>2026-04-04T11:20:10.999Z</time></trkpt><trkpt lat="44.711089736863045" lon="8.021442381259561"><ele>167.0</ele><time>2026-04-04T11:20:11.999Z</time></trkpt><trkpt lat="44.711025307624006" lon="8.021584744945468"><ele>167.0</ele><time>2026-04-04T11:20:12.999Z</time></trkpt><trkpt lat="44.71096537835313" lon="8.021733089203767"><ele>167.0</ele><time>2026-04-04T11:20:13.999Z</time></trkpt><trkpt lat="44.710899452302044" lon="8.021879930819571"><ele>167.0</ele><time>2026-04-04T11:20:14.999Z</time></trkpt><trkpt lat="44.71084258984345" lon="8.022017703040957"><ele>167.0</ele><time>2026-04-04T11:20:15.999Z</time></trkpt><trkpt lat="44.71078518502758" lon="8.022140372795029"><ele>167.0</ele><time>2026-04-04T11:20:16.999Z</time></trkpt><trkpt lat="44.71073212786638" lon="8.022278153981507"><ele>167.0</ele><time>2026-04-04T11:20:17.999Z</time></trkpt><trkpt lat="44.71068520867403" lon="8.022394112277079"><ele>167.0</ele><time>2026-04-04T11:20:18.999Z</time></trkpt><trkpt lat="44.710629192406095" lon="8.022532497195009"><ele>167.0</ele><time>2026-04-04T11:20:19.999Z</time></trkpt><trkpt lat="44.71057202454372" lon="8.022658407358849"><ele>167.0</ele><time>2026-04-04T11:20:20.999Z</time></trkpt><trkpt lat="44.710518864699566" lon="8.022778534384315"><ele>167.0</ele><time>2026-04-04T11:20:21.999Z</time></trkpt><trkpt lat="44.71046551985574" lon="8.022897078496214"><ele>167.0</ele><time>2026-04-04T11:20:22.999Z</time></trkpt><trkpt lat="44.71042175857198" lon="8.022993819021702"><ele>167.0</ele><time>2026-04-04T11:20:23.999Z</time></trkpt><trkpt lat="44.710377898473986" lon="8.023116488426956"><ele>167.0</ele><time>2026-04-04T11:20:24.999Z</time></trkpt><trkpt lat="44.71032953554025" lon="8.023240745136164"><ele>167.0</ele><time>2026-04-04T11:20:25.999Z</time></trkpt><trkpt lat="44.710276633076816" lon="8.02334782022556"><ele>167.0</ele><time>2026-04-04T11:20:26.999Z</time></trkpt><trkpt lat="44.71023029031778" lon="8.023462548980437"><ele>166.8</ele><time>2026-04-04T11:20:27.998Z</time></trkpt><trkpt lat="44.71018801609984" lon="8.02358746897079"><ele>166.6</ele><time>2026-04-04T11:20:28.998Z</time></trkpt><trkpt lat="44.71013345844833" lon="8.023681658914954"><ele>166.4</ele><time>2026-04-04T11:20:29.998Z</time></trkpt><trkpt lat="44.71009510342347" lon="8.023802239917991"><ele>166.20000000000002</ele><time>2026-04-04T11:20:30.998Z</time></trkpt><trkpt lat="44.71004265752238" lon="8.023919471525696"><ele>166.0</ele><time>2026-04-04T11:20:31.998Z</time></trkpt><trkpt lat="44.70999323411394" lon="8.024030282664947"><ele>166.0</ele><time>2026-04-04T11:20:32.998Z</time></trkpt><trkpt lat="44.70994403145751" lon="8.024145697169144"><ele>166.0</ele><time>2026-04-04T11:20:33.998Z</time></trkpt><trkpt lat="44.70989956604829" lon="8.024264314029733"><ele>166.0</ele><time>2026-04-04T11:20:34.998Z</time></trkpt><trkpt lat="44.709851789712445" lon="8.024381235012752"><ele>166.0</ele><time>2026-04-04T11:20:35.998Z</time></trkpt><trkpt lat="44.70980396500091" lon="8.024496747304998"><ele>166.0</ele><time>2026-04-04T11:20:36.998Z</time></trkpt><trkpt lat="44.709759126272296" lon="8.024607720576261"><ele>166.0</ele><time>2026-04-04T11:20:37.998Z</time></trkpt><trkpt lat="44.70971224134003" lon="8.024718926243658"><ele>166.0</ele><time>2026-04-04T11:20:38.998Z</time></trkpt><trkpt lat="44.70966399864439" lon="8.024829574955874"><ele>166.0</ele><time>2026-04-04T11:20:39.998Z</time></trkpt><trkpt lat="44.70961925334275" lon="8.024939244409797"><ele>166.0</ele><time>2026-04-04T11:20:41Z</time></trkpt><trkpt lat="44.70957611268267" lon="8.025041396694911"><ele>166.0</ele><time>2026-04-04T11:20:42Z</time></trkpt><trkpt lat="44.709535500804975" lon="8.025130781257907"><ele>166.0</ele><time>2026-04-04T11:20:43Z</time></trkpt><trkpt lat="44.709499610226224" lon="8.025211982789784"><ele>166.0</ele><time>2026-04-04T11:20:44Z</time></trkpt><trkpt lat="44.70946586623942" lon="8.025290485526398"><ele>166.0</ele><time>2026-04-04T11:20:45Z</time></trkpt><trkpt lat="44.70942680125279" lon="8.025380773703606"><ele>166.0</ele><time>2026-04-04T11:20:46Z</time></trkpt><trkpt lat="44.709383134884845" lon="8.025481227475172"><ele>166.0</ele><time>2026-04-04T11:20:47Z</time></trkpt><trkpt lat="44.70934222410119" lon="8.025581288233795"><ele>166.0</ele><time>2026-04-04T11:20:48Z</time></trkpt><trkpt lat="44.70930554764274" lon="8.025671970804824"><ele>166.0</ele><time>2026-04-04T11:20:49Z</time></trkpt><trkpt lat="44.70927154685374" lon="8.025750539713638"><ele>166.0</ele><time>2026-04-04T11:20:50Z</time></trkpt><trkpt lat="44.709239797065656" lon="8.025872858177188"><ele>166.16666666666669</ele><time>2026-04-04T11:20:52Z</time></trkpt><trkpt lat="44.7092602610745" lon="8.026011819182612"><ele>166.33333333333334</ele><time>2026-04-04T11:20:54Z</time></trkpt><trkpt lat="44.70926638492908" lon="8.026142438284607"><ele>166.5</ele><time>2026-04-04T11:20:56Z</time></trkpt><trkpt lat="44.709223274326945" lon="8.026237271371713"><ele>166.66666666666666</ele><time>2026-04-04T11:20:58Z</time></trkpt><trkpt lat="44.709116466062106" lon="8.02627099917429"><ele>166.83333333333331</ele><time>2026-04-04T11:21:00Z</time></trkpt><trkpt lat="44.70905061749986" lon="8.026273759517021"><ele>167.0</ele><time>2026-04-04T11:21:01Z</time></trkpt><trkpt lat="44.70897992645944" lon="8.02628077382747"><ele>167.0</ele><time>2026-04-04T11:21:02Z</time></trkpt><trkpt lat="44.708903857341795" lon="8.02629590962108"><ele>167.0</ele><time>2026-04-04T11:21:03Z</time></trkpt><trkpt lat="44.70882656623885" lon="8.026326845998913"><ele>167.0</ele><time>2026-04-04T11:21:04Z</time></trkpt><trkpt lat="44.70874880296318" lon="8.026366543740751"><ele>167.0</ele><time>2026-04-04T11:21:05Z</time></trkpt><trkpt lat="44.70867082102443" lon="8.026405553229582"><ele>167.0</ele><time>2026-04-04T11:21:06Z</time></trkpt><trkpt lat="44.708592691205006" lon="8.026451022609269"><ele>167.0</ele><time>2026-04-04T11:21:07Z</time></trkpt><trkpt lat="44.708508938703496" lon="8.02648938303648"><ele>166.6</ele><time>2026-04-04T11:21:08Z</time></trkpt><trkpt lat="44.70842140067277" lon="8.02652679993892"><ele>166.2</ele><time>2026-04-04T11:21:09Z</time></trkpt><trkpt lat="44.708321755977494" lon="8.026559699825135"><ele>165.8</ele><time>2026-04-04T11:21:10Z</time></trkpt><trkpt lat="44.70821415271856" lon="8.026597333477978"><ele>165.4</ele><time>2026-04-04T11:21:11Z</time></trkpt><trkpt lat="44.70809401004184" lon="8.026633610811702"><ele>165.0</ele><time>2026-04-04T11:21:12Z</time></trkpt><trkpt lat="44.70796867341471" lon="8.026672495836396"><ele>165.0</ele><time>2026-04-04T11:21:13Z</time></trkpt><trkpt lat="44.70784734448952" lon="8.026710172600406"><ele>165.0</ele><time>2026-04-04T11:21:14Z</time></trkpt><trkpt lat="44.707715390346024" lon="8.02674687896682"><ele>165.0</ele><time>2026-04-04T11:21:15Z</time></trkpt><trkpt lat="44.70757698243604" lon="8.026781107916412"><ele>165.0</ele><time>2026-04-04T11:21:16Z</time></trkpt><trkpt lat="44.7074295492293" lon="8.026818333293177"><ele>165.0</ele><time>2026-04-04T11:21:17Z</time></trkpt><trkpt lat="44.70728112972156" lon="8.026866410426816"><ele>165.0</ele><time>2026-04-04T11:21:17.999Z</time></trkpt><trkpt lat="44.70712149398346" lon="8.026910590118202"><ele>165.0</ele><time>2026-04-04T11:21:18.999Z</time></trkpt><trkpt lat="44.706958304778055" lon="8.026955270913255"><ele>165.0</ele><time>2026-04-04T11:21:19.999Z</time></trkpt><trkpt lat="44.7067891182105" lon="8.027003978769597"><ele>165.0</ele><time>2026-04-04T11:21:20.999Z</time></trkpt><trkpt lat="44.70661743775772" lon="8.027055991426202"><ele>165.0</ele><time>2026-04-04T11:21:21.999Z</time></trkpt><trkpt lat="44.70644066744115" lon="8.027105105907962"><ele>165.0</ele><time>2026-04-04T11:21:22.999Z</time></trkpt><trkpt lat="44.70627125422262" lon="8.027136608485646"><ele>165.0</ele><time>2026-04-04T11:21:23.999Z</time></trkpt><trkpt lat="44.70611027097422" lon="8.02718353524305"><ele>165.0</ele><time>2026-04-04T11:21:24.999Z</time></trkpt><trkpt lat="44.7059584526251" lon="8.027230725599138"><ele>163.75</ele><time>2026-04-04T11:21:25.999Z</time></trkpt><trkpt lat="44.705816066020816" lon="8.02726787329975"><ele>162.5</ele><time>2026-04-04T11:21:26.999Z</time></trkpt><trkpt lat="44.70568325766668" lon="8.027301204584779"><ele>161.25</ele><time>2026-04-04T11:21:27.999Z</time></trkpt><trkpt lat="44.705550749487344" lon="8.027333226107691"><ele>160.0</ele><time>2026-04-04T11:21:28.999Z</time></trkpt><trkpt lat="44.70541868845012" lon="8.027366411620868"><ele>160.0</ele><time>2026-04-04T11:21:29.999Z</time></trkpt><trkpt lat="44.70529080812313" lon="8.027400649935778"><ele>160.0</ele><time>2026-04-04T11:21:30.999Z</time></trkpt><trkpt lat="44.70516317743914" lon="8.027433130966372"><ele>160.0</ele><time>2026-04-04T11:21:31.999Z</time></trkpt><trkpt lat="44.70504207018999" lon="8.027464779491158"><ele>160.0</ele><time>2026-04-04T11:21:32.999Z</time></trkpt><trkpt lat="44.70492748126265" lon="8.027493500490747"><ele>160.6</ele><time>2026-04-04T11:21:33.999Z</time></trkpt><trkpt lat="44.704822448824686" lon="8.027521311012524"><ele>161.2</ele><time>2026-04-04T11:21:34.999Z</time></trkpt><trkpt lat="44.704725203331286" lon="8.02755761937401"><ele>161.8</ele><time>2026-04-04T11:21:35.999Z</time></trkpt><trkpt lat="44.70463428043547" lon="8.027598388496617"><ele>162.4</ele><time>2026-04-04T11:21:36.999Z</time></trkpt><trkpt lat="44.704542006733135" lon="8.027638528328636"><ele>163.0</ele><time>2026-04-04T11:21:37.999Z</time></trkpt><trkpt lat="44.70445759512607" lon="8.02768184217667"><ele>163.33333333333334</ele><time>2026-04-04T11:21:38.999Z</time></trkpt><trkpt lat="44.704376221786326" lon="8.027724465495265"><ele>163.66666666666669</ele><time>2026-04-04T11:21:39.999Z</time></trkpt><trkpt lat="44.70429813415795" lon="8.027763975705781"><ele>164.0</ele><time>2026-04-04T11:21:40.999Z</time></trkpt><trkpt lat="44.704222391135964" lon="8.027794843605388"><ele>164.33333333333334</ele><time>2026-04-04T11:21:41.999Z</time></trkpt><trkpt lat="44.70415076597906" lon="8.02782254192185"><ele>164.66666666666666</ele><time>2026-04-04T11:21:42.999Z</time></trkpt><trkpt lat="44.70408320547787" lon="8.027859064266684"><ele>165.0</ele><time>2026-04-04T11:21:43.999Z</time></trkpt><trkpt lat="44.70402559378698" lon="8.02791726417107"><ele>165.00000000000003</ele><time>2026-04-04T11:21:44.999Z</time></trkpt><trkpt lat="44.70396919645761" lon="8.02797011757346"><ele>165.0</ele><time>2026-04-04T11:21:45.999Z</time></trkpt><trkpt lat="44.703954148036345" lon="8.028079210775497"><ele>165.0</ele><time>2026-04-04T11:21:46.999Z</time></trkpt><trkpt lat="44.703948795436254" lon="8.028167594538616"><ele>165.0</ele><time>2026-04-04T11:21:47.999Z</time></trkpt><trkpt lat="44.70395748544167" lon="8.02825905225614"><ele>165.0</ele><time>2026-04-04T11:21:48.999Z</time></trkpt><trkpt lat="44.70397842955048" lon="8.028347338513973"><ele>165.00000000000003</ele><time>2026-04-04T11:21:49.999Z</time></trkpt><trkpt lat="44.70400308425323" lon="8.028439600842054"><ele>165.0</ele><time>2026-04-04T11:21:50.999Z</time></trkpt><trkpt lat="44.70402718613696" lon="8.028540026069962"><ele>165.6</ele><time>2026-04-04T11:21:51.999Z</time></trkpt><trkpt lat="44.70404547995089" lon="8.028644831762419"><ele>166.2</ele><time>2026-04-04T11:21:52.999Z</time></trkpt><trkpt lat="44.7040214065578" lon="8.028764266305991"><ele>166.8</ele><time>2026-04-04T11:21:53.999Z</time></trkpt><trkpt lat="44.70401772555921" lon="8.028883721665792"><ele>167.4</ele><time>2026-04-04T11:21:54.999Z</time></trkpt><trkpt lat="44.70401381306198" lon="8.028994502925032"><ele>168.0</ele><time>2026-04-04T11:21:55.999Z</time></trkpt><trkpt lat="44.703904019413194" lon="8.029108541441783"><ele>168.2</ele><time>2026-04-04T11:21:56.999Z</time></trkpt><trkpt lat="44.70384403845668" lon="8.029220138790967"><ele>168.4</ele><time>2026-04-04T11:21:57.999Z</time></trkpt><trkpt lat="44.70378620843441" lon="8.029342927723585"><ele>168.6</ele><time>2026-04-04T11:21:58.999Z</time></trkpt><trkpt lat="44.70372494125363" lon="8.029465041818566"><ele>168.79999999999998</ele><time>2026-04-04T11:21:59.999Z</time></trkpt><trkpt lat="44.70366887393862" lon="8.029582875677896"><ele>169.0</ele><time>2026-04-04T11:22:00.999Z</time></trkpt><trkpt lat="44.703609265540905" lon="8.029704255906577"><ele>168.79999999999998</ele><time>2026-04-04T11:22:01.999Z</time></trkpt><trkpt lat="44.703547772566885" lon="8.029821692147458"><ele>168.6</ele><time>2026-04-04T11:22:02.999Z</time></trkpt><trkpt lat="44.703490126450085" lon="8.029941017405298"><ele>168.4</ele><time>2026-04-04T11:22:03.999Z</time></trkpt><trkpt lat="44.70343228474832" lon="8.030063304482342"><ele>168.2</ele><time>2026-04-04T11:22:04.999Z</time></trkpt><trkpt lat="44.703367500512925" lon="8.030176799962652"><ele>168.0</ele><time>2026-04-04T11:22:05.999Z</time></trkpt><trkpt lat="44.70330714225374" lon="8.030301584643698"><ele>168.0</ele><time>2026-04-04T11:22:06.999Z</time></trkpt><trkpt lat="44.70324768583341" lon="8.030421090318006"><ele>168.0</ele><time>2026-04-04T11:22:07.999Z</time></trkpt><trkpt lat="44.70319166225966" lon="8.030542952051574"><ele>168.0</ele><time>2026-04-04T11:22:08.999Z</time></trkpt><trkpt lat="44.7031273145167" lon="8.030658968458763"><ele>168.0</ele><time>2026-04-04T11:22:09.999Z</time></trkpt><trkpt lat="44.70306728982707" lon="8.030780264583298"><ele>168.0</ele><time>2026-04-04T11:22:10.999Z</time></trkpt><trkpt lat="44.70301440388172" lon="8.030896704324311"><ele>168.0</ele><time>2026-04-04T11:22:11.999Z</time></trkpt><trkpt lat="44.70296183742399" lon="8.031007684082875"><ele>168.0</ele><time>2026-04-04T11:22:12.999Z</time></trkpt><trkpt lat="44.702902226646295" lon="8.031124605959318"><ele>168.0</ele><time>2026-04-04T11:22:13.999Z</time></trkpt><trkpt lat="44.70284049794173" lon="8.03124237007185"><ele>168.0</ele><time>2026-04-04T11:22:14.999Z</time></trkpt><trkpt lat="44.702778050181315" lon="8.031360582152509"><ele>168.0</ele><time>2026-04-04T11:22:15.999Z</time></trkpt><trkpt lat="44.70272704162303" lon="8.031475921293493"><ele>168.0</ele><time>2026-04-04T11:22:16.999Z</time></trkpt><trkpt lat="44.70267784309429" lon="8.031570481138349"><ele>168.0</ele><time>2026-04-04T11:22:17.999Z</time></trkpt><trkpt lat="44.70263645896944" lon="8.031652827374819"><ele>168.0</ele><time>2026-04-04T11:22:18.999Z</time></trkpt><trkpt lat="44.702588730943816" lon="8.031718561593477"><ele>168.0</ele><time>2026-04-04T11:22:19.999Z</time></trkpt><trkpt lat="44.70252732520122" lon="8.031848684507166"><ele>168.0</ele><time>2026-04-04T11:22:21.999Z</time></trkpt><trkpt lat="44.70248489254186" lon="8.031964222579733"><ele>168.0</ele><time>2026-04-04T11:22:23.999Z</time></trkpt><trkpt lat="44.70242847499479" lon="8.032053434792566"><ele>168.4</ele><time>2026-04-04T11:22:25.999Z</time></trkpt><trkpt lat="44.70234552409517" lon="8.032145293191512"><ele>168.8</ele><time>2026-04-04T11:22:27.999Z</time></trkpt><trkpt lat="44.702281303191164" lon="8.032234774551693"><ele>169.2</ele><time>2026-04-04T11:22:29.999Z</time></trkpt><trkpt lat="44.702344715519665" lon="8.032364994723611"><ele>169.6</ele><time>2026-04-04T11:22:31.998Z</time></trkpt><trkpt lat="44.7024454538347" lon="8.032414761834016"><ele>170.0</ele><time>2026-04-04T11:22:33.998Z</time></trkpt><trkpt lat="44.702508885916785" lon="8.032431234305431"><ele>169.5</ele><time>2026-04-04T11:22:34.998Z</time></trkpt><trkpt lat="44.70255258971351" lon="8.032545509840677"><ele>169.0</ele><time>2026-04-04T11:22:35.998Z</time></trkpt><trkpt lat="44.70261164228611" lon="8.032606949349342"><ele>168.5</ele><time>2026-04-04T11:22:36.998Z</time></trkpt><trkpt lat="44.70267090274098" lon="8.032679629880706"><ele>168.0</ele><time>2026-04-04T11:22:37.998Z</time></trkpt><trkpt lat="44.70271665424234" lon="8.032741606124002"><ele>167.5</ele><time>2026-04-04T11:22:38.998Z</time></trkpt><trkpt lat="44.70279155670576" lon="8.032814057067233"><ele>167.0</ele><time>2026-04-04T11:22:39.998Z</time></trkpt><trkpt lat="44.70286354842839" lon="8.032892040143212"><ele>166.83333333333331</ele><time>2026-04-04T11:22:40.998Z</time></trkpt><trkpt lat="44.70293832640586" lon="8.032961994291979"><ele>166.66666666666666</ele><time>2026-04-04T11:22:41.998Z</time></trkpt><trkpt lat="44.70301260517278" lon="8.033040900744313"><ele>166.5</ele><time>2026-04-04T11:22:42.998Z</time></trkpt><trkpt lat="44.70309016343475" lon="8.03311888640804"><ele>166.33333333333334</ele><time>2026-04-04T11:22:43.998Z</time></trkpt><trkpt lat="44.703153221099875" lon="8.033186781359115"><ele>166.16666666666669</ele><time>2026-04-04T11:22:44.998Z</time></trkpt><trkpt lat="44.7032106317229" lon="8.033246477254261"><ele>166.0</ele><time>2026-04-04T11:22:45.998Z</time></trkpt><trkpt lat="44.70326486498594" lon="8.033311896267188"><ele>166.0</ele><time>2026-04-04T11:22:47Z</time></trkpt><trkpt lat="44.703331766849175" lon="8.033448476232639"><ele>166.0</ele><time>2026-04-04T11:22:49Z</time></trkpt><trkpt lat="44.70334045053713" lon="8.033580206157202"><ele>166.0</ele><time>2026-04-04T11:22:51Z</time></trkpt><trkpt lat="44.70330622041557" lon="8.033704718490888"><ele>166.0</ele><time>2026-04-04T11:22:53Z</time></trkpt><trkpt lat="44.703280711119206" lon="8.033862300624422"><ele>166.0</ele><time>2026-04-04T11:22:55Z</time></trkpt><trkpt lat="44.703265716515055" lon="8.03404091980273"><ele>166.16666666666669</ele><time>2026-04-04T11:22:57Z</time></trkpt><trkpt lat="44.70325162999808" lon="8.034139089572179"><ele>166.33333333333334</ele><time>2026-04-04T11:22:58Z</time></trkpt><trkpt lat="44.703235303902474" lon="8.034236100934459"><ele>166.5</ele><time>2026-04-04T11:22:59Z</time></trkpt><trkpt lat="44.70322086517719" lon="8.034341599958296"><ele>166.66666666666666</ele><time>2026-04-04T11:23:00Z</time></trkpt><trkpt lat="44.70321468601618" lon="8.034446003696704"><ele>166.83333333333331</ele><time>2026-04-04T11:23:01Z</time></trkpt><trkpt lat="44.70319957455382" lon="8.034546829442235"><ele>167.0</ele><time>2026-04-04T11:23:02Z</time></trkpt><trkpt lat="44.70317669035724" lon="8.034692003436032"><ele>167.0</ele><time>2026-04-04T11:23:04Z</time></trkpt><trkpt lat="44.7031600534833" lon="8.034852398349482"><ele>167.0</ele><time>2026-04-04T11:23:06Z</time></trkpt><trkpt lat="44.70312255291413" lon="8.034960521132376"><ele>167.0</ele><time>2026-04-04T11:23:08Z</time></trkpt><trkpt lat="44.70311806196332" lon="8.035051278756962"><ele>167.0</ele><time>2026-04-04T11:23:10Z</time></trkpt><trkpt lat="44.703081549092175" lon="8.035169963577118"><ele>167.0</ele><time>2026-04-04T11:23:13Z</time></trkpt><trkpt lat="44.703089117788984" lon="8.035279419831149"><ele>167.0</ele><time>2026-04-04T11:23:15Z</time></trkpt><trkpt lat="44.70307345938704" lon="8.035370079914644"><ele>167.0</ele><time>2026-04-04T11:23:17Z</time></trkpt><trkpt lat="44.70306374403472" lon="8.035474086284381"><ele>167.0</ele><time>2026-04-04T11:23:19Z</time></trkpt><trkpt lat="44.702967157584325" lon="8.03560240448884"><ele>167.0</ele><time>2026-04-04T11:23:21Z</time></trkpt><trkpt lat="44.70293414019962" lon="8.035420636687283"><ele>167.0</ele><time>2026-04-04T11:23:24Z</time></trkpt><trkpt lat="44.70295534073847" lon="8.035315006796145"><ele>167.0</ele><time>2026-04-04T11:23:26Z</time></trkpt><trkpt lat="44.70297011556274" lon="8.03522085362401"><ele>167.0</ele><time>2026-04-04T11:23:27.999Z</time></trkpt><trkpt lat="44.70299861125945" lon="8.03508953011719"><ele>167.0</ele><time>2026-04-04T11:23:30.999Z</time></trkpt><trkpt lat="44.70301634861506" lon="8.034990063559167"><ele>167.0</ele><time>2026-04-04T11:23:32.999Z</time></trkpt><trkpt lat="44.70302334247532" lon="8.03486009447829"><ele>167.0</ele><time>2026-04-04T11:23:35.999Z</time></trkpt><trkpt lat="44.70296585240807" lon="8.034755402865393"><ele>167.0</ele><time>2026-04-04T11:23:38.999Z</time></trkpt><trkpt lat="44.70289690692962" lon="8.034711734111607"><ele>167.0</ele><time>2026-04-04T11:23:41.999Z</time></trkpt><trkpt lat="44.70283183741198" lon="8.034690773080433"><ele>167.0</ele><time>2026-04-04T11:23:43.999Z</time></trkpt><trkpt lat="44.7027632004894" lon="8.034659864896177"><ele>167.0</ele><time>2026-04-04T11:23:46.999Z</time></trkpt><trkpt lat="44.70270075276602" lon="8.034640778806919"><ele>167.0</ele><time>2026-04-04T11:23:49.999Z</time></trkpt><trkpt lat="44.70262098827525" lon="8.034595542970674"><ele>167.0</ele><time>2026-04-04T11:23:52.999Z</time></trkpt><trkpt lat="44.702561881804385" lon="8.034563176217517"><ele>167.0</ele><time>2026-04-04T11:23:55.999Z</time></trkpt><trkpt lat="44.70250100085757" lon="8.034519671823569"><ele>167.0</ele><time>2026-04-04T11:23:58.999Z</time></trkpt><trkpt lat="44.70244364244186" lon="8.034461676147608"><ele>167.0</ele><time>2026-04-04T11:24:07.999Z</time></trkpt><trkpt lat="44.702453475286966" lon="8.034613643319341"><ele>173.0</ele><time>2026-04-04T11:24:13.999Z</time></trkpt><trkpt lat="44.702514875009825" lon="8.03458990079328"><ele>173.0</ele><time>2026-04-04T11:24:15.999Z</time></trkpt><trkpt lat="44.702575768325815" lon="8.034641802402462"><ele>173.0</ele><time>2026-04-04T11:24:18.999Z</time></trkpt><trkpt lat="44.702651768957445" lon="8.034674389630942"><ele>173.0</ele><time>2026-04-04T11:24:21.999Z</time></trkpt><trkpt lat="44.70273119220247" lon="8.034721600199086"><ele>173.0</ele><time>2026-04-04T11:24:24.999Z</time></trkpt><trkpt lat="44.702788427129725" lon="8.034761801862933"><ele>167.0</ele><time>2026-04-04T11:24:27.999Z</time></trkpt></trkseg><trkseg><trkpt lat="44.702875040313465" lon="8.034847055699462"><ele>167.0</ele><time>2026-04-04T12:34:46.999Z</time></trkpt><trkpt lat="44.702910501500796" lon="8.034938234430863"><ele>167.0</ele><time>2026-04-04T12:34:48.999Z</time></trkpt><trkpt lat="44.702964257513926" lon="8.034985330815507"><ele>167.0</ele><time>2026-04-04T12:34:52.998Z</time></trkpt><trkpt lat="44.70309645369004" lon="8.03504975786903"><ele>167.0</ele><time>2026-04-04T12:34:57.998Z</time></trkpt><trkpt lat="44.70314355740311" lon="8.034965315017248"><ele>167.0</ele><time>2026-04-04T12:35:00.998Z</time></trkpt><trkpt lat="44.70317993120833" lon="8.034782155684287"><ele>167.0</ele><time>2026-04-04T12:35:02.998Z</time></trkpt><trkpt lat="44.70319526977376" lon="8.034580065069184"><ele>167.0</ele><time>2026-04-04T12:35:03.998Z</time></trkpt><trkpt lat="44.703210461581214" lon="8.034399550206576"><ele>167.0</ele><time>2026-04-04T12:35:04.998Z</time></trkpt><trkpt lat="44.70324149382632" lon="8.03421103324961"><ele>167.0</ele><time>2026-04-04T12:35:05.998Z</time></trkpt><trkpt lat="44.7032628220829" lon="8.03401840777669"><ele>166.8</ele><time>2026-04-04T12:35:06.998Z</time></trkpt><trkpt lat="44.70328270006712" lon="8.033861477920054"><ele>166.6</ele><time>2026-04-04T12:35:07.998Z</time></trkpt><trkpt lat="44.70329210891968" lon="8.03375130882578"><ele>166.4</ele><time>2026-04-04T12:35:08.998Z</time></trkpt><trkpt lat="44.703293568213546" lon="8.033618232852211"><ele>166.20000000000002</ele><time>2026-04-04T12:35:10.998Z</time></trkpt><trkpt lat="44.703361758488306" lon="8.03361358405745"><ele>166.0</ele><time>2026-04-04T12:35:15.998Z</time></trkpt><trkpt lat="44.70337009971401" lon="8.033760548555001"><ele>166.0</ele><time>2026-04-04T12:35:17.998Z</time></trkpt><trkpt lat="44.70334952234783" lon="8.033857066543433"><ele>166.0</ele><time>2026-04-04T12:35:18.998Z</time></trkpt><trkpt lat="44.703344865068225" lon="8.033960557814266"><ele>166.0</ele><time>2026-04-04T12:35:19.998Z</time></trkpt><trkpt lat="44.70333511748468" lon="8.03408482811962"><ele>166.0</ele><time>2026-04-04T12:35:20.998Z</time></trkpt><trkpt lat="44.70332886360755" lon="8.03420332990685"><ele>166.0</ele><time>2026-04-04T12:35:21.998Z</time></trkpt><trkpt lat="44.70332950096601" lon="8.034333884625388"><ele>166.0</ele><time>2026-04-04T12:35:22.998Z</time></trkpt><trkpt lat="44.70331434058647" lon="8.034470342704232"><ele>166.25</ele><time>2026-04-04T12:35:23.998Z</time></trkpt><trkpt lat="44.70330260398923" lon="8.034614965211713"><ele>166.5</ele><time>2026-04-04T12:35:24.998Z</time></trkpt><trkpt lat="44.70330827805318" lon="8.034742667026336"><ele>166.75</ele><time>2026-04-04T12:35:25.998Z</time></trkpt><trkpt lat="44.70329296621579" lon="8.034928912687368"><ele>167.0</ele><time>2026-04-04T12:35:26.998Z</time></trkpt><trkpt lat="44.70328499327891" lon="8.035100968446013"><ele>167.0</ele><time>2026-04-04T12:35:27.998Z</time></trkpt><trkpt lat="44.70324877644172" lon="8.035272029696996"><ele>167.0</ele><time>2026-04-04T12:35:28.998Z</time></trkpt><trkpt lat="44.703237682395184" lon="8.03542526570056"><ele>167.0</ele><time>2026-04-04T12:35:29.998Z</time></trkpt><trkpt lat="44.703230054021" lon="8.035575072387214"><ele>167.0</ele><time>2026-04-04T12:35:30.998Z</time></trkpt><trkpt lat="44.70323764324988" lon="8.035715755676792"><ele>167.0</ele><time>2026-04-04T12:35:31.998Z</time></trkpt><trkpt lat="44.70321893764173" lon="8.035859702915706"><ele>167.0</ele><time>2026-04-04T12:35:32.998Z</time></trkpt><trkpt lat="44.70320992828984" lon="8.036012259132294"><ele>167.0</ele><time>2026-04-04T12:35:33.998Z</time></trkpt><trkpt lat="44.70319820482393" lon="8.03618310121683"><ele>167.0</ele><time>2026-04-04T12:35:34.998Z</time></trkpt><trkpt lat="44.70318571028073" lon="8.036340196904394"><ele>167.0</ele><time>2026-04-04T12:35:35.998Z</time></trkpt><trkpt lat="44.70317341656951" lon="8.036506068095568"><ele>166.75</ele><time>2026-04-04T12:35:36.998Z</time></trkpt><trkpt lat="44.70316440445401" lon="8.036673001626712"><ele>166.5</ele><time>2026-04-04T12:35:37.998Z</time></trkpt><trkpt lat="44.70315483190285" lon="8.036851337254669"><ele>166.25</ele><time>2026-04-04T12:35:38.997Z</time></trkpt><trkpt lat="44.70314348724808" lon="8.03703553802913"><ele>166.0</ele><time>2026-04-04T12:35:39.997Z</time></trkpt><trkpt lat="44.70312838544361" lon="8.03722559978225"><ele>166.0</ele><time>2026-04-04T12:35:40.999Z</time></trkpt><trkpt lat="44.703118336689606" lon="8.03741308786492"><ele>166.0</ele><time>2026-04-04T12:35:41.999Z</time></trkpt><trkpt lat="44.703107588377904" lon="8.037588775495859"><ele>166.0</ele><time>2026-04-04T12:35:42.999Z</time></trkpt><trkpt lat="44.703097738376925" lon="8.037748865776612"><ele>166.0</ele><time>2026-04-04T12:35:43.999Z</time></trkpt><trkpt lat="44.7030856417282" lon="8.03790187024141"><ele>165.8</ele><time>2026-04-04T12:35:44.999Z</time></trkpt><trkpt lat="44.7030753475271" lon="8.038040098600773"><ele>165.60000000000002</ele><time>2026-04-04T12:35:45.999Z</time></trkpt><trkpt lat="44.70306859694826" lon="8.038167912717318"><ele>165.4</ele><time>2026-04-04T12:35:46.999Z</time></trkpt><trkpt lat="44.70305749711743" lon="8.038285110655757"><ele>165.2</ele><time>2026-04-04T12:35:47.999Z</time></trkpt><trkpt lat="44.7030031898526" lon="8.038401474210307"><ele>165.0</ele><time>2026-04-04T12:35:48.999Z</time></trkpt><trkpt lat="44.70293230724984" lon="8.038505213046896"><ele>164.25</ele><time>2026-04-04T12:35:49.999Z</time></trkpt><trkpt lat="44.702842606836796" lon="8.038595167331835"><ele>163.5</ele><time>2026-04-04T12:35:50.999Z</time></trkpt><trkpt lat="44.702733558540096" lon="8.038648113177683"><ele>162.75</ele><time>2026-04-04T12:35:51.999Z</time></trkpt><trkpt lat="44.70262231274721" lon="8.038729103343872"><ele>162.0</ele><time>2026-04-04T12:35:52.999Z</time></trkpt><trkpt lat="44.70251264397082" lon="8.038811922816324"><ele>162.5</ele><time>2026-04-04T12:35:53.999Z</time></trkpt><trkpt lat="44.702397220451225" lon="8.038899120008265"><ele>163.0</ele><time>2026-04-04T12:35:54.999Z</time></trkpt><trkpt lat="44.70228029550076" lon="8.038979120793458"><ele>163.5</ele><time>2026-04-04T12:35:55.999Z</time></trkpt><trkpt lat="44.70215107032646" lon="8.03904471631801"><ele>164.0</ele><time>2026-04-04T12:35:56.999Z</time></trkpt><trkpt lat="44.70204404267331" lon="8.039138318079099"><ele>164.0</ele><time>2026-04-04T12:35:57.999Z</time></trkpt><trkpt lat="44.70192599242136" lon="8.039230691886065"><ele>164.0</ele><time>2026-04-04T12:35:58.999Z</time></trkpt><trkpt lat="44.70181304989794" lon="8.039319621662267"><ele>164.0</ele><time>2026-04-04T12:35:59.999Z</time></trkpt><trkpt lat="44.70169454714749" lon="8.03940387731324"><ele>164.0</ele><time>2026-04-04T12:36:00.999Z</time></trkpt><trkpt lat="44.70157544686157" lon="8.03948470568786"><ele>165.25</ele><time>2026-04-04T12:36:01.999Z</time></trkpt><trkpt lat="44.70144867449235" lon="8.039565674458354"><ele>166.5</ele><time>2026-04-04T12:36:02.999Z</time></trkpt><trkpt lat="44.70134142239836" lon="8.039655342547015"><ele>167.75</ele><time>2026-04-04T12:36:03.999Z</time></trkpt><trkpt lat="44.701236964376974" lon="8.039728869238674"><ele>169.0</ele><time>2026-04-04T12:36:04.999Z</time></trkpt><trkpt lat="44.701138164517516" lon="8.039791616294936"><ele>169.6</ele><time>2026-04-04T12:36:05.999Z</time></trkpt><trkpt lat="44.70104345695398" lon="8.039838648666697"><ele>170.2</ele><time>2026-04-04T12:36:06.999Z</time></trkpt><trkpt lat="44.70095230558463" lon="8.039880598147661"><ele>170.79999999999998</ele><time>2026-04-04T12:36:07.999Z</time></trkpt><trkpt lat="44.7008804312601" lon="8.039908044973021"><ele>171.39999999999998</ele><time>2026-04-04T12:36:08.999Z</time></trkpt><trkpt lat="44.700773033253995" lon="8.03989368191045"><ele>172.0</ele><time>2026-04-04T12:36:10.999Z</time></trkpt><trkpt lat="44.700652940395294" lon="8.03983362648319"><ele>172.0</ele><time>2026-04-04T12:36:12.999Z</time></trkpt><trkpt lat="44.700547259816005" lon="8.03985493822673"><ele>172.0</ele><time>2026-04-04T12:36:14.999Z</time></trkpt><trkpt lat="44.70049622908532" lon="8.039973262756154"><ele>172.0</ele><time>2026-04-04T12:36:16.999Z</time></trkpt><trkpt lat="44.70054356806029" lon="8.040119589858502"><ele>172.0</ele><time>2026-04-04T12:36:18.999Z</time></trkpt><trkpt lat="44.700569708883265" lon="8.040201557985101"><ele>172.0</ele><time>2026-04-04T12:36:19.999Z</time></trkpt><trkpt lat="44.70058319257515" lon="8.040296766263218"><ele>171.39999999999998</ele><time>2026-04-04T12:36:20.999Z</time></trkpt><trkpt lat="44.70057305703633" lon="8.0404143790318"><ele>170.79999999999998</ele><time>2026-04-04T12:36:21.999Z</time></trkpt><trkpt lat="44.70055555515169" lon="8.040541737467837"><ele>170.2</ele><time>2026-04-04T12:36:22.999Z</time></trkpt><trkpt lat="44.7005287883262" lon="8.040701404094355"><ele>169.6</ele><time>2026-04-04T12:36:23.999Z</time></trkpt><trkpt lat="44.700506482882304" lon="8.04086207953864"><ele>169.0</ele><time>2026-04-04T12:36:24.999Z</time></trkpt><trkpt lat="44.70048951489658" lon="8.041039328147136"><ele>167.75</ele><time>2026-04-04T12:36:25.999Z</time></trkpt><trkpt lat="44.70046573128916" lon="8.041219774680346"><ele>166.5</ele><time>2026-04-04T12:36:26.999Z</time></trkpt><trkpt lat="44.70044259407836" lon="8.041391808678734"><ele>165.25</ele><time>2026-04-04T12:36:27.999Z</time></trkpt><trkpt lat="44.700425004821625" lon="8.04157116194866"><ele>164.0</ele><time>2026-04-04T12:36:28.999Z</time></trkpt><trkpt lat="44.7004046386618" lon="8.041758069808266"><ele>163.75</ele><time>2026-04-04T12:36:29.999Z</time></trkpt><trkpt lat="44.70038305609416" lon="8.04193646281797"><ele>163.5</ele><time>2026-04-04T12:36:30.999Z</time></trkpt><trkpt lat="44.70035721404686" lon="8.042121125040666"><ele>163.25</ele><time>2026-04-04T12:36:31.999Z</time></trkpt><trkpt lat="44.7003343802815" lon="8.04230021942874"><ele>163.0</ele><time>2026-04-04T12:36:32.999Z</time></trkpt><trkpt lat="44.700314233321784" lon="8.042461091338113"><ele>163.4</ele><time>2026-04-04T12:36:33.999Z</time></trkpt><trkpt lat="44.700298655133075" lon="8.042605470374657"><ele>163.8</ele><time>2026-04-04T12:36:34.999Z</time></trkpt><trkpt lat="44.70028280389745" lon="8.042743332656224"><ele>164.2</ele><time>2026-04-04T12:36:35.999Z</time></trkpt><trkpt lat="44.70026355329131" lon="8.042871968853632"><ele>164.6</ele><time>2026-04-04T12:36:36.999Z</time></trkpt><trkpt lat="44.700234686790786" lon="8.04299763338574"><ele>165.0</ele><time>2026-04-04T12:36:37.999Z</time></trkpt><trkpt lat="44.70017425398314" lon="8.04312744188493"><ele>165.6</ele><time>2026-04-04T12:36:38.999Z</time></trkpt><trkpt lat="44.70013607500681" lon="8.04325769520822"><ele>166.2</ele><time>2026-04-04T12:36:39.999Z</time></trkpt><trkpt lat="44.70006182898989" lon="8.043353919805725"><ele>166.8</ele><time>2026-04-04T12:36:40.999Z</time></trkpt><trkpt lat="44.69995190359199" lon="8.043390213867811"><ele>167.4</ele><time>2026-04-04T12:36:41.999Z</time></trkpt><trkpt lat="44.69984272800798" lon="8.043426605312398"><ele>168.0</ele><time>2026-04-04T12:36:42.999Z</time></trkpt><trkpt lat="44.69972898920604" lon="8.043425951145894"><ele>168.5</ele><time>2026-04-04T12:36:43.999Z</time></trkpt><trkpt lat="44.69961075642562" lon="8.043436665669647"><ele>169.0</ele><time>2026-04-04T12:36:44.999Z</time></trkpt><trkpt lat="44.69949295754026" lon="8.043419104199437"><ele>169.5</ele><time>2026-04-04T12:36:45.999Z</time></trkpt><trkpt lat="44.69936591429599" lon="8.043416570231459"><ele>170.0</ele><time>2026-04-04T12:36:46.999Z</time></trkpt><trkpt lat="44.699242782429074" lon="8.04342754545724"><ele>170.0</ele><time>2026-04-04T12:36:47.999Z</time></trkpt><trkpt lat="44.699122676909234" lon="8.04346953451333"><ele>170.0</ele><time>2026-04-04T12:36:48.999Z</time></trkpt><trkpt lat="44.69900595908426" lon="8.043527252633863"><ele>170.0</ele><time>2026-04-04T12:36:49.999Z</time></trkpt><trkpt lat="44.698891307699064" lon="8.043597810025528"><ele>170.0</ele><time>2026-04-04T12:36:50.999Z</time></trkpt><trkpt lat="44.698775617049066" lon="8.043668833089596"><ele>170.0</ele><time>2026-04-04T12:36:51.999Z</time></trkpt><trkpt lat="44.6986563421163" lon="8.043727897327244"><ele>170.0</ele><time>2026-04-04T12:36:52.999Z</time></trkpt><trkpt lat="44.69853435244166" lon="8.043763857545448"><ele>170.0</ele><time>2026-04-04T12:36:53.999Z</time></trkpt><trkpt lat="44.69841319703759" lon="8.043781128085772"><ele>170.0</ele><time>2026-04-04T12:36:54.999Z</time></trkpt><trkpt lat="44.69829295850748" lon="8.043793929140984"><ele>171.0</ele><time>2026-04-04T12:36:55.999Z</time></trkpt><trkpt lat="44.698172431736204" lon="8.043809974262807"><ele>172.0</ele><time>2026-04-04T12:36:56.999Z</time></trkpt><trkpt lat="44.698048778721784" lon="8.043825211817172"><ele>173.0</ele><time>2026-04-04T12:36:57.999Z</time></trkpt><trkpt lat="44.697925725126304" lon="8.043840824169317"><ele>174.0</ele><time>2026-04-04T12:36:58.999Z</time></trkpt><trkpt lat="44.6978191179116" lon="8.043856599027063"><ele>174.79999999999998</ele><time>2026-04-04T12:36:59.999Z</time></trkpt><trkpt lat="44.69772733483416" lon="8.043866518901368"><ele>175.6</ele><time>2026-04-04T12:37:00.999Z</time></trkpt><trkpt lat="44.69763087981193" lon="8.043862042742488"><ele>176.4</ele><time>2026-04-04T12:37:01.999Z</time></trkpt><trkpt lat="44.69753947003483" lon="8.0437938913567"><ele>177.2</ele><time>2026-04-04T12:37:02.998Z</time></trkpt><trkpt lat="44.697434728956296" lon="8.04373109849154"><ele>178.0</ele><time>2026-04-04T12:37:03.998Z</time></trkpt><trkpt lat="44.69732559368813" lon="8.043690927728187"><ele>178.0</ele><time>2026-04-04T12:37:04.998Z</time></trkpt><trkpt lat="44.69721835588791" lon="8.043610735625162"><ele>178.0</ele><time>2026-04-04T12:37:05.998Z</time></trkpt><trkpt lat="44.69711536105925" lon="8.0435513741332"><ele>178.0</ele><time>2026-04-04T12:37:06.998Z</time></trkpt><trkpt lat="44.697006364025675" lon="8.043489237957589"><ele>178.0</ele><time>2026-04-04T12:37:07.998Z</time></trkpt><trkpt lat="44.69693514723511" lon="8.043395642679588"><ele>178.0</ele><time>2026-04-04T12:37:08.998Z</time></trkpt><trkpt lat="44.69680180753546" lon="8.04333438903151"><ele>177.0</ele><time>2026-04-04T12:37:09.998Z</time></trkpt><trkpt lat="44.69668077439455" lon="8.04327035252822"><ele>176.0</ele><time>2026-04-04T12:37:10.998Z</time></trkpt><trkpt lat="44.696573937056996" lon="8.043192455234799"><ele>175.0</ele><time>2026-04-04T12:37:11.998Z</time></trkpt><trkpt lat="44.696453868309526" lon="8.043117015925102"><ele>174.0</ele><time>2026-04-04T12:37:12.998Z</time></trkpt><trkpt lat="44.696331787666914" lon="8.043013821620072"><ele>174.0</ele><time>2026-04-04T12:37:13.998Z</time></trkpt><trkpt lat="44.696221230174096" lon="8.042972510324542"><ele>174.0</ele><time>2026-04-04T12:37:14.998Z</time></trkpt><trkpt lat="44.69609829431557" lon="8.04292905070498"><ele>174.0</ele><time>2026-04-04T12:37:15.998Z</time></trkpt><trkpt lat="44.69596441010758" lon="8.042910497068004"><ele>174.0</ele><time>2026-04-04T12:37:16.998Z</time></trkpt><trkpt lat="44.695832368566414" lon="8.042895889056567"><ele>176.75</ele><time>2026-04-04T12:37:17.998Z</time></trkpt><trkpt lat="44.69570388689124" lon="8.042867501808646"><ele>179.5</ele><time>2026-04-04T12:37:18.998Z</time></trkpt><trkpt lat="44.695574920386385" lon="8.04284701865284"><ele>182.25</ele><time>2026-04-04T12:37:19.998Z</time></trkpt><trkpt lat="44.695445080976434" lon="8.042832120635866"><ele>185.0</ele><time>2026-04-04T12:37:20.998Z</time></trkpt><trkpt lat="44.695315840429664" lon="8.042813663130532"><ele>187.5</ele><time>2026-04-04T12:37:21.998Z</time></trkpt><trkpt lat="44.69518832292787" lon="8.042767756875728"><ele>190.0</ele><time>2026-04-04T12:37:22.998Z</time></trkpt><trkpt lat="44.695059501560955" lon="8.042727191139782"><ele>192.5</ele><time>2026-04-04T12:37:23.998Z</time></trkpt><trkpt lat="44.69493458917967" lon="8.042671625890268"><ele>195.0</ele><time>2026-04-04T12:37:24.998Z</time></trkpt><trkpt lat="44.694805991398276" lon="8.042630465525798"><ele>195.0</ele><time>2026-04-04T12:37:25.998Z</time></trkpt><trkpt lat="44.694687619965066" lon="8.042550940420076"><ele>195.0</ele><time>2026-04-04T12:37:26.998Z</time></trkpt><trkpt lat="44.69456196957857" lon="8.042495005541754"><ele>195.0</ele><time>2026-04-04T12:37:27.998Z</time></trkpt><trkpt lat="44.694429016000846" lon="8.042444401737345"><ele>195.0</ele><time>2026-04-04T12:37:28.998Z</time></trkpt><trkpt lat="44.69430615195801" lon="8.042373345128874"><ele>193.5</ele><time>2026-04-04T12:37:29.998Z</time></trkpt><trkpt lat="44.69417711584512" lon="8.04231214908049"><ele>192.0</ele><time>2026-04-04T12:37:30.998Z</time></trkpt><trkpt lat="44.69404634680249" lon="8.042257480110203"><ele>190.5</ele><time>2026-04-04T12:37:31.998Z</time></trkpt><trkpt lat="44.693916445182495" lon="8.042190371259975"><ele>189.0</ele><time>2026-04-04T12:37:32.998Z</time></trkpt><trkpt lat="44.6937893816772" lon="8.04213089554888"><ele>189.0</ele><time>2026-04-04T12:37:33.998Z</time></trkpt><trkpt lat="44.69365753262507" lon="8.042064807428712"><ele>189.0</ele><time>2026-04-04T12:37:34.998Z</time></trkpt><trkpt lat="44.69351970104466" lon="8.041975647665025"><ele>189.0</ele><time>2026-04-04T12:37:35.998Z</time></trkpt><trkpt lat="44.693394888619544" lon="8.041953102650668"><ele>189.0</ele><time>2026-04-04T12:37:36.998Z</time></trkpt><trkpt lat="44.69326175895981" lon="8.041920643701804"><ele>191.25</ele><time>2026-04-04T12:37:37.998Z</time></trkpt><trkpt lat="44.693124497029785" lon="8.041890700855083"><ele>193.5</ele><time>2026-04-04T12:37:38.998Z</time></trkpt><trkpt lat="44.69298809309739" lon="8.041862308430499"><ele>195.75</ele><time>2026-04-04T12:37:39.998Z</time></trkpt><trkpt lat="44.69287089175083" lon="8.041833052960236"><ele>198.0</ele><time>2026-04-04T12:37:40.998Z</time></trkpt><trkpt lat="44.69270689741619" lon="8.041794043502483"><ele>200.0</ele><time>2026-04-04T12:37:41.998Z</time></trkpt><trkpt lat="44.69257258676805" lon="8.041773799166364"><ele>202.0</ele><time>2026-04-04T12:37:42.998Z</time></trkpt><trkpt lat="44.6924447883571" lon="8.041774783271372"><ele>204.0</ele><time>2026-04-04T12:37:43.998Z</time></trkpt><trkpt lat="44.69232980106919" lon="8.041770021087121"><ele>206.0</ele><time>2026-04-04T12:37:44.998Z</time></trkpt><trkpt lat="44.69220817626599" lon="8.04181637264201"><ele>206.0</ele><time>2026-04-04T12:37:45.998Z</time></trkpt><trkpt lat="44.69209829805897" lon="8.041898962897188"><ele>206.0</ele><time>2026-04-04T12:37:46.999Z</time></trkpt><trkpt lat="44.69200850318065" lon="8.042011955385846"><ele>206.0</ele><time>2026-04-04T12:37:47.999Z</time></trkpt><trkpt lat="44.69194042875301" lon="8.042157488256366"><ele>206.0</ele><time>2026-04-04T12:37:48.999Z</time></trkpt><trkpt lat="44.691881721535154" lon="8.042313613252805"><ele>207.25</ele><time>2026-04-04T12:37:49.999Z</time></trkpt><trkpt lat="44.69183806279959" lon="8.042485915045786"><ele>208.5</ele><time>2026-04-04T12:37:50.999Z</time></trkpt><trkpt lat="44.69180805175072" lon="8.042668522715672"><ele>209.75</ele><time>2026-04-04T12:37:51.999Z</time></trkpt><trkpt lat="44.691784191674664" lon="8.042859918142359"><ele>211.0</ele><time>2026-04-04T12:37:52.999Z</time></trkpt><trkpt lat="44.691746248516246" lon="8.04305022688402"><ele>211.0</ele><time>2026-04-04T12:37:53.999Z</time></trkpt><trkpt lat="44.69169728271184" lon="8.04324437122637"><ele>211.0</ele><time>2026-04-04T12:37:54.999Z</time></trkpt><trkpt lat="44.69164222844575" lon="8.04343815073902"><ele>211.0</ele><time>2026-04-04T12:37:55.999Z</time></trkpt><trkpt lat="44.69158063327952" lon="8.043635521380121"><ele>211.0</ele><time>2026-04-04T12:37:56.999Z</time></trkpt><trkpt lat="44.69151742780129" lon="8.043826544610583"><ele>214.33333333333331</ele><time>2026-04-04T12:37:57.999Z</time></trkpt><trkpt lat="44.6914397486331" lon="8.044013704891395"><ele>217.66666666666669</ele><time>2026-04-04T12:37:58.999Z</time></trkpt><trkpt lat="44.6913828644427" lon="8.044218300805179"><ele>221.0</ele><time>2026-04-04T12:37:59.999Z</time></trkpt><trkpt lat="44.69131669902331" lon="8.044426767878893"><ele>222.25</ele><time>2026-04-04T12:38:00.999Z</time></trkpt><trkpt lat="44.69124656434685" lon="8.044605103455583"><ele>223.5</ele><time>2026-04-04T12:38:01.999Z</time></trkpt><trkpt lat="44.69118890586674" lon="8.04478282941194"><ele>224.75</ele><time>2026-04-04T12:38:02.999Z</time></trkpt><trkpt lat="44.69113579412335" lon="8.044941119337821"><ele>226.0</ele><time>2026-04-04T12:38:03.999Z</time></trkpt><trkpt lat="44.69107045440161" lon="8.045081329116753"><ele>226.0</ele><time>2026-04-04T12:38:04.999Z</time></trkpt><trkpt lat="44.69102799533713" lon="8.045213948870142"><ele>226.00000000000003</ele><time>2026-04-04T12:38:05.999Z</time></trkpt><trkpt lat="44.69095315812428" lon="8.04530941833059"><ele>226.00000000000003</ele><time>2026-04-04T12:38:06.999Z</time></trkpt><trkpt lat="44.69085450769472" lon="8.04538724740693"><ele>226.0</ele><time>2026-04-04T12:38:07.999Z</time></trkpt><trkpt lat="44.690739983034874" lon="8.045432857080732"><ele>226.0</ele><time>2026-04-04T12:38:08.999Z</time></trkpt><trkpt lat="44.690617363929924" lon="8.045399937831917"><ele>226.0</ele><time>2026-04-04T12:38:09.999Z</time></trkpt><trkpt lat="44.690492191962214" lon="8.045362911004014"><ele>226.0</ele><time>2026-04-04T12:38:10.999Z</time></trkpt><trkpt lat="44.69035936468536" lon="8.04533414687295"><ele>226.0</ele><time>2026-04-04T12:38:11.999Z</time></trkpt><trkpt lat="44.69022096033429" lon="8.045277032006036"><ele>226.0</ele><time>2026-04-04T12:38:12.999Z</time></trkpt><trkpt lat="44.6900747416763" lon="8.045235089252465"><ele>227.5</ele><time>2026-04-04T12:38:13.999Z</time></trkpt><trkpt lat="44.6899257213829" lon="8.045198948399575"><ele>229.0</ele><time>2026-04-04T12:38:14.999Z</time></trkpt><trkpt lat="44.689779302204876" lon="8.045158619181104"><ele>230.5</ele><time>2026-04-04T12:38:15.999Z</time></trkpt><trkpt lat="44.689639776314024" lon="8.045126243885798"><ele>232.0</ele><time>2026-04-04T12:38:16.999Z</time></trkpt><trkpt lat="44.68952108551569" lon="8.045097835058595"><ele>234.5</ele><time>2026-04-04T12:38:17.999Z</time></trkpt><trkpt lat="44.6894138687907" lon="8.045064295751182"><ele>237.0</ele><time>2026-04-04T12:38:18.999Z</time></trkpt><trkpt lat="44.689309021544474" lon="8.04498613997204"><ele>239.5</ele><time>2026-04-04T12:38:19.999Z</time></trkpt><trkpt lat="44.689224797683195" lon="8.044863271930028"><ele>242.0</ele><time>2026-04-04T12:38:20.999Z</time></trkpt><trkpt lat="44.68916783662808" lon="8.04470777229308"><ele>242.0</ele><time>2026-04-04T12:38:21.999Z</time></trkpt><trkpt lat="44.689154248006446" lon="8.04452620240229"><ele>242.0</ele><time>2026-04-04T12:38:22.999Z</time></trkpt><trkpt lat="44.68913943685996" lon="8.044334198660357"><ele>242.0</ele><time>2026-04-04T12:38:23.999Z</time></trkpt><trkpt lat="44.68911635272997" lon="8.04415154415986"><ele>242.0</ele><time>2026-04-04T12:38:24.999Z</time></trkpt><trkpt lat="44.689102652803406" lon="8.043976866521957"><ele>242.0</ele><time>2026-04-04T12:38:25.999Z</time></trkpt><trkpt lat="44.68906475515553" lon="8.043828002433044"><ele>242.0</ele><time>2026-04-04T12:38:26.999Z</time></trkpt><trkpt lat="44.688989360930904" lon="8.043701679574614"><ele>242.0</ele><time>2026-04-04T12:38:27.999Z</time></trkpt><trkpt lat="44.68890013009765" lon="8.043615303816448"><ele>242.0</ele><time>2026-04-04T12:38:28.999Z</time></trkpt><trkpt lat="44.68877376866228" lon="8.043596276528776"><ele>242.0</ele><time>2026-04-04T12:38:29.999Z</time></trkpt><trkpt lat="44.68865426461144" lon="8.043588049170488"><ele>242.0</ele><time>2026-04-04T12:38:30.999Z</time></trkpt><trkpt lat="44.68853931295448" lon="8.043643070872658"><ele>242.0</ele><time>2026-04-04T12:38:31.999Z</time></trkpt><trkpt lat="44.68843897143533" lon="8.04373861618756"><ele>242.0</ele><time>2026-04-04T12:38:32.999Z</time></trkpt><trkpt lat="44.688355601009086" lon="8.04386619026629"><ele>242.0</ele><time>2026-04-04T12:38:33.999Z</time></trkpt><trkpt lat="44.688266726267955" lon="8.04399945860663"><ele>242.0</ele><time>2026-04-04T12:38:34.999Z</time></trkpt><trkpt lat="44.68817526983185" lon="8.04413559681521"><ele>242.0</ele><time>2026-04-04T12:38:35.999Z</time></trkpt><trkpt lat="44.68808907322478" lon="8.04427824343943"><ele>242.0</ele><time>2026-04-04T12:38:36.999Z</time></trkpt><trkpt lat="44.688004471527904" lon="8.044426888282992"><ele>244.75</ele><time>2026-04-04T12:38:37.999Z</time></trkpt><trkpt lat="44.687929805036674" lon="8.044591629191228"><ele>247.5</ele><time>2026-04-04T12:38:38.999Z</time></trkpt><trkpt lat="44.6878655471613" lon="8.044771273590262"><ele>250.25</ele><time>2026-04-04T12:38:39.999Z</time></trkpt><trkpt lat="44.68781205559581" lon="8.04495509267117"><ele>253.0</ele><time>2026-04-04T12:38:40.999Z</time></trkpt><trkpt lat="44.68777263936611" lon="8.045146750622822"><ele>253.75</ele><time>2026-04-04T12:38:41.999Z</time></trkpt><trkpt lat="44.68774324577443" lon="8.045343447092407"><ele>254.5</ele><time>2026-04-04T12:38:42.999Z</time></trkpt><trkpt lat="44.68771524642804" lon="8.045541251798573"><ele>255.25</ele><time>2026-04-04T12:38:43.999Z</time></trkpt><trkpt lat="44.687690682387846" lon="8.045739401499624"><ele>256.0</ele><time>2026-04-04T12:38:44.999Z</time></trkpt><trkpt lat="44.68766651440652" lon="8.045939650112787"><ele>256.0</ele><time>2026-04-04T12:38:45.999Z</time></trkpt><trkpt lat="44.687623242634984" lon="8.046131083336693"><ele>256.0</ele><time>2026-04-04T12:38:46.999Z</time></trkpt><trkpt lat="44.687595212728816" lon="8.046321821762241"><ele>256.0</ele><time>2026-04-04T12:38:47.999Z</time></trkpt><trkpt lat="44.68756381634852" lon="8.046506421810442"><ele>256.0</ele><time>2026-04-04T12:38:48.999Z</time></trkpt><trkpt lat="44.6875255151267" lon="8.04668074344436"><ele>258.5</ele><time>2026-04-04T12:38:49.999Z</time></trkpt><trkpt lat="44.68747513413524" lon="8.046838248485091"><ele>261.0</ele><time>2026-04-04T12:38:50.999Z</time></trkpt><trkpt lat="44.687424546150226" lon="8.047000922136428"><ele>263.5</ele><time>2026-04-04T12:38:51.999Z</time></trkpt><trkpt lat="44.687345844025714" lon="8.047159233658197"><ele>266.0</ele><time>2026-04-04T12:38:52.999Z</time></trkpt><trkpt lat="44.68725459551676" lon="8.047308851627447"><ele>266.0</ele><time>2026-04-04T12:38:53.999Z</time></trkpt><trkpt lat="44.687148367405875" lon="8.047439740565792"><ele>266.0</ele><time>2026-04-04T12:38:54.999Z</time></trkpt><trkpt lat="44.68703887408947" lon="8.047575482592816"><ele>266.0</ele><time>2026-04-04T12:38:55.999Z</time></trkpt><trkpt lat="44.68692862982096" lon="8.047715933144662"><ele>266.0</ele><time>2026-04-04T12:38:56.999Z</time></trkpt><trkpt lat="44.68682342939287" lon="8.04786156395876"><ele>266.25</ele><time>2026-04-04T12:38:57.999Z</time></trkpt><trkpt lat="44.68672709649254" lon="8.04799942134034"><ele>266.5</ele><time>2026-04-04T12:38:58.999Z</time></trkpt><trkpt lat="44.68663337411058" lon="8.04814097781224"><ele>266.75</ele><time>2026-04-04T12:38:59.999Z</time></trkpt><trkpt lat="44.6865559835146" lon="8.048273507564183"><ele>267.0</ele><time>2026-04-04T12:39:00.999Z</time></trkpt><trkpt lat="44.686482720670064" lon="8.048385309434467"><ele>269.25</ele><time>2026-04-04T12:39:01.999Z</time></trkpt><trkpt lat="44.68637558095079" lon="8.048452301254668"><ele>271.5</ele><time>2026-04-04T12:39:02.999Z</time></trkpt><trkpt lat="44.686269400203685" lon="8.0485201068524"><ele>273.75</ele><time>2026-04-04T12:39:03.999Z</time></trkpt><trkpt lat="44.68614999803473" lon="8.04850321347141"><ele>276.0</ele><time>2026-04-04T12:39:04.999Z</time></trkpt><trkpt lat="44.6860307948183" lon="8.048516972645123"><ele>276.0</ele><time>2026-04-04T12:39:05.999Z</time></trkpt><trkpt lat="44.68591554353153" lon="8.048556262995797"><ele>276.0</ele><time>2026-04-04T12:39:06.999Z</time></trkpt><trkpt lat="44.685809178516735" lon="8.048634830064266"><ele>276.0</ele><time>2026-04-04T12:39:07.999Z</time></trkpt><trkpt lat="44.685710960824295" lon="8.04874692639236"><ele>276.0</ele><time>2026-04-04T12:39:08.999Z</time></trkpt><trkpt lat="44.68562413735257" lon="8.048892134106897"><ele>276.0</ele><time>2026-04-04T12:39:09.999Z</time></trkpt><trkpt lat="44.685546575831715" lon="8.04903875558045"><ele>276.0</ele><time>2026-04-04T12:39:10.999Z</time></trkpt><trkpt lat="44.685467155502835" lon="8.049186328762127"><ele>276.0</ele><time>2026-04-04T12:39:11.999Z</time></trkpt><trkpt lat="44.68535586752251" lon="8.049281763234132"><ele>276.0</ele><time>2026-04-04T12:39:12.999Z</time></trkpt><trkpt lat="44.68524959996718" lon="8.049375207411053"><ele>278.75</ele><time>2026-04-04T12:39:13.999Z</time></trkpt><trkpt lat="44.68512342077389" lon="8.049417988501375"><ele>281.5</ele><time>2026-04-04T12:39:14.999Z</time></trkpt><trkpt lat="44.68499606916444" lon="8.049409200767352"><ele>284.25</ele><time>2026-04-04T12:39:15.998Z</time></trkpt><trkpt lat="44.68486443545642" lon="8.04934275874944"><ele>287.0</ele><time>2026-04-04T12:39:16.998Z</time></trkpt><trkpt lat="44.68473735132649" lon="8.049265311044206"><ele>287.0</ele><time>2026-04-04T12:39:17.998Z</time></trkpt><trkpt lat="44.68460613301765" lon="8.049176211589478"><ele>287.0</ele><time>2026-04-04T12:39:18.998Z</time></trkpt><trkpt lat="44.684468795212304" lon="8.049089329200768"><ele>287.0</ele><time>2026-04-04T12:39:19.998Z</time></trkpt><trkpt lat="44.684339303085245" lon="8.048982828431377"><ele>287.0</ele><time>2026-04-04T12:39:20.998Z</time></trkpt><trkpt lat="44.684206817491486" lon="8.04887420724342"><ele>286.25</ele><time>2026-04-04T12:39:21.998Z</time></trkpt><trkpt lat="44.684072739750256" lon="8.048773041140226"><ele>285.5</ele><time>2026-04-04T12:39:22.998Z</time></trkpt><trkpt lat="44.68393851620817" lon="8.04867421652644"><ele>284.75</ele><time>2026-04-04T12:39:23.998Z</time></trkpt><trkpt lat="44.68383050054046" lon="8.048578935970472"><ele>284.0</ele><time>2026-04-04T12:39:24.998Z</time></trkpt><trkpt lat="44.68369465944309" lon="8.048488348211457"><ele>287.75</ele><time>2026-04-04T12:39:25.998Z</time></trkpt><trkpt lat="44.683587871464134" lon="8.048409464287005"><ele>291.5</ele><time>2026-04-04T12:39:26.998Z</time></trkpt><trkpt lat="44.6834830949431" lon="8.048361543939974"><ele>295.25</ele><time>2026-04-04T12:39:27.998Z</time></trkpt><trkpt lat="44.683370190214376" lon="8.04835024654364"><ele>299.0</ele><time>2026-04-04T12:39:28.998Z</time></trkpt><trkpt lat="44.683254140458885" lon="8.04839491355783"><ele>299.0</ele><time>2026-04-04T12:39:29.998Z</time></trkpt><trkpt lat="44.683145773079374" lon="8.048467074864366"><ele>299.0</ele><time>2026-04-04T12:39:30.998Z</time></trkpt><trkpt lat="44.68304711279727" lon="8.048587856126852"><ele>299.0</ele><time>2026-04-04T12:39:31.998Z</time></trkpt><trkpt lat="44.682956286336754" lon="8.048743396494636"><ele>299.0</ele><time>2026-04-04T12:39:32.998Z</time></trkpt><trkpt lat="44.68286403309737" lon="8.048900070936057"><ele>300.75</ele><time>2026-04-04T12:39:33.998Z</time></trkpt><trkpt lat="44.68275878268188" lon="8.049042207061133"><ele>302.5</ele><time>2026-04-04T12:39:34.998Z</time></trkpt><trkpt lat="44.682657816746456" lon="8.049180085129363"><ele>304.25</ele><time>2026-04-04T12:39:35.998Z</time></trkpt><trkpt lat="44.68255315559747" lon="8.049306454854541"><ele>306.0</ele><time>2026-04-04T12:39:36.998Z</time></trkpt><trkpt lat="44.68244064392885" lon="8.049424403980828"><ele>306.0</ele><time>2026-04-04T12:39:37.998Z</time></trkpt><trkpt lat="44.68231129631819" lon="8.049499690656297"><ele>306.0</ele><time>2026-04-04T12:39:38.998Z</time></trkpt><trkpt lat="44.68219071488132" lon="8.049561066156702"><ele>306.0</ele><time>2026-04-04T12:39:39.998Z</time></trkpt><trkpt lat="44.682085272505965" lon="8.049619491600556"><ele>306.0</ele><time>2026-04-04T12:39:40.998Z</time></trkpt><trkpt lat="44.6820154769544" lon="8.049699031395583"><ele>306.0</ele><time>2026-04-04T12:39:41.998Z</time></trkpt><trkpt lat="44.681967363966045" lon="8.049818023349294"><ele>306.0</ele><time>2026-04-04T12:39:42.998Z</time></trkpt><trkpt lat="44.68194399835623" lon="8.04996595872477"><ele>306.0</ele><time>2026-04-04T12:39:43.998Z</time></trkpt><trkpt lat="44.68196164033384" lon="8.050131540954151"><ele>306.0</ele><time>2026-04-04T12:39:44.998Z</time></trkpt><trkpt lat="44.68200022091335" lon="8.050294479687082"><ele>306.0</ele><time>2026-04-04T12:39:45.998Z</time></trkpt><trkpt lat="44.682041444245186" lon="8.050472749047778"><ele>310.25</ele><time>2026-04-04T12:39:46.998Z</time></trkpt><trkpt lat="44.682045841149396" lon="8.050672056703633"><ele>314.5</ele><time>2026-04-04T12:39:47.998Z</time></trkpt><trkpt lat="44.68205970780649" lon="8.050874956755324"><ele>318.75</ele><time>2026-04-04T12:39:48.998Z</time></trkpt><trkpt lat="44.682080822317815" lon="8.051076568680049"><ele>323.0</ele><time>2026-04-04T12:39:49.998Z</time></trkpt><trkpt lat="44.68205278542379" lon="8.051273048431245"><ele>321.0</ele><time>2026-04-04T12:39:50.998Z</time></trkpt><trkpt lat="44.682030637874455" lon="8.051466463167161"><ele>319.0</ele><time>2026-04-04T12:39:51.998Z</time></trkpt><trkpt lat="44.682010946820945" lon="8.051662207911853"><ele>317.0</ele><time>2026-04-04T12:39:52.999Z</time></trkpt><trkpt lat="44.681962624107015" lon="8.051853150545572"><ele>315.0</ele><time>2026-04-04T12:39:53.999Z</time></trkpt><trkpt lat="44.681906094831" lon="8.052037617251933"><ele>315.0</ele><time>2026-04-04T12:39:54.999Z</time></trkpt><trkpt lat="44.681839968795416" lon="8.052216030756165"><ele>315.0</ele><time>2026-04-04T12:39:55.999Z</time></trkpt><trkpt lat="44.68178465942897" lon="8.052377050067005"><ele>315.0</ele><time>2026-04-04T12:39:56.999Z</time></trkpt><trkpt lat="44.68173698355632" lon="8.052519507909524"><ele>315.0</ele><time>2026-04-04T12:39:57.999Z</time></trkpt><trkpt lat="44.68168385489245" lon="8.052662957538407"><ele>318.5</ele><time>2026-04-04T12:39:58.999Z</time></trkpt><trkpt lat="44.681612023070755" lon="8.052790350354169"><ele>322.0</ele><time>2026-04-04T12:39:59.999Z</time></trkpt><trkpt lat="44.68149464150955" lon="8.052860242780502"><ele>325.5</ele><time>2026-04-04T12:40:00.999Z</time></trkpt><trkpt lat="44.68136086601974" lon="8.052919788061672"><ele>329.0</ele><time>2026-04-04T12:40:01.999Z</time></trkpt><trkpt lat="44.68121334074176" lon="8.052956760200782"><ele>327.33333333333337</ele><time>2026-04-04T12:40:02.999Z</time></trkpt><trkpt lat="44.6810565958986" lon="8.053014407764433"><ele>325.6666666666667</ele><time>2026-04-04T12:40:03.999Z</time></trkpt><trkpt lat="44.68088773761443" lon="8.053042093253696"><ele>324.0</ele><time>2026-04-04T12:40:04.999Z</time></trkpt><trkpt lat="44.68071909715068" lon="8.053081019805328"><ele>324.0</ele><time>2026-04-04T12:40:05.999Z</time></trkpt><trkpt lat="44.680546898635974" lon="8.05312330770799"><ele>324.0</ele><time>2026-04-04T12:40:06.999Z</time></trkpt><trkpt lat="44.680376008131795" lon="8.053164529296133"><ele>324.0</ele><time>2026-04-04T12:40:07.999Z</time></trkpt><trkpt lat="44.68020402809756" lon="8.053210155824598"><ele>322.6666666666667</ele><time>2026-04-04T12:40:08.999Z</time></trkpt><trkpt lat="44.6800337276869" lon="8.053259333372802"><ele>321.33333333333337</ele><time>2026-04-04T12:40:09.999Z</time></trkpt><trkpt lat="44.679864450963066" lon="8.053303633008406"><ele>320.0</ele><time>2026-04-04T12:40:10.999Z</time></trkpt><trkpt lat="44.679698797676394" lon="8.053340903362596"><ele>326.33333333333337</ele><time>2026-04-04T12:40:11.999Z</time></trkpt><trkpt lat="44.679543790026706" lon="8.053373877126845"><ele>332.6666666666667</ele><time>2026-04-04T12:40:12.999Z</time></trkpt><trkpt lat="44.679389883211776" lon="8.053410863646313"><ele>339.0</ele><time>2026-04-04T12:40:13.999Z</time></trkpt><trkpt lat="44.67923858481873" lon="8.053450179351492"><ele>339.0</ele><time>2026-04-04T12:40:14.999Z</time></trkpt><trkpt lat="44.67908641534384" lon="8.053491595134698"><ele>339.0</ele><time>2026-04-04T12:40:15.999Z</time></trkpt><trkpt lat="44.6789339676786" lon="8.053525969500976"><ele>339.0</ele><time>2026-04-04T12:40:16.999Z</time></trkpt><trkpt lat="44.67878016243303" lon="8.053569908790772"><ele>339.0</ele><time>2026-04-04T12:40:17.999Z</time></trkpt><trkpt lat="44.678628442329874" lon="8.053621872085825"><ele>339.0</ele><time>2026-04-04T12:40:18.999Z</time></trkpt><trkpt lat="44.67847794871147" lon="8.05368554941698"><ele>339.0</ele><time>2026-04-04T12:40:19.999Z</time></trkpt><trkpt lat="44.67832688254624" lon="8.0537567528664"><ele>338.3333333333333</ele><time>2026-04-04T12:40:20.999Z</time></trkpt><trkpt lat="44.67816588027185" lon="8.053835764030435"><ele>337.66666666666663</ele><time>2026-04-04T12:40:21.999Z</time></trkpt><trkpt lat="44.67801721098462" lon="8.053883039847436"><ele>337.0</ele><time>2026-04-04T12:40:22.999Z</time></trkpt><trkpt lat="44.67786708188223" lon="8.05395183126273"><ele>335.66666666666663</ele><time>2026-04-04T12:40:23.999Z</time></trkpt><trkpt lat="44.677712456333374" lon="8.054015862734506"><ele>334.3333333333333</ele><time>2026-04-04T12:40:24.999Z</time></trkpt><trkpt lat="44.6775616887746" lon="8.054068094299293"><ele>333.0</ele><time>2026-04-04T12:40:25.999Z</time></trkpt><trkpt lat="44.67740577867985" lon="8.054109708227037"><ele>340.0</ele><time>2026-04-04T12:40:26.999Z</time></trkpt><trkpt lat="44.677247758338225" lon="8.054140804458179"><ele>347.0</ele><time>2026-04-04T12:40:27.999Z</time></trkpt><trkpt lat="44.67708846266962" lon="8.054154151243338"><ele>354.0</ele><time>2026-04-04T12:40:28.999Z</time></trkpt><trkpt lat="44.67692786375227" lon="8.05415696804228"><ele>354.3333333333333</ele><time>2026-04-04T12:40:29.999Z</time></trkpt><trkpt lat="44.67676832001765" lon="8.054154121070997"><ele>354.66666666666663</ele><time>2026-04-04T12:40:30.999Z</time></trkpt><trkpt lat="44.67660119833093" lon="8.054167029139952"><ele>355.0</ele><time>2026-04-04T12:40:31.999Z</time></trkpt><trkpt lat="44.67643834412123" lon="8.054159728457762"><ele>355.0</ele><time>2026-04-04T12:40:32.999Z</time></trkpt><trkpt lat="44.6762779439153" lon="8.054149929719772"><ele>355.0</ele><time>2026-04-04T12:40:33.999Z</time></trkpt><trkpt lat="44.676130865281486" lon="8.054133299313325"><ele>355.0</ele><time>2026-04-04T12:40:34.999Z</time></trkpt><trkpt lat="44.67598547553919" lon="8.054124588922205"><ele>356.25</ele><time>2026-04-04T12:40:35.999Z</time></trkpt><trkpt lat="44.67584988336669" lon="8.0541211380137"><ele>357.5</ele><time>2026-04-04T12:40:36.999Z</time></trkpt><trkpt lat="44.675725733348834" lon="8.054118002505533"><ele>358.75</ele><time>2026-04-04T12:40:37.999Z</time></trkpt><trkpt lat="44.67561000206932" lon="8.054117893233304"><ele>360.0</ele><time>2026-04-04T12:40:38.999Z</time></trkpt><trkpt lat="44.675491983082416" lon="8.054129146121644"><ele>360.0</ele><time>2026-04-04T12:40:39.999Z</time></trkpt><trkpt lat="44.675367327184965" lon="8.054151460789038"><ele>360.0</ele><time>2026-04-04T12:40:40.999Z</time></trkpt><trkpt lat="44.6752405569295" lon="8.05420974094005"><ele>360.0</ele><time>2026-04-04T12:40:41.999Z</time></trkpt><trkpt lat="44.67511498664178" lon="8.054283639853042"><ele>360.0</ele><time>2026-04-04T12:40:42.999Z</time></trkpt><trkpt lat="44.67500149975343" lon="8.054386048263448"><ele>360.75</ele><time>2026-04-04T12:40:43.999Z</time></trkpt><trkpt lat="44.674895399983924" lon="8.054510979870738"><ele>361.5</ele><time>2026-04-04T12:40:44.999Z</time></trkpt><trkpt lat="44.67479603239046" lon="8.054657793683297"><ele>362.25</ele><time>2026-04-04T12:40:45.999Z</time></trkpt><trkpt lat="44.674699304701065" lon="8.054815201539622"><ele>363.0</ele><time>2026-04-04T12:40:46.999Z</time></trkpt><trkpt lat="44.67460095323948" lon="8.054969038146508"><ele>363.0</ele><time>2026-04-04T12:40:47.999Z</time></trkpt><trkpt lat="44.674500773707344" lon="8.055113927607312"><ele>363.0</ele><time>2026-04-04T12:40:48.999Z</time></trkpt><trkpt lat="44.67439428702326" lon="8.05523559921237"><ele>363.0</ele><time>2026-04-04T12:40:49.999Z</time></trkpt><trkpt lat="44.67427663257871" lon="8.055341113287724"><ele>363.0</ele><time>2026-04-04T12:40:50.999Z</time></trkpt><trkpt lat="44.67414775769613" lon="8.05545548988051"><ele>360.25</ele><time>2026-04-04T12:40:51.999Z</time></trkpt><trkpt lat="44.674022277394094" lon="8.055527971831806"><ele>357.5</ele><time>2026-04-04T12:40:52.999Z</time></trkpt><trkpt lat="44.673886159348335" lon="8.055591767359777"><ele>354.75</ele><time>2026-04-04T12:40:53.999Z</time></trkpt><trkpt lat="44.67374365375422" lon="8.055647566499955"><ele>352.0</ele><time>2026-04-04T12:40:54.999Z</time></trkpt><trkpt lat="44.67359486545318" lon="8.055684354049767"><ele>350.0</ele><time>2026-04-04T12:40:55.999Z</time></trkpt><trkpt lat="44.67344843916295" lon="8.055722979633723"><ele>348.0</ele><time>2026-04-04T12:40:56.999Z</time></trkpt><trkpt lat="44.67330064067431" lon="8.055769100510306"><ele>346.0</ele><time>2026-04-04T12:40:57.999Z</time></trkpt><trkpt lat="44.67316781166851" lon="8.055814248261813"><ele>344.0</ele><time>2026-04-04T12:40:58.999Z</time></trkpt><trkpt lat="44.67303270893791" lon="8.055867774672162"><ele>345.75</ele><time>2026-04-04T12:40:59.999Z</time></trkpt><trkpt lat="44.67290778449711" lon="8.055944678961508"><ele>347.5</ele><time>2026-04-04T12:41:00.999Z</time></trkpt><trkpt lat="44.672794375006376" lon="8.056059751347037"><ele>349.25</ele><time>2026-04-04T12:41:01.999Z</time></trkpt><trkpt lat="44.67269755874326" lon="8.056222936335795"><ele>351.0</ele><time>2026-04-04T12:41:02.999Z</time></trkpt><trkpt lat="44.67259717777228" lon="8.056399909944208"><ele>351.0</ele><time>2026-04-04T12:41:03.999Z</time></trkpt><trkpt lat="44.67251343067995" lon="8.056585183577306"><ele>351.0</ele><time>2026-04-04T12:41:04.999Z</time></trkpt><trkpt lat="44.67243309377822" lon="8.056762766598293"><ele>351.0</ele><time>2026-04-04T12:41:05.999Z</time></trkpt><trkpt lat="44.67236601864602" lon="8.05692742992261"><ele>351.0</ele><time>2026-04-04T12:41:06.999Z</time></trkpt><trkpt lat="44.67229001112537" lon="8.057096189816965"><ele>352.25</ele><time>2026-04-04T12:41:07.999Z</time></trkpt><trkpt lat="44.67219670723587" lon="8.057247631051366"><ele>353.5</ele><time>2026-04-04T12:41:08.999Z</time></trkpt><trkpt lat="44.67209858041615" lon="8.057396227918387"><ele>354.75</ele><time>2026-04-04T12:41:09.999Z</time></trkpt><trkpt lat="44.67198961725157" lon="8.057522248856444"><ele>356.0</ele><time>2026-04-04T12:41:10.999Z</time></trkpt><trkpt lat="44.67186706589653" lon="8.057637225973643"><ele>357.6666666666667</ele><time>2026-04-04T12:41:11.999Z</time></trkpt><trkpt lat="44.671731047883554" lon="8.057734117502243"><ele>359.3333333333333</ele><time>2026-04-04T12:41:12.999Z</time></trkpt><trkpt lat="44.67158431791034" lon="8.05779871502572"><ele>361.0</ele><time>2026-04-04T12:41:13.999Z</time></trkpt><trkpt lat="44.67143591224037" lon="8.057843707211925"><ele>361.0</ele><time>2026-04-04T12:41:14.999Z</time></trkpt><trkpt lat="44.671285256734635" lon="8.05788869988451"><ele>361.0</ele><time>2026-04-04T12:41:15.999Z</time></trkpt><trkpt lat="44.671133496381884" lon="8.057941364609187"><ele>361.0</ele><time>2026-04-04T12:41:16.999Z</time></trkpt><trkpt lat="44.67098042027271" lon="8.0579935340433"><ele>361.0</ele><time>2026-04-04T12:41:17.999Z</time></trkpt><trkpt lat="44.67082750567887" lon="8.058046542506249"><ele>361.0</ele><time>2026-04-04T12:41:18.999Z</time></trkpt><trkpt lat="44.670674640447785" lon="8.058098624927169"><ele>361.0</ele><time>2026-04-04T12:41:19.999Z</time></trkpt><trkpt lat="44.6705209939033" lon="8.058145895585621"><ele>361.0</ele><time>2026-04-04T12:41:20.999Z</time></trkpt><trkpt lat="44.670371227023914" lon="8.058192538970086"><ele>361.0</ele><time>2026-04-04T12:41:21.999Z</time></trkpt><trkpt lat="44.67022690096959" lon="8.05824088126321"><ele>361.0</ele><time>2026-04-04T12:41:22.999Z</time></trkpt><trkpt lat="44.67009151581926" lon="8.058292489261408"><ele>361.0</ele><time>2026-04-04T12:41:23.999Z</time></trkpt><trkpt lat="44.66996324951803" lon="8.058342494858797"><ele>363.5</ele><time>2026-04-04T12:41:24.999Z</time></trkpt><trkpt lat="44.669840389371195" lon="8.058391769476874"><ele>366.0</ele><time>2026-04-04T12:41:25.999Z</time></trkpt><trkpt lat="44.66971953806608" lon="8.058436651665787"><ele>368.5</ele><time>2026-04-04T12:41:26.999Z</time></trkpt><trkpt lat="44.66959215966185" lon="8.058464995675344"><ele>371.0</ele><time>2026-04-04T12:41:27.999Z</time></trkpt><trkpt lat="44.66946113382225" lon="8.058436326634544"><ele>371.0</ele><time>2026-04-04T12:41:28.999Z</time></trkpt><trkpt lat="44.66933727213657" lon="8.058407362124717"><ele>371.0</ele><time>2026-04-04T12:41:29.999Z</time></trkpt><trkpt lat="44.66921192152987" lon="8.058377466685803"><ele>371.0</ele><time>2026-04-04T12:41:30.999Z</time></trkpt><trkpt lat="44.66909866509458" lon="8.058315730507552"><ele>371.0</ele><time>2026-04-04T12:41:31.999Z</time></trkpt><trkpt lat="44.66898994894248" lon="8.058258052976491"><ele>371.0</ele><time>2026-04-04T12:41:32.999Z</time></trkpt><trkpt lat="44.66887489643221" lon="8.058231810701798"><ele>371.0</ele><time>2026-04-04T12:41:33.999Z</time></trkpt><trkpt lat="44.66874715189933" lon="8.05824256392435"><ele>371.0</ele><time>2026-04-04T12:41:34.999Z</time></trkpt><trkpt lat="44.66862010200609" lon="8.058272310414825"><ele>371.0</ele><time>2026-04-04T12:41:35.999Z</time></trkpt><trkpt lat="44.668510409454626" lon="8.058313585055986"><ele>372.1666666666667</ele><time>2026-04-04T12:41:36.999Z</time></trkpt><trkpt lat="44.66841844623817" lon="8.05835779000503"><ele>373.33333333333337</ele><time>2026-04-04T12:41:37.999Z</time></trkpt><trkpt lat="44.668347208301334" lon="8.058406951084107"><ele>374.5</ele><time>2026-04-04T12:41:38.999Z</time></trkpt><trkpt lat="44.66828965181606" lon="8.058451184633455"><ele>375.6666666666667</ele><time>2026-04-04T12:41:39.999Z</time></trkpt><trkpt lat="44.6682301294834" lon="8.058500089363998"><ele>376.8333333333333</ele><time>2026-04-04T12:41:40.999Z</time></trkpt><trkpt lat="44.6681559339631" lon="8.058567169228866"><ele>378.0</ele><time>2026-04-04T12:41:41.999Z</time></trkpt><trkpt lat="44.66806812129409" lon="8.058646470787005"><ele>378.0</ele><time>2026-04-04T12:41:42.999Z</time></trkpt><trkpt lat="44.667969485701676" lon="8.058727018476661"><ele>378.0</ele><time>2026-04-04T12:41:43.999Z</time></trkpt><trkpt lat="44.66786569357693" lon="8.058817129942566"><ele>378.0</ele><time>2026-04-04T12:41:44.999Z</time></trkpt><trkpt lat="44.667754458041756" lon="8.058910413846698"><ele>378.0</ele><time>2026-04-04T12:41:45.999Z</time></trkpt><trkpt lat="44.66764483170031" lon="8.058999499238631"><ele>378.75</ele><time>2026-04-04T12:41:46.998Z</time></trkpt><trkpt lat="44.667545528256774" lon="8.05908410531127"><ele>379.5</ele><time>2026-04-04T12:41:47.998Z</time></trkpt><trkpt lat="44.66745032356983" lon="8.059171744679421"><ele>380.25</ele><time>2026-04-04T12:41:48.998Z</time></trkpt><trkpt lat="44.66735054754938" lon="8.059254085995006"><ele>381.0</ele><time>2026-04-04T12:41:49.998Z</time></trkpt><trkpt lat="44.667245016592034" lon="8.059340467630314"><ele>381.20000000000005</ele><time>2026-04-04T12:41:50.998Z</time></trkpt><trkpt lat="44.667146007555615" lon="8.059426988611241"><ele>381.40000000000003</ele><time>2026-04-04T12:41:51.998Z</time></trkpt><trkpt lat="44.66705793228854" lon="8.05951087056948"><ele>381.6</ele><time>2026-04-04T12:41:52.998Z</time></trkpt><trkpt lat="44.666983073811835" lon="8.059594791220624"><ele>381.8</ele><time>2026-04-04T12:41:53.998Z</time></trkpt><trkpt lat="44.66691768123826" lon="8.0596921868744"><ele>382.0</ele><time>2026-04-04T12:41:54.998Z</time></trkpt><trkpt lat="44.66685625724571" lon="8.059796586445293"><ele>381.8</ele><time>2026-04-04T12:41:55.998Z</time></trkpt><trkpt lat="44.66679901427319" lon="8.05991850191857"><ele>381.6</ele><time>2026-04-04T12:41:56.998Z</time></trkpt><trkpt lat="44.66675561880104" lon="8.06005591093292"><ele>381.40000000000003</ele><time>2026-04-04T12:41:57.998Z</time></trkpt><trkpt lat="44.66671896616987" lon="8.060179008151431"><ele>381.20000000000005</ele><time>2026-04-04T12:41:59Z</time></trkpt><trkpt lat="44.666687477143356" lon="8.06029942930583"><ele>381.0</ele><time>2026-04-04T12:42:00Z</time></trkpt><trkpt lat="44.66665850258533" lon="8.060426111572648"><ele>381.0</ele><time>2026-04-04T12:42:01Z</time></trkpt><trkpt lat="44.66662994405413" lon="8.060544152775632"><ele>381.0</ele><time>2026-04-04T12:42:02Z</time></trkpt><trkpt lat="44.666602585603336" lon="8.060657243721767"><ele>381.0</ele><time>2026-04-04T12:42:03Z</time></trkpt><trkpt lat="44.66656902817903" lon="8.060773721667374"><ele>381.0</ele><time>2026-04-04T12:42:04Z</time></trkpt><trkpt lat="44.6665346704173" lon="8.060874286161248"><ele>381.0</ele><time>2026-04-04T12:42:05Z</time></trkpt><trkpt lat="44.666501629386296" lon="8.06096542307818"><ele>381.0</ele><time>2026-04-04T12:42:06Z</time></trkpt><trkpt lat="44.66646922680095" lon="8.061044168222045"><ele>381.3333333333333</ele><time>2026-04-04T12:42:07Z</time></trkpt><trkpt lat="44.6664243232978" lon="8.061127684437578"><ele>381.6666666666667</ele><time>2026-04-04T12:42:09Z</time></trkpt><trkpt lat="44.6663989518268" lon="8.061265662495527"><ele>382.0</ele><time>2026-04-04T12:42:29Z</time></trkpt><trkpt lat="44.66636126212978" lon="8.061350786031893"><ele>382.33333333333337</ele><time>2026-04-04T12:42:30Z</time></trkpt><trkpt lat="44.666319133419115" lon="8.06147128100375"><ele>382.6666666666667</ele><time>2026-04-04T12:42:31Z</time></trkpt><trkpt lat="44.66628700469232" lon="8.061594768810004"><ele>383.0</ele><time>2026-04-04T12:42:32Z</time></trkpt><trkpt lat="44.666271919153935" lon="8.061715739948104"><ele>384.75</ele><time>2026-04-04T12:42:33Z</time></trkpt><trkpt lat="44.66627337298728" lon="8.06187109220063"><ele>386.5</ele><time>2026-04-04T12:42:34Z</time></trkpt><trkpt lat="44.66627169688376" lon="8.06202538056053"><ele>388.25</ele><time>2026-04-04T12:42:35Z</time></trkpt><trkpt lat="44.66626549320394" lon="8.062189968607965"><ele>390.0</ele><time>2026-04-04T12:42:36Z</time></trkpt><trkpt lat="44.66625930196246" lon="8.0623554460683"><ele>392.0</ele><time>2026-04-04T12:42:37Z</time></trkpt><trkpt lat="44.66624770760507" lon="8.062514116091187"><ele>394.0</ele><time>2026-04-04T12:42:38Z</time></trkpt><trkpt lat="44.66623075003594" lon="8.062670541249918"><ele>396.0</ele><time>2026-04-04T12:42:39Z</time></trkpt><trkpt lat="44.66619402023017" lon="8.062823109023292"><ele>398.0</ele><time>2026-04-04T12:42:40Z</time></trkpt><trkpt lat="44.666130288973704" lon="8.062971344744794"><ele>397.75</ele><time>2026-04-04T12:42:41Z</time></trkpt><trkpt lat="44.66605125022806" lon="8.063104789921443"><ele>397.5</ele><time>2026-04-04T12:42:42Z</time></trkpt><trkpt lat="44.665959944738574" lon="8.063219379721545"><ele>397.25</ele><time>2026-04-04T12:42:43Z</time></trkpt><trkpt lat="44.66583631530279" lon="8.063317797174284"><ele>397.0</ele><time>2026-04-04T12:42:44Z</time></trkpt><trkpt lat="44.665717049415754" lon="8.063372057184898"><ele>397.0</ele><time>2026-04-04T12:42:45Z</time></trkpt><trkpt lat="44.66559012489047" lon="8.063374637329089"><ele>397.0</ele><time>2026-04-04T12:42:46Z</time></trkpt><trkpt lat="44.66545648775501" lon="8.063413030013743"><ele>397.0</ele><time>2026-04-04T12:42:47Z</time></trkpt><trkpt lat="44.665319466813955" lon="8.063434100231557"><ele>397.0</ele><time>2026-04-04T12:42:48Z</time></trkpt><trkpt lat="44.66517988529878" lon="8.063492301490388"><ele>394.0</ele><time>2026-04-04T12:42:48.999Z</time></trkpt><trkpt lat="44.665034675049625" lon="8.063563459782545"><ele>391.0</ele><time>2026-04-04T12:42:49.999Z</time></trkpt><trkpt lat="44.66488772405726" lon="8.063641047280159"><ele>388.0</ele><time>2026-04-04T12:42:50.999Z</time></trkpt><trkpt lat="44.66475500377038" lon="8.063714342030394"><ele>388.0</ele><time>2026-04-04T12:42:51.999Z</time></trkpt><trkpt lat="44.66463066283821" lon="8.06379779063996"><ele>388.0</ele><time>2026-04-04T12:42:52.999Z</time></trkpt><trkpt lat="44.66451076168821" lon="8.06390773115543"><ele>388.0</ele><time>2026-04-04T12:42:53.999Z</time></trkpt><trkpt lat="44.66440131198345" lon="8.06404019124087"><ele>388.0</ele><time>2026-04-04T12:42:54.999Z</time></trkpt><trkpt lat="44.66429404105264" lon="8.064194937140341"><ele>391.0</ele><time>2026-04-04T12:42:55.999Z</time></trkpt><trkpt lat="44.664172473098375" lon="8.06434417822134"><ele>394.0</ele><time>2026-04-04T12:42:56.999Z</time></trkpt><trkpt lat="44.66408246980492" lon="8.064505494967118"><ele>397.0</ele><time>2026-04-04T12:42:57.999Z</time></trkpt><trkpt lat="44.66397869092171" lon="8.06466312553328"><ele>397.0</ele><time>2026-04-04T12:42:58.999Z</time></trkpt><trkpt lat="44.6638752297513" lon="8.064820094919243"><ele>397.0</ele><time>2026-04-04T12:42:59.999Z</time></trkpt><trkpt lat="44.66376849427131" lon="8.064974694177174"><ele>397.0</ele><time>2026-04-04T12:43:00.999Z</time></trkpt><trkpt lat="44.66366638621432" lon="8.065127796875208"><ele>396.25</ele><time>2026-04-04T12:43:01.999Z</time></trkpt><trkpt lat="44.66355903827603" lon="8.0652640044955"><ele>395.5</ele><time>2026-04-04T12:43:02.999Z</time></trkpt><trkpt lat="44.6634383744974" lon="8.065389042739325"><ele>394.75</ele><time>2026-04-04T12:43:03.999Z</time></trkpt><trkpt lat="44.663305533954606" lon="8.065494460099659"><ele>394.0</ele><time>2026-04-04T12:43:04.999Z</time></trkpt><trkpt lat="44.66316552895887" lon="8.06558183531256"><ele>394.0</ele><time>2026-04-04T12:43:05.999Z</time></trkpt><trkpt lat="44.66302000590787" lon="8.065661715922701"><ele>394.0</ele><time>2026-04-04T12:43:06.999Z</time></trkpt><trkpt lat="44.6628702029615" lon="8.0657373016574"><ele>394.0</ele><time>2026-04-04T12:43:07.999Z</time></trkpt><trkpt lat="44.66271991817306" lon="8.065825287177589"><ele>398.6666666666667</ele><time>2026-04-04T12:43:08.999Z</time></trkpt><trkpt lat="44.66257326886714" lon="8.065917777457212"><ele>403.33333333333337</ele><time>2026-04-04T12:43:09.999Z</time></trkpt><trkpt lat="44.6624249059541" lon="8.06600712615318"><ele>408.0</ele><time>2026-04-04T12:43:10.999Z</time></trkpt><trkpt lat="44.66228409829828" lon="8.066096086295858"><ele>408.0</ele><time>2026-04-04T12:43:11.999Z</time></trkpt><trkpt lat="44.66215524603436" lon="8.066173332384674"><ele>408.0</ele><time>2026-04-04T12:43:12.999Z</time></trkpt><trkpt lat="44.662022433550554" lon="8.06624750464923"><ele>408.0</ele><time>2026-04-04T12:43:13.999Z</time></trkpt><trkpt lat="44.66188566832529" lon="8.066307994344996"><ele>408.0</ele><time>2026-04-04T12:43:14.999Z</time></trkpt><trkpt lat="44.66174435297084" lon="8.066308329561805"><ele>408.25</ele><time>2026-04-04T12:43:15.999Z</time></trkpt><trkpt lat="44.661597325530444" lon="8.066310994288914"><ele>408.5</ele><time>2026-04-04T12:43:16.999Z</time></trkpt><trkpt lat="44.66145364362512" lon="8.066276213632927"><ele>408.75</ele><time>2026-04-04T12:43:17.999Z</time></trkpt><trkpt lat="44.66131213233053" lon="8.06621562807576"><ele>409.0</ele><time>2026-04-04T12:43:18.999Z</time></trkpt><trkpt lat="44.66116397835495" lon="8.066170881837122"><ele>410.5</ele><time>2026-04-04T12:43:19.999Z</time></trkpt><trkpt lat="44.661020911885984" lon="8.066091715265946"><ele>412.0</ele><time>2026-04-04T12:43:20.999Z</time></trkpt><trkpt lat="44.6608815544962" lon="8.066019890210155"><ele>413.5</ele><time>2026-04-04T12:43:21.999Z</time></trkpt><trkpt lat="44.66074208680684" lon="8.06596021958566"><ele>415.0</ele><time>2026-04-04T12:43:22.999Z</time></trkpt><trkpt lat="44.660607116393024" lon="8.065921949776612"><ele>415.0</ele><time>2026-04-04T12:43:23.999Z</time></trkpt><trkpt lat="44.660465457600516" lon="8.065908035235045"><ele>415.0</ele><time>2026-04-04T12:43:24.999Z</time></trkpt><trkpt lat="44.660325382452015" lon="8.065922482599419"><ele>415.0</ele><time>2026-04-04T12:43:25.999Z</time></trkpt><trkpt lat="44.660183458440954" lon="8.065957048712514"><ele>415.0</ele><time>2026-04-04T12:43:26.999Z</time></trkpt><trkpt lat="44.660038452663656" lon="8.066015502928066"><ele>414.6666666666667</ele><time>2026-04-04T12:43:27.999Z</time></trkpt><trkpt lat="44.65989669539967" lon="8.066092515996601"><ele>414.33333333333337</ele><time>2026-04-04T12:43:28.999Z</time></trkpt><trkpt lat="44.65975983612337" lon="8.06618673845943"><ele>414.0</ele><time>2026-04-04T12:43:29.999Z</time></trkpt><trkpt lat="44.65963156851502" lon="8.066301337436137"><ele>414.0</ele><time>2026-04-04T12:43:30.999Z</time></trkpt><trkpt lat="44.659514180838556" lon="8.06643840224753"><ele>414.0</ele><time>2026-04-04T12:43:31.999Z</time></trkpt><trkpt lat="44.6594064283402" lon="8.066588869330573"><ele>414.0</ele><time>2026-04-04T12:43:32.999Z</time></trkpt><trkpt lat="44.65930347635915" lon="8.066749404345735"><ele>414.33333333333337</ele><time>2026-04-04T12:43:33.999Z</time></trkpt><trkpt lat="44.65920030475289" lon="8.066911170634171"><ele>414.6666666666667</ele><time>2026-04-04T12:43:34.999Z</time></trkpt><trkpt lat="44.65909626129217" lon="8.067068386467751"><ele>415.0</ele><time>2026-04-04T12:43:35.999Z</time></trkpt><trkpt lat="44.65898338081989" lon="8.067209278317685"><ele>415.0</ele><time>2026-04-04T12:43:36.999Z</time></trkpt><trkpt lat="44.658853003909385" lon="8.06729928591728"><ele>415.0</ele><time>2026-04-04T12:43:37.999Z</time></trkpt><trkpt lat="44.658723351930135" lon="8.067374766988657"><ele>415.0</ele><time>2026-04-04T12:43:38.999Z</time></trkpt><trkpt lat="44.658591896964" lon="8.06742574068458"><ele>415.0</ele><time>2026-04-04T12:43:39.999Z</time></trkpt><trkpt lat="44.65845804022628" lon="8.067445655256336"><ele>416.75</ele><time>2026-04-04T12:43:40.999Z</time></trkpt><trkpt lat="44.65832603294955" lon="8.067458620446837"><ele>418.5</ele><time>2026-04-04T12:43:41.999Z</time></trkpt><trkpt lat="44.65819485493881" lon="8.067469476905503"><ele>420.25</ele><time>2026-04-04T12:43:42.999Z</time></trkpt><trkpt lat="44.65806267262676" lon="8.067491919624368"><ele>422.0</ele><time>2026-04-04T12:43:43.999Z</time></trkpt><trkpt lat="44.65793675150395" lon="8.067499481933776"><ele>422.0</ele><time>2026-04-04T12:43:44.999Z</time></trkpt><trkpt lat="44.657823093691896" lon="8.06750871581329"><ele>422.0</ele><time>2026-04-04T12:43:45.999Z</time></trkpt><trkpt lat="44.6577237871681" lon="8.067529707889577"><ele>422.0</ele><time>2026-04-04T12:43:46.999Z</time></trkpt><trkpt lat="44.657639029342434" lon="8.067575885319762"><ele>422.0</ele><time>2026-04-04T12:43:47.999Z</time></trkpt><trkpt lat="44.657572738215194" lon="8.06765521103095"><ele>422.0</ele><time>2026-04-04T12:43:48.999Z</time></trkpt><trkpt lat="44.65753458447053" lon="8.06777254024285"><ele>421.25</ele><time>2026-04-04T12:43:49.999Z</time></trkpt><trkpt lat="44.65752135170657" lon="8.06791466377559"><ele>420.5</ele><time>2026-04-04T12:43:50.999Z</time></trkpt><trkpt lat="44.65754026048775" lon="8.068085240850694"><ele>419.75</ele><time>2026-04-04T12:43:51.999Z</time></trkpt><trkpt lat="44.65758585539787" lon="8.068238561407759"><ele>419.0</ele><time>2026-04-04T12:43:52.999Z</time></trkpt><trkpt lat="44.65763352563877" lon="8.06841636164253"><ele>419.0</ele><time>2026-04-04T12:43:53.999Z</time></trkpt><trkpt lat="44.657673213844944" lon="8.068574292533695"><ele>419.0</ele><time>2026-04-04T12:43:54.999Z</time></trkpt><trkpt lat="44.65770088246403" lon="8.068731157978355"><ele>419.0</ele><time>2026-04-04T12:43:55.999Z</time></trkpt><trkpt lat="44.65770318688549" lon="8.06888575320036"><ele>419.0</ele><time>2026-04-04T12:43:56.999Z</time></trkpt><trkpt lat="44.65767529694087" lon="8.069052313563297"><ele>419.6</ele><time>2026-04-04T12:43:57.999Z</time></trkpt><trkpt lat="44.65759738959202" lon="8.069175225086209"><ele>420.2</ele><time>2026-04-04T12:43:58.999Z</time></trkpt><trkpt lat="44.65753193356544" lon="8.069310548678061"><ele>420.8</ele><time>2026-04-04T12:43:59.999Z</time></trkpt><trkpt lat="44.657453389090165" lon="8.06939993389929"><ele>421.40000000000003</ele><time>2026-04-04T12:44:00.999Z</time></trkpt><trkpt lat="44.65738725034767" lon="8.069484112868246"><ele>422.0</ele><time>2026-04-04T12:44:01.999Z</time></trkpt><trkpt lat="44.65733364957428" lon="8.06957268065219"><ele>421.99999999999994</ele><time>2026-04-04T12:44:02.999Z</time></trkpt><trkpt lat="44.657300713444215" lon="8.06967162126435"><ele>422.0</ele><time>2026-04-04T12:44:03.999Z</time></trkpt><trkpt lat="44.65728438061402" lon="8.069771367692852"><ele>422.0</ele><time>2026-04-04T12:44:05Z</time></trkpt><trkpt lat="44.65728219480499" lon="8.069871654822768"><ele>422.0</ele><time>2026-04-04T12:44:06Z</time></trkpt><trkpt lat="44.65729188905458" lon="8.069961899328797"><ele>421.99999999999994</ele><time>2026-04-04T12:44:07Z</time></trkpt><trkpt lat="44.65734647728163" lon="8.070108916011547"><ele>422.0</ele><time>2026-04-04T12:44:09Z</time></trkpt><trkpt lat="44.65744117032928" lon="8.070214755117394"><ele>421.8</ele><time>2026-04-04T12:44:11Z</time></trkpt><trkpt lat="44.657514812387326" lon="8.070247597776698"><ele>421.6</ele><time>2026-04-04T12:44:12Z</time></trkpt><trkpt lat="44.657612653731825" lon="8.070268448751838"><ele>421.40000000000003</ele><time>2026-04-04T12:44:13Z</time></trkpt><trkpt lat="44.657713937394476" lon="8.070290190882654"><ele>421.20000000000005</ele><time>2026-04-04T12:44:14Z</time></trkpt><trkpt lat="44.65778147570338" lon="8.070306553376517"><ele>421.0</ele><time>2026-04-04T12:44:15Z</time></trkpt><trkpt lat="44.657910163433876" lon="8.070325757028451"><ele>424.20000000000005</ele><time>2026-04-04T12:44:16Z</time></trkpt><trkpt lat="44.65800358345404" lon="8.070354636842724"><ele>427.40000000000003</ele><time>2026-04-04T12:44:17Z</time></trkpt><trkpt lat="44.65808683563435" lon="8.070399705303068"><ele>430.6</ele><time>2026-04-04T12:44:18Z</time></trkpt><trkpt lat="44.65816845885475" lon="8.070462225543828"><ele>433.8</ele><time>2026-04-04T12:44:19Z</time></trkpt><trkpt lat="44.65823448895836" lon="8.070562873893996"><ele>437.0</ele><time>2026-04-04T12:44:20Z</time></trkpt><trkpt lat="44.658280203155876" lon="8.070699756080828"><ele>435.20000000000005</ele><time>2026-04-04T12:44:21Z</time></trkpt><trkpt lat="44.658303542690454" lon="8.07085237998947"><ele>433.40000000000003</ele><time>2026-04-04T12:44:22Z</time></trkpt><trkpt lat="44.65831170600064" lon="8.07100576387013"><ele>431.59999999999997</ele><time>2026-04-04T12:44:23Z</time></trkpt><trkpt lat="44.65830766423143" lon="8.071157437867475"><ele>429.79999999999995</ele><time>2026-04-04T12:44:24Z</time></trkpt><trkpt lat="44.65828357001688" lon="8.071317858493314"><ele>428.0</ele><time>2026-04-04T12:44:25Z</time></trkpt><trkpt lat="44.658249461737825" lon="8.071482152317987"><ele>428.2</ele><time>2026-04-04T12:44:26Z</time></trkpt><trkpt lat="44.658204841853255" lon="8.07163690928163"><ele>428.4</ele><time>2026-04-04T12:44:27Z</time></trkpt><trkpt lat="44.65817061573369" lon="8.071776559474447"><ele>428.59999999999997</ele><time>2026-04-04T12:44:28Z</time></trkpt><trkpt lat="44.658159771267535" lon="8.071904314659424"><ele>428.79999999999995</ele><time>2026-04-04T12:44:29Z</time></trkpt><trkpt lat="44.65814083667084" lon="8.07202756103798"><ele>429.0</ele><time>2026-04-04T12:44:30Z</time></trkpt><trkpt lat="44.658148845418154" lon="8.072132805487882"><ele>429.0</ele><time>2026-04-04T12:44:31Z</time></trkpt><trkpt lat="44.65818997937138" lon="8.072229639783378"><ele>429.0</ele><time>2026-04-04T12:44:32Z</time></trkpt><trkpt lat="44.658263539738535" lon="8.072298145188272"><ele>429.0</ele><time>2026-04-04T12:44:33Z</time></trkpt><trkpt lat="44.65835467565375" lon="8.072351251908348"><ele>429.0</ele><time>2026-04-04T12:44:34Z</time></trkpt><trkpt lat="44.6584597356199" lon="8.072411748272344"><ele>429.0</ele><time>2026-04-04T12:44:35Z</time></trkpt><trkpt lat="44.65857299581577" lon="8.072484698366743"><ele>430.5</ele><time>2026-04-04T12:44:36Z</time></trkpt><trkpt lat="44.658672962166186" lon="8.072595251862486"><ele>432.0</ele><time>2026-04-04T12:44:37Z</time></trkpt><trkpt lat="44.65877164141307" lon="8.072698754797779"><ele>433.5</ele><time>2026-04-04T12:44:38Z</time></trkpt><trkpt lat="44.658873305337615" lon="8.072799146420223"><ele>435.0</ele><time>2026-04-04T12:44:39Z</time></trkpt><trkpt lat="44.65893722797267" lon="8.072949844582714"><ele>435.0</ele><time>2026-04-04T12:44:40Z</time></trkpt><trkpt lat="44.65901057801401" lon="8.073082024609704"><ele>435.0</ele><time>2026-04-04T12:44:41Z</time></trkpt><trkpt lat="44.65904309629972" lon="8.073243226513016"><ele>435.0</ele><time>2026-04-04T12:44:42Z</time></trkpt><trkpt lat="44.659064302241624" lon="8.073401761480433"><ele>435.0</ele><time>2026-04-04T12:44:43Z</time></trkpt><trkpt lat="44.65906307270037" lon="8.073560666375947"><ele>432.8</ele><time>2026-04-04T12:44:44Z</time></trkpt><trkpt lat="44.65904705577312" lon="8.073707748841384"><ele>430.6</ele><time>2026-04-04T12:44:45Z</time></trkpt><trkpt lat="44.65901837018505" lon="8.073837359681646"><ele>428.4</ele><time>2026-04-04T12:44:46Z</time></trkpt><trkpt lat="44.65896454793633" lon="8.07396157935831"><ele>426.2</ele><time>2026-04-04T12:44:47Z</time></trkpt><trkpt lat="44.65890770762692" lon="8.074114417329803"><ele>424.0</ele><time>2026-04-04T12:44:48Z</time></trkpt><trkpt lat="44.65886146813241" lon="8.074259016217235"><ele>423.75</ele><time>2026-04-04T12:44:49Z</time></trkpt><trkpt lat="44.658831921819775" lon="8.074416013990898"><ele>423.5</ele><time>2026-04-04T12:44:50Z</time></trkpt><trkpt lat="44.65882031000161" lon="8.07459974393607"><ele>423.25</ele><time>2026-04-04T12:44:51Z</time></trkpt><trkpt lat="44.658828361684776" lon="8.07478717327841"><ele>423.0</ele><time>2026-04-04T12:44:52Z</time></trkpt><trkpt lat="44.65883522130136" lon="8.074972670900395"><ele>423.0</ele><time>2026-04-04T12:44:53Z</time></trkpt><trkpt lat="44.65884563445924" lon="8.07514829707839"><ele>423.0</ele><time>2026-04-04T12:44:54Z</time></trkpt><trkpt lat="44.65887334235536" lon="8.075321401749656"><ele>423.0</ele><time>2026-04-04T12:44:55Z</time></trkpt><trkpt lat="44.65892124393078" lon="8.0754933852186"><ele>423.0</ele><time>2026-04-04T12:44:56Z</time></trkpt><trkpt lat="44.65897535959858" lon="8.075647308958596"><ele>422.59999999999997</ele><time>2026-04-04T12:44:57Z</time></trkpt><trkpt lat="44.65902403753858" lon="8.075787607124537"><ele>422.2</ele><time>2026-04-04T12:44:58Z</time></trkpt><trkpt lat="44.65905075679677" lon="8.07592657315294"><ele>421.8</ele><time>2026-04-04T12:44:59Z</time></trkpt><trkpt lat="44.6590514770362" lon="8.076068665867185"><ele>421.4</ele><time>2026-04-04T12:45:00Z</time></trkpt><trkpt lat="44.65901484539198" lon="8.076225387598907"><ele>421.0</ele><time>2026-04-04T12:45:01Z</time></trkpt><trkpt lat="44.65897345879947" lon="8.07637897270763"><ele>421.0</ele><time>2026-04-04T12:45:02Z</time></trkpt><trkpt lat="44.65892282470762" lon="8.07651257221113"><ele>421.0</ele><time>2026-04-04T12:45:03Z</time></trkpt><trkpt lat="44.65889980973704" lon="8.076647056375249"><ele>421.0</ele><time>2026-04-04T12:45:04Z</time></trkpt><trkpt lat="44.658890146938894" lon="8.076806964085161"><ele>421.0</ele><time>2026-04-04T12:45:05Z</time></trkpt><trkpt lat="44.658904990703434" lon="8.076982483734678"><ele>421.0</ele><time>2026-04-04T12:45:06Z</time></trkpt><trkpt lat="44.65892108824119" lon="8.077170102751847"><ele>421.25</ele><time>2026-04-04T12:45:07Z</time></trkpt><trkpt lat="44.6589455607816" lon="8.077337465321012"><ele>421.5</ele><time>2026-04-04T12:45:08Z</time></trkpt><trkpt lat="44.65897881198264" lon="8.077490650150729"><ele>421.75</ele><time>2026-04-04T12:45:09Z</time></trkpt><trkpt lat="44.65902996815118" lon="8.077650967430493"><ele>422.0</ele><time>2026-04-04T12:45:09.999Z</time></trkpt><trkpt lat="44.659109971725826" lon="8.077802678517289"><ele>421.25</ele><time>2026-04-04T12:45:10.999Z</time></trkpt><trkpt lat="44.65920374944125" lon="8.07794570216483"><ele>420.5</ele><time>2026-04-04T12:45:11.999Z</time></trkpt><trkpt lat="44.65929579010256" lon="8.078096068452242"><ele>419.75</ele><time>2026-04-04T12:45:12.999Z</time></trkpt><trkpt lat="44.659381701373476" lon="8.078263235996165"><ele>419.0</ele><time>2026-04-04T12:45:13.999Z</time></trkpt><trkpt lat="44.65945916482625" lon="8.078442736470318"><ele>421.3333333333333</ele><time>2026-04-04T12:45:14.999Z</time></trkpt><trkpt lat="44.65952724573786" lon="8.078636023576516"><ele>423.66666666666663</ele><time>2026-04-04T12:45:15.999Z</time></trkpt><trkpt lat="44.65958563521854" lon="8.078834259186074"><ele>426.0</ele><time>2026-04-04T12:45:16.999Z</time></trkpt><trkpt lat="44.659617646776844" lon="8.079051783760724"><ele>424.0</ele><time>2026-04-04T12:45:17.999Z</time></trkpt><trkpt lat="44.65966134206346" lon="8.079266609849796"><ele>422.0</ele><time>2026-04-04T12:45:18.999Z</time></trkpt><trkpt lat="44.65971938750897" lon="8.079479528765608"><ele>420.0</ele><time>2026-04-04T12:45:19.999Z</time></trkpt><trkpt lat="44.65975698320109" lon="8.079698317597265"><ele>420.0</ele><time>2026-04-04T12:45:20.999Z</time></trkpt><trkpt lat="44.65979455799898" lon="8.07991418312"><ele>420.0</ele><time>2026-04-04T12:45:21.999Z</time></trkpt><trkpt lat="44.65982924599487" lon="8.080130092225055"><ele>420.0</ele><time>2026-04-04T12:45:22.999Z</time></trkpt><trkpt lat="44.65985933714636" lon="8.08034101255257"><ele>418.0</ele><time>2026-04-04T12:45:23.999Z</time></trkpt><trkpt lat="44.65987680586653" lon="8.080540743315934"><ele>416.0</ele><time>2026-04-04T12:45:24.999Z</time></trkpt><trkpt lat="44.65989226506654" lon="8.080736369378826"><ele>414.0</ele><time>2026-04-04T12:45:25.999Z</time></trkpt><trkpt lat="44.65990614038153" lon="8.080935048445575"><ele>412.0</ele><time>2026-04-04T12:45:26.999Z</time></trkpt><trkpt lat="44.659916230043585" lon="8.08113031648339"><ele>412.0</ele><time>2026-04-04T12:45:27.999Z</time></trkpt><trkpt lat="44.65992427672251" lon="8.081316582541515"><ele>412.0</ele><time>2026-04-04T12:45:28.999Z</time></trkpt><trkpt lat="44.659930571401" lon="8.081482610251388"><ele>412.0</ele><time>2026-04-04T12:45:29.999Z</time></trkpt><trkpt lat="44.659940557341294" lon="8.081637145278775"><ele>412.0</ele><time>2026-04-04T12:45:30.999Z</time></trkpt><trkpt lat="44.659935020646664" lon="8.08177331901064"><ele>412.0</ele><time>2026-04-04T12:45:31.999Z</time></trkpt><trkpt lat="44.65991724835922" lon="8.081897729854722"><ele>412.0</ele><time>2026-04-04T12:45:32.999Z</time></trkpt><trkpt lat="44.659874470409186" lon="8.082017619000242"><ele>412.0</ele><time>2026-04-04T12:45:33.999Z</time></trkpt><trkpt lat="44.65981272106833" lon="8.082130274612748"><ele>412.0</ele><time>2026-04-04T12:45:34.999Z</time></trkpt><trkpt lat="44.65974638330186" lon="8.082242514161722"><ele>412.0</ele><time>2026-04-04T12:45:35.999Z</time></trkpt><trkpt lat="44.65969985837597" lon="8.082376169121963"><ele>413.75</ele><time>2026-04-04T12:45:36.999Z</time></trkpt><trkpt lat="44.65967702523299" lon="8.082534460631857"><ele>415.5</ele><time>2026-04-04T12:45:37.999Z</time></trkpt><trkpt lat="44.65966417645889" lon="8.082706203530044"><ele>417.25</ele><time>2026-04-04T12:45:38.999Z</time></trkpt><trkpt lat="44.65965556740654" lon="8.082879427534046"><ele>419.0</ele><time>2026-04-04T12:45:39.999Z</time></trkpt><trkpt lat="44.659661886430335" lon="8.083039396354506"><ele>419.0</ele><time>2026-04-04T12:45:40.999Z</time></trkpt><trkpt lat="44.65968482245928" lon="8.083199153873652"><ele>419.0</ele><time>2026-04-04T12:45:41.999Z</time></trkpt><trkpt lat="44.659740594970444" lon="8.083351790466837"><ele>419.0</ele><time>2026-04-04T12:45:42.999Z</time></trkpt><trkpt lat="44.65980986215696" lon="8.083504947727443"><ele>419.0</ele><time>2026-04-04T12:45:43.999Z</time></trkpt><trkpt lat="44.659891424424444" lon="8.08365328991371"><ele>418.75</ele><time>2026-04-04T12:45:44.999Z</time></trkpt><trkpt lat="44.659968609228116" lon="8.083805792080176"><ele>418.5</ele><time>2026-04-04T12:45:45.999Z</time></trkpt><trkpt lat="44.66003515067608" lon="8.083969882379176"><ele>418.25</ele><time>2026-04-04T12:45:46.999Z</time></trkpt><trkpt lat="44.66008998822763" lon="8.084138312547575"><ele>418.0</ele><time>2026-04-04T12:45:47.999Z</time></trkpt><trkpt lat="44.66011589118526" lon="8.084316593516064"><ele>418.0</ele><time>2026-04-04T12:45:48.999Z</time></trkpt><trkpt lat="44.660143698609936" lon="8.084490537011998"><ele>418.0</ele><time>2026-04-04T12:45:49.999Z</time></trkpt><trkpt lat="44.660162321034505" lon="8.084663876332467"><ele>418.0</ele><time>2026-04-04T12:45:50.999Z</time></trkpt><trkpt lat="44.660173168641336" lon="8.08484128382884"><ele>418.0</ele><time>2026-04-04T12:45:51.999Z</time></trkpt><trkpt lat="44.660196173101134" lon="8.085022936108837"><ele>417.25</ele><time>2026-04-04T12:45:52.999Z</time></trkpt><trkpt lat="44.660199959845315" lon="8.085209950221097"><ele>416.5</ele><time>2026-04-04T12:45:53.999Z</time></trkpt><trkpt lat="44.660201705058306" lon="8.085399667405033"><ele>415.75</ele><time>2026-04-04T12:45:54.999Z</time></trkpt><trkpt lat="44.66021281212943" lon="8.085590879225004"><ele>415.0</ele><time>2026-04-04T12:45:55.999Z</time></trkpt><trkpt lat="44.660227132972636" lon="8.085782675737166"><ele>414.5</ele><time>2026-04-04T12:45:56.999Z</time></trkpt><trkpt lat="44.66023443516598" lon="8.085976762450164"><ele>414.0</ele><time>2026-04-04T12:45:57.999Z</time></trkpt><trkpt lat="44.66023483470168" lon="8.086172276389986"><ele>413.5</ele><time>2026-04-04T12:45:58.999Z</time></trkpt><trkpt lat="44.6602306078739" lon="8.086375903050284"><ele>413.0</ele><time>2026-04-04T12:45:59.999Z</time></trkpt><trkpt lat="44.66022242786646" lon="8.086589204223012"><ele>415.0</ele><time>2026-04-04T12:46:00.999Z</time></trkpt><trkpt lat="44.66020516701002" lon="8.086802453607666"><ele>417.0</ele><time>2026-04-04T12:46:01.999Z</time></trkpt><trkpt lat="44.660182513626694" lon="8.087025914730681"><ele>419.0</ele><time>2026-04-04T12:46:02.999Z</time></trkpt><trkpt lat="44.66015770730761" lon="8.087240955965331"><ele>421.66666666666663</ele><time>2026-04-04T12:46:03.999Z</time></trkpt><trkpt lat="44.6601299853029" lon="8.087481718529636"><ele>424.33333333333337</ele><time>2026-04-04T12:46:04.999Z</time></trkpt><trkpt lat="44.66010603588529" lon="8.08770348998632"><ele>427.0</ele><time>2026-04-04T12:46:05.999Z</time></trkpt><trkpt lat="44.66008945076532" lon="8.08792729771066"><ele>427.0</ele><time>2026-04-04T12:46:06.999Z</time></trkpt><trkpt lat="44.66005781419739" lon="8.088145142845798"><ele>427.0</ele><time>2026-04-04T12:46:07.999Z</time></trkpt><trkpt lat="44.66003043172377" lon="8.088354095268615"><ele>427.0</ele><time>2026-04-04T12:46:08.999Z</time></trkpt><trkpt lat="44.65999233210274" lon="8.088559781659248"><ele>429.33333333333337</ele><time>2026-04-04T12:46:09.999Z</time></trkpt><trkpt lat="44.65993575551849" lon="8.08876109387531"><ele>431.66666666666663</ele><time>2026-04-04T12:46:11Z</time></trkpt><trkpt lat="44.65986191033691" lon="8.088959576368897"><ele>434.0</ele><time>2026-04-04T12:46:12Z</time></trkpt><trkpt lat="44.65977675406592" lon="8.089153049288266"><ele>438.3333333333333</ele><time>2026-04-04T12:46:13Z</time></trkpt><trkpt lat="44.65968577395849" lon="8.089345002382103"><ele>442.66666666666663</ele><time>2026-04-04T12:46:14Z</time></trkpt><trkpt lat="44.65959689556401" lon="8.089539649442118"><ele>447.0</ele><time>2026-04-04T12:46:15Z</time></trkpt><trkpt lat="44.65950967165989" lon="8.089731917393472"><ele>445.75</ele><time>2026-04-04T12:46:16Z</time></trkpt><trkpt lat="44.65943422356341" lon="8.089913239563113"><ele>444.5</ele><time>2026-04-04T12:46:17Z</time></trkpt><trkpt lat="44.65936479887758" lon="8.090084139870154"><ele>443.25</ele><time>2026-04-04T12:46:18Z</time></trkpt><trkpt lat="44.65929395350773" lon="8.090240364395735"><ele>442.0</ele><time>2026-04-04T12:46:19Z</time></trkpt><trkpt lat="44.65921072859334" lon="8.09038306768756"><ele>442.0</ele><time>2026-04-04T12:46:20Z</time></trkpt><trkpt lat="44.65911331708943" lon="8.090513453209612"><ele>442.0</ele><time>2026-04-04T12:46:21Z</time></trkpt><trkpt lat="44.659003961944336" lon="8.090621317437131"><ele>442.0</ele><time>2026-04-04T12:46:22Z</time></trkpt><trkpt lat="44.658885340315294" lon="8.090702426731395"><ele>442.0</ele><time>2026-04-04T12:46:23Z</time></trkpt><trkpt lat="44.65875929401902" lon="8.090753621368215"><ele>444.20000000000005</ele><time>2026-04-04T12:46:24Z</time></trkpt><trkpt lat="44.658631347127084" lon="8.090776582978679"><ele>446.40000000000003</ele><time>2026-04-04T12:46:25Z</time></trkpt><trkpt lat="44.65851475012347" lon="8.090791627799263"><ele>448.59999999999997</ele><time>2026-04-04T12:46:26Z</time></trkpt><trkpt lat="44.658424534377716" lon="8.090827505855172"><ele>450.79999999999995</ele><time>2026-04-04T12:46:27Z</time></trkpt><trkpt lat="44.65835663445629" lon="8.09089711016056"><ele>453.0</ele><time>2026-04-04T12:46:28Z</time></trkpt><trkpt lat="44.658324937848654" lon="8.090997599594884"><ele>453.0</ele><time>2026-04-04T12:46:29Z</time></trkpt><trkpt lat="44.658327464485026" lon="8.09112430291805"><ele>452.99999999999994</ele><time>2026-04-04T12:46:30Z</time></trkpt><trkpt lat="44.658363493557204" lon="8.091240670998545"><ele>452.99999999999994</ele><time>2026-04-04T12:46:31Z</time></trkpt><trkpt lat="44.65843724254349" lon="8.09132075283908"><ele>453.0</ele><time>2026-04-04T12:46:32Z</time></trkpt><trkpt lat="44.65853473657427" lon="8.09136612474641"><ele>453.0</ele><time>2026-04-04T12:46:33Z</time></trkpt><trkpt lat="44.65864024583663" lon="8.091405618354388"><ele>453.0</ele><time>2026-04-04T12:46:34Z</time></trkpt><trkpt lat="44.65871909573675" lon="8.091482996737005"><ele>452.99999999999994</ele><time>2026-04-04T12:46:35Z</time></trkpt><trkpt lat="44.65878855116362" lon="8.091557407469848"><ele>452.99999999999994</ele><time>2026-04-04T12:46:36Z</time></trkpt><trkpt lat="44.65883971480259" lon="8.09166738806983"><ele>453.0</ele><time>2026-04-04T12:46:37Z</time></trkpt><trkpt lat="44.65889205084462" lon="8.091790997165392"><ele>453.0</ele><time>2026-04-04T12:46:38Z</time></trkpt><trkpt lat="44.65890228825108" lon="8.091942505185756"><ele>453.5</ele><time>2026-04-04T12:46:39Z</time></trkpt><trkpt lat="44.658894955702884" lon="8.092096677979969"><ele>454.0</ele><time>2026-04-04T12:46:40Z</time></trkpt><trkpt lat="44.658864619138186" lon="8.092250337275377"><ele>454.5</ele><time>2026-04-04T12:46:41Z</time></trkpt><trkpt lat="44.65882712417286" lon="8.092402989961775"><ele>455.0</ele><time>2026-04-04T12:46:42Z</time></trkpt><trkpt lat="44.65879702936712" lon="8.092561670150943"><ele>455.25</ele><time>2026-04-04T12:46:43Z</time></trkpt><trkpt lat="44.658769406688215" lon="8.092726384553323"><ele>455.5</ele><time>2026-04-04T12:46:44Z</time></trkpt><trkpt lat="44.6587502070254" lon="8.092910970582286"><ele>455.75</ele><time>2026-04-04T12:46:45Z</time></trkpt><trkpt lat="44.658716915068354" lon="8.093076816750969"><ele>456.0</ele><time>2026-04-04T12:46:46Z</time></trkpt><trkpt lat="44.65870824606679" lon="8.093260987927092"><ele>456.25</ele><time>2026-04-04T12:46:47Z</time></trkpt><trkpt lat="44.65871607935371" lon="8.093444233798568"><ele>456.5</ele><time>2026-04-04T12:46:48Z</time></trkpt><trkpt lat="44.65873299396037" lon="8.093608738426799"><ele>456.75</ele><time>2026-04-04T12:46:49Z</time></trkpt><trkpt lat="44.658747701197775" lon="8.093758056380988"><ele>457.0</ele><time>2026-04-04T12:46:50Z</time></trkpt><trkpt lat="44.65874279851821" lon="8.09389666983791"><ele>457.0</ele><time>2026-04-04T12:46:51Z</time></trkpt><trkpt lat="44.6587258543166" lon="8.094040759800258"><ele>457.00000000000006</ele><time>2026-04-04T12:46:52Z</time></trkpt><trkpt lat="44.65868194587765" lon="8.094163037301854"><ele>457.00000000000006</ele><time>2026-04-04T12:46:53Z</time></trkpt><trkpt lat="44.658606746784045" lon="8.094287637294826"><ele>457.0</ele><time>2026-04-04T12:46:54Z</time></trkpt><trkpt lat="44.65852148141953" lon="8.094410157864116"><ele>457.0</ele><time>2026-04-04T12:46:55Z</time></trkpt><trkpt lat="44.658424412532604" lon="8.09454194071354"><ele>462.25</ele><time>2026-04-04T12:46:56Z</time></trkpt><trkpt lat="44.65832730873179" lon="8.094681096673936"><ele>467.5</ele><time>2026-04-04T12:46:57Z</time></trkpt><trkpt lat="44.65823253454335" lon="8.094825219676421"><ele>472.75</ele><time>2026-04-04T12:46:58Z</time></trkpt><trkpt lat="44.65813975452777" lon="8.09497407529457"><ele>478.0</ele><time>2026-04-04T12:46:59Z</time></trkpt><trkpt lat="44.6580505744254" lon="8.095126828332367"><ele>478.0</ele><time>2026-04-04T12:47:00Z</time></trkpt><trkpt lat="44.65795687977361" lon="8.095279954618949"><ele>478.0</ele><time>2026-04-04T12:47:01Z</time></trkpt><trkpt lat="44.65786703481704" lon="8.095419990132552"><ele>478.0</ele><time>2026-04-04T12:47:02Z</time></trkpt><trkpt lat="44.65778349288541" lon="8.095576830151142"><ele>478.0</ele><time>2026-04-04T12:47:03Z</time></trkpt><trkpt lat="44.65771806917325" lon="8.095731601846847"><ele>478.75</ele><time>2026-04-04T12:47:04Z</time></trkpt><trkpt lat="44.65766351404916" lon="8.095893211549757"><ele>479.5</ele><time>2026-04-04T12:47:05Z</time></trkpt><trkpt lat="44.657622619432416" lon="8.096062828345895"><ele>480.25</ele><time>2026-04-04T12:47:06Z</time></trkpt><trkpt lat="44.65760257801997" lon="8.096260847836541"><ele>481.0</ele><time>2026-04-04T12:47:07Z</time></trkpt><trkpt lat="44.65759595916969" lon="8.096429091927627"><ele>480.75</ele><time>2026-04-04T12:47:08Z</time></trkpt><trkpt lat="44.657599213560815" lon="8.096624225487306"><ele>480.5</ele><time>2026-04-04T12:47:09Z</time></trkpt><trkpt lat="44.657609364656494" lon="8.096801033414955"><ele>480.25</ele><time>2026-04-04T12:47:09.999Z</time></trkpt><trkpt lat="44.65763732101296" lon="8.096979084505163"><ele>480.0</ele><time>2026-04-04T12:47:10.999Z</time></trkpt><trkpt lat="44.65766355406552" lon="8.09715861652974"><ele>480.0</ele><time>2026-04-04T12:47:11.999Z</time></trkpt><trkpt lat="44.65769072650222" lon="8.097334004473218"><ele>480.0</ele><time>2026-04-04T12:47:12.999Z</time></trkpt><trkpt lat="44.657715994559645" lon="8.097515492460817"><ele>480.0</ele><time>2026-04-04T12:47:13.999Z</time></trkpt><trkpt lat="44.657729706454916" lon="8.097696056347809"><ele>480.0</ele><time>2026-04-04T12:47:14.999Z</time></trkpt><trkpt lat="44.65774963432436" lon="8.097872295535698"><ele>480.1666666666667</ele><time>2026-04-04T12:47:15.999Z</time></trkpt><trkpt lat="44.657768703728024" lon="8.098027315519303"><ele>480.33333333333337</ele><time>2026-04-04T12:47:16.999Z</time></trkpt><trkpt lat="44.657792508237506" lon="8.098167505563056"><ele>480.5</ele><time>2026-04-04T12:47:17.999Z</time></trkpt><trkpt lat="44.65781674252411" lon="8.098286253268814"><ele>480.6666666666667</ele><time>2026-04-04T12:47:18.999Z</time></trkpt><trkpt lat="44.65783047146506" lon="8.09838952558567"><ele>480.83333333333337</ele><time>2026-04-04T12:47:19.999Z</time></trkpt><trkpt lat="44.65782621892997" lon="8.098481844750463"><ele>481.0</ele><time>2026-04-04T12:47:20.999Z</time></trkpt><trkpt lat="44.65778970122923" lon="8.098659159617245"><ele>483.20000000000005</ele><time>2026-04-04T12:47:22.999Z</time></trkpt><trkpt lat="44.657738425829756" lon="8.098763141347543"><ele>485.40000000000003</ele><time>2026-04-04T12:47:23.999Z</time></trkpt><trkpt lat="44.65766739858774" lon="8.098859449924538"><ele>487.6</ele><time>2026-04-04T12:47:24.999Z</time></trkpt><trkpt lat="44.657588805053344" lon="8.098978780271302"><ele>489.8</ele><time>2026-04-04T12:47:25.999Z</time></trkpt><trkpt lat="44.657487167303636" lon="8.099086668740425"><ele>492.0</ele><time>2026-04-04T12:47:26.999Z</time></trkpt><trkpt lat="44.65737716289016" lon="8.099197747226349"><ele>490.75</ele><time>2026-04-04T12:47:27.999Z</time></trkpt><trkpt lat="44.65727091020992" lon="8.099313296596849"><ele>489.5</ele><time>2026-04-04T12:47:28.999Z</time></trkpt><trkpt lat="44.6571673281122" lon="8.099426197913102"><ele>488.25</ele><time>2026-04-04T12:47:29.999Z</time></trkpt><trkpt lat="44.65706072820235" lon="8.099538713810245"><ele>487.0</ele><time>2026-04-04T12:47:30.999Z</time></trkpt><trkpt lat="44.65695194547935" lon="8.099649536430602"><ele>487.0</ele><time>2026-04-04T12:47:31.999Z</time></trkpt><trkpt lat="44.65684737821928" lon="8.099761427004696"><ele>487.0</ele><time>2026-04-04T12:47:32.999Z</time></trkpt><trkpt lat="44.656748675696086" lon="8.099871314125007"><ele>487.0</ele><time>2026-04-04T12:47:33.999Z</time></trkpt><trkpt lat="44.656646302572724" lon="8.099973257662668"><ele>487.0</ele><time>2026-04-04T12:47:34.999Z</time></trkpt><trkpt lat="44.65653872416754" lon="8.100039208589864"><ele>488.0</ele><time>2026-04-04T12:47:35.999Z</time></trkpt><trkpt lat="44.65643461073084" lon="8.1000979656822"><ele>489.00000000000006</ele><time>2026-04-04T12:47:36.999Z</time></trkpt><trkpt lat="44.65633221719023" lon="8.100142840589612"><ele>490.00000000000006</ele><time>2026-04-04T12:47:37.999Z</time></trkpt><trkpt lat="44.65623079499613" lon="8.100203075991425"><ele>491.0</ele><time>2026-04-04T12:47:38.999Z</time></trkpt><trkpt lat="44.656126099049075" lon="8.100231366686534"><ele>492.0</ele><time>2026-04-04T12:47:39.999Z</time></trkpt><trkpt lat="44.656037263513674" lon="8.1002772206311"><ele>492.0</ele><time>2026-04-04T12:47:40.999Z</time></trkpt><trkpt lat="44.655964765568356" lon="8.100356421182283"><ele>492.00000000000006</ele><time>2026-04-04T12:47:41.999Z</time></trkpt><trkpt lat="44.65591585547503" lon="8.100477391689495"><ele>492.00000000000006</ele><time>2026-04-04T12:47:42.999Z</time></trkpt><trkpt lat="44.655898027944524" lon="8.100635038027818"><ele>492.0</ele><time>2026-04-04T12:47:43.999Z</time></trkpt><trkpt lat="44.655898808086505" lon="8.100816379608743"><ele>492.0</ele><time>2026-04-04T12:47:44.999Z</time></trkpt><trkpt lat="44.655898023542235" lon="8.101015253893504"><ele>496.0</ele><time>2026-04-04T12:47:45.999Z</time></trkpt><trkpt lat="44.65588051939652" lon="8.101223665235601"><ele>500.0</ele><time>2026-04-04T12:47:46.999Z</time></trkpt><trkpt lat="44.65584802695575" lon="8.101436922221964"><ele>504.0</ele><time>2026-04-04T12:47:47.999Z</time></trkpt><trkpt lat="44.65580795523834" lon="8.101650847926814"><ele>508.0</ele><time>2026-04-04T12:47:48.999Z</time></trkpt><trkpt lat="44.65575972002767" lon="8.101865486303598"><ele>512.0</ele><time>2026-04-04T12:47:49.999Z</time></trkpt><trkpt lat="44.65570507116583" lon="8.102074631916615"><ele>516.0</ele><time>2026-04-04T12:47:50.999Z</time></trkpt><trkpt lat="44.65563821498035" lon="8.102262888772215"><ele>518.5</ele><time>2026-04-04T12:47:51.999Z</time></trkpt><trkpt lat="44.65555898486824" lon="8.102420873500721"><ele>521.0</ele><time>2026-04-04T12:47:52.999Z</time></trkpt><trkpt lat="44.65546837862181" lon="8.102547726470656"><ele>523.5</ele><time>2026-04-04T12:47:53.999Z</time></trkpt><trkpt lat="44.65538133587235" lon="8.102665281625073"><ele>526.0</ele><time>2026-04-04T12:47:54.999Z</time></trkpt><trkpt lat="44.655309386771656" lon="8.102782838792281"><ele>523.5</ele><time>2026-04-04T12:47:55.999Z</time></trkpt><trkpt lat="44.65525394403202" lon="8.10292441636734"><ele>521.0</ele><time>2026-04-04T12:47:56.999Z</time></trkpt><trkpt lat="44.65522446442446" lon="8.103092527549105"><ele>518.5</ele><time>2026-04-04T12:47:57.999Z</time></trkpt><trkpt lat="44.65521309142534" lon="8.103275901199646"><ele>516.0</ele><time>2026-04-04T12:47:58.999Z</time></trkpt><trkpt lat="44.65521023621398" lon="8.103472699907972"><ele>516.0</ele><time>2026-04-04T12:47:59.999Z</time></trkpt><trkpt lat="44.65520698765067" lon="8.103662446435337"><ele>516.0</ele><time>2026-04-04T12:48:00.999Z</time></trkpt><trkpt lat="44.655211356477835" lon="8.103851008839998"><ele>516.0</ele><time>2026-04-04T12:48:01.999Z</time></trkpt><trkpt lat="44.65523600911022" lon="8.104038877774688"><ele>516.0</ele><time>2026-04-04T12:48:02.999Z</time></trkpt><trkpt lat="44.65527740331882" lon="8.104229798263228"><ele>519.75</ele><time>2026-04-04T12:48:03.999Z</time></trkpt><trkpt lat="44.655317890997594" lon="8.104416684833373"><ele>523.5</ele><time>2026-04-04T12:48:04.999Z</time></trkpt><trkpt lat="44.655330813526646" lon="8.1046055776574"><ele>527.25</ele><time>2026-04-04T12:48:05.999Z</time></trkpt><trkpt lat="44.65529558448626" lon="8.104795322487936"><ele>531.0</ele><time>2026-04-04T12:48:06.999Z</time></trkpt><trkpt lat="44.655273090412" lon="8.104994359275564"><ele>531.0</ele><time>2026-04-04T12:48:07.999Z</time></trkpt><trkpt lat="44.65522267256189" lon="8.105181390784614"><ele>531.0</ele><time>2026-04-04T12:48:08.999Z</time></trkpt><trkpt lat="44.65517847437006" lon="8.105363114355322"><ele>531.0</ele><time>2026-04-04T12:48:09.999Z</time></trkpt><trkpt lat="44.655139931488044" lon="8.105538199204187"><ele>531.0</ele><time>2026-04-04T12:48:10.999Z</time></trkpt><trkpt lat="44.65509551802924" lon="8.105702735354646"><ele>533.25</ele><time>2026-04-04T12:48:11.999Z</time></trkpt><trkpt lat="44.6550229241798" lon="8.105846562490344"><ele>535.5</ele><time>2026-04-04T12:48:12.999Z</time></trkpt><trkpt lat="44.654948640285895" lon="8.105993223481677"><ele>537.75</ele><time>2026-04-04T12:48:13.999Z</time></trkpt><trkpt lat="44.65487412428311" lon="8.10614152488249"><ele>540.0</ele><time>2026-04-04T12:48:14.999Z</time></trkpt><trkpt lat="44.654775851396494" lon="8.106265792576563"><ele>540.0</ele><time>2026-04-04T12:48:15.999Z</time></trkpt><trkpt lat="44.654671691000026" lon="8.106381129741397"><ele>540.0</ele><time>2026-04-04T12:48:17Z</time></trkpt><trkpt lat="44.65455644706439" lon="8.106493649307156"><ele>540.0</ele><time>2026-04-04T12:48:18Z</time></trkpt><trkpt lat="44.654437398229874" lon="8.106598837576682"><ele>540.0</ele><time>2026-04-04T12:48:19Z</time></trkpt><trkpt lat="44.654338698890015" lon="8.10668719238284"><ele>540.8333333333334</ele><time>2026-04-04T12:48:20Z</time></trkpt><trkpt lat="44.654252206368824" lon="8.106762779945413"><ele>541.6666666666666</ele><time>2026-04-04T12:48:21Z</time></trkpt><trkpt lat="44.65419800523109" lon="8.106842634505215"><ele>542.5</ele><time>2026-04-04T12:48:22Z</time></trkpt><trkpt lat="44.65417478044558" lon="8.106933740530607"><ele>543.3333333333333</ele><time>2026-04-04T12:48:23Z</time></trkpt><trkpt lat="44.65419474892148" lon="8.10704983548778"><ele>544.1666666666666</ele><time>2026-04-04T12:48:24Z</time></trkpt><trkpt lat="44.654253462196046" lon="8.107155874212404"><ele>545.0</ele><time>2026-04-04T12:48:25Z</time></trkpt><trkpt lat="44.65434189846" lon="8.107222965810461"><ele>545.0</ele><time>2026-04-04T12:48:26Z</time></trkpt><trkpt lat="44.65444175988152" lon="8.107241294102408"><ele>545.0</ele><time>2026-04-04T12:48:27Z</time></trkpt><trkpt lat="44.65455796792472" lon="8.107219765561995"><ele>545.0</ele><time>2026-04-04T12:48:28Z</time></trkpt><trkpt lat="44.654684303118415" lon="8.107207082169367"><ele>545.0</ele><time>2026-04-04T12:48:29Z</time></trkpt><trkpt lat="44.65481781596049" lon="8.107200868645634"><ele>546.0</ele><time>2026-04-04T12:48:30Z</time></trkpt><trkpt lat="44.6549559072254" lon="8.107176658835003"><ele>547.0</ele><time>2026-04-04T12:48:31Z</time></trkpt><trkpt lat="44.65509242847445" lon="8.107122440609105"><ele>548.0</ele><time>2026-04-04T12:48:32Z</time></trkpt><trkpt lat="44.655225925344396" lon="8.107056036593697"><ele>549.0</ele><time>2026-04-04T12:48:33Z</time></trkpt><trkpt lat="44.65535981906995" lon="8.10698964494276"><ele>550.75</ele><time>2026-04-04T12:48:34Z</time></trkpt><trkpt lat="44.65548207065625" lon="8.106907480412803"><ele>552.5</ele><time>2026-04-04T12:48:35Z</time></trkpt><trkpt lat="44.655598078191545" lon="8.106823324163585"><ele>554.25</ele><time>2026-04-04T12:48:36Z</time></trkpt><trkpt lat="44.655697440714206" lon="8.106730665976094"><ele>556.0</ele><time>2026-04-04T12:48:37Z</time></trkpt><trkpt lat="44.65577345734762" lon="8.106668457958872"><ele>556.0</ele><time>2026-04-04T12:48:38Z</time></trkpt><trkpt lat="44.655835284622" lon="8.106635342356272"><ele>556.0</ele><time>2026-04-04T12:48:39Z</time></trkpt><trkpt lat="44.655943302734016" lon="8.106749027083959"><ele>556.0</ele><time>2026-04-04T12:48:41Z</time></trkpt><trkpt lat="44.655950942325106" lon="8.10686483655127"><ele>556.0</ele><time>2026-04-04T12:48:42Z</time></trkpt><trkpt lat="44.65591841092069" lon="8.106982987343843"><ele>556.0</ele><time>2026-04-04T12:48:43Z</time></trkpt><trkpt lat="44.65585466366012" lon="8.10710292056892"><ele>556.0</ele><time>2026-04-04T12:48:44Z</time></trkpt><trkpt lat="44.65577692917959" lon="8.107230920139292"><ele>556.0</ele><time>2026-04-04T12:48:45Z</time></trkpt><trkpt lat="44.65569070796624" lon="8.10737629337336"><ele>556.0</ele><time>2026-04-04T12:48:46Z</time></trkpt><trkpt lat="44.65559401615019" lon="8.10751711066136"><ele>556.0</ele><time>2026-04-04T12:48:47Z</time></trkpt><trkpt lat="44.65547822262438" lon="8.107635613948956"><ele>556.75</ele><time>2026-04-04T12:48:48Z</time></trkpt><trkpt lat="44.65534857386522" lon="8.107719690088956"><ele>557.5</ele><time>2026-04-04T12:48:49Z</time></trkpt><trkpt lat="44.65522255754559" lon="8.10778504885235"><ele>558.25</ele><time>2026-04-04T12:48:50Z</time></trkpt><trkpt lat="44.65511092458125" lon="8.107855825443234"><ele>559.0</ele><time>2026-04-04T12:48:51Z</time></trkpt><trkpt lat="44.6550160387464" lon="8.107929877569916"><ele>559.0</ele><time>2026-04-04T12:48:52Z</time></trkpt><trkpt lat="44.654929863335404" lon="8.108015809836717"><ele>559.0</ele><time>2026-04-04T12:48:53Z</time></trkpt><trkpt lat="44.654863719565114" lon="8.108134182026793"><ele>559.0</ele><time>2026-04-04T12:48:54Z</time></trkpt><trkpt lat="44.65480335532376" lon="8.108284345441675"><ele>559.0</ele><time>2026-04-04T12:48:55Z</time></trkpt><trkpt lat="44.65474357393614" lon="8.10845289608471"><ele>562.25</ele><time>2026-04-04T12:48:56Z</time></trkpt><trkpt lat="44.654679081035205" lon="8.108624723661668"><ele>565.5</ele><time>2026-04-04T12:48:57Z</time></trkpt><trkpt lat="44.65461986283831" lon="8.108782107326855"><ele>568.75</ele><time>2026-04-04T12:48:58Z</time></trkpt><trkpt lat="44.65456130625658" lon="8.108940309768151"><ele>572.0</ele><time>2026-04-04T12:48:59Z</time></trkpt><trkpt lat="44.654501365771594" lon="8.109089774444463"><ele>572.6</ele><time>2026-04-04T12:49:00Z</time></trkpt><trkpt lat="44.65443461325067" lon="8.109200891607436"><ele>573.2</ele><time>2026-04-04T12:49:01Z</time></trkpt><trkpt lat="44.65435188622714" lon="8.109321632831692"><ele>573.8</ele><time>2026-04-04T12:49:02Z</time></trkpt><trkpt lat="44.65426568480683" lon="8.109407584961136"><ele>574.4</ele><time>2026-04-04T12:49:03Z</time></trkpt><trkpt lat="44.65418970756694" lon="8.109467888061976"><ele>575.0</ele><time>2026-04-04T12:49:04Z</time></trkpt><trkpt lat="44.65413019718226" lon="8.109541980260653"><ele>575.0</ele><time>2026-04-04T12:49:05Z</time></trkpt><trkpt lat="44.65408727536168" lon="8.109646898396912"><ele>575.0</ele><time>2026-04-04T12:49:06Z</time></trkpt><trkpt lat="44.654074643220305" lon="8.10979347161845"><ele>575.0</ele><time>2026-04-04T12:49:07Z</time></trkpt><trkpt lat="44.654085760839266" lon="8.109967289527741"><ele>575.0</ele><time>2026-04-04T12:49:08Z</time></trkpt><trkpt lat="44.654116218002386" lon="8.110149994465413"><ele>575.0</ele><time>2026-04-04T12:49:09Z</time></trkpt><trkpt lat="44.6541365498266" lon="8.110344404805728"><ele>577.25</ele><time>2026-04-04T12:49:09.999Z</time></trkpt><trkpt lat="44.65415209998737" lon="8.110544738144695"><ele>579.5</ele><time>2026-04-04T12:49:10.999Z</time></trkpt><trkpt lat="44.65416056665471" lon="8.110745990029228"><ele>581.75</ele><time>2026-04-04T12:49:11.999Z</time></trkpt><trkpt lat="44.65415633896322" lon="8.110948422433632"><ele>584.0</ele><time>2026-04-04T12:49:12.999Z</time></trkpt><trkpt lat="44.65413650773405" lon="8.111152246360755"><ele>585.75</ele><time>2026-04-04T12:49:13.999Z</time></trkpt><trkpt lat="44.65409954966858" lon="8.111354564207524"><ele>587.5</ele><time>2026-04-04T12:49:14.999Z</time></trkpt><trkpt lat="44.654047167488834" lon="8.111546820427945"><ele>589.25</ele><time>2026-04-04T12:49:15.999Z</time></trkpt><trkpt lat="44.65398284769725" lon="8.111731435334047"><ele>591.0</ele><time>2026-04-04T12:49:16.999Z</time></trkpt><trkpt lat="44.65391078014121" lon="8.111908727609757"><ele>591.5</ele><time>2026-04-04T12:49:17.999Z</time></trkpt><trkpt lat="44.65383386963547" lon="8.1120753608681"><ele>592.0</ele><time>2026-04-04T12:49:18.999Z</time></trkpt><trkpt lat="44.65373465611741" lon="8.112242469792326"><ele>592.5</ele><time>2026-04-04T12:49:19.999Z</time></trkpt><trkpt lat="44.65366769327423" lon="8.112425205109371"><ele>593.0</ele><time>2026-04-04T12:49:20.999Z</time></trkpt><trkpt lat="44.65359194128443" lon="8.112605768694037"><ele>593.0</ele><time>2026-04-04T12:49:21.999Z</time></trkpt><trkpt lat="44.653512770468055" lon="8.112783682083604"><ele>593.0</ele><time>2026-04-04T12:49:22.999Z</time></trkpt><trkpt lat="44.653425022544305" lon="8.1129554455138"><ele>593.0</ele><time>2026-04-04T12:49:23.999Z</time></trkpt><trkpt lat="44.65335175504643" lon="8.113109867983983"><ele>593.0</ele><time>2026-04-04T12:49:24.999Z</time></trkpt><trkpt lat="44.6532701327968" lon="8.113255184469294"><ele>595.5</ele><time>2026-04-04T12:49:25.999Z</time></trkpt><trkpt lat="44.653171843207495" lon="8.113388407201693"><ele>598.0</ele><time>2026-04-04T12:49:26.999Z</time></trkpt><trkpt lat="44.65305042900732" lon="8.113514421842698"><ele>600.5</ele><time>2026-04-04T12:49:27.999Z</time></trkpt><trkpt lat="44.65293408424583" lon="8.113618134090594"><ele>603.0</ele><time>2026-04-04T12:49:28.999Z</time></trkpt><trkpt lat="44.65283104234726" lon="8.113719132336463"><ele>603.5</ele><time>2026-04-04T12:49:29.999Z</time></trkpt><trkpt lat="44.652741853842265" lon="8.11379906603705"><ele>604.0</ele><time>2026-04-04T12:49:30.999Z</time></trkpt><trkpt lat="44.652677889833214" lon="8.113923005659432"><ele>604.5</ele><time>2026-04-04T12:49:31.999Z</time></trkpt><trkpt lat="44.652640253849015" lon="8.114086567792983"><ele>605.0</ele><time>2026-04-04T12:49:32.999Z</time></trkpt><trkpt lat="44.652599798965944" lon="8.114260936944122"><ele>605.0</ele><time>2026-04-04T12:49:33.999Z</time></trkpt><trkpt lat="44.652541800598975" lon="8.114436839250946"><ele>605.0</ele><time>2026-04-04T12:49:34.999Z</time></trkpt><trkpt lat="44.652470155534516" lon="8.114605525259824"><ele>605.0</ele><time>2026-04-04T12:49:35.999Z</time></trkpt><trkpt lat="44.65237986406555" lon="8.114752335679878"><ele>605.0</ele><time>2026-04-04T12:49:36.999Z</time></trkpt><trkpt lat="44.652266223090585" lon="8.114877951923779"><ele>606.75</ele><time>2026-04-04T12:49:37.999Z</time></trkpt><trkpt lat="44.65214073316319" lon="8.114984956170163"><ele>608.5</ele><time>2026-04-04T12:49:38.999Z</time></trkpt><trkpt lat="44.65200782380256" lon="8.115070423150687"><ele>610.25</ele><time>2026-04-04T12:49:39.999Z</time></trkpt><trkpt lat="44.651867147979075" lon="8.11515050897655"><ele>612.0</ele><time>2026-04-04T12:49:40.999Z</time></trkpt><trkpt lat="44.65172094067174" lon="8.115226782471188"><ele>612.0</ele><time>2026-04-04T12:49:41.999Z</time></trkpt><trkpt lat="44.65158396590001" lon="8.115305228655988"><ele>612.0</ele><time>2026-04-04T12:49:42.999Z</time></trkpt><trkpt lat="44.65146238985752" lon="8.115377471948069"><ele>612.0</ele><time>2026-04-04T12:49:43.999Z</time></trkpt><trkpt lat="44.65135649232953" lon="8.115440198798508"><ele>612.0</ele><time>2026-04-04T12:49:44.999Z</time></trkpt><trkpt lat="44.65125834842662" lon="8.115502204600562"><ele>612.0</ele><time>2026-04-04T12:49:45.999Z</time></trkpt><trkpt lat="44.651156919005146" lon="8.115562952614663"><ele>612.0</ele><time>2026-04-04T12:49:46.999Z</time></trkpt><trkpt lat="44.65104782344002" lon="8.115633567056163"><ele>612.0</ele><time>2026-04-04T12:49:47.999Z</time></trkpt><trkpt lat="44.65093636099693" lon="8.115703472794703"><ele>612.0</ele><time>2026-04-04T12:49:48.999Z</time></trkpt><trkpt lat="44.65081869771309" lon="8.115774593756017"><ele>614.75</ele><time>2026-04-04T12:49:49.999Z</time></trkpt><trkpt lat="44.65069487067692" lon="8.115833646031206"><ele>617.5</ele><time>2026-04-04T12:49:50.999Z</time></trkpt><trkpt lat="44.650564681882194" lon="8.115872783918151"><ele>620.25</ele><time>2026-04-04T12:49:51.999Z</time></trkpt><trkpt lat="44.65043238822416" lon="8.11589665687652"><ele>623.0</ele><time>2026-04-04T12:49:52.999Z</time></trkpt><trkpt lat="44.65031394044979" lon="8.115913603383728"><ele>622.5</ele><time>2026-04-04T12:49:53.999Z</time></trkpt><trkpt lat="44.65021357157177" lon="8.115934146802623"><ele>622.0</ele><time>2026-04-04T12:49:54.999Z</time></trkpt><trkpt lat="44.65012469993873" lon="8.115957727657786"><ele>621.5</ele><time>2026-04-04T12:49:55.999Z</time></trkpt><trkpt lat="44.65004360539771" lon="8.115979960366891"><ele>621.0</ele><time>2026-04-04T12:49:56.999Z</time></trkpt><trkpt lat="44.64996508380466" lon="8.116008390901193"><ele>620.5</ele><time>2026-04-04T12:49:57.999Z</time></trkpt><trkpt lat="44.6498916289653" lon="8.11606122095622"><ele>620.0</ele><time>2026-04-04T12:49:58.999Z</time></trkpt><trkpt lat="44.649832630626705" lon="8.116152112736291"><ele>620.0</ele><time>2026-04-04T12:49:59.999Z</time></trkpt><trkpt lat="44.649792759518846" lon="8.11627102824435"><ele>620.0</ele><time>2026-04-04T12:50:00.999Z</time></trkpt><trkpt lat="44.64976668334309" lon="8.11643017421965"><ele>620.0</ele><time>2026-04-04T12:50:01.999Z</time></trkpt><trkpt lat="44.64974892257969" lon="8.116612033262523"><ele>620.0</ele><time>2026-04-04T12:50:02.999Z</time></trkpt><trkpt lat="44.649703968632" lon="8.116817126238772"><ele>625.0</ele><time>2026-04-04T12:50:03.999Z</time></trkpt><trkpt lat="44.6496563636034" lon="8.117046822976267"><ele>630.0</ele><time>2026-04-04T12:50:04.999Z</time></trkpt><trkpt lat="44.64959860725514" lon="8.117287576420235"><ele>635.0</ele><time>2026-04-04T12:50:05.999Z</time></trkpt><trkpt lat="44.64954414306147" lon="8.117515240792025"><ele>635.25</ele><time>2026-04-04T12:50:06.999Z</time></trkpt><trkpt lat="44.64948931222503" lon="8.117713697697344"><ele>635.5</ele><time>2026-04-04T12:50:07.999Z</time></trkpt><trkpt lat="44.64944342732395" lon="8.11788944465334"><ele>635.75</ele><time>2026-04-04T12:50:08.999Z</time></trkpt><trkpt lat="44.64939675499049" lon="8.118068363266753"><ele>636.0</ele><time>2026-04-04T12:50:09.999Z</time></trkpt><trkpt lat="44.649349013480084" lon="8.118244707814608"><ele>636.0</ele><time>2026-04-04T12:50:10.999Z</time></trkpt><trkpt lat="44.64929980971839" lon="8.118425390207442"><ele>636.0</ele><time>2026-04-04T12:50:11.999Z</time></trkpt><trkpt lat="44.6492520130014" lon="8.11861001872527"><ele>636.0</ele><time>2026-04-04T12:50:12.999Z</time></trkpt><trkpt lat="44.64920174715149" lon="8.11879288607871"><ele>636.0</ele><time>2026-04-04T12:50:13.999Z</time></trkpt><trkpt lat="44.64915227256511" lon="8.118967634025129"><ele>638.2</ele><time>2026-04-04T12:50:14.999Z</time></trkpt><trkpt lat="44.64910489752161" lon="8.119122145930303"><ele>640.4000000000001</ele><time>2026-04-04T12:50:15.999Z</time></trkpt><trkpt lat="44.64906233856264" lon="8.119260180908233"><ele>642.6</ele><time>2026-04-04T12:50:16.999Z</time></trkpt><trkpt lat="44.64901574178518" lon="8.11939887396444"><ele>644.8000000000001</ele><time>2026-04-04T12:50:17.999Z</time></trkpt><trkpt lat="44.64895819573392" lon="8.119533328184374"><ele>647.0</ele><time>2026-04-04T12:50:18.999Z</time></trkpt><trkpt lat="44.64888989777801" lon="8.119649513583584"><ele>647.0</ele><time>2026-04-04T12:50:19.999Z</time></trkpt><trkpt lat="44.648798017203234" lon="8.119753456410498"><ele>647.0</ele><time>2026-04-04T12:50:20.999Z</time></trkpt><trkpt lat="44.64868675217832" lon="8.119843409609668"><ele>647.0</ele><time>2026-04-04T12:50:21.999Z</time></trkpt><trkpt lat="44.64856612542615" lon="8.119929202067189"><ele>647.0</ele><time>2026-04-04T12:50:23Z</time></trkpt><trkpt lat="44.64844947733985" lon="8.12001804550807"><ele>646.0</ele><time>2026-04-04T12:50:24Z</time></trkpt><trkpt lat="44.648332141886414" lon="8.120110030913983"><ele>645.0</ele><time>2026-04-04T12:50:25Z</time></trkpt><trkpt lat="44.648213864501216" lon="8.120197467115856"><ele>644.0</ele><time>2026-04-04T12:50:26Z</time></trkpt><trkpt lat="44.64808490633508" lon="8.120250828407245"><ele>643.0</ele><time>2026-04-04T12:50:27Z</time></trkpt><trkpt lat="44.64795336556653" lon="8.12027817693945"><ele>643.0</ele><time>2026-04-04T12:50:28Z</time></trkpt><trkpt lat="44.64781665699415" lon="8.120269221501848"><ele>643.0</ele><time>2026-04-04T12:50:29Z</time></trkpt><trkpt lat="44.64767710230765" lon="8.120201302696627"><ele>643.0</ele><time>2026-04-04T12:50:30Z</time></trkpt><trkpt lat="44.64752659907608" lon="8.120159913458702"><ele>643.0</ele><time>2026-04-04T12:50:31Z</time></trkpt><trkpt lat="44.647372098524684" lon="8.120090308003572"><ele>642.3333333333334</ele><time>2026-04-04T12:50:32Z</time></trkpt><trkpt lat="44.647210482090706" lon="8.120025649658823"><ele>641.6666666666666</ele><time>2026-04-04T12:50:33Z</time></trkpt><trkpt lat="44.64704502491282" lon="8.119951508079387"><ele>641.0</ele><time>2026-04-04T12:50:34Z</time></trkpt><trkpt lat="44.646879656681335" lon="8.119872026178387"><ele>641.0</ele><time>2026-04-04T12:50:35Z</time></trkpt><trkpt lat="44.64671415040453" lon="8.119789227044162"><ele>641.0</ele><time>2026-04-04T12:50:36Z</time></trkpt><trkpt lat="44.646550304151575" lon="8.119696923338637"><ele>641.0</ele><time>2026-04-04T12:50:37Z</time></trkpt><trkpt lat="44.64639150319697" lon="8.11958852818903"><ele>641.0</ele><time>2026-04-04T12:50:38Z</time></trkpt><trkpt lat="44.646247758778586" lon="8.119481495246061"><ele>641.0</ele><time>2026-04-04T12:50:39Z</time></trkpt><trkpt lat="44.64612100227733" lon="8.119392719806088"><ele>641.0</ele><time>2026-04-04T12:50:40Z</time></trkpt><trkpt lat="44.646010342828134" lon="8.119332979041127"><ele>641.0</ele><time>2026-04-04T12:50:41Z</time></trkpt><trkpt lat="44.64589311259371" lon="8.119310532366477"><ele>643.0</ele><time>2026-04-04T12:50:42Z</time></trkpt><trkpt lat="44.6457523980023" lon="8.119337058451965"><ele>645.0</ele><time>2026-04-04T12:50:43Z</time></trkpt><trkpt lat="44.64560391073613" lon="8.119365134277878"><ele>647.0</ele><time>2026-04-04T12:50:44Z</time></trkpt><trkpt lat="44.645453199235455" lon="8.119374309494157"><ele>649.0</ele><time>2026-04-04T12:50:45Z</time></trkpt><trkpt lat="44.6453132630274" lon="8.119353901403112"><ele>650.3333333333334</ele><time>2026-04-04T12:50:46Z</time></trkpt><trkpt lat="44.64517816984546" lon="8.119279166551031"><ele>651.6666666666666</ele><time>2026-04-04T12:50:47Z</time></trkpt><trkpt lat="44.645047152352085" lon="8.119176260905727"><ele>653.0</ele><time>2026-04-04T12:50:48Z</time></trkpt><trkpt lat="44.64491325007037" lon="8.119041352749425"><ele>652.0</ele><time>2026-04-04T12:50:49Z</time></trkpt><trkpt lat="44.64476636600174" lon="8.118880484807868"><ele>651.0</ele><time>2026-04-04T12:50:50Z</time></trkpt><trkpt lat="44.644602076450624" lon="8.118705557192355"><ele>650.0</ele><time>2026-04-04T12:50:51Z</time></trkpt><trkpt lat="44.644436254920564" lon="8.118482284709344"><ele>647.0</ele><time>2026-04-04T12:50:52Z</time></trkpt><trkpt lat="44.644273640713" lon="8.118233612538587"><ele>644.0</ele><time>2026-04-04T12:50:53Z</time></trkpt><trkpt lat="44.644109186420565" lon="8.118010941961732"><ele>644.0</ele><time>2026-04-04T12:50:54Z</time></trkpt><trkpt lat="44.64396551906289" lon="8.117792219912294"><ele>644.0</ele><time>2026-04-04T12:50:55Z</time></trkpt><trkpt lat="44.64382142238828" lon="8.117567810835636"><ele>644.0</ele><time>2026-04-04T12:50:56Z</time></trkpt><trkpt lat="44.64367723711948" lon="8.117343263969465"><ele>644.6666666666666</ele><time>2026-04-04T12:50:57Z</time></trkpt><trkpt lat="44.643541774184065" lon="8.117128844164785"><ele>645.3333333333334</ele><time>2026-04-04T12:50:58Z</time></trkpt><trkpt lat="44.64340136670187" lon="8.11693667877591"><ele>646.0</ele><time>2026-04-04T12:50:59Z</time></trkpt><trkpt lat="44.64328283867306" lon="8.116721415749385"><ele>643.0</ele><time>2026-04-04T12:51:00Z</time></trkpt><trkpt lat="44.64315163116643" lon="8.116523254527255"><ele>640.0</ele><time>2026-04-04T12:51:01Z</time></trkpt><trkpt lat="44.64301559270064" lon="8.116347976820787"><ele>637.0</ele><time>2026-04-04T12:51:02Z</time></trkpt><trkpt lat="44.642873169316516" lon="8.116203510281723"><ele>640.3333333333334</ele><time>2026-04-04T12:51:03Z</time></trkpt><trkpt lat="44.64275515420888" lon="8.116047207828386"><ele>643.6666666666666</ele><time>2026-04-04T12:51:04Z</time></trkpt><trkpt lat="44.64263124930143" lon="8.115903065079229"><ele>647.0</ele><time>2026-04-04T12:51:05Z</time></trkpt><trkpt lat="44.64251102256234" lon="8.1157705250564"><ele>645.25</ele><time>2026-04-04T12:51:06Z</time></trkpt><trkpt lat="44.642397800654145" lon="8.115638684532925"><ele>643.5</ele><time>2026-04-04T12:51:07Z</time></trkpt><trkpt lat="44.64231989927026" lon="8.11548518958621"><ele>641.75</ele><time>2026-04-04T12:51:08Z</time></trkpt><trkpt lat="44.64226336019955" lon="8.115334844993622"><ele>640.0</ele><time>2026-04-04T12:51:09Z</time></trkpt><trkpt lat="44.64222493245906" lon="8.115165439759533"><ele>640.0</ele><time>2026-04-04T12:51:10Z</time></trkpt><trkpt lat="44.64219916179037" lon="8.11497222327477"><ele>640.0</ele><time>2026-04-04T12:51:11Z</time></trkpt><trkpt lat="44.642177895680824" lon="8.114768094101224"><ele>640.0</ele><time>2026-04-04T12:51:12Z</time></trkpt><trkpt lat="44.64214828935242" lon="8.114581625689341"><ele>640.0</ele><time>2026-04-04T12:51:13Z</time></trkpt><trkpt lat="44.64211679466569" lon="8.114405592562909"><ele>640.25</ele><time>2026-04-04T12:51:14Z</time></trkpt><trkpt lat="44.6420760110857" lon="8.114238315330926"><ele>640.5</ele><time>2026-04-04T12:51:15Z</time></trkpt><trkpt lat="44.642011851825245" lon="8.114077392858277"><ele>640.75</ele><time>2026-04-04T12:51:16Z</time></trkpt><trkpt lat="44.641939028090114" lon="8.113931551304013"><ele>641.0</ele><time>2026-04-04T12:51:17Z</time></trkpt><trkpt lat="44.64184735913336" lon="8.11379034144637"><ele>642.0</ele><time>2026-04-04T12:51:18Z</time></trkpt><trkpt lat="44.64175283077586" lon="8.113633019833964"><ele>643.0</ele><time>2026-04-04T12:51:19Z</time></trkpt><trkpt lat="44.64161689566493" lon="8.113537067247908"><ele>644.0</ele><time>2026-04-04T12:51:20Z</time></trkpt><trkpt lat="44.64148536323573" lon="8.113412558340864"><ele>644.0</ele><time>2026-04-04T12:51:21Z</time></trkpt><trkpt lat="44.641339399910635" lon="8.11331516764956"><ele>644.0</ele><time>2026-04-04T12:51:21.999Z</time></trkpt><trkpt lat="44.64119628684841" lon="8.113215522929506"><ele>644.0</ele><time>2026-04-04T12:51:22.999Z</time></trkpt><trkpt lat="44.641055982208336" lon="8.113121301421842"><ele>642.25</ele><time>2026-04-04T12:51:23.999Z</time></trkpt><trkpt lat="44.64092233437569" lon="8.113035758147412"><ele>640.5</ele><time>2026-04-04T12:51:24.999Z</time></trkpt><trkpt lat="44.64079509538107" lon="8.112978531706856"><ele>638.75</ele><time>2026-04-04T12:51:25.999Z</time></trkpt><trkpt lat="44.64065563720149" lon="8.112895143694228"><ele>637.0</ele><time>2026-04-04T12:51:26.999Z</time></trkpt><trkpt lat="44.64052942433854" lon="8.112801843851274"><ele>637.0</ele><time>2026-04-04T12:51:27.999Z</time></trkpt><trkpt lat="44.64039741808084" lon="8.112743084536909"><ele>637.0</ele><time>2026-04-04T12:51:28.999Z</time></trkpt><trkpt lat="44.64026781922396" lon="8.112718368980827"><ele>637.0</ele><time>2026-04-04T12:51:29.999Z</time></trkpt><trkpt lat="44.64014601937526" lon="8.112678896771547"><ele>637.0</ele><time>2026-04-04T12:51:30.999Z</time></trkpt><trkpt lat="44.64001820247794" lon="8.112656537868842"><ele>634.25</ele><time>2026-04-04T12:51:31.999Z</time></trkpt><trkpt lat="44.63989775354945" lon="8.11264943820238"><ele>631.5</ele><time>2026-04-04T12:51:32.999Z</time></trkpt><trkpt lat="44.63977408250643" lon="8.112634777543121"><ele>628.75</ele><time>2026-04-04T12:51:33.999Z</time></trkpt><trkpt lat="44.639664582958716" lon="8.11261696519163"><ele>626.0</ele><time>2026-04-04T12:51:34.999Z</time></trkpt><trkpt lat="44.639542378261524" lon="8.112593155901793"><ele>624.6</ele><time>2026-04-04T12:51:35.999Z</time></trkpt><trkpt lat="44.639437678247006" lon="8.112566843425977"><ele>623.2</ele><time>2026-04-04T12:51:36.999Z</time></trkpt><trkpt lat="44.63931536894871" lon="8.11259900608316"><ele>621.8</ele><time>2026-04-04T12:51:37.999Z</time></trkpt><trkpt lat="44.639209283081485" lon="8.112614759187217"><ele>620.4</ele><time>2026-04-04T12:51:38.999Z</time></trkpt><trkpt lat="44.63910571873039" lon="8.11262343569258"><ele>619.0</ele><time>2026-04-04T12:51:39.999Z</time></trkpt><trkpt lat="44.63901229309444" lon="8.112630049951711"><ele>619.0</ele><time>2026-04-04T12:51:40.999Z</time></trkpt><trkpt lat="44.63891403388995" lon="8.112611840413248"><ele>619.0</ele><time>2026-04-04T12:51:41.999Z</time></trkpt><trkpt lat="44.638809099844124" lon="8.1125667140352"><ele>619.0</ele><time>2026-04-04T12:51:42.999Z</time></trkpt><trkpt lat="44.63869857468137" lon="8.112504687984657"><ele>619.0</ele><time>2026-04-04T12:51:43.999Z</time></trkpt><trkpt lat="44.638602236258016" lon="8.112423839179968"><ele>619.0</ele><time>2026-04-04T12:51:44.999Z</time></trkpt><trkpt lat="44.63848858496846" lon="8.112371047693955"><ele>619.4</ele><time>2026-04-04T12:51:45.999Z</time></trkpt><trkpt lat="44.63838050928273" lon="8.112336382358745"><ele>619.8</ele><time>2026-04-04T12:51:46.999Z</time></trkpt><trkpt lat="44.63827786074176" lon="8.112302871920823"><ele>620.2</ele><time>2026-04-04T12:51:47.999Z</time></trkpt><trkpt lat="44.638165130421235" lon="8.112314907930713"><ele>620.6</ele><time>2026-04-04T12:51:48.999Z</time></trkpt><trkpt lat="44.63804652292453" lon="8.112327881329792"><ele>621.0</ele><time>2026-04-04T12:51:49.999Z</time></trkpt><trkpt lat="44.637928528519424" lon="8.112408417006995"><ele>621.0</ele><time>2026-04-04T12:51:50.999Z</time></trkpt><trkpt lat="44.637823480698245" lon="8.112508591016924"><ele>621.0</ele><time>2026-04-04T12:51:51.999Z</time></trkpt><trkpt lat="44.637732190958076" lon="8.11263693155521"><ele>621.0</ele><time>2026-04-04T12:51:52.999Z</time></trkpt><trkpt lat="44.63762218502216" lon="8.112759883205685"><ele>621.0</ele><time>2026-04-04T12:51:53.999Z</time></trkpt><trkpt lat="44.637526410639026" lon="8.112855180875245"><ele>619.0</ele><time>2026-04-04T12:51:54.999Z</time></trkpt><trkpt lat="44.63741660497545" lon="8.112974939267655"><ele>617.0</ele><time>2026-04-04T12:51:55.999Z</time></trkpt><trkpt lat="44.63728482330601" lon="8.113021828999305"><ele>615.0</ele><time>2026-04-04T12:51:56.999Z</time></trkpt><trkpt lat="44.6371476965243" lon="8.113057988361305"><ele>613.0</ele><time>2026-04-04T12:51:57.999Z</time></trkpt><trkpt lat="44.63700527609745" lon="8.11308394143312"><ele>613.5</ele><time>2026-04-04T12:51:58.999Z</time></trkpt><trkpt lat="44.63686963413947" lon="8.113127573076587"><ele>614.0</ele><time>2026-04-04T12:51:59.999Z</time></trkpt><trkpt lat="44.63673503190009" lon="8.113155338735705"><ele>614.5</ele><time>2026-04-04T12:52:00.999Z</time></trkpt><trkpt lat="44.63661216576235" lon="8.113207261799696"><ele>615.0</ele><time>2026-04-04T12:52:01.999Z</time></trkpt><trkpt lat="44.63649714317493" lon="8.113257796217079"><ele>615.0</ele><time>2026-04-04T12:52:02.999Z</time></trkpt><trkpt lat="44.63638118260991" lon="8.113265411784415"><ele>615.0</ele><time>2026-04-04T12:52:03.999Z</time></trkpt><trkpt lat="44.636290834294506" lon="8.113162601958381"><ele>615.0</ele><time>2026-04-04T12:52:04.999Z</time></trkpt><trkpt lat="44.63618257714269" lon="8.113080121311933"><ele>615.0</ele><time>2026-04-04T12:52:05.999Z</time></trkpt><trkpt lat="44.63606623541068" lon="8.112989051871185"><ele>612.25</ele><time>2026-04-04T12:52:06.999Z</time></trkpt><trkpt lat="44.63593869887461" lon="8.112891521110233"><ele>609.5</ele><time>2026-04-04T12:52:07.999Z</time></trkpt><trkpt lat="44.6358033681251" lon="8.112812879825245"><ele>606.75</ele><time>2026-04-04T12:52:08.999Z</time></trkpt><trkpt lat="44.63568663362682" lon="8.11270767456655"><ele>604.0</ele><time>2026-04-04T12:52:09.999Z</time></trkpt><trkpt lat="44.635578592425155" lon="8.11262620579918"><ele>604.0</ele><time>2026-04-04T12:52:10.999Z</time></trkpt><trkpt lat="44.635471636206105" lon="8.112554179860656"><ele>604.0</ele><time>2026-04-04T12:52:11.999Z</time></trkpt><trkpt lat="44.635364052569805" lon="8.112508380903021"><ele>604.0</ele><time>2026-04-04T12:52:12.999Z</time></trkpt><trkpt lat="44.63525035374084" lon="8.112499899394786"><ele>604.0</ele><time>2026-04-04T12:52:13.999Z</time></trkpt><trkpt lat="44.63512526297162" lon="8.112516216636529"><ele>604.75</ele><time>2026-04-04T12:52:14.999Z</time></trkpt><trkpt lat="44.63499381905937" lon="8.112538675336097"><ele>605.5</ele><time>2026-04-04T12:52:15.999Z</time></trkpt><trkpt lat="44.63485729127038" lon="8.112535947508169"><ele>606.25</ele><time>2026-04-04T12:52:16.999Z</time></trkpt><trkpt lat="44.634727247530186" lon="8.112472996563417"><ele>607.0</ele><time>2026-04-04T12:52:17.999Z</time></trkpt><trkpt lat="44.63460099327776" lon="8.112436104635966"><ele>606.0</ele><time>2026-04-04T12:52:18.999Z</time></trkpt><trkpt lat="44.63449175084403" lon="8.112366454257607"><ele>605.0</ele><time>2026-04-04T12:52:19.999Z</time></trkpt><trkpt lat="44.634392312255684" lon="8.112292319383142"><ele>604.0</ele><time>2026-04-04T12:52:20.999Z</time></trkpt><trkpt lat="44.63429587600043" lon="8.112219152407041"><ele>603.0</ele><time>2026-04-04T12:52:21.999Z</time></trkpt><trkpt lat="44.63420325795504" lon="8.112143569230762"><ele>602.0</ele><time>2026-04-04T12:52:22.999Z</time></trkpt><trkpt lat="44.63411631477498" lon="8.112057824888714"><ele>602.0</ele><time>2026-04-04T12:52:23.999Z</time></trkpt><trkpt lat="44.63402902155528" lon="8.111959992668272"><ele>602.0</ele><time>2026-04-04T12:52:24.999Z</time></trkpt><trkpt lat="44.63396097455185" lon="8.11182570053538"><ele>602.0</ele><time>2026-04-04T12:52:25.999Z</time></trkpt><trkpt lat="44.63388452269168" lon="8.11169774966247"><ele>602.0</ele><time>2026-04-04T12:52:26.999Z</time></trkpt><trkpt lat="44.63380680475867" lon="8.111584607348448"><ele>601.3333333333333</ele><time>2026-04-04T12:52:27.999Z</time></trkpt><trkpt lat="44.633747526234075" lon="8.111465560662417"><ele>600.6666666666666</ele><time>2026-04-04T12:52:29Z</time></trkpt><trkpt lat="44.633695043872386" lon="8.111369846340065"><ele>600.0</ele><time>2026-04-04T12:52:30Z</time></trkpt><trkpt lat="44.63365581666561" lon="8.111299484076044"><ele>599.3333333333334</ele><time>2026-04-04T12:52:31Z</time></trkpt><trkpt lat="44.63361887041001" lon="8.111201765338247"><ele>598.6666666666667</ele><time>2026-04-04T12:52:33Z</time></trkpt><trkpt lat="44.6336087802222" lon="8.111093961519877"><ele>598.0</ele><time>2026-04-04T12:52:45Z</time></trkpt><trkpt lat="44.63349849942919" lon="8.111021789141708"><ele>598.0</ele><time>2026-04-04T12:52:47Z</time></trkpt><trkpt lat="44.633420540509945" lon="8.111034954286874"><ele>598.0</ele><time>2026-04-04T12:52:48Z</time></trkpt><trkpt lat="44.6333413197533" lon="8.111094029264994"><ele>598.0</ele><time>2026-04-04T12:52:49Z</time></trkpt><trkpt lat="44.633260252249706" lon="8.111181138853023"><ele>598.0</ele><time>2026-04-04T12:52:50Z</time></trkpt><trkpt lat="44.63319182343088" lon="8.111291983457951"><ele>598.0</ele><time>2026-04-04T12:52:51Z</time></trkpt><trkpt lat="44.633150816788266" lon="8.111436091477739"><ele>599.0</ele><time>2026-04-04T12:52:52Z</time></trkpt><trkpt lat="44.63312145736959" lon="8.111597091707461"><ele>600.0</ele><time>2026-04-04T12:52:53Z</time></trkpt><trkpt lat="44.633115953938294" lon="8.111794232738541"><ele>601.0</ele><time>2026-04-04T12:52:54Z</time></trkpt><trkpt lat="44.63310426800544" lon="8.112013862834758"><ele>602.0</ele><time>2026-04-04T12:52:55Z</time></trkpt><trkpt lat="44.63309063717186" lon="8.112254573000714"><ele>604.0</ele><time>2026-04-04T12:52:56Z</time></trkpt><trkpt lat="44.633069395449866" lon="8.112470870575427"><ele>606.0</ele><time>2026-04-04T12:52:57Z</time></trkpt><trkpt lat="44.63305042976377" lon="8.112676613373576"><ele>608.0</ele><time>2026-04-04T12:52:58Z</time></trkpt><trkpt lat="44.633032457913956" lon="8.112885554026908"><ele>608.0</ele><time>2026-04-04T12:52:59Z</time></trkpt><trkpt lat="44.63301739122177" lon="8.113098829772136"><ele>608.0</ele><time>2026-04-04T12:53:00Z</time></trkpt><trkpt lat="44.633000006544684" lon="8.113306332577961"><ele>608.0</ele><time>2026-04-04T12:53:01Z</time></trkpt><trkpt lat="44.632975060555665" lon="8.113502669930588"><ele>608.0</ele><time>2026-04-04T12:53:02Z</time></trkpt><trkpt lat="44.63293470469524" lon="8.113685960164588"><ele>609.5</ele><time>2026-04-04T12:53:03Z</time></trkpt><trkpt lat="44.63284835696881" lon="8.113823075924062"><ele>611.0</ele><time>2026-04-04T12:53:04Z</time></trkpt><trkpt lat="44.63275301013568" lon="8.113956143682135"><ele>612.5</ele><time>2026-04-04T12:53:05Z</time></trkpt><trkpt lat="44.63263851870475" lon="8.114084464224058"><ele>614.0</ele><time>2026-04-04T12:53:06Z</time></trkpt><trkpt lat="44.63249823970381" lon="8.114178038337709"><ele>614.0</ele><time>2026-04-04T12:53:07Z</time></trkpt><trkpt lat="44.63233893851028" lon="8.11421403414934"><ele>614.0</ele><time>2026-04-04T12:53:08Z</time></trkpt><trkpt lat="44.63217847920127" lon="8.114226091964"><ele>614.0</ele><time>2026-04-04T12:53:09Z</time></trkpt><trkpt lat="44.63201691536265" lon="8.114255935198772"><ele>612.3333333333333</ele><time>2026-04-04T12:53:10Z</time></trkpt><trkpt lat="44.63185740624511" lon="8.114284244825338"><ele>610.6666666666666</ele><time>2026-04-04T12:53:11Z</time></trkpt><trkpt lat="44.63169777169519" lon="8.114356959651836"><ele>609.0</ele><time>2026-04-04T12:53:12Z</time></trkpt><trkpt lat="44.631538800120886" lon="8.11446132405743"><ele>609.0</ele><time>2026-04-04T12:53:13Z</time></trkpt><trkpt lat="44.63138103864864" lon="8.114570994227867"><ele>609.0</ele><time>2026-04-04T12:53:14Z</time></trkpt><trkpt lat="44.63122894150957" lon="8.114678693955911"><ele>609.0</ele><time>2026-04-04T12:53:15Z</time></trkpt><trkpt lat="44.631092736920984" lon="8.114804901356404"><ele>611.0</ele><time>2026-04-04T12:53:16Z</time></trkpt><trkpt lat="44.63097128451901" lon="8.11496675072035"><ele>613.0</ele><time>2026-04-04T12:53:17Z</time></trkpt><trkpt lat="44.63085930348669" lon="8.115153483749342"><ele>615.0</ele><time>2026-04-04T12:53:18Z</time></trkpt><trkpt lat="44.63075022683327" lon="8.115325037363565"><ele>615.0</ele><time>2026-04-04T12:53:19Z</time></trkpt><trkpt lat="44.63064750654973" lon="8.115474315012092"><ele>615.0</ele><time>2026-04-04T12:53:20Z</time></trkpt><trkpt lat="44.63056677583489" lon="8.115613685333026"><ele>615.0</ele><time>2026-04-04T12:53:21Z</time></trkpt><trkpt lat="44.63054067347943" lon="8.115784362896832"><ele>615.0</ele><time>2026-04-04T12:53:22Z</time></trkpt><trkpt lat="44.63052988591572" lon="8.115973397421891"><ele>619.0</ele><time>2026-04-04T12:53:23Z</time></trkpt><trkpt lat="44.63055455634565" lon="8.116182438059093"><ele>623.0</ele><time>2026-04-04T12:53:24Z</time></trkpt><trkpt lat="44.630607189611894" lon="8.116371551037956"><ele>627.0</ele><time>2026-04-04T12:53:24.999Z</time></trkpt><trkpt lat="44.63065743228131" lon="8.116560584065175"><ele>631.0</ele><time>2026-04-04T12:53:25.999Z</time></trkpt><trkpt lat="44.63063356193133" lon="8.116736659153766"><ele>631.0</ele><time>2026-04-04T12:53:26.999Z</time></trkpt><trkpt lat="44.63058501290497" lon="8.116913627586168"><ele>631.0</ele><time>2026-04-04T12:53:27.999Z</time></trkpt><trkpt lat="44.63052259056393" lon="8.117074908614589"><ele>631.0</ele><time>2026-04-04T12:53:28.999Z</time></trkpt><trkpt lat="44.630493852466465" lon="8.117215477911708"><ele>631.0</ele><time>2026-04-04T12:53:29.999Z</time></trkpt><trkpt lat="44.630510350408024" lon="8.117346505024356"><ele>629.8</ele><time>2026-04-04T12:53:30.999Z</time></trkpt><trkpt lat="44.630566746015326" lon="8.11743667017305"><ele>628.6</ele><time>2026-04-04T12:53:31.999Z</time></trkpt><trkpt lat="44.63065693368467" lon="8.117496903397305"><ele>627.4</ele><time>2026-04-04T12:53:32.999Z</time></trkpt><trkpt lat="44.63076648343105" lon="8.117523815417698"><ele>626.2</ele><time>2026-04-04T12:53:33.999Z</time></trkpt><trkpt lat="44.630906437546095" lon="8.117553222116728"><ele>625.0</ele><time>2026-04-04T12:53:34.999Z</time></trkpt><trkpt lat="44.63104881178121" lon="8.11763997734125"><ele>629.3333333333334</ele><time>2026-04-04T12:53:35.999Z</time></trkpt><trkpt lat="44.631220750335835" lon="8.11770191074555"><ele>633.6666666666666</ele><time>2026-04-04T12:53:36.999Z</time></trkpt><trkpt lat="44.63139885695332" lon="8.11778026034492"><ele>638.0</ele><time>2026-04-04T12:53:37.999Z</time></trkpt><trkpt lat="44.631563745058294" lon="8.11785982426609"><ele>638.0</ele><time>2026-04-04T12:53:38.999Z</time></trkpt><trkpt lat="44.631715688616964" lon="8.117926400838654"><ele>638.0</ele><time>2026-04-04T12:53:39.999Z</time></trkpt><trkpt lat="44.63186310659024" lon="8.117994580232228"><ele>638.0</ele><time>2026-04-04T12:53:40.999Z</time></trkpt><trkpt lat="44.63199047008107" lon="8.118068800251894"><ele>636.0</ele><time>2026-04-04T12:53:41.999Z</time></trkpt><trkpt lat="44.63210929581161" lon="8.118150955513586"><ele>634.0</ele><time>2026-04-04T12:53:42.999Z</time></trkpt><trkpt lat="44.63221103414867" lon="8.118250917043563"><ele>632.0</ele><time>2026-04-04T12:53:43.999Z</time></trkpt><trkpt lat="44.63229551602945" lon="8.118367331747965"><ele>630.0</ele><time>2026-04-04T12:53:44.999Z</time></trkpt><trkpt lat="44.632368325737986" lon="8.118493337488161"><ele>630.0</ele><time>2026-04-04T12:53:45.999Z</time></trkpt><trkpt lat="44.63242922817089" lon="8.118624488197542"><ele>630.0</ele><time>2026-04-04T12:53:46.999Z</time></trkpt><trkpt lat="44.632482186810954" lon="8.118762960254786"><ele>630.0</ele><time>2026-04-04T12:53:47.999Z</time></trkpt><trkpt lat="44.63253457776732" lon="8.11891332521413"><ele>630.0</ele><time>2026-04-04T12:53:48.999Z</time></trkpt><trkpt lat="44.632582866489386" lon="8.119075288226156"><ele>627.75</ele><time>2026-04-04T12:53:49.999Z</time></trkpt><trkpt lat="44.632630091521044" lon="8.11924120176415"><ele>625.5</ele><time>2026-04-04T12:53:50.999Z</time></trkpt><trkpt lat="44.63267018405921" lon="8.119412983167543"><ele>623.25</ele><time>2026-04-04T12:53:51.999Z</time></trkpt><trkpt lat="44.632697488208215" lon="8.119590282003085"><ele>621.0</ele><time>2026-04-04T12:53:52.999Z</time></trkpt><trkpt lat="44.63270617113118" lon="8.119758026868213"><ele>619.8</ele><time>2026-04-04T12:53:53.999Z</time></trkpt><trkpt lat="44.63269956427036" lon="8.119917203849909"><ele>618.6</ele><time>2026-04-04T12:53:54.999Z</time></trkpt><trkpt lat="44.63268670384889" lon="8.120069984122692"><ele>617.4</ele><time>2026-04-04T12:53:55.999Z</time></trkpt><trkpt lat="44.63266892868749" lon="8.120225218860332"><ele>616.2</ele><time>2026-04-04T12:53:56.999Z</time></trkpt><trkpt lat="44.63263912157979" lon="8.12037929624175"><ele>615.0</ele><time>2026-04-04T12:53:57.999Z</time></trkpt><trkpt lat="44.63259390314297" lon="8.120528034624648"><ele>615.0</ele><time>2026-04-04T12:53:58.999Z</time></trkpt><trkpt lat="44.63252911523443" lon="8.120661940585688"><ele>615.0</ele><time>2026-04-04T12:53:59.999Z</time></trkpt><trkpt lat="44.6324512564491" lon="8.120789227533452"><ele>615.0</ele><time>2026-04-04T12:54:00.999Z</time></trkpt><trkpt lat="44.632354907388226" lon="8.120909969855045"><ele>615.0</ele><time>2026-04-04T12:54:01.999Z</time></trkpt><trkpt lat="44.63225046223541" lon="8.121021721435566"><ele>616.25</ele><time>2026-04-04T12:54:02.999Z</time></trkpt><trkpt lat="44.63213886297954" lon="8.121128125055558"><ele>617.5</ele><time>2026-04-04T12:54:03.999Z</time></trkpt><trkpt lat="44.63202415596227" lon="8.12123694681427"><ele>618.75</ele><time>2026-04-04T12:54:04.999Z</time></trkpt><trkpt lat="44.631904090014146" lon="8.12132531538471"><ele>620.0</ele><time>2026-04-04T12:54:05.999Z</time></trkpt><trkpt lat="44.63177444869898" lon="8.121411990344951"><ele>615.0</ele><time>2026-04-04T12:54:06.999Z</time></trkpt><trkpt lat="44.631641572959516" lon="8.121478795450777"><ele>610.0</ele><time>2026-04-04T12:54:07.999Z</time></trkpt><trkpt lat="44.631490364161124" lon="8.121522052779119"><ele>605.0</ele><time>2026-04-04T12:54:08.999Z</time></trkpt><trkpt lat="44.631341040327214" lon="8.12154297070568"><ele>600.0</ele><time>2026-04-04T12:54:09.999Z</time></trkpt><trkpt lat="44.63116756016354" lon="8.121532407481"><ele>601.5</ele><time>2026-04-04T12:54:10.999Z</time></trkpt><trkpt lat="44.6310313667265" lon="8.121583389169984"><ele>603.0</ele><time>2026-04-04T12:54:11.999Z</time></trkpt><trkpt lat="44.630889717219766" lon="8.121627164186087"><ele>604.5</ele><time>2026-04-04T12:54:12.999Z</time></trkpt><trkpt lat="44.630745108243055" lon="8.121681910902288"><ele>606.0</ele><time>2026-04-04T12:54:13.999Z</time></trkpt><trkpt lat="44.63058794565388" lon="8.121706784946293"><ele>606.0</ele><time>2026-04-04T12:54:14.999Z</time></trkpt><trkpt lat="44.63043458279865" lon="8.121743954597964"><ele>606.0</ele><time>2026-04-04T12:54:15.999Z</time></trkpt><trkpt lat="44.63029273884876" lon="8.121778501736046"><ele>606.0</ele><time>2026-04-04T12:54:16.999Z</time></trkpt><trkpt lat="44.630153399834384" lon="8.121812457322335"><ele>606.0</ele><time>2026-04-04T12:54:17.999Z</time></trkpt><trkpt lat="44.630023288140954" lon="8.121844191036361"><ele>604.25</ele><time>2026-04-04T12:54:18.999Z</time></trkpt><trkpt lat="44.62990407767554" lon="8.121859503260874"><ele>602.5</ele><time>2026-04-04T12:54:19.999Z</time></trkpt><trkpt lat="44.62979301849885" lon="8.121886722320168"><ele>600.75</ele><time>2026-04-04T12:54:20.999Z</time></trkpt><trkpt lat="44.6296912238843" lon="8.121970693091907"><ele>599.0</ele><time>2026-04-04T12:54:21.999Z</time></trkpt><trkpt lat="44.62961274004523" lon="8.122094984413971"><ele>599.0</ele><time>2026-04-04T12:54:22.999Z</time></trkpt><trkpt lat="44.62955386560435" lon="8.122266287471595"><ele>599.0</ele><time>2026-04-04T12:54:23.999Z</time></trkpt><trkpt lat="44.629510699043074" lon="8.12245287801373"><ele>599.0</ele><time>2026-04-04T12:54:24.999Z</time></trkpt><trkpt lat="44.629460282059114" lon="8.122625069091463"><ele>599.0</ele><time>2026-04-04T12:54:25.999Z</time></trkpt><trkpt lat="44.62939730543256" lon="8.122780203558609"><ele>599.75</ele><time>2026-04-04T12:54:26.999Z</time></trkpt><trkpt lat="44.62930922578989" lon="8.122927140168617"><ele>600.5</ele><time>2026-04-04T12:54:27.999Z</time></trkpt><trkpt lat="44.62919654467436" lon="8.123065944961228"><ele>601.25</ele><time>2026-04-04T12:54:28.999Z</time></trkpt><trkpt lat="44.62907277845989" lon="8.123176868016904"><ele>602.0</ele><time>2026-04-04T12:54:29.999Z</time></trkpt><trkpt lat="44.62895417119019" lon="8.123282481050639"><ele>602.0</ele><time>2026-04-04T12:54:30.999Z</time></trkpt><trkpt lat="44.62884609731508" lon="8.123363226873362"><ele>602.0</ele><time>2026-04-04T12:54:31.999Z</time></trkpt><trkpt lat="44.628758857958" lon="8.123445984703656"><ele>602.0</ele><time>2026-04-04T12:54:32.999Z</time></trkpt><trkpt lat="44.62868894919953" lon="8.123561567559593"><ele>602.0</ele><time>2026-04-04T12:54:33.999Z</time></trkpt><trkpt lat="44.62865060391581" lon="8.123709431814016"><ele>602.0</ele><time>2026-04-04T12:54:35Z</time></trkpt><trkpt lat="44.628650928282276" lon="8.123872116879719"><ele>602.0</ele><time>2026-04-04T12:54:36Z</time></trkpt><trkpt lat="44.628679489476156" lon="8.124054703736812"><ele>602.0</ele><time>2026-04-04T12:54:37Z</time></trkpt><trkpt lat="44.628748842196515" lon="8.124236649572245"><ele>602.0</ele><time>2026-04-04T12:54:38Z</time></trkpt><trkpt lat="44.62883629630725" lon="8.124402290532373"><ele>602.0</ele><time>2026-04-04T12:54:39Z</time></trkpt><trkpt lat="44.62892228431991" lon="8.124572436334285"><ele>602.5</ele><time>2026-04-04T12:54:40Z</time></trkpt><trkpt lat="44.62899799185895" lon="8.124735181856662"><ele>603.0</ele><time>2026-04-04T12:54:41Z</time></trkpt><trkpt lat="44.62906924135558" lon="8.124893679105535"><ele>603.5</ele><time>2026-04-04T12:54:42Z</time></trkpt><trkpt lat="44.629114738679384" lon="8.125045373301182"><ele>604.0</ele><time>2026-04-04T12:54:43Z</time></trkpt><trkpt lat="44.629147708019616" lon="8.125188510487972"><ele>603.5</ele><time>2026-04-04T12:54:44Z</time></trkpt><trkpt lat="44.62920134561084" lon="8.125306370869383"><ele>603.0</ele><time>2026-04-04T12:54:45Z</time></trkpt><trkpt lat="44.62928609701411" lon="8.12539620949622"><ele>602.5</ele><time>2026-04-04T12:54:46Z</time></trkpt><trkpt lat="44.62939982332026" lon="8.125446466883464"><ele>602.0</ele><time>2026-04-04T12:54:47Z</time></trkpt><trkpt lat="44.62953359233328" lon="8.12544541197045"><ele>602.0</ele><time>2026-04-04T12:54:48Z</time></trkpt><trkpt lat="44.62966990729415" lon="8.125469259465286"><ele>602.0</ele><time>2026-04-04T12:54:49Z</time></trkpt><trkpt lat="44.62981093891398" lon="8.125486841658597"><ele>602.0</ele><time>2026-04-04T12:54:50Z</time></trkpt><trkpt lat="44.62994396066647" lon="8.125493175377978"><ele>602.0</ele><time>2026-04-04T12:54:51Z</time></trkpt><trkpt lat="44.6300768213508" lon="8.125509609035623"><ele>602.0</ele><time>2026-04-04T12:54:52Z</time></trkpt><trkpt lat="44.630185260402094" lon="8.125528310443686"><ele>602.0</ele><time>2026-04-04T12:54:53Z</time></trkpt><trkpt lat="44.63027702859694" lon="8.125582587523553"><ele>602.0</ele><time>2026-04-04T12:54:54Z</time></trkpt><trkpt lat="44.63034709214814" lon="8.125693371689833"><ele>602.0</ele><time>2026-04-04T12:54:55Z</time></trkpt><trkpt lat="44.63040139129812" lon="8.125839362536752"><ele>602.0</ele><time>2026-04-04T12:54:56Z</time></trkpt><trkpt lat="44.6304365171878" lon="8.12601295015209"><ele>602.5</ele><time>2026-04-04T12:54:57Z</time></trkpt><trkpt lat="44.6304564340316" lon="8.126207871197055"><ele>603.0</ele><time>2026-04-04T12:54:58Z</time></trkpt><trkpt lat="44.630477611442245" lon="8.126409786319245"><ele>603.5</ele><time>2026-04-04T12:54:59Z</time></trkpt><trkpt lat="44.63050191949804" lon="8.126595621345517"><ele>604.0</ele><time>2026-04-04T12:55:00Z</time></trkpt><trkpt lat="44.63051914838982" lon="8.126755328179147"><ele>600.0</ele><time>2026-04-04T12:55:01Z</time></trkpt><trkpt lat="44.6305049123277" lon="8.126899681438067"><ele>596.0</ele><time>2026-04-04T12:55:02Z</time></trkpt><trkpt lat="44.63046791312643" lon="8.127046079144154"><ele>592.0</ele><time>2026-04-04T12:55:03Z</time></trkpt><trkpt lat="44.63039781709504" lon="8.127195270260092"><ele>588.0</ele><time>2026-04-04T12:55:04Z</time></trkpt><trkpt lat="44.63029407674196" lon="8.127329947535287"><ele>580.0</ele><time>2026-04-04T12:55:05Z</time></trkpt><trkpt lat="44.630161738246855" lon="8.127435398055603"><ele>572.0</ele><time>2026-04-04T12:55:06Z</time></trkpt><trkpt lat="44.63002320453855" lon="8.127536661300422"><ele>564.0</ele><time>2026-04-04T12:55:07Z</time></trkpt><trkpt lat="44.62988603079991" lon="8.127657657919158"><ele>564.0</ele><time>2026-04-04T12:55:08Z</time></trkpt><trkpt lat="44.6297631350527" lon="8.127778838413077"><ele>564.0</ele><time>2026-04-04T12:55:09Z</time></trkpt><trkpt lat="44.62964742473903" lon="8.127892920104474"><ele>564.0</ele><time>2026-04-04T12:55:10Z</time></trkpt><trkpt lat="44.629537979714506" lon="8.128015628236076"><ele>564.0</ele><time>2026-04-04T12:55:11Z</time></trkpt><trkpt lat="44.62944248729866" lon="8.128172291930936"><ele>561.0</ele><time>2026-04-04T12:55:12Z</time></trkpt><trkpt lat="44.62935802048059" lon="8.12835128093147"><ele>558.0</ele><time>2026-04-04T12:55:13Z</time></trkpt><trkpt lat="44.629282619932916" lon="8.128537205832338"><ele>555.0</ele><time>2026-04-04T12:55:14Z</time></trkpt><trkpt lat="44.62921772336567" lon="8.128710129444013"><ele>552.0</ele><time>2026-04-04T12:55:15Z</time></trkpt><trkpt lat="44.629146110031854" lon="8.128876539089521"><ele>552.0</ele><time>2026-04-04T12:55:16Z</time></trkpt><trkpt lat="44.62906074973956" lon="8.12902002008498"><ele>552.0</ele><time>2026-04-04T12:55:17Z</time></trkpt><trkpt lat="44.62896632695896" lon="8.12914571772372"><ele>552.0</ele><time>2026-04-04T12:55:18Z</time></trkpt><trkpt lat="44.628857002008424" lon="8.12926827051083"><ele>552.0</ele><time>2026-04-04T12:55:19Z</time></trkpt><trkpt lat="44.62873776886764" lon="8.129378240069274"><ele>550.0</ele><time>2026-04-04T12:55:20Z</time></trkpt><trkpt lat="44.62861168097401" lon="8.12947298406776"><ele>548.0</ele><time>2026-04-04T12:55:21Z</time></trkpt><trkpt lat="44.628476650236436" lon="8.129548349432497"><ele>546.0</ele><time>2026-04-04T12:55:22Z</time></trkpt><trkpt lat="44.6283458838739" lon="8.129605928261121"><ele>544.0</ele><time>2026-04-04T12:55:23Z</time></trkpt><trkpt lat="44.62820628508863" lon="8.129639833291737"><ele>544.0</ele><time>2026-04-04T12:55:24Z</time></trkpt><trkpt lat="44.62804621442701" lon="8.129633638954193"><ele>544.0</ele><time>2026-04-04T12:55:25Z</time></trkpt><trkpt lat="44.62787227842131" lon="8.12965335219432"><ele>544.0</ele><time>2026-04-04T12:55:26Z</time></trkpt><trkpt lat="44.62769216176651" lon="8.129658308452585"><ele>541.0</ele><time>2026-04-04T12:55:27Z</time></trkpt><trkpt lat="44.627511605849186" lon="8.129672512427824"><ele>538.0</ele><time>2026-04-04T12:55:28Z</time></trkpt><trkpt lat="44.627324921431125" lon="8.129689379964153"><ele>535.0</ele><time>2026-04-04T12:55:29Z</time></trkpt><trkpt lat="44.627126344709296" lon="8.129724992421975"><ele>531.6666666666667</ele><time>2026-04-04T12:55:30Z</time></trkpt><trkpt lat="44.62694744052127" lon="8.129752177811177"><ele>528.3333333333334</ele><time>2026-04-04T12:55:31Z</time></trkpt><trkpt lat="44.62677678431493" lon="8.129798405955711"><ele>525.0</ele><time>2026-04-04T12:55:32Z</time></trkpt><trkpt lat="44.62662787162723" lon="8.12984417121527"><ele>525.0</ele><time>2026-04-04T12:55:33Z</time></trkpt><trkpt lat="44.62647390421577" lon="8.129881633466121"><ele>525.0</ele><time>2026-04-04T12:55:34Z</time></trkpt><trkpt lat="44.62631316060199" lon="8.129900878988234"><ele>525.0</ele><time>2026-04-04T12:55:35Z</time></trkpt><trkpt lat="44.62618110984998" lon="8.129860075904707"><ele>522.75</ele><time>2026-04-04T12:55:36Z</time></trkpt><trkpt lat="44.626029754921376" lon="8.12990701825214"><ele>520.5</ele><time>2026-04-04T12:55:37Z</time></trkpt><trkpt lat="44.62591925976924" lon="8.129753865797525"><ele>518.25</ele><time>2026-04-04T12:55:38Z</time></trkpt><trkpt lat="44.62579825893276" lon="8.129742239889795"><ele>516.0</ele><time>2026-04-04T12:55:38.999Z</time></trkpt><trkpt lat="44.625671856167045" lon="8.12978591509253"><ele>520.0</ele><time>2026-04-04T12:55:39.999Z</time></trkpt><trkpt lat="44.62554804492533" lon="8.129893931631134"><ele>524.0</ele><time>2026-04-04T12:55:40.999Z</time></trkpt><trkpt lat="44.62539746600097" lon="8.130024965021114"><ele>528.0</ele><time>2026-04-04T12:55:41.999Z</time></trkpt><trkpt lat="44.62526276704246" lon="8.130153195310877"><ele>528.0</ele><time>2026-04-04T12:55:42.999Z</time></trkpt><trkpt lat="44.625118838708666" lon="8.130268112291786"><ele>528.0</ele><time>2026-04-04T12:55:43.999Z</time></trkpt><trkpt lat="44.6249761634543" lon="8.130372114706747"><ele>528.0</ele><time>2026-04-04T12:55:44.999Z</time></trkpt><trkpt lat="44.62483987671089" lon="8.130472328477833"><ele>528.0</ele><time>2026-04-04T12:55:45.999Z</time></trkpt><trkpt lat="44.62472077710322" lon="8.13056107519834"><ele>528.0</ele><time>2026-04-04T12:55:46.999Z</time></trkpt><trkpt lat="44.624581170698406" lon="8.130607868375865"><ele>528.0</ele><time>2026-04-04T12:55:47.999Z</time></trkpt><trkpt lat="44.62444171006318" lon="8.130612016129064"><ele>528.0</ele><time>2026-04-04T12:55:48.999Z</time></trkpt><trkpt lat="44.624308911620446" lon="8.130618518603416"><ele>525.1999999999999</ele><time>2026-04-04T12:55:49.999Z</time></trkpt><trkpt lat="44.62418249261257" lon="8.13064486703554"><ele>522.4</ele><time>2026-04-04T12:55:50.999Z</time></trkpt><trkpt lat="44.62406802557168" lon="8.130652899413949"><ele>519.5999999999999</ele><time>2026-04-04T12:55:51.999Z</time></trkpt><trkpt lat="44.623969408772" lon="8.130652898353373"><ele>516.8</ele><time>2026-04-04T12:55:52.999Z</time></trkpt><trkpt lat="44.62389636021527" lon="8.130642095102617"><ele>514.0</ele><time>2026-04-04T12:55:53.999Z</time></trkpt><trkpt lat="44.62384767053965" lon="8.130585098422497"><ele>514.0</ele><time>2026-04-04T12:55:54.999Z</time></trkpt><trkpt lat="44.62383149451466" lon="8.130493786190735"><ele>514.0</ele><time>2026-04-04T12:55:55.999Z</time></trkpt><trkpt lat="44.62388207371716" lon="8.130399779723701"><ele>514.0</ele><time>2026-04-04T12:55:56.999Z</time></trkpt><trkpt lat="44.62397172800981" lon="8.130397263608739"><ele>514.0</ele><time>2026-04-04T12:55:57.999Z</time></trkpt><trkpt lat="44.624075556420195" lon="8.130339094390482"><ele>514.0</ele><time>2026-04-04T12:55:58.999Z</time></trkpt><trkpt lat="44.62420091969394" lon="8.130247840815287"><ele>514.0</ele><time>2026-04-04T12:55:59.999Z</time></trkpt><trkpt lat="44.62435878078288" lon="8.130152826225512"><ele>514.0</ele><time>2026-04-04T12:56:00.999Z</time></trkpt><trkpt lat="44.624527974481225" lon="8.130056384552727"><ele>514.0</ele><time>2026-04-04T12:56:01.999Z</time></trkpt><trkpt lat="44.62469810227223" lon="8.1299647708962"><ele>510.6666666666667</ele><time>2026-04-04T12:56:02.999Z</time></trkpt><trkpt lat="44.62486507334462" lon="8.12986464157432"><ele>507.33333333333337</ele><time>2026-04-04T12:56:03.999Z</time></trkpt><trkpt lat="44.62503964667923" lon="8.12976980205362"><ele>504.0</ele><time>2026-04-04T12:56:04.999Z</time></trkpt><trkpt lat="44.625207523846804" lon="8.129670494988073"><ele>508.0</ele><time>2026-04-04T12:56:05.999Z</time></trkpt><trkpt lat="44.62536772515267" lon="8.129573444434035"><ele>512.0</ele><time>2026-04-04T12:56:06.999Z</time></trkpt><trkpt lat="44.625514214133034" lon="8.129483043230637"><ele>516.0</ele><time>2026-04-04T12:56:07.999Z</time></trkpt><trkpt lat="44.625651406932775" lon="8.12941048756677"><ele>516.0</ele><time>2026-04-04T12:56:08.999Z</time></trkpt><trkpt lat="44.62577084164188" lon="8.129340884843252"><ele>516.0</ele><time>2026-04-04T12:56:09.999Z</time></trkpt><trkpt lat="44.625879600356974" lon="8.129262003784403"><ele>516.0</ele><time>2026-04-04T12:56:10.999Z</time></trkpt><trkpt lat="44.62596905626775" lon="8.129208080642448"><ele>516.0</ele><time>2026-04-04T12:56:11.999Z</time></trkpt><trkpt lat="44.62603525483062" lon="8.129133783330746"><ele>516.0</ele><time>2026-04-04T12:56:12.999Z</time></trkpt><trkpt lat="44.626068481414016" lon="8.129025995194162"><ele>511.4</ele><time>2026-04-04T12:56:13.999Z</time></trkpt><trkpt lat="44.62607061992188" lon="8.128908977293495"><ele>506.8</ele><time>2026-04-04T12:56:14.999Z</time></trkpt><trkpt lat="44.62597887374317" lon="8.128836994724722"><ele>502.19999999999993</ele><time>2026-04-04T12:56:15.999Z</time></trkpt><trkpt lat="44.62588924423109" lon="8.128812697400422"><ele>497.59999999999997</ele><time>2026-04-04T12:56:16.999Z</time></trkpt><trkpt lat="44.62578083667343" lon="8.12884391065953"><ele>493.0</ele><time>2026-04-04T12:56:17.999Z</time></trkpt><trkpt lat="44.62563916474285" lon="8.128895246463665"><ele>493.0</ele><time>2026-04-04T12:56:18.999Z</time></trkpt><trkpt lat="44.62547333819379" lon="8.128953429594533"><ele>493.0</ele><time>2026-04-04T12:56:19.999Z</time></trkpt><trkpt lat="44.62530198544913" lon="8.129022624450474"><ele>493.0</ele><time>2026-04-04T12:56:20.999Z</time></trkpt><trkpt lat="44.625128309429" lon="8.129090054986019"><ele>496.6666666666667</ele><time>2026-04-04T12:56:21.999Z</time></trkpt><trkpt lat="44.6249384425226" lon="8.129160105286058"><ele>500.33333333333337</ele><time>2026-04-04T12:56:22.999Z</time></trkpt><trkpt lat="44.62474403597215" lon="8.12923536283088"><ele>504.0</ele><time>2026-04-04T12:56:23.999Z</time></trkpt><trkpt lat="44.624560298881555" lon="8.129305018028742"><ele>498.33333333333337</ele><time>2026-04-04T12:56:24.999Z</time></trkpt><trkpt lat="44.624386077050744" lon="8.12937111177978"><ele>492.6666666666667</ele><time>2026-04-04T12:56:25.999Z</time></trkpt><trkpt lat="44.62421816614214" lon="8.129432813867783"><ele>487.0</ele><time>2026-04-04T12:56:26.999Z</time></trkpt><trkpt lat="44.624058970458904" lon="8.129488925504987"><ele>487.0</ele><time>2026-04-04T12:56:27.999Z</time></trkpt><trkpt lat="44.62391356785398" lon="8.129537472422927"><ele>487.0</ele><time>2026-04-04T12:56:28.999Z</time></trkpt><trkpt lat="44.62379375864622" lon="8.129581147346668"><ele>487.0</ele><time>2026-04-04T12:56:29.999Z</time></trkpt><trkpt lat="44.62366887654337" lon="8.129580204925427"><ele>487.0</ele><time>2026-04-04T12:56:30.999Z</time></trkpt><trkpt lat="44.623540246053615" lon="8.129528750716762"><ele>485.25</ele><time>2026-04-04T12:56:31.999Z</time></trkpt><trkpt lat="44.62340072922622" lon="8.129456517472661"><ele>483.5</ele><time>2026-04-04T12:56:32.999Z</time></trkpt><trkpt lat="44.62327452496435" lon="8.129392560582053"><ele>481.75</ele><time>2026-04-04T12:56:33.999Z</time></trkpt><trkpt lat="44.62314315712833" lon="8.129346585563999"><ele>480.0</ele><time>2026-04-04T12:56:34.999Z</time></trkpt><trkpt lat="44.623027775534325" lon="8.129306904646912"><ele>480.0</ele><time>2026-04-04T12:56:35.999Z</time></trkpt><trkpt lat="44.62290290762666" lon="8.129313918693976"><ele>480.0</ele><time>2026-04-04T12:56:36.999Z</time></trkpt><trkpt lat="44.62277646878751" lon="8.129366344314349"><ele>480.0</ele><time>2026-04-04T12:56:37.999Z</time></trkpt><trkpt lat="44.622613112713395" lon="8.129451150168006"><ele>480.0</ele><time>2026-04-04T12:56:38.999Z</time></trkpt><trkpt lat="44.622485077067786" lon="8.129521600497881"><ele>482.25</ele><time>2026-04-04T12:56:39.999Z</time></trkpt><trkpt lat="44.622369723537645" lon="8.129578856465026"><ele>484.5</ele><time>2026-04-04T12:56:41Z</time></trkpt><trkpt lat="44.62227247523461" lon="8.129669455942064"><ele>486.75</ele><time>2026-04-04T12:56:42Z</time></trkpt><trkpt lat="44.62218699937754" lon="8.129810964936686"><ele>489.0</ele><time>2026-04-04T12:56:43Z</time></trkpt><trkpt lat="44.62212331094345" lon="8.129979966068511"><ele>489.0</ele><time>2026-04-04T12:56:44Z</time></trkpt><trkpt lat="44.62208907036014" lon="8.130154426596938"><ele>489.0</ele><time>2026-04-04T12:56:45Z</time></trkpt><trkpt lat="44.62208677617942" lon="8.13033223406968"><ele>489.0</ele><time>2026-04-04T12:56:46Z</time></trkpt><trkpt lat="44.62211022284601" lon="8.13051772602354"><ele>489.0</ele><time>2026-04-04T12:56:47Z</time></trkpt><trkpt lat="44.622156362600805" lon="8.130691234716586"><ele>489.4</ele><time>2026-04-04T12:56:48Z</time></trkpt><trkpt lat="44.622204957103556" lon="8.130845454642069"><ele>489.79999999999995</ele><time>2026-04-04T12:56:49Z</time></trkpt><trkpt lat="44.62222516932396" lon="8.130990548087546"><ele>490.20000000000005</ele><time>2026-04-04T12:56:50Z</time></trkpt><trkpt lat="44.62219624527944" lon="8.131130087882273"><ele>490.6</ele><time>2026-04-04T12:56:51Z</time></trkpt><trkpt lat="44.622117778108425" lon="8.13124337860162"><ele>491.0</ele><time>2026-04-04T12:56:52Z</time></trkpt><trkpt lat="44.62200094677717" lon="8.131333153588598"><ele>486.0</ele><time>2026-04-04T12:56:53Z</time></trkpt><trkpt lat="44.621871339713465" lon="8.131408969267461"><ele>481.0</ele><time>2026-04-04T12:56:54Z</time></trkpt><trkpt lat="44.621734737463754" lon="8.13149114527963"><ele>476.0</ele><time>2026-04-04T12:56:55Z</time></trkpt><trkpt lat="44.62159963081353" lon="8.131580474901622"><ele>471.0</ele><time>2026-04-04T12:56:56Z</time></trkpt><trkpt lat="44.621479335154056" lon="8.131671483619616"><ele>471.0</ele><time>2026-04-04T12:56:57Z</time></trkpt><trkpt lat="44.62137324032468" lon="8.13175670205337"><ele>471.0</ele><time>2026-04-04T12:56:58Z</time></trkpt><trkpt lat="44.62128531006267" lon="8.131827359093684"><ele>471.0</ele><time>2026-04-04T12:56:59Z</time></trkpt><trkpt lat="44.62123031568004" lon="8.131888547447451"><ele>471.0</ele><time>2026-04-04T12:57:00Z</time></trkpt><trkpt lat="44.62119067046687" lon="8.131997170376295"><ele>471.0</ele><time>2026-04-04T12:57:01Z</time></trkpt><trkpt lat="44.62120408973018" lon="8.132115828396932"><ele>471.0</ele><time>2026-04-04T12:57:02Z</time></trkpt><trkpt lat="44.62125895949958" lon="8.132184924903543"><ele>471.0</ele><time>2026-04-04T12:57:03Z</time></trkpt><trkpt lat="44.62134818738723" lon="8.132271621385456"><ele>471.0</ele><time>2026-04-04T12:57:04Z</time></trkpt><trkpt lat="44.621448037116686" lon="8.132330458232701"><ele>471.0</ele><time>2026-04-04T12:57:05Z</time></trkpt><trkpt lat="44.621548797718546" lon="8.13242129936673"><ele>471.0</ele><time>2026-04-04T12:57:06Z</time></trkpt><trkpt lat="44.62166652455748" lon="8.132494408286526"><ele>470.4</ele><time>2026-04-04T12:57:07Z</time></trkpt><trkpt lat="44.621777330441255" lon="8.1325756775153"><ele>469.8</ele><time>2026-04-04T12:57:08Z</time></trkpt><trkpt lat="44.621883483559934" lon="8.13265100617166"><ele>469.19999999999993</ele><time>2026-04-04T12:57:09Z</time></trkpt><trkpt lat="44.621982452208556" lon="8.132714958423104"><ele>468.59999999999997</ele><time>2026-04-04T12:57:10Z</time></trkpt><trkpt lat="44.62205290164135" lon="8.132797575288572"><ele>468.0</ele><time>2026-04-04T12:57:11Z</time></trkpt><trkpt lat="44.622122519885814" lon="8.132841102334432"><ele>468.0</ele><time>2026-04-04T12:57:12Z</time></trkpt><trkpt lat="44.6221500641693" lon="8.132947029320343"><ele>468.0</ele><time>2026-04-04T12:57:13Z</time></trkpt><trkpt lat="44.62213397009508" lon="8.133062828034188"><ele>468.0</ele><time>2026-04-04T12:57:14Z</time></trkpt><trkpt lat="44.62207258374953" lon="8.133145372711168"><ele>468.0</ele><time>2026-04-04T12:57:15Z</time></trkpt><trkpt lat="44.62198559076644" lon="8.133180353844676"><ele>468.0</ele><time>2026-04-04T12:57:16Z</time></trkpt><trkpt lat="44.621882094005066" lon="8.133156413054556"><ele>468.0</ele><time>2026-04-04T12:57:17Z</time></trkpt><trkpt lat="44.621773494079925" lon="8.133102040767946"><ele>468.0</ele><time>2026-04-04T12:57:18Z</time></trkpt><trkpt lat="44.621658056763465" lon="8.133062545809343"><ele>468.0</ele><time>2026-04-04T12:57:19Z</time></trkpt><trkpt lat="44.6215581854121" lon="8.133077812259904"><ele>468.0</ele><time>2026-04-04T12:57:20Z</time></trkpt><trkpt lat="44.62145072287416" lon="8.133144939990231"><ele>468.0</ele><time>2026-04-04T12:57:21Z</time></trkpt><trkpt lat="44.6213515040508" lon="8.133271069426115"><ele>465.25</ele><time>2026-04-04T12:57:22Z</time></trkpt><trkpt lat="44.62124677257794" lon="8.133416029123907"><ele>462.5</ele><time>2026-04-04T12:57:23Z</time></trkpt><trkpt lat="44.62113169041181" lon="8.133565944172776"><ele>459.75</ele><time>2026-04-04T12:57:24Z</time></trkpt><trkpt lat="44.62102283510484" lon="8.133672927427634"><ele>457.0</ele><time>2026-04-04T12:57:25Z</time></trkpt><trkpt lat="44.62087657647101" lon="8.133837561938309"><ele>455.6666666666667</ele><time>2026-04-04T12:57:26Z</time></trkpt><trkpt lat="44.62072617006021" lon="8.133969722594822"><ele>454.33333333333337</ele><time>2026-04-04T12:57:27Z</time></trkpt><trkpt lat="44.62056416407675" lon="8.134075896408039"><ele>453.0</ele><time>2026-04-04T12:57:28Z</time></trkpt><trkpt lat="44.62039669871806" lon="8.134154374016656"><ele>447.0</ele><time>2026-04-04T12:57:29Z</time></trkpt><trkpt lat="44.620236826985625" lon="8.134227637762184"><ele>441.0</ele><time>2026-04-04T12:57:30Z</time></trkpt><trkpt lat="44.620086312016326" lon="8.134300893136732"><ele>435.0</ele><time>2026-04-04T12:57:31Z</time></trkpt><trkpt lat="44.619948616240976" lon="8.134372206567644"><ele>435.0</ele><time>2026-04-04T12:57:31.999Z</time></trkpt><trkpt lat="44.61981846393991" lon="8.134435432191806"><ele>435.0</ele><time>2026-04-04T12:57:32.999Z</time></trkpt><trkpt lat="44.619706052582785" lon="8.134502951247375"><ele>435.0</ele><time>2026-04-04T12:57:33.999Z</time></trkpt><trkpt lat="44.619610421115574" lon="8.134598994728444"><ele>435.0</ele><time>2026-04-04T12:57:34.999Z</time></trkpt><trkpt lat="44.61953778443083" lon="8.134706471869192"><ele>435.0</ele><time>2026-04-04T12:57:35.999Z</time></trkpt><trkpt lat="44.61948442455608" lon="8.134817096585168"><ele>435.0</ele><time>2026-04-04T12:57:36.999Z</time></trkpt><trkpt lat="44.619440371946965" lon="8.134909846129432"><ele>435.0</ele><time>2026-04-04T12:57:37.999Z</time></trkpt><trkpt lat="44.61936037676829" lon="8.134944102986585"><ele>435.0</ele><time>2026-04-04T12:57:38.999Z</time></trkpt><trkpt lat="44.61926342839782" lon="8.134913329861664"><ele>435.0</ele><time>2026-04-04T12:57:39.999Z</time></trkpt><trkpt lat="44.619166933986456" lon="8.13482915057536"><ele>431.5</ele><time>2026-04-04T12:57:40.999Z</time></trkpt><trkpt lat="44.61906446887944" lon="8.134733167109474"><ele>428.0</ele><time>2026-04-04T12:57:41.999Z</time></trkpt><trkpt lat="44.618945654889046" lon="8.134667333233715"><ele>424.5</ele><time>2026-04-04T12:57:42.999Z</time></trkpt><trkpt lat="44.61880808716097" lon="8.134628987877418"><ele>421.0</ele><time>2026-04-04T12:57:43.999Z</time></trkpt><trkpt lat="44.61866600765269" lon="8.13461318448033"><ele>415.75</ele><time>2026-04-04T12:57:44.999Z</time></trkpt><trkpt lat="44.618532404772616" lon="8.134610343635444"><ele>410.5</ele><time>2026-04-04T12:57:45.999Z</time></trkpt><trkpt lat="44.61841247241152" lon="8.13460124307424"><ele>405.25</ele><time>2026-04-04T12:57:46.999Z</time></trkpt><trkpt lat="44.61831344004352" lon="8.134614043389165"><ele>400.0</ele><time>2026-04-04T12:57:47.999Z</time></trkpt><trkpt lat="44.6182161683953" lon="8.134632490795846"><ele>400.0</ele><time>2026-04-04T12:57:48.999Z</time></trkpt><trkpt lat="44.61812936219894" lon="8.134725258546204"><ele>400.0</ele><time>2026-04-04T12:57:49.999Z</time></trkpt><trkpt lat="44.618066560137926" lon="8.134878243538509"><ele>400.0</ele><time>2026-04-04T12:57:50.999Z</time></trkpt><trkpt lat="44.61804653070406" lon="8.135042608829226"><ele>400.0</ele><time>2026-04-04T12:57:51.999Z</time></trkpt><trkpt lat="44.618029338263554" lon="8.13523018573636"><ele>399.0</ele><time>2026-04-04T12:57:52.999Z</time></trkpt><trkpt lat="44.61798748262741" lon="8.135420666720925"><ele>398.0</ele><time>2026-04-04T12:57:53.999Z</time></trkpt><trkpt lat="44.61795698770932" lon="8.13561561021026"><ele>397.0</ele><time>2026-04-04T12:57:54.999Z</time></trkpt><trkpt lat="44.61789145665665" lon="8.135785422747055"><ele>396.0</ele><time>2026-04-04T12:57:55.999Z</time></trkpt><trkpt lat="44.61781272876011" lon="8.135936180289649"><ele>396.0</ele><time>2026-04-04T12:57:56.999Z</time></trkpt><trkpt lat="44.61772013364852" lon="8.136061606497393"><ele>396.0</ele><time>2026-04-04T12:57:57.999Z</time></trkpt><trkpt lat="44.61759826701639" lon="8.136155924538198"><ele>396.0</ele><time>2026-04-04T12:57:58.999Z</time></trkpt><trkpt lat="44.617467398877764" lon="8.136221076191278"><ele>396.0</ele><time>2026-04-04T12:57:59.999Z</time></trkpt><trkpt lat="44.61734827055909" lon="8.136300669124592"><ele>396.0</ele><time>2026-04-04T12:58:00.999Z</time></trkpt><trkpt lat="44.61724311686818" lon="8.136432753970752"><ele>396.0</ele><time>2026-04-04T12:58:01.999Z</time></trkpt><trkpt lat="44.61714108644321" lon="8.136581037605826"><ele>396.0</ele><time>2026-04-04T12:58:02.999Z</time></trkpt><trkpt lat="44.61703895781405" lon="8.136719997962729"><ele>396.0</ele><time>2026-04-04T12:58:03.999Z</time></trkpt><trkpt lat="44.616939531048935" lon="8.136871306362382"><ele>395.75</ele><time>2026-04-04T12:58:04.999Z</time></trkpt><trkpt lat="44.61685624920826" lon="8.137046955693629"><ele>395.5</ele><time>2026-04-04T12:58:05.999Z</time></trkpt><trkpt lat="44.616784235643955" lon="8.13722820778266"><ele>395.25</ele><time>2026-04-04T12:58:06.999Z</time></trkpt><trkpt lat="44.61671655084127" lon="8.137406447763937"><ele>395.0</ele><time>2026-04-04T12:58:07.999Z</time></trkpt><trkpt lat="44.616645770446695" lon="8.137565266384689"><ele>395.0</ele><time>2026-04-04T12:58:08.999Z</time></trkpt><trkpt lat="44.616591343966135" lon="8.137716491611648"><ele>395.0</ele><time>2026-04-04T12:58:09.999Z</time></trkpt><trkpt lat="44.61656145759713" lon="8.137871545147522"><ele>395.0</ele><time>2026-04-04T12:58:10.999Z</time></trkpt><trkpt lat="44.61656769472577" lon="8.138029175382023"><ele>395.0</ele><time>2026-04-04T12:58:11.999Z</time></trkpt><trkpt lat="44.61659125981551" lon="8.138181145489924"><ele>397.0</ele><time>2026-04-04T12:58:12.999Z</time></trkpt><trkpt lat="44.61666312373926" lon="8.138298102181533"><ele>399.0</ele><time>2026-04-04T12:58:13.999Z</time></trkpt><trkpt lat="44.616681206073906" lon="8.138413078163753"><ele>401.0</ele><time>2026-04-04T12:58:14.999Z</time></trkpt><trkpt lat="44.61665013810635" lon="8.138514786256804"><ele>403.0</ele><time>2026-04-04T12:58:15.999Z</time></trkpt><trkpt lat="44.616584800629596" lon="8.13857995104205"><ele>405.0</ele><time>2026-04-04T12:58:16.999Z</time></trkpt><trkpt lat="44.61648800776721" lon="8.138608559653598"><ele>405.0</ele><time>2026-04-04T12:58:17.999Z</time></trkpt><trkpt lat="44.61636778446775" lon="8.138617076375608"><ele>405.0</ele><time>2026-04-04T12:58:18.999Z</time></trkpt><trkpt lat="44.61624533737616" lon="8.138629601024283"><ele>405.0</ele><time>2026-04-04T12:58:19.999Z</time></trkpt><trkpt lat="44.61613544370437" lon="8.138668362151847"><ele>405.0</ele><time>2026-04-04T12:58:20.999Z</time></trkpt><trkpt lat="44.61603612699575" lon="8.138756363994279"><ele>400.5</ele><time>2026-04-04T12:58:21.999Z</time></trkpt><trkpt lat="44.615944160078136" lon="8.13890183525296"><ele>396.0</ele><time>2026-04-04T12:58:22.999Z</time></trkpt><trkpt lat="44.61586165789381" lon="8.139076591506448"><ele>391.5</ele><time>2026-04-04T12:58:23.999Z</time></trkpt><trkpt lat="44.615777831607836" lon="8.139255600895355"><ele>387.0</ele><time>2026-04-04T12:58:24.999Z</time></trkpt><trkpt lat="44.61571359641634" lon="8.139421190627841"><ele>387.0</ele><time>2026-04-04T12:58:25.999Z</time></trkpt><trkpt lat="44.61567512973196" lon="8.139582877532805"><ele>387.0</ele><time>2026-04-04T12:58:26.999Z</time></trkpt><trkpt lat="44.61565497502994" lon="8.139738906187956"><ele>387.0</ele><time>2026-04-04T12:58:27.999Z</time></trkpt><trkpt lat="44.61559577871003" lon="8.139867878607575"><ele>387.0</ele><time>2026-04-04T12:58:28.999Z</time></trkpt><trkpt lat="44.615477952504364" lon="8.139941104695458"><ele>393.66666666666663</ele><time>2026-04-04T12:58:29.999Z</time></trkpt><trkpt lat="44.615344229244755" lon="8.14003942465769"><ele>400.3333333333333</ele><time>2026-04-04T12:58:30.999Z</time></trkpt><trkpt lat="44.61520221537109" lon="8.140147029025352"><ele>407.0</ele><time>2026-04-04T12:58:31.999Z</time></trkpt><trkpt lat="44.61506207809228" lon="8.140286518532035"><ele>403.3333333333333</ele><time>2026-04-04T12:58:32.999Z</time></trkpt><trkpt lat="44.61492234919298" lon="8.140444949748492"><ele>399.66666666666663</ele><time>2026-04-04T12:58:33.999Z</time></trkpt><trkpt lat="44.614783461495065" lon="8.140612867027018"><ele>396.0</ele><time>2026-04-04T12:58:34.999Z</time></trkpt><trkpt lat="44.61463376340047" lon="8.140780432891983"><ele>382.6666666666667</ele><time>2026-04-04T12:58:35.999Z</time></trkpt><trkpt lat="44.614473335630024" lon="8.14094827057389"><ele>369.33333333333337</ele><time>2026-04-04T12:58:36.999Z</time></trkpt><trkpt lat="44.61431902010076" lon="8.141118979329862"><ele>356.0</ele><time>2026-04-04T12:58:37.999Z</time></trkpt><trkpt lat="44.61417773408209" lon="8.141285724776184"><ele>356.0</ele><time>2026-04-04T12:58:38.999Z</time></trkpt><trkpt lat="44.614037635987025" lon="8.141444132988486"><ele>356.0</ele><time>2026-04-04T12:58:39.999Z</time></trkpt><trkpt lat="44.613905148752686" lon="8.141590308468528"><ele>356.0</ele><time>2026-04-04T12:58:40.999Z</time></trkpt><trkpt lat="44.61376994833869" lon="8.141742202553353"><ele>354.33333333333337</ele><time>2026-04-04T12:58:41.999Z</time></trkpt><trkpt lat="44.613642964808605" lon="8.141883959470032"><ele>352.6666666666667</ele><time>2026-04-04T12:58:42.999Z</time></trkpt><trkpt lat="44.613515022309436" lon="8.1420148007441"><ele>351.0</ele><time>2026-04-04T12:58:43.999Z</time></trkpt><trkpt lat="44.613404725391575" lon="8.142141021116712"><ele>351.0</ele><time>2026-04-04T12:58:44.999Z</time></trkpt><trkpt lat="44.61329513371312" lon="8.1422600897428"><ele>351.0</ele><time>2026-04-04T12:58:45.999Z</time></trkpt><trkpt lat="44.61319972594542" lon="8.14237060006025"><ele>351.0</ele><time>2026-04-04T12:58:47Z</time></trkpt><trkpt lat="44.61311499098292" lon="8.142473220925888"><ele>351.0</ele><time>2026-04-04T12:58:48Z</time></trkpt><trkpt lat="44.61304894292405" lon="8.14258237068362"><ele>355.75</ele><time>2026-04-04T12:58:49Z</time></trkpt><trkpt lat="44.612999882084424" lon="8.142717688790327"><ele>360.5</ele><time>2026-04-04T12:58:50Z</time></trkpt><trkpt lat="44.612985821143425" lon="8.142880174040062"><ele>365.25</ele><time>2026-04-04T12:58:51Z</time></trkpt><trkpt lat="44.61300776701076" lon="8.143054172259827"><ele>370.0</ele><time>2026-04-04T12:58:52Z</time></trkpt><trkpt lat="44.6130869501227" lon="8.143219709993346"><ele>371.0</ele><time>2026-04-04T12:58:53Z</time></trkpt><trkpt lat="44.61317482297695" lon="8.143389271205603"><ele>372.0</ele><time>2026-04-04T12:58:54Z</time></trkpt><trkpt lat="44.61326338902704" lon="8.143575689958766"><ele>373.0</ele><time>2026-04-04T12:58:55Z</time></trkpt><trkpt lat="44.613352270559076" lon="8.143776303279626"><ele>373.0</ele><time>2026-04-04T12:58:56Z</time></trkpt><trkpt lat="44.613433780888684" lon="8.143962108677052"><ele>373.0</ele><time>2026-04-04T12:58:57Z</time></trkpt><trkpt lat="44.61351101355087" lon="8.144139546212894"><ele>373.0</ele><time>2026-04-04T12:58:58Z</time></trkpt><trkpt lat="44.61357730916473" lon="8.14429791003304"><ele>373.0</ele><time>2026-04-04T12:58:59Z</time></trkpt><trkpt lat="44.61364505835136" lon="8.144429614431186"><ele>375.2</ele><time>2026-04-04T12:59:00Z</time></trkpt><trkpt lat="44.61374155481578" lon="8.144540090530382"><ele>377.4</ele><time>2026-04-04T12:59:01Z</time></trkpt><trkpt lat="44.613855087970414" lon="8.144617992935972"><ele>379.59999999999997</ele><time>2026-04-04T12:59:02Z</time></trkpt><trkpt lat="44.61394944840231" lon="8.144680000030634"><ele>381.79999999999995</ele><time>2026-04-04T12:59:03Z</time></trkpt><trkpt lat="44.61402622995991" lon="8.144732269967655"><ele>384.0</ele><time>2026-04-04T12:59:04Z</time></trkpt><trkpt lat="44.61408270231775" lon="8.14477945348298"><ele>384.0</ele><time>2026-04-04T12:59:05Z</time></trkpt><trkpt lat="44.61408995903477" lon="8.144872970996685"><ele>384.0</ele><time>2026-04-04T12:59:07Z</time></trkpt><trkpt lat="44.6139684656634" lon="8.144882208790712"><ele>384.0</ele><time>2026-04-04T12:59:09Z</time></trkpt><trkpt lat="44.613900217625165" lon="8.144811012859066"><ele>384.0</ele><time>2026-04-04T12:59:10Z</time></trkpt><trkpt lat="44.61381437572036" lon="8.144712017350562"><ele>384.0</ele><time>2026-04-04T12:59:11Z</time></trkpt><trkpt lat="44.61370276081054" lon="8.144602707702015"><ele>373.6666666666667</ele><time>2026-04-04T12:59:12Z</time></trkpt><trkpt lat="44.613568954151425" lon="8.144478613530703"><ele>363.33333333333337</ele><time>2026-04-04T12:59:13Z</time></trkpt><trkpt lat="44.613417911919285" lon="8.144336297612334"><ele>353.0</ele><time>2026-04-04T12:59:14Z</time></trkpt><trkpt lat="44.61326536027329" lon="8.144194642854645"><ele>353.0</ele><time>2026-04-04T12:59:15Z</time></trkpt><trkpt lat="44.613125817055874" lon="8.144065859038907"><ele>353.0</ele><time>2026-04-04T12:59:16Z</time></trkpt><trkpt lat="44.61299484807691" lon="8.14393788120512"><ele>353.0</ele><time>2026-04-04T12:59:17Z</time></trkpt><trkpt lat="44.61286356963112" lon="8.143818843165686"><ele>350.0</ele><time>2026-04-04T12:59:18Z</time></trkpt><trkpt lat="44.61274601248961" lon="8.143706488027561"><ele>347.0</ele><time>2026-04-04T12:59:19Z</time></trkpt><trkpt lat="44.612639684825055" lon="8.14359324263447"><ele>344.0</ele><time>2026-04-04T12:59:20Z</time></trkpt><trkpt lat="44.61255072773742" lon="8.143488363612828"><ele>341.0</ele><time>2026-04-04T12:59:21Z</time></trkpt><trkpt lat="44.61247426722916" lon="8.14339099093531"><ele>341.0</ele><time>2026-04-04T12:59:22Z</time></trkpt><trkpt lat="44.61240613890054" lon="8.143298772912829"><ele>341.0</ele><time>2026-04-04T12:59:23Z</time></trkpt><trkpt lat="44.61231818258042" lon="8.143238136545012"><ele>341.0</ele><time>2026-04-04T12:59:24Z</time></trkpt><trkpt lat="44.612245144054064" lon="8.14323028484991"><ele>341.0</ele><time>2026-04-04T12:59:25Z</time></trkpt><trkpt lat="44.612170832672156" lon="8.1432737629486"><ele>341.0</ele><time>2026-04-04T12:59:26Z</time></trkpt><trkpt lat="44.61212068205931" lon="8.14336921837679"><ele>341.0</ele><time>2026-04-04T12:59:27Z</time></trkpt><trkpt lat="44.612114789427274" lon="8.143494064774325"><ele>341.0</ele><time>2026-04-04T12:59:28Z</time></trkpt><trkpt lat="44.612151645859875" lon="8.143601813827264"><ele>341.0</ele><time>2026-04-04T12:59:29Z</time></trkpt><trkpt lat="44.61222565904616" lon="8.143700989151624"><ele>341.0</ele><time>2026-04-04T12:59:30Z</time></trkpt><trkpt lat="44.61230573724276" lon="8.143814669886922"><ele>341.0</ele><time>2026-04-04T12:59:31Z</time></trkpt><trkpt lat="44.61237052439498" lon="8.143975728797907"><ele>341.0</ele><time>2026-04-04T12:59:32Z</time></trkpt><trkpt lat="44.61237525282373" lon="8.144171415969652"><ele>337.6666666666667</ele><time>2026-04-04T12:59:33Z</time></trkpt><trkpt lat="44.612364408938575" lon="8.144385694309483"><ele>334.3333333333333</ele><time>2026-04-04T12:59:34Z</time></trkpt><trkpt lat="44.61236293040926" lon="8.144622063469155"><ele>331.0</ele><time>2026-04-04T12:59:35Z</time></trkpt><trkpt lat="44.61234610843667" lon="8.144857984558326"><ele>327.66666666666663</ele><time>2026-04-04T12:59:36Z</time></trkpt><trkpt lat="44.61233692151201" lon="8.145080093814018"><ele>324.3333333333333</ele><time>2026-04-04T12:59:36.999Z</time></trkpt><trkpt lat="44.612324481727875" lon="8.145312360218997"><ele>321.0</ele><time>2026-04-04T12:59:37.999Z</time></trkpt><trkpt lat="44.61230736402649" lon="8.145543074627641"><ele>321.6666666666667</ele><time>2026-04-04T12:59:38.999Z</time></trkpt><trkpt lat="44.612293953372" lon="8.145764829384776"><ele>322.33333333333337</ele><time>2026-04-04T12:59:39.999Z</time></trkpt><trkpt lat="44.61228077189918" lon="8.145971336201244"><ele>323.0</ele><time>2026-04-04T12:59:40.999Z</time></trkpt><trkpt lat="44.61227234434363" lon="8.146177477655998"><ele>323.0</ele><time>2026-04-04T12:59:41.999Z</time></trkpt><trkpt lat="44.612261705975584" lon="8.146386834954072"><ele>323.0</ele><time>2026-04-04T12:59:42.999Z</time></trkpt><trkpt lat="44.61225547960429" lon="8.14658039320018"><ele>323.0</ele><time>2026-04-04T12:59:43.999Z</time></trkpt><trkpt lat="44.61224094767947" lon="8.146746557351863"><ele>323.0</ele><time>2026-04-04T12:59:44.999Z</time></trkpt><trkpt lat="44.61223224782513" lon="8.146894452825917"><ele>324.2</ele><time>2026-04-04T12:59:45.999Z</time></trkpt><trkpt lat="44.61223091775907" lon="8.146994405241934"><ele>325.4</ele><time>2026-04-04T12:59:46.999Z</time></trkpt><trkpt lat="44.612215907597545" lon="8.147085541924824"><ele>326.59999999999997</ele><time>2026-04-04T12:59:47.999Z</time></trkpt><trkpt lat="44.612162796932964" lon="8.14720455013636"><ele>327.79999999999995</ele><time>2026-04-04T12:59:49.999Z</time></trkpt><trkpt lat="44.611998068811594" lon="8.147138526037068"><ele>329.0</ele><time>2026-04-04T12:59:51.999Z</time></trkpt><trkpt lat="44.61190922107935" lon="8.147115391543366"><ele>330.75</ele><time>2026-04-04T12:59:52.999Z</time></trkpt><trkpt lat="44.61180584294775" lon="8.147093593549997"><ele>332.5</ele><time>2026-04-04T12:59:53.999Z</time></trkpt><trkpt lat="44.61169689579746" lon="8.14706975233371"><ele>334.25</ele><time>2026-04-04T12:59:54.999Z</time></trkpt><trkpt lat="44.61157851666185" lon="8.147036806329528"><ele>336.0</ele><time>2026-04-04T12:59:55.999Z</time></trkpt><trkpt lat="44.61145169717418" lon="8.146998644799769"><ele>336.0</ele><time>2026-04-04T12:59:56.999Z</time></trkpt><trkpt lat="44.61132177926868" lon="8.14695667901086"><ele>336.0</ele><time>2026-04-04T12:59:57.999Z</time></trkpt><trkpt lat="44.611189240963405" lon="8.146915484185811"><ele>336.0</ele><time>2026-04-04T12:59:58.999Z</time></trkpt><trkpt lat="44.61105090349352" lon="8.146867868091094"><ele>336.0</ele><time>2026-04-04T12:59:59.999Z</time></trkpt><trkpt lat="44.61092506658294" lon="8.146780482459656"><ele>336.25</ele><time>2026-04-04T13:00:00.999Z</time></trkpt><trkpt lat="44.610799207506304" lon="8.146709245204875"><ele>336.5</ele><time>2026-04-04T13:00:01.999Z</time></trkpt><trkpt lat="44.610691956864855" lon="8.146588415701236"><ele>336.75</ele><time>2026-04-04T13:00:02.999Z</time></trkpt><trkpt lat="44.61057999617822" lon="8.146459274458541"><ele>337.0</ele><time>2026-04-04T13:00:03.999Z</time></trkpt><trkpt lat="44.61047235708345" lon="8.146312453241686"><ele>337.0</ele><time>2026-04-04T13:00:04.999Z</time></trkpt><trkpt lat="44.61036031947527" lon="8.146157770866756"><ele>337.0</ele><time>2026-04-04T13:00:05.999Z</time></trkpt><trkpt lat="44.61024640686655" lon="8.146000499632148"><ele>337.0</ele><time>2026-04-04T13:00:06.999Z</time></trkpt><trkpt lat="44.610122347571966" lon="8.145855604181055"><ele>339.66666666666663</ele><time>2026-04-04T13:00:07.999Z</time></trkpt><trkpt lat="44.61000046520724" lon="8.14569717979822"><ele>342.3333333333333</ele><time>2026-04-04T13:00:08.999Z</time></trkpt><trkpt lat="44.609885348363726" lon="8.145538007713347"><ele>345.0</ele><time>2026-04-04T13:00:09.999Z</time></trkpt><trkpt lat="44.60976239936986" lon="8.145385979704047"><ele>345.0</ele><time>2026-04-04T13:00:10.999Z</time></trkpt><trkpt lat="44.6096528427263" lon="8.14525079094531"><ele>345.0</ele><time>2026-04-04T13:00:11.999Z</time></trkpt><trkpt lat="44.60956033643997" lon="8.14512936540409"><ele>345.0</ele><time>2026-04-04T13:00:12.999Z</time></trkpt><trkpt lat="44.609476729895924" lon="8.144994834701864"><ele>345.0</ele><time>2026-04-04T13:00:13.999Z</time></trkpt><trkpt lat="44.60940294663148" lon="8.144847449875716"><ele>344.4</ele><time>2026-04-04T13:00:14.999Z</time></trkpt><trkpt lat="44.609343203857065" lon="8.144700072563143"><ele>343.8</ele><time>2026-04-04T13:00:15.999Z</time></trkpt><trkpt lat="44.60926711216691" lon="8.14460029013558"><ele>343.20000000000005</ele><time>2026-04-04T13:00:16.999Z</time></trkpt><trkpt lat="44.60921038743977" lon="8.144501559666217"><ele>342.6</ele><time>2026-04-04T13:00:17.999Z</time></trkpt><trkpt lat="44.6091173824555" lon="8.144490254590679"><ele>342.0</ele><time>2026-04-04T13:00:18.999Z</time></trkpt><trkpt lat="44.609026277954754" lon="8.14449282930908"><ele>342.0</ele><time>2026-04-04T13:00:19.999Z</time></trkpt><trkpt lat="44.60891501990343" lon="8.144563926536765"><ele>342.0</ele><time>2026-04-04T13:00:20.999Z</time></trkpt><trkpt lat="44.608827266883246" lon="8.144663281420835"><ele>342.0</ele><time>2026-04-04T13:00:21.999Z</time></trkpt><trkpt lat="44.608762397286256" lon="8.144778676399259"><ele>342.0</ele><time>2026-04-04T13:00:22.999Z</time></trkpt><trkpt lat="44.60872158289998" lon="8.14493068621332"><ele>346.8</ele><time>2026-04-04T13:00:23.999Z</time></trkpt><trkpt lat="44.60869885785051" lon="8.145094417444797"><ele>351.6</ele><time>2026-04-04T13:00:24.999Z</time></trkpt><trkpt lat="44.60865921018406" lon="8.145215039005977"><ele>356.40000000000003</ele><time>2026-04-04T13:00:25.999Z</time></trkpt><trkpt lat="44.60859335364225" lon="8.145277938500396"><ele>361.20000000000005</ele><time>2026-04-04T13:00:26.999Z</time></trkpt><trkpt lat="44.60851533581979" lon="8.14529330807741"><ele>366.0</ele><time>2026-04-04T13:00:27.999Z</time></trkpt><trkpt lat="44.60842148969111" lon="8.145261195277323"><ele>366.5</ele><time>2026-04-04T13:00:28.999Z</time></trkpt><trkpt lat="44.608351023881184" lon="8.145133169649375"><ele>367.0</ele><time>2026-04-04T13:00:29.999Z</time></trkpt><trkpt lat="44.60823171414515" lon="8.145072833150703"><ele>367.5</ele><time>2026-04-04T13:00:30.999Z</time></trkpt><trkpt lat="44.60810626940005" lon="8.1449917501067"><ele>368.0</ele><time>2026-04-04T13:00:31.999Z</time></trkpt><trkpt lat="44.60796344424636" lon="8.144915249924223"><ele>367.33333333333337</ele><time>2026-04-04T13:00:32.999Z</time></trkpt><trkpt lat="44.60781597759454" lon="8.144801761541814"><ele>366.6666666666667</ele><time>2026-04-04T13:00:33.999Z</time></trkpt><trkpt lat="44.60765559281809" lon="8.144690457064831"><ele>366.0</ele><time>2026-04-04T13:00:34.999Z</time></trkpt><trkpt lat="44.607492788248905" lon="8.144612731848802"><ele>366.0</ele><time>2026-04-04T13:00:35.999Z</time></trkpt><trkpt lat="44.60732540369072" lon="8.144552169170273"><ele>366.0</ele><time>2026-04-04T13:00:36.999Z</time></trkpt><trkpt lat="44.607162967782095" lon="8.144480051191154"><ele>366.0</ele><time>2026-04-04T13:00:37.999Z</time></trkpt><trkpt lat="44.60701151886508" lon="8.144390726241237"><ele>370.0</ele><time>2026-04-04T13:00:38.999Z</time></trkpt><trkpt lat="44.60686524122127" lon="8.14430590372025"><ele>374.0</ele><time>2026-04-04T13:00:39.999Z</time></trkpt><trkpt lat="44.60671393390667" lon="8.144236509460493"><ele>378.0</ele><time>2026-04-04T13:00:40.999Z</time></trkpt><trkpt lat="44.606566001827574" lon="8.144169039275809"><ele>377.0</ele><time>2026-04-04T13:00:41.999Z</time></trkpt><trkpt lat="44.60643874081855" lon="8.144045020924809"><ele>376.0</ele><time>2026-04-04T13:00:42.999Z</time></trkpt><trkpt lat="44.606317094945396" lon="8.14392816524376"><ele>375.0</ele><time>2026-04-04T13:00:43.999Z</time></trkpt><trkpt lat="44.60622290454555" lon="8.143813370499252"><ele>374.0</ele><time>2026-04-04T13:00:44.999Z</time></trkpt><trkpt lat="44.60613050539079" lon="8.143725749948702"><ele>374.0</ele><time>2026-04-04T13:00:45.999Z</time></trkpt><trkpt lat="44.60603538279526" lon="8.143681684858326"><ele>374.0</ele><time>2026-04-04T13:00:46.999Z</time></trkpt><trkpt lat="44.60592343786069" lon="8.143680822445425"><ele>374.0</ele><time>2026-04-04T13:00:47.999Z</time></trkpt><trkpt lat="44.605802860331934" lon="8.14371153906905"><ele>374.0</ele><time>2026-04-04T13:00:48.999Z</time></trkpt><trkpt lat="44.6056834904867" lon="8.143781251062116"><ele>374.0</ele><time>2026-04-04T13:00:49.999Z</time></trkpt><trkpt lat="44.60557627111086" lon="8.143894782647225"><ele>374.0</ele><time>2026-04-04T13:00:50.999Z</time></trkpt><trkpt lat="44.60546961054492" lon="8.144018546703903"><ele>374.0</ele><time>2026-04-04T13:00:51.999Z</time></trkpt><trkpt lat="44.605359115805335" lon="8.14414133738352"><ele>374.0</ele><time>2026-04-04T13:00:53Z</time></trkpt><trkpt lat="44.60525246017551" lon="8.144258801493686"><ele>378.75</ele><time>2026-04-04T13:00:54Z</time></trkpt><trkpt lat="44.60515941213755" lon="8.144363404922212"><ele>383.5</ele><time>2026-04-04T13:00:55Z</time></trkpt><trkpt lat="44.605071449570566" lon="8.14443156362523"><ele>388.25</ele><time>2026-04-04T13:00:56Z</time></trkpt><trkpt lat="44.60496646497077" lon="8.14446786369015"><ele>393.0</ele><time>2026-04-04T13:00:57Z</time></trkpt><trkpt lat="44.604844712779524" lon="8.144422655363318"><ele>393.0</ele><time>2026-04-04T13:00:58Z</time></trkpt><trkpt lat="44.60472666508424" lon="8.144344712861923"><ele>393.0</ele><time>2026-04-04T13:00:59Z</time></trkpt><trkpt lat="44.60460332552783" lon="8.14425483651057"><ele>393.0</ele><time>2026-04-04T13:01:00Z</time></trkpt><trkpt lat="44.60447494290249" lon="8.14416331290152"><ele>393.0</ele><time>2026-04-04T13:01:01Z</time></trkpt><trkpt lat="44.604348176151014" lon="8.144059116030657"><ele>392.0</ele><time>2026-04-04T13:01:02Z</time></trkpt><trkpt lat="44.60422301890336" lon="8.143963990925675"><ele>391.0</ele><time>2026-04-04T13:01:03Z</time></trkpt><trkpt lat="44.60409514835855" lon="8.143885227979506"><ele>390.0</ele><time>2026-04-04T13:01:04Z</time></trkpt><trkpt lat="44.60396618532261" lon="8.143818223097616"><ele>389.0</ele><time>2026-04-04T13:01:05Z</time></trkpt><trkpt lat="44.60383567531996" lon="8.143762355755083"><ele>389.0</ele><time>2026-04-04T13:01:06Z</time></trkpt><trkpt lat="44.60369850037257" lon="8.143714108608606"><ele>389.0</ele><time>2026-04-04T13:01:07Z</time></trkpt><trkpt lat="44.60355308808699" lon="8.14368957841165"><ele>389.0</ele><time>2026-04-04T13:01:08Z</time></trkpt><trkpt lat="44.60340338316512" lon="8.143683408766082"><ele>389.0</ele><time>2026-04-04T13:01:09Z</time></trkpt><trkpt lat="44.603255172805454" lon="8.143659364117502"><ele>393.0</ele><time>2026-04-04T13:01:10Z</time></trkpt><trkpt lat="44.603105633155245" lon="8.143594997928634"><ele>397.0</ele><time>2026-04-04T13:01:11Z</time></trkpt><trkpt lat="44.60294942935168" lon="8.143574598131954"><ele>401.0</ele><time>2026-04-04T13:01:12Z</time></trkpt><trkpt lat="44.60279730228836" lon="8.14354317979047"><ele>403.5</ele><time>2026-04-04T13:01:13Z</time></trkpt><trkpt lat="44.60264877101075" lon="8.143526290850888"><ele>406.0</ele><time>2026-04-04T13:01:14Z</time></trkpt><trkpt lat="44.60252365169954" lon="8.143510716229908"><ele>408.5</ele><time>2026-04-04T13:01:15Z</time></trkpt><trkpt lat="44.60240163624319" lon="8.143512509241788"><ele>411.0</ele><time>2026-04-04T13:01:16Z</time></trkpt><trkpt lat="44.60228296850998" lon="8.143529425887106"><ele>411.0</ele><time>2026-04-04T13:01:17Z</time></trkpt><trkpt lat="44.60216659731411" lon="8.143519194390807"><ele>411.0</ele><time>2026-04-04T13:01:18Z</time></trkpt><trkpt lat="44.60207798478013" lon="8.143598053734161"><ele>411.0</ele><time>2026-04-04T13:01:19Z</time></trkpt><trkpt lat="44.6019596705535" lon="8.143733758277362"><ele>411.0</ele><time>2026-04-04T13:01:20Z</time></trkpt><trkpt lat="44.60188065481685" lon="8.143881805152473"><ele>412.0</ele><time>2026-04-04T13:01:21Z</time></trkpt><trkpt lat="44.60181251172639" lon="8.144041450176035"><ele>413.0</ele><time>2026-04-04T13:01:22Z</time></trkpt><trkpt lat="44.60176920989254" lon="8.144195619735916"><ele>414.0</ele><time>2026-04-04T13:01:23Z</time></trkpt><trkpt lat="44.601704747718024" lon="8.144322118761737"><ele>415.0</ele><time>2026-04-04T13:01:24Z</time></trkpt><trkpt lat="44.60160187351613" lon="8.144414937948246"><ele>415.0</ele><time>2026-04-04T13:01:25Z</time></trkpt><trkpt lat="44.60149314212949" lon="8.144418548486232"><ele>415.0</ele><time>2026-04-04T13:01:26Z</time></trkpt><trkpt lat="44.6013769280192" lon="8.144436592145738"><ele>415.0</ele><time>2026-04-04T13:01:27Z</time></trkpt><trkpt lat="44.60126924754488" lon="8.144437262291795"><ele>415.0</ele><time>2026-04-04T13:01:28Z</time></trkpt><trkpt lat="44.60116805399804" lon="8.144484315971798"><ele>415.0</ele><time>2026-04-04T13:01:29Z</time></trkpt><trkpt lat="44.60107979755959" lon="8.14459537042261"><ele>415.5</ele><time>2026-04-04T13:01:30Z</time></trkpt><trkpt lat="44.601013952104495" lon="8.14474892008716"><ele>416.0</ele><time>2026-04-04T13:01:31Z</time></trkpt><trkpt lat="44.60094428122278" lon="8.144910028180712"><ele>416.5</ele><time>2026-04-04T13:01:32Z</time></trkpt><trkpt lat="44.600891507161464" lon="8.145045427034153"><ele>417.0</ele><time>2026-04-04T13:01:33Z</time></trkpt><trkpt lat="44.60081835716318" lon="8.145131364487229"><ele>419.25</ele><time>2026-04-04T13:01:34Z</time></trkpt><trkpt lat="44.600733747156134" lon="8.145204921901016"><ele>421.5</ele><time>2026-04-04T13:01:35Z</time></trkpt><trkpt lat="44.600610093060915" lon="8.145233699359054"><ele>423.75</ele><time>2026-04-04T13:01:36Z</time></trkpt><trkpt lat="44.600477188650224" lon="8.145219204053184"><ele>426.0</ele><time>2026-04-04T13:01:37Z</time></trkpt><trkpt lat="44.60035865161762" lon="8.145178616715386"><ele>427.0</ele><time>2026-04-04T13:01:38Z</time></trkpt><trkpt lat="44.60025821051269" lon="8.145092040627791"><ele>428.0</ele><time>2026-04-04T13:01:39Z</time></trkpt><trkpt lat="44.60019894520389" lon="8.14495109837455"><ele>429.0</ele><time>2026-04-04T13:01:40Z</time></trkpt><trkpt lat="44.6001545131665" lon="8.144809632586684"><ele>430.0</ele><time>2026-04-04T13:01:41Z</time></trkpt><trkpt lat="44.60012664613355" lon="8.14462360365218"><ele>430.0</ele><time>2026-04-04T13:01:42Z</time></trkpt><trkpt lat="44.60009854384987" lon="8.144442225336704"><ele>430.0</ele><time>2026-04-04T13:01:43Z</time></trkpt><trkpt lat="44.60004797178123" lon="8.144266882274282"><ele>430.0</ele><time>2026-04-04T13:01:44Z</time></trkpt><trkpt lat="44.599995857214175" lon="8.14409830384087"><ele>430.0</ele><time>2026-04-04T13:01:44.999Z</time></trkpt><trkpt lat="44.599921880462404" lon="8.143930307197047"><ele>428.0</ele><time>2026-04-04T13:01:45.999Z</time></trkpt><trkpt lat="44.59984602674376" lon="8.143791877147246"><ele>426.0</ele><time>2026-04-04T13:01:46.999Z</time></trkpt><trkpt lat="44.599773210662654" lon="8.143679661136465"><ele>424.0</ele><time>2026-04-04T13:01:47.999Z</time></trkpt><trkpt lat="44.59968826270904" lon="8.1435988906946"><ele>422.0</ele><time>2026-04-04T13:01:48.999Z</time></trkpt><trkpt lat="44.599571092595404" lon="8.143569226149333"><ele>424.25</ele><time>2026-04-04T13:01:49.999Z</time></trkpt><trkpt lat="44.599451502807895" lon="8.143580409173135"><ele>426.5</ele><time>2026-04-04T13:01:50.999Z</time></trkpt><trkpt lat="44.599330462018266" lon="8.143605801736394"><ele>428.75</ele><time>2026-04-04T13:01:51.999Z</time></trkpt><trkpt lat="44.59919970467645" lon="8.143610053815607"><ele>431.0</ele><time>2026-04-04T13:01:52.999Z</time></trkpt><trkpt lat="44.59906821735766" lon="8.143636095027624"><ele>431.0</ele><time>2026-04-04T13:01:53.999Z</time></trkpt><trkpt lat="44.59895578338191" lon="8.143659725476764"><ele>431.0</ele><time>2026-04-04T13:01:54.999Z</time></trkpt><trkpt lat="44.598859514702184" lon="8.143703304302518"><ele>431.0</ele><time>2026-04-04T13:01:55.999Z</time></trkpt><trkpt lat="44.59877315866776" lon="8.143720190809644"><ele>431.0</ele><time>2026-04-04T13:01:56.999Z</time></trkpt><trkpt lat="44.59869081964101" lon="8.143747135946766"><ele>431.0</ele><time>2026-04-04T13:01:57.999Z</time></trkpt><trkpt lat="44.598613054494" lon="8.143793581268651"><ele>432.20000000000005</ele><time>2026-04-04T13:01:58.999Z</time></trkpt><trkpt lat="44.59856088192544" lon="8.143883004196534"><ele>433.40000000000003</ele><time>2026-04-04T13:01:59.999Z</time></trkpt><trkpt lat="44.598551438869954" lon="8.144016560818619"><ele>434.6</ele><time>2026-04-04T13:02:00.999Z</time></trkpt><trkpt lat="44.59858445308416" lon="8.144159127437538"><ele>435.8</ele><time>2026-04-04T13:02:01.999Z</time></trkpt><trkpt lat="44.59865247953648" lon="8.144289725955534"><ele>437.0</ele><time>2026-04-04T13:02:02.999Z</time></trkpt><trkpt lat="44.59873930679096" lon="8.144416527451808"><ele>438.5</ele><time>2026-04-04T13:02:03.999Z</time></trkpt><trkpt lat="44.598838885753054" lon="8.144536037746185"><ele>440.0</ele><time>2026-04-04T13:02:04.999Z</time></trkpt><trkpt lat="44.59893825320402" lon="8.144646094260262"><ele>441.5</ele><time>2026-04-04T13:02:05.999Z</time></trkpt><trkpt lat="44.59902887778358" lon="8.14475019737591"><ele>443.0</ele><time>2026-04-04T13:02:06.999Z</time></trkpt><trkpt lat="44.59910807955999" lon="8.144834169214791"><ele>445.0</ele><time>2026-04-04T13:02:07.999Z</time></trkpt><trkpt lat="44.599185247323334" lon="8.144914538752015"><ele>447.0</ele><time>2026-04-04T13:02:08.999Z</time></trkpt><trkpt lat="44.59925997434565" lon="8.145027847486517"><ele>449.0</ele><time>2026-04-04T13:02:09.999Z</time></trkpt><trkpt lat="44.59933092307693" lon="8.145165656553258"><ele>451.0</ele><time>2026-04-04T13:02:10.999Z</time></trkpt><trkpt lat="44.59940143724625" lon="8.14530777846768"><ele>451.00000000000006</ele><time>2026-04-04T13:02:11.999Z</time></trkpt><trkpt lat="44.599467702456515" lon="8.145435662102608"><ele>451.0</ele><time>2026-04-04T13:02:12.999Z</time></trkpt><trkpt lat="44.599527504137505" lon="8.1455239933423"><ele>451.0</ele><time>2026-04-04T13:02:13.999Z</time></trkpt><trkpt lat="44.599564066476674" lon="8.145608761459169"><ele>451.0</ele><time>2026-04-04T13:02:14.999Z</time></trkpt><trkpt lat="44.59957316945032" lon="8.145752243469651"><ele>451.00000000000006</ele><time>2026-04-04T13:02:16.999Z</time></trkpt><trkpt lat="44.599513952891975" lon="8.145805758149796"><ele>451.0</ele><time>2026-04-04T13:02:17.999Z</time></trkpt><trkpt lat="44.599438047081236" lon="8.145803445847566"><ele>451.0</ele><time>2026-04-04T13:02:18.999Z</time></trkpt><trkpt lat="44.59936922731785" lon="8.14571970239056"><ele>451.0</ele><time>2026-04-04T13:02:19.999Z</time></trkpt><trkpt lat="44.59926960492733" lon="8.145680510186054"><ele>451.0</ele><time>2026-04-04T13:02:20.999Z</time></trkpt><trkpt lat="44.59915425047474" lon="8.14561894682104"><ele>451.0</ele><time>2026-04-04T13:02:21.999Z</time></trkpt><trkpt lat="44.59902766703347" lon="8.145559264929314"><ele>451.0</ele><time>2026-04-04T13:02:22.999Z</time></trkpt><trkpt lat="44.59890099331517" lon="8.145501372984995"><ele>451.0</ele><time>2026-04-04T13:02:23.999Z</time></trkpt><trkpt lat="44.598782329954375" lon="8.145428733013036"><ele>451.0</ele><time>2026-04-04T13:02:24.999Z</time></trkpt><trkpt lat="44.598655804031395" lon="8.145326861668778"><ele>451.0</ele><time>2026-04-04T13:02:25.999Z</time></trkpt><trkpt lat="44.598538335903264" lon="8.14518141742325"><ele>451.25</ele><time>2026-04-04T13:02:26.999Z</time></trkpt><trkpt lat="44.59842197946064" lon="8.145049305964157"><ele>451.5</ele><time>2026-04-04T13:02:27.999Z</time></trkpt><trkpt lat="44.598303381504" lon="8.1449482784886"><ele>451.75</ele><time>2026-04-04T13:02:28.999Z</time></trkpt><trkpt lat="44.59819181951813" lon="8.144887126353249"><ele>452.0</ele><time>2026-04-04T13:02:29.999Z</time></trkpt><trkpt lat="44.59808509849065" lon="8.144830574134087"><ele>452.0</ele><time>2026-04-04T13:02:30.999Z</time></trkpt><trkpt lat="44.597978857652116" lon="8.144805058320648"><ele>452.0</ele><time>2026-04-04T13:02:31.999Z</time></trkpt><trkpt lat="44.597854263556044" lon="8.144818398496561"><ele>452.0</ele><time>2026-04-04T13:02:32.999Z</time></trkpt><trkpt lat="44.59771265975266" lon="8.144860948521172"><ele>452.0</ele><time>2026-04-04T13:02:33.999Z</time></trkpt><trkpt lat="44.59755920171133" lon="8.14491656630894"><ele>456.75</ele><time>2026-04-04T13:02:34.999Z</time></trkpt><trkpt lat="44.59740196901" lon="8.144947787840337"><ele>461.5</ele><time>2026-04-04T13:02:35.999Z</time></trkpt><trkpt lat="44.59726524546778" lon="8.14499381064956"><ele>466.25</ele><time>2026-04-04T13:02:36.999Z</time></trkpt><trkpt lat="44.59714397311991" lon="8.145032227299165"><ele>471.0</ele><time>2026-04-04T13:02:37.999Z</time></trkpt><trkpt lat="44.597019087754916" lon="8.145058347427279"><ele>472.0</ele><time>2026-04-04T13:02:38.999Z</time></trkpt><trkpt lat="44.59689091904123" lon="8.145041508119032"><ele>473.0</ele><time>2026-04-04T13:02:39.999Z</time></trkpt><trkpt lat="44.59676666279061" lon="8.144974632286209"><ele>474.0</ele><time>2026-04-04T13:02:40.999Z</time></trkpt><trkpt lat="44.59663418560841" lon="8.144896284183348"><ele>475.0</ele><time>2026-04-04T13:02:41.999Z</time></trkpt><trkpt lat="44.59648687002992" lon="8.14481047164955"><ele>475.33333333333337</ele><time>2026-04-04T13:02:42.999Z</time></trkpt><trkpt lat="44.59633502180313" lon="8.144719766272729"><ele>475.66666666666663</ele><time>2026-04-04T13:02:43.999Z</time></trkpt><trkpt lat="44.59616614769026" lon="8.144640247284546"><ele>476.0</ele><time>2026-04-04T13:02:44.999Z</time></trkpt><trkpt lat="44.595995880841585" lon="8.144538067351807"><ele>476.0</ele><time>2026-04-04T13:02:45.999Z</time></trkpt><trkpt lat="44.59582547946988" lon="8.14443648661513"><ele>476.0</ele><time>2026-04-04T13:02:46.999Z</time></trkpt><trkpt lat="44.59566176693694" lon="8.144338371971841"><ele>476.0</ele><time>2026-04-04T13:02:47.999Z</time></trkpt><trkpt lat="44.59551860598534" lon="8.144254703425215"><ele>476.0</ele><time>2026-04-04T13:02:48.999Z</time></trkpt><trkpt lat="44.59540312391258" lon="8.14416701745964"><ele>476.0</ele><time>2026-04-04T13:02:49.999Z</time></trkpt><trkpt lat="44.59527674697177" lon="8.144092770808754"><ele>476.0</ele><time>2026-04-04T13:02:50.999Z</time></trkpt><trkpt lat="44.595158838849386" lon="8.144031246631842"><ele>476.0</ele><time>2026-04-04T13:02:51.999Z</time></trkpt><trkpt lat="44.59504439452103" lon="8.144006141139588"><ele>474.5</ele><time>2026-04-04T13:02:52.999Z</time></trkpt><trkpt lat="44.594919725922345" lon="8.144046647461959"><ele>473.0</ele><time>2026-04-04T13:02:53.999Z</time></trkpt><trkpt lat="44.59478793589359" lon="8.144108307869493"><ele>471.5</ele><time>2026-04-04T13:02:54.999Z</time></trkpt><trkpt lat="44.59466759951687" lon="8.144202599323577"><ele>470.0</ele><time>2026-04-04T13:02:55.999Z</time></trkpt><trkpt lat="44.59457046513638" lon="8.144284710142363"><ele>474.5</ele><time>2026-04-04T13:02:56.999Z</time></trkpt><trkpt lat="44.594473111713754" lon="8.144351804102605"><ele>479.0</ele><time>2026-04-04T13:02:57.999Z</time></trkpt><trkpt lat="44.5943550951901" lon="8.144382927667154"><ele>483.5</ele><time>2026-04-04T13:02:59Z</time></trkpt><trkpt lat="44.59422121748456" lon="8.144354542001325"><ele>488.0</ele><time>2026-04-04T13:03:00Z</time></trkpt><trkpt lat="44.59407726671032" lon="8.144347687222172"><ele>488.0</ele><time>2026-04-04T13:03:01Z</time></trkpt><trkpt lat="44.59393131116821" lon="8.14434073695191"><ele>488.0</ele><time>2026-04-04T13:03:02Z</time></trkpt><trkpt lat="44.59377102269926" lon="8.144343692627778"><ele>488.0</ele><time>2026-04-04T13:03:03Z</time></trkpt><trkpt lat="44.59365350477444" lon="8.144335109491092"><ele>488.0</ele><time>2026-04-04T13:03:04Z</time></trkpt><trkpt lat="44.59352948525163" lon="8.144282606428366"><ele>489.66666666666663</ele><time>2026-04-04T13:03:05Z</time></trkpt><trkpt lat="44.5933926154246" lon="8.144203630947116"><ele>491.33333333333337</ele><time>2026-04-04T13:03:06Z</time></trkpt><trkpt lat="44.59324839020091" lon="8.144115860469636"><ele>493.0</ele><time>2026-04-04T13:03:07Z</time></trkpt><trkpt lat="44.593103288185645" lon="8.144025505538716"><ele>493.0</ele><time>2026-04-04T13:03:08Z</time></trkpt><trkpt lat="44.59295883043675" lon="8.143955137994537"><ele>493.0</ele><time>2026-04-04T13:03:09Z</time></trkpt><trkpt lat="44.59283795115026" lon="8.143869940169623"><ele>493.0</ele><time>2026-04-04T13:03:10Z</time></trkpt><trkpt lat="44.59273295356876" lon="8.14379986216051"><ele>493.0</ele><time>2026-04-04T13:03:11Z</time></trkpt><trkpt lat="44.59261649107448" lon="8.143748571121643"><ele>494.79999999999995</ele><time>2026-04-04T13:03:12Z</time></trkpt><trkpt lat="44.59254458730657" lon="8.143722651787787"><ele>496.59999999999997</ele><time>2026-04-04T13:03:13Z</time></trkpt><trkpt lat="44.59244027874158" lon="8.143778628093134"><ele>498.40000000000003</ele><time>2026-04-04T13:03:14Z</time></trkpt><trkpt lat="44.59235069221364" lon="8.143860504568282"><ele>500.20000000000005</ele><time>2026-04-04T13:03:15Z</time></trkpt><trkpt lat="44.59227309552023" lon="8.1439848959617"><ele>502.0</ele><time>2026-04-04T13:03:16Z</time></trkpt><trkpt lat="44.5921984234751" lon="8.144093419017405"><ele>502.8</ele><time>2026-04-04T13:03:17Z</time></trkpt><trkpt lat="44.592117557409" lon="8.144146799700676"><ele>503.6</ele><time>2026-04-04T13:03:18Z</time></trkpt><trkpt lat="44.59201640637332" lon="8.144086290219894"><ele>504.40000000000003</ele><time>2026-04-04T13:03:19Z</time></trkpt><trkpt lat="44.59190067079552" lon="8.14405578447462"><ele>505.20000000000005</ele><time>2026-04-04T13:03:20Z</time></trkpt><trkpt lat="44.59178838042884" lon="8.144003707035981"><ele>506.0</ele><time>2026-04-04T13:03:21Z</time></trkpt><trkpt lat="44.591690040032844" lon="8.143913712015587"><ele>506.0</ele><time>2026-04-04T13:03:22Z</time></trkpt><trkpt lat="44.59162209314432" lon="8.143789804662468"><ele>506.0</ele><time>2026-04-04T13:03:23Z</time></trkpt><trkpt lat="44.59156944699505" lon="8.143636763430855"><ele>506.0</ele><time>2026-04-04T13:03:24Z</time></trkpt><trkpt lat="44.59149000564378" lon="8.1435110931145"><ele>506.0</ele><time>2026-04-04T13:03:25Z</time></trkpt><trkpt lat="44.59140538465238" lon="8.143399836371433"><ele>506.0</ele><time>2026-04-04T13:03:26Z</time></trkpt><trkpt lat="44.5912871020183" lon="8.143308227607694"><ele>506.0</ele><time>2026-04-04T13:03:27Z</time></trkpt><trkpt lat="44.591154354515325" lon="8.143260728447144"><ele>506.0</ele><time>2026-04-04T13:03:28Z</time></trkpt><trkpt lat="44.59101924385071" lon="8.14325763059333"><ele>506.0</ele><time>2026-04-04T13:03:29Z</time></trkpt><trkpt lat="44.590877833059146" lon="8.143287232553158"><ele>509.0</ele><time>2026-04-04T13:03:30Z</time></trkpt><trkpt lat="44.590730069678045" lon="8.143307479086802"><ele>512.0</ele><time>2026-04-04T13:03:31Z</time></trkpt><trkpt lat="44.59056523198209" lon="8.143325277275263"><ele>515.0</ele><time>2026-04-04T13:03:32Z</time></trkpt><trkpt lat="44.59041108759731" lon="8.14332532969863"><ele>513.3333333333333</ele><time>2026-04-04T13:03:33Z</time></trkpt><trkpt lat="44.590261521295645" lon="8.143299681846619"><ele>511.66666666666663</ele><time>2026-04-04T13:03:34Z</time></trkpt><trkpt lat="44.59012005293713" lon="8.143203120847271"><ele>510.0</ele><time>2026-04-04T13:03:35Z</time></trkpt><trkpt lat="44.589967487375716" lon="8.143112931358884"><ele>510.0</ele><time>2026-04-04T13:03:36Z</time></trkpt><trkpt lat="44.58980770057174" lon="8.143058345091864"><ele>510.0</ele><time>2026-04-04T13:03:37Z</time></trkpt><trkpt lat="44.58965505362392" lon="8.142998236507834"><ele>510.0</ele><time>2026-04-04T13:03:38Z</time></trkpt><trkpt lat="44.5894948405747" lon="8.14294796883593"><ele>514.75</ele><time>2026-04-04T13:03:39Z</time></trkpt><trkpt lat="44.58934520308475" lon="8.142885202388007"><ele>519.5</ele><time>2026-04-04T13:03:40Z</time></trkpt><trkpt lat="44.589211308947185" lon="8.142823941115024"><ele>524.25</ele><time>2026-04-04T13:03:41Z</time></trkpt><trkpt lat="44.589093716807795" lon="8.142794407772957"><ele>529.0</ele><time>2026-04-04T13:03:42Z</time></trkpt><trkpt lat="44.58898028782714" lon="8.142795915325499"><ele>529.0</ele><time>2026-04-04T13:03:43Z</time></trkpt><trkpt lat="44.588883049995495" lon="8.142769879639163"><ele>529.0</ele><time>2026-04-04T13:03:44Z</time></trkpt><trkpt lat="44.588799882626624" lon="8.142738975367246"><ele>529.0</ele><time>2026-04-04T13:03:45Z</time></trkpt><trkpt lat="44.58872808798177" lon="8.142701361922192"><ele>529.0</ele><time>2026-04-04T13:03:46Z</time></trkpt><trkpt lat="44.58870092028055" lon="8.142600990684393"><ele>529.0</ele><time>2026-04-04T13:03:47Z</time></trkpt><trkpt lat="44.58869628189661" lon="8.142475051087295"><ele>529.0</ele><time>2026-04-04T13:03:48Z</time></trkpt><trkpt lat="44.58872134202625" lon="8.142338624864463"><ele>528.2</ele><time>2026-04-04T13:03:49Z</time></trkpt><trkpt lat="44.588765167514104" lon="8.142205202776108"><ele>527.4</ele><time>2026-04-04T13:03:50Z</time></trkpt><trkpt lat="44.58879309011741" lon="8.142070234871412"><ele>526.6</ele><time>2026-04-04T13:03:51Z</time></trkpt><trkpt lat="44.58877989993312" lon="8.14191759656779"><ele>525.8</ele><time>2026-04-04T13:03:52Z</time></trkpt><trkpt lat="44.58871677743232" lon="8.141760213972427"><ele>525.0</ele><time>2026-04-04T13:03:53Z</time></trkpt><trkpt lat="44.58864452312745" lon="8.141594885996266"><ele>528.0</ele><time>2026-04-04T13:03:54Z</time></trkpt><trkpt lat="44.588585112506806" lon="8.14145463410498"><ele>531.0</ele><time>2026-04-04T13:03:55Z</time></trkpt><trkpt lat="44.588517604037705" lon="8.141317024934523"><ele>534.0</ele><time>2026-04-04T13:03:56Z</time></trkpt><trkpt lat="44.58842974705279" lon="8.141201261289496"><ele>537.0</ele><time>2026-04-04T13:03:56.999Z</time></trkpt><trkpt lat="44.58832349007555" lon="8.141109132848806"><ele>537.0</ele><time>2026-04-04T13:03:57.999Z</time></trkpt><trkpt lat="44.58819724576608" lon="8.141037420442714"><ele>537.0</ele><time>2026-04-04T13:03:58.999Z</time></trkpt><trkpt lat="44.58805764791419" lon="8.14096724499171"><ele>537.0</ele><time>2026-04-04T13:03:59.999Z</time></trkpt><trkpt lat="44.587904264153686" lon="8.140890000572822"><ele>537.0</ele><time>2026-04-04T13:04:00.999Z</time></trkpt><trkpt lat="44.58774412854841" lon="8.14081062528882"><ele>537.6666666666666</ele><time>2026-04-04T13:04:01.999Z</time></trkpt><trkpt lat="44.58757410629695" lon="8.140728408039934"><ele>538.3333333333333</ele><time>2026-04-04T13:04:02.999Z</time></trkpt><trkpt lat="44.58740284326789" lon="8.14064619514426"><ele>539.0</ele><time>2026-04-04T13:04:03.999Z</time></trkpt><trkpt lat="44.58723949670411" lon="8.140567667717296"><ele>537.75</ele><time>2026-04-04T13:04:04.999Z</time></trkpt><trkpt lat="44.5870960021229" lon="8.140494289047284"><ele>536.5</ele><time>2026-04-04T13:04:05.999Z</time></trkpt><trkpt lat="44.586965170645726" lon="8.140427385845486"><ele>535.25</ele><time>2026-04-04T13:04:06.999Z</time></trkpt><trkpt lat="44.586837213323534" lon="8.140361952470755"><ele>534.0</ele><time>2026-04-04T13:04:07.999Z</time></trkpt><trkpt lat="44.58670540699125" lon="8.140295865605319"><ele>537.6666666666666</ele><time>2026-04-04T13:04:08.999Z</time></trkpt><trkpt lat="44.58657041291239" lon="8.140227748916256"><ele>541.3333333333333</ele><time>2026-04-04T13:04:09.999Z</time></trkpt><trkpt lat="44.586430465973265" lon="8.140151285585665"><ele>545.0</ele><time>2026-04-04T13:04:10.999Z</time></trkpt><trkpt lat="44.58628717558315" lon="8.14006045854948"><ele>546.0</ele><time>2026-04-04T13:04:11.999Z</time></trkpt><trkpt lat="44.58614221955817" lon="8.139953838619636"><ele>547.0</ele><time>2026-04-04T13:04:12.999Z</time></trkpt><trkpt lat="44.58599796479776" lon="8.139835601718207"><ele>548.0</ele><time>2026-04-04T13:04:13.999Z</time></trkpt><trkpt lat="44.58585900539455" lon="8.139703460462966"><ele>548.0</ele><time>2026-04-04T13:04:14.999Z</time></trkpt><trkpt lat="44.58572333064132" lon="8.139559919739938"><ele>548.0</ele><time>2026-04-04T13:04:15.999Z</time></trkpt><trkpt lat="44.5855926953975" lon="8.13940077103597"><ele>548.0</ele><time>2026-04-04T13:04:16.999Z</time></trkpt><trkpt lat="44.585465420915355" lon="8.139240867493614"><ele>548.0</ele><time>2026-04-04T13:04:17.999Z</time></trkpt><trkpt lat="44.58534655125956" lon="8.139090553418104"><ele>548.0</ele><time>2026-04-04T13:04:18.999Z</time></trkpt><trkpt lat="44.585238353367906" lon="8.138953733229107"><ele>548.0</ele><time>2026-04-04T13:04:19.999Z</time></trkpt><trkpt lat="44.58513447152958" lon="8.13882237084954"><ele>548.0</ele><time>2026-04-04T13:04:20.999Z</time></trkpt><trkpt lat="44.58503948477366" lon="8.138702256866939"><ele>548.75</ele><time>2026-04-04T13:04:21.999Z</time></trkpt><trkpt lat="44.584947699320004" lon="8.138586190916664"><ele>549.5</ele><time>2026-04-04T13:04:22.999Z</time></trkpt><trkpt lat="44.58487725289476" lon="8.138496709926478"><ele>550.25</ele><time>2026-04-04T13:04:23.999Z</time></trkpt><trkpt lat="44.584780949388836" lon="8.138371199949264"><ele>551.0</ele><time>2026-04-04T13:04:24.999Z</time></trkpt><trkpt lat="44.58468102128601" lon="8.138238892597915"><ele>550.3333333333333</ele><time>2026-04-04T13:04:25.999Z</time></trkpt><trkpt lat="44.584561232064445" lon="8.138096623828684"><ele>549.6666666666666</ele><time>2026-04-04T13:04:26.999Z</time></trkpt><trkpt lat="44.584460365026" lon="8.137897302927067"><ele>549.0</ele><time>2026-04-04T13:04:27.999Z</time></trkpt><trkpt lat="44.58434230965729" lon="8.13769090262223"><ele>549.0</ele><time>2026-04-04T13:04:28.999Z</time></trkpt><trkpt lat="44.58421611038872" lon="8.137473656341042"><ele>549.0</ele><time>2026-04-04T13:04:29.999Z</time></trkpt><trkpt lat="44.58409238368268" lon="8.137263761694328"><ele>549.0</ele><time>2026-04-04T13:04:30.999Z</time></trkpt><trkpt lat="44.58396779540532" lon="8.137055586002896"><ele>549.0</ele><time>2026-04-04T13:04:31.999Z</time></trkpt><trkpt lat="44.58384592797494" lon="8.13685689915423"><ele>549.0</ele><time>2026-04-04T13:04:32.999Z</time></trkpt><trkpt lat="44.58372081334152" lon="8.13667547195473"><ele>549.0</ele><time>2026-04-04T13:04:33.999Z</time></trkpt><trkpt lat="44.58360418741522" lon="8.136478233130013"><ele>548.0</ele><time>2026-04-04T13:04:34.999Z</time></trkpt><trkpt lat="44.58348586538411" lon="8.136280898980273"><ele>547.0</ele><time>2026-04-04T13:04:35.999Z</time></trkpt><trkpt lat="44.58336487289655" lon="8.136090498403416"><ele>546.0</ele><time>2026-04-04T13:04:36.999Z</time></trkpt><trkpt lat="44.583250778340734" lon="8.135891132516907"><ele>544.6666666666666</ele><time>2026-04-04T13:04:37.999Z</time></trkpt><trkpt lat="44.58313499545619" lon="8.135700629902836"><ele>543.3333333333333</ele><time>2026-04-04T13:04:38.999Z</time></trkpt><trkpt lat="44.58302135470972" lon="8.135520642039996"><ele>542.0</ele><time>2026-04-04T13:04:39.999Z</time></trkpt><trkpt lat="44.582910931020855" lon="8.135361388933337"><ele>543.0</ele><time>2026-04-04T13:04:40.999Z</time></trkpt><trkpt lat="44.58279726955929" lon="8.135220364565308"><ele>544.0</ele><time>2026-04-04T13:04:41.999Z</time></trkpt><trkpt lat="44.58266880283889" lon="8.135092548454375"><ele>545.0</ele><time>2026-04-04T13:04:42.999Z</time></trkpt><trkpt lat="44.582531581284876" lon="8.134970723945315"><ele>544.3333333333333</ele><time>2026-04-04T13:04:43.999Z</time></trkpt><trkpt lat="44.582391798218715" lon="8.134857571705238"><ele>543.6666666666666</ele><time>2026-04-04T13:04:44.999Z</time></trkpt><trkpt lat="44.58224507697157" lon="8.134729147357948"><ele>543.0</ele><time>2026-04-04T13:04:45.999Z</time></trkpt><trkpt lat="44.582090107548346" lon="8.134620819348198"><ele>544.3333333333334</ele><time>2026-04-04T13:04:46.999Z</time></trkpt><trkpt lat="44.58192856444567" lon="8.134510939606871"><ele>545.6666666666667</ele><time>2026-04-04T13:04:47.999Z</time></trkpt><trkpt lat="44.581763257436094" lon="8.134400242393896"><ele>547.0</ele><time>2026-04-04T13:04:48.999Z</time></trkpt><trkpt lat="44.58159855542812" lon="8.13428929035682"><ele>547.0</ele><time>2026-04-04T13:04:49.999Z</time></trkpt><trkpt lat="44.58143710854764" lon="8.134177829893082"><ele>547.0</ele><time>2026-04-04T13:04:50.999Z</time></trkpt><trkpt lat="44.58127632870234" lon="8.134066830202483"><ele>547.0</ele><time>2026-04-04T13:04:51.999Z</time></trkpt><trkpt lat="44.58111567851091" lon="8.133958235177188"><ele>547.3333333333334</ele><time>2026-04-04T13:04:52.999Z</time></trkpt><trkpt lat="44.580954753527" lon="8.133850581836322"><ele>547.6666666666666</ele><time>2026-04-04T13:04:53.999Z</time></trkpt><trkpt lat="44.58079479667268" lon="8.13374357629458"><ele>548.0</ele><time>2026-04-04T13:04:54.999Z</time></trkpt><trkpt lat="44.58062843931411" lon="8.133656685816504"><ele>548.0</ele><time>2026-04-04T13:04:55.999Z</time></trkpt><trkpt lat="44.5804726450626" lon="8.133546525306071"><ele>548.0</ele><time>2026-04-04T13:04:56.999Z</time></trkpt><trkpt lat="44.580323741440246" lon="8.133443143424193"><ele>548.0</ele><time>2026-04-04T13:04:57.999Z</time></trkpt><trkpt lat="44.58018903974501" lon="8.133349492298036"><ele>549.0</ele><time>2026-04-04T13:04:58.999Z</time></trkpt><trkpt lat="44.580060700738954" lon="8.133261570593142"><ele>550.0</ele><time>2026-04-04T13:04:59.999Z</time></trkpt><trkpt lat="44.57993378269995" lon="8.13317652296101"><ele>551.0</ele><time>2026-04-04T13:05:00.999Z</time></trkpt><trkpt lat="44.57981115284188" lon="8.133077279965915"><ele>552.0</ele><time>2026-04-04T13:05:01.999Z</time></trkpt><trkpt lat="44.57968309653294" lon="8.132998222324131"><ele>552.0</ele><time>2026-04-04T13:05:02.999Z</time></trkpt><trkpt lat="44.579550027502094" lon="8.132925453327013"><ele>552.0</ele><time>2026-04-04T13:05:03.999Z</time></trkpt><trkpt lat="44.5794222236427" lon="8.132866094502921"><ele>552.0</ele><time>2026-04-04T13:05:05Z</time></trkpt><trkpt lat="44.579296347213514" lon="8.132821855435934"><ele>552.0</ele><time>2026-04-04T13:05:06Z</time></trkpt><trkpt lat="44.57917486836288" lon="8.13280054466874"><ele>554.0</ele><time>2026-04-04T13:05:07Z</time></trkpt><trkpt lat="44.579043802946536" lon="8.132784650310052"><ele>556.0</ele><time>2026-04-04T13:05:08Z</time></trkpt><trkpt lat="44.57890626035224" lon="8.13276562253537"><ele>558.0</ele><time>2026-04-04T13:05:09Z</time></trkpt><trkpt lat="44.578768215477176" lon="8.132744844476294"><ele>560.0</ele><time>2026-04-04T13:05:10Z</time></trkpt><trkpt lat="44.57864074966859" lon="8.13272999150756"><ele>560.0</ele><time>2026-04-04T13:05:11Z</time></trkpt><trkpt lat="44.57851875238589" lon="8.132703619796946"><ele>560.0</ele><time>2026-04-04T13:05:12Z</time></trkpt><trkpt lat="44.57839368330049" lon="8.132663002334006"><ele>560.0</ele><time>2026-04-04T13:05:13Z</time></trkpt><trkpt lat="44.57828450494833" lon="8.13259460643125"><ele>560.0</ele><time>2026-04-04T13:05:14Z</time></trkpt><trkpt lat="44.578179012677495" lon="8.13249505792744"><ele>563.0</ele><time>2026-04-04T13:05:15Z</time></trkpt><trkpt lat="44.57808345708443" lon="8.132366730806336"><ele>566.0</ele><time>2026-04-04T13:05:16Z</time></trkpt><trkpt lat="44.57799513485728" lon="8.132213143915017"><ele>569.0</ele><time>2026-04-04T13:05:17Z</time></trkpt><trkpt lat="44.57791646665679" lon="8.132051741227848"><ele>572.0</ele><time>2026-04-04T13:05:18Z</time></trkpt><trkpt lat="44.57786753108806" lon="8.131879324136635"><ele>569.0</ele><time>2026-04-04T13:05:19Z</time></trkpt><trkpt lat="44.57777601409157" lon="8.13175988667705"><ele>566.0</ele><time>2026-04-04T13:05:20Z</time></trkpt><trkpt lat="44.57767132350173" lon="8.131660666068248"><ele>563.0</ele><time>2026-04-04T13:05:21Z</time></trkpt><trkpt lat="44.57754010787317" lon="8.131592838438351"><ele>560.0</ele><time>2026-04-04T13:05:22Z</time></trkpt><trkpt lat="44.577389077623145" lon="8.131542636991163"><ele>562.0</ele><time>2026-04-04T13:05:23Z</time></trkpt><trkpt lat="44.57722806546755" lon="8.13149839487746"><ele>564.0</ele><time>2026-04-04T13:05:24Z</time></trkpt><trkpt lat="44.57706272850309" lon="8.131445692894431"><ele>566.0</ele><time>2026-04-04T13:05:25Z</time></trkpt><trkpt lat="44.576900672765184" lon="8.131391013562263"><ele>566.0</ele><time>2026-04-04T13:05:26Z</time></trkpt><trkpt lat="44.5767524510321" lon="8.131331351367768"><ele>566.0</ele><time>2026-04-04T13:05:27Z</time></trkpt><trkpt lat="44.576611010323305" lon="8.131276662106073"><ele>566.0</ele><time>2026-04-04T13:05:28Z</time></trkpt><trkpt lat="44.576483742799574" lon="8.131217729695054"><ele>566.0</ele><time>2026-04-04T13:05:29Z</time></trkpt><trkpt lat="44.5763683080615" lon="8.131162026942372"><ele>566.0</ele><time>2026-04-04T13:05:30Z</time></trkpt><trkpt lat="44.57625794683183" lon="8.13109783012026"><ele>566.0</ele><time>2026-04-04T13:05:31Z</time></trkpt><trkpt lat="44.57616100976016" lon="8.130998319478145"><ele>566.0</ele><time>2026-04-04T13:05:32Z</time></trkpt><trkpt lat="44.57606651701211" lon="8.130859558158932"><ele>566.0</ele><time>2026-04-04T13:05:33Z</time></trkpt><trkpt lat="44.575976502371695" lon="8.130679716326519"><ele>562.25</ele><time>2026-04-04T13:05:34Z</time></trkpt><trkpt lat="44.575896103830516" lon="8.130490504324738"><ele>558.5</ele><time>2026-04-04T13:05:35Z</time></trkpt><trkpt lat="44.57581873990025" lon="8.130315359685827"><ele>554.75</ele><time>2026-04-04T13:05:36Z</time></trkpt><trkpt lat="44.575742272412434" lon="8.13015010543553"><ele>551.0</ele><time>2026-04-04T13:05:37Z</time></trkpt><trkpt lat="44.57567074367286" lon="8.129991478684511"><ele>550.25</ele><time>2026-04-04T13:05:38Z</time></trkpt><trkpt lat="44.57560041115054" lon="8.129834999250523"><ele>549.5</ele><time>2026-04-04T13:05:39Z</time></trkpt><trkpt lat="44.57552814375393" lon="8.129687175871426"><ele>548.75</ele><time>2026-04-04T13:05:40Z</time></trkpt><trkpt lat="44.57544525703637" lon="8.129554924188223"><ele>548.0</ele><time>2026-04-04T13:05:41Z</time></trkpt><trkpt lat="44.57534171965292" lon="8.12943265366677"><ele>548.0</ele><time>2026-04-04T13:05:42Z</time></trkpt><trkpt lat="44.57522493814588" lon="8.129321383990515"><ele>548.0</ele><time>2026-04-04T13:05:43Z</time></trkpt><trkpt lat="44.57509259182441" lon="8.12922592188821"><ele>548.0</ele><time>2026-04-04T13:05:44Z</time></trkpt><trkpt lat="44.57496193412128" lon="8.129124217680731"><ele>548.0</ele><time>2026-04-04T13:05:45Z</time></trkpt><trkpt lat="44.57483524178388" lon="8.129022281711352"><ele>548.5</ele><time>2026-04-04T13:05:46Z</time></trkpt><trkpt lat="44.57471884132454" lon="8.12892635490238"><ele>549.0</ele><time>2026-04-04T13:05:47Z</time></trkpt><trkpt lat="44.574606884769466" lon="8.128824943571406"><ele>549.5</ele><time>2026-04-04T13:05:48Z</time></trkpt><trkpt lat="44.574504993784096" lon="8.12872646739409"><ele>550.0</ele><time>2026-04-04T13:05:49Z</time></trkpt><trkpt lat="44.57440545093053" lon="8.128638878332438"><ele>550.0</ele><time>2026-04-04T13:05:50Z</time></trkpt><trkpt lat="44.57430827321489" lon="8.128557809650935"><ele>550.0</ele><time>2026-04-04T13:05:51Z</time></trkpt><trkpt lat="44.57421325043044" lon="8.128479073421547"><ele>550.0</ele><time>2026-04-04T13:05:52Z</time></trkpt><trkpt lat="44.57412306880616" lon="8.128406985539106"><ele>550.0</ele><time>2026-04-04T13:05:53Z</time></trkpt><trkpt lat="44.57402560999566" lon="8.128324335966004"><ele>550.0</ele><time>2026-04-04T13:05:54Z</time></trkpt><trkpt lat="44.57394947246643" lon="8.128263938652971"><ele>549.8333333333334</ele><time>2026-04-04T13:05:55Z</time></trkpt><trkpt lat="44.5738714715267" lon="8.128191563477671"><ele>549.6666666666667</ele><time>2026-04-04T13:05:56Z</time></trkpt><trkpt lat="44.57379401712852" lon="8.128125183356653"><ele>549.5</ele><time>2026-04-04T13:05:57Z</time></trkpt><trkpt lat="44.57371979536428" lon="8.128057631403358"><ele>549.3333333333334</ele><time>2026-04-04T13:05:58Z</time></trkpt><trkpt lat="44.57364924029582" lon="8.12799941987374"><ele>549.1666666666666</ele><time>2026-04-04T13:05:59Z</time></trkpt><trkpt lat="44.57358419906226" lon="8.127940859631176"><ele>549.0</ele><time>2026-04-04T13:06:00Z</time></trkpt><trkpt lat="44.57351587224067" lon="8.127883095217841"><ele>549.0</ele><time>2026-04-04T13:06:01Z</time></trkpt><trkpt lat="44.57344526874383" lon="8.12782532619268"><ele>549.0</ele><time>2026-04-04T13:06:02Z</time></trkpt><trkpt lat="44.573371508125895" lon="8.127760626794677"><ele>549.0</ele><time>2026-04-04T13:06:03Z</time></trkpt><trkpt lat="44.573291940751766" lon="8.127689486116225"><ele>549.0</ele><time>2026-04-04T13:06:03.999Z</time></trkpt><trkpt lat="44.57320734936773" lon="8.127617633348075"><ele>549.0</ele><time>2026-04-04T13:06:04.999Z</time></trkpt><trkpt lat="44.57312268542998" lon="8.127545629904185"><ele>549.0</ele><time>2026-04-04T13:06:05.999Z</time></trkpt><trkpt lat="44.57304124349432" lon="8.127474490419065"><ele>549.0</ele><time>2026-04-04T13:06:06.999Z</time></trkpt><trkpt lat="44.57296189118993" lon="8.127407125456076"><ele>549.0</ele><time>2026-04-04T13:06:07.999Z</time></trkpt><trkpt lat="44.572879501512965" lon="8.127334842164148"><ele>549.0</ele><time>2026-04-04T13:06:08.999Z</time></trkpt><trkpt lat="44.57279373321739" lon="8.127259967059532"><ele>549.0</ele><time>2026-04-04T13:06:09.999Z</time></trkpt><trkpt lat="44.57270385662203" lon="8.127176322033133"><ele>548.25</ele><time>2026-04-04T13:06:10.999Z</time></trkpt><trkpt lat="44.57261131445259" lon="8.127096880257106"><ele>547.5</ele><time>2026-04-04T13:06:11.999Z</time></trkpt><trkpt lat="44.572517962628275" lon="8.127008229167338"><ele>546.75</ele><time>2026-04-04T13:06:12.999Z</time></trkpt><trkpt lat="44.572443954521475" lon="8.126878889855131"><ele>546.0</ele><time>2026-04-04T13:06:13.999Z</time></trkpt><trkpt lat="44.57236078436982" lon="8.126733374082406"><ele>546.0</ele><time>2026-04-04T13:06:14.999Z</time></trkpt><trkpt lat="44.5723073246362" lon="8.126570683341457"><ele>546.0</ele><time>2026-04-04T13:06:15.999Z</time></trkpt><trkpt lat="44.57229340898623" lon="8.12639389393431"><ele>546.0</ele><time>2026-04-04T13:06:16.999Z</time></trkpt><trkpt lat="44.572285866182405" lon="8.12619685265013"><ele>546.0</ele><time>2026-04-04T13:06:17.999Z</time></trkpt><trkpt lat="44.57229118616467" lon="8.125983400057338"><ele>547.0</ele><time>2026-04-04T13:06:18.999Z</time></trkpt><trkpt lat="44.572303626296346" lon="8.12575314856186"><ele>548.0</ele><time>2026-04-04T13:06:19.999Z</time></trkpt><trkpt lat="44.57232341497284" lon="8.1255120239218"><ele>549.0</ele><time>2026-04-04T13:06:20.999Z</time></trkpt><trkpt lat="44.57234745489211" lon="8.12527722221364"><ele>550.0</ele><time>2026-04-04T13:06:21.999Z</time></trkpt><trkpt lat="44.57237320789252" lon="8.125044799275432"><ele>551.0</ele><time>2026-04-04T13:06:22.999Z</time></trkpt><trkpt lat="44.572384716291836" lon="8.124821268671825"><ele>552.0</ele><time>2026-04-04T13:06:23.999Z</time></trkpt><trkpt lat="44.5724124684199" lon="8.124612893660661"><ele>552.5</ele><time>2026-04-04T13:06:24.999Z</time></trkpt><trkpt lat="44.572436168171656" lon="8.124402753577739"><ele>553.0</ele><time>2026-04-04T13:06:25.999Z</time></trkpt><trkpt lat="44.57245636486569" lon="8.12421135973806"><ele>553.5</ele><time>2026-04-04T13:06:26.999Z</time></trkpt><trkpt lat="44.5724615755681" lon="8.124020599065672"><ele>554.0</ele><time>2026-04-04T13:06:27.999Z</time></trkpt><trkpt lat="44.57247497918946" lon="8.123838994874408"><ele>554.0</ele><time>2026-04-04T13:06:28.999Z</time></trkpt><trkpt lat="44.57244487636227" lon="8.123679328462002"><ele>554.0</ele><time>2026-04-04T13:06:29.999Z</time></trkpt><trkpt lat="44.57243193232304" lon="8.12352737109075"><ele>554.0</ele><time>2026-04-04T13:06:30.999Z</time></trkpt><trkpt lat="44.572399597470664" lon="8.123370797352118"><ele>554.0</ele><time>2026-04-04T13:06:31.999Z</time></trkpt><trkpt lat="44.57236125728209" lon="8.123223481818517"><ele>553.25</ele><time>2026-04-04T13:06:32.999Z</time></trkpt><trkpt lat="44.572298043188546" lon="8.12309769763917"><ele>552.5</ele><time>2026-04-04T13:06:33.999Z</time></trkpt><trkpt lat="44.57221062181663" lon="8.122987741366419"><ele>551.75</ele><time>2026-04-04T13:06:34.999Z</time></trkpt><trkpt lat="44.57210987531658" lon="8.122877225092047"><ele>551.0</ele><time>2026-04-04T13:06:35.999Z</time></trkpt><trkpt lat="44.57199928432927" lon="8.12276757292694"><ele>551.6666666666666</ele><time>2026-04-04T13:06:36.999Z</time></trkpt><trkpt lat="44.571885017636085" lon="8.122648187352176"><ele>552.3333333333334</ele><time>2026-04-04T13:06:37.999Z</time></trkpt><trkpt lat="44.571757934778645" lon="8.122529778382711"><ele>553.0</ele><time>2026-04-04T13:06:38.999Z</time></trkpt><trkpt lat="44.57162667683598" lon="8.122394699772983"><ele>553.0</ele><time>2026-04-04T13:06:39.999Z</time></trkpt><trkpt lat="44.57149134979655" lon="8.122236057875233"><ele>553.0</ele><time>2026-04-04T13:06:40.999Z</time></trkpt><trkpt lat="44.57134271463104" lon="8.122087786066142"><ele>553.0</ele><time>2026-04-04T13:06:41.999Z</time></trkpt><trkpt lat="44.57119447869028" lon="8.121939912535513"><ele>554.6666666666667</ele><time>2026-04-04T13:06:42.999Z</time></trkpt><trkpt lat="44.57103578526537" lon="8.121805678332608"><ele>556.3333333333334</ele><time>2026-04-04T13:06:43.999Z</time></trkpt><trkpt lat="44.570886341058625" lon="8.121656897174406"><ele>558.0</ele><time>2026-04-04T13:06:44.999Z</time></trkpt><trkpt lat="44.570741607202834" lon="8.121516746886126"><ele>558.0</ele><time>2026-04-04T13:06:45.999Z</time></trkpt><trkpt lat="44.57060602284997" lon="8.12137801634595"><ele>558.0</ele><time>2026-04-04T13:06:46.999Z</time></trkpt><trkpt lat="44.57048605964272" lon="8.121258918082754"><ele>558.0</ele><time>2026-04-04T13:06:47.999Z</time></trkpt><trkpt lat="44.570374317934025" lon="8.121152066881109"><ele>561.0</ele><time>2026-04-04T13:06:48.999Z</time></trkpt><trkpt lat="44.5702813301701" lon="8.121031327031865"><ele>564.0</ele><time>2026-04-04T13:06:49.999Z</time></trkpt><trkpt lat="44.57018067311195" lon="8.120927463362984"><ele>567.0</ele><time>2026-04-04T13:06:50.999Z</time></trkpt><trkpt lat="44.57007942767024" lon="8.120840566981999"><ele>570.0</ele><time>2026-04-04T13:06:51.999Z</time></trkpt><trkpt lat="44.570009785937614" lon="8.12071557407795"><ele>570.0</ele><time>2026-04-04T13:06:52.999Z</time></trkpt><trkpt lat="44.56995995273285" lon="8.120567703538635"><ele>570.0</ele><time>2026-04-04T13:06:53.999Z</time></trkpt><trkpt lat="44.569960800065274" lon="8.120401439559897"><ele>570.0</ele><time>2026-04-04T13:06:54.999Z</time></trkpt><trkpt lat="44.56996140435491" lon="8.12023052432995"><ele>570.0</ele><time>2026-04-04T13:06:55.999Z</time></trkpt><trkpt lat="44.569987554009906" lon="8.120076201941743"><ele>570.0</ele><time>2026-04-04T13:06:56.999Z</time></trkpt><trkpt lat="44.569992705437265" lon="8.119941560171476"><ele>570.0</ele><time>2026-04-04T13:06:57.999Z</time></trkpt><trkpt lat="44.56996502220956" lon="8.11982611665603"><ele>570.0</ele><time>2026-04-04T13:06:58.999Z</time></trkpt><trkpt lat="44.5699050597777" lon="8.119720776390649"><ele>570.0</ele><time>2026-04-04T13:06:59.999Z</time></trkpt><trkpt lat="44.56981088065442" lon="8.119638968325543"><ele>570.0</ele><time>2026-04-04T13:07:00.999Z</time></trkpt><trkpt lat="44.5696929567351" lon="8.11958414989016"><ele>571.0</ele><time>2026-04-04T13:07:01.999Z</time></trkpt><trkpt lat="44.56956325621364" lon="8.119525322650196"><ele>572.0</ele><time>2026-04-04T13:07:02.999Z</time></trkpt><trkpt lat="44.56942627700158" lon="8.119460889544854"><ele>573.0</ele><time>2026-04-04T13:07:03.999Z</time></trkpt><trkpt lat="44.56927825581952" lon="8.119378307961929"><ele>574.0</ele><time>2026-04-04T13:07:04.999Z</time></trkpt><trkpt lat="44.569155881715076" lon="8.11930857191126"><ele>574.0</ele><time>2026-04-04T13:07:05.999Z</time></trkpt><trkpt lat="44.569041876672536" lon="8.119259764214798"><ele>574.0</ele><time>2026-04-04T13:07:06.999Z</time></trkpt><trkpt lat="44.56893930108624" lon="8.119250488309305"><ele>574.0</ele><time>2026-04-04T13:07:07.999Z</time></trkpt><trkpt lat="44.56884142339832" lon="8.11929434927957"><ele>574.0</ele><time>2026-04-04T13:07:08.999Z</time></trkpt><trkpt lat="44.568747779741685" lon="8.119381700200247"><ele>574.0</ele><time>2026-04-04T13:07:09.999Z</time></trkpt><trkpt lat="44.568679783780595" lon="8.119510385260371"><ele>574.75</ele><time>2026-04-04T13:07:11Z</time></trkpt><trkpt lat="44.56863014273703" lon="8.119678478547149"><ele>575.5</ele><time>2026-04-04T13:07:12Z</time></trkpt><trkpt lat="44.568592233083635" lon="8.119877393137125"><ele>576.25</ele><time>2026-04-04T13:07:13Z</time></trkpt><trkpt lat="44.568548530988956" lon="8.120094655426197"><ele>577.0</ele><time>2026-04-04T13:07:14Z</time></trkpt><trkpt lat="44.56849743629178" lon="8.120294514097141"><ele>579.25</ele><time>2026-04-04T13:07:15Z</time></trkpt><trkpt lat="44.56844927235699" lon="8.120455007887369"><ele>581.5</ele><time>2026-04-04T13:07:16Z</time></trkpt><trkpt lat="44.56839126744806" lon="8.120584038149717"><ele>583.75</ele><time>2026-04-04T13:07:17Z</time></trkpt><trkpt lat="44.56829380691006" lon="8.12065951953634"><ele>586.0</ele><time>2026-04-04T13:07:18Z</time></trkpt><trkpt lat="44.568179901084946" lon="8.120689859816874"><ele>586.0</ele><time>2026-04-04T13:07:19Z</time></trkpt><trkpt lat="44.568080882682025" lon="8.120650045299124"><ele>586.0</ele><time>2026-04-04T13:07:20Z</time></trkpt><trkpt lat="44.56799564867116" lon="8.120525086161047"><ele>586.0</ele><time>2026-04-04T13:07:21Z</time></trkpt><trkpt lat="44.56793634996789" lon="8.120375327940373"><ele>586.0</ele><time>2026-04-04T13:07:22Z</time></trkpt><trkpt lat="44.56786703330886" lon="8.120216703142937"><ele>586.5</ele><time>2026-04-04T13:07:23Z</time></trkpt><trkpt lat="44.56778669185401" lon="8.12009496976134"><ele>587.0</ele><time>2026-04-04T13:07:24Z</time></trkpt><trkpt lat="44.56771341797855" lon="8.119994007191654"><ele>587.5</ele><time>2026-04-04T13:07:25Z</time></trkpt><trkpt lat="44.567609430492354" lon="8.119931957917345"><ele>588.0</ele><time>2026-04-04T13:07:26Z</time></trkpt><trkpt lat="44.56747170461862" lon="8.119918715640974"><ele>588.0</ele><time>2026-04-04T13:07:27Z</time></trkpt><trkpt lat="44.56732109947663" lon="8.119932775995062"><ele>588.0</ele><time>2026-04-04T13:07:28Z</time></trkpt><trkpt lat="44.56715122762324" lon="8.119964635187168"><ele>588.0</ele><time>2026-04-04T13:07:29Z</time></trkpt><trkpt lat="44.56697000065075" lon="8.119985161550007"><ele>589.3333333333334</ele><time>2026-04-04T13:07:30Z</time></trkpt><trkpt lat="44.566780500993055" lon="8.12001846635159"><ele>590.6666666666667</ele><time>2026-04-04T13:07:31Z</time></trkpt><trkpt lat="44.56657911167996" lon="8.120048742937918"><ele>592.0</ele><time>2026-04-04T13:07:32Z</time></trkpt><trkpt lat="44.566372005490074" lon="8.12005186635341"><ele>595.6666666666667</ele><time>2026-04-04T13:07:33Z</time></trkpt><trkpt lat="44.56613961543783" lon="8.120003983757607"><ele>599.3333333333334</ele><time>2026-04-04T13:07:34Z</time></trkpt><trkpt lat="44.56595115899224" lon="8.11999546982702"><ele>603.0</ele><time>2026-04-04T13:07:35Z</time></trkpt><trkpt lat="44.565753924265614" lon="8.119966222842756"><ele>603.0</ele><time>2026-04-04T13:07:36Z</time></trkpt><trkpt lat="44.56555023481767" lon="8.1199375475556"><ele>603.0</ele><time>2026-04-04T13:07:37Z</time></trkpt><trkpt lat="44.56535005260073" lon="8.119905190823115"><ele>603.0</ele><time>2026-04-04T13:07:38Z</time></trkpt><trkpt lat="44.565151611869354" lon="8.119856943004338"><ele>601.6666666666666</ele><time>2026-04-04T13:07:39Z</time></trkpt><trkpt lat="44.56494014914545" lon="8.119792624098714"><ele>600.3333333333333</ele><time>2026-04-04T13:07:40Z</time></trkpt><trkpt lat="44.56472929273589" lon="8.119722066113463"><ele>599.0</ele><time>2026-04-04T13:07:41Z</time></trkpt><trkpt lat="44.56451101345485" lon="8.119647457215962"><ele>601.6666666666666</ele><time>2026-04-04T13:07:42Z</time></trkpt><trkpt lat="44.56430545071953" lon="8.11958492879817"><ele>604.3333333333334</ele><time>2026-04-04T13:07:43Z</time></trkpt><trkpt lat="44.564118683162185" lon="8.119520197713241"><ele>607.0</ele><time>2026-04-04T13:07:44Z</time></trkpt><trkpt lat="44.56394279723927" lon="8.119458425656244"><ele>607.0</ele><time>2026-04-04T13:07:45Z</time></trkpt><trkpt lat="44.563778797438935" lon="8.119409155553525"><ele>607.0</ele><time>2026-04-04T13:07:46Z</time></trkpt><trkpt lat="44.56362618314471" lon="8.119359719467019"><ele>607.0</ele><time>2026-04-04T13:07:47Z</time></trkpt><trkpt lat="44.563477548284524" lon="8.119312462040504"><ele>610.0</ele><time>2026-04-04T13:07:48Z</time></trkpt><trkpt lat="44.56333519951873" lon="8.119261028313323"><ele>613.0</ele><time>2026-04-04T13:07:49Z</time></trkpt><trkpt lat="44.56320100227209" lon="8.119211747594463"><ele>616.0</ele><time>2026-04-04T13:07:50Z</time></trkpt><trkpt lat="44.56306856056291" lon="8.11917383386461"><ele>619.0</ele><time>2026-04-04T13:07:51Z</time></trkpt><trkpt lat="44.5629576301507" lon="8.119138798754927"><ele>620.2</ele><time>2026-04-04T13:07:52Z</time></trkpt><trkpt lat="44.56286107768564" lon="8.119083373507545"><ele>621.4</ele><time>2026-04-04T13:07:53Z</time></trkpt><trkpt lat="44.56276177319914" lon="8.119034570544446"><ele>622.6</ele><time>2026-04-04T13:07:54Z</time></trkpt><trkpt lat="44.56268354455651" lon="8.118947238523022"><ele>623.8</ele><time>2026-04-04T13:07:55Z</time></trkpt><trkpt lat="44.5626332523155" lon="8.118819069463665"><ele>625.0</ele><time>2026-04-04T13:07:56Z</time></trkpt><trkpt lat="44.56259529079993" lon="8.118669659587384"><ele>625.0</ele><time>2026-04-04T13:07:57Z</time></trkpt><trkpt lat="44.56257288880155" lon="8.118507292140867"><ele>625.0</ele><time>2026-04-04T13:07:58Z</time></trkpt><trkpt lat="44.56248925741952" lon="8.118308383231176"><ele>625.0</ele><time>2026-04-04T13:07:59Z</time></trkpt><trkpt lat="44.562455898858296" lon="8.118196540973567"><ele>625.0</ele><time>2026-04-04T13:08:00Z</time></trkpt><trkpt lat="44.56238267298835" lon="8.118055808360406"><ele>624.5</ele><time>2026-04-04T13:08:01Z</time></trkpt><trkpt lat="44.56228988333973" lon="8.117939218922814"><ele>624.0</ele><time>2026-04-04T13:08:02Z</time></trkpt><trkpt lat="44.562191660488985" lon="8.117832030339414"><ele>623.5</ele><time>2026-04-04T13:08:03Z</time></trkpt><trkpt lat="44.56209415791625" lon="8.117742914692421"><ele>623.0</ele><time>2026-04-04T13:08:04Z</time></trkpt><trkpt lat="44.562010372700065" lon="8.117668871299445"><ele>623.0</ele><time>2026-04-04T13:08:05Z</time></trkpt><trkpt lat="44.56192473759238" lon="8.117625743376943"><ele>623.0</ele><time>2026-04-04T13:08:06Z</time></trkpt><trkpt lat="44.56184824866732" lon="8.117621261184185"><ele>623.0</ele><time>2026-04-04T13:08:07Z</time></trkpt><trkpt lat="44.56176396524317" lon="8.117666957397033"><ele>623.0</ele><time>2026-04-04T13:08:08Z</time></trkpt><trkpt lat="44.56167602707598" lon="8.117749158871565"><ele>623.0</ele><time>2026-04-04T13:08:09Z</time></trkpt><trkpt lat="44.561602050873994" lon="8.117874515777084"><ele>623.0</ele><time>2026-04-04T13:08:10Z</time></trkpt><trkpt lat="44.5615355539348" lon="8.117994314359795"><ele>623.0</ele><time>2026-04-04T13:08:11Z</time></trkpt><trkpt lat="44.561452937937894" lon="8.118072728279103"><ele>623.0</ele><time>2026-04-04T13:08:12Z</time></trkpt><trkpt lat="44.56134802465148" lon="8.118081455261294"><ele>623.0</ele><time>2026-04-04T13:08:13Z</time></trkpt><trkpt lat="44.56124413648638" lon="8.118024956997292"><ele>623.0</ele><time>2026-04-04T13:08:14Z</time></trkpt><trkpt lat="44.56115650423873" lon="8.117915579735753"><ele>625.0</ele><time>2026-04-04T13:08:15Z</time></trkpt><trkpt lat="44.56104599345842" lon="8.11782616857553"><ele>627.0</ele><time>2026-04-04T13:08:16Z</time></trkpt><trkpt lat="44.560920588622004" lon="8.117747498503144"><ele>629.0</ele><time>2026-04-04T13:08:17Z</time></trkpt><trkpt lat="44.56079532046903" lon="8.117653614555383"><ele>631.0</ele><time>2026-04-04T13:08:18Z</time></trkpt><trkpt lat="44.56066382185212" lon="8.117564650250147"><ele>631.0</ele><time>2026-04-04T13:08:18.999Z</time></trkpt><trkpt lat="44.56054946526601" lon="8.117462516476255"><ele>631.0</ele><time>2026-04-04T13:08:19.999Z</time></trkpt><trkpt lat="44.56043380814325" lon="8.117419847250277"><ele>631.0</ele><time>2026-04-04T13:08:20.999Z</time></trkpt><trkpt lat="44.56032111438265" lon="8.117383175709888"><ele>631.0</ele><time>2026-04-04T13:08:21.999Z</time></trkpt><trkpt lat="44.560196994320975" lon="8.11738677827196"><ele>633.75</ele><time>2026-04-04T13:08:22.999Z</time></trkpt><trkpt lat="44.5600566152437" lon="8.117432249631296"><ele>636.5</ele><time>2026-04-04T13:08:23.999Z</time></trkpt><trkpt lat="44.55990632149354" lon="8.117494273240217"><ele>639.25</ele><time>2026-04-04T13:08:24.999Z</time></trkpt><trkpt lat="44.55976223450223" lon="8.117541102900663"><ele>642.0</ele><time>2026-04-04T13:08:25.999Z</time></trkpt><trkpt lat="44.55964100799411" lon="8.117535742472855"><ele>642.0</ele><time>2026-04-04T13:08:26.999Z</time></trkpt><trkpt lat="44.55955123679339" lon="8.11750617464308"><ele>642.0</ele><time>2026-04-04T13:08:27.999Z</time></trkpt><trkpt lat="44.55948335635182" lon="8.117407344146258"><ele>642.0</ele><time>2026-04-04T13:08:28.999Z</time></trkpt><trkpt lat="44.55943009845099" lon="8.117279411494728"><ele>642.0</ele><time>2026-04-04T13:08:29.999Z</time></trkpt><trkpt lat="44.559364263244106" lon="8.11714445457237"><ele>642.0</ele><time>2026-04-04T13:08:30.999Z</time></trkpt><trkpt lat="44.55929444810345" lon="8.117007482576925"><ele>642.0</ele><time>2026-04-04T13:08:31.999Z</time></trkpt><trkpt lat="44.559221398733875" lon="8.116905804128896"><ele>642.0</ele><time>2026-04-04T13:08:32.999Z</time></trkpt><trkpt lat="44.55915363446363" lon="8.11681913347687"><ele>642.0</ele><time>2026-04-04T13:08:33.999Z</time></trkpt><trkpt lat="44.55905637848605" lon="8.116760670023016"><ele>642.0</ele><time>2026-04-04T13:08:34.999Z</time></trkpt><trkpt lat="44.55894596375983" lon="8.116752900962435"><ele>642.0</ele><time>2026-04-04T13:08:35.999Z</time></trkpt><trkpt lat="44.55883048898049" lon="8.11678966041335"><ele>642.0</ele><time>2026-04-04T13:08:36.999Z</time></trkpt><trkpt lat="44.55870768444303" lon="8.11686207824792"><ele>642.0</ele><time>2026-04-04T13:08:37.999Z</time></trkpt><trkpt lat="44.55857832071202" lon="8.116895686044625"><ele>642.0</ele><time>2026-04-04T13:08:38.999Z</time></trkpt><trkpt lat="44.55845853236095" lon="8.116929383430346"><ele>642.0</ele><time>2026-04-04T13:08:39.999Z</time></trkpt><trkpt lat="44.558345073461844" lon="8.116931842315465"><ele>641.25</ele><time>2026-04-04T13:08:40.999Z</time></trkpt><trkpt lat="44.5582297546848" lon="8.116892190149745"><ele>640.5</ele><time>2026-04-04T13:08:41.999Z</time></trkpt><trkpt lat="44.55811286304227" lon="8.116796739602762"><ele>639.75</ele><time>2026-04-04T13:08:42.999Z</time></trkpt><trkpt lat="44.55800618114896" lon="8.116673587349242"><ele>639.0</ele><time>2026-04-04T13:08:43.999Z</time></trkpt><trkpt lat="44.55788851377611" lon="8.11654188524518"><ele>644.0</ele><time>2026-04-04T13:08:44.999Z</time></trkpt><trkpt lat="44.557763946066856" lon="8.116416657619213"><ele>649.0</ele><time>2026-04-04T13:08:45.999Z</time></trkpt><trkpt lat="44.55763945383093" lon="8.116278770054807"><ele>654.0</ele><time>2026-04-04T13:08:46.999Z</time></trkpt><trkpt lat="44.55751524394429" lon="8.116139272908454"><ele>654.0</ele><time>2026-04-04T13:08:47.999Z</time></trkpt><trkpt lat="44.55738502234818" lon="8.116002853324092"><ele>654.0</ele><time>2026-04-04T13:08:48.999Z</time></trkpt><trkpt lat="44.557252610259425" lon="8.115863748258489"><ele>654.0</ele><time>2026-04-04T13:08:49.999Z</time></trkpt><trkpt lat="44.55712444659168" lon="8.115724431669404"><ele>656.0</ele><time>2026-04-04T13:08:50.999Z</time></trkpt><trkpt lat="44.55699859749902" lon="8.115586941959418"><ele>658.0</ele><time>2026-04-04T13:08:51.999Z</time></trkpt><trkpt lat="44.55688414618196" lon="8.115451147249654"><ele>660.0</ele><time>2026-04-04T13:08:52.999Z</time></trkpt><trkpt lat="44.55676540579361" lon="8.115330712410435"><ele>660.0</ele><time>2026-04-04T13:08:53.999Z</time></trkpt><trkpt lat="44.5566481595226" lon="8.115200172726913"><ele>660.0</ele><time>2026-04-04T13:08:54.999Z</time></trkpt><trkpt lat="44.5565188099802" lon="8.115096335982692"><ele>660.0</ele><time>2026-04-04T13:08:55.999Z</time></trkpt><trkpt lat="44.55638110076474" lon="8.114986402502767"><ele>660.0</ele><time>2026-04-04T13:08:56.999Z</time></trkpt><trkpt lat="44.55624837562755" lon="8.114860395776564"><ele>660.0</ele><time>2026-04-04T13:08:57.999Z</time></trkpt><trkpt lat="44.55610378271115" lon="8.114742724562452"><ele>660.0</ele><time>2026-04-04T13:08:58.999Z</time></trkpt><trkpt lat="44.55595620885018" lon="8.114622172469739"><ele>660.0</ele><time>2026-04-04T13:08:59.999Z</time></trkpt><trkpt lat="44.55580758993021" lon="8.114506142793317"><ele>660.0</ele><time>2026-04-04T13:09:00.999Z</time></trkpt><trkpt lat="44.555664856036756" lon="8.114383456373316"><ele>660.0</ele><time>2026-04-04T13:09:01.999Z</time></trkpt><trkpt lat="44.55554017932272" lon="8.114253300129128"><ele>660.0</ele><time>2026-04-04T13:09:02.999Z</time></trkpt><trkpt lat="44.55537672462757" lon="8.114131946613343"><ele>660.0</ele><time>2026-04-04T13:09:03.999Z</time></trkpt><trkpt lat="44.55524307895259" lon="8.114021465581475"><ele>660.0</ele><time>2026-04-04T13:09:04.999Z</time></trkpt><trkpt lat="44.555115807676245" lon="8.113920339969518"><ele>661.3333333333334</ele><time>2026-04-04T13:09:05.999Z</time></trkpt><trkpt lat="44.55498612642043" lon="8.11381283294358"><ele>662.6666666666667</ele><time>2026-04-04T13:09:06.999Z</time></trkpt><trkpt lat="44.55482956569184" lon="8.113674298078625"><ele>664.0</ele><time>2026-04-04T13:09:07.999Z</time></trkpt><trkpt lat="44.55471950786052" lon="8.113577351851795"><ele>664.0</ele><time>2026-04-04T13:09:08.999Z</time></trkpt><trkpt lat="44.55458149762757" lon="8.113462474373534"><ele>664.0</ele><time>2026-04-04T13:09:09.999Z</time></trkpt><trkpt lat="44.554443285995575" lon="8.113343604435316"><ele>664.0</ele><time>2026-04-04T13:09:10.999Z</time></trkpt><trkpt lat="44.554306354494265" lon="8.113212517504696"><ele>663.3333333333334</ele><time>2026-04-04T13:09:11.999Z</time></trkpt><trkpt lat="44.5541610121483" lon="8.11308851770056"><ele>662.6666666666666</ele><time>2026-04-04T13:09:12.999Z</time></trkpt><trkpt lat="44.55401513026453" lon="8.112968813033183"><ele>662.0</ele><time>2026-04-04T13:09:13.999Z</time></trkpt><trkpt lat="44.55386980211784" lon="8.112854165745913"><ele>662.0</ele><time>2026-04-04T13:09:14.999Z</time></trkpt><trkpt lat="44.55373438875794" lon="8.112744090904005"><ele>662.0</ele><time>2026-04-04T13:09:15.999Z</time></trkpt><trkpt lat="44.55360696617403" lon="8.112636910100752"><ele>662.0</ele><time>2026-04-04T13:09:17Z</time></trkpt><trkpt lat="44.55348633336095" lon="8.112523970142446"><ele>663.5</ele><time>2026-04-04T13:09:18Z</time></trkpt><trkpt lat="44.55339037726534" lon="8.11237254553963"><ele>665.0</ele><time>2026-04-04T13:09:19Z</time></trkpt><trkpt lat="44.55331117974674" lon="8.112217398811932"><ele>666.5</ele><time>2026-04-04T13:09:20Z</time></trkpt><trkpt lat="44.553239630964036" lon="8.112044268566137"><ele>668.0</ele><time>2026-04-04T13:09:21Z</time></trkpt><trkpt lat="44.55316813314935" lon="8.111874050682276"><ele>668.0</ele><time>2026-04-04T13:09:22Z</time></trkpt><trkpt lat="44.55309644994418" lon="8.111731703422281"><ele>668.0</ele><time>2026-04-04T13:09:23Z</time></trkpt><trkpt lat="44.55301714223265" lon="8.111605578261743"><ele>668.0</ele><time>2026-04-04T13:09:24Z</time></trkpt><trkpt lat="44.55290406395988" lon="8.111488728449167"><ele>668.0</ele><time>2026-04-04T13:09:25Z</time></trkpt><trkpt lat="44.5527668577103" lon="8.111387791460192"><ele>666.6666666666666</ele><time>2026-04-04T13:09:26Z</time></trkpt><trkpt lat="44.55262736755537" lon="8.111269812838154"><ele>665.3333333333334</ele><time>2026-04-04T13:09:27Z</time></trkpt><trkpt lat="44.55247892345367" lon="8.111167279981013"><ele>664.0</ele><time>2026-04-04T13:09:28Z</time></trkpt><trkpt lat="44.552342799388654" lon="8.11107616067087"><ele>664.0</ele><time>2026-04-04T13:09:29Z</time></trkpt><trkpt lat="44.55221752485928" lon="8.110988026592931"><ele>664.0</ele><time>2026-04-04T13:09:30Z</time></trkpt><trkpt lat="44.55208747311949" lon="8.11089127300157"><ele>664.0</ele><time>2026-04-04T13:09:31Z</time></trkpt><trkpt lat="44.551947849282975" lon="8.110778230400033"><ele>664.0</ele><time>2026-04-04T13:09:32Z</time></trkpt><trkpt lat="44.55181377806805" lon="8.110622371449184"><ele>664.0</ele><time>2026-04-04T13:09:33Z</time></trkpt><trkpt lat="44.551700111033675" lon="8.110439022232582"><ele>664.0</ele><time>2026-04-04T13:09:34Z</time></trkpt><trkpt lat="44.551585382959516" lon="8.11027039331294"><ele>664.0</ele><time>2026-04-04T13:09:35Z</time></trkpt><trkpt lat="44.55146736364202" lon="8.110119858305763"><ele>664.0</ele><time>2026-04-04T13:09:36Z</time></trkpt><trkpt lat="44.55132989545201" lon="8.109969602117522"><ele>664.0</ele><time>2026-04-04T13:09:37Z</time></trkpt><trkpt lat="44.55117257344807" lon="8.10982620926205"><ele>664.0</ele><time>2026-04-04T13:09:38Z</time></trkpt><trkpt lat="44.55101328227611" lon="8.10967774897952"><ele>664.3333333333334</ele><time>2026-04-04T13:09:39Z</time></trkpt><trkpt lat="44.55085211332751" lon="8.109528090968173"><ele>664.6666666666666</ele><time>2026-04-04T13:09:40Z</time></trkpt><trkpt lat="44.55069752184257" lon="8.109386625504657"><ele>665.0</ele><time>2026-04-04T13:09:41Z</time></trkpt><trkpt lat="44.550558773329044" lon="8.109257408282275"><ele>665.0</ele><time>2026-04-04T13:09:42Z</time></trkpt><trkpt lat="44.55042661187034" lon="8.109137121893236"><ele>665.0</ele><time>2026-04-04T13:09:43Z</time></trkpt><trkpt lat="44.550290554798295" lon="8.109013289825237"><ele>665.0</ele><time>2026-04-04T13:09:44Z</time></trkpt><trkpt lat="44.550156439992115" lon="8.108889072559467"><ele>667.0</ele><time>2026-04-04T13:09:45Z</time></trkpt><trkpt lat="44.55002072759144" lon="8.108762616321302"><ele>669.0</ele><time>2026-04-04T13:09:46Z</time></trkpt><trkpt lat="44.54988941242602" lon="8.108640782095284"><ele>671.0</ele><time>2026-04-04T13:09:47Z</time></trkpt><trkpt lat="44.54975720267242" lon="8.108518118278909"><ele>671.0</ele><time>2026-04-04T13:09:48Z</time></trkpt><trkpt lat="44.54960930165529" lon="8.108422215266854"><ele>671.0</ele><time>2026-04-04T13:09:49Z</time></trkpt><trkpt lat="44.54947779013108" lon="8.108294278996624"><ele>671.0</ele><time>2026-04-04T13:09:50Z</time></trkpt><trkpt lat="44.54934781841123" lon="8.108175448082147"><ele>673.0</ele><time>2026-04-04T13:09:51Z</time></trkpt><trkpt lat="44.549212674456996" lon="8.108057675169437"><ele>675.0</ele><time>2026-04-04T13:09:52Z</time></trkpt><trkpt lat="44.54909044840515" lon="8.107907633387029"><ele>677.0</ele><time>2026-04-04T13:09:53Z</time></trkpt><trkpt lat="44.548975642729324" lon="8.107798439813868"><ele>677.0</ele><time>2026-04-04T13:09:54Z</time></trkpt><trkpt lat="44.548827576334254" lon="8.107659346614339"><ele>677.0</ele><time>2026-04-04T13:09:55Z</time></trkpt><trkpt lat="44.54869248928041" lon="8.107533602438894"><ele>677.0</ele><time>2026-04-04T13:09:56Z</time></trkpt><trkpt lat="44.54856132425815" lon="8.107412350130963"><ele>680.0</ele><time>2026-04-04T13:09:57Z</time></trkpt><trkpt lat="44.54843255852222" lon="8.10729331579438"><ele>683.0</ele><time>2026-04-04T13:09:58Z</time></trkpt><trkpt lat="44.54829839170494" lon="8.107171082205607"><ele>686.0</ele><time>2026-04-04T13:09:59Z</time></trkpt><trkpt lat="44.548168858805646" lon="8.107053248758206"><ele>686.0</ele><time>2026-04-04T13:10:00Z</time></trkpt><trkpt lat="44.54804546864269" lon="8.106938665904774"><ele>686.0</ele><time>2026-04-04T13:10:01Z</time></trkpt><trkpt lat="44.54793531761407" lon="8.106839390336155"><ele>686.0</ele><time>2026-04-04T13:10:02Z</time></trkpt><trkpt lat="44.547838646982164" lon="8.10675654040711"><ele>686.0</ele><time>2026-04-04T13:10:03Z</time></trkpt><trkpt lat="44.54775373300458" lon="8.106699484221055"><ele>686.0</ele><time>2026-04-04T13:10:04Z</time></trkpt><trkpt lat="44.547691950102646" lon="8.106629124282781"><ele>686.0</ele><time>2026-04-04T13:10:05Z</time></trkpt><trkpt lat="44.54765975175282" lon="8.106524280629442"><ele>686.0</ele><time>2026-04-04T13:10:06Z</time></trkpt><trkpt lat="44.547597863612026" lon="8.106448235862377"><ele>686.0</ele><time>2026-04-04T13:10:07Z</time></trkpt><trkpt lat="44.54751537379602" lon="8.10640431495018"><ele>686.0</ele><time>2026-04-04T13:10:08Z</time></trkpt><trkpt lat="44.54740535247894" lon="8.106434566392023"><ele>686.0</ele><time>2026-04-04T13:10:09Z</time></trkpt><trkpt lat="44.547298488971805" lon="8.106379739658069"><ele>686.0</ele><time>2026-04-04T13:10:10Z</time></trkpt><trkpt lat="44.5471823760566" lon="8.106323874775052"><ele>686.0</ele><time>2026-04-04T13:10:11Z</time></trkpt><trkpt lat="44.547047594273224" lon="8.106262341439795"><ele>686.0</ele><time>2026-04-04T13:10:12Z</time></trkpt><trkpt lat="44.54689729013044" lon="8.106206960990942"><ele>686.0</ele><time>2026-04-04T13:10:13Z</time></trkpt><trkpt lat="44.54674190192478" lon="8.106178060051983"><ele>689.6666666666666</ele><time>2026-04-04T13:10:14Z</time></trkpt><trkpt lat="44.54659367442257" lon="8.106135656626378"><ele>693.3333333333334</ele><time>2026-04-04T13:10:15Z</time></trkpt><trkpt lat="44.54644314793565" lon="8.106065933542553"><ele>697.0</ele><time>2026-04-04T13:10:16Z</time></trkpt><trkpt lat="44.54628264611944" lon="8.106015034477156"><ele>699.3333333333334</ele><time>2026-04-04T13:10:17Z</time></trkpt><trkpt lat="44.54610975822967" lon="8.10596184474986"><ele>701.6666666666666</ele><time>2026-04-04T13:10:18Z</time></trkpt><trkpt lat="44.54593360637559" lon="8.105929027279386"><ele>704.0</ele><time>2026-04-04T13:10:19Z</time></trkpt><trkpt lat="44.54576641021275" lon="8.10587852237104"><ele>704.0</ele><time>2026-04-04T13:10:19.999Z</time></trkpt><trkpt lat="44.54560206041189" lon="8.105824973435638"><ele>704.0</ele><time>2026-04-04T13:10:20.999Z</time></trkpt><trkpt lat="44.54544941014048" lon="8.10575630950824"><ele>704.0</ele><time>2026-04-04T13:10:21.999Z</time></trkpt><trkpt lat="44.545304469555106" lon="8.105732313670897"><ele>703.75</ele><time>2026-04-04T13:10:22.999Z</time></trkpt><trkpt lat="44.54517982227619" lon="8.105680494162078"><ele>703.5</ele><time>2026-04-04T13:10:23.999Z</time></trkpt><trkpt lat="44.54504740227575" lon="8.105643706163134"><ele>703.25</ele><time>2026-04-04T13:10:24.999Z</time></trkpt><trkpt lat="44.54492224658087" lon="8.105607360011152"><ele>703.0</ele><time>2026-04-04T13:10:25.999Z</time></trkpt><trkpt lat="44.54479819279359" lon="8.105570226842172"><ele>703.0</ele><time>2026-04-04T13:10:26.999Z</time></trkpt><trkpt lat="44.5446702310839" lon="8.105527888257592"><ele>703.0</ele><time>2026-04-04T13:10:27.999Z</time></trkpt><trkpt lat="44.5445423966423" lon="8.105498107869304"><ele>703.0</ele><time>2026-04-04T13:10:28.999Z</time></trkpt><trkpt lat="44.54442052374158" lon="8.105482960188196"><ele>703.0</ele><time>2026-04-04T13:10:29.999Z</time></trkpt><trkpt lat="44.54429623978771" lon="8.105508759276796"><ele>702.5</ele><time>2026-04-04T13:10:30.999Z</time></trkpt><trkpt lat="44.54417354977074" lon="8.105549884917941"><ele>702.0</ele><time>2026-04-04T13:10:31.999Z</time></trkpt><trkpt lat="44.54406047301799" lon="8.10561899514042"><ele>701.5</ele><time>2026-04-04T13:10:32.999Z</time></trkpt><trkpt lat="44.543962931852114" lon="8.10571476742719"><ele>701.0</ele><time>2026-04-04T13:10:33.999Z</time></trkpt><trkpt lat="44.54386915226687" lon="8.105836944054948"><ele>700.5</ele><time>2026-04-04T13:10:34.999Z</time></trkpt><trkpt lat="44.54378123272198" lon="8.105958866166228"><ele>700.0</ele><time>2026-04-04T13:10:35.999Z</time></trkpt><trkpt lat="44.54369691765573" lon="8.106066790119646"><ele>699.5</ele><time>2026-04-04T13:10:36.999Z</time></trkpt><trkpt lat="44.54358071672575" lon="8.106126589491009"><ele>699.0</ele><time>2026-04-04T13:10:37.999Z</time></trkpt><trkpt lat="44.543478314185876" lon="8.106201255157666"><ele>699.0</ele><time>2026-04-04T13:10:38.999Z</time></trkpt><trkpt lat="44.54336379391096" lon="8.106198202840764"><ele>699.0</ele><time>2026-04-04T13:10:39.999Z</time></trkpt><trkpt lat="44.54325916110644" lon="8.10622208677325"><ele>699.0</ele><time>2026-04-04T13:10:40.999Z</time></trkpt><trkpt lat="44.5431592121034" lon="8.106170735308229"><ele>699.0</ele><time>2026-04-04T13:10:41.999Z</time></trkpt><trkpt lat="44.54306286827485" lon="8.106130270334798"><ele>699.0</ele><time>2026-04-04T13:10:42.999Z</time></trkpt><trkpt lat="44.54296651247792" lon="8.106061001768277"><ele>699.25</ele><time>2026-04-04T13:10:43.999Z</time></trkpt><trkpt lat="44.54286837443062" lon="8.105971253800492"><ele>699.5</ele><time>2026-04-04T13:10:44.999Z</time></trkpt><trkpt lat="44.54275377546643" lon="8.105901838456614"><ele>699.75</ele><time>2026-04-04T13:10:45.999Z</time></trkpt><trkpt lat="44.542654265089084" lon="8.105793871300646"><ele>700.0</ele><time>2026-04-04T13:10:46.999Z</time></trkpt><trkpt lat="44.542543825018306" lon="8.105710137229044"><ele>699.25</ele><time>2026-04-04T13:10:47.999Z</time></trkpt><trkpt lat="44.54243664597508" lon="8.105618374473572"><ele>698.5</ele><time>2026-04-04T13:10:48.999Z</time></trkpt><trkpt lat="44.5423309521775" lon="8.105522011984627"><ele>697.75</ele><time>2026-04-04T13:10:49.999Z</time></trkpt><trkpt lat="44.542224098779634" lon="8.105426355622368"><ele>697.0</ele><time>2026-04-04T13:10:50.999Z</time></trkpt><trkpt lat="44.54212121467611" lon="8.105344909108492"><ele>698.25</ele><time>2026-04-04T13:10:51.999Z</time></trkpt><trkpt lat="44.542016530754246" lon="8.10525332007671"><ele>699.5</ele><time>2026-04-04T13:10:52.999Z</time></trkpt><trkpt lat="44.54191267453772" lon="8.105155957752567"><ele>700.75</ele><time>2026-04-04T13:10:53.999Z</time></trkpt><trkpt lat="44.54180339791219" lon="8.105064903337457"><ele>702.0</ele><time>2026-04-04T13:10:54.999Z</time></trkpt><trkpt lat="44.541694514485535" lon="8.104976648494537"><ele>700.75</ele><time>2026-04-04T13:10:55.999Z</time></trkpt><trkpt lat="44.54159312206848" lon="8.104874890860838"><ele>699.5</ele><time>2026-04-04T13:10:56.999Z</time></trkpt><trkpt lat="44.54151860647773" lon="8.104739577110358"><ele>698.25</ele><time>2026-04-04T13:10:57.999Z</time></trkpt><trkpt lat="44.541462881971874" lon="8.104576879546773"><ele>697.0</ele><time>2026-04-04T13:10:58.999Z</time></trkpt><trkpt lat="44.54142684456748" lon="8.10440606964641"><ele>697.0</ele><time>2026-04-04T13:10:59.999Z</time></trkpt><trkpt lat="44.5413717046677" lon="8.104233171252385"><ele>697.0</ele><time>2026-04-04T13:11:00.999Z</time></trkpt><trkpt lat="44.54132415785216" lon="8.10405447926679"><ele>697.0</ele><time>2026-04-04T13:11:01.999Z</time></trkpt><trkpt lat="44.54125560615145" lon="8.103902272944492"><ele>697.0</ele><time>2026-04-04T13:11:02.999Z</time></trkpt><trkpt lat="44.54117550725597" lon="8.103744534508484"><ele>698.25</ele><time>2026-04-04T13:11:03.999Z</time></trkpt><trkpt lat="44.541061104822774" lon="8.103619353957052"><ele>699.5</ele><time>2026-04-04T13:11:04.999Z</time></trkpt><trkpt lat="44.540971574199766" lon="8.103457785745553"><ele>700.75</ele><time>2026-04-04T13:11:05.999Z</time></trkpt><trkpt lat="44.54087493667751" lon="8.103315362201075"><ele>702.0</ele><time>2026-04-04T13:11:06.999Z</time></trkpt><trkpt lat="44.540786671156965" lon="8.10317132784515"><ele>702.0</ele><time>2026-04-04T13:11:07.999Z</time></trkpt><trkpt lat="44.54071328122092" lon="8.103016114591105"><ele>702.0</ele><time>2026-04-04T13:11:08.999Z</time></trkpt><trkpt lat="44.540601109033496" lon="8.102882457179353"><ele>702.0</ele><time>2026-04-04T13:11:09.999Z</time></trkpt><trkpt lat="44.540543072084866" lon="8.102694211139562"><ele>702.0</ele><time>2026-04-04T13:11:10.999Z</time></trkpt><trkpt lat="44.540580439878426" lon="8.102462754076846"><ele>700.0</ele><time>2026-04-04T13:11:11.999Z</time></trkpt><trkpt lat="44.54057599839159" lon="8.102267573087293"><ele>698.0</ele><time>2026-04-04T13:11:12.999Z</time></trkpt><trkpt lat="44.54056927908901" lon="8.10209584410125"><ele>696.0</ele><time>2026-04-04T13:11:13.999Z</time></trkpt><trkpt lat="44.54054226989322" lon="8.101926270801968"><ele>694.0</ele><time>2026-04-04T13:11:14.999Z</time></trkpt><trkpt lat="44.54048038211268" lon="8.101777484917838"><ele>694.0</ele><time>2026-04-04T13:11:15.999Z</time></trkpt><trkpt lat="44.54039686405499" lon="8.101641458789958"><ele>694.0</ele><time>2026-04-04T13:11:16.999Z</time></trkpt><trkpt lat="44.5402900999732" lon="8.101513504961002"><ele>694.0</ele><time>2026-04-04T13:11:17.999Z</time></trkpt><trkpt lat="44.54015981682219" lon="8.101410348764754"><ele>694.0</ele><time>2026-04-04T13:11:18.999Z</time></trkpt><trkpt lat="44.54004344884663" lon="8.101265804570957"><ele>695.6666666666667</ele><time>2026-04-04T13:11:19.999Z</time></trkpt><trkpt lat="44.53992450114635" lon="8.10110021511734"><ele>697.3333333333334</ele><time>2026-04-04T13:11:20.999Z</time></trkpt><trkpt lat="44.539807284936266" lon="8.100934220180497"><ele>699.0</ele><time>2026-04-04T13:11:21.999Z</time></trkpt><trkpt lat="44.53968647574686" lon="8.100724521347452"><ele>704.3333333333334</ele><time>2026-04-04T13:11:23Z</time></trkpt><trkpt lat="44.5395476300475" lon="8.100550355997699"><ele>709.6666666666667</ele><time>2026-04-04T13:11:24Z</time></trkpt><trkpt lat="44.539403674029934" lon="8.100375159533348"><ele>715.0</ele><time>2026-04-04T13:11:25Z</time></trkpt><trkpt lat="44.539261534248844" lon="8.100199213880384"><ele>715.0</ele><time>2026-04-04T13:11:26Z</time></trkpt><trkpt lat="44.53912167463236" lon="8.10002417184375"><ele>715.0</ele><time>2026-04-04T13:11:27Z</time></trkpt><trkpt lat="44.53899349429231" lon="8.099866883938128"><ele>715.0</ele><time>2026-04-04T13:11:28Z</time></trkpt><trkpt lat="44.538876724453715" lon="8.099724534854325"><ele>713.25</ele><time>2026-04-04T13:11:29Z</time></trkpt><trkpt lat="44.53876243298479" lon="8.099591556136993"><ele>711.5</ele><time>2026-04-04T13:11:30Z</time></trkpt><trkpt lat="44.53864594355246" lon="8.099472674894457"><ele>709.75</ele><time>2026-04-04T13:11:31Z</time></trkpt><trkpt lat="44.53851168686761" lon="8.099388780010198"><ele>708.0</ele><time>2026-04-04T13:11:32Z</time></trkpt><trkpt lat="44.5383694019776" lon="8.099302735668068"><ele>708.3333333333334</ele><time>2026-04-04T13:11:33Z</time></trkpt><trkpt lat="44.538216199131305" lon="8.099225809402405"><ele>708.6666666666667</ele><time>2026-04-04T13:11:34Z</time></trkpt><trkpt lat="44.53806079999013" lon="8.099146685096391"><ele>709.0</ele><time>2026-04-04T13:11:35Z</time></trkpt><trkpt lat="44.53794069944013" lon="8.09902793978664"><ele>709.8000000000001</ele><time>2026-04-04T13:11:36Z</time></trkpt><trkpt lat="44.53782765869832" lon="8.098947550790944"><ele>710.6</ele><time>2026-04-04T13:11:37Z</time></trkpt><trkpt lat="44.5377249812306" lon="8.09887598441432"><ele>711.4</ele><time>2026-04-04T13:11:38Z</time></trkpt><trkpt lat="44.53763429035825" lon="8.098819390564092"><ele>712.2</ele><time>2026-04-04T13:11:39Z</time></trkpt><trkpt lat="44.53756997361579" lon="8.09880599115855"><ele>713.0</ele><time>2026-04-04T13:11:40Z</time></trkpt><trkpt lat="44.53751347205694" lon="8.098765356886897"><ele>713.0</ele><time>2026-04-04T13:11:44Z</time></trkpt><trkpt lat="44.53739429154374" lon="8.09881381191093"><ele>713.0</ele><time>2026-04-04T13:12:21.999Z</time></trkpt><trkpt lat="44.53732091396336" lon="8.098852336636462"><ele>713.0</ele><time>2026-04-04T13:12:22.999Z</time></trkpt><trkpt lat="44.53724661556626" lon="8.09892229007084"><ele>713.0</ele><time>2026-04-04T13:12:23.999Z</time></trkpt><trkpt lat="44.53717066005306" lon="8.099017086506029"><ele>713.0</ele><time>2026-04-04T13:12:24.999Z</time></trkpt><trkpt lat="44.537104888736216" lon="8.099108906256419"><ele>714.2</ele><time>2026-04-04T13:12:25.999Z</time></trkpt><trkpt lat="44.53703938389067" lon="8.099220337488898"><ele>715.4</ele><time>2026-04-04T13:12:26.999Z</time></trkpt><trkpt lat="44.53696979543118" lon="8.099329819638507"><ele>716.6</ele><time>2026-04-04T13:12:27.999Z</time></trkpt><trkpt lat="44.53689351049894" lon="8.099441293408074"><ele>717.8000000000001</ele><time>2026-04-04T13:12:28.999Z</time></trkpt><trkpt lat="44.53680924132152" lon="8.099549285763013"><ele>719.0</ele><time>2026-04-04T13:12:29.999Z</time></trkpt><trkpt lat="44.53670948985277" lon="8.099646021573413"><ele>719.0</ele><time>2026-04-04T13:12:30.999Z</time></trkpt><trkpt lat="44.53658756017591" lon="8.099731775219245"><ele>719.0</ele><time>2026-04-04T13:12:31.999Z</time></trkpt><trkpt lat="44.536456457687436" lon="8.099797436517415"><ele>719.0</ele><time>2026-04-04T13:12:32.999Z</time></trkpt><trkpt lat="44.536326718397206" lon="8.099845251719174"><ele>719.0</ele><time>2026-04-04T13:12:33.999Z</time></trkpt><trkpt lat="44.53618415219478" lon="8.099901877272313"><ele>724.0</ele><time>2026-04-04T13:12:34.999Z</time></trkpt><trkpt lat="44.53603531063078" lon="8.099958141414982"><ele>729.0</ele><time>2026-04-04T13:12:35.999Z</time></trkpt><trkpt lat="44.53588460873318" lon="8.10001367696851"><ele>734.0</ele><time>2026-04-04T13:12:36.999Z</time></trkpt><trkpt lat="44.53574562313125" lon="8.100061036305712"><ele>734.0</ele><time>2026-04-04T13:12:37.999Z</time></trkpt><trkpt lat="44.53562303086528" lon="8.100101785806771"><ele>734.0</ele><time>2026-04-04T13:12:38.999Z</time></trkpt><trkpt lat="44.5355126598021" lon="8.100138847395584"><ele>734.0</ele><time>2026-04-04T13:12:39.999Z</time></trkpt><trkpt lat="44.535408712771584" lon="8.10017618595702"><ele>734.0</ele><time>2026-04-04T13:12:40.999Z</time></trkpt><trkpt lat="44.53531911036449" lon="8.100228978582445"><ele>734.0</ele><time>2026-04-04T13:12:41.999Z</time></trkpt><trkpt lat="44.53524522270785" lon="8.100315979440952"><ele>733.75</ele><time>2026-04-04T13:12:42.999Z</time></trkpt><trkpt lat="44.535188408643414" lon="8.100451680501587"><ele>733.5</ele><time>2026-04-04T13:12:43.999Z</time></trkpt><trkpt lat="44.535141811727996" lon="8.100610009843457"><ele>733.25</ele><time>2026-04-04T13:12:44.999Z</time></trkpt><trkpt lat="44.53512160998328" lon="8.100793349934364"><ele>733.0</ele><time>2026-04-04T13:12:45.999Z</time></trkpt><trkpt lat="44.53512730116039" lon="8.100987917976003"><ele>733.0</ele><time>2026-04-04T13:12:46.999Z</time></trkpt><trkpt lat="44.53512611259718" lon="8.101185367092077"><ele>733.0</ele><time>2026-04-04T13:12:47.999Z</time></trkpt><trkpt lat="44.5350850572692" lon="8.101374980975294"><ele>733.0</ele><time>2026-04-04T13:12:48.999Z</time></trkpt><trkpt lat="44.53501389585292" lon="8.101529075031342"><ele>733.0</ele><time>2026-04-04T13:12:49.999Z</time></trkpt><trkpt lat="44.53495954144292" lon="8.101680166611377"><ele>735.25</ele><time>2026-04-04T13:12:50.999Z</time></trkpt><trkpt lat="44.53493199655838" lon="8.101861528666332"><ele>737.5</ele><time>2026-04-04T13:12:51.999Z</time></trkpt><trkpt lat="44.5349189281421" lon="8.102076029247453"><ele>739.75</ele><time>2026-04-04T13:12:52.999Z</time></trkpt><trkpt lat="44.53491773271832" lon="8.102272838961747"><ele>742.0</ele><time>2026-04-04T13:12:53.999Z</time></trkpt><trkpt lat="44.53492469846474" lon="8.102460854949294"><ele>743.0</ele><time>2026-04-04T13:12:54.999Z</time></trkpt><trkpt lat="44.534951232931036" lon="8.102633403580276"><ele>744.0</ele><time>2026-04-04T13:12:55.999Z</time></trkpt><trkpt lat="44.5350018161732" lon="8.102778207833607"><ele>745.0</ele><time>2026-04-04T13:12:56.999Z</time></trkpt><trkpt lat="44.53507133222368" lon="8.102882276549723"><ele>746.0</ele><time>2026-04-04T13:12:57.999Z</time></trkpt><trkpt lat="44.535134447184" lon="8.102978015759636"><ele>747.0</ele><time>2026-04-04T13:12:58.999Z</time></trkpt><trkpt lat="44.535155707326986" lon="8.103115112539683"><ele>747.25</ele><time>2026-04-04T13:12:59.999Z</time></trkpt><trkpt lat="44.535156283741664" lon="8.103258149042729"><ele>747.5</ele><time>2026-04-04T13:13:00.999Z</time></trkpt><trkpt lat="44.53510680287159" lon="8.103413669489536"><ele>747.75</ele><time>2026-04-04T13:13:01.999Z</time></trkpt><trkpt lat="44.53508406532163" lon="8.103587589826967"><ele>748.0</ele><time>2026-04-04T13:13:02.999Z</time></trkpt><trkpt lat="44.53505432347154" lon="8.103748634933444"><ele>748.0</ele><time>2026-04-04T13:13:03.999Z</time></trkpt><trkpt lat="44.535015327101846" lon="8.10388886528287"><ele>748.0</ele><time>2026-04-04T13:13:04.999Z</time></trkpt><trkpt lat="44.53497741541328" lon="8.104029169224265"><ele>748.0</ele><time>2026-04-04T13:13:05.999Z</time></trkpt><trkpt lat="44.534884936600896" lon="8.104138358588798"><ele>748.0</ele><time>2026-04-04T13:13:06.999Z</time></trkpt><trkpt lat="44.53475459925791" lon="8.10415067042843"><ele>746.8</ele><time>2026-04-04T13:13:07.999Z</time></trkpt><trkpt lat="44.53464417144479" lon="8.104204782099554"><ele>745.5999999999999</ele><time>2026-04-04T13:13:08.999Z</time></trkpt><trkpt lat="44.53456590891236" lon="8.104271718336436"><ele>744.4000000000001</ele><time>2026-04-04T13:13:09.999Z</time></trkpt><trkpt lat="44.53451867675398" lon="8.104386132050989"><ele>743.2</ele><time>2026-04-04T13:13:10.999Z</time></trkpt><trkpt lat="44.53449736112984" lon="8.104550899625261"><ele>742.0</ele><time>2026-04-04T13:13:11.999Z</time></trkpt><trkpt lat="44.53450063919156" lon="8.104735651804258"><ele>742.0</ele><time>2026-04-04T13:13:12.999Z</time></trkpt><trkpt lat="44.53447359765854" lon="8.104887845025758"><ele>742.0</ele><time>2026-04-04T13:13:13.999Z</time></trkpt><trkpt lat="44.53439216021034" lon="8.10499876596322"><ele>742.0</ele><time>2026-04-04T13:13:14.999Z</time></trkpt><trkpt lat="44.53426752903178" lon="8.105074529663161"><ele>742.0</ele><time>2026-04-04T13:13:15.999Z</time></trkpt><trkpt lat="44.534146215364636" lon="8.105173671114857"><ele>745.0</ele><time>2026-04-04T13:13:16.999Z</time></trkpt><trkpt lat="44.53402219237891" lon="8.105272535543582"><ele>748.0</ele><time>2026-04-04T13:13:17.999Z</time></trkpt><trkpt lat="44.53391223156202" lon="8.10535086988438"><ele>751.0</ele><time>2026-04-04T13:13:18.999Z</time></trkpt><trkpt lat="44.5337762785561" lon="8.10537675001535"><ele>754.0</ele><time>2026-04-04T13:13:19.999Z</time></trkpt><trkpt lat="44.53362240513946" lon="8.105371624379632"><ele>754.0</ele><time>2026-04-04T13:13:20.999Z</time></trkpt><trkpt lat="44.53345910241522" lon="8.105349909368782"><ele>754.0</ele><time>2026-04-04T13:13:21.999Z</time></trkpt><trkpt lat="44.533295128877754" lon="8.1053516521196"><ele>754.0</ele><time>2026-04-04T13:13:22.999Z</time></trkpt><trkpt lat="44.53313674820482" lon="8.105356819668746"><ele>754.0</ele><time>2026-04-04T13:13:23.999Z</time></trkpt><trkpt lat="44.53298313435591" lon="8.105390940658888"><ele>754.0</ele><time>2026-04-04T13:13:24.999Z</time></trkpt><trkpt lat="44.532843104875305" lon="8.105451175166912"><ele>754.0</ele><time>2026-04-04T13:13:25.999Z</time></trkpt><trkpt lat="44.53270813537607" lon="8.105520475436636"><ele>754.0</ele><time>2026-04-04T13:13:26.999Z</time></trkpt><trkpt lat="44.53256614098677" lon="8.105541304258244"><ele>755.0</ele><time>2026-04-04T13:13:27.999Z</time></trkpt><trkpt lat="44.53241909424746" lon="8.105540639648263"><ele>756.0</ele><time>2026-04-04T13:13:29Z</time></trkpt><trkpt lat="44.53223711293685" lon="8.105513116548305"><ele>757.0</ele><time>2026-04-04T13:13:30Z</time></trkpt><trkpt lat="44.53209090394947" lon="8.105500969906915"><ele>759.0</ele><time>2026-04-04T13:13:31Z</time></trkpt><trkpt lat="44.531920737352394" lon="8.105445891259928"><ele>761.0</ele><time>2026-04-04T13:13:32Z</time></trkpt><trkpt lat="44.531749494296164" lon="8.105403567757998"><ele>763.0</ele><time>2026-04-04T13:13:33Z</time></trkpt><trkpt lat="44.531584491193506" lon="8.105351520972071"><ele>763.0</ele><time>2026-04-04T13:13:34Z</time></trkpt><trkpt lat="44.531423206243325" lon="8.105289437249963"><ele>763.0</ele><time>2026-04-04T13:13:35Z</time></trkpt><trkpt lat="44.53128407012406" lon="8.105225570711225"><ele>763.0</ele><time>2026-04-04T13:13:36Z</time></trkpt><trkpt lat="44.53113436939842" lon="8.105139307661368"><ele>761.0</ele><time>2026-04-04T13:13:37Z</time></trkpt><trkpt lat="44.53098813012064" lon="8.105027337042328"><ele>759.0</ele><time>2026-04-04T13:13:38Z</time></trkpt><trkpt lat="44.530844820243125" lon="8.104897326872981"><ele>757.0</ele><time>2026-04-04T13:13:39Z</time></trkpt><trkpt lat="44.53070814186723" lon="8.104753577037144"><ele>757.0</ele><time>2026-04-04T13:13:40Z</time></trkpt><trkpt lat="44.53056877625808" lon="8.104596157485572"><ele>757.0</ele><time>2026-04-04T13:13:41Z</time></trkpt><trkpt lat="44.530422208347524" lon="8.104429923293779"><ele>757.0</ele><time>2026-04-04T13:13:42Z</time></trkpt><trkpt lat="44.53027291672985" lon="8.104260599863226"><ele>760.3333333333334</ele><time>2026-04-04T13:13:43Z</time></trkpt><trkpt lat="44.530115663009276" lon="8.104084560460631"><ele>763.6666666666666</ele><time>2026-04-04T13:13:44Z</time></trkpt><trkpt lat="44.52997082842251" lon="8.10392293005012"><ele>767.0</ele><time>2026-04-04T13:13:45Z</time></trkpt><trkpt lat="44.5298373431141" lon="8.10377396501827"><ele>767.0</ele><time>2026-04-04T13:13:46Z</time></trkpt><trkpt lat="44.529712326799746" lon="8.103633143228459"><ele>767.0</ele><time>2026-04-04T13:13:47Z</time></trkpt><trkpt lat="44.529595436804556" lon="8.103497867154685"><ele>767.0</ele><time>2026-04-04T13:13:48Z</time></trkpt><trkpt lat="44.52947604539243" lon="8.103350652553965"><ele>769.6666666666666</ele><time>2026-04-04T13:13:49Z</time></trkpt><trkpt lat="44.52936856249642" lon="8.103197570238573"><ele>772.3333333333333</ele><time>2026-04-04T13:13:50Z</time></trkpt><trkpt lat="44.52927341987357" lon="8.10302777018791"><ele>775.0</ele><time>2026-04-04T13:13:51Z</time></trkpt><trkpt lat="44.52917832966805" lon="8.102843193364151"><ele>775.0</ele><time>2026-04-04T13:13:52Z</time></trkpt><trkpt lat="44.52911276891142" lon="8.102657824024787"><ele>775.0</ele><time>2026-04-04T13:13:53Z</time></trkpt><trkpt lat="44.5290632943677" lon="8.102457656911328"><ele>775.0</ele><time>2026-04-04T13:13:54Z</time></trkpt><trkpt lat="44.52902824149184" lon="8.102251803048112"><ele>775.0</ele><time>2026-04-04T13:13:55Z</time></trkpt><trkpt lat="44.529014018525686" lon="8.102056900046632"><ele>775.0</ele><time>2026-04-04T13:13:56Z</time></trkpt><trkpt lat="44.529024619972475" lon="8.101864136144837"><ele>775.0</ele><time>2026-04-04T13:13:57Z</time></trkpt><trkpt lat="44.52904605117077" lon="8.101658143637085"><ele>775.0</ele><time>2026-04-04T13:13:58Z</time></trkpt><trkpt lat="44.52906600102788" lon="8.101473587439772"><ele>775.0</ele><time>2026-04-04T13:13:59Z</time></trkpt><trkpt lat="44.52907200915946" lon="8.101320320794406"><ele>774.6</ele><time>2026-04-04T13:14:00Z</time></trkpt><trkpt lat="44.52904677921302" lon="8.101197690642667"><ele>774.2</ele><time>2026-04-04T13:14:01Z</time></trkpt><trkpt lat="44.528962728745746" lon="8.101086893401146"><ele>773.8</ele><time>2026-04-04T13:14:02Z</time></trkpt><trkpt lat="44.52884799799315" lon="8.10105490345929"><ele>773.4</ele><time>2026-04-04T13:14:03Z</time></trkpt><trkpt lat="44.52873836792149" lon="8.101063346311893"><ele>773.0</ele><time>2026-04-04T13:14:04Z</time></trkpt><trkpt lat="44.52861649052349" lon="8.101102013535986"><ele>773.0</ele><time>2026-04-04T13:14:05Z</time></trkpt><trkpt lat="44.5284830601056" lon="8.10112240757465"><ele>773.0</ele><time>2026-04-04T13:14:06Z</time></trkpt><trkpt lat="44.52833131304681" lon="8.101119293013731"><ele>773.0</ele><time>2026-04-04T13:14:07Z</time></trkpt><trkpt lat="44.52817672472119" lon="8.101122271322703"><ele>773.0</ele><time>2026-04-04T13:14:08Z</time></trkpt><trkpt lat="44.52801424129064" lon="8.101150686958485"><ele>772.6666666666667</ele><time>2026-04-04T13:14:09Z</time></trkpt><trkpt lat="44.527848179173446" lon="8.101208893009725"><ele>772.3333333333333</ele><time>2026-04-04T13:14:10Z</time></trkpt><trkpt lat="44.52767279713431" lon="8.1012687045515"><ele>772.0</ele><time>2026-04-04T13:14:11Z</time></trkpt><trkpt lat="44.52749783162237" lon="8.101323315938446"><ele>772.0</ele><time>2026-04-04T13:14:12Z</time></trkpt><trkpt lat="44.52733726306323" lon="8.101371031481913"><ele>772.0</ele><time>2026-04-04T13:14:13Z</time></trkpt><trkpt lat="44.52717976376912" lon="8.101370131844316"><ele>772.0</ele><time>2026-04-04T13:14:14Z</time></trkpt><trkpt lat="44.52704132441177" lon="8.101408997182865"><ele>771.5</ele><time>2026-04-04T13:14:15Z</time></trkpt><trkpt lat="44.526923170966384" lon="8.1014307296923"><ele>771.0</ele><time>2026-04-04T13:14:16Z</time></trkpt><trkpt lat="44.52680863763087" lon="8.101484787891948"><ele>770.5</ele><time>2026-04-04T13:14:17Z</time></trkpt><trkpt lat="44.5267063179491" lon="8.101589988493247"><ele>770.0</ele><time>2026-04-04T13:14:18Z</time></trkpt><trkpt lat="44.52661617054639" lon="8.101739553962485"><ele>774.75</ele><time>2026-04-04T13:14:19Z</time></trkpt><trkpt lat="44.52653521141774" lon="8.101912829209416"><ele>779.5</ele><time>2026-04-04T13:14:20Z</time></trkpt><trkpt lat="44.526462089210426" lon="8.10207019715668"><ele>784.25</ele><time>2026-04-04T13:14:21Z</time></trkpt><trkpt lat="44.52637739635611" lon="8.102204321497222"><ele>789.0</ele><time>2026-04-04T13:14:22Z</time></trkpt><trkpt lat="44.52624554707544" lon="8.102300677625161"><ele>788.6666666666667</ele><time>2026-04-04T13:14:23Z</time></trkpt><trkpt lat="44.5261089192284" lon="8.102409613699717"><ele>788.3333333333334</ele><time>2026-04-04T13:14:24Z</time></trkpt><trkpt lat="44.52596315555345" lon="8.102497560836975"><ele>788.0</ele><time>2026-04-04T13:14:25Z</time></trkpt><trkpt lat="44.525823480688494" lon="8.102554562212507"><ele>788.0</ele><time>2026-04-04T13:14:26Z</time></trkpt><trkpt lat="44.52570637781122" lon="8.102640846611342"><ele>788.0</ele><time>2026-04-04T13:14:26.999Z</time></trkpt><trkpt lat="44.52557353055394" lon="8.102648213782507"><ele>788.0</ele><time>2026-04-04T13:14:27.999Z</time></trkpt><trkpt lat="44.52542777966499" lon="8.10262571431063"><ele>788.0</ele><time>2026-04-04T13:14:28.999Z</time></trkpt><trkpt lat="44.52527824163872" lon="8.102565364764917"><ele>788.3333333333334</ele><time>2026-04-04T13:14:29.999Z</time></trkpt><trkpt lat="44.525117338908885" lon="8.10246451027936"><ele>788.6666666666667</ele><time>2026-04-04T13:14:30.999Z</time></trkpt><trkpt lat="44.52493415849097" lon="8.10235076105524"><ele>789.0</ele><time>2026-04-04T13:14:31.999Z</time></trkpt><trkpt lat="44.52475464690119" lon="8.102237951092158"><ele>789.0</ele><time>2026-04-04T13:14:32.999Z</time></trkpt><trkpt lat="44.52457699795483" lon="8.102124659440102"><ele>789.0</ele><time>2026-04-04T13:14:33.999Z</time></trkpt><trkpt lat="44.52440103667689" lon="8.102012328645303"><ele>789.0</ele><time>2026-04-04T13:14:34.999Z</time></trkpt><trkpt lat="44.524226330253484" lon="8.101898706784675"><ele>789.0</ele><time>2026-04-04T13:14:35.999Z</time></trkpt><trkpt lat="44.52406595809305" lon="8.101793126046859"><ele>789.0</ele><time>2026-04-04T13:14:36.999Z</time></trkpt><trkpt lat="44.523874087454054" lon="8.10166604827551"><ele>789.0</ele><time>2026-04-04T13:14:37.999Z</time></trkpt><trkpt lat="44.52369137564681" lon="8.101546395301757"><ele>790.0</ele><time>2026-04-04T13:14:38.999Z</time></trkpt><trkpt lat="44.52350729617462" lon="8.101428991765054"><ele>791.0</ele><time>2026-04-04T13:14:39.999Z</time></trkpt><trkpt lat="44.523319867892404" lon="8.101310572145573"><ele>792.0</ele><time>2026-04-04T13:14:40.999Z</time></trkpt><trkpt lat="44.52313205184115" lon="8.101192284957284"><ele>792.0</ele><time>2026-04-04T13:14:41.999Z</time></trkpt><trkpt lat="44.52294370868619" lon="8.10107467874414"><ele>792.0</ele><time>2026-04-04T13:14:42.999Z</time></trkpt><trkpt lat="44.52276148124848" lon="8.100959600549295"><ele>792.0</ele><time>2026-04-04T13:14:43.999Z</time></trkpt><trkpt lat="44.522581241981726" lon="8.100842761412604"><ele>791.3333333333333</ele><time>2026-04-04T13:14:44.999Z</time></trkpt><trkpt lat="44.52240004785708" lon="8.100725267934155"><ele>790.6666666666666</ele><time>2026-04-04T13:14:45.999Z</time></trkpt><trkpt lat="44.522214897845544" lon="8.100605739981859"><ele>790.0</ele><time>2026-04-04T13:14:46.999Z</time></trkpt><trkpt lat="44.52203022237839" lon="8.100489382377383"><ele>791.3333333333333</ele><time>2026-04-04T13:14:47.999Z</time></trkpt><trkpt lat="44.52184867217629" lon="8.100375858557312"><ele>792.6666666666667</ele><time>2026-04-04T13:14:48.999Z</time></trkpt><trkpt lat="44.52167325025458" lon="8.100271515012837"><ele>794.0</ele><time>2026-04-04T13:14:49.999Z</time></trkpt><trkpt lat="44.52150628737692" lon="8.100171438685148"><ele>794.0</ele><time>2026-04-04T13:14:50.999Z</time></trkpt><trkpt lat="44.52134505300787" lon="8.10007479606781"><ele>794.0</ele><time>2026-04-04T13:14:51.999Z</time></trkpt><trkpt lat="44.52118523065871" lon="8.099978190530573"><ele>794.0</ele><time>2026-04-04T13:14:52.999Z</time></trkpt><trkpt lat="44.521029975837855" lon="8.099884200280655"><ele>793.5</ele><time>2026-04-04T13:14:53.999Z</time></trkpt><trkpt lat="44.52088236639262" lon="8.099794838334727"><ele>793.0</ele><time>2026-04-04T13:14:54.999Z</time></trkpt><trkpt lat="44.520748153401975" lon="8.099712512422144"><ele>792.5</ele><time>2026-04-04T13:14:55.999Z</time></trkpt><trkpt lat="44.520627764998785" lon="8.09962677840245"><ele>792.0</ele><time>2026-04-04T13:14:56.999Z</time></trkpt><trkpt lat="44.52051302612984" lon="8.099517975903499"><ele>792.0</ele><time>2026-04-04T13:14:57.999Z</time></trkpt><trkpt lat="44.52040940184594" lon="8.09937358184236"><ele>792.0</ele><time>2026-04-04T13:14:58.999Z</time></trkpt><trkpt lat="44.52035168169148" lon="8.099202146077092"><ele>792.0</ele><time>2026-04-04T13:14:59.999Z</time></trkpt><trkpt lat="44.5202920516319" lon="8.099014605235634"><ele>792.0</ele><time>2026-04-04T13:15:00.999Z</time></trkpt><trkpt lat="44.520232303811746" lon="8.098812712811181"><ele>796.6666666666667</ele><time>2026-04-04T13:15:01.999Z</time></trkpt><trkpt lat="44.52016614414097" lon="8.098607013446548"><ele>801.3333333333334</ele><time>2026-04-04T13:15:02.999Z</time></trkpt><trkpt lat="44.52009046581653" lon="8.098417880949524"><ele>806.0</ele><time>2026-04-04T13:15:03.999Z</time></trkpt><trkpt lat="44.520035200268225" lon="8.098239595339141"><ele>806.75</ele><time>2026-04-04T13:15:04.999Z</time></trkpt><trkpt lat="44.52000621470448" lon="8.098066437725784"><ele>807.5</ele><time>2026-04-04T13:15:05.999Z</time></trkpt><trkpt lat="44.51994779279824" lon="8.097908955084952"><ele>808.25</ele><time>2026-04-04T13:15:06.999Z</time></trkpt><trkpt lat="44.51995627260684" lon="8.097722808736624"><ele>809.0</ele><time>2026-04-04T13:15:07.999Z</time></trkpt><trkpt lat="44.52000655187887" lon="8.097522973149808"><ele>809.0</ele><time>2026-04-04T13:15:08.999Z</time></trkpt><trkpt lat="44.52007864979611" lon="8.097332653828849"><ele>809.0</ele><time>2026-04-04T13:15:09.999Z</time></trkpt><trkpt lat="44.52016607441478" lon="8.097148738307206"><ele>809.0</ele><time>2026-04-04T13:15:10.999Z</time></trkpt><trkpt lat="44.52024915737349" lon="8.096974229820816"><ele>809.0</ele><time>2026-04-04T13:15:11.999Z</time></trkpt><trkpt lat="44.52031145797935" lon="8.096828924712787"><ele>809.0</ele><time>2026-04-04T13:15:12.999Z</time></trkpt><trkpt lat="44.52035351360328" lon="8.096691674563305"><ele>809.0</ele><time>2026-04-04T13:15:13.999Z</time></trkpt><trkpt lat="44.52036234615596" lon="8.096544719550762"><ele>809.0</ele><time>2026-04-04T13:15:14.999Z</time></trkpt><trkpt lat="44.52036185889123" lon="8.096394354674167"><ele>809.0</ele><time>2026-04-04T13:15:15.999Z</time></trkpt><trkpt lat="44.52027593829262" lon="8.09627340032918"><ele>807.0</ele><time>2026-04-04T13:15:16.999Z</time></trkpt><trkpt lat="44.52017089050761" lon="8.09617931932477"><ele>805.0</ele><time>2026-04-04T13:15:17.999Z</time></trkpt><trkpt lat="44.52007149420626" lon="8.096064503125696"><ele>803.0</ele><time>2026-04-04T13:15:18.999Z</time></trkpt><trkpt lat="44.51995108460066" lon="8.095953643803622"><ele>801.0</ele><time>2026-04-04T13:15:19.999Z</time></trkpt><trkpt lat="44.519818175841" lon="8.095833519536248"><ele>802.25</ele><time>2026-04-04T13:15:20.999Z</time></trkpt><trkpt lat="44.519695111084154" lon="8.095719246334667"><ele>803.5</ele><time>2026-04-04T13:15:21.999Z</time></trkpt><trkpt lat="44.519583465437066" lon="8.095609614974546"><ele>804.75</ele><time>2026-04-04T13:15:22.999Z</time></trkpt><trkpt lat="44.519485527983775" lon="8.095494087346523"><ele>806.0</ele><time>2026-04-04T13:15:23.999Z</time></trkpt><trkpt lat="44.51941158951122" lon="8.095343343990528"><ele>806.0</ele><time>2026-04-04T13:15:24.999Z</time></trkpt><trkpt lat="44.519363239260755" lon="8.095153922070711"><ele>806.0</ele><time>2026-04-04T13:15:25.999Z</time></trkpt><trkpt lat="44.5193259268533" lon="8.09493886036241"><ele>806.0</ele><time>2026-04-04T13:15:26.999Z</time></trkpt><trkpt lat="44.51928000810734" lon="8.09468273756422"><ele>803.3333333333334</ele><time>2026-04-04T13:15:27.999Z</time></trkpt><trkpt lat="44.51925173652827" lon="8.094424059237198"><ele>800.6666666666667</ele><time>2026-04-04T13:15:28.999Z</time></trkpt><trkpt lat="44.51921473961771" lon="8.094154599386927"><ele>798.0</ele><time>2026-04-04T13:15:29.999Z</time></trkpt><trkpt lat="44.51917545403831" lon="8.093868801212517"><ele>796.6666666666667</ele><time>2026-04-04T13:15:30.999Z</time></trkpt><trkpt lat="44.51913475462228" lon="8.093577801758853"><ele>795.3333333333334</ele><time>2026-04-04T13:15:31.998Z</time></trkpt><trkpt lat="44.51909530182365" lon="8.09330445799192"><ele>794.0</ele><time>2026-04-04T13:15:32.998Z</time></trkpt><trkpt lat="44.51903360712782" lon="8.093039852963107"><ele>793.6666666666667</ele><time>2026-04-04T13:15:33.998Z</time></trkpt><trkpt lat="44.51899034256907" lon="8.092769949376784"><ele>793.3333333333333</ele><time>2026-04-04T13:15:35Z</time></trkpt><trkpt lat="44.5189497561209" lon="8.092501396107636"><ele>793.0</ele><time>2026-04-04T13:15:36Z</time></trkpt><trkpt lat="44.51891235972517" lon="8.092237452077745"><ele>794.6666666666666</ele><time>2026-04-04T13:15:37Z</time></trkpt><trkpt lat="44.51890860230203" lon="8.091982795884805"><ele>796.3333333333333</ele><time>2026-04-04T13:15:38Z</time></trkpt><trkpt lat="44.518905106837764" lon="8.091733048147816"><ele>798.0</ele><time>2026-04-04T13:15:39Z</time></trkpt><trkpt lat="44.51892389301824" lon="8.091478390100836"><ele>799.6666666666667</ele><time>2026-04-04T13:15:40Z</time></trkpt><trkpt lat="44.51895344459899" lon="8.091224429827042"><ele>801.3333333333334</ele><time>2026-04-04T13:15:41Z</time></trkpt><trkpt lat="44.518994559475885" lon="8.090980118323907"><ele>803.0</ele><time>2026-04-04T13:15:42Z</time></trkpt><trkpt lat="44.51905821740884" lon="8.0907382767898"><ele>805.3333333333334</ele><time>2026-04-04T13:15:43Z</time></trkpt><trkpt lat="44.519135994306005" lon="8.090490431532622"><ele>807.6666666666667</ele><time>2026-04-04T13:15:44Z</time></trkpt><trkpt lat="44.5191990614423" lon="8.090227873805727"><ele>810.0</ele><time>2026-04-04T13:15:45Z</time></trkpt><trkpt lat="44.51927980158831" lon="8.08999000554628"><ele>810.3333333333333</ele><time>2026-04-04T13:15:46Z</time></trkpt><trkpt lat="44.519355923968014" lon="8.08976926161243"><ele>810.6666666666666</ele><time>2026-04-04T13:15:47Z</time></trkpt><trkpt lat="44.51942891600721" lon="8.089563219635057"><ele>811.0</ele><time>2026-04-04T13:15:48Z</time></trkpt><trkpt lat="44.519490111739096" lon="8.089376701140782"><ele>811.0</ele><time>2026-04-04T13:15:49Z</time></trkpt><trkpt lat="44.51954593532941" lon="8.089199442172575"><ele>811.0</ele><time>2026-04-04T13:15:50Z</time></trkpt><trkpt lat="44.51958309170302" lon="8.089033801520905"><ele>811.0</ele><time>2026-04-04T13:15:51Z</time></trkpt><trkpt lat="44.51961547544122" lon="8.08890114058862"><ele>811.0</ele><time>2026-04-04T13:15:52Z</time></trkpt><trkpt lat="44.51963113356899" lon="8.088804661980461"><ele>811.0</ele><time>2026-04-04T13:15:53Z</time></trkpt><trkpt lat="44.51964960470839" lon="8.088661327417707"><ele>809.4999999999999</ele><time>2026-04-04T13:15:55Z</time></trkpt><trkpt lat="44.51964454074057" lon="8.088566916745455"><ele>808.0</ele><time>2026-04-04T13:15:57Z</time></trkpt><trkpt lat="44.51959173692563" lon="8.08849641563339"><ele>806.5</ele><time>2026-04-04T13:16:47.999Z</time></trkpt><trkpt lat="44.519511781178025" lon="8.08839604036116"><ele>805.0</ele><time>2026-04-04T13:16:49.999Z</time></trkpt><trkpt lat="44.519451592236436" lon="8.088321292708661"><ele>803.4999999999999</ele><time>2026-04-04T13:16:50.999Z</time></trkpt><trkpt lat="44.51940762805934" lon="8.088230051970601"><ele>802.0</ele><time>2026-04-04T13:16:51.999Z</time></trkpt><trkpt lat="44.519340505423166" lon="8.088146362658835"><ele>800.0</ele><time>2026-04-04T13:16:52.999Z</time></trkpt><trkpt lat="44.519271918399355" lon="8.088060847508173"><ele>798.0</ele><time>2026-04-04T13:16:53.999Z</time></trkpt><trkpt lat="44.51920361520192" lon="8.087975686289635"><ele>796.0</ele><time>2026-04-04T13:16:54.999Z</time></trkpt><trkpt lat="44.519134208699036" lon="8.08788914942002"><ele>794.0</ele><time>2026-04-04T13:16:55.999Z</time></trkpt><trkpt lat="44.51906442363132" lon="8.087802552427618"><ele>792.0</ele><time>2026-04-04T13:16:56.999Z</time></trkpt><trkpt lat="44.51899271940073" lon="8.08771377725494"><ele>792.0</ele><time>2026-04-04T13:16:57.999Z</time></trkpt><trkpt lat="44.518922469912965" lon="8.08762680318488"><ele>792.0</ele><time>2026-04-04T13:16:58.999Z</time></trkpt><trkpt lat="44.51885349225304" lon="8.08754140377771"><ele>792.0</ele><time>2026-04-04T13:16:59.999Z</time></trkpt><trkpt lat="44.518775520288756" lon="8.087444868671774"><ele>792.0</ele><time>2026-04-04T13:17:00.999Z</time></trkpt><trkpt lat="44.518695381946834" lon="8.087345651453857"><ele>792.0</ele><time>2026-04-04T13:17:01.999Z</time></trkpt><trkpt lat="44.51860964393499" lon="8.087239501423927"><ele>793.25</ele><time>2026-04-04T13:17:02.999Z</time></trkpt><trkpt lat="44.518525103214394" lon="8.087134833758306"><ele>794.5</ele><time>2026-04-04T13:17:03.999Z</time></trkpt><trkpt lat="44.51844035766753" lon="8.087029912502047"><ele>795.75</ele><time>2026-04-04T13:17:04.999Z</time></trkpt><trkpt lat="44.51834364136574" lon="8.086908094676575"><ele>797.0</ele><time>2026-04-04T13:17:05.999Z</time></trkpt><trkpt lat="44.518267477890724" lon="8.086812058396873"><ele>797.0</ele><time>2026-04-04T13:17:06.999Z</time></trkpt><trkpt lat="44.51818281109823" lon="8.086705300086361"><ele>797.0</ele><time>2026-04-04T13:17:07.999Z</time></trkpt><trkpt lat="44.518095360112596" lon="8.086595031098847"><ele>797.0</ele><time>2026-04-04T13:17:08.999Z</time></trkpt><trkpt lat="44.51800939588157" lon="8.08648747062095"><ele>797.0</ele><time>2026-04-04T13:17:09.999Z</time></trkpt><trkpt lat="44.51793130629321" lon="8.08639269722323"><ele>796.0</ele><time>2026-04-04T13:17:10.999Z</time></trkpt><trkpt lat="44.517847594120695" lon="8.086293597636287"><ele>795.0</ele><time>2026-04-04T13:17:11.999Z</time></trkpt><trkpt lat="44.51775562705712" lon="8.086187157375987"><ele>794.0</ele><time>2026-04-04T13:17:12.999Z</time></trkpt><trkpt lat="44.517654236372124" lon="8.086083235096535"><ele>793.0</ele><time>2026-04-04T13:17:13.999Z</time></trkpt><trkpt lat="44.51754145612702" lon="8.08597888490761"><ele>793.0</ele><time>2026-04-04T13:17:14.999Z</time></trkpt><trkpt lat="44.517424463176866" lon="8.085887124041445"><ele>793.0</ele><time>2026-04-04T13:17:15.999Z</time></trkpt><trkpt lat="44.51731236847229" lon="8.085801279919169"><ele>793.0</ele><time>2026-04-04T13:17:16.999Z</time></trkpt><trkpt lat="44.51719921409534" lon="8.08571468890203"><ele>793.0</ele><time>2026-04-04T13:17:17.999Z</time></trkpt><trkpt lat="44.51708142346166" lon="8.085625965794403"><ele>791.25</ele><time>2026-04-04T13:17:18.999Z</time></trkpt><trkpt lat="44.51695993441516" lon="8.085534458533916"><ele>789.5</ele><time>2026-04-04T13:17:19.999Z</time></trkpt><trkpt lat="44.51683481878097" lon="8.085440218069378"><ele>787.75</ele><time>2026-04-04T13:17:20.999Z</time></trkpt><trkpt lat="44.516709676785894" lon="8.085345685515177"><ele>786.0</ele><time>2026-04-04T13:17:21.999Z</time></trkpt><trkpt lat="44.516582275484154" lon="8.085248562041349"><ele>786.0</ele><time>2026-04-04T13:17:22.999Z</time></trkpt><trkpt lat="44.51645706683065" lon="8.085153109978084"><ele>786.0</ele><time>2026-04-04T13:17:23.999Z</time></trkpt><trkpt lat="44.51633474895627" lon="8.085059861713447"><ele>786.0</ele><time>2026-04-04T13:17:24.999Z</time></trkpt><trkpt lat="44.516214723639486" lon="8.084968361169937"><ele>786.0</ele><time>2026-04-04T13:17:25.999Z</time></trkpt><trkpt lat="44.51609709344045" lon="8.084878686494724"><ele>784.25</ele><time>2026-04-04T13:17:26.999Z</time></trkpt><trkpt lat="44.51596255399762" lon="8.084798227328733"><ele>782.5</ele><time>2026-04-04T13:17:27.999Z</time></trkpt><trkpt lat="44.515845282935885" lon="8.08468672038027"><ele>780.75</ele><time>2026-04-04T13:17:28.999Z</time></trkpt><trkpt lat="44.51572233227049" lon="8.08459285136978"><ele>779.0</ele><time>2026-04-04T13:17:29.999Z</time></trkpt><trkpt lat="44.51560267682886" lon="8.084501356274485"><ele>779.0</ele><time>2026-04-04T13:17:30.999Z</time></trkpt><trkpt lat="44.51548656951242" lon="8.084412547515107"><ele>779.0</ele><time>2026-04-04T13:17:31.998Z</time></trkpt><trkpt lat="44.51537077805646" lon="8.084323980388945"><ele>779.0</ele><time>2026-04-04T13:17:32.998Z</time></trkpt><trkpt lat="44.51525348556325" lon="8.08423426507511"><ele>779.0</ele><time>2026-04-04T13:17:33.998Z</time></trkpt><trkpt lat="44.5151392951143" lon="8.08414692268866"><ele>778.0</ele><time>2026-04-04T13:17:34.998Z</time></trkpt><trkpt lat="44.51502743699347" lon="8.084067363345765"><ele>777.0</ele><time>2026-04-04T13:17:35.998Z</time></trkpt><trkpt lat="44.51491609452638" lon="8.083989234892693"><ele>776.0</ele><time>2026-04-04T13:17:36.998Z</time></trkpt><trkpt lat="44.51481326907685" lon="8.083916073170565"><ele>775.0</ele><time>2026-04-04T13:17:37.998Z</time></trkpt><trkpt lat="44.51471884560066" lon="8.083841580979554"><ele>775.0</ele><time>2026-04-04T13:17:38.998Z</time></trkpt><trkpt lat="44.51461702569026" lon="8.083749038830163"><ele>775.0</ele><time>2026-04-04T13:17:39.998Z</time></trkpt><trkpt lat="44.514526711022015" lon="8.08367739649078"><ele>775.0</ele><time>2026-04-04T13:17:41Z</time></trkpt><trkpt lat="44.514443407440446" lon="8.083548266709485"><ele>775.0</ele><time>2026-04-04T13:17:42Z</time></trkpt><trkpt lat="44.51435622362985" lon="8.083420357534237"><ele>775.25</ele><time>2026-04-04T13:17:43Z</time></trkpt><trkpt lat="44.514286009311235" lon="8.083265079054591"><ele>775.5</ele><time>2026-04-04T13:17:44Z</time></trkpt><trkpt lat="44.51421593680512" lon="8.083097196103981"><ele>775.75</ele><time>2026-04-04T13:17:45Z</time></trkpt><trkpt lat="44.514159867461466" lon="8.082916081340523"><ele>776.0</ele><time>2026-04-04T13:17:46Z</time></trkpt><trkpt lat="44.514100001871505" lon="8.08273116677433"><ele>776.0</ele><time>2026-04-04T13:17:47Z</time></trkpt><trkpt lat="44.51403933980463" lon="8.082541418908903"><ele>776.0</ele><time>2026-04-04T13:17:48Z</time></trkpt><trkpt lat="44.513977936659245" lon="8.082353890697771"><ele>776.0</ele><time>2026-04-04T13:17:49Z</time></trkpt><trkpt lat="44.513916432880464" lon="8.082177000752546"><ele>776.0</ele><time>2026-04-04T13:17:50Z</time></trkpt><trkpt lat="44.51385697083818" lon="8.082015064657547"><ele>775.25</ele><time>2026-04-04T13:17:51Z</time></trkpt><trkpt lat="44.51379904441511" lon="8.081857310830905"><ele>774.5</ele><time>2026-04-04T13:17:52Z</time></trkpt><trkpt lat="44.5137392278866" lon="8.081694409323665"><ele>773.75</ele><time>2026-04-04T13:17:53Z</time></trkpt><trkpt lat="44.513681599862906" lon="8.081531886489708"><ele>773.0</ele><time>2026-04-04T13:17:54Z</time></trkpt><trkpt lat="44.513621919940704" lon="8.081363610208976"><ele>775.25</ele><time>2026-04-04T13:17:55Z</time></trkpt><trkpt lat="44.5135619029791" lon="8.081194383584048"><ele>777.5</ele><time>2026-04-04T13:17:56Z</time></trkpt><trkpt lat="44.51350193616958" lon="8.081025298388344"><ele>779.75</ele><time>2026-04-04T13:17:57Z</time></trkpt><trkpt lat="44.51344062417299" lon="8.080854295309212"><ele>782.0</ele><time>2026-04-04T13:17:58Z</time></trkpt><trkpt lat="44.51338468208814" lon="8.080698917312674"><ele>782.0</ele><time>2026-04-04T13:17:59Z</time></trkpt><trkpt lat="44.5133318237188" lon="8.080552302954253"><ele>782.0</ele><time>2026-04-04T13:18:00Z</time></trkpt><trkpt lat="44.51327636756901" lon="8.080401016758735"><ele>782.0</ele><time>2026-04-04T13:18:01Z</time></trkpt><trkpt lat="44.51322259917736" lon="8.080254334800182"><ele>782.0</ele><time>2026-04-04T13:18:02Z</time></trkpt><trkpt lat="44.5131739124668" lon="8.08011569137731"><ele>782.0</ele><time>2026-04-04T13:18:03Z</time></trkpt><trkpt lat="44.51312986950264" lon="8.079997578196796"><ele>782.0</ele><time>2026-04-04T13:18:04Z</time></trkpt><trkpt lat="44.513081045077186" lon="8.079894543426507"><ele>782.0</ele><time>2026-04-04T13:18:05Z</time></trkpt><trkpt lat="44.51300901025323" lon="8.079815716880193"><ele>782.0</ele><time>2026-04-04T13:18:06Z</time></trkpt><trkpt lat="44.512930273356" lon="8.079739720581953"><ele>782.0</ele><time>2026-04-04T13:18:07Z</time></trkpt><trkpt lat="44.51283680769197" lon="8.079679234429896"><ele>781.75</ele><time>2026-04-04T13:18:08Z</time></trkpt><trkpt lat="44.512729154055336" lon="8.079637143935969"><ele>781.5</ele><time>2026-04-04T13:18:09Z</time></trkpt><trkpt lat="44.51261292606358" lon="8.079599740812002"><ele>781.25</ele><time>2026-04-04T13:18:10Z</time></trkpt><trkpt lat="44.51249100928525" lon="8.079532743164098"><ele>781.0</ele><time>2026-04-04T13:18:11Z</time></trkpt><trkpt lat="44.512356302191456" lon="8.079478853777307"><ele>781.0</ele><time>2026-04-04T13:18:12Z</time></trkpt><trkpt lat="44.51221755188137" lon="8.079423345215725"><ele>781.0</ele><time>2026-04-04T13:18:13Z</time></trkpt><trkpt lat="44.512074460684616" lon="8.079366023006662"><ele>781.0</ele><time>2026-04-04T13:18:14Z</time></trkpt><trkpt lat="44.511929395006426" lon="8.079307882903214"><ele>781.0</ele><time>2026-04-04T13:18:15Z</time></trkpt><trkpt lat="44.51178923624148" lon="8.079260006604448"><ele>781.25</ele><time>2026-04-04T13:18:16Z</time></trkpt><trkpt lat="44.51164380597665" lon="8.079193423133027"><ele>781.5</ele><time>2026-04-04T13:18:17Z</time></trkpt><trkpt lat="44.511510878216086" lon="8.079140147651112"><ele>781.75</ele><time>2026-04-04T13:18:18Z</time></trkpt><trkpt lat="44.5113795222742" lon="8.079087502185525"><ele>782.0</ele><time>2026-04-04T13:18:19Z</time></trkpt><trkpt lat="44.51123639730457" lon="8.079030139907967"><ele>780.0</ele><time>2026-04-04T13:18:20Z</time></trkpt><trkpt lat="44.511094153135645" lon="8.078972578139012"><ele>778.0</ele><time>2026-04-04T13:18:21Z</time></trkpt><trkpt lat="44.510946741166045" lon="8.078912620710552"><ele>776.0</ele><time>2026-04-04T13:18:22Z</time></trkpt><trkpt lat="44.51080201379154" lon="8.078853755230423"><ele>776.0</ele><time>2026-04-04T13:18:23Z</time></trkpt><trkpt lat="44.51065653335262" lon="8.0787945846833"><ele>776.0</ele><time>2026-04-04T13:18:24Z</time></trkpt><trkpt lat="44.51050669212594" lon="8.078732814456274"><ele>776.0</ele><time>2026-04-04T13:18:25Z</time></trkpt><trkpt lat="44.510355506621906" lon="8.078693928454795"><ele>778.3333333333334</ele><time>2026-04-04T13:18:26Z</time></trkpt><trkpt lat="44.51021000552209" lon="8.078627760856019"><ele>780.6666666666667</ele><time>2026-04-04T13:18:27Z</time></trkpt><trkpt lat="44.51005783241415" lon="8.078569378322804"><ele>783.0</ele><time>2026-04-04T13:18:28Z</time></trkpt><trkpt lat="44.509919891604476" lon="8.078494098513843"><ele>783.0</ele><time>2026-04-04T13:18:29Z</time></trkpt><trkpt lat="44.509789720860304" lon="8.07844124594069"><ele>783.0</ele><time>2026-04-04T13:18:30Z</time></trkpt><trkpt lat="44.509667222548174" lon="8.078391527700637"><ele>783.0</ele><time>2026-04-04T13:18:31Z</time></trkpt><trkpt lat="44.50955390446972" lon="8.07835349347143"><ele>783.0</ele><time>2026-04-04T13:18:32Z</time></trkpt><trkpt lat="44.50945142985615" lon="8.07831237301891"><ele>782.8</ele><time>2026-04-04T13:18:33Z</time></trkpt><trkpt lat="44.50934596369688" lon="8.07827884304275"><ele>782.5999999999999</ele><time>2026-04-04T13:18:33.999Z</time></trkpt><trkpt lat="44.50924016630217" lon="8.078228837614832"><ele>782.4000000000001</ele><time>2026-04-04T13:18:34.999Z</time></trkpt><trkpt lat="44.50915451267421" lon="8.078182766223627"><ele>782.2</ele><time>2026-04-04T13:18:35.999Z</time></trkpt><trkpt lat="44.50905927198033" lon="8.078159633402887"><ele>782.0</ele><time>2026-04-04T13:18:36.999Z</time></trkpt><trkpt lat="44.50896931233375" lon="8.078103925800177"><ele>782.0</ele><time>2026-04-04T13:18:37.999Z</time></trkpt><trkpt lat="44.50885468645088" lon="8.078147689841863"><ele>782.0</ele><time>2026-04-04T13:18:38.999Z</time></trkpt><trkpt lat="44.508742266572625" lon="8.078163488720161"><ele>782.0</ele><time>2026-04-04T13:18:39.999Z</time></trkpt><trkpt lat="44.50861740454113" lon="8.078168988797742"><ele>782.0</ele><time>2026-04-04T13:18:40.999Z</time></trkpt><trkpt lat="44.508489601406794" lon="8.078145883437363"><ele>782.4000000000001</ele><time>2026-04-04T13:18:41.999Z</time></trkpt><trkpt lat="44.50837323850589" lon="8.078100632044944"><ele>782.8000000000001</ele><time>2026-04-04T13:18:42.999Z</time></trkpt><trkpt lat="44.50825948616103" lon="8.078082620915824"><ele>783.2</ele><time>2026-04-04T13:18:43.999Z</time></trkpt><trkpt lat="44.50815573537822" lon="8.07809601450963"><ele>783.6</ele><time>2026-04-04T13:18:44.999Z</time></trkpt><trkpt lat="44.508055611201264" lon="8.078145518188553"><ele>784.0</ele><time>2026-04-04T13:18:45.999Z</time></trkpt><trkpt lat="44.5079642374262" lon="8.078237567606006"><ele>785.25</ele><time>2026-04-04T13:18:46.999Z</time></trkpt><trkpt lat="44.50786446788837" lon="8.078358954989989"><ele>786.5</ele><time>2026-04-04T13:18:47.999Z</time></trkpt><trkpt lat="44.507758623577146" lon="8.07847446372262"><ele>787.75</ele><time>2026-04-04T13:18:48.999Z</time></trkpt><trkpt lat="44.507655565223544" lon="8.078573371163888"><ele>789.0</ele><time>2026-04-04T13:18:49.999Z</time></trkpt><trkpt lat="44.50753898536031" lon="8.078678170777653"><ele>789.0</ele><time>2026-04-04T13:18:50.999Z</time></trkpt><trkpt lat="44.507423904134036" lon="8.078779172391037"><ele>789.0</ele><time>2026-04-04T13:18:51.999Z</time></trkpt><trkpt lat="44.50731133542318" lon="8.078890414606082"><ele>789.0</ele><time>2026-04-04T13:18:52.999Z</time></trkpt><trkpt lat="44.50721972551061" lon="8.078986212323274"><ele>789.0</ele><time>2026-04-04T13:18:53.999Z</time></trkpt><trkpt lat="44.50713734136812" lon="8.079096263571069"><ele>789.5</ele><time>2026-04-04T13:18:54.999Z</time></trkpt><trkpt lat="44.50707517436753" lon="8.079228095057818"><ele>790.0</ele><time>2026-04-04T13:18:55.999Z</time></trkpt><trkpt lat="44.50704173327325" lon="8.079386819808192"><ele>790.5</ele><time>2026-04-04T13:18:56.999Z</time></trkpt><trkpt lat="44.507019075108445" lon="8.079558853111353"><ele>791.0</ele><time>2026-04-04T13:18:57.999Z</time></trkpt><trkpt lat="44.50698282956418" lon="8.07973685553201"><ele>791.0</ele><time>2026-04-04T13:18:58.999Z</time></trkpt><trkpt lat="44.50693595592828" lon="8.079914867507336"><ele>791.0</ele><time>2026-04-04T13:18:59.999Z</time></trkpt><trkpt lat="44.506902191234985" lon="8.080090346923232"><ele>791.0</ele><time>2026-04-04T13:19:00.999Z</time></trkpt><trkpt lat="44.50685904020196" lon="8.08028262361169"><ele>791.0</ele><time>2026-04-04T13:19:01.999Z</time></trkpt><trkpt lat="44.50682390120065" lon="8.08047623105678"><ele>793.75</ele><time>2026-04-04T13:19:02.999Z</time></trkpt><trkpt lat="44.50678572816359" lon="8.080675410725556"><ele>796.5</ele><time>2026-04-04T13:19:03.999Z</time></trkpt><trkpt lat="44.50675081090708" lon="8.080875455189458"><ele>799.25</ele><time>2026-04-04T13:19:04.999Z</time></trkpt><trkpt lat="44.50671487516086" lon="8.081076843988194"><ele>802.0</ele><time>2026-04-04T13:19:05.999Z</time></trkpt><trkpt lat="44.50667652824386" lon="8.08126705485143"><ele>805.2</ele><time>2026-04-04T13:19:06.999Z</time></trkpt><trkpt lat="44.50664876967838" lon="8.08144324806887"><ele>808.4000000000001</ele><time>2026-04-04T13:19:07.999Z</time></trkpt><trkpt lat="44.5066194914298" lon="8.081598297292963"><ele>811.5999999999999</ele><time>2026-04-04T13:19:08.999Z</time></trkpt><trkpt lat="44.50657784796198" lon="8.081724929439575"><ele>814.8</ele><time>2026-04-04T13:19:09.999Z</time></trkpt><trkpt lat="44.50654418077009" lon="8.081845460634018"><ele>818.0</ele><time>2026-04-04T13:19:10.999Z</time></trkpt><trkpt lat="44.50644572366993" lon="8.08193686795535"><ele>816.75</ele><time>2026-04-04T13:19:11.999Z</time></trkpt><trkpt lat="44.50633696425812" lon="8.081997427613773"><ele>815.5</ele><time>2026-04-04T13:19:12.999Z</time></trkpt><trkpt lat="44.506203029666985" lon="8.082043652617912"><ele>814.25</ele><time>2026-04-04T13:19:13.999Z</time></trkpt><trkpt lat="44.50606637862654" lon="8.082053120216614"><ele>813.0</ele><time>2026-04-04T13:19:14.999Z</time></trkpt><trkpt lat="44.50593441016034" lon="8.08205834042578"><ele>813.0</ele><time>2026-04-04T13:19:15.999Z</time></trkpt><trkpt lat="44.50580431405179" lon="8.082083188424766"><ele>813.0</ele><time>2026-04-04T13:19:16.999Z</time></trkpt><trkpt lat="44.50565333610805" lon="8.082118743529076"><ele>813.0</ele><time>2026-04-04T13:19:17.999Z</time></trkpt><trkpt lat="44.5055133634483" lon="8.08214236997869"><ele>813.0</ele><time>2026-04-04T13:19:18.999Z</time></trkpt><trkpt lat="44.50537645180263" lon="8.08214618538319"><ele>813.75</ele><time>2026-04-04T13:19:19.999Z</time></trkpt><trkpt lat="44.50523913645288" lon="8.082131817057165"><ele>814.5</ele><time>2026-04-04T13:19:20.999Z</time></trkpt><trkpt lat="44.505098768700556" lon="8.082092325533324"><ele>815.25</ele><time>2026-04-04T13:19:21.999Z</time></trkpt><trkpt lat="44.50496490121638" lon="8.081997967712077"><ele>816.0</ele><time>2026-04-04T13:19:22.999Z</time></trkpt><trkpt lat="44.504823559016636" lon="8.081914171482968"><ele>816.0</ele><time>2026-04-04T13:19:23.999Z</time></trkpt><trkpt lat="44.50467716633665" lon="8.08182414676207"><ele>816.0</ele><time>2026-04-04T13:19:24.999Z</time></trkpt><trkpt lat="44.50453327747432" lon="8.08173569692677"><ele>816.0</ele><time>2026-04-04T13:19:25.999Z</time></trkpt><trkpt lat="44.504393016868256" lon="8.081650078871794"><ele>815.5</ele><time>2026-04-04T13:19:26.999Z</time></trkpt><trkpt lat="44.504256248124676" lon="8.081567258334612"><ele>815.0</ele><time>2026-04-04T13:19:27.999Z</time></trkpt><trkpt lat="44.50412349114487" lon="8.081486886352739"><ele>814.5</ele><time>2026-04-04T13:19:28.999Z</time></trkpt><trkpt lat="44.503992692716714" lon="8.081407700098149"><ele>814.0</ele><time>2026-04-04T13:19:29.999Z</time></trkpt><trkpt lat="44.50385743089" lon="8.081325811629624"><ele>816.75</ele><time>2026-04-04T13:19:30.999Z</time></trkpt><trkpt lat="44.503720655646475" lon="8.081243007015903"><ele>819.5</ele><time>2026-04-04T13:19:31.999Z</time></trkpt><trkpt lat="44.503588815395375" lon="8.081163190014573"><ele>822.25</ele><time>2026-04-04T13:19:32.998Z</time></trkpt><trkpt lat="44.50346261530668" lon="8.081089184176223"><ele>825.0</ele><time>2026-04-04T13:19:33.998Z</time></trkpt><trkpt lat="44.503343523704345" lon="8.081022579198379"><ele>825.0</ele><time>2026-04-04T13:19:34.998Z</time></trkpt><trkpt lat="44.50323070303443" lon="8.080968454357793"><ele>825.0</ele><time>2026-04-04T13:19:35.998Z</time></trkpt><trkpt lat="44.50312431684748" lon="8.080937546520722"><ele>825.0</ele><time>2026-04-04T13:19:36.998Z</time></trkpt><trkpt lat="44.503022494323965" lon="8.080931340516546"><ele>825.0</ele><time>2026-04-04T13:19:37.998Z</time></trkpt><trkpt lat="44.50292926507265" lon="8.080954610236075"><ele>825.0</ele><time>2026-04-04T13:19:38.998Z</time></trkpt><trkpt lat="44.50285001254497" lon="8.081001149118235"><ele>826.1666666666666</ele><time>2026-04-04T13:19:39.998Z</time></trkpt><trkpt lat="44.5027745459452" lon="8.081046485350281"><ele>827.3333333333333</ele><time>2026-04-04T13:19:40.998Z</time></trkpt><trkpt lat="44.50270416517819" lon="8.081117865559525"><ele>828.5</ele><time>2026-04-04T13:19:41.998Z</time></trkpt><trkpt lat="44.50262320660628" lon="8.081132448059384"><ele>829.6666666666666</ele><time>2026-04-04T13:19:42.998Z</time></trkpt><trkpt lat="44.50254982064156" lon="8.081142611406033"><ele>830.8333333333333</ele><time>2026-04-04T13:19:43.998Z</time></trkpt><trkpt lat="44.502481850398574" lon="8.081093661326637"><ele>832.0</ele><time>2026-04-04T13:19:44.998Z</time></trkpt><trkpt lat="44.50237790563576" lon="8.08103131379864"><ele>832.0</ele><time>2026-04-04T13:19:45.998Z</time></trkpt><trkpt lat="44.50227588501654" lon="8.080970996153656"><ele>832.0</ele><time>2026-04-04T13:19:47Z</time></trkpt><trkpt lat="44.50217586709125" lon="8.080910342497907"><ele>832.0</ele><time>2026-04-04T13:19:48Z</time></trkpt><trkpt lat="44.50206293298523" lon="8.080841855922682"><ele>832.0</ele><time>2026-04-04T13:19:49Z</time></trkpt><trkpt lat="44.5019412288024" lon="8.080768050983455"><ele>834.0</ele><time>2026-04-04T13:19:50Z</time></trkpt><trkpt lat="44.5018091444363" lon="8.080687951219899"><ele>836.0</ele><time>2026-04-04T13:19:51Z</time></trkpt><trkpt lat="44.501683517638476" lon="8.080611767516361"><ele>838.0</ele><time>2026-04-04T13:19:52Z</time></trkpt><trkpt lat="44.50156178915992" lon="8.080537947864544"><ele>840.0</ele><time>2026-04-04T13:19:53Z</time></trkpt><trkpt lat="44.50143265580841" lon="8.08046180745498"><ele>840.0</ele><time>2026-04-04T13:19:54Z</time></trkpt><trkpt lat="44.50129726580733" lon="8.08038998796975"><ele>840.0</ele><time>2026-04-04T13:19:55Z</time></trkpt><trkpt lat="44.501154315205234" lon="8.080330863684654"><ele>840.0</ele><time>2026-04-04T13:19:56Z</time></trkpt><trkpt lat="44.501006191231504" lon="8.080287034791914"><ele>840.0</ele><time>2026-04-04T13:19:57Z</time></trkpt><trkpt lat="44.500848513060234" lon="8.080250587519748"><ele>839.3333333333333</ele><time>2026-04-04T13:19:58Z</time></trkpt><trkpt lat="44.50069296923913" lon="8.080222169018922"><ele>838.6666666666666</ele><time>2026-04-04T13:19:59Z</time></trkpt><trkpt lat="44.500534264660004" lon="8.080196495752011"><ele>838.0</ele><time>2026-04-04T13:20:00Z</time></trkpt><trkpt lat="44.50037049674263" lon="8.08017094877495"><ele>833.6666666666666</ele><time>2026-04-04T13:20:01Z</time></trkpt><trkpt lat="44.50020093587509" lon="8.080144910870702"><ele>829.3333333333333</ele><time>2026-04-04T13:20:02Z</time></trkpt><trkpt lat="44.500033000889374" lon="8.080119224262582"><ele>825.0</ele><time>2026-04-04T13:20:03Z</time></trkpt><trkpt lat="44.49986608635549" lon="8.080093693738815"><ele>825.0</ele><time>2026-04-04T13:20:04Z</time></trkpt><trkpt lat="44.499701405485716" lon="8.080069266088792"><ele>825.0</ele><time>2026-04-04T13:20:05Z</time></trkpt><trkpt lat="44.499537536819325" lon="8.080046116235703"><ele>825.0</ele><time>2026-04-04T13:20:06Z</time></trkpt><trkpt lat="44.49936927441732" lon="8.080022345450274"><ele>820.3333333333333</ele><time>2026-04-04T13:20:07Z</time></trkpt><trkpt lat="44.49920201026289" lon="8.07999840264899"><ele>815.6666666666666</ele><time>2026-04-04T13:20:08Z</time></trkpt><trkpt lat="44.49903425150765" lon="8.079974456639944"><ele>811.0</ele><time>2026-04-04T13:20:09Z</time></trkpt><trkpt lat="44.4988669510799" lon="8.07994729999779"><ele>810.3333333333333</ele><time>2026-04-04T13:20:10Z</time></trkpt><trkpt lat="44.498694835598826" lon="8.079970128402872"><ele>809.6666666666667</ele><time>2026-04-04T13:20:11Z</time></trkpt><trkpt lat="44.498531237659435" lon="8.079938621325914"><ele>809.0</ele><time>2026-04-04T13:20:12Z</time></trkpt><trkpt lat="44.49837466438554" lon="8.07991331558123"><ele>809.0</ele><time>2026-04-04T13:20:13Z</time></trkpt><trkpt lat="44.49822666111574" lon="8.079892190991247"><ele>809.0</ele><time>2026-04-04T13:20:14Z</time></trkpt><trkpt lat="44.49808790217353" lon="8.079830702738963"><ele>809.0</ele><time>2026-04-04T13:20:15Z</time></trkpt><trkpt lat="44.4979471271351" lon="8.079811109494528"><ele>809.0</ele><time>2026-04-04T13:20:16Z</time></trkpt><trkpt lat="44.49780697265178" lon="8.079789518083754"><ele>809.0</ele><time>2026-04-04T13:20:17Z</time></trkpt><trkpt lat="44.49766699732109" lon="8.079758892728512"><ele>809.0</ele><time>2026-04-04T13:20:18Z</time></trkpt><trkpt lat="44.49752828797014" lon="8.079712360886138"><ele>809.0</ele><time>2026-04-04T13:20:19Z</time></trkpt><trkpt lat="44.49740069539268" lon="8.079629847345956"><ele>809.0</ele><time>2026-04-04T13:20:20Z</time></trkpt><trkpt lat="44.497280669776124" lon="8.079523538569441"><ele>809.0</ele><time>2026-04-04T13:20:21Z</time></trkpt><trkpt lat="44.497174184255485" lon="8.07938993088353"><ele>809.0</ele><time>2026-04-04T13:20:22Z</time></trkpt><trkpt lat="44.497084210585186" lon="8.079221467713301"><ele>809.0</ele><time>2026-04-04T13:20:23Z</time></trkpt><trkpt lat="44.497000074948815" lon="8.079040775091187"><ele>809.0</ele><time>2026-04-04T13:20:24Z</time></trkpt><trkpt lat="44.49691273163307" lon="8.078848503609754"><ele>809.3333333333334</ele><time>2026-04-04T13:20:25Z</time></trkpt><trkpt lat="44.4968217812042" lon="8.078653969152755"><ele>809.6666666666667</ele><time>2026-04-04T13:20:26Z</time></trkpt><trkpt lat="44.496729121874814" lon="8.078458788686403"><ele>810.0</ele><time>2026-04-04T13:20:27Z</time></trkpt><trkpt lat="44.49663933838644" lon="8.078269666120093"><ele>809.25</ele><time>2026-04-04T13:20:28Z</time></trkpt><trkpt lat="44.496552847795215" lon="8.078087479862353"><ele>808.5</ele><time>2026-04-04T13:20:28.999Z</time></trkpt><trkpt lat="44.49647515498518" lon="8.077911355015326"><ele>807.75</ele><time>2026-04-04T13:20:29.999Z</time></trkpt><trkpt lat="44.49640169643683" lon="8.077735931215587"><ele>807.0</ele><time>2026-04-04T13:20:30.999Z</time></trkpt><trkpt lat="44.49633960383019" lon="8.077553043813158"><ele>807.3333333333333</ele><time>2026-04-04T13:20:31.999Z</time></trkpt><trkpt lat="44.49629180246627" lon="8.077360570372132"><ele>807.6666666666666</ele><time>2026-04-04T13:20:32.999Z</time></trkpt><trkpt lat="44.49625879750645" lon="8.07715533867419"><ele>808.0</ele><time>2026-04-04T13:20:33.999Z</time></trkpt><trkpt lat="44.49623644545204" lon="8.076937855381209"><ele>812.6666666666666</ele><time>2026-04-04T13:20:34.999Z</time></trkpt><trkpt lat="44.49623027319118" lon="8.076718119203056"><ele>817.3333333333333</ele><time>2026-04-04T13:20:35.999Z</time></trkpt><trkpt lat="44.49622802815602" lon="8.076498996033026"><ele>822.0</ele><time>2026-04-04T13:20:36.999Z</time></trkpt><trkpt lat="44.49622592868345" lon="8.076294080293895"><ele>822.25</ele><time>2026-04-04T13:20:37.999Z</time></trkpt><trkpt lat="44.4962217814129" lon="8.076102350048513"><ele>822.5</ele><time>2026-04-04T13:20:38.999Z</time></trkpt><trkpt lat="44.496209356382444" lon="8.07590660389741"><ele>822.75</ele><time>2026-04-04T13:20:39.999Z</time></trkpt><trkpt lat="44.49618260813692" lon="8.075704600219183"><ele>823.0</ele><time>2026-04-04T13:20:40.999Z</time></trkpt><trkpt lat="44.496121891508956" lon="8.075499589334958"><ele>821.75</ele><time>2026-04-04T13:20:41.999Z</time></trkpt><trkpt lat="44.49606032609343" lon="8.075318393471708"><ele>820.5</ele><time>2026-04-04T13:20:42.999Z</time></trkpt><trkpt lat="44.496000661458616" lon="8.075145964727687"><ele>819.25</ele><time>2026-04-04T13:20:43.999Z</time></trkpt><trkpt lat="44.495942990275864" lon="8.074985141600344"><ele>818.0</ele><time>2026-04-04T13:20:44.999Z</time></trkpt><trkpt lat="44.495889229082046" lon="8.074834619286863"><ele>816.0</ele><time>2026-04-04T13:20:45.999Z</time></trkpt><trkpt lat="44.49583630384586" lon="8.074688825377667"><ele>814.0</ele><time>2026-04-04T13:20:46.999Z</time></trkpt><trkpt lat="44.49573978426345" lon="8.074593881387985"><ele>812.0</ele><time>2026-04-04T13:20:47.999Z</time></trkpt><trkpt lat="44.49567785236523" lon="8.074474083685045"><ele>810.0</ele><time>2026-04-04T13:20:48.999Z</time></trkpt><trkpt lat="44.49560963783021" lon="8.074374685896112"><ele>808.0</ele><time>2026-04-04T13:20:49.999Z</time></trkpt><trkpt lat="44.495519556474484" lon="8.074303317731768"><ele>806.75</ele><time>2026-04-04T13:20:50.999Z</time></trkpt><trkpt lat="44.4954162614775" lon="8.074245056986706"><ele>805.5</ele><time>2026-04-04T13:20:51.999Z</time></trkpt><trkpt lat="44.49530672965932" lon="8.074257424761248"><ele>804.25</ele><time>2026-04-04T13:20:52.999Z</time></trkpt><trkpt lat="44.495206087503725" lon="8.07433081807727"><ele>803.0</ele><time>2026-04-04T13:20:53.999Z</time></trkpt><trkpt lat="44.4951088276704" lon="8.07441924360323"><ele>803.0</ele><time>2026-04-04T13:20:54.999Z</time></trkpt><trkpt lat="44.49500237452246" lon="8.074521178849206"><ele>803.0</ele><time>2026-04-04T13:20:55.999Z</time></trkpt><trkpt lat="44.49491123911227" lon="8.074683510625773"><ele>803.0</ele><time>2026-04-04T13:20:56.999Z</time></trkpt><trkpt lat="44.49480345239525" lon="8.074839358569855"><ele>803.0</ele><time>2026-04-04T13:20:57.999Z</time></trkpt><trkpt lat="44.49470081909291" lon="8.07497788574474"><ele>802.25</ele><time>2026-04-04T13:20:58.999Z</time></trkpt><trkpt lat="44.49460160333056" lon="8.075109874718992"><ele>801.5</ele><time>2026-04-04T13:20:59.999Z</time></trkpt><trkpt lat="44.49449241044508" lon="8.075230022602216"><ele>800.75</ele><time>2026-04-04T13:21:00.999Z</time></trkpt><trkpt lat="44.4943578589648" lon="8.075292916406529"><ele>800.0</ele><time>2026-04-04T13:21:01.999Z</time></trkpt><trkpt lat="44.49422091635262" lon="8.07535620752801"><ele>800.0</ele><time>2026-04-04T13:21:02.999Z</time></trkpt><trkpt lat="44.494084690999934" lon="8.075436466945094"><ele>800.0</ele><time>2026-04-04T13:21:03.999Z</time></trkpt><trkpt lat="44.4939388534386" lon="8.07549059565778"><ele>800.0</ele><time>2026-04-04T13:21:04.999Z</time></trkpt><trkpt lat="44.493813663875464" lon="8.07554787030143"><ele>800.0</ele><time>2026-04-04T13:21:05.999Z</time></trkpt><trkpt lat="44.49367812153669" lon="8.075636708058106"><ele>800.6666666666667</ele><time>2026-04-04T13:21:06.999Z</time></trkpt><trkpt lat="44.49354588032339" lon="8.075748623009368"><ele>801.3333333333333</ele><time>2026-04-04T13:21:07.999Z</time></trkpt><trkpt lat="44.49341773506577" lon="8.075887520288976"><ele>802.0</ele><time>2026-04-04T13:21:08.999Z</time></trkpt><trkpt lat="44.49329963472637" lon="8.076035307392683"><ele>802.0</ele><time>2026-04-04T13:21:09.999Z</time></trkpt><trkpt lat="44.49317853574531" lon="8.07618555728702"><ele>802.0</ele><time>2026-04-04T13:21:10.999Z</time></trkpt><trkpt lat="44.493048377425794" lon="8.076343733822613"><ele>802.0</ele><time>2026-04-04T13:21:11.999Z</time></trkpt><trkpt lat="44.492921533284274" lon="8.076495578962938"><ele>800.25</ele><time>2026-04-04T13:21:12.999Z</time></trkpt><trkpt lat="44.49280701004499" lon="8.076640612344487"><ele>798.5</ele><time>2026-04-04T13:21:13.999Z</time></trkpt><trkpt lat="44.49269585890857" lon="8.076786898844968"><ele>796.75</ele><time>2026-04-04T13:21:14.999Z</time></trkpt><trkpt lat="44.49260439967516" lon="8.076934114744915"><ele>795.0</ele><time>2026-04-04T13:21:15.999Z</time></trkpt><trkpt lat="44.49252584882226" lon="8.07708746126042"><ele>795.0</ele><time>2026-04-04T13:21:16.999Z</time></trkpt><trkpt lat="44.492458702436515" lon="8.077240120891142"><ele>795.0</ele><time>2026-04-04T13:21:17.999Z</time></trkpt><trkpt lat="44.492388385832164" lon="8.077400984081324"><ele>795.0</ele><time>2026-04-04T13:21:18.999Z</time></trkpt><trkpt lat="44.492299284132514" lon="8.077544633127584"><ele>795.0</ele><time>2026-04-04T13:21:19.999Z</time></trkpt><trkpt lat="44.4921885602604" lon="8.077649118958243"><ele>795.25</ele><time>2026-04-04T13:21:20.999Z</time></trkpt><trkpt lat="44.492065980004845" lon="8.07772830049614"><ele>795.5</ele><time>2026-04-04T13:21:21.999Z</time></trkpt><trkpt lat="44.49193510033601" lon="8.077786635983623"><ele>795.75</ele><time>2026-04-04T13:21:22.999Z</time></trkpt><trkpt lat="44.49178766137611" lon="8.07787080401357"><ele>796.0</ele><time>2026-04-04T13:21:23.999Z</time></trkpt><trkpt lat="44.49165809512402" lon="8.077905833689238"><ele>796.0</ele><time>2026-04-04T13:21:24.999Z</time></trkpt><trkpt lat="44.491530382296716" lon="8.077949116969846"><ele>796.0</ele><time>2026-04-04T13:21:25.999Z</time></trkpt><trkpt lat="44.49141343288422" lon="8.078002906287757"><ele>796.0</ele><time>2026-04-04T13:21:26.998Z</time></trkpt><trkpt lat="44.49130745418642" lon="8.078072331796871"><ele>796.0</ele><time>2026-04-04T13:21:27.998Z</time></trkpt><trkpt lat="44.4912106172307" lon="8.078180929866383"><ele>798.0</ele><time>2026-04-04T13:21:28.998Z</time></trkpt><trkpt lat="44.49112888366629" lon="8.078289620899023"><ele>800.0</ele><time>2026-04-04T13:21:29.998Z</time></trkpt><trkpt lat="44.491063612116776" lon="8.078445118485162"><ele>802.0</ele><time>2026-04-04T13:21:30.998Z</time></trkpt><trkpt lat="44.49101981812093" lon="8.07862516887515"><ele>804.0</ele><time>2026-04-04T13:21:31.998Z</time></trkpt><trkpt lat="44.49098305731454" lon="8.078820193724779"><ele>804.0</ele><time>2026-04-04T13:21:32.998Z</time></trkpt><trkpt lat="44.49094230097527" lon="8.079038703070902"><ele>804.0</ele><time>2026-04-04T13:21:33.998Z</time></trkpt><trkpt lat="44.49092391407762" lon="8.079243918488611"><ele>804.0</ele><time>2026-04-04T13:21:34.998Z</time></trkpt><trkpt lat="44.490884809315766" lon="8.07942426236797"><ele>804.0</ele><time>2026-04-04T13:21:35.998Z</time></trkpt><trkpt lat="44.490821273617556" lon="8.079594907705271"><ele>804.0</ele><time>2026-04-04T13:21:36.998Z</time></trkpt><trkpt lat="44.49073290512426" lon="8.079748459319854"><ele>804.0</ele><time>2026-04-04T13:21:37.998Z</time></trkpt><trkpt lat="44.49062294540747" lon="8.079876356176472"><ele>804.0</ele><time>2026-04-04T13:21:38.998Z</time></trkpt><trkpt lat="44.49050094573795" lon="8.079980624685371"><ele>804.0</ele><time>2026-04-04T13:21:39.998Z</time></trkpt><trkpt lat="44.49038749188932" lon="8.080058400031463"><ele>802.2</ele><time>2026-04-04T13:21:40.998Z</time></trkpt><trkpt lat="44.49029212125694" lon="8.080141723404097"><ele>800.4000000000001</ele><time>2026-04-04T13:21:41.998Z</time></trkpt><trkpt lat="44.49021969980237" lon="8.080241435359394"><ele>798.6</ele><time>2026-04-04T13:21:42.998Z</time></trkpt><trkpt lat="44.49017218086361" lon="8.080367855910225"><ele>796.8</ele><time>2026-04-04T13:21:43.998Z</time></trkpt><trkpt lat="44.49013901273293" lon="8.080520306744106"><ele>795.0</ele><time>2026-04-04T13:21:44.998Z</time></trkpt><trkpt lat="44.49015860635611" lon="8.08067814225031"><ele>795.25</ele><time>2026-04-04T13:21:45.998Z</time></trkpt><trkpt lat="44.49018093559165" lon="8.080839528481198"><ele>795.5</ele><time>2026-04-04T13:21:46.998Z</time></trkpt><trkpt lat="44.49022092286564" lon="8.081011054737429"><ele>795.75</ele><time>2026-04-04T13:21:47.998Z</time></trkpt><trkpt lat="44.490276679001965" lon="8.081192781847191"><ele>796.0</ele><time>2026-04-04T13:21:48.998Z</time></trkpt><trkpt lat="44.490335029624454" lon="8.081374090772547"><ele>796.0</ele><time>2026-04-04T13:21:49.998Z</time></trkpt><trkpt lat="44.490413354257086" lon="8.081556370039214"><ele>796.0</ele><time>2026-04-04T13:21:50.998Z</time></trkpt><trkpt lat="44.49049740189799" lon="8.081727225267633"><ele>796.0</ele><time>2026-04-04T13:21:51.998Z</time></trkpt><trkpt lat="44.49057167434775" lon="8.081890655134595"><ele>796.0</ele><time>2026-04-04T13:21:53Z</time></trkpt><trkpt lat="44.490641276719316" lon="8.08203780281314"><ele>800.0</ele><time>2026-04-04T13:21:54Z</time></trkpt><trkpt lat="44.49070987849439" lon="8.0821780073916"><ele>804.0</ele><time>2026-04-04T13:21:55Z</time></trkpt><trkpt lat="44.490730737042014" lon="8.082328082500897"><ele>808.0</ele><time>2026-04-04T13:21:56Z</time></trkpt><trkpt lat="44.490745872792424" lon="8.082470305666353"><ele>812.0</ele><time>2026-04-04T13:21:57Z</time></trkpt><trkpt lat="44.49073597532961" lon="8.082612148277375"><ele>816.0</ele><time>2026-04-04T13:21:58Z</time></trkpt><trkpt lat="44.49068454062782" lon="8.082760542481825"><ele>816.0</ele><time>2026-04-04T13:21:59Z</time></trkpt><trkpt lat="44.490607936893284" lon="8.082878439147507"><ele>816.0</ele><time>2026-04-04T13:22:00Z</time></trkpt><trkpt lat="44.490512518600205" lon="8.082966726833858"><ele>816.0</ele><time>2026-04-04T13:22:01Z</time></trkpt><trkpt lat="44.49040079537758" lon="8.083015789435075"><ele>816.0</ele><time>2026-04-04T13:22:02Z</time></trkpt><trkpt lat="44.49028027640472" lon="8.0830272904148"><ele>811.75</ele><time>2026-04-04T13:22:03Z</time></trkpt><trkpt lat="44.490157502332714" lon="8.083001357807289"><ele>807.5</ele><time>2026-04-04T13:22:04Z</time></trkpt><trkpt lat="44.49003235244138" lon="8.082946307967358"><ele>803.25</ele><time>2026-04-04T13:22:05Z</time></trkpt><trkpt lat="44.48990259300796" lon="8.082889752821213"><ele>799.0</ele><time>2026-04-04T13:22:06Z</time></trkpt><trkpt lat="44.48976878389387" lon="8.082837460668891"><ele>799.0</ele><time>2026-04-04T13:22:07Z</time></trkpt><trkpt lat="44.48962856346154" lon="8.082799624180364"><ele>799.0</ele><time>2026-04-04T13:22:08Z</time></trkpt><trkpt lat="44.489518194219336" lon="8.082772772938542"><ele>799.0</ele><time>2026-04-04T13:22:09Z</time></trkpt><trkpt lat="44.48941434708726" lon="8.082732565416933"><ele>799.0</ele><time>2026-04-04T13:22:10Z</time></trkpt><trkpt lat="44.489240686857976" lon="8.082662144777778"><ele>799.25</ele><time>2026-04-04T13:22:11Z</time></trkpt><trkpt lat="44.489104451849556" lon="8.08263567297301"><ele>799.5</ele><time>2026-04-04T13:22:12Z</time></trkpt><trkpt lat="44.48897348764896" lon="8.082572650853436"><ele>799.75</ele><time>2026-04-04T13:22:13Z</time></trkpt><trkpt lat="44.48885295844358" lon="8.082560365064719"><ele>800.0</ele><time>2026-04-04T13:22:14Z</time></trkpt><trkpt lat="44.48874293517615" lon="8.082533159458887"><ele>798.8</ele><time>2026-04-04T13:22:15Z</time></trkpt><trkpt lat="44.48863901985585" lon="8.082539396370704"><ele>797.6</ele><time>2026-04-04T13:22:16Z</time></trkpt><trkpt lat="44.48853729027971" lon="8.08257915730022"><ele>796.4000000000001</ele><time>2026-04-04T13:22:17Z</time></trkpt><trkpt lat="44.48844027653742" lon="8.08265265249958"><ele>795.2</ele><time>2026-04-04T13:22:18Z</time></trkpt><trkpt lat="44.488366536098255" lon="8.08277165915257"><ele>794.0</ele><time>2026-04-04T13:22:19Z</time></trkpt><trkpt lat="44.48829962764738" lon="8.08290357499496"><ele>794.0</ele><time>2026-04-04T13:22:20Z</time></trkpt><trkpt lat="44.48822749794635" lon="8.083048097855448"><ele>794.0</ele><time>2026-04-04T13:22:21Z</time></trkpt><trkpt lat="44.48818120859241" lon="8.083237472445797"><ele>794.0</ele><time>2026-04-04T13:22:22Z</time></trkpt><trkpt lat="44.488125599444395" lon="8.083428132728441"><ele>794.0</ele><time>2026-04-04T13:22:23Z</time></trkpt><trkpt lat="44.488064731184785" lon="8.08361516020437"><ele>794.25</ele><time>2026-04-04T13:22:24Z</time></trkpt><trkpt lat="44.48799632283744" lon="8.083810883752554"><ele>794.5</ele><time>2026-04-04T13:22:25Z</time></trkpt><trkpt lat="44.48792720495167" lon="8.083999380340945"><ele>794.75</ele><time>2026-04-04T13:22:26Z</time></trkpt><trkpt lat="44.48784685337108" lon="8.084159265103802"><ele>795.0</ele><time>2026-04-04T13:22:27Z</time></trkpt><trkpt lat="44.48776102822157" lon="8.08432007856688"><ele>795.0</ele><time>2026-04-04T13:22:28Z</time></trkpt><trkpt lat="44.48766591347059" lon="8.084479694637869"><ele>795.0</ele><time>2026-04-04T13:22:29Z</time></trkpt><trkpt lat="44.487558743821815" lon="8.084622312359635"><ele>795.0</ele><time>2026-04-04T13:22:30Z</time></trkpt><trkpt lat="44.487440734528434" lon="8.084764747378316"><ele>795.0</ele><time>2026-04-04T13:22:30.999Z</time></trkpt><trkpt lat="44.487316059541136" lon="8.084883037829535"><ele>795.0</ele><time>2026-04-04T13:22:31.999Z</time></trkpt><trkpt lat="44.487178505298424" lon="8.084980586888664"><ele>795.0</ele><time>2026-04-04T13:22:32.999Z</time></trkpt><trkpt lat="44.4870385743943" lon="8.085054498950685"><ele>795.6666666666667</ele><time>2026-04-04T13:22:33.999Z</time></trkpt><trkpt lat="44.48689233826659" lon="8.085112053019003"><ele>796.3333333333334</ele><time>2026-04-04T13:22:34.999Z</time></trkpt><trkpt lat="44.48672218466364" lon="8.085159011168127"><ele>797.0</ele><time>2026-04-04T13:22:35.999Z</time></trkpt><trkpt lat="44.48656606803862" lon="8.085184151073713"><ele>797.0</ele><time>2026-04-04T13:22:36.999Z</time></trkpt><trkpt lat="44.48640684426309" lon="8.085186513864402"><ele>797.0</ele><time>2026-04-04T13:22:37.999Z</time></trkpt><trkpt lat="44.486244988962525" lon="8.08516467649727"><ele>797.0</ele><time>2026-04-04T13:22:38.999Z</time></trkpt><trkpt lat="44.486086295692786" lon="8.085118474092496"><ele>797.0</ele><time>2026-04-04T13:22:39.999Z</time></trkpt><trkpt lat="44.485935277048966" lon="8.08504153385949"><ele>797.0</ele><time>2026-04-04T13:22:40.999Z</time></trkpt><trkpt lat="44.48578344404969" lon="8.084958316904903"><ele>797.0</ele><time>2026-04-04T13:22:41.999Z</time></trkpt><trkpt lat="44.48563055718501" lon="8.084895039760218"><ele>797.25</ele><time>2026-04-04T13:22:42.999Z</time></trkpt><trkpt lat="44.48548882714261" lon="8.084817264112676"><ele>797.5</ele><time>2026-04-04T13:22:43.999Z</time></trkpt><trkpt lat="44.48536267167375" lon="8.084755756912335"><ele>797.75</ele><time>2026-04-04T13:22:44.999Z</time></trkpt><trkpt lat="44.485238353348144" lon="8.08468874914255"><ele>798.0</ele><time>2026-04-04T13:22:45.999Z</time></trkpt><trkpt lat="44.48512158323819" lon="8.084626119008098"><ele>798.0</ele><time>2026-04-04T13:22:46.999Z</time></trkpt><trkpt lat="44.48500697295392" lon="8.084562360855953"><ele>798.0</ele><time>2026-04-04T13:22:47.999Z</time></trkpt><trkpt lat="44.484888749729436" lon="8.084491485791608"><ele>798.0</ele><time>2026-04-04T13:22:48.999Z</time></trkpt><trkpt lat="44.484765825789566" lon="8.084420477747114"><ele>798.0</ele><time>2026-04-04T13:22:49.999Z</time></trkpt><trkpt lat="44.48463688055798" lon="8.084363181903505"><ele>797.75</ele><time>2026-04-04T13:22:50.999Z</time></trkpt><trkpt lat="44.4845101413211" lon="8.084317239439143"><ele>797.5</ele><time>2026-04-04T13:22:51.999Z</time></trkpt><trkpt lat="44.48438366113426" lon="8.084275766383318"><ele>797.25</ele><time>2026-04-04T13:22:52.999Z</time></trkpt><trkpt lat="44.48425284174624" lon="8.084264515334533"><ele>797.0</ele><time>2026-04-04T13:22:53.999Z</time></trkpt><trkpt lat="44.48412140121311" lon="8.084241820173066"><ele>797.0</ele><time>2026-04-04T13:22:54.999Z</time></trkpt><trkpt lat="44.483989770439265" lon="8.08421699602404"><ele>797.0</ele><time>2026-04-04T13:22:55.999Z</time></trkpt><trkpt lat="44.48385427813337" lon="8.084200213292768"><ele>797.0</ele><time>2026-04-04T13:22:56.999Z</time></trkpt><trkpt lat="44.48372014363237" lon="8.084181687433873"><ele>797.0</ele><time>2026-04-04T13:22:57.999Z</time></trkpt><trkpt lat="44.483579340719004" lon="8.084149307836265"><ele>797.25</ele><time>2026-04-04T13:22:58.999Z</time></trkpt><trkpt lat="44.48343578477008" lon="8.084124117651909"><ele>797.5</ele><time>2026-04-04T13:22:59.999Z</time></trkpt><trkpt lat="44.48329271463862" lon="8.084104388623498"><ele>797.75</ele><time>2026-04-04T13:23:00.999Z</time></trkpt><trkpt lat="44.48315065715807" lon="8.084082283111682"><ele>798.0</ele><time>2026-04-04T13:23:01.999Z</time></trkpt><trkpt lat="44.48300308730874" lon="8.084077650606375"><ele>800.0</ele><time>2026-04-04T13:23:02.999Z</time></trkpt><trkpt lat="44.48286010694707" lon="8.084103501706842"><ele>802.0</ele><time>2026-04-04T13:23:03.999Z</time></trkpt><trkpt lat="44.482721405498786" lon="8.08415506570037"><ele>804.0</ele><time>2026-04-04T13:23:04.999Z</time></trkpt><trkpt lat="44.48258221629456" lon="8.084224363982932"><ele>806.0</ele><time>2026-04-04T13:23:05.999Z</time></trkpt><trkpt lat="44.48245142953798" lon="8.08431596917943"><ele>806.0</ele><time>2026-04-04T13:23:06.999Z</time></trkpt><trkpt lat="44.48232823713504" lon="8.084402504187437"><ele>806.0</ele><time>2026-04-04T13:23:07.999Z</time></trkpt><trkpt lat="44.482210501326435" lon="8.084473465233117"><ele>806.0</ele><time>2026-04-04T13:23:08.999Z</time></trkpt><trkpt lat="44.482106611446696" lon="8.084550995507028"><ele>806.0</ele><time>2026-04-04T13:23:09.999Z</time></trkpt><trkpt lat="44.48198595277714" lon="8.08461469193363"><ele>809.5</ele><time>2026-04-04T13:23:10.999Z</time></trkpt><trkpt lat="44.48186305973059" lon="8.08465397100379"><ele>813.0</ele><time>2026-04-04T13:23:11.999Z</time></trkpt><trkpt lat="44.48173514199269" lon="8.084662356432679"><ele>816.5</ele><time>2026-04-04T13:23:12.999Z</time></trkpt><trkpt lat="44.481607333437125" lon="8.084627238396784"><ele>820.0</ele><time>2026-04-04T13:23:13.999Z</time></trkpt><trkpt lat="44.481476584559935" lon="8.084581647959718"><ele>820.0</ele><time>2026-04-04T13:23:14.999Z</time></trkpt><trkpt lat="44.481343338268715" lon="8.084537487625905"><ele>820.0</ele><time>2026-04-04T13:23:15.999Z</time></trkpt><trkpt lat="44.48120457367146" lon="8.084536395141738"><ele>820.0</ele><time>2026-04-04T13:23:16.999Z</time></trkpt><trkpt lat="44.48106145939095" lon="8.084551006142844"><ele>820.0</ele><time>2026-04-04T13:23:17.999Z</time></trkpt><trkpt lat="44.48092199368353" lon="8.084606832773563"><ele>822.75</ele><time>2026-04-04T13:23:18.999Z</time></trkpt><trkpt lat="44.48078839836504" lon="8.084680959901952"><ele>825.5</ele><time>2026-04-04T13:23:19.999Z</time></trkpt><trkpt lat="44.480645156075596" lon="8.084732924493984"><ele>828.25</ele><time>2026-04-04T13:23:20.999Z</time></trkpt><trkpt lat="44.48050764144992" lon="8.084810225604048"><ele>831.0</ele><time>2026-04-04T13:23:21.999Z</time></trkpt><trkpt lat="44.48036558911415" lon="8.084885638125781"><ele>830.0</ele><time>2026-04-04T13:23:22.999Z</time></trkpt><trkpt lat="44.480219848798676" lon="8.08495103231046"><ele>829.0</ele><time>2026-04-04T13:23:23.999Z</time></trkpt><trkpt lat="44.48006338833229" lon="8.085015274841533"><ele>828.0</ele><time>2026-04-04T13:23:24.999Z</time></trkpt><trkpt lat="44.47991098296436" lon="8.085076079026631"><ele>828.0</ele><time>2026-04-04T13:23:25.999Z</time></trkpt><trkpt lat="44.479754897875054" lon="8.085135801878911"><ele>828.0</ele><time>2026-04-04T13:23:26.999Z</time></trkpt><trkpt lat="44.47959942517129" lon="8.085187213771592"><ele>828.0</ele><time>2026-04-04T13:23:27.999Z</time></trkpt><trkpt lat="44.47944003069705" lon="8.085235678766471"><ele>827.6666666666667</ele><time>2026-04-04T13:23:28.999Z</time></trkpt><trkpt lat="44.47928090154845" lon="8.08528003210981"><ele>827.3333333333334</ele><time>2026-04-04T13:23:29.999Z</time></trkpt><trkpt lat="44.47911918873495" lon="8.08531813339415"><ele>827.0</ele><time>2026-04-04T13:23:30.998Z</time></trkpt><trkpt lat="44.478964566782594" lon="8.085370410560763"><ele>827.0</ele><time>2026-04-04T13:23:31.998Z</time></trkpt><trkpt lat="44.478811772254836" lon="8.085383115427335"><ele>827.0</ele><time>2026-04-04T13:23:32.998Z</time></trkpt><trkpt lat="44.4786608812207" lon="8.085415091582455"><ele>827.0</ele><time>2026-04-04T13:23:33.998Z</time></trkpt><trkpt lat="44.47850942488419" lon="8.08544889097825"><ele>825.0</ele><time>2026-04-04T13:23:34.998Z</time></trkpt><trkpt lat="44.478364360346326" lon="8.085499736440514"><ele>823.0</ele><time>2026-04-04T13:23:35.998Z</time></trkpt><trkpt lat="44.47820984014968" lon="8.085526199199938"><ele>821.0</ele><time>2026-04-04T13:23:36.998Z</time></trkpt><trkpt lat="44.47805632551477" lon="8.085518759952913"><ele>821.6666666666667</ele><time>2026-04-04T13:23:37.998Z</time></trkpt><trkpt lat="44.47789794999375" lon="8.085543387005044"><ele>822.3333333333333</ele><time>2026-04-04T13:23:38.998Z</time></trkpt><trkpt lat="44.47773900858507" lon="8.085540462459996"><ele>823.0</ele><time>2026-04-04T13:23:39.998Z</time></trkpt><trkpt lat="44.47757930169709" lon="8.085509754136773"><ele>823.0</ele><time>2026-04-04T13:23:40.998Z</time></trkpt><trkpt lat="44.47742812601875" lon="8.085497666670882"><ele>823.0</ele><time>2026-04-04T13:23:41.998Z</time></trkpt><trkpt lat="44.477271418010915" lon="8.085481609566914"><ele>823.0</ele><time>2026-04-04T13:23:42.998Z</time></trkpt><trkpt lat="44.47711218901672" lon="8.08548248325704"><ele>824.0</ele><time>2026-04-04T13:23:43.998Z</time></trkpt><trkpt lat="44.47694977542054" lon="8.085457056396615"><ele>825.0</ele><time>2026-04-04T13:23:44.998Z</time></trkpt><trkpt lat="44.4767905388582" lon="8.08540452327991"><ele>826.0</ele><time>2026-04-04T13:23:45.998Z</time></trkpt><trkpt lat="44.476628341966745" lon="8.085363903481799"><ele>826.0</ele><time>2026-04-04T13:23:46.998Z</time></trkpt><trkpt lat="44.47646791491522" lon="8.085305010425829"><ele>826.0</ele><time>2026-04-04T13:23:47.998Z</time></trkpt><trkpt lat="44.47629831415138" lon="8.085231895334253"><ele>826.0</ele><time>2026-04-04T13:23:48.998Z</time></trkpt><trkpt lat="44.476121869516525" lon="8.085155547259735"><ele>826.0</ele><time>2026-04-04T13:23:49.998Z</time></trkpt><trkpt lat="44.47594008271805" lon="8.08508703801881"><ele>826.0</ele><time>2026-04-04T13:23:50.998Z</time></trkpt><trkpt lat="44.47575753720435" lon="8.085029217960031"><ele>826.0</ele><time>2026-04-04T13:23:51.998Z</time></trkpt><trkpt lat="44.47557295789055" lon="8.084977087091762"><ele>826.0</ele><time>2026-04-04T13:23:52.998Z</time></trkpt><trkpt lat="44.475387132084926" lon="8.084928292486318"><ele>826.0</ele><time>2026-04-04T13:23:53.998Z</time></trkpt><trkpt lat="44.475199286708346" lon="8.084882140248993"><ele>826.0</ele><time>2026-04-04T13:23:54.998Z</time></trkpt><trkpt lat="44.475012448244975" lon="8.08483648198949"><ele>826.0</ele><time>2026-04-04T13:23:55.998Z</time></trkpt><trkpt lat="44.474828556410536" lon="8.084789779553562"><ele>826.0</ele><time>2026-04-04T13:23:56.998Z</time></trkpt><trkpt lat="44.474642811311746" lon="8.084742279438633"><ele>826.0</ele><time>2026-04-04T13:23:57.998Z</time></trkpt><trkpt lat="44.47446089013039" lon="8.084695757169264"><ele>825.0</ele><time>2026-04-04T13:23:59Z</time></trkpt><trkpt lat="44.47428328154704" lon="8.084650337780563"><ele>824.0</ele><time>2026-04-04T13:24:00Z</time></trkpt><trkpt lat="44.47410701185249" lon="8.08460545700213"><ele>823.0</ele><time>2026-04-04T13:24:01Z</time></trkpt><trkpt lat="44.47393494932497" lon="8.084562236300485"><ele>823.0</ele><time>2026-04-04T13:24:02Z</time></trkpt><trkpt lat="44.47377240717066" lon="8.084522562143189"><ele>823.0</ele><time>2026-04-04T13:24:03Z</time></trkpt><trkpt lat="44.473595682200425" lon="8.084480113026663"><ele>823.0</ele><time>2026-04-04T13:24:04Z</time></trkpt><trkpt lat="44.4734298270902" lon="8.084440274711277"><ele>822.6666666666666</ele><time>2026-04-04T13:24:05Z</time></trkpt><trkpt lat="44.47326279297738" lon="8.084399061141328"><ele>822.3333333333333</ele><time>2026-04-04T13:24:06Z</time></trkpt><trkpt lat="44.47309141064774" lon="8.084356228764896"><ele>822.0</ele><time>2026-04-04T13:24:07Z</time></trkpt><trkpt lat="44.47291865014282" lon="8.084312714664607"><ele>824.6666666666667</ele><time>2026-04-04T13:24:08Z</time></trkpt><trkpt lat="44.47274537038935" lon="8.084268636598567"><ele>827.3333333333334</ele><time>2026-04-04T13:24:09Z</time></trkpt><trkpt lat="44.47257322402872" lon="8.084224846837238"><ele>830.0</ele><time>2026-04-04T13:24:10Z</time></trkpt><trkpt lat="44.47239195534143" lon="8.084178736583285"><ele>830.0</ele><time>2026-04-04T13:24:11Z</time></trkpt><trkpt lat="44.47221732125873" lon="8.084134314009772"><ele>830.0</ele><time>2026-04-04T13:24:12Z</time></trkpt><trkpt lat="44.47204067139806" lon="8.084089378674989"><ele>830.0</ele><time>2026-04-04T13:24:13Z</time></trkpt><trkpt lat="44.47186373909531" lon="8.084044371489059"><ele>827.6666666666667</ele><time>2026-04-04T13:24:14Z</time></trkpt><trkpt lat="44.471685891189395" lon="8.083999131397865"><ele>825.3333333333333</ele><time>2026-04-04T13:24:15Z</time></trkpt><trkpt lat="44.471509878194226" lon="8.083954358061133"><ele>823.0</ele><time>2026-04-04T13:24:16Z</time></trkpt><trkpt lat="44.471330170680915" lon="8.083908644935187"><ele>826.6666666666666</ele><time>2026-04-04T13:24:17Z</time></trkpt><trkpt lat="44.47115262714601" lon="8.0838639083911"><ele>830.3333333333333</ele><time>2026-04-04T13:24:18Z</time></trkpt><trkpt lat="44.47097445747881" lon="8.083820546095161"><ele>834.0</ele><time>2026-04-04T13:24:19Z</time></trkpt><trkpt lat="44.470803436311954" lon="8.083779058099102"><ele>834.0</ele><time>2026-04-04T13:24:20Z</time></trkpt><trkpt lat="44.47063164455929" lon="8.083736826741413"><ele>834.0</ele><time>2026-04-04T13:24:21Z</time></trkpt><trkpt lat="44.470460089702435" lon="8.083691919160383"><ele>834.0</ele><time>2026-04-04T13:24:22Z</time></trkpt><trkpt lat="44.470292731532" lon="8.083645814115018"><ele>838.3333333333333</ele><time>2026-04-04T13:24:23Z</time></trkpt><trkpt lat="44.47012923406572" lon="8.083598803997647"><ele>842.6666666666666</ele><time>2026-04-04T13:24:24Z</time></trkpt><trkpt lat="44.46996811112937" lon="8.083539193076394"><ele>847.0</ele><time>2026-04-04T13:24:25Z</time></trkpt><trkpt lat="44.469811408899496" lon="8.08346448912192"><ele>847.0</ele><time>2026-04-04T13:24:26Z</time></trkpt><trkpt lat="44.469659809022744" lon="8.083381589022894"><ele>847.0</ele><time>2026-04-04T13:24:27Z</time></trkpt><trkpt lat="44.469512630195794" lon="8.083295813938115"><ele>847.0</ele><time>2026-04-04T13:24:28Z</time></trkpt><trkpt lat="44.469363358828396" lon="8.08320578948654"><ele>847.75</ele><time>2026-04-04T13:24:29Z</time></trkpt><trkpt lat="44.46921452429859" lon="8.083114777691057"><ele>848.5</ele><time>2026-04-04T13:24:30Z</time></trkpt><trkpt lat="44.4690788158751" lon="8.083031792463588"><ele>849.25</ele><time>2026-04-04T13:24:31Z</time></trkpt><trkpt lat="44.46894381931125" lon="8.0830107882912"><ele>850.0</ele><time>2026-04-04T13:24:32Z</time></trkpt><trkpt lat="44.46882644683857" lon="8.082930825890715"><ele>852.5</ele><time>2026-04-04T13:24:33Z</time></trkpt><trkpt lat="44.46869971402658" lon="8.082856421291902"><ele>855.0</ele><time>2026-04-04T13:24:34Z</time></trkpt><trkpt lat="44.46857708530104" lon="8.082798958931802"><ele>857.5</ele><time>2026-04-04T13:24:35Z</time></trkpt><trkpt lat="44.468460066961775" lon="8.082747426876454"><ele>860.0</ele><time>2026-04-04T13:24:36Z</time></trkpt><trkpt lat="44.46833846544361" lon="8.082723770964721"><ele>860.0</ele><time>2026-04-04T13:24:37Z</time></trkpt><trkpt lat="44.46822475480308" lon="8.082678312268355"><ele>860.0</ele><time>2026-04-04T13:24:38Z</time></trkpt><trkpt lat="44.46811944583203" lon="8.082712120574547"><ele>860.0</ele><time>2026-04-04T13:24:39Z</time></trkpt><trkpt lat="44.46802785901225" lon="8.082745555398908"><ele>860.0</ele><time>2026-04-04T13:24:39.999Z</time></trkpt><trkpt lat="44.46793208608306" lon="8.082797791034931"><ele>860.0</ele><time>2026-04-04T13:24:40.999Z</time></trkpt><trkpt lat="44.4678377577952" lon="8.082862696681131"><ele>861.0</ele><time>2026-04-04T13:24:41.999Z</time></trkpt><trkpt lat="44.46773464798951" lon="8.082952439538431"><ele>862.0</ele><time>2026-04-04T13:24:42.999Z</time></trkpt><trkpt lat="44.46765914192565" lon="8.08306598563053"><ele>863.0</ele><time>2026-04-04T13:24:43.999Z</time></trkpt><trkpt lat="44.467579822492354" lon="8.083160132505643"><ele>864.0</ele><time>2026-04-04T13:24:44.999Z</time></trkpt><trkpt lat="44.46750465807996" lon="8.083279396210772"><ele>864.0</ele><time>2026-04-04T13:24:45.999Z</time></trkpt><trkpt lat="44.46744489680388" lon="8.083410738416799"><ele>864.0000000000001</ele><time>2026-04-04T13:24:46.999Z</time></trkpt><trkpt lat="44.46739271401599" lon="8.083533671225572"><ele>864.0000000000001</ele><time>2026-04-04T13:24:47.999Z</time></trkpt><trkpt lat="44.46735356455928" lon="8.083648936427029"><ele>864.0</ele><time>2026-04-04T13:24:48.999Z</time></trkpt><trkpt lat="44.467325455952604" lon="8.083762820136272"><ele>864.0</ele><time>2026-04-04T13:24:49.999Z</time></trkpt><trkpt lat="44.467310430837614" lon="8.08389273076753"><ele>864.0</ele><time>2026-04-04T13:24:50.999Z</time></trkpt><trkpt lat="44.467323581198094" lon="8.08402342892537"><ele>864.0000000000001</ele><time>2026-04-04T13:24:51.999Z</time></trkpt><trkpt lat="44.46734593842068" lon="8.084154546720226"><ele>864.0000000000001</ele><time>2026-04-04T13:24:52.999Z</time></trkpt><trkpt lat="44.46737308876467" lon="8.084301673288639"><ele>864.0</ele><time>2026-04-04T13:24:53.999Z</time></trkpt><trkpt lat="44.46739730909544" lon="8.084454476806581"><ele>864.0</ele><time>2026-04-04T13:24:54.999Z</time></trkpt><trkpt lat="44.46741544237125" lon="8.08461901032123"><ele>865.0</ele><time>2026-04-04T13:24:55.999Z</time></trkpt><trkpt lat="44.46742856543319" lon="8.084793918741175"><ele>866.0</ele><time>2026-04-04T13:24:56.999Z</time></trkpt><trkpt lat="44.467429993192724" lon="8.084953332011969"><ele>867.0</ele><time>2026-04-04T13:24:57.999Z</time></trkpt><trkpt lat="44.46743297340389" lon="8.085113629353481"><ele>868.0</ele><time>2026-04-04T13:24:58.999Z</time></trkpt><trkpt lat="44.46742969140305" lon="8.085265982704195"><ele>868.0</ele><time>2026-04-04T13:24:59.999Z</time></trkpt><trkpt lat="44.467408493642694" lon="8.085424267992186"><ele>868.0</ele><time>2026-04-04T13:25:00.999Z</time></trkpt><trkpt lat="44.467381923731494" lon="8.085583786681491"><ele>868.0</ele><time>2026-04-04T13:25:01.999Z</time></trkpt><trkpt lat="44.467345094034734" lon="8.085737329908893"><ele>868.0</ele><time>2026-04-04T13:25:02.999Z</time></trkpt><trkpt lat="44.467309433116114" lon="8.085894654208593"><ele>868.75</ele><time>2026-04-04T13:25:03.999Z</time></trkpt><trkpt lat="44.46727906465618" lon="8.086054761182046"><ele>869.5</ele><time>2026-04-04T13:25:04.999Z</time></trkpt><trkpt lat="44.46725077194177" lon="8.086222839409297"><ele>870.25</ele><time>2026-04-04T13:25:05.999Z</time></trkpt><trkpt lat="44.46722777405792" lon="8.08639931122273"><ele>871.0</ele><time>2026-04-04T13:25:06.999Z</time></trkpt><trkpt lat="44.467225152865495" lon="8.086575625526681"><ele>871.25</ele><time>2026-04-04T13:25:07.999Z</time></trkpt><trkpt lat="44.46723393204307" lon="8.086741859791397"><ele>871.5</ele><time>2026-04-04T13:25:08.999Z</time></trkpt><trkpt lat="44.46724530698255" lon="8.08690527438364"><ele>871.75</ele><time>2026-04-04T13:25:09.999Z</time></trkpt><trkpt lat="44.467253339997804" lon="8.087051914895365"><ele>872.0</ele><time>2026-04-04T13:25:10.999Z</time></trkpt><trkpt lat="44.46726208609234" lon="8.087206163331079"><ele>872.0</ele><time>2026-04-04T13:25:11.999Z</time></trkpt><trkpt lat="44.46725396033719" lon="8.087345948503486"><ele>872.0</ele><time>2026-04-04T13:25:12.999Z</time></trkpt><trkpt lat="44.46723507190733" lon="8.087478849920094"><ele>872.0</ele><time>2026-04-04T13:25:13.999Z</time></trkpt><trkpt lat="44.4672009123675" lon="8.087607934317981"><ele>872.0</ele><time>2026-04-04T13:25:14.999Z</time></trkpt><trkpt lat="44.46715978792592" lon="8.087731518418185"><ele>872.0</ele><time>2026-04-04T13:25:15.999Z</time></trkpt><trkpt lat="44.46710838360623" lon="8.087850492165472"><ele>866.2</ele><time>2026-04-04T13:25:16.999Z</time></trkpt><trkpt lat="44.467050626814064" lon="8.08796981565973"><ele>860.4000000000001</ele><time>2026-04-04T13:25:17.999Z</time></trkpt><trkpt lat="44.466981385961375" lon="8.088087009399173"><ele>854.5999999999999</ele><time>2026-04-04T13:25:18.999Z</time></trkpt><trkpt lat="44.466908773610754" lon="8.088202142757538"><ele>848.8</ele><time>2026-04-04T13:25:19.999Z</time></trkpt><trkpt lat="44.466841808688095" lon="8.088317805155793"><ele>843.0</ele><time>2026-04-04T13:25:20.999Z</time></trkpt><trkpt lat="44.46675868053512" lon="8.08842054999505"><ele>843.0</ele><time>2026-04-04T13:25:21.999Z</time></trkpt><trkpt lat="44.46668333367386" lon="8.088537355941385"><ele>843.0</ele><time>2026-04-04T13:25:22.999Z</time></trkpt><trkpt lat="44.46660905833617" lon="8.088657729413727"><ele>843.0</ele><time>2026-04-04T13:25:23.999Z</time></trkpt><trkpt lat="44.466531422656885" lon="8.088812850159794"><ele>843.0</ele><time>2026-04-04T13:25:24.999Z</time></trkpt><trkpt lat="44.46646158226248" lon="8.088939721657864"><ele>843.0</ele><time>2026-04-04T13:25:25.999Z</time></trkpt><trkpt lat="44.46639528927502" lon="8.089073130216251"><ele>843.0</ele><time>2026-04-04T13:25:26.999Z</time></trkpt><trkpt lat="44.46633413942259" lon="8.089219312651498"><ele>843.0</ele><time>2026-04-04T13:25:27.999Z</time></trkpt><trkpt lat="44.46627572781611" lon="8.089373316449334"><ele>843.0</ele><time>2026-04-04T13:25:28.999Z</time></trkpt><trkpt lat="44.466211402735546" lon="8.089526432494788"><ele>840.0</ele><time>2026-04-04T13:25:29.999Z</time></trkpt><trkpt lat="44.46614993210196" lon="8.089685765028948"><ele>837.0</ele><time>2026-04-04T13:25:30.999Z</time></trkpt><trkpt lat="44.46606021209627" lon="8.089815522489578"><ele>834.0</ele><time>2026-04-04T13:25:31.999Z</time></trkpt><trkpt lat="44.465976933898915" lon="8.089950460368149"><ele>831.0</ele><time>2026-04-04T13:25:32.999Z</time></trkpt><trkpt lat="44.465891506592335" lon="8.090079701087056"><ele>831.0</ele><time>2026-04-04T13:25:33.999Z</time></trkpt><trkpt lat="44.46580033431785" lon="8.090202119280832"><ele>831.0</ele><time>2026-04-04T13:25:34.999Z</time></trkpt><trkpt lat="44.46570013389053" lon="8.090318026977176"><ele>831.0</ele><time>2026-04-04T13:25:35.999Z</time></trkpt><trkpt lat="44.46559307505578" lon="8.090388911638414"><ele>831.0</ele><time>2026-04-04T13:25:36.999Z</time></trkpt><trkpt lat="44.46547443034548" lon="8.09046044327845"><ele>827.0</ele><time>2026-04-04T13:25:37.999Z</time></trkpt><trkpt lat="44.46535985515645" lon="8.090529170723316"><ele>823.0</ele><time>2026-04-04T13:25:38.999Z</time></trkpt><trkpt lat="44.465252921712874" lon="8.090613682471103"><ele>819.0</ele><time>2026-04-04T13:25:39.999Z</time></trkpt><trkpt lat="44.46514417366659" lon="8.09067520117226"><ele>815.0</ele><time>2026-04-04T13:25:40.999Z</time></trkpt><trkpt lat="44.46503690471663" lon="8.090748193758909"><ele>816.6</ele><time>2026-04-04T13:25:41.998Z</time></trkpt><trkpt lat="44.46494506963832" lon="8.090819978336373"><ele>818.2</ele><time>2026-04-04T13:25:42.998Z</time></trkpt><trkpt lat="44.46486679033511" lon="8.090889653217666"><ele>819.8</ele><time>2026-04-04T13:25:43.998Z</time></trkpt><trkpt lat="44.464810220725724" lon="8.090992807617694"><ele>821.4</ele><time>2026-04-04T13:25:44.998Z</time></trkpt><trkpt lat="44.464779846023" lon="8.091128069536316"><ele>823.0</ele><time>2026-04-04T13:25:45.998Z</time></trkpt><trkpt lat="44.46477121990926" lon="8.091294512779942"><ele>823.0</ele><time>2026-04-04T13:25:46.998Z</time></trkpt><trkpt lat="44.46480507668091" lon="8.091492736173093"><ele>823.0</ele><time>2026-04-04T13:25:47.998Z</time></trkpt><trkpt lat="44.464816701747736" lon="8.091675672261312"><ele>823.0</ele><time>2026-04-04T13:25:48.998Z</time></trkpt><trkpt lat="44.464830414455285" lon="8.091848860688652"><ele>823.0</ele><time>2026-04-04T13:25:49.998Z</time></trkpt><trkpt lat="44.464832698774586" lon="8.09202900507352"><ele>822.5</ele><time>2026-04-04T13:25:50.998Z</time></trkpt><trkpt lat="44.46484654762119" lon="8.0921975962356"><ele>822.0</ele><time>2026-04-04T13:25:51.998Z</time></trkpt><trkpt lat="44.46485189816013" lon="8.09236748216066"><ele>821.5</ele><time>2026-04-04T13:25:52.998Z</time></trkpt><trkpt lat="44.46484986095047" lon="8.092542850914976"><ele>821.0</ele><time>2026-04-04T13:25:53.998Z</time></trkpt><trkpt lat="44.4648544033481" lon="8.092712822088759"><ele>819.5999999999999</ele><time>2026-04-04T13:25:54.998Z</time></trkpt><trkpt lat="44.46483711804517" lon="8.092878160973399"><ele>818.2</ele><time>2026-04-04T13:25:55.998Z</time></trkpt><trkpt lat="44.464826973760786" lon="8.093026399110842"><ele>816.8</ele><time>2026-04-04T13:25:56.998Z</time></trkpt><trkpt lat="44.46481025435145" lon="8.093167696909557"><ele>815.4000000000001</ele><time>2026-04-04T13:25:57.998Z</time></trkpt><trkpt lat="44.464760737951245" lon="8.093299213890425"><ele>814.0</ele><time>2026-04-04T13:25:58.998Z</time></trkpt><trkpt lat="44.46467667288424" lon="8.093412054176436"><ele>808.5</ele><time>2026-04-04T13:25:59.998Z</time></trkpt><trkpt lat="44.46456235896558" lon="8.093499041979529"><ele>803.0</ele><time>2026-04-04T13:26:00.998Z</time></trkpt><trkpt lat="44.46443338131644" lon="8.093543947882278"><ele>797.5</ele><time>2026-04-04T13:26:01.998Z</time></trkpt><trkpt lat="44.46429498300239" lon="8.093597711954823"><ele>792.0</ele><time>2026-04-04T13:26:02.998Z</time></trkpt><trkpt lat="44.46416901107274" lon="8.093666423134756"><ele>792.0</ele><time>2026-04-04T13:26:03.998Z</time></trkpt><trkpt lat="44.464037422652815" lon="8.093706021120516"><ele>792.0</ele><time>2026-04-04T13:26:05Z</time></trkpt><trkpt lat="44.46390971097852" lon="8.093767007048807"><ele>792.0</ele><time>2026-04-04T13:26:06Z</time></trkpt><trkpt lat="44.46377902572304" lon="8.093812395513199"><ele>792.0</ele><time>2026-04-04T13:26:07Z</time></trkpt><trkpt lat="44.46364775562374" lon="8.093851052635236"><ele>789.0</ele><time>2026-04-04T13:26:08Z</time></trkpt><trkpt lat="44.463527513357654" lon="8.093885829700481"><ele>786.0</ele><time>2026-04-04T13:26:09Z</time></trkpt><trkpt lat="44.46340310977122" lon="8.09389176187111"><ele>783.0</ele><time>2026-04-04T13:26:10Z</time></trkpt><trkpt lat="44.46326547477131" lon="8.093855057109314"><ele>780.0</ele><time>2026-04-04T13:26:11Z</time></trkpt><trkpt lat="44.463135011956396" lon="8.093798663456589"><ele>780.0</ele><time>2026-04-04T13:26:12Z</time></trkpt><trkpt lat="44.46301357612117" lon="8.093744715391777"><ele>780.0</ele><time>2026-04-04T13:26:13Z</time></trkpt><trkpt lat="44.46288564737954" lon="8.093711031606217"><ele>780.0</ele><time>2026-04-04T13:26:14Z</time></trkpt><trkpt lat="44.46276565232332" lon="8.0936770343131"><ele>780.0</ele><time>2026-04-04T13:26:15Z</time></trkpt><trkpt lat="44.46264278502129" lon="8.09366177309796"><ele>777.5</ele><time>2026-04-04T13:26:16Z</time></trkpt><trkpt lat="44.46251323649545" lon="8.09366140596196"><ele>775.0</ele><time>2026-04-04T13:26:17Z</time></trkpt><trkpt lat="44.46237760502616" lon="8.093680147351328"><ele>772.5</ele><time>2026-04-04T13:26:18Z</time></trkpt><trkpt lat="44.46223947994098" lon="8.093719249714528"><ele>770.0</ele><time>2026-04-04T13:26:19Z</time></trkpt><trkpt lat="44.46211061950264" lon="8.09377669347157"><ele>766.0</ele><time>2026-04-04T13:26:20Z</time></trkpt><trkpt lat="44.4619819256675" lon="8.093830494037627"><ele>762.0</ele><time>2026-04-04T13:26:21Z</time></trkpt><trkpt lat="44.4618579769604" lon="8.093897137934656"><ele>758.0</ele><time>2026-04-04T13:26:22Z</time></trkpt><trkpt lat="44.461737430109416" lon="8.093952544953229"><ele>754.0</ele><time>2026-04-04T13:26:23Z</time></trkpt><trkpt lat="44.46161517934199" lon="8.094013038663887"><ele>754.0</ele><time>2026-04-04T13:26:24Z</time></trkpt><trkpt lat="44.46150381020967" lon="8.094067757794129"><ele>754.0</ele><time>2026-04-04T13:26:25Z</time></trkpt><trkpt lat="44.46139544198075" lon="8.094118673575128"><ele>754.0</ele><time>2026-04-04T13:26:26Z</time></trkpt><trkpt lat="44.46130019197512" lon="8.094208782698683"><ele>754.0</ele><time>2026-04-04T13:26:27Z</time></trkpt><trkpt lat="44.461207938755145" lon="8.094303630913972"><ele>753.25</ele><time>2026-04-04T13:26:28Z</time></trkpt><trkpt lat="44.46113776573767" lon="8.094429227571728"><ele>752.5</ele><time>2026-04-04T13:26:29Z</time></trkpt><trkpt lat="44.461077962701886" lon="8.094558862878445"><ele>751.75</ele><time>2026-04-04T13:26:30Z</time></trkpt><trkpt lat="44.46103260553141" lon="8.09472114164211"><ele>751.0</ele><time>2026-04-04T13:26:31Z</time></trkpt><trkpt lat="44.461009198620275" lon="8.09491267732525"><ele>752.5</ele><time>2026-04-04T13:26:32Z</time></trkpt><trkpt lat="44.46100364430736" lon="8.095115275456122"><ele>754.0</ele><time>2026-04-04T13:26:33Z</time></trkpt><trkpt lat="44.46099893615246" lon="8.095324641177683"><ele>755.5</ele><time>2026-04-04T13:26:34Z</time></trkpt><trkpt lat="44.461000344084646" lon="8.095532592937746"><ele>757.0</ele><time>2026-04-04T13:26:35Z</time></trkpt><trkpt lat="44.46100031460876" lon="8.095728244918936"><ele>755.75</ele><time>2026-04-04T13:26:36Z</time></trkpt><trkpt lat="44.46098764046523" lon="8.095930553784772"><ele>754.5</ele><time>2026-04-04T13:26:37Z</time></trkpt><trkpt lat="44.4610039625269" lon="8.0961261404407"><ele>753.25</ele><time>2026-04-04T13:26:38Z</time></trkpt><trkpt lat="44.46099093922648" lon="8.096321768639955"><ele>752.0</ele><time>2026-04-04T13:26:39Z</time></trkpt><trkpt lat="44.46100514649523" lon="8.096508699236214"><ele>750.5</ele><time>2026-04-04T13:26:40Z</time></trkpt><trkpt lat="44.46101342329589" lon="8.096696994761954"><ele>749.0</ele><time>2026-04-04T13:26:41Z</time></trkpt><trkpt lat="44.46100571499085" lon="8.096878474916362"><ele>747.5</ele><time>2026-04-04T13:26:42Z</time></trkpt><trkpt lat="44.46102915552067" lon="8.097052889211884"><ele>746.0</ele><time>2026-04-04T13:26:43Z</time></trkpt><trkpt lat="44.461032710959635" lon="8.097222710413947"><ele>746.0</ele><time>2026-04-04T13:26:44Z</time></trkpt><trkpt lat="44.46103219269784" lon="8.097396997230055"><ele>746.0</ele><time>2026-04-04T13:26:45Z</time></trkpt><trkpt lat="44.46103289349884" lon="8.097559047171144"><ele>746.0</ele><time>2026-04-04T13:26:46Z</time></trkpt><trkpt lat="44.461006387450674" lon="8.097719260490836"><ele>746.0</ele><time>2026-04-04T13:26:47Z</time></trkpt><trkpt lat="44.46095652445899" lon="8.097872518317317"><ele>744.25</ele><time>2026-04-04T13:26:48Z</time></trkpt><trkpt lat="44.460898381651994" lon="8.098029205611684"><ele>742.5</ele><time>2026-04-04T13:26:48.999Z</time></trkpt><trkpt lat="44.46084406461034" lon="8.098186252529084"><ele>740.75</ele><time>2026-04-04T13:26:49.999Z</time></trkpt><trkpt lat="44.46078311135361" lon="8.098323178963923"><ele>739.0</ele><time>2026-04-04T13:26:50.999Z</time></trkpt><trkpt lat="44.46072494948474" lon="8.098453078646505"><ele>737.8000000000001</ele><time>2026-04-04T13:26:51.999Z</time></trkpt><trkpt lat="44.460671839762895" lon="8.098577499468476"><ele>736.6</ele><time>2026-04-04T13:26:52.999Z</time></trkpt><trkpt lat="44.4606187616535" lon="8.098698178646435"><ele>735.4</ele><time>2026-04-04T13:26:53.999Z</time></trkpt><trkpt lat="44.46055901423315" lon="8.098807285328673"><ele>734.2</ele><time>2026-04-04T13:26:54.999Z</time></trkpt><trkpt lat="44.46047321996187" lon="8.098869665773977"><ele>733.0</ele><time>2026-04-04T13:26:55.999Z</time></trkpt><trkpt lat="44.46038761900746" lon="8.09893750768913"><ele>732.75</ele><time>2026-04-04T13:26:56.999Z</time></trkpt><trkpt lat="44.46028308299204" lon="8.099020582512155"><ele>732.5</ele><time>2026-04-04T13:26:57.999Z</time></trkpt><trkpt lat="44.46018384787433" lon="8.099136899498852"><ele>732.25</ele><time>2026-04-04T13:26:58.999Z</time></trkpt><trkpt lat="44.460065575196275" lon="8.09923234710176"><ele>732.0</ele><time>2026-04-04T13:26:59.999Z</time></trkpt><trkpt lat="44.45995684991634" lon="8.099348389129013"><ele>732.0</ele><time>2026-04-04T13:27:00.999Z</time></trkpt><trkpt lat="44.4598540065976" lon="8.09946137863074"><ele>732.0</ele><time>2026-04-04T13:27:01.999Z</time></trkpt><trkpt lat="44.45973598480572" lon="8.099591174364841"><ele>732.0</ele><time>2026-04-04T13:27:02.999Z</time></trkpt><trkpt lat="44.45961832716494" lon="8.099704366320495"><ele>732.0</ele><time>2026-04-04T13:27:03.999Z</time></trkpt><trkpt lat="44.45950520040878" lon="8.099815728053217"><ele>731.5</ele><time>2026-04-04T13:27:04.999Z</time></trkpt><trkpt lat="44.45939128779566" lon="8.09993497804156"><ele>731.0</ele><time>2026-04-04T13:27:05.999Z</time></trkpt><trkpt lat="44.45927554528261" lon="8.100047883194174"><ele>730.5</ele><time>2026-04-04T13:27:06.999Z</time></trkpt><trkpt lat="44.459158542920036" lon="8.100166833389313"><ele>730.0</ele><time>2026-04-04T13:27:07.999Z</time></trkpt><trkpt lat="44.45904228841254" lon="8.100290807493566"><ele>730.0</ele><time>2026-04-04T13:27:08.999Z</time></trkpt><trkpt lat="44.45892450253617" lon="8.1004113795816"><ele>730.0</ele><time>2026-04-04T13:27:09.999Z</time></trkpt><trkpt lat="44.45880156238797" lon="8.100516802696037"><ele>730.0</ele><time>2026-04-04T13:27:10.999Z</time></trkpt><trkpt lat="44.458705420799284" lon="8.100632769459176"><ele>730.0</ele><time>2026-04-04T13:27:11.999Z</time></trkpt><trkpt lat="44.4586089765387" lon="8.10072467824966"><ele>729.75</ele><time>2026-04-04T13:27:12.999Z</time></trkpt><trkpt lat="44.45850922709194" lon="8.100825431234577"><ele>729.5</ele><time>2026-04-04T13:27:13.999Z</time></trkpt><trkpt lat="44.458401809500906" lon="8.100902160150795"><ele>729.25</ele><time>2026-04-04T13:27:14.999Z</time></trkpt><trkpt lat="44.458295193984924" lon="8.101013524830972"><ele>729.0</ele><time>2026-04-04T13:27:15.999Z</time></trkpt><trkpt lat="44.458172757481826" lon="8.101098557520599"><ele>729.0</ele><time>2026-04-04T13:27:16.999Z</time></trkpt><trkpt lat="44.45805145235087" lon="8.101168171736314"><ele>729.0</ele><time>2026-04-04T13:27:17.999Z</time></trkpt><trkpt lat="44.4579283112212" lon="8.101239057350574"><ele>729.0</ele><time>2026-04-04T13:27:18.999Z</time></trkpt><trkpt lat="44.45780484311901" lon="8.101300453893192"><ele>729.0</ele><time>2026-04-04T13:27:19.999Z</time></trkpt><trkpt lat="44.45768274064386" lon="8.101363413351946"><ele>729.5</ele><time>2026-04-04T13:27:20.999Z</time></trkpt><trkpt lat="44.457561551205416" lon="8.101427562412217"><ele>730.0</ele><time>2026-04-04T13:27:21.999Z</time></trkpt><trkpt lat="44.457441883734695" lon="8.101485007419804"><ele>730.5</ele><time>2026-04-04T13:27:22.999Z</time></trkpt><trkpt lat="44.45731718895029" lon="8.101515362593897"><ele>731.0</ele><time>2026-04-04T13:27:23.999Z</time></trkpt><trkpt lat="44.457192149574304" lon="8.101543323965329"><ele>730.75</ele><time>2026-04-04T13:27:24.999Z</time></trkpt><trkpt lat="44.45707350766454" lon="8.101546757413791"><ele>730.5</ele><time>2026-04-04T13:27:25.999Z</time></trkpt><trkpt lat="44.45695581998982" lon="8.101541680544907"><ele>730.25</ele><time>2026-04-04T13:27:26.999Z</time></trkpt><trkpt lat="44.45683463371531" lon="8.10155385170757"><ele>730.0</ele><time>2026-04-04T13:27:27.999Z</time></trkpt><trkpt lat="44.45671868556125" lon="8.10151496521028"><ele>730.0</ele><time>2026-04-04T13:27:28.999Z</time></trkpt><trkpt lat="44.45659142247559" lon="8.101496500358897"><ele>730.0</ele><time>2026-04-04T13:27:29.999Z</time></trkpt><trkpt lat="44.45647297588179" lon="8.101485594186858"><ele>730.0</ele><time>2026-04-04T13:27:30.999Z</time></trkpt><trkpt lat="44.45635144926238" lon="8.101481057399136"><ele>730.0</ele><time>2026-04-04T13:27:31.999Z</time></trkpt><trkpt lat="44.456225681488014" lon="8.101497920145091"><ele>727.75</ele><time>2026-04-04T13:27:32.999Z</time></trkpt><trkpt lat="44.45610435433241" lon="8.101548578975656"><ele>725.5</ele><time>2026-04-04T13:27:33.999Z</time></trkpt><trkpt lat="44.455976901831036" lon="8.101610576623694"><ele>723.25</ele><time>2026-04-04T13:27:34.999Z</time></trkpt><trkpt lat="44.45583530403819" lon="8.101662508327363"><ele>721.0</ele><time>2026-04-04T13:27:35.999Z</time></trkpt><trkpt lat="44.45572247661787" lon="8.101717694774866"><ele>721.0</ele><time>2026-04-04T13:27:36.999Z</time></trkpt><trkpt lat="44.45560163303707" lon="8.10177600732653"><ele>721.0</ele><time>2026-04-04T13:27:37.999Z</time></trkpt><trkpt lat="44.455485133248295" lon="8.101832107784547"><ele>721.0</ele><time>2026-04-04T13:27:38.999Z</time></trkpt><trkpt lat="44.45536965297362" lon="8.101887509085396"><ele>721.0</ele><time>2026-04-04T13:27:39.999Z</time></trkpt><trkpt lat="44.4552606169071" lon="8.101961053226121"><ele>718.0</ele><time>2026-04-04T13:27:40.999Z</time></trkpt><trkpt lat="44.455145762734944" lon="8.10200896266128"><ele>715.0</ele><time>2026-04-04T13:27:41.999Z</time></trkpt><trkpt lat="44.455037431231645" lon="8.102062099313972"><ele>712.0</ele><time>2026-04-04T13:27:42.999Z</time></trkpt><trkpt lat="44.454927861462494" lon="8.102115041745591"><ele>709.0</ele><time>2026-04-04T13:27:43.999Z</time></trkpt><trkpt lat="44.454829626096085" lon="8.10217831851851"><ele>709.0</ele><time>2026-04-04T13:27:44.999Z</time></trkpt><trkpt lat="44.45472680928198" lon="8.102268848014958"><ele>709.0</ele><time>2026-04-04T13:27:45.999Z</time></trkpt><trkpt lat="44.4546338511908" lon="8.10239984823049"><ele>709.0</ele><time>2026-04-04T13:27:46.999Z</time></trkpt><trkpt lat="44.454550664882724" lon="8.102554281048805"><ele>709.0</ele><time>2026-04-04T13:27:47.999Z</time></trkpt><trkpt lat="44.45447545560663" lon="8.102717108821539"><ele>707.5</ele><time>2026-04-04T13:27:48.999Z</time></trkpt><trkpt lat="44.454410032408255" lon="8.102876425119355"><ele>706.0</ele><time>2026-04-04T13:27:49.999Z</time></trkpt><trkpt lat="44.45436036706247" lon="8.103040318208274"><ele>704.5</ele><time>2026-04-04T13:27:50.999Z</time></trkpt><trkpt lat="44.454298459813806" lon="8.10320625666898"><ele>703.0</ele><time>2026-04-04T13:27:51.998Z</time></trkpt><trkpt lat="44.45424238565526" lon="8.103393046465719"><ele>703.0</ele><time>2026-04-04T13:27:52.998Z</time></trkpt><trkpt lat="44.45418035838925" lon="8.103564971555596"><ele>703.0</ele><time>2026-04-04T13:27:53.998Z</time></trkpt><trkpt lat="44.45411878177279" lon="8.103733506447075"><ele>703.0</ele><time>2026-04-04T13:27:54.998Z</time></trkpt><trkpt lat="44.45405720603256" lon="8.103906425550196"><ele>703.0</ele><time>2026-04-04T13:27:55.998Z</time></trkpt><trkpt lat="44.45398864698993" lon="8.104065229703052"><ele>702.75</ele><time>2026-04-04T13:27:56.998Z</time></trkpt><trkpt lat="44.4539093657988" lon="8.104207378070491"><ele>702.5</ele><time>2026-04-04T13:27:57.998Z</time></trkpt><trkpt lat="44.453800793077235" lon="8.104321405655458"><ele>702.25</ele><time>2026-04-04T13:27:58.998Z</time></trkpt><trkpt lat="44.45368811055159" lon="8.104434383319342"><ele>702.0</ele><time>2026-04-04T13:27:59.998Z</time></trkpt><trkpt lat="44.45357536735431" lon="8.104543848322054"><ele>701.0</ele><time>2026-04-04T13:28:00.998Z</time></trkpt><trkpt lat="44.45347272793462" lon="8.104662495953775"><ele>700.0</ele><time>2026-04-04T13:28:01.998Z</time></trkpt><trkpt lat="44.45336479206557" lon="8.104761865844361"><ele>699.0</ele><time>2026-04-04T13:28:02.998Z</time></trkpt><trkpt lat="44.4532604497404" lon="8.104851055392418"><ele>698.0</ele><time>2026-04-04T13:28:03.998Z</time></trkpt><trkpt lat="44.45314812961468" lon="8.104940500682428"><ele>698.0</ele><time>2026-04-04T13:28:04.998Z</time></trkpt><trkpt lat="44.453028823709396" lon="8.105016469367767"><ele>698.0</ele><time>2026-04-04T13:28:05.998Z</time></trkpt><trkpt lat="44.45290984198766" lon="8.105074298166002"><ele>698.0</ele><time>2026-04-04T13:28:06.998Z</time></trkpt><trkpt lat="44.452795128912214" lon="8.105121175722442"><ele>698.0</ele><time>2026-04-04T13:28:07.998Z</time></trkpt><trkpt lat="44.45268156013936" lon="8.10514953088529"><ele>695.75</ele><time>2026-04-04T13:28:08.998Z</time></trkpt><trkpt lat="44.45256963760396" lon="8.105160379128499"><ele>693.5</ele><time>2026-04-04T13:28:09.998Z</time></trkpt><trkpt lat="44.45245870640942" lon="8.105136024401222"><ele>691.25</ele><time>2026-04-04T13:28:11Z</time></trkpt><trkpt lat="44.4523485454727" lon="8.105064108290648"><ele>689.0</ele><time>2026-04-04T13:28:12Z</time></trkpt><trkpt lat="44.452232322284715" lon="8.105005569762186"><ele>688.25</ele><time>2026-04-04T13:28:13Z</time></trkpt><trkpt lat="44.452128336063446" lon="8.104910044889369"><ele>687.5</ele><time>2026-04-04T13:28:14Z</time></trkpt><trkpt lat="44.45202704514694" lon="8.104821971372358"><ele>686.75</ele><time>2026-04-04T13:28:15Z</time></trkpt><trkpt lat="44.45192128442438" lon="8.104733425641344"><ele>686.0</ele><time>2026-04-04T13:28:16Z</time></trkpt><trkpt lat="44.451820390733275" lon="8.10464845436382"><ele>686.0</ele><time>2026-04-04T13:28:17Z</time></trkpt><trkpt lat="44.45172805842012" lon="8.104570912878772"><ele>686.0</ele><time>2026-04-04T13:28:18Z</time></trkpt><trkpt lat="44.45164648902912" lon="8.104484020366362"><ele>686.0</ele><time>2026-04-04T13:28:19Z</time></trkpt><trkpt lat="44.451560134069126" lon="8.104420413663078"><ele>686.0</ele><time>2026-04-04T13:28:20Z</time></trkpt><trkpt lat="44.451474892215025" lon="8.10436886505947"><ele>686.0</ele><time>2026-04-04T13:28:21Z</time></trkpt><trkpt lat="44.451375462121305" lon="8.104337260357775"><ele>685.0</ele><time>2026-04-04T13:28:22Z</time></trkpt><trkpt lat="44.45126833176231" lon="8.104342117251258"><ele>684.0</ele><time>2026-04-04T13:28:23Z</time></trkpt><trkpt lat="44.451162074185994" lon="8.104384257539575"><ele>683.0</ele><time>2026-04-04T13:28:24Z</time></trkpt><trkpt lat="44.45105017435358" lon="8.104454768615517"><ele>682.0</ele><time>2026-04-04T13:28:25Z</time></trkpt><trkpt lat="44.45093638739401" lon="8.104540705033747"><ele>682.0</ele><time>2026-04-04T13:28:26Z</time></trkpt><trkpt lat="44.450813471802" lon="8.104629125529389"><ele>682.0</ele><time>2026-04-04T13:28:27Z</time></trkpt><trkpt lat="44.45068274591426" lon="8.104723164430727"><ele>682.0</ele><time>2026-04-04T13:28:28Z</time></trkpt><trkpt lat="44.45055321251264" lon="8.104816121950313"><ele>682.0</ele><time>2026-04-04T13:28:29Z</time></trkpt><trkpt lat="44.45043383907327" lon="8.1049017698654"><ele>682.5</ele><time>2026-04-04T13:28:30Z</time></trkpt><trkpt lat="44.450309862028405" lon="8.104988687050946"><ele>683.0</ele><time>2026-04-04T13:28:31Z</time></trkpt><trkpt lat="44.45018651064334" lon="8.10506871700216"><ele>683.5</ele><time>2026-04-04T13:28:32Z</time></trkpt><trkpt lat="44.45006222930337" lon="8.105137959381878"><ele>684.0</ele><time>2026-04-04T13:28:33Z</time></trkpt><trkpt lat="44.44993446941335" lon="8.105223977342142"><ele>684.0</ele><time>2026-04-04T13:28:34Z</time></trkpt><trkpt lat="44.449788318278834" lon="8.105270164969262"><ele>684.0</ele><time>2026-04-04T13:28:35Z</time></trkpt><trkpt lat="44.449630694052196" lon="8.105340015955568"><ele>684.0</ele><time>2026-04-04T13:28:36Z</time></trkpt><trkpt lat="44.449445250470575" lon="8.105408013650468"><ele>681.3333333333334</ele><time>2026-04-04T13:28:37Z</time></trkpt><trkpt lat="44.449242894341616" lon="8.10547208330621"><ele>678.6666666666667</ele><time>2026-04-04T13:28:38Z</time></trkpt><trkpt lat="44.449027752960625" lon="8.10553072732892"><ele>676.0</ele><time>2026-04-04T13:28:39Z</time></trkpt><trkpt lat="44.44883469054069" lon="8.105577375831489"><ele>672.0</ele><time>2026-04-04T13:28:40Z</time></trkpt><trkpt lat="44.44865273223868" lon="8.105639874614171"><ele>668.0</ele><time>2026-04-04T13:28:41Z</time></trkpt><trkpt lat="44.4484736479703" lon="8.105682062422877"><ele>664.0</ele><time>2026-04-04T13:28:42Z</time></trkpt><trkpt lat="44.4482870630868" lon="8.105703950020864"><ele>664.0</ele><time>2026-04-04T13:28:43Z</time></trkpt><trkpt lat="44.44811517012091" lon="8.105744225775794"><ele>664.0</ele><time>2026-04-04T13:28:44Z</time></trkpt><trkpt lat="44.44795216573054" lon="8.105779019233488"><ele>664.0</ele><time>2026-04-04T13:28:45Z</time></trkpt><trkpt lat="44.44779602430593" lon="8.105812377940378"><ele>669.6666666666667</ele><time>2026-04-04T13:28:46Z</time></trkpt><trkpt lat="44.4476362169732" lon="8.10584651986715"><ele>675.3333333333334</ele><time>2026-04-04T13:28:47Z</time></trkpt><trkpt lat="44.44748318018105" lon="8.105879215296536"><ele>681.0</ele><time>2026-04-04T13:28:48Z</time></trkpt><trkpt lat="44.44733854925233" lon="8.10591098749933"><ele>681.0</ele><time>2026-04-04T13:28:48.999Z</time></trkpt><trkpt lat="44.447201763713124" lon="8.105945901598872"><ele>681.0</ele><time>2026-04-04T13:28:49.999Z</time></trkpt><trkpt lat="44.447067669190965" lon="8.105996392818488"><ele>681.0</ele><time>2026-04-04T13:28:50.999Z</time></trkpt><trkpt lat="44.44693458234613" lon="8.106086646952914"><ele>681.0</ele><time>2026-04-04T13:28:51.999Z</time></trkpt><trkpt lat="44.446799338163345" lon="8.10621058419691"><ele>681.75</ele><time>2026-04-04T13:28:52.999Z</time></trkpt><trkpt lat="44.44667003309696" lon="8.106326520156442"><ele>682.5</ele><time>2026-04-04T13:28:53.999Z</time></trkpt><trkpt lat="44.44654956567" lon="8.106435495531604"><ele>683.25</ele><time>2026-04-04T13:28:54.999Z</time></trkpt><trkpt lat="44.44643662369911" lon="8.10654483963293"><ele>684.0</ele><time>2026-04-04T13:28:55.999Z</time></trkpt><trkpt lat="44.44634120401526" lon="8.106672656730117"><ele>675.3333333333334</ele><time>2026-04-04T13:28:56.999Z</time></trkpt><trkpt lat="44.44624242291061" lon="8.106808608044235"><ele>666.6666666666667</ele><time>2026-04-04T13:28:57.999Z</time></trkpt><trkpt lat="44.4461378304702" lon="8.10697241745846"><ele>658.0</ele><time>2026-04-04T13:28:58.999Z</time></trkpt><trkpt lat="44.446046360978" lon="8.107160694052446"><ele>658.0</ele><time>2026-04-04T13:28:59.999Z</time></trkpt><trkpt lat="44.445958323411986" lon="8.107349412337452"><ele>658.0</ele><time>2026-04-04T13:29:00.999Z</time></trkpt><trkpt lat="44.44587533181165" lon="8.10752731403744"><ele>658.0</ele><time>2026-04-04T13:29:01.999Z</time></trkpt><trkpt lat="44.44579119648467" lon="8.107707307457773"><ele>660.5</ele><time>2026-04-04T13:29:02.999Z</time></trkpt><trkpt lat="44.445711125179336" lon="8.10787458762115"><ele>663.0</ele><time>2026-04-04T13:29:03.999Z</time></trkpt><trkpt lat="44.445648481142214" lon="8.10805027942708"><ele>665.5</ele><time>2026-04-04T13:29:04.999Z</time></trkpt><trkpt lat="44.4455868247105" lon="8.108208116999815"><ele>668.0</ele><time>2026-04-04T13:29:05.999Z</time></trkpt><trkpt lat="44.44555235050112" lon="8.108364558074735"><ele>669.5999999999999</ele><time>2026-04-04T13:29:06.999Z</time></trkpt><trkpt lat="44.445528036096896" lon="8.108517912882332"><ele>671.1999999999999</ele><time>2026-04-04T13:29:07.999Z</time></trkpt><trkpt lat="44.445534772520205" lon="8.108657695474568"><ele>672.8</ele><time>2026-04-04T13:29:08.999Z</time></trkpt><trkpt lat="44.445547841796675" lon="8.108822222140583"><ele>674.4</ele><time>2026-04-04T13:29:09.999Z</time></trkpt><trkpt lat="44.445572533795975" lon="8.108956589737192"><ele>676.0</ele><time>2026-04-04T13:29:10.999Z</time></trkpt><trkpt lat="44.44556726006143" lon="8.1090715738963"><ele>675.8</ele><time>2026-04-04T13:29:11.999Z</time></trkpt><trkpt lat="44.44554506156381" lon="8.109178782908158"><ele>675.5999999999999</ele><time>2026-04-04T13:29:12.999Z</time></trkpt><trkpt lat="44.44552469007356" lon="8.109288811574649"><ele>675.4</ele><time>2026-04-04T13:29:13.999Z</time></trkpt><trkpt lat="44.44550023340562" lon="8.109398797400253"><ele>675.2</ele><time>2026-04-04T13:29:14.999Z</time></trkpt><trkpt lat="44.44531816271534" lon="8.109409528041326"><ele>675.0</ele><time>2026-04-04T13:29:15.999Z</time></trkpt><trkpt lat="44.44519836513808" lon="8.109463809249428"><ele>669.25</ele><time>2026-04-04T13:29:16.999Z</time></trkpt><trkpt lat="44.44506507035882" lon="8.109524818971208"><ele>663.5</ele><time>2026-04-04T13:29:17.999Z</time></trkpt><trkpt lat="44.44493879933333" lon="8.109606698778828"><ele>657.75</ele><time>2026-04-04T13:29:18.999Z</time></trkpt><trkpt lat="44.44479128909276" lon="8.109650130057757"><ele>652.0</ele><time>2026-04-04T13:29:19.999Z</time></trkpt><trkpt lat="44.444640452325956" lon="8.109744892942954"><ele>652.3333333333334</ele><time>2026-04-04T13:29:20.999Z</time></trkpt><trkpt lat="44.444472867474374" lon="8.109810486923118"><ele>652.6666666666666</ele><time>2026-04-04T13:29:21.999Z</time></trkpt><trkpt lat="44.44429847877964" lon="8.109887234512222"><ele>653.0</ele><time>2026-04-04T13:29:22.999Z</time></trkpt><trkpt lat="44.444110800545104" lon="8.109917902338116"><ele>653.0</ele><time>2026-04-04T13:29:23.999Z</time></trkpt><trkpt lat="44.44392229027461" lon="8.109947926171316"><ele>653.0</ele><time>2026-04-04T13:29:24.999Z</time></trkpt><trkpt lat="44.44372308986102" lon="8.10996856000759"><ele>653.0</ele><time>2026-04-04T13:29:25.999Z</time></trkpt><trkpt lat="44.443521249108414" lon="8.109987697523923"><ele>649.6666666666666</ele><time>2026-04-04T13:29:26.999Z</time></trkpt><trkpt lat="44.44333005854936" lon="8.110008152995439"><ele>646.3333333333334</ele><time>2026-04-04T13:29:27.999Z</time></trkpt><trkpt lat="44.443142005876126" lon="8.110029527717879"><ele>643.0</ele><time>2026-04-04T13:29:28.999Z</time></trkpt><trkpt lat="44.44296104227869" lon="8.110052203787681"><ele>640.3333333333334</ele><time>2026-04-04T13:29:29.999Z</time></trkpt><trkpt lat="44.44277978255739" lon="8.11007375524459"><ele>637.6666666666666</ele><time>2026-04-04T13:29:30.999Z</time></trkpt><trkpt lat="44.44260386793836" lon="8.11008474146872"><ele>635.0</ele><time>2026-04-04T13:29:31.999Z</time></trkpt><trkpt lat="44.442439331338726" lon="8.110074752300683"><ele>635.0</ele><time>2026-04-04T13:29:32.999Z</time></trkpt><trkpt lat="44.44227567465698" lon="8.110044669322157"><ele>635.0</ele><time>2026-04-04T13:29:33.999Z</time></trkpt><trkpt lat="44.44211627342885" lon="8.110015306604824"><ele>635.0</ele><time>2026-04-04T13:29:34.999Z</time></trkpt><trkpt lat="44.44196200696725" lon="8.109988099377066"><ele>634.75</ele><time>2026-04-04T13:29:35.999Z</time></trkpt><trkpt lat="44.44183083534245" lon="8.109964965256157"><ele>634.5</ele><time>2026-04-04T13:29:36.999Z</time></trkpt><trkpt lat="44.44170382183026" lon="8.109942548105588"><ele>634.25</ele><time>2026-04-04T13:29:37.999Z</time></trkpt><trkpt lat="44.441598068754" lon="8.109922527452555"><ele>634.0</ele><time>2026-04-04T13:29:38.999Z</time></trkpt><trkpt lat="44.44150487293879" lon="8.109902719640711"><ele>631.0</ele><time>2026-04-04T13:29:39.999Z</time></trkpt><trkpt lat="44.441435463143286" lon="8.10987624286244"><ele>628.0</ele><time>2026-04-04T13:29:40.999Z</time></trkpt><trkpt lat="44.44141502920657" lon="8.109749851285166"><ele>625.0</ele><time>2026-04-04T13:29:42.999Z</time></trkpt><trkpt lat="44.4414602705596" lon="8.10967256499692"><ele>622.0</ele><time>2026-04-04T13:29:43.999Z</time></trkpt><trkpt lat="44.44155316299249" lon="8.109627759565955"><ele>619.0</ele><time>2026-04-04T13:29:44.999Z</time></trkpt><trkpt lat="44.44166534516439" lon="8.109650654144634"><ele>616.0</ele><time>2026-04-04T13:29:45.999Z</time></trkpt><trkpt lat="44.44178291189508" lon="8.109619253117627"><ele>616.0</ele><time>2026-04-04T13:29:46.999Z</time></trkpt><trkpt lat="44.441924521458425" lon="8.109586151706367"><ele>616.0</ele><time>2026-04-04T13:29:47.999Z</time></trkpt><trkpt lat="44.44206451849669" lon="8.109522085247194"><ele>616.0</ele><time>2026-04-04T13:29:48.999Z</time></trkpt><trkpt lat="44.442187933128416" lon="8.109462511496126"><ele>616.0</ele><time>2026-04-04T13:29:49.999Z</time></trkpt><trkpt lat="44.44228795514614" lon="8.109354291917134"><ele>616.0</ele><time>2026-04-04T13:29:50.999Z</time></trkpt><trkpt lat="44.44236387665669" lon="8.10920759409315"><ele>616.0</ele><time>2026-04-04T13:29:51.998Z</time></trkpt><trkpt lat="44.442438814377276" lon="8.109015429664328"><ele>616.0</ele><time>2026-04-04T13:29:52.998Z</time></trkpt><trkpt lat="44.44245976062856" lon="8.108801708696053"><ele>616.0</ele><time>2026-04-04T13:29:53.998Z</time></trkpt><trkpt lat="44.44246896814379" lon="8.108615111973716"><ele>614.6666666666667</ele><time>2026-04-04T13:29:54.998Z</time></trkpt><trkpt lat="44.442499244256794" lon="8.108377492132616"><ele>613.3333333333334</ele><time>2026-04-04T13:29:55.998Z</time></trkpt><trkpt lat="44.442517536426635" lon="8.108140705931147"><ele>612.0</ele><time>2026-04-04T13:29:56.998Z</time></trkpt><trkpt lat="44.442533461047226" lon="8.107934567085751"><ele>612.0</ele><time>2026-04-04T13:29:57.998Z</time></trkpt><trkpt lat="44.442550062970255" lon="8.107716594141477"><ele>612.0</ele><time>2026-04-04T13:29:58.998Z</time></trkpt><trkpt lat="44.44255181841094" lon="8.107506437043837"><ele>612.0</ele><time>2026-04-04T13:29:59.998Z</time></trkpt><trkpt lat="44.44258279200193" lon="8.107306322069471"><ele>612.75</ele><time>2026-04-04T13:30:00.998Z</time></trkpt><trkpt lat="44.44258819076771" lon="8.107113253492283"><ele>613.5</ele><time>2026-04-04T13:30:01.998Z</time></trkpt><trkpt lat="44.442606255404144" lon="8.106926889660654"><ele>614.25</ele><time>2026-04-04T13:30:02.998Z</time></trkpt><trkpt lat="44.44261812539612" lon="8.106762906090987"><ele>615.0</ele><time>2026-04-04T13:30:03.998Z</time></trkpt><trkpt lat="44.44261766382395" lon="8.10661443729876"><ele>615.2</ele><time>2026-04-04T13:30:04.998Z</time></trkpt><trkpt lat="44.44258883961412" lon="8.106480654307623"><ele>615.4</ele><time>2026-04-04T13:30:05.998Z</time></trkpt><trkpt lat="44.44252527122527" lon="8.106357636239752"><ele>615.6</ele><time>2026-04-04T13:30:06.998Z</time></trkpt><trkpt lat="44.44244324737537" lon="8.106259982665772"><ele>615.8</ele><time>2026-04-04T13:30:07.998Z</time></trkpt><trkpt lat="44.442339754429135" lon="8.106202733194195"><ele>616.0</ele><time>2026-04-04T13:30:08.998Z</time></trkpt><trkpt lat="44.44222271663296" lon="8.106196821034837"><ele>617.75</ele><time>2026-04-04T13:30:09.998Z</time></trkpt><trkpt lat="44.44210890176795" lon="8.106239650452245"><ele>619.5</ele><time>2026-04-04T13:30:10.998Z</time></trkpt><trkpt lat="44.44200803773002" lon="8.106326973717879"><ele>621.25</ele><time>2026-04-04T13:30:11.998Z</time></trkpt><trkpt lat="44.44193950795146" lon="8.106442446494027"><ele>623.0</ele><time>2026-04-04T13:30:12.998Z</time></trkpt><trkpt lat="44.441836473276744" lon="8.10658211643737"><ele>623.0</ele><time>2026-04-04T13:30:13.998Z</time></trkpt><trkpt lat="44.44174763826651" lon="8.106710028468298"><ele>623.0</ele><time>2026-04-04T13:30:14.998Z</time></trkpt><trkpt lat="44.44165831043526" lon="8.106800101529295"><ele>623.0</ele><time>2026-04-04T13:30:15.998Z</time></trkpt><trkpt lat="44.44154216114872" lon="8.106837662331882"><ele>623.0</ele><time>2026-04-04T13:30:17Z</time></trkpt><trkpt lat="44.4414275128572" lon="8.106841933386622"><ele>623.0</ele><time>2026-04-04T13:30:18Z</time></trkpt><trkpt lat="44.4413045616768" lon="8.106820248365352"><ele>623.0</ele><time>2026-04-04T13:30:19Z</time></trkpt><trkpt lat="44.44117684697059" lon="8.106751157656095"><ele>623.0</ele><time>2026-04-04T13:30:20Z</time></trkpt><trkpt lat="44.441050282200955" lon="8.106641286396291"><ele>623.0</ele><time>2026-04-04T13:30:21Z</time></trkpt><trkpt lat="44.440905477706714" lon="8.106517052560635"><ele>625.6666666666666</ele><time>2026-04-04T13:30:22Z</time></trkpt><trkpt lat="44.4407733154084" lon="8.10637444189765"><ele>628.3333333333334</ele><time>2026-04-04T13:30:23Z</time></trkpt><trkpt lat="44.44059553121074" lon="8.106226887565414"><ele>631.0</ele><time>2026-04-04T13:30:24Z</time></trkpt><trkpt lat="44.44044163946783" lon="8.106083085061027"><ele>632.0</ele><time>2026-04-04T13:30:25Z</time></trkpt><trkpt lat="44.44028850087277" lon="8.105941792269466"><ele>633.0</ele><time>2026-04-04T13:30:26Z</time></trkpt><trkpt lat="44.4401371393548" lon="8.105795503691297"><ele>634.0</ele><time>2026-04-04T13:30:27Z</time></trkpt><trkpt lat="44.43999240637429" lon="8.105629864014245"><ele>635.3333333333334</ele><time>2026-04-04T13:30:28Z</time></trkpt><trkpt lat="44.43986000737686" lon="8.10544674582781"><ele>636.6666666666666</ele><time>2026-04-04T13:30:29Z</time></trkpt><trkpt lat="44.43975109980343" lon="8.105232007437541"><ele>638.0</ele><time>2026-04-04T13:30:30Z</time></trkpt><trkpt lat="44.43965959814968" lon="8.105050934459527"><ele>639.6666666666666</ele><time>2026-04-04T13:30:31Z</time></trkpt><trkpt lat="44.43956566071609" lon="8.104833758606569"><ele>641.3333333333334</ele><time>2026-04-04T13:30:32Z</time></trkpt><trkpt lat="44.43946501850024" lon="8.104630830157278"><ele>643.0</ele><time>2026-04-04T13:30:33Z</time></trkpt><trkpt lat="44.43938011504813" lon="8.10441575059485"><ele>643.0</ele><time>2026-04-04T13:30:34Z</time></trkpt><trkpt lat="44.439303183201154" lon="8.104195761301673"><ele>643.0</ele><time>2026-04-04T13:30:35Z</time></trkpt><trkpt lat="44.43926289408656" lon="8.103951204944638"><ele>643.0</ele><time>2026-04-04T13:30:36Z</time></trkpt><trkpt lat="44.43920984555436" lon="8.103720626724407"><ele>644.25</ele><time>2026-04-04T13:30:37Z</time></trkpt><trkpt lat="44.43918520088294" lon="8.103495708551183"><ele>645.5</ele><time>2026-04-04T13:30:38Z</time></trkpt><trkpt lat="44.43916275611518" lon="8.10330719449026"><ele>646.75</ele><time>2026-04-04T13:30:39Z</time></trkpt><trkpt lat="44.43914456316816" lon="8.103120422341469"><ele>648.0</ele><time>2026-04-04T13:30:40Z</time></trkpt><trkpt lat="44.43914569113983" lon="8.102943985583021"><ele>650.0</ele><time>2026-04-04T13:30:41Z</time></trkpt><trkpt lat="44.43916110888536" lon="8.102765915397075"><ele>652.0</ele><time>2026-04-04T13:30:42Z</time></trkpt><trkpt lat="44.439192481486664" lon="8.102580342339346"><ele>654.0</ele><time>2026-04-04T13:30:43Z</time></trkpt><trkpt lat="44.43923777035912" lon="8.102396365753384"><ele>656.0</ele><time>2026-04-04T13:30:44Z</time></trkpt><trkpt lat="44.43929611911588" lon="8.102213985833247"><ele>657.75</ele><time>2026-04-04T13:30:45Z</time></trkpt><trkpt lat="44.43935828209776" lon="8.102032464510128"><ele>659.5</ele><time>2026-04-04T13:30:46Z</time></trkpt><trkpt lat="44.43943107459633" lon="8.101843749156581"><ele>661.25</ele><time>2026-04-04T13:30:47Z</time></trkpt><trkpt lat="44.43949831273778" lon="8.101654037833207"><ele>663.0</ele><time>2026-04-04T13:30:48Z</time></trkpt><trkpt lat="44.439562339280116" lon="8.101463756120935"><ele>663.6666666666666</ele><time>2026-04-04T13:30:49Z</time></trkpt><trkpt lat="44.43962115755395" lon="8.101268290337654"><ele>664.3333333333333</ele><time>2026-04-04T13:30:50Z</time></trkpt><trkpt lat="44.439681755439395" lon="8.101070032241745"><ele>665.0</ele><time>2026-04-04T13:30:51Z</time></trkpt><trkpt lat="44.43974563765445" lon="8.100877824236122"><ele>670.0</ele><time>2026-04-04T13:30:52Z</time></trkpt><trkpt lat="44.43980858920349" lon="8.100691718362768"><ele>675.0</ele><time>2026-04-04T13:30:53Z</time></trkpt><trkpt lat="44.43988341378707" lon="8.1005088721154"><ele>680.0</ele><time>2026-04-04T13:30:54Z</time></trkpt><trkpt lat="44.439971761236244" lon="8.100339203016427"><ele>685.0</ele><time>2026-04-04T13:30:55Z</time></trkpt><trkpt lat="44.4400841710792" lon="8.100210881646245"><ele>685.0</ele><time>2026-04-04T13:30:56Z</time></trkpt><trkpt lat="44.44019980165636" lon="8.100092920070573"><ele>685.0</ele><time>2026-04-04T13:30:57Z</time></trkpt><trkpt lat="44.440310175077265" lon="8.0999902774097"><ele>685.0</ele><time>2026-04-04T13:30:57.999Z</time></trkpt><trkpt lat="44.44042395961381" lon="8.099941830550728"><ele>685.0</ele><time>2026-04-04T13:30:58.999Z</time></trkpt><trkpt lat="44.44054131602833" lon="8.099966720296004"><ele>686.75</ele><time>2026-04-04T13:30:59.999Z</time></trkpt><trkpt lat="44.440652732441016" lon="8.099991610526544"><ele>688.5</ele><time>2026-04-04T13:31:00.999Z</time></trkpt><trkpt lat="44.44076714923995" lon="8.100037253715927"><ele>690.25</ele><time>2026-04-04T13:31:01.999Z</time></trkpt><trkpt lat="44.44088153434701" lon="8.100113819420327"><ele>692.0</ele><time>2026-04-04T13:31:02.999Z</time></trkpt><trkpt lat="44.44098725915135" lon="8.100170678116623"><ele>692.0</ele><time>2026-04-04T13:31:03.999Z</time></trkpt><trkpt lat="44.44108754661709" lon="8.10019576813585"><ele>692.0</ele><time>2026-04-04T13:31:04.999Z</time></trkpt><trkpt lat="44.441181049948156" lon="8.100188941011789"><ele>692.0</ele><time>2026-04-04T13:31:05.999Z</time></trkpt><trkpt lat="44.44126239664939" lon="8.100126100215762"><ele>692.0</ele><time>2026-04-04T13:31:06.999Z</time></trkpt><trkpt lat="44.441332537419406" lon="8.100018453925166"><ele>692.0</ele><time>2026-04-04T13:31:07.999Z</time></trkpt><trkpt lat="44.44136972238225" lon="8.099865162851854"><ele>693.5</ele><time>2026-04-04T13:31:08.999Z</time></trkpt><trkpt lat="44.44138634028395" lon="8.099676669195663"><ele>695.0</ele><time>2026-04-04T13:31:09.999Z</time></trkpt><trkpt lat="44.44141430700015" lon="8.099484494681779"><ele>696.5</ele><time>2026-04-04T13:31:10.999Z</time></trkpt><trkpt lat="44.441450057785346" lon="8.099280910094976"><ele>698.0</ele><time>2026-04-04T13:31:11.999Z</time></trkpt><trkpt lat="44.44148561395633" lon="8.099071088720136"><ele>701.3333333333333</ele><time>2026-04-04T13:31:12.999Z</time></trkpt><trkpt lat="44.44153251509213" lon="8.098856156043238"><ele>704.6666666666666</ele><time>2026-04-04T13:31:13.999Z</time></trkpt><trkpt lat="44.44157683943979" lon="8.09865691430171"><ele>708.0</ele><time>2026-04-04T13:31:14.999Z</time></trkpt><trkpt lat="44.44162542965314" lon="8.098452070787339"><ele>710.0</ele><time>2026-04-04T13:31:15.999Z</time></trkpt><trkpt lat="44.44167999014562" lon="8.098248665476328"><ele>712.0</ele><time>2026-04-04T13:31:16.999Z</time></trkpt><trkpt lat="44.44173872793276" lon="8.098044355197848"><ele>714.0</ele><time>2026-04-04T13:31:17.999Z</time></trkpt><trkpt lat="44.44179595974032" lon="8.097841464305915"><ele>714.0</ele><time>2026-04-04T13:31:18.999Z</time></trkpt><trkpt lat="44.44185560041533" lon="8.097640795584054"><ele>714.0</ele><time>2026-04-04T13:31:19.999Z</time></trkpt><trkpt lat="44.44190372571345" lon="8.09743458099092"><ele>714.0</ele><time>2026-04-04T13:31:20.999Z</time></trkpt><trkpt lat="44.44193248153643" lon="8.09724183685049"><ele>714.0</ele><time>2026-04-04T13:31:21.999Z</time></trkpt><trkpt lat="44.441948180404985" lon="8.097070102857826"><ele>714.0</ele><time>2026-04-04T13:31:22.999Z</time></trkpt><trkpt lat="44.441963423200875" lon="8.096925876642908"><ele>714.0</ele><time>2026-04-04T13:31:23.999Z</time></trkpt><trkpt lat="44.4419539052453" lon="8.096808568465853"><ele>714.0</ele><time>2026-04-04T13:31:24.999Z</time></trkpt><trkpt lat="44.441908909235345" lon="8.09671756703727"><ele>714.0</ele><time>2026-04-04T13:31:25.999Z</time></trkpt><trkpt lat="44.44182276274778" lon="8.096643091037716"><ele>713.6</ele><time>2026-04-04T13:31:26.999Z</time></trkpt><trkpt lat="44.441714560631425" lon="8.096574136588972"><ele>713.2</ele><time>2026-04-04T13:31:27.999Z</time></trkpt><trkpt lat="44.44160103957684" lon="8.09651102115183"><ele>712.8000000000001</ele><time>2026-04-04T13:31:28.999Z</time></trkpt><trkpt lat="44.44149822177197" lon="8.096473847159594"><ele>712.4000000000001</ele><time>2026-04-04T13:31:29.999Z</time></trkpt><trkpt lat="44.44141402735046" lon="8.096466761263583"><ele>712.0</ele><time>2026-04-04T13:31:30.999Z</time></trkpt><trkpt lat="44.44132937555743" lon="8.096510005984127"><ele>714.8</ele><time>2026-04-04T13:31:31.999Z</time></trkpt><trkpt lat="44.44124781480075" lon="8.096596804237116"><ele>717.6</ele><time>2026-04-04T13:31:32.999Z</time></trkpt><trkpt lat="44.44116852250011" lon="8.09671305605455"><ele>720.4</ele><time>2026-04-04T13:31:33.999Z</time></trkpt><trkpt lat="44.44108785965975" lon="8.096842344353608"><ele>723.1999999999999</ele><time>2026-04-04T13:31:34.999Z</time></trkpt><trkpt lat="44.4410119179084" lon="8.096933700162458"><ele>726.0</ele><time>2026-04-04T13:31:35.999Z</time></trkpt><trkpt lat="44.440917153029595" lon="8.096995609551227"><ele>726.0</ele><time>2026-04-04T13:31:36.999Z</time></trkpt><trkpt lat="44.44081794449904" lon="8.097017605701105"><ele>726.0</ele><time>2026-04-04T13:31:37.999Z</time></trkpt><trkpt lat="44.440708169190856" lon="8.097011964654738"><ele>726.0</ele><time>2026-04-04T13:31:38.999Z</time></trkpt><trkpt lat="44.44059786855776" lon="8.09696112728962"><ele>726.0</ele><time>2026-04-04T13:31:39.999Z</time></trkpt><trkpt lat="44.44051231396654" lon="8.096865685835807"><ele>726.0</ele><time>2026-04-04T13:31:40.999Z</time></trkpt><trkpt lat="44.44041114239472" lon="8.096752434804397"><ele>724.5</ele><time>2026-04-04T13:31:41.999Z</time></trkpt><trkpt lat="44.44029235904505" lon="8.096637653241126"><ele>723.0</ele><time>2026-04-04T13:31:42.999Z</time></trkpt><trkpt lat="44.440190113262815" lon="8.09650606620105"><ele>721.5</ele><time>2026-04-04T13:31:43.999Z</time></trkpt><trkpt lat="44.44007631384655" lon="8.096371755259966"><ele>720.0</ele><time>2026-04-04T13:31:44.999Z</time></trkpt><trkpt lat="44.43995387373357" lon="8.09622713780985"><ele>721.6666666666666</ele><time>2026-04-04T13:31:45.999Z</time></trkpt><trkpt lat="44.43982826688005" lon="8.096074680153002"><ele>723.3333333333333</ele><time>2026-04-04T13:31:46.999Z</time></trkpt><trkpt lat="44.43971136766658" lon="8.095934324274769"><ele>725.0</ele><time>2026-04-04T13:31:47.999Z</time></trkpt><trkpt lat="44.439604250769136" lon="8.095804767398551"><ele>729.5</ele><time>2026-04-04T13:31:48.999Z</time></trkpt><trkpt lat="44.43949205750791" lon="8.095688743883022"><ele>734.0</ele><time>2026-04-04T13:31:49.999Z</time></trkpt><trkpt lat="44.439373391297785" lon="8.095600763727592"><ele>738.5</ele><time>2026-04-04T13:31:50.999Z</time></trkpt><trkpt lat="44.439248876411085" lon="8.095538239913378"><ele>743.0</ele><time>2026-04-04T13:31:51.999Z</time></trkpt><trkpt lat="44.43911657026663" lon="8.095498162640991"><ele>743.0</ele><time>2026-04-04T13:31:52.999Z</time></trkpt><trkpt lat="44.438979559337206" lon="8.095470878738647"><ele>743.0</ele><time>2026-04-04T13:31:53.999Z</time></trkpt><trkpt lat="44.43884678833963" lon="8.095460401189124"><ele>743.0</ele><time>2026-04-04T13:31:54.999Z</time></trkpt><trkpt lat="44.438703003356636" lon="8.095464955986174"><ele>743.0</ele><time>2026-04-04T13:31:55.999Z</time></trkpt><trkpt lat="44.438576609892536" lon="8.09546701602064"><ele>742.5</ele><time>2026-04-04T13:31:56.999Z</time></trkpt><trkpt lat="44.43845707031713" lon="8.095461643460206"><ele>742.0</ele><time>2026-04-04T13:31:57.999Z</time></trkpt><trkpt lat="44.43833240857711" lon="8.095463225881113"><ele>741.5</ele><time>2026-04-04T13:31:58.999Z</time></trkpt><trkpt lat="44.438211890958385" lon="8.095406607892508"><ele>741.0</ele><time>2026-04-04T13:31:59.999Z</time></trkpt><trkpt lat="44.43809150595853" lon="8.095352023503295"><ele>740.0</ele><time>2026-04-04T13:32:00.999Z</time></trkpt><trkpt lat="44.43796540314772" lon="8.095305316800049"><ele>739.0</ele><time>2026-04-04T13:32:01.999Z</time></trkpt><trkpt lat="44.43785831813696" lon="8.095230731941662"><ele>738.0</ele><time>2026-04-04T13:32:02.999Z</time></trkpt><trkpt lat="44.43776046209281" lon="8.095163913337329"><ele>737.0</ele><time>2026-04-04T13:32:03.999Z</time></trkpt><trkpt lat="44.437669469994134" lon="8.095103658593823"><ele>737.0</ele><time>2026-04-04T13:32:04.999Z</time></trkpt><trkpt lat="44.43759160946365" lon="8.095046640562574"><ele>737.0</ele><time>2026-04-04T13:32:05.998Z</time></trkpt><trkpt lat="44.43752685481729" lon="8.094980575430489"><ele>737.0</ele><time>2026-04-04T13:32:06.998Z</time></trkpt><trkpt lat="44.43747847916551" lon="8.094901875126576"><ele>737.0</ele><time>2026-04-04T13:32:07.998Z</time></trkpt><trkpt lat="44.43742654351629" lon="8.094755142381963"><ele>737.0</ele><time>2026-04-04T13:32:09.998Z</time></trkpt><trkpt lat="44.437397910841426" lon="8.094629712550905"><ele>735.5</ele><time>2026-04-04T13:32:13.998Z</time></trkpt><trkpt lat="44.43725009523216" lon="8.094574580991063"><ele>734.0</ele><time>2026-04-04T13:32:15.998Z</time></trkpt><trkpt lat="44.4371493740265" lon="8.094567927427365"><ele>732.5</ele><time>2026-04-04T13:32:16.998Z</time></trkpt><trkpt lat="44.437048438963004" lon="8.09456125983941"><ele>731.0</ele><time>2026-04-04T13:32:17.998Z</time></trkpt><trkpt lat="44.4369308527577" lon="8.094541672007468"><ele>730.75</ele><time>2026-04-04T13:32:18.998Z</time></trkpt><trkpt lat="44.4368008768673" lon="8.09451283587866"><ele>730.5</ele><time>2026-04-04T13:32:19.998Z</time></trkpt><trkpt lat="44.43666609618146" lon="8.09446272710284"><ele>730.25</ele><time>2026-04-04T13:32:20.998Z</time></trkpt><trkpt lat="44.436540760333855" lon="8.094415269206197"><ele>730.0</ele><time>2026-04-04T13:32:21.998Z</time></trkpt><trkpt lat="44.4364272556516" lon="8.094381201207021"><ele>730.0</ele><time>2026-04-04T13:32:23Z</time></trkpt><trkpt lat="44.436310011301636" lon="8.094366000508371"><ele>730.0</ele><time>2026-04-04T13:32:24Z</time></trkpt><trkpt lat="44.43618757479866" lon="8.094396846459516"><ele>730.0</ele><time>2026-04-04T13:32:25Z</time></trkpt><trkpt lat="44.43606769173093" lon="8.094469688251158"><ele>730.0</ele><time>2026-04-04T13:32:26Z</time></trkpt><trkpt lat="44.43597083572917" lon="8.094599318495908"><ele>729.0</ele><time>2026-04-04T13:32:27Z</time></trkpt><trkpt lat="44.43588319560262" lon="8.0947343832515"><ele>728.0</ele><time>2026-04-04T13:32:28Z</time></trkpt><trkpt lat="44.4358120043021" lon="8.094902266298595"><ele>727.0</ele><time>2026-04-04T13:32:29Z</time></trkpt><trkpt lat="44.435729642232914" lon="8.095060200435368"><ele>726.0</ele><time>2026-04-04T13:32:30Z</time></trkpt><trkpt lat="44.43565441415302" lon="8.095223551738018"><ele>724.0</ele><time>2026-04-04T13:32:31Z</time></trkpt><trkpt lat="44.43557133122422" lon="8.09538907417712"><ele>722.0</ele><time>2026-04-04T13:32:32Z</time></trkpt><trkpt lat="44.43544826384267" lon="8.095517451499083"><ele>720.0</ele><time>2026-04-04T13:32:33Z</time></trkpt><trkpt lat="44.435301277558764" lon="8.095609139204063"><ele>720.0</ele><time>2026-04-04T13:32:34Z</time></trkpt><trkpt lat="44.43515072127963" lon="8.09563995691312"><ele>720.0</ele><time>2026-04-04T13:32:35Z</time></trkpt><trkpt lat="44.43501331032695" lon="8.095703206314347"><ele>720.0</ele><time>2026-04-04T13:32:36Z</time></trkpt><trkpt lat="44.43487581087204" lon="8.09574710363206"><ele>720.0</ele><time>2026-04-04T13:32:37Z</time></trkpt><trkpt lat="44.434743166637375" lon="8.095834319774761"><ele>720.0</ele><time>2026-04-04T13:32:38Z</time></trkpt><trkpt lat="44.43462807411029" lon="8.095976944870825"><ele>720.0</ele><time>2026-04-04T13:32:39Z</time></trkpt><trkpt lat="44.43451422894382" lon="8.096145110474332"><ele>720.0</ele><time>2026-04-04T13:32:40Z</time></trkpt><trkpt lat="44.43441090301813" lon="8.096353500828672"><ele>720.0</ele><time>2026-04-04T13:32:41Z</time></trkpt><trkpt lat="44.43430584451881" lon="8.09655169764735"><ele>720.0</ele><time>2026-04-04T13:32:42Z</time></trkpt><trkpt lat="44.43419179289734" lon="8.096727482407376"><ele>720.0</ele><time>2026-04-04T13:32:43Z</time></trkpt><trkpt lat="44.43409675640984" lon="8.096904869349784"><ele>721.25</ele><time>2026-04-04T13:32:44Z</time></trkpt><trkpt lat="44.43400558025662" lon="8.097072716810274"><ele>722.5</ele><time>2026-04-04T13:32:45Z</time></trkpt><trkpt lat="44.433921545622155" lon="8.097223430855406"><ele>723.75</ele><time>2026-04-04T13:32:46Z</time></trkpt><trkpt lat="44.433839391418715" lon="8.097369457736699"><ele>725.0</ele><time>2026-04-04T13:32:47Z</time></trkpt><trkpt lat="44.43375210595536" lon="8.097506432079024"><ele>725.0</ele><time>2026-04-04T13:32:48Z</time></trkpt><trkpt lat="44.43364684926959" lon="8.097638681618191"><ele>725.0</ele><time>2026-04-04T13:32:49Z</time></trkpt><trkpt lat="44.433500845021435" lon="8.097700794487428"><ele>725.0</ele><time>2026-04-04T13:32:50Z</time></trkpt><trkpt lat="44.43334516201994" lon="8.09776418730255"><ele>725.0</ele><time>2026-04-04T13:32:51Z</time></trkpt><trkpt lat="44.43320451621499" lon="8.097835701226156"><ele>725.0</ele><time>2026-04-04T13:32:52Z</time></trkpt><trkpt lat="44.433049768360384" lon="8.097871778448113"><ele>725.0</ele><time>2026-04-04T13:32:53Z</time></trkpt><trkpt lat="44.432890931840554" lon="8.097880909458292"><ele>724.25</ele><time>2026-04-04T13:32:54Z</time></trkpt><trkpt lat="44.432746898133004" lon="8.097821836913049"><ele>723.5</ele><time>2026-04-04T13:32:55Z</time></trkpt><trkpt lat="44.43260812809717" lon="8.097790660458326"><ele>722.75</ele><time>2026-04-04T13:32:56Z</time></trkpt><trkpt lat="44.43248006246078" lon="8.097754965725986"><ele>722.0</ele><time>2026-04-04T13:32:57Z</time></trkpt><trkpt lat="44.43234012783612" lon="8.09775474057564"><ele>722.0</ele><time>2026-04-04T13:32:58Z</time></trkpt><trkpt lat="44.43220558608304" lon="8.097771737661132"><ele>722.0</ele><time>2026-04-04T13:32:59Z</time></trkpt><trkpt lat="44.43207672769045" lon="8.097807378423928"><ele>722.0</ele><time>2026-04-04T13:33:00Z</time></trkpt><trkpt lat="44.43194699146122" lon="8.09787784588737"><ele>722.0</ele><time>2026-04-04T13:33:01Z</time></trkpt><trkpt lat="44.43182079761996" lon="8.097998421977127"><ele>724.3333333333333</ele><time>2026-04-04T13:33:02Z</time></trkpt><trkpt lat="44.43167977772842" lon="8.098233709103196"><ele>726.6666666666666</ele><time>2026-04-04T13:33:03Z</time></trkpt><trkpt lat="44.43153486458897" lon="8.098366384239622"><ele>729.0</ele><time>2026-04-04T13:33:03.999Z</time></trkpt><trkpt lat="44.43139742551215" lon="8.098488956321404"><ele>727.75</ele><time>2026-04-04T13:33:04.999Z</time></trkpt><trkpt lat="44.431262876452806" lon="8.09857802993255"><ele>726.5</ele><time>2026-04-04T13:33:05.999Z</time></trkpt><trkpt lat="44.431138852050694" lon="8.098681544784883"><ele>725.25</ele><time>2026-04-04T13:33:06.999Z</time></trkpt><trkpt lat="44.43101788885154" lon="8.098764810452302"><ele>724.0</ele><time>2026-04-04T13:33:07.999Z</time></trkpt><trkpt lat="44.43089268492941" lon="8.09881323636903"><ele>724.0</ele><time>2026-04-04T13:33:08.999Z</time></trkpt><trkpt lat="44.43075638042632" lon="8.098814748443013"><ele>724.0</ele><time>2026-04-04T13:33:09.999Z</time></trkpt><trkpt lat="44.43060533180562" lon="8.09878662760698"><ele>724.0</ele><time>2026-04-04T13:33:10.999Z</time></trkpt><trkpt lat="44.430438967271414" lon="8.098742073606612"><ele>725.3333333333334</ele><time>2026-04-04T13:33:11.999Z</time></trkpt><trkpt lat="44.43027022774919" lon="8.098705879826884"><ele>726.6666666666666</ele><time>2026-04-04T13:33:12.999Z</time></trkpt><trkpt lat="44.43010043359486" lon="8.098679357339517"><ele>728.0</ele><time>2026-04-04T13:33:13.999Z</time></trkpt><trkpt lat="44.4299405970711" lon="8.098691893895815"><ele>728.0</ele><time>2026-04-04T13:33:14.999Z</time></trkpt><trkpt lat="44.42978653890383" lon="8.098711971868063"><ele>728.0</ele><time>2026-04-04T13:33:15.999Z</time></trkpt><trkpt lat="44.42964204389869" lon="8.098764966465126"><ele>728.0</ele><time>2026-04-04T13:33:16.999Z</time></trkpt><trkpt lat="44.42950532523564" lon="8.098818538111688"><ele>728.0</ele><time>2026-04-04T13:33:17.999Z</time></trkpt><trkpt lat="44.429378319671464" lon="8.098810568483879"><ele>727.75</ele><time>2026-04-04T13:33:18.999Z</time></trkpt><trkpt lat="44.42924428017716" lon="8.098780673536002"><ele>727.5</ele><time>2026-04-04T13:33:19.999Z</time></trkpt><trkpt lat="44.429117811142085" lon="8.09870080557446"><ele>727.25</ele><time>2026-04-04T13:33:20.999Z</time></trkpt><trkpt lat="44.4289827469518" lon="8.09859254888229"><ele>727.0</ele><time>2026-04-04T13:33:21.999Z</time></trkpt><trkpt lat="44.428831776309664" lon="8.098460698206488"><ele>727.0</ele><time>2026-04-04T13:33:22.999Z</time></trkpt><trkpt lat="44.4286813122288" lon="8.098318633242819"><ele>727.0</ele><time>2026-04-04T13:33:23.999Z</time></trkpt><trkpt lat="44.42854722703758" lon="8.098163818511818"><ele>727.0</ele><time>2026-04-04T13:33:24.999Z</time></trkpt><trkpt lat="44.42841357221288" lon="8.097998576157972"><ele>727.3333333333334</ele><time>2026-04-04T13:33:25.999Z</time></trkpt><trkpt lat="44.42828914215341" lon="8.097833542635188"><ele>727.6666666666666</ele><time>2026-04-04T13:33:26.999Z</time></trkpt><trkpt lat="44.42817065312122" lon="8.097681088150441"><ele>728.0</ele><time>2026-04-04T13:33:27.999Z</time></trkpt><trkpt lat="44.42805375087418" lon="8.09753423521056"><ele>728.0</ele><time>2026-04-04T13:33:28.999Z</time></trkpt><trkpt lat="44.427916538361885" lon="8.097411121908669"><ele>728.0</ele><time>2026-04-04T13:33:29.999Z</time></trkpt><trkpt lat="44.42777350168378" lon="8.097304351315799"><ele>728.0</ele><time>2026-04-04T13:33:30.999Z</time></trkpt><trkpt lat="44.42762780761229" lon="8.097223401837525"><ele>728.0</ele><time>2026-04-04T13:33:31.999Z</time></trkpt><trkpt lat="44.42747509610572" lon="8.097170279695488"><ele>728.0</ele><time>2026-04-04T13:33:32.999Z</time></trkpt><trkpt lat="44.427312074195214" lon="8.097138642176832"><ele>728.0</ele><time>2026-04-04T13:33:33.999Z</time></trkpt><trkpt lat="44.4271417567517" lon="8.097116145626062"><ele>729.3333333333333</ele><time>2026-04-04T13:33:34.999Z</time></trkpt><trkpt lat="44.42696776426815" lon="8.097094923693712"><ele>730.6666666666666</ele><time>2026-04-04T13:33:35.999Z</time></trkpt><trkpt lat="44.42678510188553" lon="8.0970661138358"><ele>732.0</ele><time>2026-04-04T13:33:36.999Z</time></trkpt><trkpt lat="44.42663023147456" lon="8.097041228022348"><ele>732.0</ele><time>2026-04-04T13:33:37.999Z</time></trkpt><trkpt lat="44.42648598308179" lon="8.096990257812848"><ele>732.0</ele><time>2026-04-04T13:33:38.999Z</time></trkpt><trkpt lat="44.4263505786256" lon="8.096937294986875"><ele>732.0</ele><time>2026-04-04T13:33:39.999Z</time></trkpt><trkpt lat="44.42621040799872" lon="8.096886639792931"><ele>732.0</ele><time>2026-04-04T13:33:40.999Z</time></trkpt><trkpt lat="44.426076616135454" lon="8.096785859358684"><ele>732.5</ele><time>2026-04-04T13:33:41.999Z</time></trkpt><trkpt lat="44.42594014355855" lon="8.096676203340735"><ele>733.0</ele><time>2026-04-04T13:33:42.999Z</time></trkpt><trkpt lat="44.42581859677816" lon="8.09657255414835"><ele>733.5</ele><time>2026-04-04T13:33:43.999Z</time></trkpt><trkpt lat="44.4257054652357" lon="8.096475064354967"><ele>734.0</ele><time>2026-04-04T13:33:44.999Z</time></trkpt><trkpt lat="44.42560985643727" lon="8.096377242297269"><ele>734.2</ele><time>2026-04-04T13:33:45.999Z</time></trkpt><trkpt lat="44.42552769925508" lon="8.09630181312774"><ele>734.4000000000001</ele><time>2026-04-04T13:33:46.999Z</time></trkpt><trkpt lat="44.42545605013273" lon="8.096213111013851"><ele>734.6</ele><time>2026-04-04T13:33:47.999Z</time></trkpt><trkpt lat="44.42539816619914" lon="8.096103726118644"><ele>734.8</ele><time>2026-04-04T13:33:48.999Z</time></trkpt><trkpt lat="44.425343787243555" lon="8.095998649263878"><ele>735.0</ele><time>2026-04-04T13:33:49.999Z</time></trkpt><trkpt lat="44.425274798843084" lon="8.095942288813484"><ele>734.6</ele><time>2026-04-04T13:33:50.999Z</time></trkpt><trkpt lat="44.4251923267739" lon="8.095929114822521"><ele>734.2</ele><time>2026-04-04T13:33:51.999Z</time></trkpt><trkpt lat="44.42509137412094" lon="8.09591696331676"><ele>733.8</ele><time>2026-04-04T13:33:52.999Z</time></trkpt><trkpt lat="44.42497416002528" lon="8.095882863890154"><ele>733.4</ele><time>2026-04-04T13:33:53.999Z</time></trkpt><trkpt lat="44.42484535416255" lon="8.095824463828786"><ele>733.0</ele><time>2026-04-04T13:33:54.999Z</time></trkpt><trkpt lat="44.42471477516413" lon="8.095753212516765"><ele>731.75</ele><time>2026-04-04T13:33:55.999Z</time></trkpt><trkpt lat="44.4245927263956" lon="8.095698605468067"><ele>730.5</ele><time>2026-04-04T13:33:56.999Z</time></trkpt><trkpt lat="44.424483187123684" lon="8.095636682026365"><ele>729.25</ele><time>2026-04-04T13:33:57.999Z</time></trkpt><trkpt lat="44.42437685849479" lon="8.09558357205739"><ele>728.0</ele><time>2026-04-04T13:33:58.999Z</time></trkpt><trkpt lat="44.42428227262479" lon="8.095521143568144"><ele>728.0</ele><time>2026-04-04T13:33:59.999Z</time></trkpt><trkpt lat="44.42419804739302" lon="8.095465616460018"><ele>728.0</ele><time>2026-04-04T13:34:00.999Z</time></trkpt><trkpt lat="44.424139078462616" lon="8.095414407332573"><ele>728.0</ele><time>2026-04-04T13:34:01.999Z</time></trkpt><trkpt lat="44.424083296651204" lon="8.095370123181084"><ele>728.0</ele><time>2026-04-04T13:34:02.999Z</time></trkpt><trkpt lat="44.4239788107033" lon="8.095322766126387"><ele>728.0</ele><time>2026-04-04T13:34:04.999Z</time></trkpt><trkpt lat="44.4238917870538" lon="8.09536211099167"><ele>728.0</ele><time>2026-04-04T13:34:06.999Z</time></trkpt><trkpt lat="44.42385681478013" lon="8.095436858770615"><ele>728.0</ele><time>2026-04-04T13:34:09.999Z</time></trkpt><trkpt lat="44.423942602222084" lon="8.095498149076796"><ele>728.0</ele><time>2026-04-04T13:34:10.999Z</time></trkpt><trkpt lat="44.424047801067154" lon="8.095514099256318"><ele>728.0</ele><time>2026-04-04T13:34:12.998Z</time></trkpt><trkpt lat="44.4241079762504" lon="8.095568481199502"><ele>728.0</ele><time>2026-04-04T13:34:14.998Z</time></trkpt><trkpt lat="44.42416615395689" lon="8.095545496444517"><ele>728.0</ele><time>2026-04-04T13:40:58Z</time></trkpt><trkpt lat="44.42422702942348" lon="8.095571920659486"><ele>728.0</ele><time>2026-04-04T13:41:04Z</time></trkpt><trkpt lat="44.42421700594943" lon="8.095682600852776"><ele>728.0</ele><time>2026-04-04T13:41:06Z</time></trkpt><trkpt lat="44.42433212655256" lon="8.095813881956362"><ele>728.0</ele><time>2026-04-04T13:41:07Z</time></trkpt><trkpt lat="44.4241935187538" lon="8.095809991732253"><ele>728.0</ele><time>2026-04-04T13:41:08Z</time></trkpt><trkpt lat="44.424028127039" lon="8.095299560560276"><ele>728.0</ele><time>2026-04-04T13:41:09Z</time></trkpt><trkpt lat="44.423920529127315" lon="8.0952033560799"><ele>728.0</ele><time>2026-04-04T13:41:10Z</time></trkpt><trkpt lat="44.42380487983486" lon="8.095111317967184"><ele>728.0</ele><time>2026-04-04T13:41:11Z</time></trkpt><trkpt lat="44.42369086611653" lon="8.09502411902916"><ele>728.0</ele><time>2026-04-04T13:41:12Z</time></trkpt><trkpt lat="44.42356938837392" lon="8.094921269786495"><ele>727.6666666666666</ele><time>2026-04-04T13:41:13Z</time></trkpt><trkpt lat="44.42344646106559" lon="8.094790452454045"><ele>727.3333333333334</ele><time>2026-04-04T13:41:14Z</time></trkpt><trkpt lat="44.42332913156991" lon="8.094627686020864"><ele>727.0</ele><time>2026-04-04T13:41:15Z</time></trkpt><trkpt lat="44.4232190859686" lon="8.094459653376168"><ele>727.0</ele><time>2026-04-04T13:41:16Z</time></trkpt><trkpt lat="44.42313136798051" lon="8.09431307215648"><ele>727.0</ele><time>2026-04-04T13:41:17Z</time></trkpt><trkpt lat="44.42305262021221" lon="8.094171492718376"><ele>727.0</ele><time>2026-04-04T13:41:18Z</time></trkpt><trkpt lat="44.42297554387216" lon="8.094011082341394"><ele>727.0</ele><time>2026-04-04T13:41:19Z</time></trkpt><trkpt lat="44.42293061139424" lon="8.093876104261689"><ele>726.75</ele><time>2026-04-04T13:41:20Z</time></trkpt><trkpt lat="44.422829421359474" lon="8.093749839397573"><ele>726.5</ele><time>2026-04-04T13:41:21Z</time></trkpt><trkpt lat="44.422725616312015" lon="8.093643074444879"><ele>726.25</ele><time>2026-04-04T13:41:22Z</time></trkpt><trkpt lat="44.42260746145965" lon="8.09355541569115"><ele>726.0</ele><time>2026-04-04T13:41:23Z</time></trkpt><trkpt lat="44.42247077995651" lon="8.093504841518802"><ele>726.0</ele><time>2026-04-04T13:41:24Z</time></trkpt><trkpt lat="44.42233039334698" lon="8.093480145400504"><ele>726.0</ele><time>2026-04-04T13:41:25Z</time></trkpt><trkpt lat="44.422185777162" lon="8.093448576993268"><ele>726.0</ele><time>2026-04-04T13:41:26Z</time></trkpt><trkpt lat="44.42203954692191" lon="8.09341800947154"><ele>726.0</ele><time>2026-04-04T13:41:27Z</time></trkpt><trkpt lat="44.42191014350635" lon="8.093390196572715"><ele>725.5</ele><time>2026-04-04T13:41:28Z</time></trkpt><trkpt lat="44.42178597247523" lon="8.093359130264517"><ele>725.0</ele><time>2026-04-04T13:41:29Z</time></trkpt><trkpt lat="44.421660206054185" lon="8.093302605434866"><ele>724.5</ele><time>2026-04-04T13:41:30Z</time></trkpt><trkpt lat="44.42154215489525" lon="8.09320905352676"><ele>724.0</ele><time>2026-04-04T13:41:30.999Z</time></trkpt><trkpt lat="44.42145525269327" lon="8.093060252063362"><ele>724.0</ele><time>2026-04-04T13:41:31.999Z</time></trkpt><trkpt lat="44.42136808660617" lon="8.092903286062556"><ele>724.0</ele><time>2026-04-04T13:41:32.999Z</time></trkpt><trkpt lat="44.42131095390545" lon="8.09272304677641"><ele>724.0</ele><time>2026-04-04T13:41:33.999Z</time></trkpt><trkpt lat="44.42127036815148" lon="8.092526931979295"><ele>724.0</ele><time>2026-04-04T13:41:34.999Z</time></trkpt><trkpt lat="44.42123510840759" lon="8.092334346426682"><ele>724.75</ele><time>2026-04-04T13:41:35.999Z</time></trkpt><trkpt lat="44.4211928016284" lon="8.092169315799499"><ele>725.5</ele><time>2026-04-04T13:41:36.999Z</time></trkpt><trkpt lat="44.42115295748088" lon="8.092015227022808"><ele>726.25</ele><time>2026-04-04T13:41:37.999Z</time></trkpt><trkpt lat="44.42109033732374" lon="8.091887456011799"><ele>727.0</ele><time>2026-04-04T13:41:38.999Z</time></trkpt><trkpt lat="44.42100650918162" lon="8.09177781539516"><ele>727.0</ele><time>2026-04-04T13:41:39.999Z</time></trkpt><trkpt lat="44.42089826777158" lon="8.091732069480996"><ele>727.0</ele><time>2026-04-04T13:41:40.999Z</time></trkpt><trkpt lat="44.42075430791539" lon="8.091755599660182"><ele>727.0</ele><time>2026-04-04T13:41:41.999Z</time></trkpt><trkpt lat="44.420609644570234" lon="8.091799480873489"><ele>727.0</ele><time>2026-04-04T13:41:42.999Z</time></trkpt><trkpt lat="44.42046805108779" lon="8.091890134633312"><ele>724.3333333333334</ele><time>2026-04-04T13:41:43.999Z</time></trkpt><trkpt lat="44.420290633249024" lon="8.091961095391898"><ele>721.6666666666666</ele><time>2026-04-04T13:41:44.999Z</time></trkpt><trkpt lat="44.42010576588827" lon="8.092042363078766"><ele>719.0</ele><time>2026-04-04T13:41:45.999Z</time></trkpt><trkpt lat="44.419904986450156" lon="8.092128158636246"><ele>719.0</ele><time>2026-04-04T13:41:46.999Z</time></trkpt><trkpt lat="44.419812299246665" lon="8.092167511648634"><ele>719.0</ele><time>2026-04-04T13:41:47.999Z</time></trkpt><trkpt lat="44.41969034440317" lon="8.092212448136133"><ele>719.0</ele><time>2026-04-04T13:41:48.999Z</time></trkpt><trkpt lat="44.41955397341551" lon="8.09223857868179"><ele>719.0</ele><time>2026-04-04T13:41:49.999Z</time></trkpt><trkpt lat="44.41940780026896" lon="8.092238340001959"><ele>719.0</ele><time>2026-04-04T13:41:50.999Z</time></trkpt><trkpt lat="44.41924861642198" lon="8.092178535406246"><ele>719.0</ele><time>2026-04-04T13:41:51.999Z</time></trkpt><trkpt lat="44.41908724322857" lon="8.092095284564826"><ele>719.0</ele><time>2026-04-04T13:41:52.999Z</time></trkpt><trkpt lat="44.41894672875947" lon="8.092019446809177"><ele>722.6666666666666</ele><time>2026-04-04T13:41:53.999Z</time></trkpt><trkpt lat="44.41881014333861" lon="8.091931750828248"><ele>726.3333333333334</ele><time>2026-04-04T13:41:54.999Z</time></trkpt><trkpt lat="44.418674982984456" lon="8.091800884621001"><ele>730.0</ele><time>2026-04-04T13:41:55.999Z</time></trkpt><trkpt lat="44.41854794295642" lon="8.091642242582266"><ele>727.6666666666667</ele><time>2026-04-04T13:41:56.999Z</time></trkpt><trkpt lat="44.418443870011245" lon="8.091458771472851"><ele>725.3333333333334</ele><time>2026-04-04T13:41:57.999Z</time></trkpt><trkpt lat="44.41835234975105" lon="8.091285988346002"><ele>723.0</ele><time>2026-04-04T13:41:58.999Z</time></trkpt><trkpt lat="44.418268308050365" lon="8.091127324172632"><ele>723.0</ele><time>2026-04-04T13:41:59.999Z</time></trkpt><trkpt lat="44.418197110140405" lon="8.090977047649458"><ele>723.0</ele><time>2026-04-04T13:42:00.999Z</time></trkpt><trkpt lat="44.41813431413327" lon="8.0908246835714"><ele>723.0</ele><time>2026-04-04T13:42:01.999Z</time></trkpt><trkpt lat="44.41812739152819" lon="8.090626078317605"><ele>723.0</ele><time>2026-04-04T13:42:02.999Z</time></trkpt><trkpt lat="44.4181312254728" lon="8.0903983885948"><ele>722.0</ele><time>2026-04-04T13:42:03.999Z</time></trkpt><trkpt lat="44.418136003955716" lon="8.090162829058338"><ele>721.0</ele><time>2026-04-04T13:42:04.999Z</time></trkpt><trkpt lat="44.41813953304229" lon="8.089959402247562"><ele>720.0</ele><time>2026-04-04T13:42:05.999Z</time></trkpt><trkpt lat="44.41813492109351" lon="8.089776674939873"><ele>719.0</ele><time>2026-04-04T13:42:06.999Z</time></trkpt><trkpt lat="44.418096585296254" lon="8.089614819880877"><ele>717.0</ele><time>2026-04-04T13:42:07.999Z</time></trkpt><trkpt lat="44.41803734496494" lon="8.089481674659865"><ele>715.0</ele><time>2026-04-04T13:42:08.999Z</time></trkpt><trkpt lat="44.417944447905825" lon="8.089376134814476"><ele>713.0</ele><time>2026-04-04T13:42:09.999Z</time></trkpt><trkpt lat="44.41782107333223" lon="8.089276497203633"><ele>711.0</ele><time>2026-04-04T13:42:10.999Z</time></trkpt><trkpt lat="44.417697893883826" lon="8.08914231195408"><ele>711.75</ele><time>2026-04-04T13:42:11.999Z</time></trkpt><trkpt lat="44.41758006070059" lon="8.08899935919423"><ele>712.5</ele><time>2026-04-04T13:42:12.999Z</time></trkpt><trkpt lat="44.41748225142129" lon="8.088860459533306"><ele>713.25</ele><time>2026-04-04T13:42:13.999Z</time></trkpt><trkpt lat="44.4173907675539" lon="8.088720203798173"><ele>714.0</ele><time>2026-04-04T13:42:14.999Z</time></trkpt><trkpt lat="44.417317962942256" lon="8.088611639057575"><ele>714.0</ele><time>2026-04-04T13:42:15.999Z</time></trkpt><trkpt lat="44.41724303617424" lon="8.088525976036998"><ele>714.0</ele><time>2026-04-04T13:42:16.999Z</time></trkpt><trkpt lat="44.417191691963076" lon="8.088450401333322"><ele>714.0</ele><time>2026-04-04T13:42:17.999Z</time></trkpt><trkpt lat="44.41714149348074" lon="8.088373850324516"><ele>714.0</ele><time>2026-04-04T13:42:19.999Z</time></trkpt><trkpt lat="44.41707874924918" lon="8.08833034172694"><ele>714.0</ele><time>2026-04-04T13:42:58Z</time></trkpt><trkpt lat="44.4169381306103" lon="8.08832161303738"><ele>714.5</ele><time>2026-04-04T13:43:00Z</time></trkpt><trkpt lat="44.416839805645395" lon="8.088347580364639"><ele>715.0</ele><time>2026-04-04T13:43:01Z</time></trkpt><trkpt lat="44.4167453273369" lon="8.08840241745285"><ele>715.5</ele><time>2026-04-04T13:43:02Z</time></trkpt><trkpt lat="44.41664483792486" lon="8.088497546541815"><ele>716.0</ele><time>2026-04-04T13:43:03Z</time></trkpt><trkpt lat="44.41653974325248" lon="8.088607096412476"><ele>716.0</ele><time>2026-04-04T13:43:04Z</time></trkpt><trkpt lat="44.41642913820343" lon="8.088716083061142"><ele>716.0</ele><time>2026-04-04T13:43:05Z</time></trkpt><trkpt lat="44.41629493618213" lon="8.088837430534392"><ele>716.0</ele><time>2026-04-04T13:43:06Z</time></trkpt><trkpt lat="44.41614722646974" lon="8.088970393512145"><ele>716.0</ele><time>2026-04-04T13:43:07Z</time></trkpt><trkpt lat="44.41602886611193" lon="8.089076884746516"><ele>716.0</ele><time>2026-04-04T13:43:08Z</time></trkpt><trkpt lat="44.41592504130141" lon="8.089221213979183"><ele>716.0</ele><time>2026-04-04T13:43:09Z</time></trkpt><trkpt lat="44.41582249052861" lon="8.089366523670682"><ele>716.0</ele><time>2026-04-04T13:43:10Z</time></trkpt><trkpt lat="44.41570692577569" lon="8.089481473464584"><ele>716.0</ele><time>2026-04-04T13:43:11Z</time></trkpt><trkpt lat="44.41554742424061" lon="8.089544828911254"><ele>716.0</ele><time>2026-04-04T13:43:12Z</time></trkpt><trkpt lat="44.415390081809505" lon="8.089606992220178"><ele>716.0</ele><time>2026-04-04T13:43:13Z</time></trkpt><trkpt lat="44.41522962117456" lon="8.089672117806044"><ele>710.6666666666666</ele><time>2026-04-04T13:43:14Z</time></trkpt><trkpt lat="44.415069595434545" lon="8.089707993266869"><ele>705.3333333333334</ele><time>2026-04-04T13:43:15Z</time></trkpt><trkpt lat="44.41492036405331" lon="8.089736491530571"><ele>700.0</ele><time>2026-04-04T13:43:16Z</time></trkpt><trkpt lat="44.41478569293413" lon="8.089773392464076"><ele>700.0</ele><time>2026-04-04T13:43:17Z</time></trkpt><trkpt lat="44.41466224557433" lon="8.089844028202556"><ele>700.0</ele><time>2026-04-04T13:43:18Z</time></trkpt><trkpt lat="44.41454739152562" lon="8.089972797458493"><ele>700.0</ele><time>2026-04-04T13:43:19Z</time></trkpt><trkpt lat="44.41443912192472" lon="8.090141745622105"><ele>700.0</ele><time>2026-04-04T13:43:20Z</time></trkpt><trkpt lat="44.41432946697749" lon="8.090324615468841"><ele>702.0</ele><time>2026-04-04T13:43:21Z</time></trkpt><trkpt lat="44.41418295852601" lon="8.090440108891489"><ele>704.0</ele><time>2026-04-04T13:43:22Z</time></trkpt><trkpt lat="44.4140251362942" lon="8.090535433684451"><ele>706.0</ele><time>2026-04-04T13:43:23Z</time></trkpt><trkpt lat="44.41386203973032" lon="8.090622579701902"><ele>707.25</ele><time>2026-04-04T13:43:23.999Z</time></trkpt><trkpt lat="44.41372456517512" lon="8.090710050381114"><ele>708.5</ele><time>2026-04-04T13:43:24.999Z</time></trkpt><trkpt lat="44.41359313358074" lon="8.090781359592132"><ele>709.75</ele><time>2026-04-04T13:43:25.999Z</time></trkpt><trkpt lat="44.41346267648766" lon="8.090889861539416"><ele>711.0</ele><time>2026-04-04T13:43:26.999Z</time></trkpt><trkpt lat="44.413331247382615" lon="8.091035120665495"><ele>711.0</ele><time>2026-04-04T13:43:27.999Z</time></trkpt><trkpt lat="44.41321181405577" lon="8.091198981498025"><ele>711.0</ele><time>2026-04-04T13:43:28.999Z</time></trkpt><trkpt lat="44.41310283693616" lon="8.091338737705502"><ele>711.0</ele><time>2026-04-04T13:43:29.999Z</time></trkpt><trkpt lat="44.4129850170375" lon="8.09148329443497"><ele>710.6666666666666</ele><time>2026-04-04T13:43:30.999Z</time></trkpt><trkpt lat="44.41283365611692" lon="8.091566988575046"><ele>710.3333333333333</ele><time>2026-04-04T13:43:31.999Z</time></trkpt><trkpt lat="44.41267053792489" lon="8.09162867892317"><ele>710.0</ele><time>2026-04-04T13:43:32.999Z</time></trkpt><trkpt lat="44.412501229353325" lon="8.09168841077782"><ele>710.0</ele><time>2026-04-04T13:43:33.999Z</time></trkpt><trkpt lat="44.41235615742088" lon="8.091741352974864"><ele>710.0</ele><time>2026-04-04T13:43:34.999Z</time></trkpt><trkpt lat="44.41221302400847" lon="8.091796410762484"><ele>710.0</ele><time>2026-04-04T13:43:35.999Z</time></trkpt><trkpt lat="44.41207138795726" lon="8.09187426736712"><ele>705.5</ele><time>2026-04-04T13:43:36.999Z</time></trkpt><trkpt lat="44.41193655701478" lon="8.091964136561645"><ele>701.0</ele><time>2026-04-04T13:43:37.999Z</time></trkpt><trkpt lat="44.41182066447378" lon="8.092064331669215"><ele>696.5</ele><time>2026-04-04T13:43:38.999Z</time></trkpt><trkpt lat="44.41171780822843" lon="8.092204588089357"><ele>692.0</ele><time>2026-04-04T13:43:39.999Z</time></trkpt><trkpt lat="44.41163724230196" lon="8.092378359552107"><ele>696.6666666666666</ele><time>2026-04-04T13:43:40.999Z</time></trkpt><trkpt lat="44.41157831017329" lon="8.092592793837044"><ele>701.3333333333334</ele><time>2026-04-04T13:43:41.999Z</time></trkpt><trkpt lat="44.411531010510416" lon="8.092826663601898"><ele>706.0</ele><time>2026-04-04T13:43:42.999Z</time></trkpt><trkpt lat="44.41147352295339" lon="8.093076212388251"><ele>705.3333333333334</ele><time>2026-04-04T13:43:43.999Z</time></trkpt><trkpt lat="44.41136600510426" lon="8.093306712469516"><ele>704.6666666666666</ele><time>2026-04-04T13:43:44.999Z</time></trkpt><trkpt lat="44.411249507362086" lon="8.093547351165403"><ele>704.0</ele><time>2026-04-04T13:43:45.999Z</time></trkpt><trkpt lat="44.41113790742383" lon="8.093802860828843"><ele>702.6666666666666</ele><time>2026-04-04T13:43:46.999Z</time></trkpt><trkpt lat="44.41101134339648" lon="8.09403206232726"><ele>701.3333333333334</ele><time>2026-04-04T13:43:47.999Z</time></trkpt><trkpt lat="44.41089013135118" lon="8.094257458691894"><ele>700.0</ele><time>2026-04-04T13:43:48.999Z</time></trkpt><trkpt lat="44.41077171389448" lon="8.094483253925015"><ele>700.0</ele><time>2026-04-04T13:43:49.999Z</time></trkpt><trkpt lat="44.41065332043793" lon="8.094712014336526"><ele>700.0</ele><time>2026-04-04T13:43:50.999Z</time></trkpt><trkpt lat="44.41053362274063" lon="8.094938254609511"><ele>700.0</ele><time>2026-04-04T13:43:51.999Z</time></trkpt><trkpt lat="44.41041533215897" lon="8.095161487832263"><ele>700.6666666666667</ele><time>2026-04-04T13:43:52.999Z</time></trkpt><trkpt lat="44.41030911126681" lon="8.095376913122761"><ele>701.3333333333334</ele><time>2026-04-04T13:43:53.999Z</time></trkpt><trkpt lat="44.41021365947582" lon="8.095593685632979"><ele>702.0</ele><time>2026-04-04T13:43:54.999Z</time></trkpt><trkpt lat="44.41012492163902" lon="8.095827016064215"><ele>705.6666666666666</ele><time>2026-04-04T13:43:55.999Z</time></trkpt><trkpt lat="44.41005120946838" lon="8.09606281601376"><ele>709.3333333333333</ele><time>2026-04-04T13:43:56.999Z</time></trkpt><trkpt lat="44.409992039539965" lon="8.096285310944268"><ele>713.0</ele><time>2026-04-04T13:43:57.999Z</time></trkpt><trkpt lat="44.409942370516006" lon="8.096498701184084"><ele>715.6666666666666</ele><time>2026-04-04T13:43:58.999Z</time></trkpt><trkpt lat="44.40990873031231" lon="8.096718929813846"><ele>718.3333333333334</ele><time>2026-04-04T13:43:59.999Z</time></trkpt><trkpt lat="44.40990100532852" lon="8.096933937447492"><ele>721.0</ele><time>2026-04-04T13:44:00.999Z</time></trkpt><trkpt lat="44.40992620024295" lon="8.097152502566452"><ele>721.0</ele><time>2026-04-04T13:44:01.999Z</time></trkpt><trkpt lat="44.409979499249424" lon="8.097381527748277"><ele>721.0</ele><time>2026-04-04T13:44:02.999Z</time></trkpt><trkpt lat="44.410052193130966" lon="8.097624086731088"><ele>721.0</ele><time>2026-04-04T13:44:03.999Z</time></trkpt><trkpt lat="44.41013818434551" lon="8.097871000784394"><ele>722.0</ele><time>2026-04-04T13:44:04.999Z</time></trkpt><trkpt lat="44.41022927821674" lon="8.09811788761364"><ele>723.0</ele><time>2026-04-04T13:44:05.999Z</time></trkpt><trkpt lat="44.41032535932476" lon="8.098354843072169"><ele>724.0</ele><time>2026-04-04T13:44:06.999Z</time></trkpt><trkpt lat="44.41042161362077" lon="8.098585704512553"><ele>725.0</ele><time>2026-04-04T13:44:07.999Z</time></trkpt><trkpt lat="44.4105067160277" lon="8.098798202143186"><ele>726.0</ele><time>2026-04-04T13:44:08.999Z</time></trkpt><trkpt lat="44.41057520984381" lon="8.098985204476422"><ele>727.0</ele><time>2026-04-04T13:44:09.999Z</time></trkpt><trkpt lat="44.410616631791264" lon="8.09916115738552"><ele>727.0</ele><time>2026-04-04T13:44:10.999Z</time></trkpt><trkpt lat="44.41062866782522" lon="8.099341616466456"><ele>727.0</ele><time>2026-04-04T13:44:11.999Z</time></trkpt><trkpt lat="44.41058029213028" lon="8.099525119283568"><ele>727.0</ele><time>2026-04-04T13:44:12.999Z</time></trkpt><trkpt lat="44.41053266236931" lon="8.099743709256039"><ele>727.0</ele><time>2026-04-04T13:44:13.999Z</time></trkpt><trkpt lat="44.410450906305414" lon="8.099969142295423"><ele>721.6666666666667</ele><time>2026-04-04T13:44:14.999Z</time></trkpt><trkpt lat="44.4103693276969" lon="8.100203204776982"><ele>716.3333333333334</ele><time>2026-04-04T13:44:15.999Z</time></trkpt><trkpt lat="44.410290034115185" lon="8.100436948869437"><ele>711.0</ele><time>2026-04-04T13:44:16.999Z</time></trkpt><trkpt lat="44.41021921542262" lon="8.100650114728808"><ele>714.6666666666666</ele><time>2026-04-04T13:44:17.999Z</time></trkpt><trkpt lat="44.4101328092558" lon="8.100847113369605"><ele>718.3333333333333</ele><time>2026-04-04T13:44:18.999Z</time></trkpt><trkpt lat="44.4100317646592" lon="8.101042130624018"><ele>722.0</ele><time>2026-04-04T13:44:19.999Z</time></trkpt><trkpt lat="44.409930085959246" lon="8.101228527734309"><ele>722.0</ele><time>2026-04-04T13:44:20.999Z</time></trkpt><trkpt lat="44.409836396030336" lon="8.101421018651807"><ele>722.0</ele><time>2026-04-04T13:44:21.999Z</time></trkpt><trkpt lat="44.40976847144507" lon="8.10162775241993"><ele>722.0</ele><time>2026-04-04T13:44:22.999Z</time></trkpt><trkpt lat="44.409720578342046" lon="8.101864081680954"><ele>722.3333333333333</ele><time>2026-04-04T13:44:23.999Z</time></trkpt><trkpt lat="44.40968258479542" lon="8.102117049455392"><ele>722.6666666666666</ele><time>2026-04-04T13:44:24.999Z</time></trkpt><trkpt lat="44.409641962942615" lon="8.102390494828967"><ele>723.0</ele><time>2026-04-04T13:44:25.999Z</time></trkpt><trkpt lat="44.40960208039216" lon="8.102614308084206"><ele>719.0</ele><time>2026-04-04T13:44:26.999Z</time></trkpt><trkpt lat="44.40957689622607" lon="8.102842330006101"><ele>715.0</ele><time>2026-04-04T13:44:27.999Z</time></trkpt><trkpt lat="44.409555823382846" lon="8.10305575909248"><ele>711.0</ele><time>2026-04-04T13:44:28.999Z</time></trkpt><trkpt lat="44.409527425329756" lon="8.10327464286517"><ele>711.0</ele><time>2026-04-04T13:44:29.999Z</time></trkpt><trkpt lat="44.40949050700347" lon="8.103491952127296"><ele>711.0</ele><time>2026-04-04T13:44:30.998Z</time></trkpt><trkpt lat="44.4094508398144" lon="8.103688072673172"><ele>711.0</ele><time>2026-04-04T13:44:31.998Z</time></trkpt><trkpt lat="44.40942584224666" lon="8.103903901588799"><ele>712.25</ele><time>2026-04-04T13:44:32.998Z</time></trkpt><trkpt lat="44.4094174576755" lon="8.104080053861615"><ele>713.5</ele><time>2026-04-04T13:44:33.998Z</time></trkpt><trkpt lat="44.409412376209254" lon="8.104273249310275"><ele>714.75</ele><time>2026-04-04T13:44:34.998Z</time></trkpt><trkpt lat="44.409397706621334" lon="8.104438219223159"><ele>716.0</ele><time>2026-04-04T13:44:35.998Z</time></trkpt><trkpt lat="44.40936924255731" lon="8.104637596281206"><ele>716.0</ele><time>2026-04-04T13:44:36.998Z</time></trkpt><trkpt lat="44.409337783913436" lon="8.10480936030903"><ele>716.0</ele><time>2026-04-04T13:44:37.998Z</time></trkpt><trkpt lat="44.40929509324302" lon="8.10495972945356"><ele>716.0</ele><time>2026-04-04T13:44:38.998Z</time></trkpt><trkpt lat="44.40921887835755" lon="8.105077001292962"><ele>716.0</ele><time>2026-04-04T13:44:39.998Z</time></trkpt><trkpt lat="44.40914487504649" lon="8.105216460336274"><ele>717.0</ele><time>2026-04-04T13:44:40.998Z</time></trkpt><trkpt lat="44.40906842317902" lon="8.10534820786118"><ele>718.0</ele><time>2026-04-04T13:44:41.998Z</time></trkpt><trkpt lat="44.40900897782665" lon="8.105525654726163"><ele>719.0</ele><time>2026-04-04T13:44:42.998Z</time></trkpt><trkpt lat="44.4089462887284" lon="8.105688681732758"><ele>720.0</ele><time>2026-04-04T13:44:43.998Z</time></trkpt><trkpt lat="44.408859131033815" lon="8.105814584360688"><ele>718.25</ele><time>2026-04-04T13:44:44.998Z</time></trkpt><trkpt lat="44.40875430739562" lon="8.105916954430866"><ele>716.5</ele><time>2026-04-04T13:44:45.998Z</time></trkpt><trkpt lat="44.40861692395756" lon="8.105964740454814"><ele>714.75</ele><time>2026-04-04T13:44:46.998Z</time></trkpt><trkpt lat="44.40848360568651" lon="8.106010235727592"><ele>713.0</ele><time>2026-04-04T13:44:47.998Z</time></trkpt><trkpt lat="44.4083671706559" lon="8.106075763194193"><ele>713.0</ele><time>2026-04-04T13:44:48.998Z</time></trkpt><trkpt lat="44.40826539230598" lon="8.106143690776056"><ele>713.0</ele><time>2026-04-04T13:44:49.998Z</time></trkpt><trkpt lat="44.408161417196894" lon="8.106273448338403"><ele>713.0</ele><time>2026-04-04T13:44:50.998Z</time></trkpt><trkpt lat="44.40806411643207" lon="8.10643488594706"><ele>713.0</ele><time>2026-04-04T13:44:51.998Z</time></trkpt><trkpt lat="44.40795565764806" lon="8.106599477067112"><ele>712.0</ele><time>2026-04-04T13:44:52.998Z</time></trkpt><trkpt lat="44.40783440790906" lon="8.106746244079584"><ele>711.0</ele><time>2026-04-04T13:44:53.998Z</time></trkpt><trkpt lat="44.40767553306962" lon="8.10683182328804"><ele>710.0</ele><time>2026-04-04T13:44:54.998Z</time></trkpt><trkpt lat="44.40751708548993" lon="8.106934132866956"><ele>710.0</ele><time>2026-04-04T13:44:55.998Z</time></trkpt><trkpt lat="44.40736733757664" lon="8.107045126093967"><ele>710.0</ele><time>2026-04-04T13:44:56.998Z</time></trkpt><trkpt lat="44.407223745645716" lon="8.107133259035374"><ele>710.0</ele><time>2026-04-04T13:44:57.998Z</time></trkpt><trkpt lat="44.40708875780491" lon="8.107233582955152"><ele>710.3333333333333</ele><time>2026-04-04T13:44:58.999Z</time></trkpt><trkpt lat="44.40696356965364" lon="8.107360598841225"><ele>710.6666666666666</ele><time>2026-04-04T13:44:59.999Z</time></trkpt><trkpt lat="44.40684861762909" lon="8.107519841865864"><ele>711.0</ele><time>2026-04-04T13:45:00.999Z</time></trkpt><trkpt lat="44.4067400462201" lon="8.107701131215055"><ele>711.0</ele><time>2026-04-04T13:45:01.999Z</time></trkpt><trkpt lat="44.40662771222292" lon="8.107895640211582"><ele>711.0</ele><time>2026-04-04T13:45:02.999Z</time></trkpt><trkpt lat="44.40651278491815" lon="8.108089201008104"><ele>711.0</ele><time>2026-04-04T13:45:03.999Z</time></trkpt><trkpt lat="44.40639724527518" lon="8.10828797844876"><ele>707.6666666666666</ele><time>2026-04-04T13:45:04.999Z</time></trkpt><trkpt lat="44.40628547102447" lon="8.108477616336252"><ele>704.3333333333333</ele><time>2026-04-04T13:45:05.999Z</time></trkpt><trkpt lat="44.40616315376784" lon="8.108655655803886"><ele>701.0</ele><time>2026-04-04T13:45:06.999Z</time></trkpt><trkpt lat="44.406044190443076" lon="8.108817342161055"><ele>701.0</ele><time>2026-04-04T13:45:07.999Z</time></trkpt><trkpt lat="44.40593143191505" lon="8.10898027435186"><ele>701.0</ele><time>2026-04-04T13:45:08.999Z</time></trkpt><trkpt lat="44.405815032277054" lon="8.109138692487566"><ele>701.0</ele><time>2026-04-04T13:45:09.999Z</time></trkpt><trkpt lat="44.40569588809024" lon="8.109284153805943"><ele>698.6666666666666</ele><time>2026-04-04T13:45:10.999Z</time></trkpt><trkpt lat="44.40557418864893" lon="8.109427472297904"><ele>696.3333333333334</ele><time>2026-04-04T13:45:11.999Z</time></trkpt><trkpt lat="44.405455264392394" lon="8.10956157828745"><ele>694.0</ele><time>2026-04-04T13:45:12.999Z</time></trkpt><trkpt lat="44.40532946398297" lon="8.109694305814637"><ele>694.0</ele><time>2026-04-04T13:45:13.999Z</time></trkpt><trkpt lat="44.40522018663005" lon="8.109830864608638"><ele>694.0</ele><time>2026-04-04T13:45:14.999Z</time></trkpt><trkpt lat="44.40511670698683" lon="8.109999996825305"><ele>694.0</ele><time>2026-04-04T13:45:15.999Z</time></trkpt><trkpt lat="44.405031633875744" lon="8.110197138111669"><ele>698.6666666666667</ele><time>2026-04-04T13:45:16.999Z</time></trkpt><trkpt lat="44.40495752654692" lon="8.110421666566221"><ele>703.3333333333334</ele><time>2026-04-04T13:45:17.999Z</time></trkpt><trkpt lat="44.40488362202687" lon="8.110640962175337"><ele>708.0</ele><time>2026-04-04T13:45:18.999Z</time></trkpt><trkpt lat="44.40480217459495" lon="8.110841580059699"><ele>709.6666666666666</ele><time>2026-04-04T13:45:19.999Z</time></trkpt><trkpt lat="44.40471293304669" lon="8.111025454691381"><ele>711.3333333333333</ele><time>2026-04-04T13:45:20.999Z</time></trkpt><trkpt lat="44.404596022348905" lon="8.111193977868144"><ele>713.0</ele><time>2026-04-04T13:45:21.999Z</time></trkpt><trkpt lat="44.40449166067362" lon="8.111366956548721"><ele>709.6666666666666</ele><time>2026-04-04T13:45:22.999Z</time></trkpt><trkpt lat="44.40440414007985" lon="8.111536993039621"><ele>706.3333333333334</ele><time>2026-04-04T13:45:23.999Z</time></trkpt><trkpt lat="44.40430690481364" lon="8.11170087421169"><ele>703.0</ele><time>2026-04-04T13:45:24.999Z</time></trkpt><trkpt lat="44.40421283575745" lon="8.111875138787106"><ele>703.0</ele><time>2026-04-04T13:45:25.999Z</time></trkpt><trkpt lat="44.40411409643992" lon="8.112036763783587"><ele>703.0</ele><time>2026-04-04T13:45:26.999Z</time></trkpt><trkpt lat="44.40400992437871" lon="8.112182941891968"><ele>703.0</ele><time>2026-04-04T13:45:27.999Z</time></trkpt><trkpt lat="44.40390343913039" lon="8.112319967113375"><ele>703.0</ele><time>2026-04-04T13:45:28.999Z</time></trkpt><trkpt lat="44.4038002851331" lon="8.112450559981363"><ele>701.0</ele><time>2026-04-04T13:45:29.999Z</time></trkpt><trkpt lat="44.403706413369996" lon="8.11258639679118"><ele>699.0</ele><time>2026-04-04T13:45:30.999Z</time></trkpt><trkpt lat="44.40362515084768" lon="8.112737812012293"><ele>697.0</ele><time>2026-04-04T13:45:31.999Z</time></trkpt><trkpt lat="44.40357307850105" lon="8.11293696961904"><ele>695.0</ele><time>2026-04-04T13:45:32.999Z</time></trkpt><trkpt lat="44.40352791206454" lon="8.11315162869862"><ele>697.0</ele><time>2026-04-04T13:45:33.999Z</time></trkpt><trkpt lat="44.40349057804582" lon="8.113369307237585"><ele>699.0</ele><time>2026-04-04T13:45:34.999Z</time></trkpt><trkpt lat="44.403457427736136" lon="8.113602541308488"><ele>701.0</ele><time>2026-04-04T13:45:35.999Z</time></trkpt><trkpt lat="44.40341948491073" lon="8.113828025552474"><ele>701.0</ele><time>2026-04-04T13:45:36.999Z</time></trkpt><trkpt lat="44.4033915839149" lon="8.11405082047603"><ele>701.0</ele><time>2026-04-04T13:45:37.999Z</time></trkpt><trkpt lat="44.40337355118917" lon="8.1142665166489"><ele>701.0</ele><time>2026-04-04T13:45:38.999Z</time></trkpt><trkpt lat="44.40335567347772" lon="8.114473321984631"><ele>700.5</ele><time>2026-04-04T13:45:39.999Z</time></trkpt><trkpt lat="44.403338162919496" lon="8.11467297079022"><ele>700.0</ele><time>2026-04-04T13:45:40.999Z</time></trkpt><trkpt lat="44.403314287226415" lon="8.114860210925903"><ele>699.5</ele><time>2026-04-04T13:45:41.999Z</time></trkpt><trkpt lat="44.40327697661081" lon="8.115041253453272"><ele>699.0</ele><time>2026-04-04T13:45:42.999Z</time></trkpt><trkpt lat="44.4032155616729" lon="8.115211272353203"><ele>699.0</ele><time>2026-04-04T13:45:43.999Z</time></trkpt><trkpt lat="44.403130682053046" lon="8.115373116998354"><ele>699.0</ele><time>2026-04-04T13:45:44.999Z</time></trkpt><trkpt lat="44.403024387749284" lon="8.115510998260122"><ele>699.0</ele><time>2026-04-04T13:45:45.999Z</time></trkpt><trkpt lat="44.402911565958185" lon="8.11562810488698"><ele>699.0</ele><time>2026-04-04T13:45:46.999Z</time></trkpt><trkpt lat="44.40279886646959" lon="8.115754081234744"><ele>698.5</ele><time>2026-04-04T13:45:47.999Z</time></trkpt><trkpt lat="44.4026934980547" lon="8.115895537543958"><ele>698.0</ele><time>2026-04-04T13:45:48.999Z</time></trkpt><trkpt lat="44.402602268306765" lon="8.116047236368757"><ele>697.5</ele><time>2026-04-04T13:45:49.999Z</time></trkpt><trkpt lat="44.40252256153373" lon="8.1162064888918"><ele>697.0</ele><time>2026-04-04T13:45:50.999Z</time></trkpt><trkpt lat="44.40244381743443" lon="8.116369879163944"><ele>697.0</ele><time>2026-04-04T13:45:51.999Z</time></trkpt><trkpt lat="44.40235861881487" lon="8.116524593702634"><ele>697.0</ele><time>2026-04-04T13:45:52.999Z</time></trkpt><trkpt lat="44.40226347168666" lon="8.116664189842753"><ele>697.0</ele><time>2026-04-04T13:45:53.999Z</time></trkpt><trkpt lat="44.402169556847085" lon="8.116782169199787"><ele>697.0</ele><time>2026-04-04T13:45:54.999Z</time></trkpt><trkpt lat="44.40207592584244" lon="8.11690090673223"><ele>696.6</ele><time>2026-04-04T13:45:55.999Z</time></trkpt><trkpt lat="44.40198341647458" lon="8.11701895266782"><ele>696.2</ele><time>2026-04-04T13:45:56.999Z</time></trkpt><trkpt lat="44.40190066091859" lon="8.117117081254703"><ele>695.8</ele><time>2026-04-04T13:45:57.999Z</time></trkpt><trkpt lat="44.40182633937534" lon="8.117195789540466"><ele>695.4</ele><time>2026-04-04T13:45:58.999Z</time></trkpt><trkpt lat="44.40176315022829" lon="8.117253382916392"><ele>695.0</ele><time>2026-04-04T13:45:59.999Z</time></trkpt><trkpt lat="44.40170045267123" lon="8.117297230324324"><ele>695.0</ele><time>2026-04-04T13:46:00.999Z</time></trkpt><trkpt lat="44.4016348357181" lon="8.11732287892335"><ele>695.0</ele><time>2026-04-04T13:46:01.999Z</time></trkpt><trkpt lat="44.401546102931995" lon="8.117357650653446"><ele>695.0</ele><time>2026-04-04T13:46:02.999Z</time></trkpt><trkpt lat="44.40146206836434" lon="8.117427141609934"><ele>695.0</ele><time>2026-04-04T13:46:03.999Z</time></trkpt><trkpt lat="44.40138540889636" lon="8.117538096935544"><ele>695.0</ele><time>2026-04-04T13:46:04.999Z</time></trkpt><trkpt lat="44.40129783186755" lon="8.117656703720229"><ele>698.0</ele><time>2026-04-04T13:46:05.999Z</time></trkpt><trkpt lat="44.40118892747148" lon="8.117764088111146"><ele>701.0</ele><time>2026-04-04T13:46:06.999Z</time></trkpt><trkpt lat="44.40106463492107" lon="8.11787328788082"><ele>704.0</ele><time>2026-04-04T13:46:07.999Z</time></trkpt><trkpt lat="44.40094692078514" lon="8.117988616186885"><ele>707.0</ele><time>2026-04-04T13:46:08.999Z</time></trkpt><trkpt lat="44.400829911503024" lon="8.118130392971677"><ele>705.0</ele><time>2026-04-04T13:46:09.999Z</time></trkpt><trkpt lat="44.40071395219024" lon="8.11830300247238"><ele>703.0</ele><time>2026-04-04T13:46:10.999Z</time></trkpt><trkpt lat="44.400600474890375" lon="8.118479866552384"><ele>701.0</ele><time>2026-04-04T13:46:11.999Z</time></trkpt><trkpt lat="44.400503807503185" lon="8.11866984417434"><ele>705.3333333333333</ele><time>2026-04-04T13:46:12.999Z</time></trkpt><trkpt lat="44.40042185184116" lon="8.118875830926585"><ele>709.6666666666666</ele><time>2026-04-04T13:46:13.999Z</time></trkpt><trkpt lat="44.40035605801477" lon="8.119101364283495"><ele>714.0</ele><time>2026-04-04T13:46:14.999Z</time></trkpt><trkpt lat="44.400295731882096" lon="8.119333783707557"><ele>714.6666666666666</ele><time>2026-04-04T13:46:15.999Z</time></trkpt><trkpt lat="44.40023989897697" lon="8.119586342068374"><ele>715.3333333333333</ele><time>2026-04-04T13:46:16.999Z</time></trkpt><trkpt lat="44.40018772680787" lon="8.119846508363635"><ele>716.0</ele><time>2026-04-04T13:46:17.999Z</time></trkpt><trkpt lat="44.40014148069068" lon="8.120099979520976"><ele>714.6666666666666</ele><time>2026-04-04T13:46:18.999Z</time></trkpt><trkpt lat="44.400102190537126" lon="8.12032991776235"><ele>713.3333333333334</ele><time>2026-04-04T13:46:19.999Z</time></trkpt><trkpt lat="44.400054499229455" lon="8.120534096987802"><ele>712.0</ele><time>2026-04-04T13:46:20.999Z</time></trkpt><trkpt lat="44.39998668774884" lon="8.120721242783489"><ele>712.0</ele><time>2026-04-04T13:46:21.999Z</time></trkpt><trkpt lat="44.39989048940633" lon="8.120894335144584"><ele>712.0</ele><time>2026-04-04T13:46:22.999Z</time></trkpt><trkpt lat="44.39978032561012" lon="8.121066287827846"><ele>712.0</ele><time>2026-04-04T13:46:23.999Z</time></trkpt><trkpt lat="44.39964891715342" lon="8.121235516773755"><ele>712.0</ele><time>2026-04-04T13:46:24.999Z</time></trkpt><trkpt lat="44.39951665095303" lon="8.12141524298983"><ele>712.0</ele><time>2026-04-04T13:46:25.999Z</time></trkpt><trkpt lat="44.399381583306784" lon="8.121606014125742"><ele>712.0</ele><time>2026-04-04T13:46:26.999Z</time></trkpt><trkpt lat="44.39924342743417" lon="8.121786246629185"><ele>710.6666666666667</ele><time>2026-04-04T13:46:27.999Z</time></trkpt><trkpt lat="44.39909205809834" lon="8.12195759986532"><ele>709.3333333333334</ele><time>2026-04-04T13:46:28.999Z</time></trkpt><trkpt lat="44.398925319597446" lon="8.12211033776841"><ele>708.0</ele><time>2026-04-04T13:46:29.999Z</time></trkpt><trkpt lat="44.39875480162075" lon="8.122258823349204"><ele>705.3333333333334</ele><time>2026-04-04T13:46:30.999Z</time></trkpt><trkpt lat="44.39858858016912" lon="8.122393414218827"><ele>702.6666666666667</ele><time>2026-04-04T13:46:31.999Z</time></trkpt><trkpt lat="44.39843690676511" lon="8.122528863741902"><ele>700.0</ele><time>2026-04-04T13:46:32.999Z</time></trkpt><trkpt lat="44.39829384241902" lon="8.122656666970979"><ele>700.0</ele><time>2026-04-04T13:46:33.999Z</time></trkpt><trkpt lat="44.39816564589708" lon="8.122773542370487"><ele>700.0</ele><time>2026-04-04T13:46:34.999Z</time></trkpt><trkpt lat="44.39805017843646" lon="8.12287803541488"><ele>700.0</ele><time>2026-04-04T13:46:35.999Z</time></trkpt><trkpt lat="44.3979406265031" lon="8.122989693719045"><ele>700.0</ele><time>2026-04-04T13:46:36.999Z</time></trkpt><trkpt lat="44.39784156097709" lon="8.123107143185846"><ele>697.75</ele><time>2026-04-04T13:46:37.998Z</time></trkpt><trkpt lat="44.3977588120397" lon="8.123257897126066"><ele>695.5</ele><time>2026-04-04T13:46:38.998Z</time></trkpt><trkpt lat="44.39770555973321" lon="8.123417620275267"><ele>693.25</ele><time>2026-04-04T13:46:39.998Z</time></trkpt><trkpt lat="44.397677783499255" lon="8.123604630645929"><ele>691.0</ele><time>2026-04-04T13:46:40.998Z</time></trkpt><trkpt lat="44.397673561892496" lon="8.123820101526531"><ele>691.0</ele><time>2026-04-04T13:46:41.998Z</time></trkpt><trkpt lat="44.397697133594754" lon="8.124028057310714"><ele>691.0</ele><time>2026-04-04T13:46:42.998Z</time></trkpt><trkpt lat="44.39770127502074" lon="8.124224216059394"><ele>691.0</ele><time>2026-04-04T13:46:43.998Z</time></trkpt><trkpt lat="44.39766703967944" lon="8.124412626715632"><ele>691.0</ele><time>2026-04-04T13:46:44.998Z</time></trkpt><trkpt lat="44.39757004190662" lon="8.124568271399086"><ele>690.0</ele><time>2026-04-04T13:46:45.998Z</time></trkpt><trkpt lat="44.39746335068266" lon="8.124713580829896"><ele>689.0</ele><time>2026-04-04T13:46:46.998Z</time></trkpt><trkpt lat="44.3973403683975" lon="8.124862118346547"><ele>688.0</ele><time>2026-04-04T13:46:47.998Z</time></trkpt><trkpt lat="44.39718610827705" lon="8.124977970855834"><ele>686.0</ele><time>2026-04-04T13:46:48.998Z</time></trkpt><trkpt lat="44.39702446294611" lon="8.12510488468893"><ele>684.0</ele><time>2026-04-04T13:46:49.998Z</time></trkpt><trkpt lat="44.396870537823965" lon="8.125233782076968"><ele>682.0</ele><time>2026-04-04T13:46:50.998Z</time></trkpt><trkpt lat="44.39672771744847" lon="8.12535924439535"><ele>682.0</ele><time>2026-04-04T13:46:51.998Z</time></trkpt><trkpt lat="44.39660740447625" lon="8.125481283602069"><ele>682.0</ele><time>2026-04-04T13:46:52.998Z</time></trkpt><trkpt lat="44.396506142252676" lon="8.125625563563132"><ele>682.0</ele><time>2026-04-04T13:46:53.998Z</time></trkpt><trkpt lat="44.396423800239226" lon="8.125812613349067"><ele>681.0</ele><time>2026-04-04T13:46:54.998Z</time></trkpt><trkpt lat="44.39635198502301" lon="8.126027175258086"><ele>680.0</ele><time>2026-04-04T13:46:55.998Z</time></trkpt><trkpt lat="44.39630257051566" lon="8.126255081855415"><ele>679.0</ele><time>2026-04-04T13:46:56.998Z</time></trkpt><trkpt lat="44.396280301775896" lon="8.12650873877396"><ele>679.6666666666667</ele><time>2026-04-04T13:46:57.998Z</time></trkpt><trkpt lat="44.39625877921692" lon="8.126766019943897"><ele>680.3333333333334</ele><time>2026-04-04T13:46:58.998Z</time></trkpt><trkpt lat="44.396215820236065" lon="8.126994856903968"><ele>681.0</ele><time>2026-04-04T13:46:59.998Z</time></trkpt><trkpt lat="44.39616516972185" lon="8.127211750054606"><ele>680.0</ele><time>2026-04-04T13:47:00.998Z</time></trkpt><trkpt lat="44.39609303904617" lon="8.127422214939816"><ele>679.0</ele><time>2026-04-04T13:47:01.998Z</time></trkpt><trkpt lat="44.39597885484117" lon="8.127616557910953"><ele>678.0</ele><time>2026-04-04T13:47:02.998Z</time></trkpt><trkpt lat="44.39585981552096" lon="8.12780074489143"><ele>678.0</ele><time>2026-04-04T13:47:03.998Z</time></trkpt><trkpt lat="44.39572521337163" lon="8.127964138535074"><ele>678.0</ele><time>2026-04-04T13:47:04.999Z</time></trkpt><trkpt lat="44.39557616058195" lon="8.128110312891078"><ele>678.0</ele><time>2026-04-04T13:47:05.999Z</time></trkpt><trkpt lat="44.39541315766191" lon="8.128245498202356"><ele>674.3333333333334</ele><time>2026-04-04T13:47:06.999Z</time></trkpt><trkpt lat="44.39523606295192" lon="8.128369446521198"><ele>670.6666666666667</ele><time>2026-04-04T13:47:07.999Z</time></trkpt><trkpt lat="44.3950533313735" lon="8.128482528827387"><ele>667.0</ele><time>2026-04-04T13:47:08.999Z</time></trkpt><trkpt lat="44.39485966165384" lon="8.12857521560347"><ele>668.0</ele><time>2026-04-04T13:47:09.999Z</time></trkpt><trkpt lat="44.39466584030215" lon="8.128651092384656"><ele>669.0</ele><time>2026-04-04T13:47:10.999Z</time></trkpt><trkpt lat="44.394470382618024" lon="8.128679452738833"><ele>670.0</ele><time>2026-04-04T13:47:11.999Z</time></trkpt><trkpt lat="44.394291969832246" lon="8.128692614374986"><ele>670.0</ele><time>2026-04-04T13:47:12.999Z</time></trkpt><trkpt lat="44.39413233053176" lon="8.128713440642452"><ele>670.0</ele><time>2026-04-04T13:47:14Z</time></trkpt><trkpt lat="44.39397624900016" lon="8.12876491672614"><ele>670.0</ele><time>2026-04-04T13:47:15Z</time></trkpt><trkpt lat="44.39380078405915" lon="8.128863190616"><ele>672.0</ele><time>2026-04-04T13:47:16Z</time></trkpt><trkpt lat="44.39365374996454" lon="8.128967755435667"><ele>674.0</ele><time>2026-04-04T13:47:17Z</time></trkpt><trkpt lat="44.39349986328125" lon="8.129103604768432"><ele>676.0</ele><time>2026-04-04T13:47:18Z</time></trkpt><trkpt lat="44.39334584384525" lon="8.12927583311013"><ele>676.0</ele><time>2026-04-04T13:47:19Z</time></trkpt><trkpt lat="44.39320368746276" lon="8.129491025539156"><ele>676.0</ele><time>2026-04-04T13:47:20Z</time></trkpt><trkpt lat="44.39306979325222" lon="8.129689724818004"><ele>676.0</ele><time>2026-04-04T13:47:21Z</time></trkpt><trkpt lat="44.392913635667185" lon="8.129872743632315"><ele>679.3333333333334</ele><time>2026-04-04T13:47:22Z</time></trkpt><trkpt lat="44.392740350307285" lon="8.130035513288458"><ele>682.6666666666666</ele><time>2026-04-04T13:47:23Z</time></trkpt><trkpt lat="44.39257418558058" lon="8.130171495610346"><ele>686.0</ele><time>2026-04-04T13:47:24Z</time></trkpt><trkpt lat="44.392423309752125" lon="8.130284082926336"><ele>686.0</ele><time>2026-04-04T13:47:25Z</time></trkpt><trkpt lat="44.39227875531061" lon="8.130374137968497"><ele>686.0</ele><time>2026-04-04T13:47:26Z</time></trkpt><trkpt lat="44.392139984370594" lon="8.130428653988313"><ele>686.0</ele><time>2026-04-04T13:47:27Z</time></trkpt><trkpt lat="44.39199610866251" lon="8.130438478086186"><ele>686.0</ele><time>2026-04-04T13:47:28Z</time></trkpt><trkpt lat="44.391846632982364" lon="8.130408484616579"><ele>688.3333333333333</ele><time>2026-04-04T13:47:29Z</time></trkpt><trkpt lat="44.391698507762975" lon="8.13032421676208"><ele>690.6666666666666</ele><time>2026-04-04T13:47:30Z</time></trkpt><trkpt lat="44.39154698415765" lon="8.13024436461876"><ele>693.0</ele><time>2026-04-04T13:47:31Z</time></trkpt><trkpt lat="44.391417238485744" lon="8.130141376994919"><ele>694.0</ele><time>2026-04-04T13:47:32Z</time></trkpt><trkpt lat="44.391300012178064" lon="8.13006807937952"><ele>695.0</ele><time>2026-04-04T13:47:33Z</time></trkpt><trkpt lat="44.391176948711056" lon="8.130015433954787"><ele>696.0</ele><time>2026-04-04T13:47:34Z</time></trkpt><trkpt lat="44.391052164645444" lon="8.130004463213158"><ele>697.0</ele><time>2026-04-04T13:47:35Z</time></trkpt><trkpt lat="44.39092874908644" lon="8.13005330517331"><ele>697.0</ele><time>2026-04-04T13:47:36Z</time></trkpt><trkpt lat="44.3908131958913" lon="8.130137884526562"><ele>697.0</ele><time>2026-04-04T13:47:36.999Z</time></trkpt><trkpt lat="44.3907167590938" lon="8.130259730048017"><ele>697.0</ele><time>2026-04-04T13:47:37.999Z</time></trkpt><trkpt lat="44.390640311451506" lon="8.130419330820416"><ele>697.0</ele><time>2026-04-04T13:47:38.999Z</time></trkpt><trkpt lat="44.39057030230981" lon="8.130602551392323"><ele>698.3333333333334</ele><time>2026-04-04T13:47:39.999Z</time></trkpt><trkpt lat="44.39047000417057" lon="8.130793807914223"><ele>699.6666666666666</ele><time>2026-04-04T13:47:40.999Z</time></trkpt><trkpt lat="44.39033720083173" lon="8.130965407025625"><ele>701.0</ele><time>2026-04-04T13:47:41.999Z</time></trkpt><trkpt lat="44.39018409908129" lon="8.131125975491797"><ele>701.0</ele><time>2026-04-04T13:47:42.999Z</time></trkpt><trkpt lat="44.39003384890559" lon="8.131282635574843"><ele>701.0</ele><time>2026-04-04T13:47:43.999Z</time></trkpt><trkpt lat="44.38988824583813" lon="8.131433311856819"><ele>701.0</ele><time>2026-04-04T13:47:44.999Z</time></trkpt><trkpt lat="44.38973970074725" lon="8.13156336724206"><ele>703.3333333333333</ele><time>2026-04-04T13:47:45.999Z</time></trkpt><trkpt lat="44.38956632052126" lon="8.131653625056597"><ele>705.6666666666666</ele><time>2026-04-04T13:47:46.999Z</time></trkpt><trkpt lat="44.38938537005951" lon="8.131746184382928"><ele>708.0</ele><time>2026-04-04T13:47:47.999Z</time></trkpt><trkpt lat="44.389205455441" lon="8.131850757720397"><ele>708.0</ele><time>2026-04-04T13:47:48.999Z</time></trkpt><trkpt lat="44.38902711428619" lon="8.131941677031834"><ele>708.0</ele><time>2026-04-04T13:47:49.999Z</time></trkpt><trkpt lat="44.388867188341735" lon="8.132025525891324"><ele>708.0</ele><time>2026-04-04T13:47:50.999Z</time></trkpt><trkpt lat="44.38872271771904" lon="8.132106687870786"><ele>710.25</ele><time>2026-04-04T13:47:51.999Z</time></trkpt><trkpt lat="44.388587092578845" lon="8.132152000490697"><ele>712.5</ele><time>2026-04-04T13:47:52.999Z</time></trkpt><trkpt lat="44.388473109811635" lon="8.132213577249095"><ele>714.75</ele><time>2026-04-04T13:47:53.999Z</time></trkpt><trkpt lat="44.38833491630821" lon="8.132217569939248"><ele>717.0</ele><time>2026-04-04T13:47:54.999Z</time></trkpt><trkpt lat="44.38819031116653" lon="8.132185731450793"><ele>717.0</ele><time>2026-04-04T13:47:55.999Z</time></trkpt><trkpt lat="44.38804260703203" lon="8.13212188130661"><ele>717.0</ele><time>2026-04-04T13:47:56.999Z</time></trkpt><trkpt lat="44.38789745622314" lon="8.132033498061924"><ele>717.0</ele><time>2026-04-04T13:47:57.999Z</time></trkpt><trkpt lat="44.38774617518547" lon="8.131964831721842"><ele>718.0</ele><time>2026-04-04T13:47:58.999Z</time></trkpt><trkpt lat="44.38757872324086" lon="8.13190468797757"><ele>719.0</ele><time>2026-04-04T13:47:59.999Z</time></trkpt><trkpt lat="44.387398214746945" lon="8.131864633034107"><ele>720.0</ele><time>2026-04-04T13:48:00.999Z</time></trkpt><trkpt lat="44.387227304302336" lon="8.13184971454217"><ele>719.0</ele><time>2026-04-04T13:48:01.999Z</time></trkpt><trkpt lat="44.387078504831045" lon="8.131826475703578"><ele>718.0</ele><time>2026-04-04T13:48:02.999Z</time></trkpt><trkpt lat="44.38692882306594" lon="8.131796403169933"><ele>717.0</ele><time>2026-04-04T13:48:03.999Z</time></trkpt><trkpt lat="44.38677747429278" lon="8.131745778856482"><ele>717.0</ele><time>2026-04-04T13:48:04.999Z</time></trkpt><trkpt lat="44.38662610183336" lon="8.13165428152427"><ele>717.0</ele><time>2026-04-04T13:48:05.999Z</time></trkpt><trkpt lat="44.38650888173478" lon="8.131499831383257"><ele>717.0</ele><time>2026-04-04T13:48:06.999Z</time></trkpt><trkpt lat="44.38638335298844" lon="8.13139512180769"><ele>718.3333333333334</ele><time>2026-04-04T13:48:07.999Z</time></trkpt><trkpt lat="44.38625118727715" lon="8.131316172724585"><ele>719.6666666666667</ele><time>2026-04-04T13:48:08.999Z</time></trkpt><trkpt lat="44.38609961281655" lon="8.131262061528716"><ele>721.0</ele><time>2026-04-04T13:48:09.999Z</time></trkpt><trkpt lat="44.38593164876818" lon="8.131248162298608"><ele>721.0</ele><time>2026-04-04T13:48:10.999Z</time></trkpt><trkpt lat="44.38575279202069" lon="8.131255523747997"><ele>721.0</ele><time>2026-04-04T13:48:11.999Z</time></trkpt><trkpt lat="44.38556586914662" lon="8.131272989022158"><ele>721.0</ele><time>2026-04-04T13:48:12.999Z</time></trkpt><trkpt lat="44.385372501731844" lon="8.131288081727812"><ele>724.3333333333334</ele><time>2026-04-04T13:48:13.999Z</time></trkpt><trkpt lat="44.38517364875794" lon="8.131307713563563"><ele>727.6666666666666</ele><time>2026-04-04T13:48:14.999Z</time></trkpt><trkpt lat="44.38498543382018" lon="8.131337130146825"><ele>731.0</ele><time>2026-04-04T13:48:15.999Z</time></trkpt><trkpt lat="44.38479931101437" lon="8.131373731435565"><ele>732.6666666666666</ele><time>2026-04-04T13:48:16.999Z</time></trkpt><trkpt lat="44.384608526698955" lon="8.13141356984298"><ele>734.3333333333334</ele><time>2026-04-04T13:48:17.999Z</time></trkpt><trkpt lat="44.38441358834526" lon="8.131453983874524"><ele>736.0</ele><time>2026-04-04T13:48:18.999Z</time></trkpt><trkpt lat="44.38422796613501" lon="8.131501913337752"><ele>736.0</ele><time>2026-04-04T13:48:19.999Z</time></trkpt><trkpt lat="44.38405363583739" lon="8.13155379392701"><ele>736.0</ele><time>2026-04-04T13:48:20.999Z</time></trkpt><trkpt lat="44.383880102985955" lon="8.131623453888562"><ele>736.0</ele><time>2026-04-04T13:48:21.999Z</time></trkpt><trkpt lat="44.38372492214129" lon="8.131714705962278"><ele>734.25</ele><time>2026-04-04T13:48:22.999Z</time></trkpt><trkpt lat="44.38357619710745" lon="8.131794813704431"><ele>732.5</ele><time>2026-04-04T13:48:23.999Z</time></trkpt><trkpt lat="44.38344094788518" lon="8.131856577525658"><ele>730.75</ele><time>2026-04-04T13:48:24.999Z</time></trkpt><trkpt lat="44.383304611923755" lon="8.131906475242562"><ele>729.0</ele><time>2026-04-04T13:48:25.999Z</time></trkpt><trkpt lat="44.38318632788498" lon="8.131954121693232"><ele>729.0</ele><time>2026-04-04T13:48:26.999Z</time></trkpt><trkpt lat="44.383073068845086" lon="8.13200726059232"><ele>729.0</ele><time>2026-04-04T13:48:27.999Z</time></trkpt><trkpt lat="44.38298032455568" lon="8.132083427320152"><ele>729.0</ele><time>2026-04-04T13:48:28.999Z</time></trkpt><trkpt lat="44.38288808965641" lon="8.13216148187864"><ele>729.0</ele><time>2026-04-04T13:48:29.999Z</time></trkpt><trkpt lat="44.38280247139321" lon="8.132245020611542"><ele>729.0</ele><time>2026-04-04T13:48:30.999Z</time></trkpt><trkpt lat="44.382718490372156" lon="8.132330974853625"><ele>729.0</ele><time>2026-04-04T13:48:31.999Z</time></trkpt><trkpt lat="44.38263714518861" lon="8.132420023149704"><ele>729.0</ele><time>2026-04-04T13:48:32.999Z</time></trkpt><trkpt lat="44.38254961690258" lon="8.132516555449655"><ele>729.0</ele><time>2026-04-04T13:48:33.999Z</time></trkpt><trkpt lat="44.38247034001873" lon="8.132617636382854"><ele>729.0</ele><time>2026-04-04T13:48:34.999Z</time></trkpt><trkpt lat="44.38240573032904" lon="8.132733381836992"><ele>729.0</ele><time>2026-04-04T13:48:35.999Z</time></trkpt><trkpt lat="44.38235188029272" lon="8.132861620634506"><ele>729.0</ele><time>2026-04-04T13:48:36.999Z</time></trkpt><trkpt lat="44.38228891073015" lon="8.132992031478299"><ele>729.0</ele><time>2026-04-04T13:48:37.999Z</time></trkpt><trkpt lat="44.382198120771804" lon="8.133111444593816"><ele>729.0</ele><time>2026-04-04T13:48:38.999Z</time></trkpt><trkpt lat="44.38210140381037" lon="8.13323416908366"><ele>729.0</ele><time>2026-04-04T13:48:39.999Z</time></trkpt><trkpt lat="44.382009094014506" lon="8.13336746443485"><ele>727.75</ele><time>2026-04-04T13:48:40.999Z</time></trkpt><trkpt lat="44.38190367995445" lon="8.133490938145094"><ele>726.5</ele><time>2026-04-04T13:48:41.999Z</time></trkpt><trkpt lat="44.38182617659231" lon="8.13363312902425"><ele>725.25</ele><time>2026-04-04T13:48:42.999Z</time></trkpt><trkpt lat="44.381734268399335" lon="8.133771886092049"><ele>724.0</ele><time>2026-04-04T13:48:43.999Z</time></trkpt><trkpt lat="44.38164863593323" lon="8.133905197440148"><ele>724.0</ele><time>2026-04-04T13:48:44.999Z</time></trkpt><trkpt lat="44.38153166360039" lon="8.133986475137466"><ele>724.0</ele><time>2026-04-04T13:48:45.999Z</time></trkpt><trkpt lat="44.38141236743911" lon="8.134095549802648"><ele>724.0</ele><time>2026-04-04T13:48:46.999Z</time></trkpt><trkpt lat="44.3812980611847" lon="8.134222433990935"><ele>724.0</ele><time>2026-04-04T13:48:47.999Z</time></trkpt><trkpt lat="44.3811672084369" lon="8.13431959727903"><ele>723.75</ele><time>2026-04-04T13:48:48.999Z</time></trkpt><trkpt lat="44.38105738929663" lon="8.134431814029497"><ele>723.5</ele><time>2026-04-04T13:48:49.999Z</time></trkpt><trkpt lat="44.380949400298235" lon="8.134545947910766"><ele>723.25</ele><time>2026-04-04T13:48:50.999Z</time></trkpt><trkpt lat="44.38085552752252" lon="8.134672451584427"><ele>723.0</ele><time>2026-04-04T13:48:51.999Z</time></trkpt><trkpt lat="44.38078510466912" lon="8.134821195923474"><ele>725.5</ele><time>2026-04-04T13:48:52.999Z</time></trkpt><trkpt lat="44.38072532901853" lon="8.134992596321268"><ele>728.0</ele><time>2026-04-04T13:48:53.999Z</time></trkpt><trkpt lat="44.380670670763934" lon="8.135168187199422"><ele>730.5</ele><time>2026-04-04T13:48:54.999Z</time></trkpt><trkpt lat="44.38062910368052" lon="8.135353940800156"><ele>733.0</ele><time>2026-04-04T13:48:55.999Z</time></trkpt><trkpt lat="44.38060554502592" lon="8.135555144818053"><ele>735.0</ele><time>2026-04-04T13:48:56.999Z</time></trkpt><trkpt lat="44.3805912411796" lon="8.13576371736661"><ele>737.0</ele><time>2026-04-04T13:48:57.999Z</time></trkpt><trkpt lat="44.38058027130929" lon="8.135973362179218"><ele>739.0</ele><time>2026-04-04T13:48:58.999Z</time></trkpt><trkpt lat="44.38057730647129" lon="8.136151042348148"><ele>741.0</ele><time>2026-04-04T13:48:59.999Z</time></trkpt><trkpt lat="44.38056380420176" lon="8.136374444783717"><ele>745.0</ele><time>2026-04-04T13:49:00.999Z</time></trkpt><trkpt lat="44.3805350998204" lon="8.136601564412468"><ele>749.0</ele><time>2026-04-04T13:49:01.998Z</time></trkpt><trkpt lat="44.38047831195507" lon="8.13681105628339"><ele>753.0</ele><time>2026-04-04T13:49:02.998Z</time></trkpt><trkpt lat="44.38039656557255" lon="8.137024686207702"><ele>746.0</ele><time>2026-04-04T13:49:03.998Z</time></trkpt><trkpt lat="44.38027587672295" lon="8.137214917542622"><ele>739.0</ele><time>2026-04-04T13:49:04.998Z</time></trkpt><trkpt lat="44.38019059029258" lon="8.137415392549464"><ele>732.0</ele><time>2026-04-04T13:49:05.998Z</time></trkpt><trkpt lat="44.38011913549767" lon="8.137694074041434"><ele>732.0</ele><time>2026-04-04T13:49:06.998Z</time></trkpt><trkpt lat="44.38011907899771" lon="8.137876393027693"><ele>732.0</ele><time>2026-04-04T13:49:07.998Z</time></trkpt><trkpt lat="44.38006465114019" lon="8.138040467521286"><ele>732.0</ele><time>2026-04-04T13:49:08.998Z</time></trkpt><trkpt lat="44.38000999477351" lon="8.138145676466397"><ele>732.0</ele><time>2026-04-04T13:49:09.998Z</time></trkpt><trkpt lat="44.37995008633107" lon="8.138243132399582"><ele>732.0</ele><time>2026-04-04T13:49:11Z</time></trkpt><trkpt lat="44.37956527844209" lon="8.138491244571965"><ele>731.5</ele><time>2026-04-04T13:49:13Z</time></trkpt><trkpt lat="44.379434415176135" lon="8.138542079267188"><ele>731.0</ele><time>2026-04-04T13:49:14Z</time></trkpt><trkpt lat="44.379313053810044" lon="8.13859585377211"><ele>730.5</ele><time>2026-04-04T13:49:15Z</time></trkpt><trkpt lat="44.37919482911356" lon="8.138683930357317"><ele>730.0</ele><time>2026-04-04T13:49:16Z</time></trkpt><trkpt lat="44.37908063574918" lon="8.138776127303384"><ele>730.0</ele><time>2026-04-04T13:49:17Z</time></trkpt><trkpt lat="44.3789739555599" lon="8.138899678953022"><ele>730.0</ele><time>2026-04-04T13:49:18Z</time></trkpt><trkpt lat="44.37889063480713" lon="8.139062623855017"><ele>730.0</ele><time>2026-04-04T13:49:19Z</time></trkpt><trkpt lat="44.37881855290932" lon="8.13925032346277"><ele>730.0</ele><time>2026-04-04T13:49:20Z</time></trkpt><trkpt lat="44.37875530511801" lon="8.139459120369963"><ele>730.0</ele><time>2026-04-04T13:49:21Z</time></trkpt><trkpt lat="44.378705091985154" lon="8.139685115359086"><ele>730.0</ele><time>2026-04-04T13:49:22Z</time></trkpt><trkpt lat="44.378675647702345" lon="8.139887220802114"><ele>730.0</ele><time>2026-04-04T13:49:23Z</time></trkpt><trkpt lat="44.37864751080275" lon="8.140055888859493"><ele>730.0</ele><time>2026-04-04T13:49:24Z</time></trkpt><trkpt lat="44.378621613516685" lon="8.140192287379751"><ele>730.0</ele><time>2026-04-04T13:49:25Z</time></trkpt><trkpt lat="44.37860331098264" lon="8.140335148302624"><ele>730.0</ele><time>2026-04-04T13:49:26Z</time></trkpt><trkpt lat="44.378577809242834" lon="8.140490702177143"><ele>730.0</ele><time>2026-04-04T13:49:27Z</time></trkpt><trkpt lat="44.37854102979879" lon="8.140650244795628"><ele>730.0</ele><time>2026-04-04T13:49:28Z</time></trkpt><trkpt lat="44.37848988465443" lon="8.140792092047716"><ele>731.5</ele><time>2026-04-04T13:49:29Z</time></trkpt><trkpt lat="44.37843862183531" lon="8.140921910661216"><ele>733.0</ele><time>2026-04-04T13:49:30Z</time></trkpt><trkpt lat="44.37838034741191" lon="8.141012038537827"><ele>734.5</ele><time>2026-04-04T13:49:31Z</time></trkpt><trkpt lat="44.37833795401517" lon="8.141089320506385"><ele>736.0</ele><time>2026-04-04T13:49:32Z</time></trkpt><trkpt lat="44.378295926394415" lon="8.141168712773284"><ele>737.5</ele><time>2026-04-04T13:49:33Z</time></trkpt><trkpt lat="44.37826181806954" lon="8.141250797129079"><ele>739.0</ele><time>2026-04-04T13:49:34Z</time></trkpt><trkpt lat="44.3781827932312" lon="8.141361983646812"><ele>739.0</ele><time>2026-04-04T13:49:36Z</time></trkpt><trkpt lat="44.37809337963272" lon="8.14145450437116"><ele>739.0</ele><time>2026-04-04T13:49:38Z</time></trkpt><trkpt lat="44.3780176763458" lon="8.14142422529037"><ele>739.0</ele><time>2026-04-04T13:49:39Z</time></trkpt><trkpt lat="44.377943897688766" lon="8.141436223278777"><ele>739.0</ele><time>2026-04-04T13:49:40Z</time></trkpt><trkpt lat="44.37785885930463" lon="8.141443402217982"><ele>739.0</ele><time>2026-04-04T13:49:41Z</time></trkpt><trkpt lat="44.377774669295235" lon="8.141455177742333"><ele>739.0</ele><time>2026-04-04T13:49:42Z</time></trkpt><trkpt lat="44.37769080070446" lon="8.14146780902474"><ele>738.0</ele><time>2026-04-04T13:49:43Z</time></trkpt><trkpt lat="44.377610044987456" lon="8.141479971484566"><ele>737.0</ele><time>2026-04-04T13:49:44Z</time></trkpt><trkpt lat="44.377522366048765" lon="8.141489753282695"><ele>736.0</ele><time>2026-04-04T13:49:45Z</time></trkpt><trkpt lat="44.37744104702528" lon="8.1415208382509"><ele>735.0</ele><time>2026-04-04T13:49:46Z</time></trkpt><trkpt lat="44.37736005427117" lon="8.141496828171347"><ele>734.0</ele><time>2026-04-04T13:49:47Z</time></trkpt><trkpt lat="44.37728136987186" lon="8.141478228686713"><ele>733.0</ele><time>2026-04-04T13:49:48Z</time></trkpt><trkpt lat="44.37718809734331" lon="8.141428964719498"><ele>733.25</ele><time>2026-04-04T13:49:49Z</time></trkpt><trkpt lat="44.37708926227967" lon="8.141374232012074"><ele>733.5</ele><time>2026-04-04T13:49:50Z</time></trkpt><trkpt lat="44.37697760681052" lon="8.141353558541136"><ele>733.75</ele><time>2026-04-04T13:49:51Z</time></trkpt><trkpt lat="44.376860197360806" lon="8.141278643339147"><ele>734.0</ele><time>2026-04-04T13:49:52Z</time></trkpt><trkpt lat="44.37672144452812" lon="8.14121097291268"><ele>734.0</ele><time>2026-04-04T13:49:53Z</time></trkpt><trkpt lat="44.37657690731643" lon="8.141135957449235"><ele>734.0</ele><time>2026-04-04T13:49:54Z</time></trkpt><trkpt lat="44.37645089117717" lon="8.141030394297227"><ele>734.0</ele><time>2026-04-04T13:49:55Z</time></trkpt><trkpt lat="44.37632071038787" lon="8.14095078650504"><ele>734.0</ele><time>2026-04-04T13:49:56Z</time></trkpt><trkpt lat="44.37619809996626" lon="8.140859788746516"><ele>734.0</ele><time>2026-04-04T13:49:57Z</time></trkpt><trkpt lat="44.37608266141446" lon="8.140754285855937"><ele>734.0</ele><time>2026-04-04T13:49:58Z</time></trkpt><trkpt lat="44.375954325550175" lon="8.140680853266398"><ele>734.0</ele><time>2026-04-04T13:49:59Z</time></trkpt><trkpt lat="44.37585089580595" lon="8.14056289108391"><ele>734.0</ele><time>2026-04-04T13:50:00Z</time></trkpt><trkpt lat="44.37575039992916" lon="8.1404514413782"><ele>733.8000000000001</ele><time>2026-04-04T13:50:01Z</time></trkpt><trkpt lat="44.37565100236385" lon="8.140359713753204"><ele>733.6</ele><time>2026-04-04T13:50:02Z</time></trkpt><trkpt lat="44.37557572514717" lon="8.140252966051737"><ele>733.4</ele><time>2026-04-04T13:50:03Z</time></trkpt><trkpt lat="44.37549255738812" lon="8.140175510032007"><ele>733.2</ele><time>2026-04-04T13:50:04Z</time></trkpt><trkpt lat="44.37541134729794" lon="8.140099469367417"><ele>733.0</ele><time>2026-04-04T13:50:05Z</time></trkpt><trkpt lat="44.37533497874428" lon="8.140027914652824"><ele>732.7142857142857</ele><time>2026-04-04T13:50:06Z</time></trkpt><trkpt lat="44.375254659883154" lon="8.139981239041052"><ele>732.4285714285714</ele><time>2026-04-04T13:50:07Z</time></trkpt><trkpt lat="44.375195893255146" lon="8.1399074961266"><ele>732.1428571428571</ele><time>2026-04-04T13:50:07.999Z</time></trkpt><trkpt lat="44.37514846063372" lon="8.13983143503012"><ele>731.8571428571429</ele><time>2026-04-04T13:50:08.999Z</time></trkpt><trkpt lat="44.375113439612306" lon="8.139746795616828"><ele>731.5714285714286</ele><time>2026-04-04T13:50:09.999Z</time></trkpt><trkpt lat="44.37509259857108" lon="8.139660535499699"><ele>731.2857142857142</ele><time>2026-04-04T13:50:10.999Z</time></trkpt><trkpt lat="44.37507321942563" lon="8.139574734691392"><ele>731.0</ele><time>2026-04-04T13:50:11.999Z</time></trkpt><trkpt lat="44.37500086912579" lon="8.139474989815938"><ele>731.0</ele><time>2026-04-04T13:50:13.999Z</time></trkpt><trkpt lat="44.37491610649757" lon="8.139531040611935"><ele>731.0</ele><time>2026-04-04T13:50:15.999Z</time></trkpt><trkpt lat="44.37486004210412" lon="8.139686077850836"><ele>731.0</ele><time>2026-04-04T13:50:17.999Z</time></trkpt><trkpt lat="44.374829166423474" lon="8.139813690582347"><ele>731.0</ele><time>2026-04-04T13:50:19.999Z</time></trkpt><trkpt lat="44.37481916042194" lon="8.139992160965425"><ele>731.0</ele><time>2026-04-04T13:50:21.999Z</time></trkpt><trkpt lat="44.37482160472051" lon="8.140084484128622"><ele>731.0</ele><time>2026-04-04T13:50:22.999Z</time></trkpt><trkpt lat="44.37484227920708" lon="8.140205898392635"><ele>731.0</ele><time>2026-04-04T13:50:23.999Z</time></trkpt><trkpt lat="44.37486033149342" lon="8.140355327318845"><ele>731.0</ele><time>2026-04-04T13:50:24.999Z</time></trkpt><trkpt lat="44.37490230880946" lon="8.140503696810303"><ele>731.0</ele><time>2026-04-04T13:50:25.999Z</time></trkpt><trkpt lat="44.374954529330864" lon="8.140679255783196"><ele>731.0</ele><time>2026-04-04T13:50:26.999Z</time></trkpt><trkpt lat="44.375015845672436" lon="8.14085736049909"><ele>729.0</ele><time>2026-04-04T13:50:27.999Z</time></trkpt><trkpt lat="44.375085789961794" lon="8.141027278068792"><ele>727.0</ele><time>2026-04-04T13:50:28.999Z</time></trkpt><trkpt lat="44.375155536272885" lon="8.141247780707223"><ele>725.0</ele><time>2026-04-04T13:50:29.999Z</time></trkpt><trkpt lat="44.375239022083214" lon="8.14146028388845"><ele>720.6666666666666</ele><time>2026-04-04T13:50:30.999Z</time></trkpt><trkpt lat="44.375327964837886" lon="8.141683555889108"><ele>716.3333333333334</ele><time>2026-04-04T13:50:31.999Z</time></trkpt><trkpt lat="44.37541306267276" lon="8.141889495291569"><ele>712.0</ele><time>2026-04-04T13:50:32.999Z</time></trkpt><trkpt lat="44.3755042290503" lon="8.142157135004341"><ele>712.3333333333334</ele><time>2026-04-04T13:50:33.999Z</time></trkpt><trkpt lat="44.375583490572204" lon="8.142412196075655"><ele>712.6666666666666</ele><time>2026-04-04T13:50:34.999Z</time></trkpt><trkpt lat="44.37565619760604" lon="8.142679021800708"><ele>713.0</ele><time>2026-04-04T13:50:35.999Z</time></trkpt><trkpt lat="44.37572317354165" lon="8.142905891468523"><ele>713.0</ele><time>2026-04-04T13:50:36.999Z</time></trkpt><trkpt lat="44.37575831602815" lon="8.143183483516138"><ele>713.0</ele><time>2026-04-04T13:50:37.999Z</time></trkpt><trkpt lat="44.37579360814969" lon="8.143451465694756"><ele>713.0</ele><time>2026-04-04T13:50:38.999Z</time></trkpt><trkpt lat="44.375824618563" lon="8.14371733407712"><ele>709.6666666666666</ele><time>2026-04-04T13:50:39.999Z</time></trkpt><trkpt lat="44.37583995285014" lon="8.143986996838679"><ele>706.3333333333334</ele><time>2026-04-04T13:50:40.999Z</time></trkpt><trkpt lat="44.37584317122182" lon="8.144256358250392"><ele>703.0</ele><time>2026-04-04T13:50:41.999Z</time></trkpt><trkpt lat="44.37583755892979" lon="8.14450819358524"><ele>703.0</ele><time>2026-04-04T13:50:42.999Z</time></trkpt><trkpt lat="44.37582248971904" lon="8.144754277734348"><ele>703.0</ele><time>2026-04-04T13:50:43.999Z</time></trkpt><trkpt lat="44.37580353694001" lon="8.145012997263919"><ele>703.0</ele><time>2026-04-04T13:50:44.999Z</time></trkpt><trkpt lat="44.37578649000045" lon="8.14530702014495"><ele>701.3333333333334</ele><time>2026-04-04T13:50:45.999Z</time></trkpt><trkpt lat="44.37572321296513" lon="8.145521710745875"><ele>699.6666666666666</ele><time>2026-04-04T13:50:46.999Z</time></trkpt><trkpt lat="44.37566594226705" lon="8.1457815324486"><ele>698.0</ele><time>2026-04-04T13:50:47.999Z</time></trkpt><trkpt lat="44.375607246195024" lon="8.146060478836008"><ele>697.6666666666666</ele><time>2026-04-04T13:50:48.999Z</time></trkpt><trkpt lat="44.375528464463265" lon="8.146297851034307"><ele>697.3333333333334</ele><time>2026-04-04T13:50:49.999Z</time></trkpt><trkpt lat="44.375441872793736" lon="8.146554873616159"><ele>697.0</ele><time>2026-04-04T13:50:50.999Z</time></trkpt><trkpt lat="44.3753425440182" lon="8.14680483728492"><ele>690.3333333333334</ele><time>2026-04-04T13:50:51.999Z</time></trkpt><trkpt lat="44.37523654539361" lon="8.147042782324172"><ele>683.6666666666666</ele><time>2026-04-04T13:50:52.999Z</time></trkpt><trkpt lat="44.37512932468574" lon="8.14726561003293"><ele>677.0</ele><time>2026-04-04T13:50:53.999Z</time></trkpt><trkpt lat="44.37501231576154" lon="8.147468797039524"><ele>677.0</ele><time>2026-04-04T13:50:54.999Z</time></trkpt><trkpt lat="44.374892452309574" lon="8.147668112846155"><ele>677.0</ele><time>2026-04-04T13:50:55.999Z</time></trkpt><trkpt lat="44.374755304132286" lon="8.147858845035508"><ele>677.0</ele><time>2026-04-04T13:50:56.999Z</time></trkpt><trkpt lat="44.37460691168488" lon="8.148033150958595"><ele>676.3333333333333</ele><time>2026-04-04T13:50:57.999Z</time></trkpt><trkpt lat="44.37446347448136" lon="8.148206369973837"><ele>675.6666666666666</ele><time>2026-04-04T13:50:58.999Z</time></trkpt><trkpt lat="44.37430790736807" lon="8.148371164347791"><ele>675.0</ele><time>2026-04-04T13:50:59.999Z</time></trkpt><trkpt lat="44.37415928985242" lon="8.148510723787725"><ele>675.0</ele><time>2026-04-04T13:51:00.999Z</time></trkpt><trkpt lat="44.374004124114" lon="8.148638421969412"><ele>675.0</ele><time>2026-04-04T13:51:01.999Z</time></trkpt><trkpt lat="44.37385371340134" lon="8.148754068771384"><ele>675.0</ele><time>2026-04-04T13:51:02.999Z</time></trkpt><trkpt lat="44.373686086405186" lon="8.148869619232935"><ele>676.6666666666666</ele><time>2026-04-04T13:51:03.999Z</time></trkpt><trkpt lat="44.373513132190695" lon="8.148977328070798"><ele>678.3333333333333</ele><time>2026-04-04T13:51:04.999Z</time></trkpt><trkpt lat="44.37332704812084" lon="8.149088215956166"><ele>680.0</ele><time>2026-04-04T13:51:05.999Z</time></trkpt><trkpt lat="44.373137554011436" lon="8.149199098210225"><ele>677.0</ele><time>2026-04-04T13:51:06.999Z</time></trkpt><trkpt lat="44.37294018422112" lon="8.149323624498605"><ele>674.0</ele><time>2026-04-04T13:51:07.999Z</time></trkpt><trkpt lat="44.3727539801583" lon="8.149449415613603"><ele>671.0</ele><time>2026-04-04T13:51:08.999Z</time></trkpt><trkpt lat="44.37258182690818" lon="8.14957465415752"><ele>671.0</ele><time>2026-04-04T13:51:09.999Z</time></trkpt><trkpt lat="44.37240677647332" lon="8.149701962563961"><ele>671.0</ele><time>2026-04-04T13:51:10.999Z</time></trkpt><trkpt lat="44.37223303440245" lon="8.14983166130999"><ele>671.0</ele><time>2026-04-04T13:51:11.999Z</time></trkpt><trkpt lat="44.37204913918146" lon="8.14998383069373"><ele>670.0</ele><time>2026-04-04T13:51:12.999Z</time></trkpt><trkpt lat="44.37187614217153" lon="8.15007564363947"><ele>669.0</ele><time>2026-04-04T13:51:13.999Z</time></trkpt><trkpt lat="44.37167406434426" lon="8.150193445307139"><ele>668.0</ele><time>2026-04-04T13:51:14.999Z</time></trkpt><trkpt lat="44.37148885612091" lon="8.150305244011337"><ele>669.3333333333333</ele><time>2026-04-04T13:51:15.999Z</time></trkpt><trkpt lat="44.37130528701501" lon="8.150421912857718"><ele>670.6666666666666</ele><time>2026-04-04T13:51:17Z</time></trkpt><trkpt lat="44.37111508715603" lon="8.150551337478996"><ele>672.0</ele><time>2026-04-04T13:51:18Z</time></trkpt><trkpt lat="44.37092417479955" lon="8.150671767769454"><ele>667.0</ele><time>2026-04-04T13:51:19Z</time></trkpt><trkpt lat="44.37073186199914" lon="8.150798600562297"><ele>662.0</ele><time>2026-04-04T13:51:20Z</time></trkpt><trkpt lat="44.370538133381245" lon="8.150932018759931"><ele>657.0</ele><time>2026-04-04T13:51:21Z</time></trkpt><trkpt lat="44.37034430933894" lon="8.151063813840821"><ele>652.0</ele><time>2026-04-04T13:51:22Z</time></trkpt><trkpt lat="44.37014677160949" lon="8.15119935659911"><ele>647.0</ele><time>2026-04-04T13:51:23Z</time></trkpt><trkpt lat="44.36994329798887" lon="8.15132909200556"><ele>642.0</ele><time>2026-04-04T13:51:24Z</time></trkpt><trkpt lat="44.36973741769794" lon="8.151448896555562"><ele>637.0</ele><time>2026-04-04T13:51:25Z</time></trkpt><trkpt lat="44.369526840045175" lon="8.151561306202657"><ele>632.0</ele><time>2026-04-04T13:51:26Z</time></trkpt><trkpt lat="44.369314136877975" lon="8.151669713352057"><ele>632.0</ele><time>2026-04-04T13:51:27Z</time></trkpt><trkpt lat="44.36911910494178" lon="8.151814758397313"><ele>632.0</ele><time>2026-04-04T13:51:28Z</time></trkpt><trkpt lat="44.368947452366726" lon="8.151967032876392"><ele>632.0</ele><time>2026-04-04T13:51:29Z</time></trkpt><trkpt lat="44.36875523103312" lon="8.152104961825293"><ele>633.6666666666666</ele><time>2026-04-04T13:51:30Z</time></trkpt><trkpt lat="44.36855953428738" lon="8.15223845271803"><ele>635.3333333333334</ele><time>2026-04-04T13:51:31Z</time></trkpt><trkpt lat="44.36835808279717" lon="8.152378429353446"><ele>637.0</ele><time>2026-04-04T13:51:32Z</time></trkpt><trkpt lat="44.368151698193095" lon="8.152527734728586"><ele>645.5</ele><time>2026-04-04T13:51:33Z</time></trkpt><trkpt lat="44.36794505293983" lon="8.152680012940024"><ele>654.0</ele><time>2026-04-04T13:51:34Z</time></trkpt><trkpt lat="44.36773814841809" lon="8.15283197793395"><ele>654.0</ele><time>2026-04-04T13:51:35Z</time></trkpt><trkpt lat="44.367535069436734" lon="8.15298839859875"><ele>654.0</ele><time>2026-04-04T13:51:36Z</time></trkpt><trkpt lat="44.36733032370569" lon="8.153150291154063"><ele>672.5</ele><time>2026-04-04T13:51:37.017Z</time></trkpt><trkpt lat="44.36712901190183" lon="8.153308708733192"><ele>691.0</ele><time>2026-04-04T13:51:38.016Z</time></trkpt><trkpt lat="44.36694092995891" lon="8.153492172186024"><ele>691.0</ele><time>2026-04-04T13:51:39.016Z</time></trkpt><trkpt lat="44.366757227108685" lon="8.153687061272674"><ele>691.0</ele><time>2026-04-04T13:51:40.02Z</time></trkpt><trkpt lat="44.3665838089567" lon="8.15388148376978"><ele>693.0</ele><time>2026-04-04T13:51:41.015Z</time></trkpt><trkpt lat="44.36641834426501" lon="8.154080269538449"><ele>695.0</ele><time>2026-04-04T13:51:42.016Z</time></trkpt><trkpt lat="44.366257258643195" lon="8.154287478257734"><ele>697.0</ele><time>2026-04-04T13:51:43.016Z</time></trkpt><trkpt lat="44.36535752140172" lon="8.155859452121852"><ele>699.5</ele><time>2026-04-04T13:51:46.209Z</time></trkpt><trkpt lat="44.36510299417717" lon="8.15637679879283"><ele>702.0</ele><time>2026-04-04T13:51:47.209Z</time></trkpt><trkpt lat="44.364870226660464" lon="8.15691394297387"><ele>699.0</ele><time>2026-04-04T13:51:48.21Z</time></trkpt><trkpt lat="44.364662381272844" lon="8.157469594068948"><ele>696.0</ele><time>2026-04-04T13:51:49.209Z</time></trkpt><trkpt lat="44.36447846549533" lon="8.158042159340232"><ele>698.0</ele><time>2026-04-04T13:51:50.209Z</time></trkpt><trkpt lat="44.364318626615976" lon="8.15862892412527"><ele>700.0</ele><time>2026-04-04T13:51:51.21Z</time></trkpt><trkpt lat="44.364181743638376" lon="8.159226209841286"><ele>692.0</ele><time>2026-04-04T13:51:52.209Z</time></trkpt><trkpt lat="44.36407333647492" lon="8.15983471103613"><ele>684.0</ele><time>2026-04-04T13:51:53.209Z</time></trkpt><trkpt lat="44.36398929253247" lon="8.16045129195652"><ele>675.0</ele><time>2026-04-04T13:51:54.21Z</time></trkpt><trkpt lat="44.36393145880733" lon="8.161072565858758"><ele>666.0</ele><time>2026-04-04T13:51:55.209Z</time></trkpt><trkpt lat="44.36390001074211" lon="8.161698319667856"><ele>661.5</ele><time>2026-04-04T13:51:56.209Z</time></trkpt><trkpt lat="44.36389449214786" lon="8.162325802375939"><ele>657.0</ele><time>2026-04-04T13:51:57.209Z</time></trkpt><trkpt lat="44.363905" lon="8.1627492"><ele>630.0</ele><time>2026-04-04T13:51:58.209Z</time></trkpt><trkpt lat="44.36397448186238" lon="8.163737570874545"><ele>626.0</ele><time>2026-04-04T13:52:14.999Z</time></trkpt><trkpt lat="44.36399758090771" lon="8.164064503736125"><ele>622.0</ele><time>2026-04-04T13:52:15.999Z</time></trkpt><trkpt lat="44.36403621774334" lon="8.164383192566703"><ele>622.0</ele><time>2026-04-04T13:52:16.999Z</time></trkpt><trkpt lat="44.36404457340745" lon="8.164713885298365"><ele>622.0</ele><time>2026-04-04T13:52:17.999Z</time></trkpt><trkpt lat="44.36405132306888" lon="8.165036601044756"><ele>621.3333333333334</ele><time>2026-04-04T13:52:18.999Z</time></trkpt><trkpt lat="44.364068608004686" lon="8.165343669381032"><ele>620.6666666666666</ele><time>2026-04-04T13:52:19.999Z</time></trkpt><trkpt lat="44.364098362760934" lon="8.16565406900345"><ele>620.0</ele><time>2026-04-04T13:52:20.999Z</time></trkpt><trkpt lat="44.36410678122159" lon="8.165964744674369"><ele>617.6666666666666</ele><time>2026-04-04T13:52:21.999Z</time></trkpt><trkpt lat="44.36413952614155" lon="8.166253342777178"><ele>615.3333333333334</ele><time>2026-04-04T13:52:22.999Z</time></trkpt><trkpt lat="44.36415762283146" lon="8.166554683696834"><ele>613.0</ele><time>2026-04-04T13:52:23.999Z</time></trkpt><trkpt lat="44.364175646184044" lon="8.166864150883626"><ele>611.6666666666667</ele><time>2026-04-04T13:52:24.999Z</time></trkpt><trkpt lat="44.364195112454276" lon="8.16717140807658"><ele>610.3333333333334</ele><time>2026-04-04T13:52:25.999Z</time></trkpt><trkpt lat="44.364224661293655" lon="8.167475884979229"><ele>609.0</ele><time>2026-04-04T13:52:26.999Z</time></trkpt><trkpt lat="44.36425131576141" lon="8.167782389858246"><ele>606.6666666666666</ele><time>2026-04-04T13:52:27.999Z</time></trkpt><trkpt lat="44.364268753816596" lon="8.168075415242807"><ele>604.3333333333333</ele><time>2026-04-04T13:52:28.999Z</time></trkpt><trkpt lat="44.364296415737094" lon="8.168370161082118"><ele>602.0</ele><time>2026-04-04T13:52:29.999Z</time></trkpt><trkpt lat="44.364326779088834" lon="8.168676792377571"><ele>599.6666666666666</ele><time>2026-04-04T13:52:30.999Z</time></trkpt><trkpt lat="44.36431369057778" lon="8.168913495209104"><ele>597.3333333333334</ele><time>2026-04-04T13:52:31.999Z</time></trkpt><trkpt lat="44.36431976671483" lon="8.169128839611957"><ele>595.0</ele><time>2026-04-04T13:52:32.999Z</time></trkpt><trkpt lat="44.364313026646506" lon="8.16938524737549"><ele>595.0</ele><time>2026-04-04T13:52:33.999Z</time></trkpt><trkpt lat="44.36429675879316" lon="8.169645434971232"><ele>595.0</ele><time>2026-04-04T13:52:34.999Z</time></trkpt><trkpt lat="44.36426891148757" lon="8.16990461578412"><ele>595.0</ele><time>2026-04-04T13:52:35.999Z</time></trkpt><trkpt lat="44.36422892260994" lon="8.170140751447443"><ele>593.0</ele><time>2026-04-04T13:52:36.999Z</time></trkpt><trkpt lat="44.364186596102854" lon="8.170372691653442"><ele>591.0</ele><time>2026-04-04T13:52:37.999Z</time></trkpt><trkpt lat="44.36412914216272" lon="8.170600352353185"><ele>589.0</ele><time>2026-04-04T13:52:38.999Z</time></trkpt><trkpt lat="44.364047619270025" lon="8.170828811495914"><ele>585.0</ele><time>2026-04-04T13:52:39.999Z</time></trkpt><trkpt lat="44.36395904604496" lon="8.171074937896854"><ele>581.0</ele><time>2026-04-04T13:52:40.999Z</time></trkpt><trkpt lat="44.3638786787233" lon="8.171318825994222"><ele>577.0</ele><time>2026-04-04T13:52:41.999Z</time></trkpt><trkpt lat="44.3637864633879" lon="8.171540153584152"><ele>574.3333333333334</ele><time>2026-04-04T13:52:42.999Z</time></trkpt><trkpt lat="44.363677731250036" lon="8.17175101687909"><ele>571.6666666666666</ele><time>2026-04-04T13:52:43.999Z</time></trkpt><trkpt lat="44.36355541027385" lon="8.171955636830324"><ele>569.0</ele><time>2026-04-04T13:52:44.999Z</time></trkpt><trkpt lat="44.36342980344713" lon="8.172157007328048"><ele>569.0</ele><time>2026-04-04T13:52:45.999Z</time></trkpt><trkpt lat="44.36329238687167" lon="8.172350687190429"><ele>569.0</ele><time>2026-04-04T13:52:46.999Z</time></trkpt><trkpt lat="44.36315009821537" lon="8.172535318801115"><ele>569.0</ele><time>2026-04-04T13:52:47.999Z</time></trkpt><trkpt lat="44.362992766565874" lon="8.172702935318256"><ele>563.6666666666666</ele><time>2026-04-04T13:52:48.999Z</time></trkpt><trkpt lat="44.36283083753861" lon="8.172860874904574"><ele>558.3333333333334</ele><time>2026-04-04T13:52:49.999Z</time></trkpt><trkpt lat="44.362665293568654" lon="8.17300690788557"><ele>553.0</ele><time>2026-04-04T13:52:50.999Z</time></trkpt><trkpt lat="44.36249535769007" lon="8.173134757780444"><ele>549.6666666666667</ele><time>2026-04-04T13:52:51.999Z</time></trkpt><trkpt lat="44.362323388285795" lon="8.17325117584584"><ele>546.3333333333334</ele><time>2026-04-04T13:52:52.999Z</time></trkpt><trkpt lat="44.36217026474149" lon="8.173360408692794"><ele>543.0</ele><time>2026-04-04T13:52:53.999Z</time></trkpt><trkpt lat="44.36200908590272" lon="8.173458725632894"><ele>541.75</ele><time>2026-04-04T13:52:54.999Z</time></trkpt><trkpt lat="44.361869563555636" lon="8.173556157364603"><ele>540.5</ele><time>2026-04-04T13:52:55.999Z</time></trkpt><trkpt lat="44.36174393183287" lon="8.173660304657378"><ele>539.25</ele><time>2026-04-04T13:52:56.999Z</time></trkpt><trkpt lat="44.36164262788484" lon="8.173753891007971"><ele>538.0</ele><time>2026-04-04T13:52:57.999Z</time></trkpt><trkpt lat="44.36154594889472" lon="8.173853601136114"><ele>538.0</ele><time>2026-04-04T13:52:58.999Z</time></trkpt><trkpt lat="44.361454177989195" lon="8.173974394449727"><ele>538.0</ele><time>2026-04-04T13:52:59.999Z</time></trkpt><trkpt lat="44.36135997941097" lon="8.174115648533851"><ele>538.0</ele><time>2026-04-04T13:53:00.999Z</time></trkpt><trkpt lat="44.361264702864844" lon="8.174269213864257"><ele>538.0</ele><time>2026-04-04T13:53:01.999Z</time></trkpt><trkpt lat="44.36117371226763" lon="8.17442454116315"><ele>537.5</ele><time>2026-04-04T13:53:02.999Z</time></trkpt><trkpt lat="44.36109768383975" lon="8.17458145652834"><ele>537.0</ele><time>2026-04-04T13:53:03.999Z</time></trkpt><trkpt lat="44.361032902250486" lon="8.174733281646649"><ele>536.5</ele><time>2026-04-04T13:53:04.999Z</time></trkpt><trkpt lat="44.360967007586154" lon="8.174882276193468"><ele>536.0</ele><time>2026-04-04T13:53:05.999Z</time></trkpt><trkpt lat="44.36089751705751" lon="8.175023903513663"><ele>536.0</ele><time>2026-04-04T13:53:06.999Z</time></trkpt><trkpt lat="44.36083280103527" lon="8.175172159044006"><ele>536.0</ele><time>2026-04-04T13:53:07.999Z</time></trkpt><trkpt lat="44.36076477766373" lon="8.17532071690019"><ele>536.0</ele><time>2026-04-04T13:53:08.999Z</time></trkpt><trkpt lat="44.36070632231245" lon="8.175473571319797"><ele>536.0</ele><time>2026-04-04T13:53:09.999Z</time></trkpt><trkpt lat="44.36067741457842" lon="8.175641990770309"><ele>537.25</ele><time>2026-04-04T13:53:10.999Z</time></trkpt><trkpt lat="44.36064479662838" lon="8.175811769473148"><ele>538.5</ele><time>2026-04-04T13:53:11.999Z</time></trkpt><trkpt lat="44.360626956753755" lon="8.175992078644295"><ele>539.75</ele><time>2026-04-04T13:53:12.999Z</time></trkpt><trkpt lat="44.360620951056156" lon="8.17617369953403"><ele>541.0</ele><time>2026-04-04T13:53:13.999Z</time></trkpt><trkpt lat="44.36061395383868" lon="8.176340231464456"><ele>541.0</ele><time>2026-04-04T13:53:14.999Z</time></trkpt><trkpt lat="44.360558181075056" lon="8.176519201890844"><ele>541.0</ele><time>2026-04-04T13:53:15.999Z</time></trkpt><trkpt lat="44.36052342131304" lon="8.176673485864542"><ele>541.0</ele><time>2026-04-04T13:53:16.999Z</time></trkpt><trkpt lat="44.36046113072711" lon="8.176833587701012"><ele>541.0</ele><time>2026-04-04T13:53:17.999Z</time></trkpt><trkpt lat="44.36042013118246" lon="8.176994910468876"><ele>534.2</ele><time>2026-04-04T13:53:18.999Z</time></trkpt><trkpt lat="44.36039573867282" lon="8.17715872384922"><ele>527.4000000000001</ele><time>2026-04-04T13:53:19.999Z</time></trkpt><trkpt lat="44.36036075085808" lon="8.177299223220821"><ele>520.6</ele><time>2026-04-04T13:53:20.999Z</time></trkpt><trkpt lat="44.3603625141854" lon="8.177438397561323"><ele>513.8000000000001</ele><time>2026-04-04T13:53:21.999Z</time></trkpt><trkpt lat="44.3603616175654" lon="8.177576648844372"><ele>507.0</ele><time>2026-04-04T13:53:23Z</time></trkpt><trkpt lat="44.36038633262033" lon="8.177710444913854"><ele>506.40000000000003</ele><time>2026-04-04T13:53:24Z</time></trkpt><trkpt lat="44.36042995017379" lon="8.177840206272803"><ele>505.80000000000007</ele><time>2026-04-04T13:53:25Z</time></trkpt><trkpt lat="44.36047475110986" lon="8.177961846414897"><ele>505.2</ele><time>2026-04-04T13:53:26Z</time></trkpt><trkpt lat="44.36049389788382" lon="8.178112098145814"><ele>504.6</ele><time>2026-04-04T13:53:27Z</time></trkpt><trkpt lat="44.36049769484714" lon="8.178275514438745"><ele>504.0</ele><time>2026-04-04T13:53:28Z</time></trkpt><trkpt lat="44.36049765260227" lon="8.178468417086897"><ele>503.33333333333337</ele><time>2026-04-04T13:53:29Z</time></trkpt><trkpt lat="44.36049765260031" lon="8.178688492841195"><ele>502.6666666666667</ele><time>2026-04-04T13:53:30Z</time></trkpt><trkpt lat="44.360499008371214" lon="8.178927640749901"><ele>502.0</ele><time>2026-04-04T13:53:31Z</time></trkpt><trkpt lat="44.36050435259434" lon="8.179178167652367"><ele>500.33333333333337</ele><time>2026-04-04T13:53:32Z</time></trkpt><trkpt lat="44.36049253322282" lon="8.179407775306265"><ele>498.66666666666663</ele><time>2026-04-04T13:53:33Z</time></trkpt><trkpt lat="44.360489405761435" lon="8.179624303474384"><ele>497.0</ele><time>2026-04-04T13:53:34Z</time></trkpt><trkpt lat="44.360478584839925" lon="8.17984518589992"><ele>495.0</ele><time>2026-04-04T13:53:35Z</time></trkpt><trkpt lat="44.3604890844958" lon="8.18007311091491"><ele>493.0</ele><time>2026-04-04T13:53:36Z</time></trkpt><trkpt lat="44.36051748823185" lon="8.180306331235185"><ele>491.0</ele><time>2026-04-04T13:53:37Z</time></trkpt><trkpt lat="44.3605594008285" lon="8.180524475333238"><ele>502.0</ele><time>2026-04-04T13:53:38Z</time></trkpt><trkpt lat="44.36061912482541" lon="8.180725922717453"><ele>513.0</ele><time>2026-04-04T13:53:39Z</time></trkpt><trkpt lat="44.360685017322936" lon="8.18092874034054"><ele>524.0</ele><time>2026-04-04T13:53:40Z</time></trkpt><trkpt lat="44.36073413137538" lon="8.181154490698047"><ele>524.0</ele><time>2026-04-04T13:53:41Z</time></trkpt><trkpt lat="44.36075564574442" lon="8.181382659858365"><ele>524.0</ele><time>2026-04-04T13:53:42Z</time></trkpt><trkpt lat="44.36076165118342" lon="8.18161528535879"><ele>524.0</ele><time>2026-04-04T13:53:43Z</time></trkpt><trkpt lat="44.36074504675024" lon="8.181836187597444"><ele>521.5</ele><time>2026-04-04T13:53:44Z</time></trkpt><trkpt lat="44.36072380640232" lon="8.182042074379108"><ele>519.0</ele><time>2026-04-04T13:53:45Z</time></trkpt><trkpt lat="44.36071127732253" lon="8.182243948500567"><ele>516.5</ele><time>2026-04-04T13:53:46Z</time></trkpt><trkpt lat="44.360704913223564" lon="8.182443426064268"><ele>514.0</ele><time>2026-04-04T13:53:47Z</time></trkpt><trkpt lat="44.36069394777869" lon="8.18263926295846"><ele>513.0</ele><time>2026-04-04T13:53:48Z</time></trkpt><trkpt lat="44.360670339994606" lon="8.182834655615034"><ele>512.0</ele><time>2026-04-04T13:53:49Z</time></trkpt><trkpt lat="44.36063616465827" lon="8.183051722915001"><ele>511.0</ele><time>2026-04-04T13:53:50Z</time></trkpt><trkpt lat="44.360582991439834" lon="8.183285773059968"><ele>499.6666666666667</ele><time>2026-04-04T13:53:51Z</time></trkpt><trkpt lat="44.360524606975126" lon="8.183516586174303"><ele>488.33333333333337</ele><time>2026-04-04T13:53:52Z</time></trkpt><trkpt lat="44.36045573536182" lon="8.183734242240785"><ele>477.0</ele><time>2026-04-04T13:53:53Z</time></trkpt><trkpt lat="44.360387776217664" lon="8.183933149237708"><ele>478.25</ele><time>2026-04-04T13:53:54Z</time></trkpt><trkpt lat="44.36031737527682" lon="8.184122273964075"><ele>479.5</ele><time>2026-04-04T13:53:55Z</time></trkpt><trkpt lat="44.3602676515531" lon="8.184290642128643"><ele>480.75</ele><time>2026-04-04T13:53:56Z</time></trkpt><trkpt lat="44.36023386742441" lon="8.184459529938767"><ele>482.0</ele><time>2026-04-04T13:53:57Z</time></trkpt><trkpt lat="44.36023567872583" lon="8.184628507093041"><ele>482.0</ele><time>2026-04-04T13:53:58Z</time></trkpt><trkpt lat="44.36026943945391" lon="8.184816571708712"><ele>482.0</ele><time>2026-04-04T13:53:59Z</time></trkpt><trkpt lat="44.36033976691501" lon="8.185005582639448"><ele>482.0</ele><time>2026-04-04T13:54:00Z</time></trkpt><trkpt lat="44.3604023812312" lon="8.185190259001866"><ele>482.0</ele><time>2026-04-04T13:54:01Z</time></trkpt><trkpt lat="44.36046631744622" lon="8.185411131802748"><ele>482.0</ele><time>2026-04-04T13:54:02Z</time></trkpt><trkpt lat="44.360531119421296" lon="8.185590580231818"><ele>482.0</ele><time>2026-04-04T13:54:03Z</time></trkpt><trkpt lat="44.360616163836966" lon="8.185752492658937"><ele>482.0</ele><time>2026-04-04T13:54:04Z</time></trkpt><trkpt lat="44.360719124641655" lon="8.185889916758896"><ele>482.0</ele><time>2026-04-04T13:54:05Z</time></trkpt><trkpt lat="44.3608246790693" lon="8.186025704585813"><ele>483.0</ele><time>2026-04-04T13:54:06Z</time></trkpt><trkpt lat="44.3609165739802" lon="8.186179313869443"><ele>484.0</ele><time>2026-04-04T13:54:07Z</time></trkpt><trkpt lat="44.36097755731464" lon="8.186367044109083"><ele>485.0</ele><time>2026-04-04T13:54:08Z</time></trkpt><trkpt lat="44.36100931520714" lon="8.186555006621706"><ele>486.0</ele><time>2026-04-04T13:54:09Z</time></trkpt><trkpt lat="44.361017282495396" lon="8.186743056781435"><ele>483.25</ele><time>2026-04-04T13:54:10Z</time></trkpt><trkpt lat="44.36100362236895" lon="8.186943282615873"><ele>480.5</ele><time>2026-04-04T13:54:11Z</time></trkpt><trkpt lat="44.36097696812914" lon="8.187144004959253"><ele>477.75</ele><time>2026-04-04T13:54:12Z</time></trkpt><trkpt lat="44.360953373191464" lon="8.187329543499853"><ele>475.0</ele><time>2026-04-04T13:54:13Z</time></trkpt><trkpt lat="44.360912468357334" lon="8.187513192077834"><ele>474.25</ele><time>2026-04-04T13:54:14Z</time></trkpt><trkpt lat="44.36085199968026" lon="8.187681554852041"><ele>473.5</ele><time>2026-04-04T13:54:15Z</time></trkpt><trkpt lat="44.36076376308657" lon="8.187841565039676"><ele>472.75</ele><time>2026-04-04T13:54:16Z</time></trkpt><trkpt lat="44.36066022753161" lon="8.18795803474591"><ele>472.0</ele><time>2026-04-04T13:54:17Z</time></trkpt><trkpt lat="44.36057031558619" lon="8.188073933952099"><ele>472.5</ele><time>2026-04-04T13:54:18Z</time></trkpt><trkpt lat="44.3605162315115" lon="8.188214604336208"><ele>473.0</ele><time>2026-04-04T13:54:19Z</time></trkpt><trkpt lat="44.36049474982376" lon="8.188391940024916"><ele>473.5</ele><time>2026-04-04T13:54:19.999Z</time></trkpt><trkpt lat="44.36052151763303" lon="8.188607942221731"><ele>474.0</ele><time>2026-04-04T13:54:20.999Z</time></trkpt><trkpt lat="44.36056971730782" lon="8.188827753965574"><ele>472.5</ele><time>2026-04-04T13:54:21.999Z</time></trkpt><trkpt lat="44.36058521902113" lon="8.189043018312521"><ele>471.0</ele><time>2026-04-04T13:54:22.999Z</time></trkpt><trkpt lat="44.360580780322046" lon="8.18924298556963"><ele>469.5</ele><time>2026-04-04T13:54:23.999Z</time></trkpt><trkpt lat="44.3606144600572" lon="8.189446123522966"><ele>468.0</ele><time>2026-04-04T13:54:24.999Z</time></trkpt><trkpt lat="44.36066522708356" lon="8.189640593264874"><ele>468.0</ele><time>2026-04-04T13:54:25.999Z</time></trkpt><trkpt lat="44.360722421606305" lon="8.18980510010919"><ele>468.0</ele><time>2026-04-04T13:54:26.999Z</time></trkpt><trkpt lat="44.360726326277295" lon="8.189986143350108"><ele>468.0</ele><time>2026-04-04T13:54:27.999Z</time></trkpt><trkpt lat="44.36070967007617" lon="8.190158426451033"><ele>468.0</ele><time>2026-04-04T13:54:28.999Z</time></trkpt><trkpt lat="44.36070064674331" lon="8.190325008826926"><ele>466.4</ele><time>2026-04-04T13:54:29.999Z</time></trkpt><trkpt lat="44.360685112817364" lon="8.190475488938691"><ele>464.79999999999995</ele><time>2026-04-04T13:54:30.999Z</time></trkpt><trkpt lat="44.36071769363552" lon="8.190605971394877"><ele>463.2</ele><time>2026-04-04T13:54:31.999Z</time></trkpt><trkpt lat="44.360789104174195" lon="8.190723386398062"><ele>461.6</ele><time>2026-04-04T13:54:32.999Z</time></trkpt><trkpt lat="44.36089211745653" lon="8.190805150925879"><ele>460.0</ele><time>2026-04-04T13:54:33.999Z</time></trkpt><trkpt lat="44.36099029225705" lon="8.190837156673057"><ele>460.0</ele><time>2026-04-04T13:54:34.999Z</time></trkpt><trkpt lat="44.36107496034521" lon="8.190812882104435"><ele>460.0</ele><time>2026-04-04T13:54:35.999Z</time></trkpt><trkpt lat="44.36117393401082" lon="8.190758199250253"><ele>460.0</ele><time>2026-04-04T13:54:36.999Z</time></trkpt><trkpt lat="44.361243286079585" lon="8.190667988959095"><ele>460.0</ele><time>2026-04-04T13:54:37.999Z</time></trkpt><trkpt lat="44.36132300805617" lon="8.190644066362596"><ele>460.0</ele><time>2026-04-04T13:54:38.999Z</time></trkpt><trkpt lat="44.36140682039885" lon="8.19062698316181"><ele>458.8</ele><time>2026-04-04T13:54:39.999Z</time></trkpt><trkpt lat="44.36148940778561" lon="8.190738374778483"><ele>457.6</ele><time>2026-04-04T13:54:40.999Z</time></trkpt><trkpt lat="44.36158207880698" lon="8.190836060991371"><ele>456.4</ele><time>2026-04-04T13:54:41.999Z</time></trkpt><trkpt lat="44.36165984251073" lon="8.190940309406399"><ele>455.2</ele><time>2026-04-04T13:54:42.999Z</time></trkpt><trkpt lat="44.36173064824921" lon="8.191039330997796"><ele>454.0</ele><time>2026-04-04T13:54:43.999Z</time></trkpt><trkpt lat="44.36178139043368" lon="8.191144824602011"><ele>454.0</ele><time>2026-04-04T13:54:44.999Z</time></trkpt><trkpt lat="44.361802096315685" lon="8.191271407199528"><ele>454.0</ele><time>2026-04-04T13:54:45.999Z</time></trkpt><trkpt lat="44.36179271467867" lon="8.191400708166338"><ele>454.0</ele><time>2026-04-04T13:54:46.999Z</time></trkpt><trkpt lat="44.36175372425085" lon="8.191530030404042"><ele>454.0</ele><time>2026-04-04T13:54:47.999Z</time></trkpt><trkpt lat="44.36170849168516" lon="8.191674578612329"><ele>454.0</ele><time>2026-04-04T13:54:48.999Z</time></trkpt><trkpt lat="44.36166719261172" lon="8.191839312450979"><ele>451.75</ele><time>2026-04-04T13:54:49.999Z</time></trkpt><trkpt lat="44.361638623270906" lon="8.191986163523199"><ele>449.5</ele><time>2026-04-04T13:54:50.999Z</time></trkpt><trkpt lat="44.361599933613434" lon="8.192149309521081"><ele>447.25</ele><time>2026-04-04T13:54:51.999Z</time></trkpt><trkpt lat="44.36156841573849" lon="8.192310054604983"><ele>445.0</ele><time>2026-04-04T13:54:52.999Z</time></trkpt><trkpt lat="44.36155084251154" lon="8.192458589745785"><ele>443.75</ele><time>2026-04-04T13:54:53.999Z</time></trkpt><trkpt lat="44.36156637654604" lon="8.192626314807415"><ele>442.5</ele><time>2026-04-04T13:54:54.999Z</time></trkpt><trkpt lat="44.36161019774583" lon="8.19278885737102"><ele>441.25</ele><time>2026-04-04T13:54:55.999Z</time></trkpt><trkpt lat="44.361690755797895" lon="8.192929548362258"><ele>440.0</ele><time>2026-04-04T13:54:56.999Z</time></trkpt><trkpt lat="44.36178779215244" lon="8.193044960956946"><ele>440.0</ele><time>2026-04-04T13:54:57.999Z</time></trkpt><trkpt lat="44.36190715380129" lon="8.19312889258585"><ele>440.0</ele><time>2026-04-04T13:54:58.999Z</time></trkpt><trkpt lat="44.3620377901657" lon="8.193175744657804"><ele>440.0</ele><time>2026-04-04T13:54:59.999Z</time></trkpt><trkpt lat="44.36216792416875" lon="8.1931811006499"><ele>440.0</ele><time>2026-04-04T13:55:00.999Z</time></trkpt><trkpt lat="44.362303973506194" lon="8.193162975667933"><ele>438.66666666666663</ele><time>2026-04-04T13:55:01.999Z</time></trkpt><trkpt lat="44.36244323547188" lon="8.193134154781447"><ele>437.33333333333337</ele><time>2026-04-04T13:55:02.999Z</time></trkpt><trkpt lat="44.36259991681513" lon="8.193117302275263"><ele>436.0</ele><time>2026-04-04T13:55:03.999Z</time></trkpt><trkpt lat="44.36276646780578" lon="8.193109912878596"><ele>436.0</ele><time>2026-04-04T13:55:04.999Z</time></trkpt><trkpt lat="44.36294549408764" lon="8.193093984989785"><ele>436.0</ele><time>2026-04-04T13:55:05.999Z</time></trkpt><trkpt lat="44.363128765825635" lon="8.193102192369189"><ele>436.0</ele><time>2026-04-04T13:55:06.999Z</time></trkpt><trkpt lat="44.36331736439737" lon="8.193127211039313"><ele>439.33333333333337</ele><time>2026-04-04T13:55:07.999Z</time></trkpt><trkpt lat="44.363496463728836" lon="8.19317623544959"><ele>442.66666666666663</ele><time>2026-04-04T13:55:08.999Z</time></trkpt><trkpt lat="44.36365674598379" lon="8.193221563070685"><ele>446.0</ele><time>2026-04-04T13:55:09.999Z</time></trkpt><trkpt lat="44.36380335025927" lon="8.193268825868852"><ele>444.25</ele><time>2026-04-04T13:55:10.999Z</time></trkpt><trkpt lat="44.3639392702964" lon="8.193317285546552"><ele>442.5</ele><time>2026-04-04T13:55:11.999Z</time></trkpt><trkpt lat="44.364069807072525" lon="8.193379906534222"><ele>440.75</ele><time>2026-04-04T13:55:12.999Z</time></trkpt><trkpt lat="44.364195526382105" lon="8.193485961595574"><ele>439.0</ele><time>2026-04-04T13:55:13.999Z</time></trkpt><trkpt lat="44.36431731333566" lon="8.193621764250986"><ele>439.0</ele><time>2026-04-04T13:55:14.999Z</time></trkpt><trkpt lat="44.364428116253364" lon="8.19380741129643"><ele>439.0</ele><time>2026-04-04T13:55:15.999Z</time></trkpt><trkpt lat="44.3645555632276" lon="8.194014674747656"><ele>439.0</ele><time>2026-04-04T13:55:16.999Z</time></trkpt><trkpt lat="44.36469291740666" lon="8.194226928955045"><ele>438.6666666666667</ele><time>2026-04-04T13:55:17.999Z</time></trkpt><trkpt lat="44.36484595606015" lon="8.194451056332602"><ele>438.33333333333337</ele><time>2026-04-04T13:55:18.999Z</time></trkpt><trkpt lat="44.36496487634073" lon="8.194658957666572"><ele>438.0</ele><time>2026-04-04T13:55:19.999Z</time></trkpt><trkpt lat="44.365063713862725" lon="8.194853954102557"><ele>439.66666666666663</ele><time>2026-04-04T13:55:20.999Z</time></trkpt><trkpt lat="44.36516295196909" lon="8.195038899813257"><ele>441.3333333333333</ele><time>2026-04-04T13:55:21.999Z</time></trkpt><trkpt lat="44.36526963540627" lon="8.195215282616694"><ele>443.0</ele><time>2026-04-04T13:55:22.999Z</time></trkpt><trkpt lat="44.365360078670584" lon="8.19539026862189"><ele>443.0</ele><time>2026-04-04T13:55:23.999Z</time></trkpt><trkpt lat="44.365441720474195" lon="8.19557570357482"><ele>443.0</ele><time>2026-04-04T13:55:24.999Z</time></trkpt><trkpt lat="44.36550813481393" lon="8.195758579961126"><ele>443.0</ele><time>2026-04-04T13:55:25.999Z</time></trkpt><trkpt lat="44.3655724087378" lon="8.19594220538936"><ele>443.0</ele><time>2026-04-04T13:55:26.999Z</time></trkpt><trkpt lat="44.36562912007831" lon="8.196126291611812"><ele>441.25</ele><time>2026-04-04T13:55:27.999Z</time></trkpt><trkpt lat="44.365673714272944" lon="8.196308076143517"><ele>439.5</ele><time>2026-04-04T13:55:29Z</time></trkpt><trkpt lat="44.36570726732108" lon="8.196481969723123"><ele>437.75</ele><time>2026-04-04T13:55:30Z</time></trkpt><trkpt lat="44.3657321774775" lon="8.196662405485815"><ele>436.0</ele><time>2026-04-04T13:55:31Z</time></trkpt><trkpt lat="44.36575187125698" lon="8.196841048616244"><ele>436.0</ele><time>2026-04-04T13:55:32Z</time></trkpt><trkpt lat="44.36574521754863" lon="8.1970252928679"><ele>436.0</ele><time>2026-04-04T13:55:33Z</time></trkpt><trkpt lat="44.36572595899177" lon="8.197210374865842"><ele>436.0</ele><time>2026-04-04T13:55:34Z</time></trkpt><trkpt lat="44.36570194716888" lon="8.197398522005257"><ele>436.0</ele><time>2026-04-04T13:55:35Z</time></trkpt><trkpt lat="44.365682017469695" lon="8.197575808682906"><ele>436.25</ele><time>2026-04-04T13:55:36Z</time></trkpt><trkpt lat="44.36565968005174" lon="8.197744929695062"><ele>436.5</ele><time>2026-04-04T13:55:37Z</time></trkpt><trkpt lat="44.365642378722264" lon="8.19791118796071"><ele>436.75</ele><time>2026-04-04T13:55:38Z</time></trkpt><trkpt lat="44.3656087800238" lon="8.198079262265953"><ele>437.0</ele><time>2026-04-04T13:55:39Z</time></trkpt><trkpt lat="44.36555879767973" lon="8.1982471435459"><ele>438.25</ele><time>2026-04-04T13:55:40Z</time></trkpt><trkpt lat="44.36549229328866" lon="8.198397847681129"><ele>439.5</ele><time>2026-04-04T13:55:41Z</time></trkpt><trkpt lat="44.365402654299906" lon="8.19854031029907"><ele>440.75</ele><time>2026-04-04T13:55:42Z</time></trkpt><trkpt lat="44.365302034073025" lon="8.198668763797903"><ele>442.0</ele><time>2026-04-04T13:55:43Z</time></trkpt><trkpt lat="44.365202037885496" lon="8.19879974708308"><ele>442.0</ele><time>2026-04-04T13:55:44Z</time></trkpt><trkpt lat="44.36510725746191" lon="8.198943344197493"><ele>442.0</ele><time>2026-04-04T13:55:45Z</time></trkpt><trkpt lat="44.36501966313408" lon="8.199092892148633"><ele>442.0</ele><time>2026-04-04T13:55:46Z</time></trkpt><trkpt lat="44.364939703588014" lon="8.199252395476474"><ele>442.0</ele><time>2026-04-04T13:55:47Z</time></trkpt><trkpt lat="44.364878110165805" lon="8.199426030491177"><ele>441.5</ele><time>2026-04-04T13:55:48Z</time></trkpt><trkpt lat="44.36482031723137" lon="8.199597034352742"><ele>441.0</ele><time>2026-04-04T13:55:49Z</time></trkpt><trkpt lat="44.36475978103074" lon="8.199771452345653"><ele>440.5</ele><time>2026-04-04T13:55:50Z</time></trkpt><trkpt lat="44.36469209786663" lon="8.199946330827009"><ele>440.0</ele><time>2026-04-04T13:55:51Z</time></trkpt><trkpt lat="44.36462654728253" lon="8.200120334453167"><ele>440.0</ele><time>2026-04-04T13:55:52Z</time></trkpt><trkpt lat="44.36456395712581" lon="8.200302797018377"><ele>440.0</ele><time>2026-04-04T13:55:53Z</time></trkpt><trkpt lat="44.36450249198216" lon="8.200483738353789"><ele>440.0</ele><time>2026-04-04T13:55:54Z</time></trkpt><trkpt lat="44.36444265643503" lon="8.200663968120638"><ele>440.0</ele><time>2026-04-04T13:55:55Z</time></trkpt><trkpt lat="44.364381312457596" lon="8.20084608430628"><ele>438.3333333333333</ele><time>2026-04-04T13:55:56Z</time></trkpt><trkpt lat="44.36432329370068" lon="8.201025188776411"><ele>436.66666666666663</ele><time>2026-04-04T13:55:57Z</time></trkpt><trkpt lat="44.36426578556708" lon="8.201221803062328"><ele>435.0</ele><time>2026-04-04T13:55:58Z</time></trkpt><trkpt lat="44.36419391369142" lon="8.20143324005038"><ele>433.66666666666663</ele><time>2026-04-04T13:55:59Z</time></trkpt><trkpt lat="44.36411867170298" lon="8.201640975541727"><ele>432.3333333333333</ele><time>2026-04-04T13:56:00Z</time></trkpt><trkpt lat="44.36402628528453" lon="8.201849765722876"><ele>431.0</ele><time>2026-04-04T13:56:01Z</time></trkpt><trkpt lat="44.36393670969695" lon="8.20203892834027"><ele>435.66666666666663</ele><time>2026-04-04T13:56:02Z</time></trkpt><trkpt lat="44.36385215020513" lon="8.202218779757386"><ele>440.33333333333337</ele><time>2026-04-04T13:56:03Z</time></trkpt><trkpt lat="44.363764666447885" lon="8.202396185845368"><ele>445.0</ele><time>2026-04-04T13:56:04.019Z</time></trkpt><trkpt lat="44.36365644681585" lon="8.202546971707882"><ele>445.0</ele><time>2026-04-04T13:56:05.018Z</time></trkpt><trkpt lat="44.36355787043238" lon="8.202707105430157"><ele>445.0</ele><time>2026-04-04T13:56:06.02Z</time></trkpt><trkpt lat="44.3634583273673" lon="8.202859728200016"><ele>445.0</ele><time>2026-04-04T13:56:07.019Z</time></trkpt><trkpt lat="44.363360282012714" lon="8.202998721875401"><ele>445.0</ele><time>2026-04-04T13:56:08Z</time></trkpt><trkpt lat="44.36313246885375" lon="8.203288442585754"><ele>449.5</ele><time>2026-04-04T13:56:09Z</time></trkpt><trkpt lat="44.36292985176948" lon="8.203515271668438"><ele>454.0</ele><time>2026-04-04T13:56:10Z</time></trkpt><trkpt lat="44.36276515847905" lon="8.203694166210454"><ele>454.0</ele><time>2026-04-04T13:56:11Z</time></trkpt><trkpt lat="44.36260094752252" lon="8.203866632341983"><ele>454.0</ele><time>2026-04-04T13:56:12Z</time></trkpt><trkpt lat="44.362442641670405" lon="8.204035073856833"><ele>454.0</ele><time>2026-04-04T13:56:12.999Z</time></trkpt><trkpt lat="44.36228462673603" lon="8.20420061062861"><ele>476.0</ele><time>2026-04-04T13:56:14.014Z</time></trkpt><trkpt lat="44.360206472850045" lon="8.206473847359513"><ele>465.0</ele><time>2026-04-04T13:56:18.205Z</time></trkpt><trkpt lat="44.359964705113654" lon="8.206825414680138"><ele>454.0</ele><time>2026-04-04T13:56:28.999Z</time></trkpt><trkpt lat="44.35985714728615" lon="8.206992881525245"><ele>454.0</ele><time>2026-04-04T13:56:29.999Z</time></trkpt><trkpt lat="44.35980665978863" lon="8.207171239154857"><ele>454.0</ele><time>2026-04-04T13:56:30.999Z</time></trkpt><trkpt lat="44.35972657883093" lon="8.207375910748723"><ele>454.0</ele><time>2026-04-04T13:56:31.999Z</time></trkpt><trkpt lat="44.3596504904739" lon="8.207577784594761"><ele>450.6666666666667</ele><time>2026-04-04T13:56:32.999Z</time></trkpt><trkpt lat="44.35958213697003" lon="8.207784540619375"><ele>447.33333333333337</ele><time>2026-04-04T13:56:33.999Z</time></trkpt><trkpt lat="44.359522556514825" lon="8.207989689078564"><ele>444.0</ele><time>2026-04-04T13:56:34.999Z</time></trkpt><trkpt lat="44.35947192303929" lon="8.208190896595035"><ele>444.0</ele><time>2026-04-04T13:56:35.999Z</time></trkpt><trkpt lat="44.3594314457635" lon="8.208384631001989"><ele>444.0</ele><time>2026-04-04T13:56:36.999Z</time></trkpt><trkpt lat="44.35941429177703" lon="8.208585899994667"><ele>444.0</ele><time>2026-04-04T13:56:37.999Z</time></trkpt><trkpt lat="44.35941582062473" lon="8.208790028983033"><ele>444.0</ele><time>2026-04-04T13:56:38.999Z</time></trkpt><trkpt lat="44.35943577790195" lon="8.208988570630122"><ele>447.25</ele><time>2026-04-04T13:56:39.999Z</time></trkpt><trkpt lat="44.35947221538717" lon="8.20916831048647"><ele>450.5</ele><time>2026-04-04T13:56:40.999Z</time></trkpt><trkpt lat="44.35951783647268" lon="8.209339828781212"><ele>453.75</ele><time>2026-04-04T13:56:41.999Z</time></trkpt><trkpt lat="44.35957778879853" lon="8.20949652425547"><ele>457.0</ele><time>2026-04-04T13:56:42.999Z</time></trkpt><trkpt lat="44.359652090265634" lon="8.209647609150755"><ele>454.25</ele><time>2026-04-04T13:56:43.999Z</time></trkpt><trkpt lat="44.359741923679046" lon="8.2097722836797"><ele>451.5</ele><time>2026-04-04T13:56:44.999Z</time></trkpt><trkpt lat="44.35983284667319" lon="8.209877581763262"><ele>448.75</ele><time>2026-04-04T13:56:45.999Z</time></trkpt><trkpt lat="44.35990531879631" lon="8.20999009847074"><ele>446.0</ele><time>2026-04-04T13:56:46.999Z</time></trkpt><trkpt lat="44.35995755626121" lon="8.21012965235115"><ele>446.0</ele><time>2026-04-04T13:56:47.999Z</time></trkpt><trkpt lat="44.3599891417471" lon="8.210280599043468"><ele>446.0</ele><time>2026-04-04T13:56:48.999Z</time></trkpt><trkpt lat="44.3600013692244" lon="8.21043528678613"><ele>446.0</ele><time>2026-04-04T13:56:49.999Z</time></trkpt><trkpt lat="44.36000757858982" lon="8.2105766865076"><ele>446.0</ele><time>2026-04-04T13:56:51.018Z</time></trkpt><trkpt lat="44.36003508384201" lon="8.210708658612266"><ele>446.0</ele><time>2026-04-04T13:56:52.02Z</time></trkpt><trkpt lat="44.36009951909283" lon="8.21083060049225"><ele>454.0</ele><time>2026-04-04T13:56:53.019Z</time></trkpt><trkpt lat="44.36018344846263" lon="8.210943298027884"><ele>462.0</ele><time>2026-04-04T13:56:54.018Z</time></trkpt><trkpt lat="44.36049106854182" lon="8.211312988496275"><ele>458.8</ele><time>2026-04-04T13:56:57.999Z</time></trkpt><trkpt lat="44.36057611741371" lon="8.211405798360756"><ele>455.6</ele><time>2026-04-04T13:56:59.999Z</time></trkpt><trkpt lat="44.360628495798444" lon="8.21146153486847"><ele>452.40000000000003</ele><time>2026-04-04T13:57:01.999Z</time></trkpt><trkpt lat="44.360672351476346" lon="8.211526378298851"><ele>449.20000000000005</ele><time>2026-04-04T13:57:16.999Z</time></trkpt><trkpt lat="44.36084915995917" lon="8.21140991438214"><ele>446.0</ele><time>2026-04-04T13:57:19.999Z</time></trkpt><trkpt lat="44.36087057480865" lon="8.211313553986445"><ele>445.49999999999994</ele><time>2026-04-04T13:57:20.999Z</time></trkpt><trkpt lat="44.36087708023224" lon="8.2111979194921"><ele>445.0</ele><time>2026-04-04T13:57:21.999Z</time></trkpt><trkpt lat="44.36088914300271" lon="8.211084405426615"><ele>444.5</ele><time>2026-04-04T13:57:22.999Z</time></trkpt><trkpt lat="44.36089968999845" lon="8.210978055579627"><ele>444.0</ele><time>2026-04-04T13:57:23.999Z</time></trkpt><trkpt lat="44.36090731974179" lon="8.210867937420742"><ele>443.49999999999994</ele><time>2026-04-04T13:57:24.998Z</time></trkpt><trkpt lat="44.360907681781434" lon="8.210743796204007"><ele>443.0</ele><time>2026-04-04T13:57:25.998Z</time></trkpt><trkpt lat="44.3609082350872" lon="8.210612380825701"><ele>442.0</ele><time>2026-04-04T13:57:26.998Z</time></trkpt><trkpt lat="44.360905575275744" lon="8.210497066565917"><ele>440.99999999999994</ele><time>2026-04-04T13:57:27.998Z</time></trkpt><trkpt lat="44.360899228400534" lon="8.21039836038532"><ele>439.99999999999994</ele><time>2026-04-04T13:57:28.998Z</time></trkpt><trkpt lat="44.36089250308591" lon="8.210233027142536"><ele>439.0</ele><time>2026-04-04T13:57:30.998Z</time></trkpt><trkpt lat="44.36091188502928" lon="8.210076560060461"><ele>438.0</ele><time>2026-04-04T13:57:32.998Z</time></trkpt><trkpt lat="44.36089427548505" lon="8.209985130084016"><ele>438.0</ele><time>2026-04-04T13:57:35Z</time></trkpt><trkpt lat="44.36078218123429" lon="8.209955973055557"><ele>437.99999999999994</ele><time>2026-04-04T13:57:36Z</time></trkpt><trkpt lat="44.360652654320795" lon="8.209978220541895"><ele>437.99999999999994</ele><time>2026-04-04T13:57:38Z</time></trkpt><trkpt lat="44.36056786708224" lon="8.20996903029358"><ele>438.0</ele><time>2026-04-04T13:57:39Z</time></trkpt><trkpt lat="44.36047382529714" lon="8.209934543203854"><ele>438.0</ele><time>2026-04-04T13:57:40Z</time></trkpt><trkpt lat="44.36037163638999" lon="8.209870942168484"><ele>436.75</ele><time>2026-04-04T13:57:41Z</time></trkpt><trkpt lat="44.36026608785517" lon="8.209783441842516"><ele>435.5</ele><time>2026-04-04T13:57:42Z</time></trkpt><trkpt lat="44.360143793809" lon="8.20966465534592"><ele>434.25</ele><time>2026-04-04T13:57:43Z</time></trkpt><trkpt lat="44.360021372058014" lon="8.209527404237672"><ele>433.0</ele><time>2026-04-04T13:57:44Z</time></trkpt><trkpt lat="44.35987600957319" lon="8.209379614063085"><ele>433.0</ele><time>2026-04-04T13:57:45Z</time></trkpt><trkpt lat="44.35972024540836" lon="8.209214190043786"><ele>433.0</ele><time>2026-04-04T13:57:46Z</time></trkpt><trkpt lat="44.359568377137194" lon="8.209040905550397"><ele>433.0</ele><time>2026-04-04T13:57:47Z</time></trkpt><trkpt lat="44.359440499794694" lon="8.208882627690965"><ele>436.6666666666667</ele><time>2026-04-04T13:57:48Z</time></trkpt><trkpt lat="44.359329610161936" lon="8.208724458845733"><ele>440.33333333333337</ele><time>2026-04-04T13:57:49Z</time></trkpt><trkpt lat="44.35921143112313" lon="8.208564131091332"><ele>444.0</ele><time>2026-04-04T13:57:50Z</time></trkpt><trkpt lat="44.35909835696208" lon="8.208414574507763"><ele>444.0</ele><time>2026-04-04T13:57:51Z</time></trkpt><trkpt lat="44.358983981190754" lon="8.208262697847708"><ele>444.0</ele><time>2026-04-04T13:57:52Z</time></trkpt><trkpt lat="44.35887094591564" lon="8.208116050784007"><ele>444.0</ele><time>2026-04-04T13:57:53Z</time></trkpt><trkpt lat="44.35873808970182" lon="8.207983404071905"><ele>441.66666666666663</ele><time>2026-04-04T13:57:54Z</time></trkpt><trkpt lat="44.35861097154203" lon="8.207867462323174"><ele>439.3333333333333</ele><time>2026-04-04T13:57:55Z</time></trkpt><trkpt lat="44.35846903876245" lon="8.207768988090816"><ele>437.0</ele><time>2026-04-04T13:57:56Z</time></trkpt><trkpt lat="44.358324255024186" lon="8.207660900985077"><ele>437.0</ele><time>2026-04-04T13:57:57Z</time></trkpt><trkpt lat="44.358177228093474" lon="8.20757102124286"><ele>437.0</ele><time>2026-04-04T13:57:58Z</time></trkpt><trkpt lat="44.35804369693443" lon="8.207490477277577"><ele>437.0</ele><time>2026-04-04T13:57:59Z</time></trkpt><trkpt lat="44.35791413487173" lon="8.207439152150581"><ele>437.0</ele><time>2026-04-04T13:58:00Z</time></trkpt><trkpt lat="44.35780014992636" lon="8.207378327547657"><ele>436.5</ele><time>2026-04-04T13:58:01Z</time></trkpt><trkpt lat="44.357689351203796" lon="8.207325239980667"><ele>436.0</ele><time>2026-04-04T13:58:02Z</time></trkpt><trkpt lat="44.35757777995974" lon="8.207290386918228"><ele>435.5</ele><time>2026-04-04T13:58:03Z</time></trkpt><trkpt lat="44.357470880907236" lon="8.207252847223012"><ele>435.0</ele><time>2026-04-04T13:58:04Z</time></trkpt><trkpt lat="44.35736125746177" lon="8.207209700939302"><ele>435.0</ele><time>2026-04-04T13:58:05Z</time></trkpt><trkpt lat="44.35726121674956" lon="8.207180746290772"><ele>435.0</ele><time>2026-04-04T13:58:06Z</time></trkpt><trkpt lat="44.357168720842154" lon="8.207143634444737"><ele>435.0</ele><time>2026-04-04T13:58:07Z</time></trkpt><trkpt lat="44.35707146378826" lon="8.207106731718536"><ele>435.0</ele><time>2026-04-04T13:58:08Z</time></trkpt><trkpt lat="44.35696669406383" lon="8.207069563389414"><ele>435.0</ele><time>2026-04-04T13:58:09Z</time></trkpt><trkpt lat="44.35685156086382" lon="8.207030936287946"><ele>435.5</ele><time>2026-04-04T13:58:10Z</time></trkpt><trkpt lat="44.356716517385024" lon="8.20699299514992"><ele>436.0</ele><time>2026-04-04T13:58:11Z</time></trkpt><trkpt lat="44.356582636728966" lon="8.206937324842665"><ele>436.5</ele><time>2026-04-04T13:58:12Z</time></trkpt><trkpt lat="44.356447236788654" lon="8.20685222840391"><ele>437.0</ele><time>2026-04-04T13:58:13Z</time></trkpt><trkpt lat="44.35630489825963" lon="8.206799946255188"><ele>438.0</ele><time>2026-04-04T13:58:14Z</time></trkpt><trkpt lat="44.35616020784696" lon="8.206746154066845"><ele>439.0</ele><time>2026-04-04T13:58:15Z</time></trkpt><trkpt lat="44.35601495073376" lon="8.20669087625675"><ele>440.0</ele><time>2026-04-04T13:58:16Z</time></trkpt><trkpt lat="44.355869434144665" lon="8.206635499655206"><ele>440.0</ele><time>2026-04-04T13:58:17Z</time></trkpt><trkpt lat="44.35572712069244" lon="8.206581341998069"><ele>440.0</ele><time>2026-04-04T13:58:18Z</time></trkpt><trkpt lat="44.355594483622745" lon="8.206531877998103"><ele>440.0</ele><time>2026-04-04T13:58:19Z</time></trkpt><trkpt lat="44.35548625762636" lon="8.206513211473705"><ele>440.0</ele><time>2026-04-04T13:58:20Z</time></trkpt><trkpt lat="44.35535369654778" lon="8.206460648197314"><ele>441.75</ele><time>2026-04-04T13:58:21Z</time></trkpt><trkpt lat="44.35521990238346" lon="8.206465956460713"><ele>443.5</ele><time>2026-04-04T13:58:22Z</time></trkpt><trkpt lat="44.35509615160807" lon="8.206447070122868"><ele>445.25</ele><time>2026-04-04T13:58:23Z</time></trkpt><trkpt lat="44.35497237530242" lon="8.20644897435869"><ele>447.0</ele><time>2026-04-04T13:58:24Z</time></trkpt><trkpt lat="44.354870569809876" lon="8.206433110675087"><ele>447.0</ele><time>2026-04-04T13:58:24.999Z</time></trkpt><trkpt lat="44.354773112976915" lon="8.20640088470165"><ele>447.00000000000006</ele><time>2026-04-04T13:58:25.999Z</time></trkpt><trkpt lat="44.35470830790753" lon="8.20631795625827"><ele>447.00000000000006</ele><time>2026-04-04T13:58:26.999Z</time></trkpt><trkpt lat="44.354658003795016" lon="8.206203884969113"><ele>447.0</ele><time>2026-04-04T13:58:27.999Z</time></trkpt><trkpt lat="44.35458334078241" lon="8.206053785298291"><ele>447.0</ele><time>2026-04-04T13:58:28.999Z</time></trkpt><trkpt lat="44.35449736831864" lon="8.205880902906085"><ele>445.25</ele><time>2026-04-04T13:58:29.999Z</time></trkpt><trkpt lat="44.354406850515154" lon="8.205698880409722"><ele>443.5</ele><time>2026-04-04T13:58:30.999Z</time></trkpt><trkpt lat="44.35432007277065" lon="8.205528690040286"><ele>441.75</ele><time>2026-04-04T13:58:31.999Z</time></trkpt><trkpt lat="44.35423744768848" lon="8.20538248282497"><ele>440.0</ele><time>2026-04-04T13:58:32.999Z</time></trkpt><trkpt lat="44.354149876019896" lon="8.205271990495364"><ele>440.0</ele><time>2026-04-04T13:58:33.999Z</time></trkpt><trkpt lat="44.3540356498863" lon="8.205231369239591"><ele>440.0</ele><time>2026-04-04T13:58:34.999Z</time></trkpt><trkpt lat="44.35390447178199" lon="8.205217636244388"><ele>440.0</ele><time>2026-04-04T13:58:35.999Z</time></trkpt><trkpt lat="44.35375397657564" lon="8.205240423794647"><ele>440.0</ele><time>2026-04-04T13:58:36.999Z</time></trkpt><trkpt lat="44.353594715449844" lon="8.205284797666991"><ele>445.0</ele><time>2026-04-04T13:58:37.999Z</time></trkpt><trkpt lat="44.353434739756835" lon="8.205339273174804"><ele>450.0</ele><time>2026-04-04T13:58:38.999Z</time></trkpt><trkpt lat="44.353291143853774" lon="8.205403591476594"><ele>455.0</ele><time>2026-04-04T13:58:39.999Z</time></trkpt><trkpt lat="44.35316336239555" lon="8.205479735753395"><ele>455.66666666666663</ele><time>2026-04-04T13:58:40.999Z</time></trkpt><trkpt lat="44.353029940949526" lon="8.20559681715879"><ele>456.33333333333337</ele><time>2026-04-04T13:58:41.999Z</time></trkpt><trkpt lat="44.35288563510666" lon="8.205713567232898"><ele>457.0</ele><time>2026-04-04T13:58:42.999Z</time></trkpt><trkpt lat="44.35272187239776" lon="8.205843548911188"><ele>457.0</ele><time>2026-04-04T13:58:43.999Z</time></trkpt><trkpt lat="44.3525577344694" lon="8.2059707816725"><ele>457.0</ele><time>2026-04-04T13:58:44.999Z</time></trkpt><trkpt lat="44.352408389675745" lon="8.20609219038255"><ele>457.0</ele><time>2026-04-04T13:58:45.999Z</time></trkpt><trkpt lat="44.35226261389437" lon="8.206201650980896"><ele>457.33333333333337</ele><time>2026-04-04T13:58:46.999Z</time></trkpt><trkpt lat="44.3521260751054" lon="8.20630998103796"><ele>457.66666666666663</ele><time>2026-04-04T13:58:47.999Z</time></trkpt><trkpt lat="44.35200381155888" lon="8.206414696114473"><ele>458.0</ele><time>2026-04-04T13:58:48.999Z</time></trkpt><trkpt lat="44.35188721164624" lon="8.206575731489776"><ele>458.0</ele><time>2026-04-04T13:58:49.999Z</time></trkpt><trkpt lat="44.35179429606213" lon="8.206785688254573"><ele>458.0</ele><time>2026-04-04T13:58:50.999Z</time></trkpt><trkpt lat="44.35171839254402" lon="8.207016941610291"><ele>458.0</ele><time>2026-04-04T13:58:51.999Z</time></trkpt><trkpt lat="44.351647258840806" lon="8.207210263621135"><ele>455.75</ele><time>2026-04-04T13:58:52.999Z</time></trkpt><trkpt lat="44.35158469801792" lon="8.20738067813207"><ele>453.5</ele><time>2026-04-04T13:58:53.999Z</time></trkpt><trkpt lat="44.35149549836568" lon="8.20754017490673"><ele>451.25</ele><time>2026-04-04T13:58:54.999Z</time></trkpt><trkpt lat="44.35138073359002" lon="8.20767715295212"><ele>449.0</ele><time>2026-04-04T13:58:55.999Z</time></trkpt><trkpt lat="44.35125538032218" lon="8.207786372960483"><ele>458.0</ele><time>2026-04-04T13:58:56.999Z</time></trkpt><trkpt lat="44.35109297755387" lon="8.20788074059054"><ele>467.0</ele><time>2026-04-04T13:58:57.999Z</time></trkpt><trkpt lat="44.35091643727537" lon="8.207979883727894"><ele>476.0</ele><time>2026-04-04T13:58:58.999Z</time></trkpt><trkpt lat="44.35072482973319" lon="8.208083811309837"><ele>472.0</ele><time>2026-04-04T13:58:59.999Z</time></trkpt><trkpt lat="44.350532520176344" lon="8.208179281320694"><ele>468.0</ele><time>2026-04-04T13:59:00.999Z</time></trkpt><trkpt lat="44.35034529179903" lon="8.208278157368182"><ele>464.0</ele><time>2026-04-04T13:59:01.999Z</time></trkpt><trkpt lat="44.350160411720914" lon="8.208381627229537"><ele>464.0</ele><time>2026-04-04T13:59:02.999Z</time></trkpt><trkpt lat="44.349984229287266" lon="8.208490852657667"><ele>464.0</ele><time>2026-04-04T13:59:03.999Z</time></trkpt><trkpt lat="44.34981521619308" lon="8.208585479735328"><ele>464.0</ele><time>2026-04-04T13:59:04.999Z</time></trkpt><trkpt lat="44.349656920051274" lon="8.20866722645588"><ele>465.25</ele><time>2026-04-04T13:59:05.999Z</time></trkpt><trkpt lat="44.34950538882309" lon="8.208745594223801"><ele>466.5</ele><time>2026-04-04T13:59:06.999Z</time></trkpt><trkpt lat="44.34937249119932" lon="8.20879957261898"><ele>467.75</ele><time>2026-04-04T13:59:07.999Z</time></trkpt><trkpt lat="44.34924495213139" lon="8.208820443963386"><ele>469.0</ele><time>2026-04-04T13:59:08.999Z</time></trkpt><trkpt lat="44.34910306790554" lon="8.208802579228536"><ele>469.0</ele><time>2026-04-04T13:59:09.999Z</time></trkpt><trkpt lat="44.348960315474315" lon="8.20877252058218"><ele>469.0</ele><time>2026-04-04T13:59:10.999Z</time></trkpt><trkpt lat="44.34881382529069" lon="8.208757582017004"><ele>469.0</ele><time>2026-04-04T13:59:11.999Z</time></trkpt><trkpt lat="44.34865959263271" lon="8.208763424072373"><ele>469.0</ele><time>2026-04-04T13:59:12.999Z</time></trkpt><trkpt lat="44.34850072025857" lon="8.208830621569977"><ele>467.33333333333337</ele><time>2026-04-04T13:59:13.999Z</time></trkpt><trkpt lat="44.34834140029811" lon="8.2089482955764"><ele>465.66666666666663</ele><time>2026-04-04T13:59:14.999Z</time></trkpt><trkpt lat="44.34817828934932" lon="8.209086876426401"><ele>464.0</ele><time>2026-04-04T13:59:15.999Z</time></trkpt><trkpt lat="44.34801204322752" lon="8.209224747107402"><ele>464.0</ele><time>2026-04-04T13:59:16.999Z</time></trkpt><trkpt lat="44.347847385981304" lon="8.20936752774077"><ele>464.0</ele><time>2026-04-04T13:59:17.999Z</time></trkpt><trkpt lat="44.34768574618491" lon="8.209508069668535"><ele>464.0</ele><time>2026-04-04T13:59:18.999Z</time></trkpt><trkpt lat="44.347537096338144" lon="8.209633275443782"><ele>464.0</ele><time>2026-04-04T13:59:19.999Z</time></trkpt><trkpt lat="44.34740084966109" lon="8.209757039081582"><ele>464.0</ele><time>2026-04-04T13:59:20.999Z</time></trkpt><trkpt lat="44.34726767339308" lon="8.209873249177818"><ele>464.0</ele><time>2026-04-04T13:59:21.999Z</time></trkpt><trkpt lat="44.34714462067944" lon="8.209970391986714"><ele>460.25</ele><time>2026-04-04T13:59:22.999Z</time></trkpt><trkpt lat="44.34703038233613" lon="8.210047341137118"><ele>456.5</ele><time>2026-04-04T13:59:23.999Z</time></trkpt><trkpt lat="44.34691942766245" lon="8.210093460491498"><ele>452.75</ele><time>2026-04-04T13:59:24.999Z</time></trkpt><trkpt lat="44.34680322766973" lon="8.210079129816094"><ele>449.0</ele><time>2026-04-04T13:59:25.999Z</time></trkpt><trkpt lat="44.346700446846725" lon="8.210011095119603"><ele>449.0</ele><time>2026-04-04T13:59:26.999Z</time></trkpt><trkpt lat="44.34660127922849" lon="8.209907293002166"><ele>449.0</ele><time>2026-04-04T13:59:27.999Z</time></trkpt><trkpt lat="44.34652173146366" lon="8.20975131796725"><ele>449.0</ele><time>2026-04-04T13:59:28.999Z</time></trkpt><trkpt lat="44.34641366165953" lon="8.209611145209461"><ele>449.0</ele><time>2026-04-04T13:59:29.999Z</time></trkpt><trkpt lat="44.346334641378384" lon="8.209467163805488"><ele>448.75</ele><time>2026-04-04T13:59:30.999Z</time></trkpt><trkpt lat="44.34627082608063" lon="8.209306781222097"><ele>448.5</ele><time>2026-04-04T13:59:31.999Z</time></trkpt><trkpt lat="44.346253131574734" lon="8.209114219142894"><ele>448.25</ele><time>2026-04-04T13:59:32.999Z</time></trkpt><trkpt lat="44.34624595108781" lon="8.20889800628413"><ele>448.0</ele><time>2026-04-04T13:59:33.999Z</time></trkpt><trkpt lat="44.3462360208898" lon="8.208654619216793"><ele>448.0</ele><time>2026-04-04T13:59:34.999Z</time></trkpt><trkpt lat="44.346213049343596" lon="8.20838862544904"><ele>448.0</ele><time>2026-04-04T13:59:35.999Z</time></trkpt><trkpt lat="44.34617454565639" lon="8.208128876149654"><ele>448.0</ele><time>2026-04-04T13:59:36.999Z</time></trkpt><trkpt lat="44.34615571376643" lon="8.207869508806741"><ele>448.6666666666667</ele><time>2026-04-04T13:59:37.999Z</time></trkpt><trkpt lat="44.346131002706095" lon="8.207606602952884"><ele>449.33333333333337</ele><time>2026-04-04T13:59:38.999Z</time></trkpt><trkpt lat="44.34610686539824" lon="8.207361467416574"><ele>450.0</ele><time>2026-04-04T13:59:39.999Z</time></trkpt><trkpt lat="44.34608613755079" lon="8.207133105430575"><ele>452.66666666666663</ele><time>2026-04-04T13:59:41Z</time></trkpt><trkpt lat="44.34606906338865" lon="8.206902862896044"><ele>455.3333333333333</ele><time>2026-04-04T13:59:42Z</time></trkpt><trkpt lat="44.34604464955195" lon="8.206680963446916"><ele>458.0</ele><time>2026-04-04T13:59:43Z</time></trkpt><trkpt lat="44.346007199319814" lon="8.20648707251712"><ele>460.25</ele><time>2026-04-04T13:59:44Z</time></trkpt><trkpt lat="44.3459749324096" lon="8.206297874701514"><ele>462.5</ele><time>2026-04-04T13:59:45Z</time></trkpt><trkpt lat="44.34587715959489" lon="8.206140119727555"><ele>464.75</ele><time>2026-04-04T13:59:46Z</time></trkpt><trkpt lat="44.345768360887554" lon="8.205998426505584"><ele>467.0</ele><time>2026-04-04T13:59:47Z</time></trkpt><trkpt lat="44.34563340758508" lon="8.205893286982786"><ele>462.0</ele><time>2026-04-04T13:59:48Z</time></trkpt><trkpt lat="44.34548026905595" lon="8.205828726882334"><ele>457.0</ele><time>2026-04-04T13:59:49Z</time></trkpt><trkpt lat="44.34530635164367" lon="8.205776452139192"><ele>452.0</ele><time>2026-04-04T13:59:50Z</time></trkpt><trkpt lat="44.34513031202705" lon="8.205720598323758"><ele>455.3333333333333</ele><time>2026-04-04T13:59:51Z</time></trkpt><trkpt lat="44.34496070917353" lon="8.205614921221096"><ele>458.66666666666663</ele><time>2026-04-04T13:59:52Z</time></trkpt><trkpt lat="44.34477946252762" lon="8.205508877751448"><ele>462.0</ele><time>2026-04-04T13:59:53Z</time></trkpt><trkpt lat="44.34460971651739" lon="8.205350408098193"><ele>462.0</ele><time>2026-04-04T13:59:54Z</time></trkpt><trkpt lat="44.34443913109565" lon="8.205181731840787"><ele>462.0</ele><time>2026-04-04T13:59:55Z</time></trkpt><trkpt lat="44.3442807252028" lon="8.205028665382471"><ele>462.0</ele><time>2026-04-04T13:59:56Z</time></trkpt><trkpt lat="44.3441155126395" lon="8.204882550209554"><ele>462.66666666666663</ele><time>2026-04-04T13:59:57Z</time></trkpt><trkpt lat="44.34395248367738" lon="8.204728951877472"><ele>463.3333333333333</ele><time>2026-04-04T13:59:58Z</time></trkpt><trkpt lat="44.343787914105675" lon="8.204622405359862"><ele>464.0</ele><time>2026-04-04T13:59:59Z</time></trkpt><trkpt lat="44.34363031926959" lon="8.204542371575446"><ele>464.0</ele><time>2026-04-04T14:00:00Z</time></trkpt><trkpt lat="44.343501903986386" lon="8.20437949204983"><ele>464.0</ele><time>2026-04-04T14:00:01Z</time></trkpt><trkpt lat="44.34337426123452" lon="8.204201088673784"><ele>464.0</ele><time>2026-04-04T14:00:02Z</time></trkpt><trkpt lat="44.343258547703904" lon="8.204034783028677"><ele>460.75</ele><time>2026-04-04T14:00:03Z</time></trkpt><trkpt lat="44.34315262142877" lon="8.20387479948135"><ele>457.5</ele><time>2026-04-04T14:00:04Z</time></trkpt><trkpt lat="44.34306244277817" lon="8.203720619629982"><ele>454.25</ele><time>2026-04-04T14:00:05Z</time></trkpt><trkpt lat="44.342990656986814" lon="8.203546047377921"><ele>451.0</ele><time>2026-04-04T14:00:06Z</time></trkpt><trkpt lat="44.34295758481737" lon="8.203365121178022"><ele>452.0</ele><time>2026-04-04T14:00:07Z</time></trkpt><trkpt lat="44.34295099852813" lon="8.20315939577184"><ele>453.0</ele><time>2026-04-04T14:00:08Z</time></trkpt><trkpt lat="44.34296238616358" lon="8.202953099171767"><ele>454.0</ele><time>2026-04-04T14:00:09Z</time></trkpt><trkpt lat="44.342949711463746" lon="8.20275958580638"><ele>455.0</ele><time>2026-04-04T14:00:10Z</time></trkpt><trkpt lat="44.342920010242715" lon="8.202565925375652"><ele>455.0</ele><time>2026-04-04T14:00:11Z</time></trkpt><trkpt lat="44.34285657461819" lon="8.202385702394386"><ele>455.0</ele><time>2026-04-04T14:00:12Z</time></trkpt><trkpt lat="44.342764211199764" lon="8.202215819983287"><ele>455.0</ele><time>2026-04-04T14:00:13Z</time></trkpt><trkpt lat="44.34265007844168" lon="8.20207175590948"><ele>460.0</ele><time>2026-04-04T14:00:14Z</time></trkpt><trkpt lat="44.342515005242355" lon="8.201960421391377"><ele>465.0</ele><time>2026-04-04T14:00:15Z</time></trkpt><trkpt lat="44.34237160833727" lon="8.201856042134974"><ele>470.0</ele><time>2026-04-04T14:00:16Z</time></trkpt><trkpt lat="44.34222395969057" lon="8.201758668018767"><ele>466.2</ele><time>2026-04-04T14:00:17Z</time></trkpt><trkpt lat="44.34209582030993" lon="8.201671971575324"><ele>462.4</ele><time>2026-04-04T14:00:18Z</time></trkpt><trkpt lat="44.34198547531393" lon="8.201621979272948"><ele>458.6</ele><time>2026-04-04T14:00:19Z</time></trkpt><trkpt lat="44.341887167066226" lon="8.201602813859264"><ele>454.8</ele><time>2026-04-04T14:00:20Z</time></trkpt><trkpt lat="44.34180819645444" lon="8.201631545411713"><ele>451.0</ele><time>2026-04-04T14:00:21Z</time></trkpt><trkpt lat="44.34174101516417" lon="8.20170603999445"><ele>451.0</ele><time>2026-04-04T14:00:22Z</time></trkpt><trkpt lat="44.34167046946665" lon="8.201832653058352"><ele>451.0</ele><time>2026-04-04T14:00:23Z</time></trkpt><trkpt lat="44.34157153736389" lon="8.201966664422502"><ele>451.0</ele><time>2026-04-04T14:00:24Z</time></trkpt><trkpt lat="44.341460231684756" lon="8.202121902695776"><ele>451.0</ele><time>2026-04-04T14:00:25Z</time></trkpt><trkpt lat="44.34135890573851" lon="8.202258708065186"><ele>452.25</ele><time>2026-04-04T14:00:26Z</time></trkpt><trkpt lat="44.34126637811199" lon="8.20238959747539"><ele>453.5</ele><time>2026-04-04T14:00:27Z</time></trkpt><trkpt lat="44.34115417934807" lon="8.202511606190434"><ele>454.75</ele><time>2026-04-04T14:00:28Z</time></trkpt><trkpt lat="44.34101247308702" lon="8.202570980909671"><ele>456.0</ele><time>2026-04-04T14:00:29Z</time></trkpt><trkpt lat="44.34085452139892" lon="8.20263386918418"><ele>456.0</ele><time>2026-04-04T14:00:30Z</time></trkpt><trkpt lat="44.34070317230965" lon="8.202723685452991"><ele>456.0</ele><time>2026-04-04T14:00:30.999Z</time></trkpt><trkpt lat="44.34055009717839" lon="8.202789629046721"><ele>456.0</ele><time>2026-04-04T14:00:31.999Z</time></trkpt><trkpt lat="44.34040689425216" lon="8.20289054074484"><ele>454.66666666666663</ele><time>2026-04-04T14:00:32.999Z</time></trkpt><trkpt lat="44.3402790930715" lon="8.203026324975722"><ele>453.3333333333333</ele><time>2026-04-04T14:00:33.999Z</time></trkpt><trkpt lat="44.34016237282386" lon="8.20318791008183"><ele>452.0</ele><time>2026-04-04T14:00:34.999Z</time></trkpt><trkpt lat="44.340048838538955" lon="8.203358406021831"><ele>452.66666666666663</ele><time>2026-04-04T14:00:35.999Z</time></trkpt><trkpt lat="44.33991639118997" lon="8.203508796380946"><ele>453.33333333333337</ele><time>2026-04-04T14:00:36.999Z</time></trkpt><trkpt lat="44.3397901727219" lon="8.203657774983586"><ele>454.0</ele><time>2026-04-04T14:00:37.999Z</time></trkpt><trkpt lat="44.33965027686841" lon="8.203785498389323"><ele>454.0</ele><time>2026-04-04T14:00:38.999Z</time></trkpt><trkpt lat="44.33950620040446" lon="8.203922667785363"><ele>454.0</ele><time>2026-04-04T14:00:39.999Z</time></trkpt><trkpt lat="44.33938329149775" lon="8.204068437325484"><ele>454.0</ele><time>2026-04-04T14:00:40.999Z</time></trkpt><trkpt lat="44.33924991561594" lon="8.204198633265017"><ele>454.0</ele><time>2026-04-04T14:00:41.999Z</time></trkpt><trkpt lat="44.33911934848825" lon="8.204324624782629"><ele>454.0</ele><time>2026-04-04T14:00:42.999Z</time></trkpt><trkpt lat="44.33898088485088" lon="8.204426127557225"><ele>454.0</ele><time>2026-04-04T14:00:43.999Z</time></trkpt><trkpt lat="44.338862419751344" lon="8.204553464655143"><ele>454.0</ele><time>2026-04-04T14:00:44.999Z</time></trkpt><trkpt lat="44.3387348974282" lon="8.204664098496908"><ele>454.0</ele><time>2026-04-04T14:00:45.999Z</time></trkpt><trkpt lat="44.338607076319846" lon="8.204772801771744"><ele>454.0</ele><time>2026-04-04T14:00:46.999Z</time></trkpt><trkpt lat="44.338475062267655" lon="8.204880735315818"><ele>456.0</ele><time>2026-04-04T14:00:47.999Z</time></trkpt><trkpt lat="44.338343967714565" lon="8.204985840046009"><ele>458.0</ele><time>2026-04-04T14:00:48.999Z</time></trkpt><trkpt lat="44.3382112146389" lon="8.205086206283502"><ele>460.0</ele><time>2026-04-04T14:00:49.999Z</time></trkpt><trkpt lat="44.3380770053594" lon="8.205187326936857"><ele>458.5</ele><time>2026-04-04T14:00:50.999Z</time></trkpt><trkpt lat="44.337946619980386" lon="8.205286153969697"><ele>457.0</ele><time>2026-04-04T14:00:51.999Z</time></trkpt><trkpt lat="44.33782371026381" lon="8.2053680775268"><ele>455.5</ele><time>2026-04-04T14:00:52.999Z</time></trkpt><trkpt lat="44.3377184022546" lon="8.205471594801535"><ele>454.0</ele><time>2026-04-04T14:00:53.999Z</time></trkpt><trkpt lat="44.337624265094526" lon="8.205590007309338"><ele>455.25</ele><time>2026-04-04T14:00:54.999Z</time></trkpt><trkpt lat="44.337540048735946" lon="8.20575125086533"><ele>456.5</ele><time>2026-04-04T14:00:55.999Z</time></trkpt><trkpt lat="44.33748394021997" lon="8.205921768406494"><ele>457.75</ele><time>2026-04-04T14:00:56.999Z</time></trkpt><trkpt lat="44.33744473198412" lon="8.206087408715542"><ele>459.0</ele><time>2026-04-04T14:00:57.999Z</time></trkpt><trkpt lat="44.33742123629102" lon="8.20622942604441"><ele>459.0</ele><time>2026-04-04T14:00:58.999Z</time></trkpt><trkpt lat="44.337407548072335" lon="8.206348164056164"><ele>459.0</ele><time>2026-04-04T14:00:59.999Z</time></trkpt><trkpt lat="44.33739877897343" lon="8.20646119807607"><ele>459.0</ele><time>2026-04-04T14:01:00.999Z</time></trkpt><trkpt lat="44.33739604627395" lon="8.206592696356852"><ele>459.0</ele><time>2026-04-04T14:01:01.999Z</time></trkpt><trkpt lat="44.33738807390073" lon="8.206750619895187"><ele>459.0</ele><time>2026-04-04T14:01:02.999Z</time></trkpt><trkpt lat="44.33738017351188" lon="8.206938187114645"><ele>459.33333333333337</ele><time>2026-04-04T14:01:03.999Z</time></trkpt><trkpt lat="44.337366207514535" lon="8.207152537776533"><ele>459.6666666666667</ele><time>2026-04-04T14:01:04.999Z</time></trkpt><trkpt lat="44.3373414154349" lon="8.207395888345044"><ele>460.0</ele><time>2026-04-04T14:01:05.999Z</time></trkpt><trkpt lat="44.33730430447562" lon="8.207657306591809"><ele>460.0</ele><time>2026-04-04T14:01:06.999Z</time></trkpt><trkpt lat="44.337256910092094" lon="8.207912786718497"><ele>460.0</ele><time>2026-04-04T14:01:07.999Z</time></trkpt><trkpt lat="44.33720656714939" lon="8.208182551957645"><ele>460.0</ele><time>2026-04-04T14:01:08.999Z</time></trkpt><trkpt lat="44.337159885057034" lon="8.208458062353465"><ele>460.0</ele><time>2026-04-04T14:01:09.999Z</time></trkpt><trkpt lat="44.3371069319939" lon="8.208751079810964"><ele>460.0</ele><time>2026-04-04T14:01:10.999Z</time></trkpt><trkpt lat="44.33704643405591" lon="8.20905822982526"><ele>460.0</ele><time>2026-04-04T14:01:11.999Z</time></trkpt><trkpt lat="44.336983893246604" lon="8.209368455773317"><ele>460.0</ele><time>2026-04-04T14:01:12.999Z</time></trkpt><trkpt lat="44.33693466468069" lon="8.209675355928802"><ele>460.0</ele><time>2026-04-04T14:01:13.999Z</time></trkpt><trkpt lat="44.33688254642224" lon="8.209944751144148"><ele>460.0</ele><time>2026-04-04T14:01:14.999Z</time></trkpt><trkpt lat="44.33683815257026" lon="8.21021690499586"><ele>460.6666666666667</ele><time>2026-04-04T14:01:15.999Z</time></trkpt><trkpt lat="44.33679394465226" lon="8.210461318296407"><ele>461.33333333333337</ele><time>2026-04-04T14:01:16.999Z</time></trkpt><trkpt lat="44.336752869406304" lon="8.210688152056509"><ele>462.0</ele><time>2026-04-04T14:01:17.999Z</time></trkpt><trkpt lat="44.33669613677035" lon="8.210896856339188"><ele>463.75</ele><time>2026-04-04T14:01:18.999Z</time></trkpt><trkpt lat="44.33666726239783" lon="8.211118139815952"><ele>465.5</ele><time>2026-04-04T14:01:19.999Z</time></trkpt><trkpt lat="44.336616147355684" lon="8.21131419451327"><ele>467.25</ele><time>2026-04-04T14:01:20.999Z</time></trkpt><trkpt lat="44.336569062158574" lon="8.211490848675796"><ele>469.0</ele><time>2026-04-04T14:01:21.999Z</time></trkpt><trkpt lat="44.336472226183005" lon="8.211628555321411"><ele>465.6666666666667</ele><time>2026-04-04T14:01:22.999Z</time></trkpt><trkpt lat="44.33636011231949" lon="8.21178064651169"><ele>462.33333333333337</ele><time>2026-04-04T14:01:23.999Z</time></trkpt><trkpt lat="44.33623259385469" lon="8.211941259430064"><ele>459.0</ele><time>2026-04-04T14:01:24.999Z</time></trkpt><trkpt lat="44.33610026548325" lon="8.212106106970232"><ele>459.0</ele><time>2026-04-04T14:01:25.999Z</time></trkpt><trkpt lat="44.33596327785176" lon="8.212238031889322"><ele>459.0</ele><time>2026-04-04T14:01:26.999Z</time></trkpt><trkpt lat="44.33584127273358" lon="8.212346772696032"><ele>459.0</ele><time>2026-04-04T14:01:27.999Z</time></trkpt><trkpt lat="44.33571666072527" lon="8.21241502228509"><ele>459.0</ele><time>2026-04-04T14:01:28.999Z</time></trkpt><trkpt lat="44.33558256097758" lon="8.212453365384917"><ele>460.0</ele><time>2026-04-04T14:01:29.999Z</time></trkpt><trkpt lat="44.335435851381604" lon="8.212446501265731"><ele>461.0</ele><time>2026-04-04T14:01:30.999Z</time></trkpt><trkpt lat="44.33528114769953" lon="8.212391976587227"><ele>462.0</ele><time>2026-04-04T14:01:31.999Z</time></trkpt><trkpt lat="44.33511433588965" lon="8.212286563410505"><ele>462.0</ele><time>2026-04-04T14:01:32.999Z</time></trkpt><trkpt lat="44.33494174138906" lon="8.212183729012892"><ele>462.0</ele><time>2026-04-04T14:01:33.999Z</time></trkpt><trkpt lat="44.33478714314823" lon="8.212095841826"><ele>462.0</ele><time>2026-04-04T14:01:34.999Z</time></trkpt><trkpt lat="44.33464041198751" lon="8.212022420883153"><ele>462.75</ele><time>2026-04-04T14:01:35.999Z</time></trkpt><trkpt lat="44.334505589093936" lon="8.211953943764982"><ele>463.5</ele><time>2026-04-04T14:01:36.999Z</time></trkpt><trkpt lat="44.334370470097966" lon="8.211889609995453"><ele>464.25</ele><time>2026-04-04T14:01:37.999Z</time></trkpt><trkpt lat="44.3342426394091" lon="8.211830429028787"><ele>465.0</ele><time>2026-04-04T14:01:38.999Z</time></trkpt><trkpt lat="44.334120496506685" lon="8.211769855069043"><ele>465.0</ele><time>2026-04-04T14:01:39.999Z</time></trkpt><trkpt lat="44.33401269280072" lon="8.211701408186615"><ele>465.0</ele><time>2026-04-04T14:01:40.999Z</time></trkpt><trkpt lat="44.33391970118267" lon="8.211596205262348"><ele>465.0</ele><time>2026-04-04T14:01:41.999Z</time></trkpt><trkpt lat="44.3338376969701" lon="8.211455808298647"><ele>465.0</ele><time>2026-04-04T14:01:42.999Z</time></trkpt><trkpt lat="44.3337650978012" lon="8.21128666502638"><ele>470.66666666666663</ele><time>2026-04-04T14:01:43.999Z</time></trkpt><trkpt lat="44.3336924806939" lon="8.211096217676264"><ele>476.3333333333333</ele><time>2026-04-04T14:01:44.999Z</time></trkpt><trkpt lat="44.33362156821165" lon="8.210895966723308"><ele>482.0</ele><time>2026-04-04T14:01:45.999Z</time></trkpt><trkpt lat="44.33355212151305" lon="8.210703431848065"><ele>478.5</ele><time>2026-04-04T14:01:47Z</time></trkpt><trkpt lat="44.33349174008528" lon="8.210534564908993"><ele>475.0</ele><time>2026-04-04T14:01:48Z</time></trkpt><trkpt lat="44.33343358310249" lon="8.210385104914431"><ele>471.5</ele><time>2026-04-04T14:01:49Z</time></trkpt><trkpt lat="44.333380079124424" lon="8.210239798230255"><ele>468.0</ele><time>2026-04-04T14:01:50Z</time></trkpt><trkpt lat="44.33334431773148" lon="8.210107708963465"><ele>468.0</ele><time>2026-04-04T14:01:51Z</time></trkpt><trkpt lat="44.33333325795696" lon="8.209969455796843"><ele>467.99999999999994</ele><time>2026-04-04T14:01:52Z</time></trkpt><trkpt lat="44.33335141540818" lon="8.209825812414643"><ele>467.99999999999994</ele><time>2026-04-04T14:01:53Z</time></trkpt><trkpt lat="44.333404512014" lon="8.209693575075244"><ele>468.0</ele><time>2026-04-04T14:01:54Z</time></trkpt><trkpt lat="44.333479158759936" lon="8.209579391018243"><ele>468.0</ele><time>2026-04-04T14:01:55Z</time></trkpt><trkpt lat="44.333548055018696" lon="8.20945316709532"><ele>468.0</ele><time>2026-04-04T14:01:56Z</time></trkpt><trkpt lat="44.33361627863759" lon="8.209320968931129"><ele>467.99999999999994</ele><time>2026-04-04T14:01:57Z</time></trkpt><trkpt lat="44.33368751264252" lon="8.20919062893098"><ele>467.99999999999994</ele><time>2026-04-04T14:01:58Z</time></trkpt><trkpt lat="44.3337270265951" lon="8.209072138399396"><ele>468.0</ele><time>2026-04-04T14:01:59Z</time></trkpt><trkpt lat="44.33373670008949" lon="8.208940921957513"><ele>468.0</ele><time>2026-04-04T14:02:00Z</time></trkpt><trkpt lat="44.333713607737856" lon="8.208812452423702"><ele>468.0</ele><time>2026-04-04T14:02:01Z</time></trkpt><trkpt lat="44.33366208050226" lon="8.208698967473302"><ele>468.0</ele><time>2026-04-04T14:02:02Z</time></trkpt><trkpt lat="44.33358642690218" lon="8.208583001426275"><ele>468.0</ele><time>2026-04-04T14:02:03Z</time></trkpt><trkpt lat="44.33349202076689" lon="8.208455670603188"><ele>468.0</ele><time>2026-04-04T14:02:04Z</time></trkpt><trkpt lat="44.33338795896449" lon="8.208314022066672"><ele>468.0</ele><time>2026-04-04T14:02:05Z</time></trkpt><trkpt lat="44.33327721496939" lon="8.208167684859909"><ele>468.0</ele><time>2026-04-04T14:02:06Z</time></trkpt><trkpt lat="44.33317528716801" lon="8.208013480684135"><ele>468.0</ele><time>2026-04-04T14:02:07Z</time></trkpt><trkpt lat="44.33307733820034" lon="8.207855989186669"><ele>467.0</ele><time>2026-04-04T14:02:08Z</time></trkpt><trkpt lat="44.33298028293746" lon="8.207690208888629"><ele>466.0</ele><time>2026-04-04T14:02:09Z</time></trkpt><trkpt lat="44.332890068952565" lon="8.207505332723242"><ele>465.0</ele><time>2026-04-04T14:02:10Z</time></trkpt><trkpt lat="44.33281208396372" lon="8.207305230272288"><ele>465.0</ele><time>2026-04-04T14:02:11Z</time></trkpt><trkpt lat="44.3327424007879" lon="8.207095665475125"><ele>465.0</ele><time>2026-04-04T14:02:12Z</time></trkpt><trkpt lat="44.33266846460255" lon="8.20688378699346"><ele>465.0</ele><time>2026-04-04T14:02:13Z</time></trkpt><trkpt lat="44.33259401728083" lon="8.206678631743298"><ele>466.66666666666663</ele><time>2026-04-04T14:02:14Z</time></trkpt><trkpt lat="44.332511021252735" lon="8.206481734251339"><ele>468.3333333333333</ele><time>2026-04-04T14:02:15Z</time></trkpt><trkpt lat="44.3324161435801" lon="8.20630861237017"><ele>470.0</ele><time>2026-04-04T14:02:16Z</time></trkpt><trkpt lat="44.33231307577708" lon="8.20614905972863"><ele>470.0</ele><time>2026-04-04T14:02:17Z</time></trkpt><trkpt lat="44.33221057061988" lon="8.205999504413104"><ele>470.0</ele><time>2026-04-04T14:02:18Z</time></trkpt><trkpt lat="44.33211999465922" lon="8.205884522228406"><ele>470.0</ele><time>2026-04-04T14:02:19Z</time></trkpt><trkpt lat="44.332043124395774" lon="8.205786876361493"><ele>470.0</ele><time>2026-04-04T14:02:20Z</time></trkpt><trkpt lat="44.33197519766154" lon="8.205709606109723"><ele>470.0</ele><time>2026-04-04T14:02:21Z</time></trkpt><trkpt lat="44.331912362568865" lon="8.205656042898225"><ele>470.0</ele><time>2026-04-04T14:02:22Z</time></trkpt><trkpt lat="44.33183815828197" lon="8.205568773580753"><ele>470.0</ele><time>2026-04-04T14:02:24Z</time></trkpt><trkpt lat="44.33170386639374" lon="8.205726360809479"><ele>470.0</ele><time>2026-04-04T14:02:26Z</time></trkpt><trkpt lat="44.33164745390615" lon="8.205836498743581"><ele>470.0</ele><time>2026-04-04T14:02:27Z</time></trkpt><trkpt lat="44.33155650047414" lon="8.205908603642316"><ele>470.0</ele><time>2026-04-04T14:02:28Z</time></trkpt><trkpt lat="44.33144742989564" lon="8.20593495379143"><ele>470.0</ele><time>2026-04-04T14:02:29Z</time></trkpt><trkpt lat="44.331332839120684" lon="8.205919642126208"><ele>470.0</ele><time>2026-04-04T14:02:30Z</time></trkpt><trkpt lat="44.33121779480804" lon="8.205890851095573"><ele>470.0</ele><time>2026-04-04T14:02:31Z</time></trkpt><trkpt lat="44.331103556886355" lon="8.205893622762575"><ele>469.75</ele><time>2026-04-04T14:02:32Z</time></trkpt><trkpt lat="44.330999230553196" lon="8.205972435534871"><ele>469.5</ele><time>2026-04-04T14:02:33Z</time></trkpt><trkpt lat="44.33090959747372" lon="8.20609086439704"><ele>469.25</ele><time>2026-04-04T14:02:34Z</time></trkpt><trkpt lat="44.33083926525205" lon="8.20625709650166"><ele>469.0</ele><time>2026-04-04T14:02:35Z</time></trkpt><trkpt lat="44.33075302831914" lon="8.206447185685159"><ele>468.33333333333337</ele><time>2026-04-04T14:02:36Z</time></trkpt><trkpt lat="44.33064705320324" lon="8.206631797806617"><ele>467.66666666666663</ele><time>2026-04-04T14:02:37Z</time></trkpt><trkpt lat="44.330533228565756" lon="8.206811065960917"><ele>467.0</ele><time>2026-04-04T14:02:38Z</time></trkpt><trkpt lat="44.33040511240261" lon="8.206951068743775"><ele>467.0</ele><time>2026-04-04T14:02:39Z</time></trkpt><trkpt lat="44.330268521226394" lon="8.207057973218838"><ele>467.0</ele><time>2026-04-04T14:02:40Z</time></trkpt><trkpt lat="44.33012597726726" lon="8.20714770503908"><ele>467.0</ele><time>2026-04-04T14:02:41Z</time></trkpt><trkpt lat="44.32996552036851" lon="8.207207541992558"><ele>467.0</ele><time>2026-04-04T14:02:42Z</time></trkpt><trkpt lat="44.32979429872647" lon="8.207250782355016"><ele>467.0</ele><time>2026-04-04T14:02:43Z</time></trkpt><trkpt lat="44.32961960299387" lon="8.207291011082823"><ele>467.0</ele><time>2026-04-04T14:02:44Z</time></trkpt><trkpt lat="44.329443994492166" lon="8.20731817762186"><ele>468.3333333333333</ele><time>2026-04-04T14:02:45Z</time></trkpt><trkpt lat="44.32927313229374" lon="8.207319598014381"><ele>469.66666666666663</ele><time>2026-04-04T14:02:45.999Z</time></trkpt><trkpt lat="44.32907724578954" lon="8.207294633810898"><ele>471.0</ele><time>2026-04-04T14:02:46.999Z</time></trkpt><trkpt lat="44.328904723428494" lon="8.207261029390587"><ele>471.66666666666663</ele><time>2026-04-04T14:02:47.999Z</time></trkpt><trkpt lat="44.32872883827121" lon="8.207232859828833"><ele>472.3333333333333</ele><time>2026-04-04T14:02:48.999Z</time></trkpt><trkpt lat="44.328543163557114" lon="8.207205716123449"><ele>473.0</ele><time>2026-04-04T14:02:49.999Z</time></trkpt><trkpt lat="44.3283577322288" lon="8.207157103772431"><ele>473.0</ele><time>2026-04-04T14:02:50.999Z</time></trkpt><trkpt lat="44.32814775030357" lon="8.207070261919547"><ele>473.0</ele><time>2026-04-04T14:02:51.999Z</time></trkpt><trkpt lat="44.32799904679902" lon="8.206993908866707"><ele>473.0</ele><time>2026-04-04T14:02:52.999Z</time></trkpt><trkpt lat="44.32782040653422" lon="8.20689597285526"><ele>476.0</ele><time>2026-04-04T14:02:53.999Z</time></trkpt><trkpt lat="44.32764768698249" lon="8.20679671410621"><ele>479.0</ele><time>2026-04-04T14:02:54.999Z</time></trkpt><trkpt lat="44.32748012262998" lon="8.206703777290054"><ele>482.0</ele><time>2026-04-04T14:02:55.999Z</time></trkpt><trkpt lat="44.327322280146774" lon="8.206632560845561"><ele>483.66666666666663</ele><time>2026-04-04T14:02:56.999Z</time></trkpt><trkpt lat="44.32714398858765" lon="8.206590177436118"><ele>485.33333333333337</ele><time>2026-04-04T14:02:57.999Z</time></trkpt><trkpt lat="44.32694362976776" lon="8.206588082663409"><ele>487.0</ele><time>2026-04-04T14:02:58.999Z</time></trkpt><trkpt lat="44.32673816085564" lon="8.206582568711182"><ele>487.0</ele><time>2026-04-04T14:02:59.999Z</time></trkpt><trkpt lat="44.32653413037496" lon="8.206584817294551"><ele>487.0</ele><time>2026-04-04T14:03:00.999Z</time></trkpt><trkpt lat="44.32635081177149" lon="8.206579608987866"><ele>487.0</ele><time>2026-04-04T14:03:01.999Z</time></trkpt><trkpt lat="44.32618965278674" lon="8.20657919208391"><ele>486.5</ele><time>2026-04-04T14:03:02.999Z</time></trkpt><trkpt lat="44.32605096002485" lon="8.206557782500935"><ele>486.0</ele><time>2026-04-04T14:03:03.999Z</time></trkpt><trkpt lat="44.325926730085506" lon="8.206622063585623"><ele>485.5</ele><time>2026-04-04T14:03:04.999Z</time></trkpt><trkpt lat="44.32580312542691" lon="8.206714370436966"><ele>485.0</ele><time>2026-04-04T14:03:05.999Z</time></trkpt><trkpt lat="44.32567844242658" lon="8.206865017003633"><ele>481.66666666666663</ele><time>2026-04-04T14:03:06.999Z</time></trkpt><trkpt lat="44.325539593514385" lon="8.207021284270008"><ele>478.33333333333337</ele><time>2026-04-04T14:03:07.999Z</time></trkpt><trkpt lat="44.32536689075059" lon="8.207150867675729"><ele>475.0</ele><time>2026-04-04T14:03:08.999Z</time></trkpt><trkpt lat="44.325209827894135" lon="8.20730691339458"><ele>480.0</ele><time>2026-04-04T14:03:09.999Z</time></trkpt><trkpt lat="44.3250612785675" lon="8.207451032993344"><ele>485.0</ele><time>2026-04-04T14:03:10.999Z</time></trkpt><trkpt lat="44.32492676048664" lon="8.207581539732766"><ele>490.0</ele><time>2026-04-04T14:03:11.999Z</time></trkpt><trkpt lat="44.32480422857752" lon="8.207695892636254"><ele>489.5</ele><time>2026-04-04T14:03:12.999Z</time></trkpt><trkpt lat="44.324692469428605" lon="8.207802778521815"><ele>489.0</ele><time>2026-04-04T14:03:13.999Z</time></trkpt><trkpt lat="44.3246018556108" lon="8.2079316922768"><ele>488.5</ele><time>2026-04-04T14:03:14.999Z</time></trkpt><trkpt lat="44.32451294243668" lon="8.208032097213188"><ele>488.0</ele><time>2026-04-04T14:03:15.999Z</time></trkpt><trkpt lat="44.324503454360325" lon="8.208194084939901"><ele>488.0</ele><time>2026-04-04T14:03:16.999Z</time></trkpt><trkpt lat="44.32451758308713" lon="8.208344863537341"><ele>488.0</ele><time>2026-04-04T14:03:17.999Z</time></trkpt><trkpt lat="44.324570818262316" lon="8.208479609800229"><ele>488.0</ele><time>2026-04-04T14:03:18.999Z</time></trkpt><trkpt lat="44.324665041580026" lon="8.208589621103192"><ele>488.0</ele><time>2026-04-04T14:03:19.999Z</time></trkpt><trkpt lat="44.324775956813696" lon="8.208707898575257"><ele>490.75</ele><time>2026-04-04T14:03:20.999Z</time></trkpt><trkpt lat="44.324869907957215" lon="8.208855059869496"><ele>493.5</ele><time>2026-04-04T14:03:21.999Z</time></trkpt><trkpt lat="44.324963574832125" lon="8.208972140708974"><ele>496.25</ele><time>2026-04-04T14:03:22.999Z</time></trkpt><trkpt lat="44.325029320454824" lon="8.209103872497668"><ele>499.0</ele><time>2026-04-04T14:03:23.999Z</time></trkpt><trkpt lat="44.32504590357323" lon="8.209274187453795"><ele>499.0</ele><time>2026-04-04T14:03:24.999Z</time></trkpt><trkpt lat="44.32502855283384" lon="8.209426432406552"><ele>499.0</ele><time>2026-04-04T14:03:25.999Z</time></trkpt><trkpt lat="44.3249705389677" lon="8.209580523436193"><ele>499.0</ele><time>2026-04-04T14:03:26.999Z</time></trkpt><trkpt lat="44.324892391229405" lon="8.209724660209394"><ele>499.0</ele><time>2026-04-04T14:03:27.999Z</time></trkpt><trkpt lat="44.324808006202474" lon="8.20990042994189"><ele>497.5</ele><time>2026-04-04T14:03:28.999Z</time></trkpt><trkpt lat="44.32471150589167" lon="8.210054191180172"><ele>496.0</ele><time>2026-04-04T14:03:29.999Z</time></trkpt><trkpt lat="44.324618442785955" lon="8.210214158337058"><ele>494.5</ele><time>2026-04-04T14:03:30.999Z</time></trkpt><trkpt lat="44.32451444046736" lon="8.21034947545558"><ele>493.0</ele><time>2026-04-04T14:03:31.999Z</time></trkpt><trkpt lat="44.32441037860997" lon="8.21051795529787"><ele>493.0</ele><time>2026-04-04T14:03:32.999Z</time></trkpt><trkpt lat="44.32432790313715" lon="8.21065148595586"><ele>493.0</ele><time>2026-04-04T14:03:33.999Z</time></trkpt><trkpt lat="44.324238496963716" lon="8.21079788422463"><ele>493.0</ele><time>2026-04-04T14:03:34.999Z</time></trkpt><trkpt lat="44.324153310719474" lon="8.21094274784901"><ele>493.0</ele><time>2026-04-04T14:03:35.999Z</time></trkpt><trkpt lat="44.32407483195962" lon="8.211078339614174"><ele>493.75</ele><time>2026-04-04T14:03:36.999Z</time></trkpt><trkpt lat="44.324001824680586" lon="8.211202550266856"><ele>494.5</ele><time>2026-04-04T14:03:37.999Z</time></trkpt><trkpt lat="44.3239253905953" lon="8.21132492772531"><ele>495.25</ele><time>2026-04-04T14:03:38.999Z</time></trkpt><trkpt lat="44.323843498290536" lon="8.211446860404209"><ele>496.0</ele><time>2026-04-04T14:03:39.999Z</time></trkpt><trkpt lat="44.323751963602554" lon="8.211559534389496"><ele>496.25</ele><time>2026-04-04T14:03:40.999Z</time></trkpt><trkpt lat="44.32365009568" lon="8.211655925723235"><ele>496.5</ele><time>2026-04-04T14:03:41.999Z</time></trkpt><trkpt lat="44.32354681326339" lon="8.21173029783251"><ele>496.75</ele><time>2026-04-04T14:03:42.999Z</time></trkpt><trkpt lat="44.32342557275726" lon="8.211785503052413"><ele>497.0</ele><time>2026-04-04T14:03:43.999Z</time></trkpt><trkpt lat="44.32330121637575" lon="8.211814510710239"><ele>497.0</ele><time>2026-04-04T14:03:44.999Z</time></trkpt><trkpt lat="44.323182021741204" lon="8.211825838722387"><ele>497.00000000000006</ele><time>2026-04-04T14:03:45.999Z</time></trkpt><trkpt lat="44.3230736183679" lon="8.211809594738456"><ele>497.00000000000006</ele><time>2026-04-04T14:03:46.999Z</time></trkpt><trkpt lat="44.32297637047523" lon="8.21177087276486"><ele>497.0</ele><time>2026-04-04T14:03:47.999Z</time></trkpt><trkpt lat="44.32286051682403" lon="8.211741970443098"><ele>497.0</ele><time>2026-04-04T14:03:48.999Z</time></trkpt><trkpt lat="44.32276702330426" lon="8.211687416211417"><ele>496.8</ele><time>2026-04-04T14:03:49.999Z</time></trkpt><trkpt lat="44.322672885472244" lon="8.211653367242333"><ele>496.6</ele><time>2026-04-04T14:03:50.999Z</time></trkpt><trkpt lat="44.32257028206839" lon="8.211656729876227"><ele>496.40000000000003</ele><time>2026-04-04T14:03:51.999Z</time></trkpt><trkpt lat="44.32245226849737" lon="8.211681103948512"><ele>496.20000000000005</ele><time>2026-04-04T14:03:53Z</time></trkpt><trkpt lat="44.322348866121466" lon="8.211749553927255"><ele>496.0</ele><time>2026-04-04T14:03:54Z</time></trkpt><trkpt lat="44.32225207940816" lon="8.211829109603745"><ele>497.75</ele><time>2026-04-04T14:03:55Z</time></trkpt><trkpt lat="44.3221658784932" lon="8.211930140483453"><ele>499.5</ele><time>2026-04-04T14:03:56Z</time></trkpt><trkpt lat="44.322096367148035" lon="8.212055566810529"><ele>501.25</ele><time>2026-04-04T14:03:57Z</time></trkpt><trkpt lat="44.32204403626332" lon="8.212199379159934"><ele>503.0</ele><time>2026-04-04T14:03:58Z</time></trkpt><trkpt lat="44.32201262552367" lon="8.212377321006855"><ele>503.0</ele><time>2026-04-04T14:03:59Z</time></trkpt><trkpt lat="44.32197088404567" lon="8.212580734004138"><ele>503.0</ele><time>2026-04-04T14:04:00Z</time></trkpt><trkpt lat="44.32193303983571" lon="8.212835219850298"><ele>503.0</ele><time>2026-04-04T14:04:01Z</time></trkpt><trkpt lat="44.32188816445272" lon="8.213138703949838"><ele>502.5</ele><time>2026-04-04T14:04:02Z</time></trkpt><trkpt lat="44.32183897833834" lon="8.213480522809242"><ele>502.0</ele><time>2026-04-04T14:04:03Z</time></trkpt><trkpt lat="44.32178873466027" lon="8.21383166311501"><ele>503.0</ele><time>2026-04-04T14:04:04Z</time></trkpt><trkpt lat="44.32174100272248" lon="8.214161089613851"><ele>504.0</ele><time>2026-04-04T14:04:05Z</time></trkpt><trkpt lat="44.32169582329389" lon="8.214469388203412"><ele>504.0</ele><time>2026-04-04T14:04:06Z</time></trkpt><trkpt lat="44.32165421606974" lon="8.21475012361391"><ele>504.0</ele><time>2026-04-04T14:04:07Z</time></trkpt><trkpt lat="44.32161401732125" lon="8.215016265898582"><ele>504.0</ele><time>2026-04-04T14:04:08Z</time></trkpt><trkpt lat="44.32159153810242" lon="8.215261901474031"><ele>505.33333333333337</ele><time>2026-04-04T14:04:09Z</time></trkpt><trkpt lat="44.321543392989604" lon="8.215488893621874"><ele>506.6666666666667</ele><time>2026-04-04T14:04:10Z</time></trkpt><trkpt lat="44.32151440521011" lon="8.215698258601439"><ele>508.0</ele><time>2026-04-04T14:04:11Z</time></trkpt><trkpt lat="44.32147594003924" lon="8.215870465119528"><ele>508.25</ele><time>2026-04-04T14:04:12Z</time></trkpt><trkpt lat="44.321423351288516" lon="8.216020993020624"><ele>508.5</ele><time>2026-04-04T14:04:13Z</time></trkpt><trkpt lat="44.32135067102684" lon="8.216147512614272"><ele>508.75</ele><time>2026-04-04T14:04:14Z</time></trkpt><trkpt lat="44.3212566666562" lon="8.216226463665036"><ele>509.0</ele><time>2026-04-04T14:04:15Z</time></trkpt><trkpt lat="44.3211395701143" lon="8.21628174154403"><ele>509.0</ele><time>2026-04-04T14:04:16Z</time></trkpt><trkpt lat="44.32100508850959" lon="8.216296044326283"><ele>509.0</ele><time>2026-04-04T14:04:17Z</time></trkpt><trkpt lat="44.320859256934426" lon="8.216290055670882"><ele>509.0</ele><time>2026-04-04T14:04:18Z</time></trkpt><trkpt lat="44.32067837593288" lon="8.216281181374782"><ele>509.3333333333333</ele><time>2026-04-04T14:04:19Z</time></trkpt><trkpt lat="44.320477955017516" lon="8.216274282670055"><ele>509.66666666666663</ele><time>2026-04-04T14:04:20Z</time></trkpt><trkpt lat="44.320284708858615" lon="8.21628639377718"><ele>510.0</ele><time>2026-04-04T14:04:21Z</time></trkpt><trkpt lat="44.320083492136405" lon="8.216275671147601"><ele>510.0</ele><time>2026-04-04T14:04:22Z</time></trkpt><trkpt lat="44.319887888115375" lon="8.216271654358955"><ele>510.0</ele><time>2026-04-04T14:04:23Z</time></trkpt><trkpt lat="44.319691799801326" lon="8.216244010502303"><ele>510.0</ele><time>2026-04-04T14:04:24Z</time></trkpt><trkpt lat="44.31948463763013" lon="8.216248011054875"><ele>508.33333333333337</ele><time>2026-04-04T14:04:25Z</time></trkpt><trkpt lat="44.319271204779945" lon="8.21630673808402"><ele>506.6666666666667</ele><time>2026-04-04T14:04:26Z</time></trkpt><trkpt lat="44.31904179377807" lon="8.216353875189474"><ele>505.0</ele><time>2026-04-04T14:04:27Z</time></trkpt><trkpt lat="44.318856494675536" lon="8.216400605811009"><ele>505.0</ele><time>2026-04-04T14:04:28Z</time></trkpt><trkpt lat="44.318628506087485" lon="8.216436970685956"><ele>505.0</ele><time>2026-04-04T14:04:29Z</time></trkpt><trkpt lat="44.31844736212146" lon="8.216475949393379"><ele>505.0</ele><time>2026-04-04T14:04:30Z</time></trkpt><trkpt lat="44.318283715173855" lon="8.216501132979806"><ele>507.33333333333337</ele><time>2026-04-04T14:04:31Z</time></trkpt><trkpt lat="44.318120955554775" lon="8.216506910513344"><ele>509.66666666666663</ele><time>2026-04-04T14:04:32Z</time></trkpt><trkpt lat="44.31795496448382" lon="8.216478829412095"><ele>512.0</ele><time>2026-04-04T14:04:33Z</time></trkpt><trkpt lat="44.317774675687936" lon="8.216423826393557"><ele>512.0</ele><time>2026-04-04T14:04:34Z</time></trkpt><trkpt lat="44.31758111780798" lon="8.216348197183645"><ele>512.0</ele><time>2026-04-04T14:04:35Z</time></trkpt><trkpt lat="44.31737902999956" lon="8.216258865262095"><ele>512.0</ele><time>2026-04-04T14:04:36Z</time></trkpt><trkpt lat="44.31716515008151" lon="8.21618501128426"><ele>512.0</ele><time>2026-04-04T14:04:37Z</time></trkpt><trkpt lat="44.316963831325346" lon="8.216085502762432"><ele>512.0</ele><time>2026-04-04T14:04:38Z</time></trkpt><trkpt lat="44.31677033982792" lon="8.2159998672509"><ele>512.0</ele><time>2026-04-04T14:04:39Z</time></trkpt><trkpt lat="44.316581518856125" lon="8.21593793400848"><ele>515.0</ele><time>2026-04-04T14:04:40Z</time></trkpt><trkpt lat="44.31639268218929" lon="8.215900269995796"><ele>518.0</ele><time>2026-04-04T14:04:41Z</time></trkpt><trkpt lat="44.316210232504474" lon="8.215846919943619"><ele>521.0</ele><time>2026-04-04T14:04:42Z</time></trkpt><trkpt lat="44.316038638895634" lon="8.215811384103102"><ele>521.0</ele><time>2026-04-04T14:04:43Z</time></trkpt><trkpt lat="44.31587580937461" lon="8.215760337421845"><ele>521.0</ele><time>2026-04-04T14:04:44Z</time></trkpt><trkpt lat="44.31570441263749" lon="8.215675164448568"><ele>521.0</ele><time>2026-04-04T14:04:45Z</time></trkpt><trkpt lat="44.31553914423165" lon="8.215583953451134"><ele>520.25</ele><time>2026-04-04T14:04:46Z</time></trkpt><trkpt lat="44.31539154607285" lon="8.21550588231118"><ele>519.5</ele><time>2026-04-04T14:04:46.999Z</time></trkpt><trkpt lat="44.31526340239081" lon="8.21542074332886"><ele>518.75</ele><time>2026-04-04T14:04:47.999Z</time></trkpt><trkpt lat="44.31514765093434" lon="8.215318162322177"><ele>518.0</ele><time>2026-04-04T14:04:48.999Z</time></trkpt><trkpt lat="44.315041343328815" lon="8.21519632229643"><ele>518.0</ele><time>2026-04-04T14:04:49.999Z</time></trkpt><trkpt lat="44.314968354651235" lon="8.215007274806258"><ele>518.0</ele><time>2026-04-04T14:04:50.999Z</time></trkpt><trkpt lat="44.31487956445911" lon="8.214797860339653"><ele>518.0</ele><time>2026-04-04T14:04:51.999Z</time></trkpt><trkpt lat="44.314780582079784" lon="8.214591267270631"><ele>524.3333333333333</ele><time>2026-04-04T14:04:52.999Z</time></trkpt><trkpt lat="44.31471286144086" lon="8.21436595393498"><ele>530.6666666666666</ele><time>2026-04-04T14:04:53.999Z</time></trkpt><trkpt lat="44.31469340836728" lon="8.214145646936226"><ele>537.0</ele><time>2026-04-04T14:04:54.999Z</time></trkpt><trkpt lat="44.31467669821545" lon="8.213916494097212"><ele>537.0</ele><time>2026-04-04T14:04:55.999Z</time></trkpt><trkpt lat="44.3146529277929" lon="8.213665418546533"><ele>537.0</ele><time>2026-04-04T14:04:56.999Z</time></trkpt><trkpt lat="44.31464248232996" lon="8.21341728716721"><ele>537.0</ele><time>2026-04-04T14:04:57.999Z</time></trkpt><trkpt lat="44.31461265843364" lon="8.213187088243455"><ele>532.3333333333334</ele><time>2026-04-04T14:04:58.999Z</time></trkpt><trkpt lat="44.31455532064871" lon="8.212956544218237"><ele>527.6666666666667</ele><time>2026-04-04T14:04:59.999Z</time></trkpt><trkpt lat="44.3144374551397" lon="8.212734692731038"><ele>523.0</ele><time>2026-04-04T14:05:00.999Z</time></trkpt><trkpt lat="44.314351881847514" lon="8.212481042645198"><ele>523.0</ele><time>2026-04-04T14:05:01.999Z</time></trkpt><trkpt lat="44.31424761057173" lon="8.212219029183686"><ele>523.0</ele><time>2026-04-04T14:05:02.999Z</time></trkpt><trkpt lat="44.31415145275182" lon="8.211972942844943"><ele>523.0</ele><time>2026-04-04T14:05:03.999Z</time></trkpt><trkpt lat="44.314063223817676" lon="8.211752420807581"><ele>523.0</ele><time>2026-04-04T14:05:04.999Z</time></trkpt><trkpt lat="44.31397904033276" lon="8.211543276121933"><ele>523.0</ele><time>2026-04-04T14:05:05.999Z</time></trkpt><trkpt lat="44.31387654866718" lon="8.211350484593266"><ele>523.0</ele><time>2026-04-04T14:05:06.999Z</time></trkpt><trkpt lat="44.31380124597422" lon="8.211146772552935"><ele>523.75</ele><time>2026-04-04T14:05:07.999Z</time></trkpt><trkpt lat="44.31372780164318" lon="8.210953421572727"><ele>524.5</ele><time>2026-04-04T14:05:08.999Z</time></trkpt><trkpt lat="44.31366074278333" lon="8.210777547786888"><ele>525.25</ele><time>2026-04-04T14:05:09.999Z</time></trkpt><trkpt lat="44.31360035847312" lon="8.210626401588186"><ele>526.0</ele><time>2026-04-04T14:05:10.999Z</time></trkpt><trkpt lat="44.31356082003389" lon="8.210489266654788"><ele>526.0</ele><time>2026-04-04T14:05:11.999Z</time></trkpt><trkpt lat="44.31350655427314" lon="8.210386456688422"><ele>526.0</ele><time>2026-04-04T14:05:12.999Z</time></trkpt><trkpt lat="44.313419357060894" lon="8.210325292096927"><ele>526.0</ele><time>2026-04-04T14:05:13.999Z</time></trkpt><trkpt lat="44.3133174704391" lon="8.210325689990654"><ele>526.0</ele><time>2026-04-04T14:05:14.999Z</time></trkpt><trkpt lat="44.31322104652394" lon="8.210342830334682"><ele>526.0</ele><time>2026-04-04T14:05:15.999Z</time></trkpt><trkpt lat="44.31313395473274" lon="8.210421223689204"><ele>527.0</ele><time>2026-04-04T14:05:16.999Z</time></trkpt><trkpt lat="44.31305520373774" lon="8.210533816135225"><ele>528.0</ele><time>2026-04-04T14:05:17.999Z</time></trkpt><trkpt lat="44.31298960483227" lon="8.2106793257806"><ele>529.0</ele><time>2026-04-04T14:05:18.999Z</time></trkpt><trkpt lat="44.31294981957201" lon="8.210862805086649"><ele>530.0</ele><time>2026-04-04T14:05:19.999Z</time></trkpt><trkpt lat="44.312914609252466" lon="8.211033487319424"><ele>530.0</ele><time>2026-04-04T14:05:20.999Z</time></trkpt><trkpt lat="44.31286307789404" lon="8.211183309716159"><ele>530.0</ele><time>2026-04-04T14:05:21.999Z</time></trkpt><trkpt lat="44.31278444608223" lon="8.211297104695788"><ele>530.0</ele><time>2026-04-04T14:05:22.999Z</time></trkpt><trkpt lat="44.31268102802441" lon="8.21136850554364"><ele>530.0</ele><time>2026-04-04T14:05:23.999Z</time></trkpt><trkpt lat="44.31256242135732" lon="8.21139451473648"><ele>530.0</ele><time>2026-04-04T14:05:24.999Z</time></trkpt><trkpt lat="44.31243853366609" lon="8.211375714763484"><ele>530.0</ele><time>2026-04-04T14:05:25.999Z</time></trkpt><trkpt lat="44.312318316580914" lon="8.211310851463548"><ele>530.0</ele><time>2026-04-04T14:05:26.999Z</time></trkpt><trkpt lat="44.3122054110165" lon="8.211199465772575"><ele>530.0</ele><time>2026-04-04T14:05:27.999Z</time></trkpt><trkpt lat="44.31212197137314" lon="8.211036690066223"><ele>537.3333333333333</ele><time>2026-04-04T14:05:28.999Z</time></trkpt><trkpt lat="44.31203889477504" lon="8.210866316519951"><ele>544.6666666666666</ele><time>2026-04-04T14:05:29.999Z</time></trkpt><trkpt lat="44.311949166665514" lon="8.210686860434087"><ele>552.0</ele><time>2026-04-04T14:05:30.999Z</time></trkpt><trkpt lat="44.311881744165866" lon="8.210462481726873"><ele>552.0</ele><time>2026-04-04T14:05:31.999Z</time></trkpt><trkpt lat="44.31182995177884" lon="8.210210003424404"><ele>552.0</ele><time>2026-04-04T14:05:32.999Z</time></trkpt><trkpt lat="44.31178018286138" lon="8.209942197366232"><ele>552.0</ele><time>2026-04-04T14:05:33.999Z</time></trkpt><trkpt lat="44.31173460510006" lon="8.209674617195292"><ele>549.6666666666666</ele><time>2026-04-04T14:05:34.999Z</time></trkpt><trkpt lat="44.3116831106241" lon="8.209388825527194"><ele>547.3333333333333</ele><time>2026-04-04T14:05:35.999Z</time></trkpt><trkpt lat="44.31162959998593" lon="8.209094603667662"><ele>545.0</ele><time>2026-04-04T14:05:36.999Z</time></trkpt><trkpt lat="44.31156917196247" lon="8.208793297575385"><ele>543.5</ele><time>2026-04-04T14:05:37.999Z</time></trkpt><trkpt lat="44.31150622114291" lon="8.20848183092112"><ele>542.0</ele><time>2026-04-04T14:05:38.999Z</time></trkpt><trkpt lat="44.311465391433806" lon="8.208157039678866"><ele>553.6666666666666</ele><time>2026-04-04T14:05:39.999Z</time></trkpt><trkpt lat="44.31139671043571" lon="8.207856516867848"><ele>565.3333333333334</ele><time>2026-04-04T14:05:40.999Z</time></trkpt><trkpt lat="44.31135104162865" lon="8.207580596618577"><ele>577.0</ele><time>2026-04-04T14:05:41.999Z</time></trkpt><trkpt lat="44.31131050763811" lon="8.207326256667807"><ele>577.0</ele><time>2026-04-04T14:05:42.999Z</time></trkpt><trkpt lat="44.311264447081825" lon="8.207076711069071"><ele>577.0</ele><time>2026-04-04T14:05:43.999Z</time></trkpt><trkpt lat="44.31121585901899" lon="8.206828112857885"><ele>577.0</ele><time>2026-04-04T14:05:44.999Z</time></trkpt><trkpt lat="44.31119555828699" lon="8.2065892671667"><ele>576.25</ele><time>2026-04-04T14:05:45.999Z</time></trkpt><trkpt lat="44.311175650408146" lon="8.20637864888741"><ele>575.5</ele><time>2026-04-04T14:05:46.999Z</time></trkpt><trkpt lat="44.31117894073189" lon="8.206187217940414"><ele>574.75</ele><time>2026-04-04T14:05:47.999Z</time></trkpt><trkpt lat="44.311216574572114" lon="8.206023604266317"><ele>574.0</ele><time>2026-04-04T14:05:48.999Z</time></trkpt><trkpt lat="44.311269994893394" lon="8.205879096200158"><ele>574.0</ele><time>2026-04-04T14:05:49.999Z</time></trkpt><trkpt lat="44.311360076256214" lon="8.205747090196224"><ele>574.0</ele><time>2026-04-04T14:05:50.999Z</time></trkpt><trkpt lat="44.31147018579063" lon="8.20559029036075"><ele>574.0</ele><time>2026-04-04T14:05:51.999Z</time></trkpt><trkpt lat="44.31162889264675" lon="8.205503820954098"><ele>576.6666666666667</ele><time>2026-04-04T14:05:52.999Z</time></trkpt><trkpt lat="44.31179545207376" lon="8.205409406234013"><ele>579.3333333333334</ele><time>2026-04-04T14:05:53.999Z</time></trkpt><trkpt lat="44.311971572833585" lon="8.20531543749694"><ele>582.0</ele><time>2026-04-04T14:05:54.999Z</time></trkpt><trkpt lat="44.31213675573034" lon="8.205208532562366"><ele>577.0</ele><time>2026-04-04T14:05:55.999Z</time></trkpt><trkpt lat="44.31228023353982" lon="8.205127305700708"><ele>572.0</ele><time>2026-04-04T14:05:56.999Z</time></trkpt><trkpt lat="44.31241207591129" lon="8.205051669478859"><ele>567.0</ele><time>2026-04-04T14:05:57.998Z</time></trkpt><trkpt lat="44.31254778090723" lon="8.20499567528977"><ele>562.0</ele><time>2026-04-04T14:05:59Z</time></trkpt><trkpt lat="44.3126515655662" lon="8.204933246707341"><ele>562.0</ele><time>2026-04-04T14:06:00Z</time></trkpt><trkpt lat="44.31273868902629" lon="8.204874025012321"><ele>562.0</ele><time>2026-04-04T14:06:01Z</time></trkpt><trkpt lat="44.31279690240805" lon="8.204796463588462"><ele>562.0</ele><time>2026-04-04T14:06:02Z</time></trkpt><trkpt lat="44.312817250433135" lon="8.204694351837967"><ele>562.0</ele><time>2026-04-04T14:06:03Z</time></trkpt><trkpt lat="44.31279879693154" lon="8.20456691948706"><ele>562.0</ele><time>2026-04-04T14:06:04Z</time></trkpt><trkpt lat="44.312741635626786" lon="8.204431559049642"><ele>563.5</ele><time>2026-04-04T14:06:05Z</time></trkpt><trkpt lat="44.31267834323765" lon="8.204256435980106"><ele>565.0</ele><time>2026-04-04T14:06:06Z</time></trkpt><trkpt lat="44.31259578874537" lon="8.204088909313748"><ele>566.5</ele><time>2026-04-04T14:06:07Z</time></trkpt><trkpt lat="44.31251909729496" lon="8.203898344035434"><ele>568.0</ele><time>2026-04-04T14:06:08Z</time></trkpt><trkpt lat="44.31244315008734" lon="8.2037068126418"><ele>568.0</ele><time>2026-04-04T14:06:09Z</time></trkpt><trkpt lat="44.31237120310731" lon="8.203526613865575"><ele>568.0</ele><time>2026-04-04T14:06:10Z</time></trkpt><trkpt lat="44.31228985192811" lon="8.203346043995625"><ele>568.0</ele><time>2026-04-04T14:06:11Z</time></trkpt><trkpt lat="44.312207918979716" lon="8.2031610097433"><ele>575.75</ele><time>2026-04-04T14:06:12Z</time></trkpt><trkpt lat="44.312146661964654" lon="8.202965686693805"><ele>583.5</ele><time>2026-04-04T14:06:13Z</time></trkpt><trkpt lat="44.31206679666829" lon="8.202810058855407"><ele>591.25</ele><time>2026-04-04T14:06:14Z</time></trkpt><trkpt lat="44.312024032487905" lon="8.202655130214351"><ele>599.0</ele><time>2026-04-04T14:06:15Z</time></trkpt><trkpt lat="44.31200079864667" lon="8.202482670642569"><ele>599.25</ele><time>2026-04-04T14:06:16Z</time></trkpt><trkpt lat="44.31199684741044" lon="8.202302694937964"><ele>599.5</ele><time>2026-04-04T14:06:17Z</time></trkpt><trkpt lat="44.31201103926586" lon="8.202141196701884"><ele>599.75</ele><time>2026-04-04T14:06:18Z</time></trkpt><trkpt lat="44.31203823972229" lon="8.201973751771552"><ele>600.0</ele><time>2026-04-04T14:06:19Z</time></trkpt><trkpt lat="44.31206684464625" lon="8.201792113184055"><ele>600.0</ele><time>2026-04-04T14:06:20Z</time></trkpt><trkpt lat="44.31209404580683" lon="8.201597483354144"><ele>600.0</ele><time>2026-04-04T14:06:21Z</time></trkpt><trkpt lat="44.31211515952768" lon="8.201407256354148"><ele>600.0</ele><time>2026-04-04T14:06:22Z</time></trkpt><trkpt lat="44.31213235365781" lon="8.20123397287167"><ele>600.0</ele><time>2026-04-04T14:06:23Z</time></trkpt><trkpt lat="44.312140227564576" lon="8.201102380068374"><ele>598.8333333333334</ele><time>2026-04-04T14:06:24Z</time></trkpt><trkpt lat="44.31211458234007" lon="8.201014758757092"><ele>597.6666666666666</ele><time>2026-04-04T14:06:25Z</time></trkpt><trkpt lat="44.312077674957145" lon="8.200926226499833"><ele>596.5</ele><time>2026-04-04T14:06:26Z</time></trkpt><trkpt lat="44.311988786824294" lon="8.200889839915574"><ele>595.3333333333333</ele><time>2026-04-04T14:06:27Z</time></trkpt><trkpt lat="44.31192193270986" lon="8.200902596466996"><ele>594.1666666666666</ele><time>2026-04-04T14:06:28Z</time></trkpt><trkpt lat="44.31185456110627" lon="8.200979821054396"><ele>593.0</ele><time>2026-04-04T14:06:29Z</time></trkpt><trkpt lat="44.31182976311646" lon="8.201102011623762"><ele>593.0</ele><time>2026-04-04T14:06:30Z</time></trkpt><trkpt lat="44.31183632471345" lon="8.201223649081152"><ele>593.0</ele><time>2026-04-04T14:06:31Z</time></trkpt><trkpt lat="44.31185235225743" lon="8.201375707464925"><ele>593.0</ele><time>2026-04-04T14:06:32Z</time></trkpt><trkpt lat="44.31180900612621" lon="8.201541772933606"><ele>593.0</ele><time>2026-04-04T14:06:33Z</time></trkpt><trkpt lat="44.31175254225129" lon="8.201723504412117"><ele>595.3333333333333</ele><time>2026-04-04T14:06:34Z</time></trkpt><trkpt lat="44.31167583090048" lon="8.2019160017683"><ele>597.6666666666666</ele><time>2026-04-04T14:06:35Z</time></trkpt><trkpt lat="44.31159277225882" lon="8.202134990329126"><ele>600.0</ele><time>2026-04-04T14:06:36Z</time></trkpt><trkpt lat="44.311528927602104" lon="8.202322387920631"><ele>599.75</ele><time>2026-04-04T14:06:37Z</time></trkpt><trkpt lat="44.3114763915747" lon="8.202514549399572"><ele>599.5</ele><time>2026-04-04T14:06:38Z</time></trkpt><trkpt lat="44.311443425557904" lon="8.202707510868859"><ele>599.25</ele><time>2026-04-04T14:06:39Z</time></trkpt><trkpt lat="44.31143116994291" lon="8.202899397464313"><ele>599.0</ele><time>2026-04-04T14:06:40Z</time></trkpt><trkpt lat="44.311444598297236" lon="8.203083074052422"><ele>600.0</ele><time>2026-04-04T14:06:41Z</time></trkpt><trkpt lat="44.311477161767414" lon="8.203259929524988"><ele>601.0</ele><time>2026-04-04T14:06:42Z</time></trkpt><trkpt lat="44.31153917495714" lon="8.203415774154486"><ele>602.0</ele><time>2026-04-04T14:06:43Z</time></trkpt><trkpt lat="44.3116224902493" lon="8.203555421529895"><ele>603.0</ele><time>2026-04-04T14:06:44Z</time></trkpt><trkpt lat="44.31168343135533" lon="8.20371259591263"><ele>603.0</ele><time>2026-04-04T14:06:45Z</time></trkpt><trkpt lat="44.311748288077936" lon="8.20383826682888"><ele>603.0</ele><time>2026-04-04T14:06:46Z</time></trkpt><trkpt lat="44.31179835629445" lon="8.20393715739182"><ele>603.0</ele><time>2026-04-04T14:06:47Z</time></trkpt><trkpt lat="44.31184812043883" lon="8.204012934469874"><ele>603.0</ele><time>2026-04-04T14:06:48Z</time></trkpt><trkpt lat="44.31181694966607" lon="8.204166394766037"><ele>603.0</ele><time>2026-04-04T14:06:50Z</time></trkpt><trkpt lat="44.31169248583974" lon="8.204208381082845"><ele>603.0</ele><time>2026-04-04T14:06:51.999Z</time></trkpt><trkpt lat="44.31163306680748" lon="8.204130517706739"><ele>603.0</ele><time>2026-04-04T14:06:52.999Z</time></trkpt><trkpt lat="44.3116125594137" lon="8.204018439424846"><ele>603.0</ele><time>2026-04-04T14:06:53.999Z</time></trkpt><trkpt lat="44.31161125379313" lon="8.203885676783313"><ele>603.0</ele><time>2026-04-04T14:06:54.999Z</time></trkpt><trkpt lat="44.311577809724" lon="8.203765106533659"><ele>603.0</ele><time>2026-04-04T14:06:55.999Z</time></trkpt><trkpt lat="44.311520305967626" lon="8.203654363074657"><ele>603.0</ele><time>2026-04-04T14:06:56.999Z</time></trkpt><trkpt lat="44.31143177047322" lon="8.203569705762177"><ele>603.0</ele><time>2026-04-04T14:06:57.999Z</time></trkpt><trkpt lat="44.311330130560094" lon="8.203489680879082"><ele>603.0</ele><time>2026-04-04T14:06:58.999Z</time></trkpt><trkpt lat="44.31123052456986" lon="8.203388489681297"><ele>603.0</ele><time>2026-04-04T14:06:59.999Z</time></trkpt><trkpt lat="44.311171328761006" lon="8.203255138883113"><ele>612.75</ele><time>2026-04-04T14:07:00.999Z</time></trkpt><trkpt lat="44.31114878043058" lon="8.203095173307087"><ele>622.5</ele><time>2026-04-04T14:07:01.999Z</time></trkpt><trkpt lat="44.31112260178539" lon="8.202915409434581"><ele>632.25</ele><time>2026-04-04T14:07:02.999Z</time></trkpt><trkpt lat="44.31111040069354" lon="8.202716843714244"><ele>642.0</ele><time>2026-04-04T14:07:03.999Z</time></trkpt><trkpt lat="44.311136217834736" lon="8.202507118306938"><ele>642.3333333333334</ele><time>2026-04-04T14:07:04.999Z</time></trkpt><trkpt lat="44.311176221557204" lon="8.202286981219267"><ele>642.6666666666667</ele><time>2026-04-04T14:07:05.999Z</time></trkpt><trkpt lat="44.31122433704051" lon="8.20206644311306"><ele>643.0</ele><time>2026-04-04T14:07:06.999Z</time></trkpt><trkpt lat="44.311270669100665" lon="8.201870869931042"><ele>643.0</ele><time>2026-04-04T14:07:07.999Z</time></trkpt><trkpt lat="44.311306820112776" lon="8.201701088567347"><ele>643.0</ele><time>2026-04-04T14:07:08.999Z</time></trkpt><trkpt lat="44.31135687681913" lon="8.201571827758766"><ele>643.0</ele><time>2026-04-04T14:07:09.999Z</time></trkpt><trkpt lat="44.3113793624336" lon="8.201457447143701"><ele>643.0</ele><time>2026-04-04T14:07:10.999Z</time></trkpt><trkpt lat="44.31135362229101" lon="8.201358372957609"><ele>643.0</ele><time>2026-04-04T14:07:11.999Z</time></trkpt><trkpt lat="44.3112888311702" lon="8.201285133339013"><ele>639.75</ele><time>2026-04-04T14:07:12.999Z</time></trkpt><trkpt lat="44.311192857267116" lon="8.201237165753724"><ele>636.5</ele><time>2026-04-04T14:07:13.999Z</time></trkpt><trkpt lat="44.31109366166053" lon="8.201155528950085"><ele>633.25</ele><time>2026-04-04T14:07:14.999Z</time></trkpt><trkpt lat="44.31098784777665" lon="8.20110042230825"><ele>630.0</ele><time>2026-04-04T14:07:15.999Z</time></trkpt><trkpt lat="44.31086774928082" lon="8.201056415821546"><ele>630.0</ele><time>2026-04-04T14:07:16.999Z</time></trkpt><trkpt lat="44.31075294534018" lon="8.201041223568877"><ele>630.0</ele><time>2026-04-04T14:07:17.999Z</time></trkpt><trkpt lat="44.31063563319634" lon="8.201034040904322"><ele>630.0</ele><time>2026-04-04T14:07:18.999Z</time></trkpt><trkpt lat="44.31055076365304" lon="8.201027513058781"><ele>630.0</ele><time>2026-04-04T14:07:19.999Z</time></trkpt><trkpt lat="44.310471034107685" lon="8.201016107858466"><ele>630.0</ele><time>2026-04-04T14:07:20.999Z</time></trkpt><trkpt lat="44.31036477570319" lon="8.200919041149787"><ele>637.8</ele><time>2026-04-04T14:07:22.999Z</time></trkpt><trkpt lat="44.310359638188075" lon="8.200809362450801"><ele>645.6</ele><time>2026-04-04T14:07:23.999Z</time></trkpt><trkpt lat="44.31040181955911" lon="8.200716065795941"><ele>653.4000000000001</ele><time>2026-04-04T14:07:24.999Z</time></trkpt><trkpt lat="44.31046161282749" lon="8.200593705901884"><ele>661.2</ele><time>2026-04-04T14:07:25.999Z</time></trkpt><trkpt lat="44.31050171832855" lon="8.200448340745389"><ele>669.0</ele><time>2026-04-04T14:07:26.999Z</time></trkpt><trkpt lat="44.31055870419162" lon="8.200293289881394"><ele>660.25</ele><time>2026-04-04T14:07:27.999Z</time></trkpt><trkpt lat="44.31063907848103" lon="8.200134017577945"><ele>651.5</ele><time>2026-04-04T14:07:28.999Z</time></trkpt><trkpt lat="44.310686545717985" lon="8.1999664830408"><ele>642.75</ele><time>2026-04-04T14:07:29.999Z</time></trkpt><trkpt lat="44.310712767085555" lon="8.199815705779061"><ele>634.0</ele><time>2026-04-04T14:07:30.999Z</time></trkpt><trkpt lat="44.310740824537746" lon="8.19968204080407"><ele>632.6</ele><time>2026-04-04T14:07:31.999Z</time></trkpt><trkpt lat="44.31077354826723" lon="8.199563348874095"><ele>631.2</ele><time>2026-04-04T14:07:32.999Z</time></trkpt><trkpt lat="44.31076179263334" lon="8.199435850778915"><ele>629.8000000000001</ele><time>2026-04-04T14:07:33.999Z</time></trkpt><trkpt lat="44.31072016732511" lon="8.199312207755051"><ele>628.4</ele><time>2026-04-04T14:07:34.999Z</time></trkpt><trkpt lat="44.31065454644898" lon="8.199205475753772"><ele>627.0</ele><time>2026-04-04T14:07:35.999Z</time></trkpt><trkpt lat="44.310576744409126" lon="8.19913372229712"><ele>628.0</ele><time>2026-04-04T14:07:36.999Z</time></trkpt><trkpt lat="44.310487243796096" lon="8.199106686012385"><ele>629.0</ele><time>2026-04-04T14:07:37.999Z</time></trkpt><trkpt lat="44.31038611048153" lon="8.199102356882806"><ele>630.0</ele><time>2026-04-04T14:07:38.999Z</time></trkpt><trkpt lat="44.31028995536444" lon="8.199075198835246"><ele>631.0</ele><time>2026-04-04T14:07:39.999Z</time></trkpt><trkpt lat="44.31019318760373" lon="8.199036119691973"><ele>632.0</ele><time>2026-04-04T14:07:40.999Z</time></trkpt><trkpt lat="44.310089945731015" lon="8.199000433105358"><ele>632.0</ele><time>2026-04-04T14:07:41.999Z</time></trkpt><trkpt lat="44.309992588107086" lon="8.19893526538166"><ele>632.0</ele><time>2026-04-04T14:07:42.999Z</time></trkpt><trkpt lat="44.30988849046431" lon="8.198888990370985"><ele>632.0</ele><time>2026-04-04T14:07:43.999Z</time></trkpt><trkpt lat="44.30979734470805" lon="8.198812870455606"><ele>632.0</ele><time>2026-04-04T14:07:44.999Z</time></trkpt><trkpt lat="44.30971517512383" lon="8.198708562953202"><ele>632.0</ele><time>2026-04-04T14:07:45.999Z</time></trkpt><trkpt lat="44.30962738989114" lon="8.198608687743283"><ele>632.75</ele><time>2026-04-04T14:07:46.999Z</time></trkpt><trkpt lat="44.30952865120787" lon="8.1985153814248"><ele>633.5</ele><time>2026-04-04T14:07:47.999Z</time></trkpt><trkpt lat="44.30944576982766" lon="8.19839477739047"><ele>634.25</ele><time>2026-04-04T14:07:48.999Z</time></trkpt><trkpt lat="44.309356076146805" lon="8.198276113235899"><ele>635.0</ele><time>2026-04-04T14:07:49.999Z</time></trkpt><trkpt lat="44.3092562924567" lon="8.198157826521905"><ele>635.0</ele><time>2026-04-04T14:07:50.999Z</time></trkpt><trkpt lat="44.30915673018626" lon="8.198044383490597"><ele>635.0</ele><time>2026-04-04T14:07:51.999Z</time></trkpt><trkpt lat="44.3090494775245" lon="8.19792933529849"><ele>635.0</ele><time>2026-04-04T14:07:52.999Z</time></trkpt><trkpt lat="44.30894039984338" lon="8.197814688229835"><ele>635.0</ele><time>2026-04-04T14:07:53.999Z</time></trkpt><trkpt lat="44.308827343955905" lon="8.197700367691954"><ele>635.25</ele><time>2026-04-04T14:07:54.999Z</time></trkpt><trkpt lat="44.308718546848624" lon="8.197573583219825"><ele>635.5</ele><time>2026-04-04T14:07:55.999Z</time></trkpt><trkpt lat="44.3086020566269" lon="8.19745341141112"><ele>635.75</ele><time>2026-04-04T14:07:56.999Z</time></trkpt><trkpt lat="44.308486663679346" lon="8.19732779734219"><ele>636.0</ele><time>2026-04-04T14:07:57.999Z</time></trkpt><trkpt lat="44.30837011275672" lon="8.197200043376032"><ele>636.0</ele><time>2026-04-04T14:07:58.999Z</time></trkpt><trkpt lat="44.308248159282236" lon="8.197070962398877"><ele>636.0</ele><time>2026-04-04T14:07:59.999Z</time></trkpt><trkpt lat="44.30812730994985" lon="8.196941948446494"><ele>636.0</ele><time>2026-04-04T14:08:00.998Z</time></trkpt><trkpt lat="44.30801272400404" lon="8.196801353046656"><ele>638.0</ele><time>2026-04-04T14:08:01.998Z</time></trkpt><trkpt lat="44.30787982833391" lon="8.196672320870164"><ele>640.0</ele><time>2026-04-04T14:08:02.998Z</time></trkpt><trkpt lat="44.30775195171724" lon="8.196537648652761"><ele>642.0</ele><time>2026-04-04T14:08:03.998Z</time></trkpt><trkpt lat="44.30763476043149" lon="8.196397984286083"><ele>642.0</ele><time>2026-04-04T14:08:05Z</time></trkpt><trkpt lat="44.30754440848979" lon="8.19621709157582"><ele>642.0</ele><time>2026-04-04T14:08:06Z</time></trkpt><trkpt lat="44.30746144052712" lon="8.196053504705489"><ele>642.0</ele><time>2026-04-04T14:08:07Z</time></trkpt><trkpt lat="44.30735626142276" lon="8.195932419292197"><ele>642.0</ele><time>2026-04-04T14:08:08Z</time></trkpt><trkpt lat="44.30723595739484" lon="8.195820871780025"><ele>641.0</ele><time>2026-04-04T14:08:09Z</time></trkpt><trkpt lat="44.30709201340434" lon="8.195732214985796"><ele>640.0</ele><time>2026-04-04T14:08:10Z</time></trkpt><trkpt lat="44.30693233650709" lon="8.195653498901322"><ele>639.0</ele><time>2026-04-04T14:08:11Z</time></trkpt><trkpt lat="44.3067653571623" lon="8.195563480859695"><ele>639.0</ele><time>2026-04-04T14:08:12Z</time></trkpt><trkpt lat="44.30661411257269" lon="8.195416411680196"><ele>639.0</ele><time>2026-04-04T14:08:13Z</time></trkpt><trkpt lat="44.306463730684435" lon="8.19530812718065"><ele>639.0</ele><time>2026-04-04T14:08:14Z</time></trkpt><trkpt lat="44.30634496175302" lon="8.195197962914355"><ele>640.5</ele><time>2026-04-04T14:08:15Z</time></trkpt><trkpt lat="44.30622695802701" lon="8.195115100713238"><ele>642.0</ele><time>2026-04-04T14:08:16Z</time></trkpt><trkpt lat="44.30611187566238" lon="8.195072743451508"><ele>643.5</ele><time>2026-04-04T14:08:17Z</time></trkpt><trkpt lat="44.305983964352365" lon="8.195070928759012"><ele>645.0</ele><time>2026-04-04T14:08:18Z</time></trkpt><trkpt lat="44.30585322460563" lon="8.195131972457656"><ele>645.0</ele><time>2026-04-04T14:08:19Z</time></trkpt><trkpt lat="44.3057182523573" lon="8.195230572296905"><ele>645.0</ele><time>2026-04-04T14:08:20Z</time></trkpt><trkpt lat="44.30558249398606" lon="8.19534672063784"><ele>645.0</ele><time>2026-04-04T14:08:21Z</time></trkpt><trkpt lat="44.305426582874226" lon="8.195465043368104"><ele>646.3333333333334</ele><time>2026-04-04T14:08:22Z</time></trkpt><trkpt lat="44.30526279841639" lon="8.195581481259488"><ele>647.6666666666667</ele><time>2026-04-04T14:08:23Z</time></trkpt><trkpt lat="44.3050921466339" lon="8.195707846537166"><ele>649.0</ele><time>2026-04-04T14:08:24Z</time></trkpt><trkpt lat="44.30492643924143" lon="8.195858702403942"><ele>649.0</ele><time>2026-04-04T14:08:25Z</time></trkpt><trkpt lat="44.30475777296693" lon="8.19602027649801"><ele>649.0</ele><time>2026-04-04T14:08:26Z</time></trkpt><trkpt lat="44.30460398541713" lon="8.196203869986102"><ele>649.0</ele><time>2026-04-04T14:08:27Z</time></trkpt><trkpt lat="44.30448097217177" lon="8.19637691229569"><ele>647.6666666666667</ele><time>2026-04-04T14:08:28Z</time></trkpt><trkpt lat="44.30434685039937" lon="8.19651847527196"><ele>646.3333333333334</ele><time>2026-04-04T14:08:29Z</time></trkpt><trkpt lat="44.304218913190354" lon="8.196665687912672"><ele>645.0</ele><time>2026-04-04T14:08:30Z</time></trkpt><trkpt lat="44.30407787597861" lon="8.196808583412214"><ele>641.0</ele><time>2026-04-04T14:08:31Z</time></trkpt><trkpt lat="44.30390910112345" lon="8.19691004628113"><ele>637.0</ele><time>2026-04-04T14:08:32Z</time></trkpt><trkpt lat="44.30373260321959" lon="8.196995684944303"><ele>633.0</ele><time>2026-04-04T14:08:33Z</time></trkpt><trkpt lat="44.30354452239297" lon="8.19706539316604"><ele>633.0</ele><time>2026-04-04T14:08:34Z</time></trkpt><trkpt lat="44.303360380476086" lon="8.197120764072075"><ele>633.0</ele><time>2026-04-04T14:08:35Z</time></trkpt><trkpt lat="44.30319165471049" lon="8.197168112684155"><ele>633.0</ele><time>2026-04-04T14:08:36Z</time></trkpt><trkpt lat="44.30303842329739" lon="8.197213950841249"><ele>632.3333333333334</ele><time>2026-04-04T14:08:37Z</time></trkpt><trkpt lat="44.30288531129813" lon="8.197271167995064"><ele>631.6666666666667</ele><time>2026-04-04T14:08:38Z</time></trkpt><trkpt lat="44.3027421877338" lon="8.197343395226797"><ele>631.0</ele><time>2026-04-04T14:08:39Z</time></trkpt><trkpt lat="44.30260308121027" lon="8.197449212318613"><ele>634.3333333333334</ele><time>2026-04-04T14:08:40Z</time></trkpt><trkpt lat="44.30247847678836" lon="8.197588477725155"><ele>637.6666666666666</ele><time>2026-04-04T14:08:41Z</time></trkpt><trkpt lat="44.30236680226078" lon="8.19775729219835"><ele>641.0</ele><time>2026-04-04T14:08:42Z</time></trkpt><trkpt lat="44.30227587128299" lon="8.19795824834015"><ele>638.6666666666666</ele><time>2026-04-04T14:08:43Z</time></trkpt><trkpt lat="44.30220347732221" lon="8.198165407456713"><ele>636.3333333333334</ele><time>2026-04-04T14:08:44Z</time></trkpt><trkpt lat="44.30214119836918" lon="8.198369010459379"><ele>634.0</ele><time>2026-04-04T14:08:45Z</time></trkpt><trkpt lat="44.30205149416857" lon="8.198560648483852"><ele>634.0</ele><time>2026-04-04T14:08:46Z</time></trkpt><trkpt lat="44.30193297261672" lon="8.198735517213953"><ele>634.0</ele><time>2026-04-04T14:08:47Z</time></trkpt><trkpt lat="44.301780453277445" lon="8.198865668207638"><ele>634.0</ele><time>2026-04-04T14:08:48Z</time></trkpt><trkpt lat="44.301629157972485" lon="8.198985327078748"><ele>637.6666666666667</ele><time>2026-04-04T14:08:49Z</time></trkpt><trkpt lat="44.30147604077758" lon="8.199070182257705"><ele>641.3333333333334</ele><time>2026-04-04T14:08:50Z</time></trkpt><trkpt lat="44.30133164629453" lon="8.199139033961353"><ele>645.0</ele><time>2026-04-04T14:08:51Z</time></trkpt><trkpt lat="44.30120031359234" lon="8.199218961290416"><ele>645.0</ele><time>2026-04-04T14:08:52Z</time></trkpt><trkpt lat="44.301064441330844" lon="8.199244762315224"><ele>645.0</ele><time>2026-04-04T14:08:53Z</time></trkpt><trkpt lat="44.30093886598585" lon="8.19918632238947"><ele>645.0</ele><time>2026-04-04T14:08:54Z</time></trkpt><trkpt lat="44.300801591054665" lon="8.199163951540271"><ele>645.0</ele><time>2026-04-04T14:08:55Z</time></trkpt><trkpt lat="44.30068303438922" lon="8.1991340722714"><ele>642.25</ele><time>2026-04-04T14:08:56Z</time></trkpt><trkpt lat="44.30055082269714" lon="8.199128767880108"><ele>639.5</ele><time>2026-04-04T14:08:56.999Z</time></trkpt><trkpt lat="44.30042168347802" lon="8.19920350468898"><ele>636.75</ele><time>2026-04-04T14:08:57.999Z</time></trkpt><trkpt lat="44.300291282322014" lon="8.199282194082729"><ele>634.0</ele><time>2026-04-04T14:08:58.999Z</time></trkpt><trkpt lat="44.300173107141525" lon="8.199369235800487"><ele>634.0</ele><time>2026-04-04T14:08:59.999Z</time></trkpt><trkpt lat="44.30004717118745" lon="8.199469777372846"><ele>634.0</ele><time>2026-04-04T14:09:00.999Z</time></trkpt><trkpt lat="44.299945566610866" lon="8.199632778652406"><ele>634.0</ele><time>2026-04-04T14:09:01.999Z</time></trkpt><trkpt lat="44.29983835619892" lon="8.199810375326566"><ele>633.6666666666667</ele><time>2026-04-04T14:09:02.999Z</time></trkpt><trkpt lat="44.29971165758493" lon="8.199985255768672"><ele>633.3333333333334</ele><time>2026-04-04T14:09:03.999Z</time></trkpt><trkpt lat="44.299601831507616" lon="8.200164393818854"><ele>633.0</ele><time>2026-04-04T14:09:04.999Z</time></trkpt><trkpt lat="44.29950391262887" lon="8.200325596029536"><ele>633.0</ele><time>2026-04-04T14:09:05.999Z</time></trkpt><trkpt lat="44.299410326557904" lon="8.200479707214013"><ele>633.0</ele><time>2026-04-04T14:09:06.999Z</time></trkpt><trkpt lat="44.29932114324914" lon="8.200625668377281"><ele>633.0</ele><time>2026-04-04T14:09:07.999Z</time></trkpt><trkpt lat="44.299231834156984" lon="8.200751408116009"><ele>633.0</ele><time>2026-04-04T14:09:08.999Z</time></trkpt><trkpt lat="44.29913762868223" lon="8.200838178395815"><ele>634.25</ele><time>2026-04-04T14:09:09.999Z</time></trkpt><trkpt lat="44.29903223169248" lon="8.200904325741103"><ele>635.5</ele><time>2026-04-04T14:09:10.999Z</time></trkpt><trkpt lat="44.29891122509181" lon="8.200971824006277"><ele>636.75</ele><time>2026-04-04T14:09:11.999Z</time></trkpt><trkpt lat="44.298773792279285" lon="8.201049179878003"><ele>638.0</ele><time>2026-04-04T14:09:12.999Z</time></trkpt><trkpt lat="44.298627603788304" lon="8.201151837357889"><ele>638.0</ele><time>2026-04-04T14:09:13.999Z</time></trkpt><trkpt lat="44.29847102894698" lon="8.201241128282879"><ele>638.0</ele><time>2026-04-04T14:09:14.999Z</time></trkpt><trkpt lat="44.29828982924336" lon="8.201331837935482"><ele>638.0</ele><time>2026-04-04T14:09:15.999Z</time></trkpt><trkpt lat="44.298118691134256" lon="8.201422967692656"><ele>640.3333333333333</ele><time>2026-04-04T14:09:16.999Z</time></trkpt><trkpt lat="44.29794311624163" lon="8.201506075509275"><ele>642.6666666666666</ele><time>2026-04-04T14:09:17.999Z</time></trkpt><trkpt lat="44.297767047358874" lon="8.201577016908344"><ele>645.0</ele><time>2026-04-04T14:09:18.999Z</time></trkpt><trkpt lat="44.297582397854605" lon="8.20163083272886"><ele>645.0</ele><time>2026-04-04T14:09:19.999Z</time></trkpt><trkpt lat="44.297395839104624" lon="8.201654299424417"><ele>645.0</ele><time>2026-04-04T14:09:20.999Z</time></trkpt><trkpt lat="44.297213216853436" lon="8.201728809539558"><ele>645.0</ele><time>2026-04-04T14:09:21.999Z</time></trkpt><trkpt lat="44.297032275221014" lon="8.201785717021057"><ele>643.0</ele><time>2026-04-04T14:09:22.999Z</time></trkpt><trkpt lat="44.29687113166697" lon="8.201854334076982"><ele>641.0</ele><time>2026-04-04T14:09:23.999Z</time></trkpt><trkpt lat="44.2966965243438" lon="8.20190272756277"><ele>639.0</ele><time>2026-04-04T14:09:24.999Z</time></trkpt><trkpt lat="44.296528834268635" lon="8.201943894833368"><ele>640.0</ele><time>2026-04-04T14:09:25.999Z</time></trkpt><trkpt lat="44.296348052703" lon="8.20196446042955"><ele>641.0</ele><time>2026-04-04T14:09:26.999Z</time></trkpt><trkpt lat="44.29617492958377" lon="8.201934071182821"><ele>642.0</ele><time>2026-04-04T14:09:27.999Z</time></trkpt><trkpt lat="44.296021191037276" lon="8.201921386989815"><ele>642.0</ele><time>2026-04-04T14:09:28.999Z</time></trkpt><trkpt lat="44.29585296243914" lon="8.2019051134665"><ele>642.0</ele><time>2026-04-04T14:09:29.999Z</time></trkpt><trkpt lat="44.295685152348284" lon="8.201887798392852"><ele>642.0</ele><time>2026-04-04T14:09:30.999Z</time></trkpt><trkpt lat="44.29551655967137" lon="8.201895342682581"><ele>640.6666666666666</ele><time>2026-04-04T14:09:31.999Z</time></trkpt><trkpt lat="44.29536174965573" lon="8.201864718362563"><ele>639.3333333333333</ele><time>2026-04-04T14:09:32.999Z</time></trkpt><trkpt lat="44.29518541612413" lon="8.201801132175564"><ele>638.0</ele><time>2026-04-04T14:09:33.999Z</time></trkpt><trkpt lat="44.295010510695946" lon="8.201834329948468"><ele>638.0</ele><time>2026-04-04T14:09:34.999Z</time></trkpt><trkpt lat="44.29482973749402" lon="8.201821602078935"><ele>638.0</ele><time>2026-04-04T14:09:35.999Z</time></trkpt><trkpt lat="44.294648741042685" lon="8.201828088044742"><ele>638.0</ele><time>2026-04-04T14:09:36.999Z</time></trkpt><trkpt lat="44.29446528031922" lon="8.201838531450377"><ele>638.0</ele><time>2026-04-04T14:09:37.999Z</time></trkpt><trkpt lat="44.29427666863512" lon="8.201853609720906"><ele>638.0</ele><time>2026-04-04T14:09:38.999Z</time></trkpt><trkpt lat="44.294081196749204" lon="8.201868208282555"><ele>638.0</ele><time>2026-04-04T14:09:39.999Z</time></trkpt><trkpt lat="44.29388891312151" lon="8.201879374592304"><ele>638.0</ele><time>2026-04-04T14:09:40.999Z</time></trkpt><trkpt lat="44.293694642494216" lon="8.201888000150264"><ele>638.0</ele><time>2026-04-04T14:09:41.999Z</time></trkpt><trkpt lat="44.29349988482043" lon="8.201897335658229"><ele>638.0</ele><time>2026-04-04T14:09:42.999Z</time></trkpt><trkpt lat="44.29330311882692" lon="8.201909198868366"><ele>638.0</ele><time>2026-04-04T14:09:43.999Z</time></trkpt><trkpt lat="44.29311747841943" lon="8.201922691179751"><ele>638.0</ele><time>2026-04-04T14:09:44.999Z</time></trkpt><trkpt lat="44.29294169787507" lon="8.201932662230313"><ele>638.0</ele><time>2026-04-04T14:09:45.999Z</time></trkpt><trkpt lat="44.29277879882107" lon="8.201921501125467"><ele>639.3333333333333</ele><time>2026-04-04T14:09:46.999Z</time></trkpt><trkpt lat="44.292600054511" lon="8.201915007242656"><ele>640.6666666666666</ele><time>2026-04-04T14:09:47.999Z</time></trkpt><trkpt lat="44.29244220445034" lon="8.201880257981237"><ele>642.0</ele><time>2026-04-04T14:09:48.999Z</time></trkpt><trkpt lat="44.29226673369099" lon="8.201820712535419"><ele>642.6666666666666</ele><time>2026-04-04T14:09:49.999Z</time></trkpt><trkpt lat="44.29209564004713" lon="8.201757694925444"><ele>643.3333333333333</ele><time>2026-04-04T14:09:50.999Z</time></trkpt><trkpt lat="44.29193898521112" lon="8.201705800802786"><ele>644.0</ele><time>2026-04-04T14:09:51.999Z</time></trkpt><trkpt lat="44.29179775257532" lon="8.201697489165557"><ele>644.0</ele><time>2026-04-04T14:09:52.999Z</time></trkpt><trkpt lat="44.29164419323754" lon="8.201695958623416"><ele>644.0</ele><time>2026-04-04T14:09:53.999Z</time></trkpt><trkpt lat="44.2915042637185" lon="8.201667526687785"><ele>644.0</ele><time>2026-04-04T14:09:54.999Z</time></trkpt><trkpt lat="44.291375310247005" lon="8.201661733291974"><ele>644.0</ele><time>2026-04-04T14:09:55.999Z</time></trkpt><trkpt lat="44.29125492097942" lon="8.201655899040361"><ele>643.25</ele><time>2026-04-04T14:09:56.999Z</time></trkpt><trkpt lat="44.29113280386269" lon="8.201673903163062"><ele>642.5</ele><time>2026-04-04T14:09:57.999Z</time></trkpt><trkpt lat="44.29101266313482" lon="8.201677869082268"><ele>641.75</ele><time>2026-04-04T14:09:58.999Z</time></trkpt><trkpt lat="44.29089166671146" lon="8.201695108907327"><ele>641.0</ele><time>2026-04-04T14:09:59.999Z</time></trkpt><trkpt lat="44.290770005811275" lon="8.20174201098733"><ele>641.0</ele><time>2026-04-04T14:10:00.999Z</time></trkpt><trkpt lat="44.290639055296005" lon="8.20180018167383"><ele>641.0</ele><time>2026-04-04T14:10:01.999Z</time></trkpt><trkpt lat="44.29050836585035" lon="8.201860119607554"><ele>641.0</ele><time>2026-04-04T14:10:02.999Z</time></trkpt><trkpt lat="44.290426005170254" lon="8.201946297329295"><ele>641.0</ele><time>2026-04-04T14:10:03.998Z</time></trkpt><trkpt lat="44.29025491789269" lon="8.202019818658233"><ele>639.3333333333333</ele><time>2026-04-04T14:10:04.998Z</time></trkpt><trkpt lat="44.290104029949134" lon="8.202078953934116"><ele>637.6666666666666</ele><time>2026-04-04T14:10:05.998Z</time></trkpt><trkpt lat="44.28995727268056" lon="8.202141328096879"><ele>636.0</ele><time>2026-04-04T14:10:06.998Z</time></trkpt><trkpt lat="44.28979782429509" lon="8.202213266840504"><ele>634.6666666666666</ele><time>2026-04-04T14:10:07.998Z</time></trkpt><trkpt lat="44.28963429966525" lon="8.202261720388158"><ele>633.3333333333333</ele><time>2026-04-04T14:10:08.998Z</time></trkpt><trkpt lat="44.28948537395671" lon="8.20234300660117"><ele>632.0</ele><time>2026-04-04T14:10:09.998Z</time></trkpt><trkpt lat="44.28934042532948" lon="8.202395291207356"><ele>635.3333333333333</ele><time>2026-04-04T14:10:11Z</time></trkpt><trkpt lat="44.28920335679567" lon="8.202472739797129"><ele>638.6666666666666</ele><time>2026-04-04T14:10:12Z</time></trkpt><trkpt lat="44.28907297686834" lon="8.202586774044075"><ele>642.0</ele><time>2026-04-04T14:10:13Z</time></trkpt><trkpt lat="44.288949176626744" lon="8.202739711233823"><ele>639.0</ele><time>2026-04-04T14:10:14Z</time></trkpt><trkpt lat="44.28881484752601" lon="8.20287368400677"><ele>636.0</ele><time>2026-04-04T14:10:15Z</time></trkpt><trkpt lat="44.28867387896631" lon="8.20299949996436"><ele>633.0</ele><time>2026-04-04T14:10:16Z</time></trkpt><trkpt lat="44.288535723232926" lon="8.203124395442126"><ele>638.0</ele><time>2026-04-04T14:10:17Z</time></trkpt><trkpt lat="44.288400984773595" lon="8.203241069285921"><ele>643.0</ele><time>2026-04-04T14:10:18Z</time></trkpt><trkpt lat="44.2882558099656" lon="8.203320703528508"><ele>648.0</ele><time>2026-04-04T14:10:19Z</time></trkpt><trkpt lat="44.28809365242549" lon="8.203370162575355"><ele>647.0</ele><time>2026-04-04T14:10:20Z</time></trkpt><trkpt lat="44.28793673953438" lon="8.203393007015254"><ele>646.0</ele><time>2026-04-04T14:10:21Z</time></trkpt><trkpt lat="44.287769072122465" lon="8.203439071884901"><ele>645.0</ele><time>2026-04-04T14:10:22Z</time></trkpt><trkpt lat="44.287617162990394" lon="8.203469230708585"><ele>645.0</ele><time>2026-04-04T14:10:23Z</time></trkpt><trkpt lat="44.287480408586475" lon="8.203511850021647"><ele>645.0</ele><time>2026-04-04T14:10:24Z</time></trkpt><trkpt lat="44.287351497838046" lon="8.203562929886699"><ele>645.0</ele><time>2026-04-04T14:10:25Z</time></trkpt><trkpt lat="44.28723200946699" lon="8.203647650712965"><ele>645.0</ele><time>2026-04-04T14:10:26Z</time></trkpt><trkpt lat="44.2871232438837" lon="8.203776822161311"><ele>643.75</ele><time>2026-04-04T14:10:27Z</time></trkpt><trkpt lat="44.287019591329006" lon="8.203909641859186"><ele>642.5</ele><time>2026-04-04T14:10:28Z</time></trkpt><trkpt lat="44.286897261345345" lon="8.20398980109968"><ele>641.25</ele><time>2026-04-04T14:10:29Z</time></trkpt><trkpt lat="44.286751975821865" lon="8.204019851127978"><ele>640.0</ele><time>2026-04-04T14:10:30Z</time></trkpt><trkpt lat="44.286604185822796" lon="8.204043750866271"><ele>641.75</ele><time>2026-04-04T14:10:31Z</time></trkpt><trkpt lat="44.286452833102146" lon="8.204064912988244"><ele>643.5</ele><time>2026-04-04T14:10:32Z</time></trkpt><trkpt lat="44.28632511209373" lon="8.20408369318805"><ele>645.25</ele><time>2026-04-04T14:10:33Z</time></trkpt><trkpt lat="44.28619816644681" lon="8.204104525284931"><ele>647.0</ele><time>2026-04-04T14:10:34Z</time></trkpt><trkpt lat="44.28608851459084" lon="8.204122803157412"><ele>647.0</ele><time>2026-04-04T14:10:35Z</time></trkpt><trkpt lat="44.285974547338014" lon="8.204143055893812"><ele>647.0</ele><time>2026-04-04T14:10:36Z</time></trkpt><trkpt lat="44.28586046854793" lon="8.20416423677984"><ele>647.0</ele><time>2026-04-04T14:10:37Z</time></trkpt><trkpt lat="44.28573920808828" lon="8.204189488150128"><ele>647.0</ele><time>2026-04-04T14:10:38Z</time></trkpt><trkpt lat="44.285624588196676" lon="8.20422875304565"><ele>646.4000000000001</ele><time>2026-04-04T14:10:39Z</time></trkpt><trkpt lat="44.285523594671524" lon="8.204222046816259"><ele>645.8000000000001</ele><time>2026-04-04T14:10:40Z</time></trkpt><trkpt lat="44.285419932540385" lon="8.204236951963008"><ele>645.2</ele><time>2026-04-04T14:10:41Z</time></trkpt><trkpt lat="44.28532361880538" lon="8.204193064450273"><ele>644.6</ele><time>2026-04-04T14:10:42Z</time></trkpt><trkpt lat="44.28522988320341" lon="8.20416211749058"><ele>644.0</ele><time>2026-04-04T14:10:43Z</time></trkpt><trkpt lat="44.28517133263303" lon="8.204023678717423"><ele>643.75</ele><time>2026-04-04T14:10:44Z</time></trkpt><trkpt lat="44.28511240791454" lon="8.203884310003854"><ele>643.5</ele><time>2026-04-04T14:10:45Z</time></trkpt><trkpt lat="44.28504966793541" lon="8.203732288896166"><ele>643.25</ele><time>2026-04-04T14:10:46Z</time></trkpt><trkpt lat="44.28500075076008" lon="8.203566341672081"><ele>643.0</ele><time>2026-04-04T14:10:47Z</time></trkpt><trkpt lat="44.284950668821445" lon="8.203415630396076"><ele>643.0</ele><time>2026-04-04T14:10:48Z</time></trkpt><trkpt lat="44.284898703176836" lon="8.203281765607278"><ele>643.0</ele><time>2026-04-04T14:10:49Z</time></trkpt><trkpt lat="44.2848448218981" lon="8.203165986942134"><ele>643.0</ele><time>2026-04-04T14:10:50Z</time></trkpt><trkpt lat="44.284786967406916" lon="8.203056658077001"><ele>643.0</ele><time>2026-04-04T14:10:51Z</time></trkpt><trkpt lat="44.284694878681385" lon="8.202989721929095"><ele>643.0</ele><time>2026-04-04T14:10:52Z</time></trkpt><trkpt lat="44.28458944346878" lon="8.202937223239507"><ele>646.25</ele><time>2026-04-04T14:10:53Z</time></trkpt><trkpt lat="44.284468278536984" lon="8.202920280596002"><ele>649.5</ele><time>2026-04-04T14:10:54Z</time></trkpt><trkpt lat="44.284331913973006" lon="8.202942468876397"><ele>652.75</ele><time>2026-04-04T14:10:55Z</time></trkpt><trkpt lat="44.284193316682355" lon="8.202964370121045"><ele>656.0</ele><time>2026-04-04T14:10:56Z</time></trkpt><trkpt lat="44.28405720840566" lon="8.202968414205605"><ele>655.5</ele><time>2026-04-04T14:10:57Z</time></trkpt><trkpt lat="44.283920055135376" lon="8.202926583415234"><ele>655.0</ele><time>2026-04-04T14:10:58Z</time></trkpt><trkpt lat="44.28378314190771" lon="8.202885543003958"><ele>654.5</ele><time>2026-04-04T14:10:59Z</time></trkpt><trkpt lat="44.28366171289215" lon="8.202835457043026"><ele>654.0</ele><time>2026-04-04T14:11:00Z</time></trkpt><trkpt lat="44.28355785761289" lon="8.202770545958918"><ele>654.0</ele><time>2026-04-04T14:11:01Z</time></trkpt><trkpt lat="44.28344063893722" lon="8.202710432773198"><ele>654.0</ele><time>2026-04-04T14:11:02Z</time></trkpt><trkpt lat="44.283330640829064" lon="8.202615152274403"><ele>654.0</ele><time>2026-04-04T14:11:03Z</time></trkpt><trkpt lat="44.28321580598156" lon="8.20252156316656"><ele>654.0</ele><time>2026-04-04T14:11:03.999Z</time></trkpt><trkpt lat="44.2830955371623" lon="8.202418172633768"><ele>656.3333333333334</ele><time>2026-04-04T14:11:04.999Z</time></trkpt><trkpt lat="44.282965269056085" lon="8.20231767430203"><ele>658.6666666666667</ele><time>2026-04-04T14:11:05.999Z</time></trkpt><trkpt lat="44.28282811478319" lon="8.2022256780733"><ele>661.0</ele><time>2026-04-04T14:11:06.999Z</time></trkpt><trkpt lat="44.28268556184303" lon="8.202139078251626"><ele>661.0</ele><time>2026-04-04T14:11:07.999Z</time></trkpt><trkpt lat="44.282525668436904" lon="8.202065656846994"><ele>661.0</ele><time>2026-04-04T14:11:08.999Z</time></trkpt><trkpt lat="44.2823608268827" lon="8.201994584395393"><ele>661.0</ele><time>2026-04-04T14:11:09.999Z</time></trkpt><trkpt lat="44.28220535595776" lon="8.201921597555845"><ele>660.25</ele><time>2026-04-04T14:11:10.999Z</time></trkpt><trkpt lat="44.282063728776606" lon="8.201851248220889"><ele>659.5</ele><time>2026-04-04T14:11:11.999Z</time></trkpt><trkpt lat="44.28193417465392" lon="8.201785664654185"><ele>658.75</ele><time>2026-04-04T14:11:12.999Z</time></trkpt><trkpt lat="44.28180716139821" lon="8.201720020545178"><ele>658.0</ele><time>2026-04-04T14:11:13.999Z</time></trkpt><trkpt lat="44.281707726027676" lon="8.201658088316682"><ele>658.0</ele><time>2026-04-04T14:11:14.999Z</time></trkpt><trkpt lat="44.28158522699212" lon="8.201564415530278"><ele>658.0</ele><time>2026-04-04T14:11:15.999Z</time></trkpt><trkpt lat="44.28147633519989" lon="8.201459197485509"><ele>658.0</ele><time>2026-04-04T14:11:16.999Z</time></trkpt><trkpt lat="44.28135397794214" lon="8.201307178916313"><ele>658.0</ele><time>2026-04-04T14:11:17.999Z</time></trkpt><trkpt lat="44.28123729999417" lon="8.201199223665242"><ele>658.3333333333334</ele><time>2026-04-04T14:11:18.999Z</time></trkpt><trkpt lat="44.28110930718509" lon="8.201070990455516"><ele>658.6666666666666</ele><time>2026-04-04T14:11:19.999Z</time></trkpt><trkpt lat="44.280985748312204" lon="8.200945965913412"><ele>659.0</ele><time>2026-04-04T14:11:20.999Z</time></trkpt><trkpt lat="44.28085839545143" lon="8.2008235431075"><ele>659.0</ele><time>2026-04-04T14:11:21.999Z</time></trkpt><trkpt lat="44.280742670790126" lon="8.200702211565044"><ele>659.0</ele><time>2026-04-04T14:11:22.999Z</time></trkpt><trkpt lat="44.280633150450335" lon="8.200601450032144"><ele>659.0</ele><time>2026-04-04T14:11:23.999Z</time></trkpt><trkpt lat="44.28055200199904" lon="8.200490485231775"><ele>659.0</ele><time>2026-04-04T14:11:24.999Z</time></trkpt><trkpt lat="44.28046074712741" lon="8.20038869245974"><ele>658.8000000000001</ele><time>2026-04-04T14:11:25.999Z</time></trkpt><trkpt lat="44.28036959507199" lon="8.200291368395622"><ele>658.6</ele><time>2026-04-04T14:11:26.999Z</time></trkpt><trkpt lat="44.28030900407624" lon="8.200168696133682"><ele>658.4</ele><time>2026-04-04T14:11:27.999Z</time></trkpt><trkpt lat="44.28030562981928" lon="8.200018505148972"><ele>658.2</ele><time>2026-04-04T14:11:28.999Z</time></trkpt><trkpt lat="44.28030644213698" lon="8.199853435132587"><ele>658.0</ele><time>2026-04-04T14:11:29.999Z</time></trkpt><trkpt lat="44.28030939124127" lon="8.199655057478097"><ele>659.0</ele><time>2026-04-04T14:11:30.999Z</time></trkpt><trkpt lat="44.28033668362088" lon="8.199441590927725"><ele>660.0</ele><time>2026-04-04T14:11:31.999Z</time></trkpt><trkpt lat="44.28038215981796" lon="8.199211449111713"><ele>661.0</ele><time>2026-04-04T14:11:32.999Z</time></trkpt><trkpt lat="44.28041029737997" lon="8.198996426590442"><ele>661.0</ele><time>2026-04-04T14:11:33.999Z</time></trkpt><trkpt lat="44.280435725115595" lon="8.198799719022796"><ele>661.0</ele><time>2026-04-04T14:11:34.999Z</time></trkpt><trkpt lat="44.28045649706239" lon="8.198604055987582"><ele>661.0</ele><time>2026-04-04T14:11:35.999Z</time></trkpt><trkpt lat="44.28045836164199" lon="8.198423825309966"><ele>661.0</ele><time>2026-04-04T14:11:36.999Z</time></trkpt><trkpt lat="44.28043778314178" lon="8.198259343460954"><ele>663.0</ele><time>2026-04-04T14:11:37.999Z</time></trkpt><trkpt lat="44.28039085296566" lon="8.198101315330899"><ele>665.0</ele><time>2026-04-04T14:11:38.999Z</time></trkpt><trkpt lat="44.28032293326782" lon="8.197953478856794"><ele>667.0</ele><time>2026-04-04T14:11:39.999Z</time></trkpt><trkpt lat="44.28022858246499" lon="8.197823580867963"><ele>669.0</ele><time>2026-04-04T14:11:40.999Z</time></trkpt><trkpt lat="44.28011385622933" lon="8.197714709981488"><ele>669.0</ele><time>2026-04-04T14:11:41.999Z</time></trkpt><trkpt lat="44.27997902399798" lon="8.197628326198748"><ele>669.0</ele><time>2026-04-04T14:11:42.999Z</time></trkpt><trkpt lat="44.279827310922975" lon="8.197560963258864"><ele>669.0</ele><time>2026-04-04T14:11:43.999Z</time></trkpt><trkpt lat="44.27965815745684" lon="8.197507871385818"><ele>668.0</ele><time>2026-04-04T14:11:44.999Z</time></trkpt><trkpt lat="44.2794842289596" lon="8.197474658012101"><ele>667.0</ele><time>2026-04-04T14:11:45.999Z</time></trkpt><trkpt lat="44.27929948298991" lon="8.19745949194668"><ele>666.0</ele><time>2026-04-04T14:11:46.999Z</time></trkpt><trkpt lat="44.279112713398526" lon="8.197461648525247"><ele>666.0</ele><time>2026-04-04T14:11:47.999Z</time></trkpt><trkpt lat="44.27893664593288" lon="8.197473529555692"><ele>666.0</ele><time>2026-04-04T14:11:48.999Z</time></trkpt><trkpt lat="44.278777350335815" lon="8.197490740908247"><ele>666.0</ele><time>2026-04-04T14:11:49.999Z</time></trkpt><trkpt lat="44.27863304864218" lon="8.197504608697024"><ele>667.0</ele><time>2026-04-04T14:11:50.999Z</time></trkpt><trkpt lat="44.27848195620366" lon="8.197474180525775"><ele>668.0</ele><time>2026-04-04T14:11:51.999Z</time></trkpt><trkpt lat="44.2783594279567" lon="8.197439133854301"><ele>669.0</ele><time>2026-04-04T14:11:52.999Z</time></trkpt><trkpt lat="44.27822816948034" lon="8.197374917221461"><ele>670.0</ele><time>2026-04-04T14:11:53.999Z</time></trkpt><trkpt lat="44.27808372921485" lon="8.197300588209263"><ele>677.6666666666667</ele><time>2026-04-04T14:11:54.999Z</time></trkpt><trkpt lat="44.27792352903187" lon="8.197254690657866"><ele>685.3333333333334</ele><time>2026-04-04T14:11:55.999Z</time></trkpt><trkpt lat="44.27777806075616" lon="8.197177818332342"><ele>693.0</ele><time>2026-04-04T14:11:56.999Z</time></trkpt><trkpt lat="44.2776329189162" lon="8.197100903140717"><ele>693.0</ele><time>2026-04-04T14:11:57.999Z</time></trkpt><trkpt lat="44.277486021161685" lon="8.197041586688409"><ele>693.0</ele><time>2026-04-04T14:11:58.999Z</time></trkpt><trkpt lat="44.27734405656836" lon="8.1969520500319"><ele>693.0</ele><time>2026-04-04T14:11:59.999Z</time></trkpt><trkpt lat="44.27719629577798" lon="8.196899485144673"><ele>690.75</ele><time>2026-04-04T14:12:00.999Z</time></trkpt><trkpt lat="44.27705079796035" lon="8.196842860194163"><ele>688.5</ele><time>2026-04-04T14:12:01.999Z</time></trkpt><trkpt lat="44.276912185233336" lon="8.196786533273237"><ele>686.25</ele><time>2026-04-04T14:12:02.999Z</time></trkpt><trkpt lat="44.27678810624836" lon="8.196742823157138"><ele>684.0</ele><time>2026-04-04T14:12:03.999Z</time></trkpt><trkpt lat="44.27668692279203" lon="8.196726550462618"><ele>684.0</ele><time>2026-04-04T14:12:04.999Z</time></trkpt><trkpt lat="44.276597202547585" lon="8.19674274878499"><ele>684.0</ele><time>2026-04-04T14:12:05.999Z</time></trkpt><trkpt lat="44.276522114589845" lon="8.19677283361657"><ele>684.0</ele><time>2026-04-04T14:12:06.999Z</time></trkpt><trkpt lat="44.27645494909072" lon="8.196817793375658"><ele>684.0</ele><time>2026-04-04T14:12:07.999Z</time></trkpt><trkpt lat="44.27640086641835" lon="8.196869612457913"><ele>684.0</ele><time>2026-04-04T14:12:08.999Z</time></trkpt><trkpt lat="44.27636024912467" lon="8.196940923493953"><ele>684.0</ele><time>2026-04-04T14:12:09.998Z</time></trkpt><trkpt lat="44.27632334285648" lon="8.197056432234572"><ele>685.2</ele><time>2026-04-04T14:12:11.998Z</time></trkpt><trkpt lat="44.27635070267652" lon="8.19719464618605"><ele>686.4000000000001</ele><time>2026-04-04T14:12:13.998Z</time></trkpt><trkpt lat="44.27641177294593" lon="8.197321919582482"><ele>687.6</ele><time>2026-04-04T14:12:15.998Z</time></trkpt><trkpt lat="44.27647150266979" lon="8.197444799443737"><ele>688.8</ele><time>2026-04-04T14:12:18Z</time></trkpt><trkpt lat="44.276526810953335" lon="8.1975234364226"><ele>690.0</ele><time>2026-04-04T14:12:21Z</time></trkpt><trkpt lat="44.276599337060965" lon="8.1976036551217"><ele>687.0</ele><time>2026-04-04T14:12:23Z</time></trkpt><trkpt lat="44.276708631433664" lon="8.19771104340629"><ele>684.0</ele><time>2026-04-04T14:12:25Z</time></trkpt><trkpt lat="44.27678827374423" lon="8.197721437291053"><ele>681.0</ele><time>2026-04-04T14:12:26Z</time></trkpt><trkpt lat="44.27687003063142" lon="8.197672804971178"><ele>678.0</ele><time>2026-04-04T14:12:27Z</time></trkpt><trkpt lat="44.2769388589592" lon="8.197623834300979"><ele>675.0</ele><time>2026-04-04T14:12:28Z</time></trkpt><trkpt lat="44.27705636207237" lon="8.197718365811381"><ele>675.0</ele><time>2026-04-04T14:12:30Z</time></trkpt><trkpt lat="44.27709461097966" lon="8.19784122257645"><ele>675.0</ele><time>2026-04-04T14:12:31Z</time></trkpt><trkpt lat="44.27714138365542" lon="8.19798017410016"><ele>675.0</ele><time>2026-04-04T14:12:32Z</time></trkpt><trkpt lat="44.27718896277809" lon="8.198128548556781"><ele>675.0</ele><time>2026-04-04T14:12:33Z</time></trkpt><trkpt lat="44.277224836175364" lon="8.198259321409026"><ele>675.0</ele><time>2026-04-04T14:12:34Z</time></trkpt><trkpt lat="44.27730417087005" lon="8.198379096602368"><ele>677.75</ele><time>2026-04-04T14:12:35Z</time></trkpt><trkpt lat="44.277400137076356" lon="8.198484732145307"><ele>680.5</ele><time>2026-04-04T14:12:36Z</time></trkpt><trkpt lat="44.27751470654948" lon="8.198526568674655"><ele>683.25</ele><time>2026-04-04T14:12:37Z</time></trkpt><trkpt lat="44.27764568091015" lon="8.198515179084414"><ele>686.0</ele><time>2026-04-04T14:12:38Z</time></trkpt><trkpt lat="44.27776268656587" lon="8.198489694807149"><ele>686.0</ele><time>2026-04-04T14:12:39Z</time></trkpt><trkpt lat="44.27790834258653" lon="8.198472558635403"><ele>686.0</ele><time>2026-04-04T14:12:40Z</time></trkpt><trkpt lat="44.27803694369202" lon="8.198459856320367"><ele>686.0</ele><time>2026-04-04T14:12:41Z</time></trkpt><trkpt lat="44.278137320089606" lon="8.19845661257799"><ele>686.0</ele><time>2026-04-04T14:12:42Z</time></trkpt><trkpt lat="44.27824574015819" lon="8.198447600569153"><ele>685.0</ele><time>2026-04-04T14:12:43Z</time></trkpt><trkpt lat="44.27835346957792" lon="8.198479453219239"><ele>684.0</ele><time>2026-04-04T14:12:44Z</time></trkpt><trkpt lat="44.27845278511246" lon="8.198530897703474"><ele>683.0</ele><time>2026-04-04T14:12:45Z</time></trkpt><trkpt lat="44.278531279428734" lon="8.198581971076544"><ele>682.0</ele><time>2026-04-04T14:12:46Z</time></trkpt><trkpt lat="44.27858478646182" lon="8.198666719441084"><ele>681.0</ele><time>2026-04-04T14:12:47Z</time></trkpt><trkpt lat="44.27861946682902" lon="8.19879039257943"><ele>681.0</ele><time>2026-04-04T14:12:48Z</time></trkpt><trkpt lat="44.27861642464648" lon="8.198938925120064"><ele>681.0</ele><time>2026-04-04T14:12:49Z</time></trkpt><trkpt lat="44.27863792706982" lon="8.199079217144124"><ele>681.0</ele><time>2026-04-04T14:12:50Z</time></trkpt><trkpt lat="44.27864398019399" lon="8.19924415281883"><ele>681.0</ele><time>2026-04-04T14:12:51Z</time></trkpt><trkpt lat="44.278640385984495" lon="8.199426664604637"><ele>687.75</ele><time>2026-04-04T14:12:52Z</time></trkpt><trkpt lat="44.27862369053437" lon="8.199614220800013"><ele>694.5</ele><time>2026-04-04T14:12:53Z</time></trkpt><trkpt lat="44.27859525138082" lon="8.19977290252724"><ele>701.25</ele><time>2026-04-04T14:12:54Z</time></trkpt><trkpt lat="44.27856113773028" lon="8.199938539781169"><ele>708.0</ele><time>2026-04-04T14:12:55Z</time></trkpt><trkpt lat="44.27850546451991" lon="8.200104897776576"><ele>710.75</ele><time>2026-04-04T14:12:56Z</time></trkpt><trkpt lat="44.27844533227031" lon="8.200271732139651"><ele>713.5</ele><time>2026-04-04T14:12:57Z</time></trkpt><trkpt lat="44.27838717090824" lon="8.200417693612923"><ele>716.25</ele><time>2026-04-04T14:12:58Z</time></trkpt><trkpt lat="44.27830033996877" lon="8.20051025736117"><ele>719.0</ele><time>2026-04-04T14:12:59Z</time></trkpt><trkpt lat="44.27816593175367" lon="8.200621707837993"><ele>724.0</ele><time>2026-04-04T14:13:00Z</time></trkpt><trkpt lat="44.27806901448897" lon="8.200760300195885"><ele>729.0</ele><time>2026-04-04T14:13:01Z</time></trkpt><trkpt lat="44.278008950828834" lon="8.200861506910918"><ele>734.0</ele><time>2026-04-04T14:13:02Z</time></trkpt><trkpt lat="44.277934807783005" lon="8.201044065262415"><ele>739.0</ele><time>2026-04-04T14:13:03Z</time></trkpt><trkpt lat="44.277889300222434" lon="8.201261215153288"><ele>737.0</ele><time>2026-04-04T14:13:04Z</time></trkpt><trkpt lat="44.27785037312812" lon="8.201500189944921"><ele>735.0</ele><time>2026-04-04T14:13:05Z</time></trkpt><trkpt lat="44.277815392773896" lon="8.201732937873262"><ele>733.0</ele><time>2026-04-04T14:13:06Z</time></trkpt><trkpt lat="44.27778642492827" lon="8.201939694918021"><ele>733.0</ele><time>2026-04-04T14:13:07Z</time></trkpt><trkpt lat="44.27775877125905" lon="8.202123274527809"><ele>733.0</ele><time>2026-04-04T14:13:07.999Z</time></trkpt><trkpt lat="44.27773040983772" lon="8.202263841377105"><ele>733.0</ele><time>2026-04-04T14:13:08.999Z</time></trkpt><trkpt lat="44.277692992211364" lon="8.202398413138724"><ele>733.0</ele><time>2026-04-04T14:13:09.999Z</time></trkpt><trkpt lat="44.277622644443305" lon="8.202507141128397"><ele>733.0</ele><time>2026-04-04T14:13:10.999Z</time></trkpt><trkpt lat="44.27752623252213" lon="8.202576903129662"><ele>731.0</ele><time>2026-04-04T14:13:11.999Z</time></trkpt><trkpt lat="44.27742757351989" lon="8.202676212575684"><ele>729.0</ele><time>2026-04-04T14:13:12.999Z</time></trkpt><trkpt lat="44.27730593572061" lon="8.202754802970333"><ele>727.0</ele><time>2026-04-04T14:13:13.999Z</time></trkpt><trkpt lat="44.27717783424123" lon="8.202812681820044"><ele>725.0</ele><time>2026-04-04T14:13:14.999Z</time></trkpt><trkpt lat="44.27704321151591" lon="8.202843941115812"><ele>725.4</ele><time>2026-04-04T14:13:15.999Z</time></trkpt><trkpt lat="44.276931005993575" lon="8.202870917582478"><ele>725.8</ele><time>2026-04-04T14:13:16.999Z</time></trkpt><trkpt lat="44.27682403243797" lon="8.202897530552859"><ele>726.2</ele><time>2026-04-04T14:13:17.999Z</time></trkpt><trkpt lat="44.27671850904851" lon="8.202950080869114"><ele>726.6</ele><time>2026-04-04T14:13:18.999Z</time></trkpt><trkpt lat="44.276634456322434" lon="8.203052127015553"><ele>727.0</ele><time>2026-04-04T14:13:19.999Z</time></trkpt><trkpt lat="44.27656702408828" lon="8.203173965934583"><ele>727.0</ele><time>2026-04-04T14:13:20.999Z</time></trkpt><trkpt lat="44.27648332406969" lon="8.20330371464467"><ele>727.0</ele><time>2026-04-04T14:13:21.999Z</time></trkpt><trkpt lat="44.27637117558307" lon="8.203388720732761"><ele>727.0</ele><time>2026-04-04T14:13:22.999Z</time></trkpt><trkpt lat="44.27625341229485" lon="8.203492149990826"><ele>727.0</ele><time>2026-04-04T14:13:23.999Z</time></trkpt><trkpt lat="44.276150060759434" lon="8.203610070523373"><ele>730.4000000000001</ele><time>2026-04-04T14:13:24.999Z</time></trkpt><trkpt lat="44.27604448243944" lon="8.203688243383908"><ele>733.8000000000001</ele><time>2026-04-04T14:13:25.999Z</time></trkpt><trkpt lat="44.27596742755646" lon="8.20375100143847"><ele>737.2</ele><time>2026-04-04T14:13:26.999Z</time></trkpt><trkpt lat="44.275895129460174" lon="8.20379457459656"><ele>740.6</ele><time>2026-04-04T14:13:27.999Z</time></trkpt><trkpt lat="44.27580535816696" lon="8.203704393747675"><ele>744.0</ele><time>2026-04-04T14:13:29.999Z</time></trkpt><trkpt lat="44.275857453554934" lon="8.20352806351553"><ele>744.0</ele><time>2026-04-04T14:13:31.999Z</time></trkpt><trkpt lat="44.27595601219069" lon="8.203476155828092"><ele>744.0</ele><time>2026-04-04T14:13:32.999Z</time></trkpt><trkpt lat="44.276037787304084" lon="8.203350797601836"><ele>744.0</ele><time>2026-04-04T14:13:33.999Z</time></trkpt><trkpt lat="44.27615274843889" lon="8.203207107528064"><ele>744.0</ele><time>2026-04-04T14:13:34.999Z</time></trkpt><trkpt lat="44.2762783895556" lon="8.203050489453389"><ele>743.3333333333334</ele><time>2026-04-04T14:13:35.999Z</time></trkpt><trkpt lat="44.27637925015145" lon="8.202874542764201"><ele>742.6666666666667</ele><time>2026-04-04T14:13:36.999Z</time></trkpt><trkpt lat="44.27648814825925" lon="8.202707586788659"><ele>742.0</ele><time>2026-04-04T14:13:37.999Z</time></trkpt><trkpt lat="44.27660176087879" lon="8.20253157208316"><ele>742.0</ele><time>2026-04-04T14:13:38.999Z</time></trkpt><trkpt lat="44.27671194427719" lon="8.202365022145793"><ele>742.0</ele><time>2026-04-04T14:13:39.999Z</time></trkpt><trkpt lat="44.276814284832376" lon="8.20221536983665"><ele>742.0</ele><time>2026-04-04T14:13:40.999Z</time></trkpt><trkpt lat="44.276905970923714" lon="8.202080833873545"><ele>742.0</ele><time>2026-04-04T14:13:41.999Z</time></trkpt><trkpt lat="44.27698333291858" lon="8.201965948163913"><ele>744.3333333333334</ele><time>2026-04-04T14:13:42.999Z</time></trkpt><trkpt lat="44.27704157431661" lon="8.201861032041213"><ele>746.6666666666667</ele><time>2026-04-04T14:13:43.999Z</time></trkpt><trkpt lat="44.27706988930705" lon="8.201754032466246"><ele>749.0</ele><time>2026-04-04T14:13:44.999Z</time></trkpt><trkpt lat="44.2770546095057" lon="8.201656755883976"><ele>751.3333333333334</ele><time>2026-04-04T14:13:45.999Z</time></trkpt><trkpt lat="44.27700485944912" lon="8.201594478424612"><ele>753.6666666666666</ele><time>2026-04-04T14:13:46.999Z</time></trkpt><trkpt lat="44.27693041239012" lon="8.2015873653497"><ele>756.0</ele><time>2026-04-04T14:13:47.999Z</time></trkpt><trkpt lat="44.27684901378989" lon="8.201648972639683"><ele>756.0</ele><time>2026-04-04T14:13:48.999Z</time></trkpt><trkpt lat="44.27674866333777" lon="8.201733324801609"><ele>756.0</ele><time>2026-04-04T14:13:49.999Z</time></trkpt><trkpt lat="44.276652102548894" lon="8.201836416002958"><ele>756.0</ele><time>2026-04-04T14:13:50.999Z</time></trkpt><trkpt lat="44.27653137235601" lon="8.201901854704452"><ele>756.0</ele><time>2026-04-04T14:13:51.999Z</time></trkpt><trkpt lat="44.27638995579093" lon="8.201935224623021"><ele>763.3333333333333</ele><time>2026-04-04T14:13:52.999Z</time></trkpt><trkpt lat="44.27623604255147" lon="8.201983252816532"><ele>770.6666666666666</ele><time>2026-04-04T14:13:53.999Z</time></trkpt><trkpt lat="44.27608418949855" lon="8.202066884527062"><ele>778.0</ele><time>2026-04-04T14:13:54.999Z</time></trkpt><trkpt lat="44.27593373386257" lon="8.20216969505613"><ele>778.0</ele><time>2026-04-04T14:13:55.999Z</time></trkpt><trkpt lat="44.27580594603773" lon="8.202266232878216"><ele>778.0</ele><time>2026-04-04T14:13:56.999Z</time></trkpt><trkpt lat="44.27567856736788" lon="8.20236321067402"><ele>778.0</ele><time>2026-04-04T14:13:57.999Z</time></trkpt><trkpt lat="44.27557429632755" lon="8.202452660132383"><ele>778.0</ele><time>2026-04-04T14:13:58.999Z</time></trkpt><trkpt lat="44.27548802527705" lon="8.202558408370365"><ele>775.8</ele><time>2026-04-04T14:13:59.999Z</time></trkpt><trkpt lat="44.275401017190795" lon="8.202618368415795"><ele>773.5999999999999</ele><time>2026-04-04T14:14:00.999Z</time></trkpt><trkpt lat="44.27531624744695" lon="8.202693249254885"><ele>771.4000000000001</ele><time>2026-04-04T14:14:01.999Z</time></trkpt><trkpt lat="44.27520674722384" lon="8.202700819847022"><ele>769.2</ele><time>2026-04-04T14:14:02.999Z</time></trkpt><trkpt lat="44.275089490736335" lon="8.202668069229333"><ele>767.0</ele><time>2026-04-04T14:14:03.999Z</time></trkpt><trkpt lat="44.274984679445026" lon="8.202585891794977"><ele>767.0</ele><time>2026-04-04T14:14:04.999Z</time></trkpt><trkpt lat="44.274897558236965" lon="8.2025000919046"><ele>767.0</ele><time>2026-04-04T14:14:05.999Z</time></trkpt><trkpt lat="44.2748045710136" lon="8.20248095622753"><ele>767.0</ele><time>2026-04-04T14:14:06.999Z</time></trkpt><trkpt lat="44.27469257856762" lon="8.202506666234166"><ele>767.0</ele><time>2026-04-04T14:14:07.999Z</time></trkpt><trkpt lat="44.27456995889441" lon="8.20256478725068"><ele>767.0</ele><time>2026-04-04T14:14:08.999Z</time></trkpt><trkpt lat="44.27444593598402" lon="8.202613877739928"><ele>770.0</ele><time>2026-04-04T14:14:09.999Z</time></trkpt><trkpt lat="44.27432520140661" lon="8.202692207869767"><ele>773.0</ele><time>2026-04-04T14:14:10.999Z</time></trkpt><trkpt lat="44.2742169585119" lon="8.202795986794756"><ele>776.0</ele><time>2026-04-04T14:14:11.999Z</time></trkpt><trkpt lat="44.27413703231377" lon="8.202901032013596"><ele>779.0</ele><time>2026-04-04T14:14:12.998Z</time></trkpt><trkpt lat="44.27404297765593" lon="8.203000406128314"><ele>779.0</ele><time>2026-04-04T14:14:13.998Z</time></trkpt><trkpt lat="44.2739526220593" lon="8.203091642621125"><ele>779.0</ele><time>2026-04-04T14:14:14.998Z</time></trkpt><trkpt lat="44.27386684744474" lon="8.203200569398307"><ele>779.0</ele><time>2026-04-04T14:14:15.998Z</time></trkpt><trkpt lat="44.273782153263205" lon="8.203303819568172"><ele>779.0</ele><time>2026-04-04T14:14:16.998Z</time></trkpt><trkpt lat="44.27368353070991" lon="8.203402776634057"><ele>781.75</ele><time>2026-04-04T14:14:17.998Z</time></trkpt><trkpt lat="44.27356993093005" lon="8.203472276967311"><ele>784.5</ele><time>2026-04-04T14:14:18.998Z</time></trkpt><trkpt lat="44.273454036674494" lon="8.203524208177926"><ele>787.25</ele><time>2026-04-04T14:14:19.998Z</time></trkpt><trkpt lat="44.27333381113578" lon="8.203587701374024"><ele>790.0</ele><time>2026-04-04T14:14:20.998Z</time></trkpt><trkpt lat="44.273247449295845" lon="8.203657952668015"><ele>790.0</ele><time>2026-04-04T14:14:21.998Z</time></trkpt><trkpt lat="44.273186434660964" lon="8.203757995932163"><ele>790.0</ele><time>2026-04-04T14:14:23Z</time></trkpt><trkpt lat="44.273113940822306" lon="8.203835585846251"><ele>790.0</ele><time>2026-04-04T14:14:24Z</time></trkpt><trkpt lat="44.27303000920041" lon="8.203865649275494"><ele>790.0</ele><time>2026-04-04T14:14:25Z</time></trkpt><trkpt lat="44.27292593542494" lon="8.203927629212298"><ele>790.0</ele><time>2026-04-04T14:14:26Z</time></trkpt><trkpt lat="44.27281752602819" lon="8.203971217182627"><ele>790.0</ele><time>2026-04-04T14:14:27Z</time></trkpt><trkpt lat="44.27272881233875" lon="8.204031635394928"><ele>790.0</ele><time>2026-04-04T14:14:28Z</time></trkpt><trkpt lat="44.27265643113459" lon="8.204064086723216"><ele>790.0</ele><time>2026-04-04T14:14:29Z</time></trkpt><trkpt lat="44.27257296818625" lon="8.203997774005943"><ele>790.0</ele><time>2026-04-04T14:14:31Z</time></trkpt><trkpt lat="44.27261546278298" lon="8.203843618816942"><ele>790.0</ele><time>2026-04-04T14:14:33Z</time></trkpt><trkpt lat="44.27269209678174" lon="8.203797138373172"><ele>793.0</ele><time>2026-04-04T14:14:34Z</time></trkpt><trkpt lat="44.27280178040357" lon="8.203774156347812"><ele>796.0</ele><time>2026-04-04T14:14:35Z</time></trkpt><trkpt lat="44.272890713326305" lon="8.20370151776286"><ele>799.0</ele><time>2026-04-04T14:14:36Z</time></trkpt><trkpt lat="44.272979891506324" lon="8.203666965868738"><ele>802.0</ele><time>2026-04-04T14:14:37Z</time></trkpt><trkpt lat="44.27303866855759" lon="8.203608439303249"><ele>805.0</ele><time>2026-04-04T14:14:38Z</time></trkpt><trkpt lat="44.27308226666176" lon="8.20351491753908"><ele>805.0</ele><time>2026-04-04T14:14:39Z</time></trkpt><trkpt lat="44.273073863851735" lon="8.20342092892385"><ele>805.0</ele><time>2026-04-04T14:14:40Z</time></trkpt><trkpt lat="44.27295059915467" lon="8.203309860263026"><ele>805.0</ele><time>2026-04-04T14:14:42Z</time></trkpt><trkpt lat="44.272864334469354" lon="8.203354261755436"><ele>805.0</ele><time>2026-04-04T14:14:43Z</time></trkpt><trkpt lat="44.27277602968361" lon="8.203428924973654"><ele>805.0</ele><time>2026-04-04T14:14:44Z</time></trkpt><trkpt lat="44.27267806244548" lon="8.203493675290655"><ele>805.0</ele><time>2026-04-04T14:14:45Z</time></trkpt><trkpt lat="44.272561916130265" lon="8.203551020755915"><ele>805.0</ele><time>2026-04-04T14:14:46Z</time></trkpt><trkpt lat="44.272428991992015" lon="8.203613028842788"><ele>805.0</ele><time>2026-04-04T14:14:47Z</time></trkpt><trkpt lat="44.272290251935" lon="8.203678164168664"><ele>805.0</ele><time>2026-04-04T14:14:48Z</time></trkpt><trkpt lat="44.27218018637268" lon="8.203748153148078"><ele>805.5</ele><time>2026-04-04T14:14:49Z</time></trkpt><trkpt lat="44.27206651560141" lon="8.203830797325864"><ele>806.0</ele><time>2026-04-04T14:14:50Z</time></trkpt><trkpt lat="44.27198864039184" lon="8.203962357292905"><ele>806.5</ele><time>2026-04-04T14:14:51Z</time></trkpt><trkpt lat="44.271945700345206" lon="8.204137371909809"><ele>807.0</ele><time>2026-04-04T14:14:52Z</time></trkpt><trkpt lat="44.271911372828605" lon="8.204249656967715"><ele>807.0</ele><time>2026-04-04T14:14:53Z</time></trkpt><trkpt lat="44.271852600126415" lon="8.204359664163823"><ele>807.0</ele><time>2026-04-04T14:14:54Z</time></trkpt><trkpt lat="44.27174315716561" lon="8.204380847330157"><ele>807.0</ele><time>2026-04-04T14:14:55Z</time></trkpt><trkpt lat="44.27162548105201" lon="8.204414919539706"><ele>807.0</ele><time>2026-04-04T14:14:56Z</time></trkpt><trkpt lat="44.27149373580764" lon="8.204448183706655"><ele>812.25</ele><time>2026-04-04T14:14:57Z</time></trkpt><trkpt lat="44.27136776166277" lon="8.204489315398797"><ele>817.5</ele><time>2026-04-04T14:14:58Z</time></trkpt><trkpt lat="44.271220855077175" lon="8.204530988206479"><ele>822.75</ele><time>2026-04-04T14:14:59Z</time></trkpt><trkpt lat="44.27109361909011" lon="8.204585640459134"><ele>828.0</ele><time>2026-04-04T14:15:00Z</time></trkpt><trkpt lat="44.27095848785623" lon="8.204653066247493"><ele>828.0</ele><time>2026-04-04T14:15:01Z</time></trkpt><trkpt lat="44.27084075573492" lon="8.204752129890633"><ele>828.0</ele><time>2026-04-04T14:15:02Z</time></trkpt><trkpt lat="44.27073720139121" lon="8.204880275067245"><ele>828.0</ele><time>2026-04-04T14:15:03Z</time></trkpt><trkpt lat="44.27065644998084" lon="8.20503048102505"><ele>828.0</ele><time>2026-04-04T14:15:04Z</time></trkpt><trkpt lat="44.270595442154146" lon="8.205208515819853"><ele>832.0</ele><time>2026-04-04T14:15:05Z</time></trkpt><trkpt lat="44.270558075942596" lon="8.205421938661509"><ele>836.0</ele><time>2026-04-04T14:15:06Z</time></trkpt><trkpt lat="44.27051067926329" lon="8.205647899245124"><ele>840.0</ele><time>2026-04-04T14:15:07Z</time></trkpt><trkpt lat="44.27046182143512" lon="8.205897601218966"><ele>840.0</ele><time>2026-04-04T14:15:07.999Z</time></trkpt><trkpt lat="44.27040709547705" lon="8.206152734650196"><ele>840.0</ele><time>2026-04-04T14:15:08.999Z</time></trkpt><trkpt lat="44.2703554084803" lon="8.20639054384895"><ele>840.0</ele><time>2026-04-04T14:15:09.999Z</time></trkpt><trkpt lat="44.27030287733745" lon="8.206627180503997"><ele>838.3333333333333</ele><time>2026-04-04T14:15:10.999Z</time></trkpt><trkpt lat="44.27026534437651" lon="8.206860246409583"><ele>836.6666666666666</ele><time>2026-04-04T14:15:11.999Z</time></trkpt><trkpt lat="44.270210481529574" lon="8.207052425580937"><ele>835.0</ele><time>2026-04-04T14:15:12.999Z</time></trkpt><trkpt lat="44.27018946340266" lon="8.207257596073045"><ele>833.0</ele><time>2026-04-04T14:15:13.999Z</time></trkpt><trkpt lat="44.27016067439665" lon="8.207450359658182"><ele>831.0</ele><time>2026-04-04T14:15:14.999Z</time></trkpt><trkpt lat="44.27012310286" lon="8.20763674027515"><ele>829.0</ele><time>2026-04-04T14:15:15.999Z</time></trkpt><trkpt lat="44.27009934926488" lon="8.207811718167592"><ele>827.0</ele><time>2026-04-04T14:15:16.999Z</time></trkpt><trkpt lat="44.270076637508105" lon="8.207947618749893"><ele>827.0</ele><time>2026-04-04T14:15:17.999Z</time></trkpt><trkpt lat="44.27003561365824" lon="8.208121516098906"><ele>827.0</ele><time>2026-04-04T14:15:18.999Z</time></trkpt><trkpt lat="44.26999391905779" lon="8.208253412393036"><ele>827.0</ele><time>2026-04-04T14:15:19.999Z</time></trkpt><trkpt lat="44.26992345150326" lon="8.208358081622968"><ele>827.0</ele><time>2026-04-04T14:15:20.999Z</time></trkpt><trkpt lat="44.26985059960338" lon="8.208469973838934"><ele>827.0</ele><time>2026-04-04T14:15:21.999Z</time></trkpt><trkpt lat="44.26978707701107" lon="8.208594871882532"><ele>825.0</ele><time>2026-04-04T14:15:22.999Z</time></trkpt><trkpt lat="44.26976338380691" lon="8.208753763800432"><ele>823.0</ele><time>2026-04-04T14:15:23.999Z</time></trkpt><trkpt lat="44.26979720553831" lon="8.208921596818772"><ele>821.0</ele><time>2026-04-04T14:15:24.999Z</time></trkpt><trkpt lat="44.26986069888685" lon="8.209084451545463"><ele>819.0</ele><time>2026-04-04T14:15:25.999Z</time></trkpt><trkpt lat="44.26991099796583" lon="8.209256785202678"><ele>818.5</ele><time>2026-04-04T14:15:26.999Z</time></trkpt><trkpt lat="44.26995327468031" lon="8.20943138372042"><ele>818.0</ele><time>2026-04-04T14:15:27.999Z</time></trkpt><trkpt lat="44.26998837927676" lon="8.209590492933826"><ele>817.5</ele><time>2026-04-04T14:15:28.999Z</time></trkpt><trkpt lat="44.27002099388553" lon="8.209739509059114"><ele>817.0</ele><time>2026-04-04T14:15:29.999Z</time></trkpt><trkpt lat="44.27004604523222" lon="8.209885130535252"><ele>817.0</ele><time>2026-04-04T14:15:30.999Z</time></trkpt><trkpt lat="44.27007530722295" lon="8.21001775019303"><ele>817.0</ele><time>2026-04-04T14:15:31.999Z</time></trkpt><trkpt lat="44.27011922142927" lon="8.210120758691254"><ele>817.0</ele><time>2026-04-04T14:15:32.999Z</time></trkpt><trkpt lat="44.2701747702563" lon="8.210177827103347"><ele>817.0</ele><time>2026-04-04T14:15:33.999Z</time></trkpt><trkpt lat="44.27027419666977" lon="8.21019402639749"><ele>817.0</ele><time>2026-04-04T14:15:34.999Z</time></trkpt><trkpt lat="44.270381509993925" lon="8.210186299936058"><ele>817.0</ele><time>2026-04-04T14:15:35.999Z</time></trkpt><trkpt lat="44.270484917426145" lon="8.210218699255881"><ele>817.0</ele><time>2026-04-04T14:15:36.999Z</time></trkpt><trkpt lat="44.2705662932545" lon="8.210282528148275"><ele>817.0</ele><time>2026-04-04T14:15:37.999Z</time></trkpt><trkpt lat="44.270640020952776" lon="8.210389925922238"><ele>817.0</ele><time>2026-04-04T14:15:38.999Z</time></trkpt><trkpt lat="44.27070339472364" lon="8.210544429537373"><ele>817.0</ele><time>2026-04-04T14:15:39.999Z</time></trkpt><trkpt lat="44.27075397449306" lon="8.210704862865796"><ele>814.4000000000001</ele><time>2026-04-04T14:15:40.999Z</time></trkpt><trkpt lat="44.270797338447984" lon="8.210843921142482"><ele>811.8000000000001</ele><time>2026-04-04T14:15:41.999Z</time></trkpt><trkpt lat="44.270848184704924" lon="8.210975401607215"><ele>809.2</ele><time>2026-04-04T14:15:42.999Z</time></trkpt><trkpt lat="44.27090005642372" lon="8.211095347877462"><ele>806.6</ele><time>2026-04-04T14:15:43.999Z</time></trkpt><trkpt lat="44.270948487564795" lon="8.211213823969496"><ele>804.0</ele><time>2026-04-04T14:15:44.999Z</time></trkpt><trkpt lat="44.27097277498868" lon="8.211326107852193"><ele>804.0</ele><time>2026-04-04T14:15:45.999Z</time></trkpt><trkpt lat="44.270970788695884" lon="8.211436262570972"><ele>804.0</ele><time>2026-04-04T14:15:46.999Z</time></trkpt><trkpt lat="44.270888430221206" lon="8.211604045375385"><ele>804.0</ele><time>2026-04-04T14:15:48.999Z</time></trkpt><trkpt lat="44.270835477704686" lon="8.21167809889416"><ele>804.0</ele><time>2026-04-04T14:15:49.999Z</time></trkpt><trkpt lat="44.270751818806815" lon="8.211749581656534"><ele>804.0</ele><time>2026-04-04T14:15:50.999Z</time></trkpt><trkpt lat="44.2706630638535" lon="8.211834514325542"><ele>809.0</ele><time>2026-04-04T14:15:51.999Z</time></trkpt><trkpt lat="44.27055667546155" lon="8.211899247257051"><ele>814.0</ele><time>2026-04-04T14:15:52.999Z</time></trkpt><trkpt lat="44.27043759420312" lon="8.211958181386231"><ele>819.0</ele><time>2026-04-04T14:15:53.999Z</time></trkpt><trkpt lat="44.27031068183283" lon="8.212025804221478"><ele>824.0</ele><time>2026-04-04T14:15:54.999Z</time></trkpt><trkpt lat="44.27016985362364" lon="8.212079007944443"><ele>824.0</ele><time>2026-04-04T14:15:55.999Z</time></trkpt><trkpt lat="44.27002503350368" lon="8.212127751936269"><ele>824.0</ele><time>2026-04-04T14:15:56.999Z</time></trkpt><trkpt lat="44.26989044526505" lon="8.21217616911112"><ele>824.0</ele><time>2026-04-04T14:15:57.999Z</time></trkpt><trkpt lat="44.2697696674632" lon="8.212217026653912"><ele>824.0</ele><time>2026-04-04T14:15:58.999Z</time></trkpt><trkpt lat="44.26964764311191" lon="8.212266682802397"><ele>826.8000000000001</ele><time>2026-04-04T14:15:59.999Z</time></trkpt><trkpt lat="44.26953879270298" lon="8.212301677468886"><ele>829.6</ele><time>2026-04-04T14:16:00.999Z</time></trkpt><trkpt lat="44.26944708590018" lon="8.212316318008217"><ele>832.4</ele><time>2026-04-04T14:16:01.999Z</time></trkpt><trkpt lat="44.26935656802691" lon="8.212312062796368"><ele>835.2</ele><time>2026-04-04T14:16:02.999Z</time></trkpt><trkpt lat="44.26925425831681" lon="8.212284198371584"><ele>838.0</ele><time>2026-04-04T14:16:03.999Z</time></trkpt><trkpt lat="44.26916148460301" lon="8.212202308103608"><ele>838.0</ele><time>2026-04-04T14:16:04.999Z</time></trkpt><trkpt lat="44.26905974213075" lon="8.212160769229842"><ele>838.0</ele><time>2026-04-04T14:16:05.999Z</time></trkpt><trkpt lat="44.26897058049293" lon="8.212118668209083"><ele>838.0</ele><time>2026-04-04T14:16:06.999Z</time></trkpt><trkpt lat="44.26887650800874" lon="8.212106478428808"><ele>838.0</ele><time>2026-04-04T14:16:07.999Z</time></trkpt><trkpt lat="44.26878302009568" lon="8.212146070842456"><ele>838.0</ele><time>2026-04-04T14:16:08.999Z</time></trkpt><trkpt lat="44.2686999486848" lon="8.212236626585973"><ele>840.2</ele><time>2026-04-04T14:16:09.999Z</time></trkpt><trkpt lat="44.268621743767135" lon="8.212319152471856"><ele>842.4</ele><time>2026-04-04T14:16:10.999Z</time></trkpt><trkpt lat="44.26852806163049" lon="8.212400973538617"><ele>844.6</ele><time>2026-04-04T14:16:11.999Z</time></trkpt><trkpt lat="44.26843183452288" lon="8.212477188753622"><ele>846.8000000000001</ele><time>2026-04-04T14:16:12.998Z</time></trkpt><trkpt lat="44.268323327498514" lon="8.212516921208488"><ele>849.0</ele><time>2026-04-04T14:16:13.998Z</time></trkpt><trkpt lat="44.26822142046654" lon="8.212559083408669"><ele>844.5</ele><time>2026-04-04T14:16:14.998Z</time></trkpt><trkpt lat="44.26812780030828" lon="8.212585836841344"><ele>840.0</ele><time>2026-04-04T14:16:15.998Z</time></trkpt><trkpt lat="44.268012898052596" lon="8.21254730127275"><ele>835.5</ele><time>2026-04-04T14:16:16.998Z</time></trkpt><trkpt lat="44.26789617542447" lon="8.212513922937376"><ele>831.0</ele><time>2026-04-04T14:16:17.998Z</time></trkpt><trkpt lat="44.267776298717706" lon="8.212444396990843"><ele>831.0</ele><time>2026-04-04T14:16:18.998Z</time></trkpt><trkpt lat="44.26764940697148" lon="8.212361628649353"><ele>831.0</ele><time>2026-04-04T14:16:19.998Z</time></trkpt><trkpt lat="44.267501162252955" lon="8.212274004815109"><ele>831.0</ele><time>2026-04-04T14:16:20.998Z</time></trkpt><trkpt lat="44.267347661314524" lon="8.212168331711709"><ele>835.0</ele><time>2026-04-04T14:16:21.998Z</time></trkpt><trkpt lat="44.26717501682656" lon="8.212059228437052"><ele>839.0</ele><time>2026-04-04T14:16:22.998Z</time></trkpt><trkpt lat="44.267014669362574" lon="8.211956566024144"><ele>843.0</ele><time>2026-04-04T14:16:23.998Z</time></trkpt><trkpt lat="44.266866986673364" lon="8.211869212618367"><ele>843.0</ele><time>2026-04-04T14:16:24.998Z</time></trkpt><trkpt lat="44.26673674005046" lon="8.211800543251725"><ele>843.0</ele><time>2026-04-04T14:16:25.998Z</time></trkpt><trkpt lat="44.2666200888645" lon="8.211739489301277"><ele>843.0</ele><time>2026-04-04T14:16:26.998Z</time></trkpt><trkpt lat="44.2665188033416" lon="8.211689957633654"><ele>843.0</ele><time>2026-04-04T14:16:27.998Z</time></trkpt><trkpt lat="44.26642416498669" lon="8.211619911192555"><ele>844.0</ele><time>2026-04-04T14:16:29Z</time></trkpt><trkpt lat="44.266340129206654" lon="8.211501548386327"><ele>845.0</ele><time>2026-04-04T14:16:30Z</time></trkpt><trkpt lat="44.26628928558798" lon="8.211330105566875"><ele>846.0</ele><time>2026-04-04T14:16:31Z</time></trkpt><trkpt lat="44.266227662667596" lon="8.211185514358823"><ele>847.0</ele><time>2026-04-04T14:16:32Z</time></trkpt><trkpt lat="44.26616653576377" lon="8.211075784235138"><ele>849.8</ele><time>2026-04-04T14:16:33Z</time></trkpt><trkpt lat="44.266088944972886" lon="8.211024617281522"><ele>852.6</ele><time>2026-04-04T14:16:34Z</time></trkpt><trkpt lat="44.2660037781757" lon="8.211025702661324"><ele>855.3999999999999</ele><time>2026-04-04T14:16:35Z</time></trkpt><trkpt lat="44.26592203802903" lon="8.211083662830932"><ele>858.1999999999999</ele><time>2026-04-04T14:16:36Z</time></trkpt><trkpt lat="44.265836059236555" lon="8.211193139258276"><ele>861.0</ele><time>2026-04-04T14:16:37Z</time></trkpt><trkpt lat="44.265774299808356" lon="8.211309166361392"><ele>861.0</ele><time>2026-04-04T14:16:38Z</time></trkpt><trkpt lat="44.26570748347682" lon="8.211462465013964"><ele>861.0</ele><time>2026-04-04T14:16:39Z</time></trkpt><trkpt lat="44.26562518323474" lon="8.211629765619362"><ele>861.0</ele><time>2026-04-04T14:16:40Z</time></trkpt><trkpt lat="44.265560595456975" lon="8.211798355101218"><ele>861.0</ele><time>2026-04-04T14:16:41Z</time></trkpt><trkpt lat="44.26549694219206" lon="8.211931893955661"><ele>862.8</ele><time>2026-04-04T14:16:42Z</time></trkpt><trkpt lat="44.26545168644519" lon="8.212048602472354"><ele>864.5999999999999</ele><time>2026-04-04T14:16:43Z</time></trkpt><trkpt lat="44.265390844134004" lon="8.212159101295853"><ele>866.4</ele><time>2026-04-04T14:16:44Z</time></trkpt><trkpt lat="44.26531386096263" lon="8.212224370548423"><ele>868.2</ele><time>2026-04-04T14:16:45Z</time></trkpt><trkpt lat="44.26522498376472" lon="8.21225306463241"><ele>870.0</ele><time>2026-04-04T14:16:46Z</time></trkpt><trkpt lat="44.2651233660479" lon="8.212243191837958"><ele>870.0</ele><time>2026-04-04T14:16:47Z</time></trkpt><trkpt lat="44.265004542223245" lon="8.212238172364891"><ele>870.0</ele><time>2026-04-04T14:16:48Z</time></trkpt><trkpt lat="44.26487756219684" lon="8.212228259434939"><ele>870.0</ele><time>2026-04-04T14:16:49Z</time></trkpt><trkpt lat="44.264742066073474" lon="8.21221858124404"><ele>870.0</ele><time>2026-04-04T14:16:50Z</time></trkpt><trkpt lat="44.264604762187545" lon="8.212208754322443"><ele>872.0</ele><time>2026-04-04T14:16:51Z</time></trkpt><trkpt lat="44.26448363668202" lon="8.212197001236609"><ele>874.0</ele><time>2026-04-04T14:16:52Z</time></trkpt><trkpt lat="44.26437850857051" lon="8.212175591548164"><ele>876.0</ele><time>2026-04-04T14:16:53Z</time></trkpt><trkpt lat="44.26428231007375" lon="8.212129107737656"><ele>878.0</ele><time>2026-04-04T14:16:54Z</time></trkpt><trkpt lat="44.26419221045602" lon="8.21203915261902"><ele>880.0</ele><time>2026-04-04T14:16:55Z</time></trkpt><trkpt lat="44.26409229770557" lon="8.211918975648926"><ele>880.0</ele><time>2026-04-04T14:16:56Z</time></trkpt><trkpt lat="44.26398995839111" lon="8.211821825080108"><ele>880.0</ele><time>2026-04-04T14:16:57Z</time></trkpt><trkpt lat="44.26391639496027" lon="8.211742591719826"><ele>880.0</ele><time>2026-04-04T14:16:58Z</time></trkpt><trkpt lat="44.26382480415719" lon="8.211713798195946"><ele>880.0</ele><time>2026-04-04T14:16:59Z</time></trkpt><trkpt lat="44.2637268252774" lon="8.21170272487104"><ele>880.0</ele><time>2026-04-04T14:17:00Z</time></trkpt><trkpt lat="44.26363503279092" lon="8.21181135055512"><ele>879.5</ele><time>2026-04-04T14:17:01Z</time></trkpt><trkpt lat="44.263557676370894" lon="8.211934809545616"><ele>879.0</ele><time>2026-04-04T14:17:02Z</time></trkpt><trkpt lat="44.263458623918204" lon="8.212063849795756"><ele>878.5</ele><time>2026-04-04T14:17:03Z</time></trkpt><trkpt lat="44.26336742082939" lon="8.212227989382576"><ele>878.0</ele><time>2026-04-04T14:17:04Z</time></trkpt><trkpt lat="44.26329027809692" lon="8.212420867399542"><ele>878.0</ele><time>2026-04-04T14:17:05Z</time></trkpt><trkpt lat="44.26320518151342" lon="8.21260040149206"><ele>878.0</ele><time>2026-04-04T14:17:06Z</time></trkpt><trkpt lat="44.263122553500764" lon="8.21276434409351"><ele>878.0</ele><time>2026-04-04T14:17:07Z</time></trkpt><trkpt lat="44.263069584531934" lon="8.212899901313039"><ele>878.0</ele><time>2026-04-04T14:17:08Z</time></trkpt><trkpt lat="44.26299282797536" lon="8.212998922926145"><ele>881.8</ele><time>2026-04-04T14:17:09Z</time></trkpt><trkpt lat="44.26291097006811" lon="8.213068695409614"><ele>885.5999999999999</ele><time>2026-04-04T14:17:10Z</time></trkpt><trkpt lat="44.26281387872983" lon="8.213099777918718"><ele>889.4000000000001</ele><time>2026-04-04T14:17:11Z</time></trkpt><trkpt lat="44.26271477199924" lon="8.213051198622765"><ele>893.2</ele><time>2026-04-04T14:17:12Z</time></trkpt><trkpt lat="44.262613538359766" lon="8.212998547842195"><ele>897.0</ele><time>2026-04-04T14:17:13Z</time></trkpt><trkpt lat="44.262495431108306" lon="8.212936232698427"><ele>897.0</ele><time>2026-04-04T14:17:13.999Z</time></trkpt><trkpt lat="44.262363863653185" lon="8.212866815798776"><ele>897.0</ele><time>2026-04-04T14:17:14.999Z</time></trkpt><trkpt lat="44.26222221085976" lon="8.212792056803275"><ele>897.0</ele><time>2026-04-04T14:17:15.999Z</time></trkpt><trkpt lat="44.262077477272044" lon="8.212727035484873"><ele>897.0</ele><time>2026-04-04T14:17:16.999Z</time></trkpt><trkpt lat="44.26195371025677" lon="8.21264809633625"><ele>898.5</ele><time>2026-04-04T14:17:17.999Z</time></trkpt><trkpt lat="44.261813004434316" lon="8.212591086621293"><ele>900.0</ele><time>2026-04-04T14:17:18.999Z</time></trkpt><trkpt lat="44.261683206365674" lon="8.212532936349003"><ele>901.5</ele><time>2026-04-04T14:17:19.999Z</time></trkpt><trkpt lat="44.26153243906012" lon="8.21253348689392"><ele>903.0</ele><time>2026-04-04T14:17:20.999Z</time></trkpt><trkpt lat="44.261377855046554" lon="8.212579727242911"><ele>906.6666666666667</ele><time>2026-04-04T14:17:21.999Z</time></trkpt><trkpt lat="44.26122736841064" lon="8.212648588457595"><ele>910.3333333333334</ele><time>2026-04-04T14:17:22.999Z</time></trkpt><trkpt lat="44.2610761923332" lon="8.212692482453209"><ele>914.0</ele><time>2026-04-04T14:17:23.999Z</time></trkpt><trkpt lat="44.26093122923723" lon="8.212736333086157"><ele>914.0</ele><time>2026-04-04T14:17:24.999Z</time></trkpt><trkpt lat="44.26079538275949" lon="8.212801526589994"><ele>914.0</ele><time>2026-04-04T14:17:25.999Z</time></trkpt><trkpt lat="44.26068192162152" lon="8.21290689648422"><ele>914.0</ele><time>2026-04-04T14:17:26.999Z</time></trkpt><trkpt lat="44.260594319133354" lon="8.21304285754424"><ele>914.0</ele><time>2026-04-04T14:17:27.999Z</time></trkpt><trkpt lat="44.26049371082347" lon="8.21317199255908"><ele>914.75</ele><time>2026-04-04T14:17:28.999Z</time></trkpt><trkpt lat="44.26040818363628" lon="8.21327678170392"><ele>915.5</ele><time>2026-04-04T14:17:29.999Z</time></trkpt><trkpt lat="44.260324979895394" lon="8.21335592863708"><ele>916.25</ele><time>2026-04-04T14:17:30.999Z</time></trkpt><trkpt lat="44.26021575794987" lon="8.213398191243092"><ele>917.0</ele><time>2026-04-04T14:17:31.999Z</time></trkpt><trkpt lat="44.260091131260694" lon="8.213399058405068"><ele>917.0</ele><time>2026-04-04T14:17:32.999Z</time></trkpt><trkpt lat="44.25995596929456" lon="8.213365394239018"><ele>917.0</ele><time>2026-04-04T14:17:33.999Z</time></trkpt><trkpt lat="44.25980758949964" lon="8.21330829206902"><ele>917.0</ele><time>2026-04-04T14:17:34.999Z</time></trkpt><trkpt lat="44.259645084835185" lon="8.213230257155864"><ele>917.3333333333334</ele><time>2026-04-04T14:17:35.999Z</time></trkpt><trkpt lat="44.259484685645035" lon="8.213168240051363"><ele>917.6666666666667</ele><time>2026-04-04T14:17:36.999Z</time></trkpt><trkpt lat="44.25933777058856" lon="8.21310450820156"><ele>918.0</ele><time>2026-04-04T14:17:37.999Z</time></trkpt><trkpt lat="44.259177978433506" lon="8.213066200678334"><ele>922.3333333333333</ele><time>2026-04-04T14:17:38.999Z</time></trkpt><trkpt lat="44.25900922480845" lon="8.213043458256635"><ele>926.6666666666666</ele><time>2026-04-04T14:17:39.999Z</time></trkpt><trkpt lat="44.25884078892802" lon="8.213032081281604"><ele>931.0</ele><time>2026-04-04T14:17:40.999Z</time></trkpt><trkpt lat="44.2586640596609" lon="8.213002907438572"><ele>931.0</ele><time>2026-04-04T14:17:41.999Z</time></trkpt><trkpt lat="44.258490309982555" lon="8.212955892636831"><ele>931.0</ele><time>2026-04-04T14:17:42.999Z</time></trkpt><trkpt lat="44.25833592556692" lon="8.212901495650215"><ele>931.0</ele><time>2026-04-04T14:17:43.999Z</time></trkpt><trkpt lat="44.258195578470485" lon="8.212820196127353"><ele>928.75</ele><time>2026-04-04T14:17:44.999Z</time></trkpt><trkpt lat="44.25805819025861" lon="8.21277307136031"><ele>926.5</ele><time>2026-04-04T14:17:45.999Z</time></trkpt><trkpt lat="44.257935968612735" lon="8.212691710665352"><ele>924.25</ele><time>2026-04-04T14:17:46.999Z</time></trkpt><trkpt lat="44.25783464069225" lon="8.212609437834754"><ele>922.0</ele><time>2026-04-04T14:17:47.999Z</time></trkpt><trkpt lat="44.25775279724655" lon="8.212522750573761"><ele>922.0</ele><time>2026-04-04T14:17:48.999Z</time></trkpt><trkpt lat="44.25769722762954" lon="8.212417664006114"><ele>922.0</ele><time>2026-04-04T14:17:49.999Z</time></trkpt><trkpt lat="44.25767442928067" lon="8.212289466876017"><ele>922.0</ele><time>2026-04-04T14:17:50.999Z</time></trkpt><trkpt lat="44.25769547412237" lon="8.212158140571836"><ele>922.0</ele><time>2026-04-04T14:17:51.999Z</time></trkpt><trkpt lat="44.257755664176344" lon="8.212020626360866"><ele>922.0</ele><time>2026-04-04T14:17:52.999Z</time></trkpt><trkpt lat="44.25782727372496" lon="8.21187237317387"><ele>922.5</ele><time>2026-04-04T14:17:53.999Z</time></trkpt><trkpt lat="44.25788823500608" lon="8.211728229725525"><ele>923.0</ele><time>2026-04-04T14:17:54.999Z</time></trkpt><trkpt lat="44.25790549508368" lon="8.211575257901128"><ele>923.5</ele><time>2026-04-04T14:17:55.999Z</time></trkpt><trkpt lat="44.25786797857573" lon="8.21140728099664"><ele>924.0</ele><time>2026-04-04T14:17:56.999Z</time></trkpt><trkpt lat="44.25780756532082" lon="8.21122907923157"><ele>926.3333333333333</ele><time>2026-04-04T14:17:57.999Z</time></trkpt><trkpt lat="44.25775010664046" lon="8.211025901377418"><ele>928.6666666666666</ele><time>2026-04-04T14:17:58.999Z</time></trkpt><trkpt lat="44.257692838654684" lon="8.210808776801471"><ele>931.0</ele><time>2026-04-04T14:17:59.999Z</time></trkpt><trkpt lat="44.25764474646532" lon="8.210611309905952"><ele>932.0</ele><time>2026-04-04T14:18:00.999Z</time></trkpt><trkpt lat="44.257597922954346" lon="8.210420090014253"><ele>933.0</ele><time>2026-04-04T14:18:01.999Z</time></trkpt><trkpt lat="44.25757153788218" lon="8.21023223198032"><ele>934.0</ele><time>2026-04-04T14:18:02.999Z</time></trkpt><trkpt lat="44.257588761032025" lon="8.210046041129214"><ele>935.0</ele><time>2026-04-04T14:18:03.999Z</time></trkpt><trkpt lat="44.25761321998976" lon="8.20986681762901"><ele>934.25</ele><time>2026-04-04T14:18:04.999Z</time></trkpt><trkpt lat="44.25766779422304" lon="8.20970034465746"><ele>933.5</ele><time>2026-04-04T14:18:05.999Z</time></trkpt><trkpt lat="44.25775348058452" lon="8.209562958889029"><ele>932.75</ele><time>2026-04-04T14:18:06.999Z</time></trkpt><trkpt lat="44.25782351685604" lon="8.209417936394555"><ele>932.0</ele><time>2026-04-04T14:18:07.999Z</time></trkpt><trkpt lat="44.25784360251122" lon="8.209262805675701"><ele>932.0</ele><time>2026-04-04T14:18:08.999Z</time></trkpt><trkpt lat="44.25782639319864" lon="8.209094489538533"><ele>932.0</ele><time>2026-04-04T14:18:09.999Z</time></trkpt><trkpt lat="44.2578036017446" lon="8.2089020581258"><ele>932.0</ele><time>2026-04-04T14:18:10.999Z</time></trkpt><trkpt lat="44.25777044272636" lon="8.208710826371092"><ele>932.0</ele><time>2026-04-04T14:18:11.999Z</time></trkpt><trkpt lat="44.257723369987026" lon="8.208529641570124"><ele>937.5</ele><time>2026-04-04T14:18:12.999Z</time></trkpt><trkpt lat="44.2576566901223" lon="8.208361805688854"><ele>943.0</ele><time>2026-04-04T14:18:13.999Z</time></trkpt><trkpt lat="44.25757418050855" lon="8.208205815458141"><ele>948.5</ele><time>2026-04-04T14:18:14.999Z</time></trkpt><trkpt lat="44.25748449699576" lon="8.208056808008418"><ele>954.0</ele><time>2026-04-04T14:18:15.999Z</time></trkpt><trkpt lat="44.25739958353581" lon="8.207931494725257"><ele>958.8000000000001</ele><time>2026-04-04T14:18:16.999Z</time></trkpt><trkpt lat="44.25731970797327" lon="8.20783313870539"><ele>963.6000000000001</ele><time>2026-04-04T14:18:17.999Z</time></trkpt><trkpt lat="44.25723590734318" lon="8.207770774877783"><ele>968.4</ele><time>2026-04-04T14:18:18.999Z</time></trkpt><trkpt lat="44.257147190237816" lon="8.20775589203631"><ele>973.2</ele><time>2026-04-04T14:18:19.998Z</time></trkpt><trkpt lat="44.257047653818404" lon="8.207795833261052"><ele>978.0</ele><time>2026-04-04T14:18:20.998Z</time></trkpt><trkpt lat="44.256928261268854" lon="8.207859483576526"><ele>979.6666666666667</ele><time>2026-04-04T14:18:21.998Z</time></trkpt><trkpt lat="44.25679198013191" lon="8.207921218556882"><ele>981.3333333333334</ele><time>2026-04-04T14:18:22.998Z</time></trkpt><trkpt lat="44.25662656721489" lon="8.207992545651491"><ele>983.0</ele><time>2026-04-04T14:18:23.998Z</time></trkpt><trkpt lat="44.25645365795408" lon="8.208048668569722"><ele>985.6666666666667</ele><time>2026-04-04T14:18:24.998Z</time></trkpt><trkpt lat="44.25628966885816" lon="8.20810594392891"><ele>988.3333333333333</ele><time>2026-04-04T14:18:25.998Z</time></trkpt><trkpt lat="44.25612831038393" lon="8.20817828932196"><ele>991.0</ele><time>2026-04-04T14:18:26.998Z</time></trkpt><trkpt lat="44.255985628468196" lon="8.208268343980636"><ele>983.5</ele><time>2026-04-04T14:18:27.998Z</time></trkpt><trkpt lat="44.25585976419578" lon="8.208338715504961"><ele>976.0</ele><time>2026-04-04T14:18:28.998Z</time></trkpt><trkpt lat="44.25574798282254" lon="8.208389975200873"><ele>968.5</ele><time>2026-04-04T14:18:29.998Z</time></trkpt><trkpt lat="44.25564442737968" lon="8.208424155554257"><ele>961.0</ele><time>2026-04-04T14:18:30.998Z</time></trkpt><trkpt lat="44.25554137680371" lon="8.208437163217074"><ele>959.6666666666666</ele><time>2026-04-04T14:18:31.998Z</time></trkpt><trkpt lat="44.25544614584812" lon="8.208431597547957"><ele>958.3333333333333</ele><time>2026-04-04T14:18:32.998Z</time></trkpt><trkpt lat="44.25536302881888" lon="8.208399574949325"><ele>957.0</ele><time>2026-04-04T14:18:33.998Z</time></trkpt><trkpt lat="44.25530992386903" lon="8.208325470329775"><ele>955.6666666666667</ele><time>2026-04-04T14:18:35Z</time></trkpt><trkpt lat="44.25529444263185" lon="8.208221442247856"><ele>954.3333333333334</ele><time>2026-04-04T14:18:36Z</time></trkpt><trkpt lat="44.25530798488627" lon="8.208103027742697"><ele>953.0</ele><time>2026-04-04T14:18:37Z</time></trkpt><trkpt lat="44.25533993789875" lon="8.207975058352186"><ele>956.5999999999999</ele><time>2026-04-04T14:18:38Z</time></trkpt><trkpt lat="44.2553578833052" lon="8.207830655217704"><ele>960.1999999999999</ele><time>2026-04-04T14:18:39Z</time></trkpt><trkpt lat="44.25535484927896" lon="8.207689740537578"><ele>963.8</ele><time>2026-04-04T14:18:40Z</time></trkpt><trkpt lat="44.255327454521506" lon="8.20756806664386"><ele>967.4</ele><time>2026-04-04T14:18:41Z</time></trkpt><trkpt lat="44.255263126645055" lon="8.20747866510105"><ele>971.0</ele><time>2026-04-04T14:18:42Z</time></trkpt><trkpt lat="44.25517115219729" lon="8.207435206954866"><ele>971.0</ele><time>2026-04-04T14:18:43Z</time></trkpt><trkpt lat="44.255059988015944" lon="8.207416404659496"><ele>970.9999999999999</ele><time>2026-04-04T14:18:44Z</time></trkpt><trkpt lat="44.254946725534175" lon="8.207409499369398"><ele>970.9999999999999</ele><time>2026-04-04T14:18:45Z</time></trkpt><trkpt lat="44.25484855078477" lon="8.207359367790923"><ele>971.0</ele><time>2026-04-04T14:18:46Z</time></trkpt><trkpt lat="44.25476209062241" lon="8.207315681114569"><ele>971.0</ele><time>2026-04-04T14:18:47Z</time></trkpt><trkpt lat="44.254684559583204" lon="8.207247689255924"><ele>973.5</ele><time>2026-04-04T14:18:48Z</time></trkpt><trkpt lat="44.2546344102812" lon="8.207107155001957"><ele>976.0</ele><time>2026-04-04T14:18:49Z</time></trkpt><trkpt lat="44.254588373688804" lon="8.20694739858358"><ele>978.5</ele><time>2026-04-04T14:18:50Z</time></trkpt><trkpt lat="44.254531619078584" lon="8.206784841119202"><ele>981.0</ele><time>2026-04-04T14:18:51Z</time></trkpt><trkpt lat="44.25448057729773" lon="8.206654546212691"><ele>981.0</ele><time>2026-04-04T14:18:52Z</time></trkpt><trkpt lat="44.25443576868908" lon="8.206532231977105"><ele>980.9999999999999</ele><time>2026-04-04T14:18:53Z</time></trkpt><trkpt lat="44.25436716310743" lon="8.206464231186494"><ele>980.9999999999999</ele><time>2026-04-04T14:18:54Z</time></trkpt><trkpt lat="44.254272234907155" lon="8.20641271147118"><ele>981.0</ele><time>2026-04-04T14:18:55Z</time></trkpt><trkpt lat="44.254149619087435" lon="8.206418024726627"><ele>981.0</ele><time>2026-04-04T14:18:56Z</time></trkpt><trkpt lat="44.25401522260495" lon="8.206480736844414"><ele>984.0</ele><time>2026-04-04T14:18:57Z</time></trkpt><trkpt lat="44.25387742493661" lon="8.20654044959045"><ele>987.0</ele><time>2026-04-04T14:18:58Z</time></trkpt><trkpt lat="44.25375295091674" lon="8.206620192793897"><ele>990.0</ele><time>2026-04-04T14:18:59Z</time></trkpt><trkpt lat="44.25365969649374" lon="8.206697963645096"><ele>993.0</ele><time>2026-04-04T14:19:00Z</time></trkpt><trkpt lat="44.253570055376784" lon="8.206743738513676"><ele>993.0</ele><time>2026-04-04T14:19:01Z</time></trkpt><trkpt lat="44.253471518838225" lon="8.206753950938598"><ele>993.0</ele><time>2026-04-04T14:19:02Z</time></trkpt><trkpt lat="44.25336350522791" lon="8.206692201671345"><ele>993.0</ele><time>2026-04-04T14:19:03Z</time></trkpt><trkpt lat="44.25325422264224" lon="8.206635826011812"><ele>993.0</ele><time>2026-04-04T14:19:04Z</time></trkpt><trkpt lat="44.25314630866545" lon="8.206638644605231"><ele>993.0</ele><time>2026-04-04T14:19:05Z</time></trkpt><trkpt lat="44.25304609236927" lon="8.20668298573507"><ele>1000.5</ele><time>2026-04-04T14:19:06Z</time></trkpt><trkpt lat="44.25295704719677" lon="8.20678800722502"><ele>1008.0</ele><time>2026-04-04T14:19:07Z</time></trkpt><trkpt lat="44.25287201257611" lon="8.206924908393848"><ele>1015.5</ele><time>2026-04-04T14:19:08Z</time></trkpt><trkpt lat="44.25278189536402" lon="8.207078514164957"><ele>1023.0</ele><time>2026-04-04T14:19:09Z</time></trkpt><trkpt lat="44.2526902203974" lon="8.207236684005478"><ele>1015.8</ele><time>2026-04-04T14:19:10Z</time></trkpt><trkpt lat="44.25260095968736" lon="8.207370164307214"><ele>1008.5999999999999</ele><time>2026-04-04T14:19:11Z</time></trkpt><trkpt lat="44.25251880175316" lon="8.207471558407036"><ele>1001.4000000000001</ele><time>2026-04-04T14:19:12Z</time></trkpt><trkpt lat="44.25243453750177" lon="8.207555386689013"><ele>994.2</ele><time>2026-04-04T14:19:13Z</time></trkpt><trkpt lat="44.252353711384366" lon="8.207615445360856"><ele>987.0</ele><time>2026-04-04T14:19:14Z</time></trkpt><trkpt lat="44.252272830578164" lon="8.207644617440605"><ele>985.4000000000001</ele><time>2026-04-04T14:19:15Z</time></trkpt><trkpt lat="44.252193844892" lon="8.207625018430019"><ele>983.8000000000001</ele><time>2026-04-04T14:19:16Z</time></trkpt><trkpt lat="44.252117276806004" lon="8.20755003725032"><ele>982.2</ele><time>2026-04-04T14:19:17Z</time></trkpt><trkpt lat="44.25204869490877" lon="8.207426147492072"><ele>980.6</ele><time>2026-04-04T14:19:18Z</time></trkpt><trkpt lat="44.25196512361832" lon="8.207291789029025"><ele>979.0</ele><time>2026-04-04T14:19:19Z</time></trkpt><trkpt lat="44.251865860789664" lon="8.20713102340909"><ele>992.0</ele><time>2026-04-04T14:19:20Z</time></trkpt><trkpt lat="44.2517505620522" lon="8.206986978218733"><ele>1005.0</ele><time>2026-04-04T14:19:21Z</time></trkpt><trkpt lat="44.25161803119286" lon="8.206857157850399"><ele>1018.0</ele><time>2026-04-04T14:19:22Z</time></trkpt><trkpt lat="44.251486908937444" lon="8.206747280293824"><ele>1019.6666666666666</ele><time>2026-04-04T14:19:22.999Z</time></trkpt><trkpt lat="44.25134576584188" lon="8.206628055192112"><ele>1021.3333333333333</ele><time>2026-04-04T14:19:23.999Z</time></trkpt><trkpt lat="44.25120641658171" lon="8.206481330855652"><ele>1023.0</ele><time>2026-04-04T14:19:24.999Z</time></trkpt><trkpt lat="44.2510701558212" lon="8.20632040657768"><ele>1023.0</ele><time>2026-04-04T14:19:25.999Z</time></trkpt><trkpt lat="44.250902442906614" lon="8.206214612199942"><ele>1023.0</ele><time>2026-04-04T14:19:26.999Z</time></trkpt><trkpt lat="44.250751765920896" lon="8.206081153573932"><ele>1023.0</ele><time>2026-04-04T14:19:27.999Z</time></trkpt><trkpt lat="44.25059699941903" lon="8.205967307744244"><ele>1018.0</ele><time>2026-04-04T14:19:28.999Z</time></trkpt><trkpt lat="44.2504423193718" lon="8.205855387989999"><ele>1013.0</ele><time>2026-04-04T14:19:29.999Z</time></trkpt><trkpt lat="44.250289204956985" lon="8.205754672212441"><ele>1008.0</ele><time>2026-04-04T14:19:30.999Z</time></trkpt><trkpt lat="44.25013937598802" lon="8.205670873755757"><ele>1015.0</ele><time>2026-04-04T14:19:31.999Z</time></trkpt><trkpt lat="44.25001779417879" lon="8.205638084004333"><ele>1022.0</ele><time>2026-04-04T14:19:32.999Z</time></trkpt><trkpt lat="44.24990215770705" lon="8.205576182020653"><ele>1029.0</ele><time>2026-04-04T14:19:33.999Z</time></trkpt><trkpt lat="44.24979250917032" lon="8.205554495467368"><ele>1036.0</ele><time>2026-04-04T14:19:34.999Z</time></trkpt><trkpt lat="44.249686571999426" lon="8.205557629878626"><ele>1038.5</ele><time>2026-04-04T14:19:35.999Z</time></trkpt><trkpt lat="44.249567141860666" lon="8.20558447884659"><ele>1041.0</ele><time>2026-04-04T14:19:36.999Z</time></trkpt><trkpt lat="44.24945518174043" lon="8.20566505844394"><ele>1043.5</ele><time>2026-04-04T14:19:37.999Z</time></trkpt><trkpt lat="44.24936395971995" lon="8.205786812310517"><ele>1046.0</ele><time>2026-04-04T14:19:38.999Z</time></trkpt><trkpt lat="44.2492615130824" lon="8.205916327283738"><ele>1048.25</ele><time>2026-04-04T14:19:39.999Z</time></trkpt><trkpt lat="44.24915415098766" lon="8.206057899934725"><ele>1050.5</ele><time>2026-04-04T14:19:40.999Z</time></trkpt><trkpt lat="44.24904838685843" lon="8.206194749725803"><ele>1052.75</ele><time>2026-04-04T14:19:41.999Z</time></trkpt><trkpt lat="44.248962660629445" lon="8.20631295774801"><ele>1055.0</ele><time>2026-04-04T14:19:42.999Z</time></trkpt><trkpt lat="44.248907297483925" lon="8.206460377756201"><ele>1052.0</ele><time>2026-04-04T14:19:43.999Z</time></trkpt><trkpt lat="44.24886280383104" lon="8.206630370259822"><ele>1049.0</ele><time>2026-04-04T14:19:44.999Z</time></trkpt><trkpt lat="44.24884219513666" lon="8.206819357747206"><ele>1046.0</ele><time>2026-04-04T14:19:45.999Z</time></trkpt><trkpt lat="44.248834604695546" lon="8.207007125368284"><ele>1043.0</ele><time>2026-04-04T14:19:46.999Z</time></trkpt><trkpt lat="44.24883292421942" lon="8.207175054967468"><ele>1043.0</ele><time>2026-04-04T14:19:47.999Z</time></trkpt><trkpt lat="44.24883555642273" lon="8.207323631848718"><ele>1043.0</ele><time>2026-04-04T14:19:48.999Z</time></trkpt><trkpt lat="44.248805406045896" lon="8.207447576556454"><ele>1043.0</ele><time>2026-04-04T14:19:49.999Z</time></trkpt><trkpt lat="44.24876371404328" lon="8.207549478782335"><ele>1043.0</ele><time>2026-04-04T14:19:50.999Z</time></trkpt><trkpt lat="44.24870542768327" lon="8.207589744785864"><ele>1043.0</ele><time>2026-04-04T14:19:51.999Z</time></trkpt><trkpt lat="44.248637699920906" lon="8.207594274712182"><ele>1043.0</ele><time>2026-04-04T14:19:52.999Z</time></trkpt><trkpt lat="44.248563053193585" lon="8.207573143138863"><ele>1041.2</ele><time>2026-04-04T14:19:53.999Z</time></trkpt><trkpt lat="44.24847643704634" lon="8.207556333658232"><ele>1039.4</ele><time>2026-04-04T14:19:54.999Z</time></trkpt><trkpt lat="44.24837296553615" lon="8.207570708263736"><ele>1037.6000000000001</ele><time>2026-04-04T14:19:55.999Z</time></trkpt><trkpt lat="44.24826553195411" lon="8.207577028818799"><ele>1035.8</ele><time>2026-04-04T14:19:56.999Z</time></trkpt><trkpt lat="44.248148997919515" lon="8.207573872794365"><ele>1034.0</ele><time>2026-04-04T14:19:57.999Z</time></trkpt><trkpt lat="44.248033570233865" lon="8.207606317510702"><ele>1034.0</ele><time>2026-04-04T14:19:58.999Z</time></trkpt><trkpt lat="44.24790691416497" lon="8.20766765441819"><ele>1034.0</ele><time>2026-04-04T14:19:59.999Z</time></trkpt><trkpt lat="44.24778239627636" lon="8.207715181548515"><ele>1034.0</ele><time>2026-04-04T14:20:00.999Z</time></trkpt><trkpt lat="44.24766210161352" lon="8.207756203391682"><ele>1034.0</ele><time>2026-04-04T14:20:01.999Z</time></trkpt><trkpt lat="44.24755330837122" lon="8.2077838600204"><ele>1034.0</ele><time>2026-04-04T14:20:02.999Z</time></trkpt><trkpt lat="44.247457364573755" lon="8.207793297570475"><ele>1034.0</ele><time>2026-04-04T14:20:03.999Z</time></trkpt><trkpt lat="44.24738629628057" lon="8.207860312894143"><ele>1034.0</ele><time>2026-04-04T14:20:04.999Z</time></trkpt><trkpt lat="44.24733408766138" lon="8.207959536431966"><ele>1034.0</ele><time>2026-04-04T14:20:05.999Z</time></trkpt><trkpt lat="44.247303858623404" lon="8.208094213980232"><ele>1034.0</ele><time>2026-04-04T14:20:06.999Z</time></trkpt><trkpt lat="44.24730515082858" lon="8.208245773294879"><ele>1028.8</ele><time>2026-04-04T14:20:07.999Z</time></trkpt><trkpt lat="44.24732225240054" lon="8.208391331664386"><ele>1023.6000000000001</ele><time>2026-04-04T14:20:08.999Z</time></trkpt><trkpt lat="44.24736021104072" lon="8.208529898252841"><ele>1018.4</ele><time>2026-04-04T14:20:09.999Z</time></trkpt><trkpt lat="44.24742669784935" lon="8.20865469987462"><ele>1013.2</ele><time>2026-04-04T14:20:10.999Z</time></trkpt><trkpt lat="44.247515825664024" lon="8.20874481195136"><ele>1008.0</ele><time>2026-04-04T14:20:11.999Z</time></trkpt><trkpt lat="44.24760999462982" lon="8.20880823448432"><ele>1008.0</ele><time>2026-04-04T14:20:12.999Z</time></trkpt><trkpt lat="44.247698151346825" lon="8.208829329726797"><ele>1008.0</ele><time>2026-04-04T14:20:13.999Z</time></trkpt><trkpt lat="44.24776263938621" lon="8.20889013993146"><ele>1008.0</ele><time>2026-04-04T14:20:14.999Z</time></trkpt><trkpt lat="44.24777328460211" lon="8.208985615188947"><ele>1008.0</ele><time>2026-04-04T14:20:15.999Z</time></trkpt><trkpt lat="44.24764852185022" lon="8.209108906214421"><ele>1008.0</ele><time>2026-04-04T14:20:17.999Z</time></trkpt><trkpt lat="44.24755836785471" lon="8.209165924216423"><ele>1008.5</ele><time>2026-04-04T14:20:18.999Z</time></trkpt><trkpt lat="44.247440016674624" lon="8.209239326270309"><ele>1009.0</ele><time>2026-04-04T14:20:19.999Z</time></trkpt><trkpt lat="44.24730456187628" lon="8.209280694054415"><ele>1009.5</ele><time>2026-04-04T14:20:20.999Z</time></trkpt><trkpt lat="44.24715512999722" lon="8.20931441306237"><ele>1010.0</ele><time>2026-04-04T14:20:21.999Z</time></trkpt><trkpt lat="44.247002826730004" lon="8.209333552899801"><ele>1010.0</ele><time>2026-04-04T14:20:22.999Z</time></trkpt><trkpt lat="44.246837704857676" lon="8.209344157440645"><ele>1010.0</ele><time>2026-04-04T14:20:23.999Z</time></trkpt><trkpt lat="44.246666791981696" lon="8.209319215989439"><ele>1010.0</ele><time>2026-04-04T14:20:24.998Z</time></trkpt><trkpt lat="44.24648979258032" lon="8.209313740675851"><ele>1011.75</ele><time>2026-04-04T14:20:25.998Z</time></trkpt><trkpt lat="44.24632208678934" lon="8.209323796015195"><ele>1013.5</ele><time>2026-04-04T14:20:26.998Z</time></trkpt><trkpt lat="44.24617216807524" lon="8.209357714792104"><ele>1015.25</ele><time>2026-04-04T14:20:27.998Z</time></trkpt><trkpt lat="44.246048790181874" lon="8.209356175998563"><ele>1017.0</ele><time>2026-04-04T14:20:28.998Z</time></trkpt><trkpt lat="44.245942824178776" lon="8.209343907963069"><ele>1017.0</ele><time>2026-04-04T14:20:29.998Z</time></trkpt><trkpt lat="44.2458568485474" lon="8.20935495371752"><ele>1017.0</ele><time>2026-04-04T14:20:30.998Z</time></trkpt><trkpt lat="44.245775221620136" lon="8.209400170997808"><ele>1017.0</ele><time>2026-04-04T14:20:31.998Z</time></trkpt><trkpt lat="44.245699378532365" lon="8.209479666227542"><ele>1017.0</ele><time>2026-04-04T14:20:32.998Z</time></trkpt><trkpt lat="44.245663262277354" lon="8.209627339503491"><ele>1017.0</ele><time>2026-04-04T14:20:33.998Z</time></trkpt><trkpt lat="44.24565557290207" lon="8.20978507177173"><ele>1010.5</ele><time>2026-04-04T14:20:34.998Z</time></trkpt><trkpt lat="44.24568086662829" lon="8.209953866786186"><ele>1004.0</ele><time>2026-04-04T14:20:35.998Z</time></trkpt><trkpt lat="44.24571653074735" lon="8.21013064195735"><ele>997.5</ele><time>2026-04-04T14:20:36.998Z</time></trkpt><trkpt lat="44.24575232201721" lon="8.210329412710479"><ele>991.0</ele><time>2026-04-04T14:20:37.998Z</time></trkpt><trkpt lat="44.245784303967234" lon="8.210531416919954"><ele>990.3333333333333</ele><time>2026-04-04T14:20:38.998Z</time></trkpt><trkpt lat="44.24581842238484" lon="8.210749714006658"><ele>989.6666666666667</ele><time>2026-04-04T14:20:39.998Z</time></trkpt><trkpt lat="44.245854520315156" lon="8.21097267051717"><ele>989.0</ele><time>2026-04-04T14:20:41Z</time></trkpt><trkpt lat="44.24588523251232" lon="8.21118311986277"><ele>989.0</ele><time>2026-04-04T14:20:42Z</time></trkpt><trkpt lat="44.24591658747712" lon="8.211385568535222"><ele>989.0</ele><time>2026-04-04T14:20:43Z</time></trkpt><trkpt lat="44.24595106528399" lon="8.2115744927478"><ele>989.0</ele><time>2026-04-04T14:20:44Z</time></trkpt><trkpt lat="44.245990010411134" lon="8.211748569533222"><ele>989.0</ele><time>2026-04-04T14:20:45Z</time></trkpt><trkpt lat="44.246049721605715" lon="8.211920986851775"><ele>992.0</ele><time>2026-04-04T14:20:46Z</time></trkpt><trkpt lat="44.246132865313875" lon="8.212099664970069"><ele>995.0</ele><time>2026-04-04T14:20:47Z</time></trkpt><trkpt lat="44.246237251434565" lon="8.212258766229231"><ele>998.0</ele><time>2026-04-04T14:20:48Z</time></trkpt><trkpt lat="44.24637459528566" lon="8.212391713682917"><ele>990.4</ele><time>2026-04-04T14:20:49Z</time></trkpt><trkpt lat="44.246474331237465" lon="8.212519372175281"><ele>982.8</ele><time>2026-04-04T14:20:50Z</time></trkpt><trkpt lat="44.24655251234244" lon="8.212633243154695"><ele>975.2</ele><time>2026-04-04T14:20:51Z</time></trkpt><trkpt lat="44.246629966313456" lon="8.212735784485815"><ele>967.6</ele><time>2026-04-04T14:20:52Z</time></trkpt><trkpt lat="44.246667783389675" lon="8.2128490899186"><ele>960.0</ele><time>2026-04-04T14:20:53Z</time></trkpt><trkpt lat="44.24668765030748" lon="8.21297980684087"><ele>960.0</ele><time>2026-04-04T14:20:54Z</time></trkpt><trkpt lat="44.24668908381667" lon="8.213135545889077"><ele>960.0</ele><time>2026-04-04T14:20:55Z</time></trkpt><trkpt lat="44.246678296066996" lon="8.213293745135829"><ele>960.0</ele><time>2026-04-04T14:20:56Z</time></trkpt><trkpt lat="44.24665807958859" lon="8.213428877049534"><ele>960.0</ele><time>2026-04-04T14:20:57Z</time></trkpt><trkpt lat="44.246606675004486" lon="8.21353234580699"><ele>960.0</ele><time>2026-04-04T14:20:58Z</time></trkpt><trkpt lat="44.24653176347399" lon="8.213595515590297"><ele>966.2</ele><time>2026-04-04T14:20:59Z</time></trkpt><trkpt lat="44.24645569530333" lon="8.213601908351695"><ele>972.4</ele><time>2026-04-04T14:21:00Z</time></trkpt><trkpt lat="44.24640247714652" lon="8.213537505126977"><ele>978.5999999999999</ele><time>2026-04-04T14:21:01Z</time></trkpt><trkpt lat="44.24631481676402" lon="8.21351347939073"><ele>984.8</ele><time>2026-04-04T14:21:02Z</time></trkpt><trkpt lat="44.246217568215535" lon="8.2134854935635"><ele>991.0</ele><time>2026-04-04T14:21:03Z</time></trkpt><trkpt lat="44.246102094983925" lon="8.213469513489274"><ele>991.0</ele><time>2026-04-04T14:21:04Z</time></trkpt><trkpt lat="44.24597686461558" lon="8.213459155645925"><ele>991.0</ele><time>2026-04-04T14:21:05Z</time></trkpt><trkpt lat="44.24586111363692" lon="8.213444017102255"><ele>991.0</ele><time>2026-04-04T14:21:06Z</time></trkpt><trkpt lat="44.24575530568448" lon="8.21343614541674"><ele>991.0</ele><time>2026-04-04T14:21:07Z</time></trkpt><trkpt lat="44.24564689281777" lon="8.213449604237182"><ele>986.5999999999999</ele><time>2026-04-04T14:21:08Z</time></trkpt><trkpt lat="44.24555592037713" lon="8.213542061268242"><ele>982.1999999999999</ele><time>2026-04-04T14:21:09Z</time></trkpt><trkpt lat="44.24547781258252" lon="8.213635194822881"><ele>977.8000000000001</ele><time>2026-04-04T14:21:10Z</time></trkpt><trkpt lat="44.245419825942925" lon="8.213767593252298"><ele>973.4000000000001</ele><time>2026-04-04T14:21:11Z</time></trkpt><trkpt lat="44.24537838945731" lon="8.213898721447574"><ele>969.0</ele><time>2026-04-04T14:21:12Z</time></trkpt><trkpt lat="44.245330736823185" lon="8.2140123106916"><ele>969.0</ele><time>2026-04-04T14:21:13Z</time></trkpt><trkpt lat="44.245281709663175" lon="8.21412110482783"><ele>969.0000000000001</ele><time>2026-04-04T14:21:14Z</time></trkpt><trkpt lat="44.24518942526614" lon="8.214168633036717"><ele>969.0000000000001</ele><time>2026-04-04T14:21:15Z</time></trkpt><trkpt lat="44.245082488456205" lon="8.214180894995428"><ele>969.0</ele><time>2026-04-04T14:21:16Z</time></trkpt><trkpt lat="44.24496771898157" lon="8.214178442502622"><ele>969.0</ele><time>2026-04-04T14:21:17Z</time></trkpt><trkpt lat="44.244865095596914" lon="8.214137435643167"><ele>972.4000000000001</ele><time>2026-04-04T14:21:18Z</time></trkpt><trkpt lat="44.24477739661368" lon="8.214054209421583"><ele>975.8000000000001</ele><time>2026-04-04T14:21:19Z</time></trkpt><trkpt lat="44.24468322681869" lon="8.214017811355076"><ele>979.1999999999999</ele><time>2026-04-04T14:21:20Z</time></trkpt><trkpt lat="44.244597673144646" lon="8.214001302002227"><ele>982.5999999999999</ele><time>2026-04-04T14:21:21Z</time></trkpt><trkpt lat="44.24451245884195" lon="8.214046806315631"><ele>986.0</ele><time>2026-04-04T14:21:22Z</time></trkpt><trkpt lat="44.24443953304468" lon="8.214183973463301"><ele>986.0</ele><time>2026-04-04T14:21:23Z</time></trkpt><trkpt lat="44.244391100269425" lon="8.214303846794698"><ele>985.9999999999999</ele><time>2026-04-04T14:21:24Z</time></trkpt><trkpt lat="44.244355408856315" lon="8.214454479753792"><ele>985.9999999999999</ele><time>2026-04-04T14:21:25Z</time></trkpt><trkpt lat="44.244306989616156" lon="8.21457616457196"><ele>986.0</ele><time>2026-04-04T14:21:26Z</time></trkpt><trkpt lat="44.24423008579406" lon="8.214676190302109"><ele>986.0</ele><time>2026-04-04T14:21:27Z</time></trkpt><trkpt lat="44.24413760223207" lon="8.21471840473674"><ele>986.0</ele><time>2026-04-04T14:21:28Z</time></trkpt><trkpt lat="44.24403388887368" lon="8.214764024476084"><ele>986.0</ele><time>2026-04-04T14:21:29Z</time></trkpt><trkpt lat="44.24390000041132" lon="8.214790021966298"><ele>986.0</ele><time>2026-04-04T14:21:30Z</time></trkpt><trkpt lat="44.24376112693871" lon="8.214891979758136"><ele>986.0</ele><time>2026-04-04T14:21:31Z</time></trkpt><trkpt lat="44.2436243365436" lon="8.21496696298542"><ele>983.0</ele><time>2026-04-04T14:21:32Z</time></trkpt><trkpt lat="44.24348599666178" lon="8.215007956809718"><ele>980.0</ele><time>2026-04-04T14:21:33Z</time></trkpt><trkpt lat="44.24335296396847" lon="8.215041131491004"><ele>977.0</ele><time>2026-04-04T14:21:33.999Z</time></trkpt><trkpt lat="44.24323732820793" lon="8.21510745469697"><ele>974.0</ele><time>2026-04-04T14:21:34.999Z</time></trkpt><trkpt lat="44.24313144543685" lon="8.215142760317601"><ele>971.8000000000001</ele><time>2026-04-04T14:21:35.999Z</time></trkpt><trkpt lat="44.24303878951661" lon="8.215196505506634"><ele>969.6000000000001</ele><time>2026-04-04T14:21:36.999Z</time></trkpt><trkpt lat="44.24295435421867" lon="8.215249674929073"><ele>967.4</ele><time>2026-04-04T14:21:37.999Z</time></trkpt><trkpt lat="44.24285812554323" lon="8.215229157143934"><ele>965.2</ele><time>2026-04-04T14:21:38.999Z</time></trkpt><trkpt lat="44.24277198096092" lon="8.215159711365878"><ele>963.0</ele><time>2026-04-04T14:21:39.999Z</time></trkpt><trkpt lat="44.24269235577747" lon="8.215035193449012"><ele>963.0</ele><time>2026-04-04T14:21:40.999Z</time></trkpt><trkpt lat="44.24262173508869" lon="8.214880269122997"><ele>963.0</ele><time>2026-04-04T14:21:41.999Z</time></trkpt><trkpt lat="44.24255463424002" lon="8.214717965745603"><ele>963.0</ele><time>2026-04-04T14:21:42.999Z</time></trkpt><trkpt lat="44.24248201493027" lon="8.214544443738738"><ele>963.0</ele><time>2026-04-04T14:21:43.999Z</time></trkpt><trkpt lat="44.24242031104892" lon="8.214358486774055"><ele>967.75</ele><time>2026-04-04T14:21:44.999Z</time></trkpt><trkpt lat="44.24238253788241" lon="8.214163200221597"><ele>972.5</ele><time>2026-04-04T14:21:45.999Z</time></trkpt><trkpt lat="44.242316833373636" lon="8.213993584496682"><ele>977.25</ele><time>2026-04-04T14:21:46.999Z</time></trkpt><trkpt lat="44.242243963251774" lon="8.213827116646527"><ele>982.0</ele><time>2026-04-04T14:21:47.999Z</time></trkpt><trkpt lat="44.24214274850706" lon="8.213683300949294"><ele>982.0</ele><time>2026-04-04T14:21:48.999Z</time></trkpt><trkpt lat="44.242039687985645" lon="8.213543199249738"><ele>982.0</ele><time>2026-04-04T14:21:49.999Z</time></trkpt><trkpt lat="44.24194997661756" lon="8.213410871893265"><ele>982.0</ele><time>2026-04-04T14:21:50.999Z</time></trkpt><trkpt lat="44.24186794491178" lon="8.213307463521202"><ele>982.0</ele><time>2026-04-04T14:21:51.999Z</time></trkpt><trkpt lat="44.241801862953835" lon="8.213217156129478"><ele>982.0</ele><time>2026-04-04T14:21:52.999Z</time></trkpt><trkpt lat="44.24173032774464" lon="8.213156019219104"><ele>982.0</ele><time>2026-04-04T14:21:53.999Z</time></trkpt><trkpt lat="44.24165029620609" lon="8.21314559399887"><ele>982.0</ele><time>2026-04-04T14:21:54.999Z</time></trkpt><trkpt lat="44.24156323654954" lon="8.21319645317785"><ele>982.0</ele><time>2026-04-04T14:21:55.999Z</time></trkpt><trkpt lat="44.24148197378273" lon="8.213293935256527"><ele>982.0</ele><time>2026-04-04T14:21:56.999Z</time></trkpt><trkpt lat="44.24141018200577" lon="8.21343239888453"><ele>989.6666666666666</ele><time>2026-04-04T14:21:57.999Z</time></trkpt><trkpt lat="44.24133630421126" lon="8.213606649133434"><ele>997.3333333333333</ele><time>2026-04-04T14:21:58.999Z</time></trkpt><trkpt lat="44.24124215133887" lon="8.213792096833558"><ele>1005.0</ele><time>2026-04-04T14:21:59.999Z</time></trkpt><trkpt lat="44.24111696091957" lon="8.213942696963233"><ele>997.6666666666667</ele><time>2026-04-04T14:22:00.999Z</time></trkpt><trkpt lat="44.240991860871475" lon="8.214078429499107"><ele>990.3333333333334</ele><time>2026-04-04T14:22:01.999Z</time></trkpt><trkpt lat="44.240852495368195" lon="8.214224626518373"><ele>983.0</ele><time>2026-04-04T14:22:02.999Z</time></trkpt><trkpt lat="44.24074053428004" lon="8.214367935446223"><ele>990.3333333333334</ele><time>2026-04-04T14:22:03.999Z</time></trkpt><trkpt lat="44.24063286567536" lon="8.214520491180322"><ele>997.6666666666667</ele><time>2026-04-04T14:22:04.999Z</time></trkpt><trkpt lat="44.24053637024858" lon="8.21469219591389"><ele>1005.0</ele><time>2026-04-04T14:22:05.999Z</time></trkpt><trkpt lat="44.24044818990507" lon="8.214885048258447"><ele>1005.0</ele><time>2026-04-04T14:22:06.999Z</time></trkpt><trkpt lat="44.24036042282797" lon="8.21506983264035"><ele>1005.0</ele><time>2026-04-04T14:22:07.999Z</time></trkpt><trkpt lat="44.2402802691761" lon="8.215229326632038"><ele>1005.0</ele><time>2026-04-04T14:22:08.999Z</time></trkpt><trkpt lat="44.24022087187713" lon="8.215390630807256"><ele>1005.0</ele><time>2026-04-04T14:22:09.999Z</time></trkpt><trkpt lat="44.24017911060452" lon="8.215550975394564"><ele>1000.0</ele><time>2026-04-04T14:22:10.999Z</time></trkpt><trkpt lat="44.240149029131466" lon="8.215699930020714"><ele>995.0</ele><time>2026-04-04T14:22:11.999Z</time></trkpt><trkpt lat="44.240093647906484" lon="8.215812782056126"><ele>990.0</ele><time>2026-04-04T14:22:12.999Z</time></trkpt><trkpt lat="44.24003516719242" lon="8.21592459092607"><ele>985.0</ele><time>2026-04-04T14:22:13.999Z</time></trkpt><trkpt lat="44.2399390597194" lon="8.215994674756244"><ele>980.0</ele><time>2026-04-04T14:22:14.999Z</time></trkpt><trkpt lat="44.23983358456666" lon="8.216025027579407"><ele>984.25</ele><time>2026-04-04T14:22:15.999Z</time></trkpt><trkpt lat="44.239723935072085" lon="8.2160271490336"><ele>988.5</ele><time>2026-04-04T14:22:16.999Z</time></trkpt><trkpt lat="44.23959138709871" lon="8.216021691645217"><ele>992.75</ele><time>2026-04-04T14:22:17.999Z</time></trkpt><trkpt lat="44.239444763940014" lon="8.216017439933614"><ele>997.0</ele><time>2026-04-04T14:22:18.999Z</time></trkpt><trkpt lat="44.23929887850189" lon="8.216056929508362"><ele>997.0</ele><time>2026-04-04T14:22:19.999Z</time></trkpt><trkpt lat="44.2391601223436" lon="8.216098347083808"><ele>997.0</ele><time>2026-04-04T14:22:20.999Z</time></trkpt><trkpt lat="44.23904113397871" lon="8.21615426842838"><ele>997.0</ele><time>2026-04-04T14:22:21.999Z</time></trkpt><trkpt lat="44.238930054159155" lon="8.216167424609472"><ele>997.0</ele><time>2026-04-04T14:22:22.999Z</time></trkpt><trkpt lat="44.23883531919667" lon="8.21617909380107"><ele>997.0</ele><time>2026-04-04T14:22:23.999Z</time></trkpt><trkpt lat="44.23875278357153" lon="8.21614273194974"><ele>997.0</ele><time>2026-04-04T14:22:24.999Z</time></trkpt><trkpt lat="44.23865918027037" lon="8.216089912295175"><ele>997.0</ele><time>2026-04-04T14:22:25.999Z</time></trkpt><trkpt lat="44.23856573597186" lon="8.21607741136524"><ele>997.0</ele><time>2026-04-04T14:22:26.999Z</time></trkpt><trkpt lat="44.238479702104804" lon="8.216096324887864"><ele>997.0</ele><time>2026-04-04T14:22:27.999Z</time></trkpt><trkpt lat="44.238410035153386" lon="8.216176136539644"><ele>997.0</ele><time>2026-04-04T14:22:28.999Z</time></trkpt><trkpt lat="44.2383607237085" lon="8.216295979108596"><ele>997.0</ele><time>2026-04-04T14:22:29.999Z</time></trkpt><trkpt lat="44.23833225665592" lon="8.216432921566556"><ele>997.0</ele><time>2026-04-04T14:22:30.999Z</time></trkpt><trkpt lat="44.23831068206261" lon="8.216607794948017"><ele>997.0</ele><time>2026-04-04T14:22:31.999Z</time></trkpt><trkpt lat="44.23832033975093" lon="8.216786841407414"><ele>996.0</ele><time>2026-04-04T14:22:32.999Z</time></trkpt><trkpt lat="44.23830209400761" lon="8.216948968221077"><ele>995.0</ele><time>2026-04-04T14:22:33.999Z</time></trkpt><trkpt lat="44.23826015847145" lon="8.217090084519036"><ele>994.0</ele><time>2026-04-04T14:22:34.998Z</time></trkpt><trkpt lat="44.23816398309569" lon="8.217215672219327"><ele>993.0</ele><time>2026-04-04T14:22:35.998Z</time></trkpt><trkpt lat="44.23806590278122" lon="8.217366617554408"><ele>993.0</ele><time>2026-04-04T14:22:36.998Z</time></trkpt><trkpt lat="44.23798702402046" lon="8.21750826528353"><ele>993.0</ele><time>2026-04-04T14:22:37.998Z</time></trkpt><trkpt lat="44.237900246423656" lon="8.217628815362348"><ele>993.0</ele><time>2026-04-04T14:22:38.998Z</time></trkpt><trkpt lat="44.23781764601331" lon="8.217758639068713"><ele>993.0</ele><time>2026-04-04T14:22:39.998Z</time></trkpt><trkpt lat="44.237747085965545" lon="8.217910035936134"><ele>993.0</ele><time>2026-04-04T14:22:40.998Z</time></trkpt><trkpt lat="44.237708003097104" lon="8.218090421600492"><ele>993.0</ele><time>2026-04-04T14:22:41.998Z</time></trkpt><trkpt lat="44.237695933172006" lon="8.218290382773432"><ele>993.0</ele><time>2026-04-04T14:22:42.998Z</time></trkpt><trkpt lat="44.23770874219588" lon="8.218517711379802"><ele>993.0</ele><time>2026-04-04T14:22:43.998Z</time></trkpt><trkpt lat="44.23773473607826" lon="8.218741896696963"><ele>992.0</ele><time>2026-04-04T14:22:44.998Z</time></trkpt><trkpt lat="44.23775870663506" lon="8.218941634560172"><ele>991.0</ele><time>2026-04-04T14:22:45.998Z</time></trkpt><trkpt lat="44.237778266879076" lon="8.219128943640595"><ele>990.0</ele><time>2026-04-04T14:22:47Z</time></trkpt><trkpt lat="44.237796459865415" lon="8.219303572490135"><ele>989.0</ele><time>2026-04-04T14:22:48Z</time></trkpt><trkpt lat="44.237817972035174" lon="8.219467112465145"><ele>987.8000000000001</ele><time>2026-04-04T14:22:49Z</time></trkpt><trkpt lat="44.23785432214294" lon="8.219617240343215"><ele>986.6000000000001</ele><time>2026-04-04T14:22:50Z</time></trkpt><trkpt lat="44.23790658332764" lon="8.219749568580003"><ele>985.4</ele><time>2026-04-04T14:22:51Z</time></trkpt><trkpt lat="44.23797784555504" lon="8.219870544532833"><ele>984.2</ele><time>2026-04-04T14:22:52Z</time></trkpt><trkpt lat="44.23803273635236" lon="8.219973664201632"><ele>983.0</ele><time>2026-04-04T14:22:53Z</time></trkpt><trkpt lat="44.238071369984844" lon="8.220057349573324"><ele>981.8</ele><time>2026-04-04T14:22:54Z</time></trkpt><trkpt lat="44.23808697760689" lon="8.220143734792268"><ele>980.5999999999999</ele><time>2026-04-04T14:22:55Z</time></trkpt><trkpt lat="44.23807440908204" lon="8.22030355664291"><ele>979.4000000000001</ele><time>2026-04-04T14:22:57Z</time></trkpt><trkpt lat="44.238057283858744" lon="8.220390734468193"><ele>978.2</ele><time>2026-04-04T14:22:59Z</time></trkpt><trkpt lat="44.237868513276744" lon="8.220300650130405"><ele>977.0</ele><time>2026-04-04T14:23:00Z</time></trkpt><trkpt lat="44.237783941827125" lon="8.220246968172964"><ele>977.0</ele><time>2026-04-04T14:23:01Z</time></trkpt><trkpt lat="44.23767966713307" lon="8.220181850097022"><ele>977.0</ele><time>2026-04-04T14:23:02Z</time></trkpt><trkpt lat="44.237557034770546" lon="8.220105080590729"><ele>977.0</ele><time>2026-04-04T14:23:03Z</time></trkpt><trkpt lat="44.23741251040666" lon="8.220006294209702"><ele>977.0</ele><time>2026-04-04T14:23:04Z</time></trkpt><trkpt lat="44.23727105005483" lon="8.2199038583971"><ele>977.6666666666667</ele><time>2026-04-04T14:23:05Z</time></trkpt><trkpt lat="44.23712625598515" lon="8.219804793764142"><ele>978.3333333333333</ele><time>2026-04-04T14:23:06Z</time></trkpt><trkpt lat="44.23697226015262" lon="8.219700275234617"><ele>979.0</ele><time>2026-04-04T14:23:07Z</time></trkpt><trkpt lat="44.236809132277024" lon="8.219597490300027"><ele>979.0</ele><time>2026-04-04T14:23:08Z</time></trkpt><trkpt lat="44.2366576329718" lon="8.219493281794245"><ele>979.0</ele><time>2026-04-04T14:23:09Z</time></trkpt><trkpt lat="44.23650968653406" lon="8.219397355518746"><ele>979.0</ele><time>2026-04-04T14:23:10Z</time></trkpt><trkpt lat="44.236368340641796" lon="8.219302355050631"><ele>973.6666666666666</ele><time>2026-04-04T14:23:11Z</time></trkpt><trkpt lat="44.23623460082961" lon="8.219208061909558"><ele>968.3333333333333</ele><time>2026-04-04T14:23:12Z</time></trkpt><trkpt lat="44.236105242174595" lon="8.219110498223044"><ele>963.0</ele><time>2026-04-04T14:23:13Z</time></trkpt><trkpt lat="44.23596724171995" lon="8.219004659992395"><ele>961.3333333333333</ele><time>2026-04-04T14:23:14Z</time></trkpt><trkpt lat="44.235840783426006" lon="8.218863696463027"><ele>959.6666666666666</ele><time>2026-04-04T14:23:15Z</time></trkpt><trkpt lat="44.23571053249171" lon="8.218706877060436"><ele>958.0</ele><time>2026-04-04T14:23:16Z</time></trkpt><trkpt lat="44.23558701556046" lon="8.218568105676386"><ele>958.0</ele><time>2026-04-04T14:23:17Z</time></trkpt><trkpt lat="44.23547515475464" lon="8.218418348760597"><ele>958.0</ele><time>2026-04-04T14:23:18Z</time></trkpt><trkpt lat="44.23534898864477" lon="8.218280787678887"><ele>958.0</ele><time>2026-04-04T14:23:19Z</time></trkpt><trkpt lat="44.23520842546805" lon="8.21814935141934"><ele>959.6666666666666</ele><time>2026-04-04T14:23:20Z</time></trkpt><trkpt lat="44.23505330132492" lon="8.218028401286496"><ele>961.3333333333333</ele><time>2026-04-04T14:23:21Z</time></trkpt><trkpt lat="44.23489842258348" lon="8.217930234055155"><ele>963.0</ele><time>2026-04-04T14:23:22Z</time></trkpt><trkpt lat="44.23475894822515" lon="8.217830539267869"><ele>963.0</ele><time>2026-04-04T14:23:23Z</time></trkpt><trkpt lat="44.234618045942696" lon="8.217744839564375"><ele>963.0</ele><time>2026-04-04T14:23:24Z</time></trkpt><trkpt lat="44.23448536689655" lon="8.217668291054022"><ele>963.0</ele><time>2026-04-04T14:23:25Z</time></trkpt><trkpt lat="44.2343564787664" lon="8.21761525348451"><ele>963.0</ele><time>2026-04-04T14:23:26Z</time></trkpt><trkpt lat="44.234236547338085" lon="8.217547256307004"><ele>963.0</ele><time>2026-04-04T14:23:27Z</time></trkpt><trkpt lat="44.2341249482531" lon="8.217460349285338"><ele>963.0</ele><time>2026-04-04T14:23:28Z</time></trkpt><trkpt lat="44.2340131683118" lon="8.21739585852197"><ele>963.0</ele><time>2026-04-04T14:23:29Z</time></trkpt><trkpt lat="44.23390449820188" lon="8.217333073151648"><ele>963.0</ele><time>2026-04-04T14:23:30Z</time></trkpt><trkpt lat="44.23380059882612" lon="8.217272701849497"><ele>961.5999999999999</ele><time>2026-04-04T14:23:31Z</time></trkpt><trkpt lat="44.23370866520366" lon="8.217215994708612"><ele>960.1999999999999</ele><time>2026-04-04T14:23:32Z</time></trkpt><trkpt lat="44.233622639114564" lon="8.217148231206352"><ele>958.8</ele><time>2026-04-04T14:23:33Z</time></trkpt><trkpt lat="44.233546096861346" lon="8.217067117607497"><ele>957.4</ele><time>2026-04-04T14:23:34Z</time></trkpt><trkpt lat="44.23347450655035" lon="8.216980002766677"><ele>956.0</ele><time>2026-04-04T14:23:35Z</time></trkpt><trkpt lat="44.23340593336797" lon="8.216886475662882"><ele>956.0</ele><time>2026-04-04T14:23:36Z</time></trkpt><trkpt lat="44.23332568633019" lon="8.216772983281972"><ele>955.9999999999999</ele><time>2026-04-04T14:23:37Z</time></trkpt><trkpt lat="44.23326405990909" lon="8.21668526233338"><ele>955.9999999999999</ele><time>2026-04-04T14:23:38Z</time></trkpt><trkpt lat="44.23317296313766" lon="8.216582621701132"><ele>956.0</ele><time>2026-04-04T14:23:39Z</time></trkpt><trkpt lat="44.23308882869164" lon="8.21646084352971"><ele>956.0</ele><time>2026-04-04T14:23:40Z</time></trkpt><trkpt lat="44.233010055443096" lon="8.216314080153335"><ele>954.5999999999999</ele><time>2026-04-04T14:23:41Z</time></trkpt><trkpt lat="44.232926554383454" lon="8.21619300483209"><ele>953.1999999999999</ele><time>2026-04-04T14:23:41.999Z</time></trkpt><trkpt lat="44.23283722024837" lon="8.216096657139314"><ele>951.8000000000001</ele><time>2026-04-04T14:23:42.999Z</time></trkpt><trkpt lat="44.232776512879596" lon="8.215975446790019"><ele>950.4000000000001</ele><time>2026-04-04T14:23:43.999Z</time></trkpt><trkpt lat="44.232707748077544" lon="8.21587729264403"><ele>949.0</ele><time>2026-04-04T14:23:44.999Z</time></trkpt><trkpt lat="44.23263947434756" lon="8.215780151082356"><ele>949.0</ele><time>2026-04-04T14:23:45.999Z</time></trkpt><trkpt lat="44.23256926236345" lon="8.215680251649912"><ele>949.0</ele><time>2026-04-04T14:23:46.999Z</time></trkpt><trkpt lat="44.23249112828288" lon="8.215573465734343"><ele>949.0</ele><time>2026-04-04T14:23:47.999Z</time></trkpt><trkpt lat="44.23240500824065" lon="8.215461712299424"><ele>949.0</ele><time>2026-04-04T14:23:48.999Z</time></trkpt><trkpt lat="44.23230104325052" lon="8.21536557654249"><ele>947.0</ele><time>2026-04-04T14:23:49.999Z</time></trkpt><trkpt lat="44.23221188864948" lon="8.215236187601175"><ele>945.0</ele><time>2026-04-04T14:23:50.999Z</time></trkpt><trkpt lat="44.23212174842235" lon="8.215126653053604"><ele>943.0</ele><time>2026-04-04T14:23:51.999Z</time></trkpt><trkpt lat="44.23203290188635" lon="8.215016374509132"><ele>941.0</ele><time>2026-04-04T14:23:52.999Z</time></trkpt><trkpt lat="44.23194558595509" lon="8.214927485516123"><ele>941.0</ele><time>2026-04-04T14:23:53.999Z</time></trkpt><trkpt lat="44.231869845772835" lon="8.214824599684365"><ele>940.9999999999999</ele><time>2026-04-04T14:23:54.999Z</time></trkpt><trkpt lat="44.23179961505242" lon="8.214730250230268"><ele>940.9999999999999</ele><time>2026-04-04T14:23:55.999Z</time></trkpt><trkpt lat="44.231729379583726" lon="8.214639544502973"><ele>941.0</ele><time>2026-04-04T14:23:56.999Z</time></trkpt><trkpt lat="44.23166583426294" lon="8.214546877298751"><ele>941.0</ele><time>2026-04-04T14:23:57.999Z</time></trkpt><trkpt lat="44.23160202156741" lon="8.214463321982699"><ele>939.5999999999999</ele><time>2026-04-04T14:23:58.999Z</time></trkpt><trkpt lat="44.23153781784091" lon="8.214382213293739"><ele>938.1999999999999</ele><time>2026-04-04T14:23:59.999Z</time></trkpt><trkpt lat="44.23148460941072" lon="8.21431538320301"><ele>936.8000000000001</ele><time>2026-04-04T14:24:00.999Z</time></trkpt><trkpt lat="44.231402634825" lon="8.2142093337562"><ele>935.4000000000001</ele><time>2026-04-04T14:24:02.999Z</time></trkpt><trkpt lat="44.23133951306008" lon="8.21415070273932"><ele>934.0</ele><time>2026-04-04T14:24:05.999Z</time></trkpt><trkpt lat="44.231261698577214" lon="8.214312346050763"><ele>934.0</ele><time>2026-04-04T14:24:07.999Z</time></trkpt><trkpt lat="44.23116323046527" lon="8.214243439851396"><ele>934.0000000000001</ele><time>2026-04-04T14:24:08.999Z</time></trkpt><trkpt lat="44.23108357612293" lon="8.214328932082623"><ele>934.0000000000001</ele><time>2026-04-04T14:24:09.999Z</time></trkpt><trkpt lat="44.23100137012066" lon="8.214342998119221"><ele>934.0</ele><time>2026-04-04T14:24:10.999Z</time></trkpt><trkpt lat="44.23088920666934" lon="8.214366060655399"><ele>934.0</ele><time>2026-04-04T14:24:11.999Z</time></trkpt><trkpt lat="44.23078313332076" lon="8.214379374245588"><ele>934.0</ele><time>2026-04-04T14:24:12.999Z</time></trkpt><trkpt lat="44.23069131989635" lon="8.214314709918488"><ele>934.0000000000001</ele><time>2026-04-04T14:24:13.999Z</time></trkpt><trkpt lat="44.230608789951724" lon="8.214271037591313"><ele>934.0000000000001</ele><time>2026-04-04T14:24:14.999Z</time></trkpt><trkpt lat="44.23051780958592" lon="8.214250992122526"><ele>934.0</ele><time>2026-04-04T14:24:15.999Z</time></trkpt><trkpt lat="44.2304342093704" lon="8.214219211380971"><ele>934.0</ele><time>2026-04-04T14:24:16.999Z</time></trkpt><trkpt lat="44.230346027290096" lon="8.21428568887676"><ele>929.8000000000001</ele><time>2026-04-04T14:24:17.999Z</time></trkpt><trkpt lat="44.23026478132334" lon="8.21437585365392"><ele>925.6000000000001</ele><time>2026-04-04T14:24:18.999Z</time></trkpt><trkpt lat="44.23017078788075" lon="8.214466061896475"><ele>921.4</ele><time>2026-04-04T14:24:19.999Z</time></trkpt><trkpt lat="44.23007735833875" lon="8.214545692742481"><ele>917.2</ele><time>2026-04-04T14:24:20.999Z</time></trkpt><trkpt lat="44.22997999358015" lon="8.214620056615576"><ele>913.0</ele><time>2026-04-04T14:24:21.999Z</time></trkpt><trkpt lat="44.229882890941994" lon="8.21469116384781"><ele>910.4</ele><time>2026-04-04T14:24:22.999Z</time></trkpt><trkpt lat="44.22978952777" lon="8.214757635836243"><ele>907.8</ele><time>2026-04-04T14:24:23.999Z</time></trkpt><trkpt lat="44.22970545219803" lon="8.21481118131322"><ele>905.2</ele><time>2026-04-04T14:24:24.999Z</time></trkpt><trkpt lat="44.229618098816175" lon="8.214846697779343"><ele>902.6</ele><time>2026-04-04T14:24:25.999Z</time></trkpt><trkpt lat="44.22952911798852" lon="8.214841890327776"><ele>900.0</ele><time>2026-04-04T14:24:26.999Z</time></trkpt><trkpt lat="44.22943616870671" lon="8.214806448558369"><ele>900.0</ele><time>2026-04-04T14:24:27.999Z</time></trkpt><trkpt lat="44.22934762502129" lon="8.214744397193538"><ele>900.0</ele><time>2026-04-04T14:24:28.999Z</time></trkpt><trkpt lat="44.22926787126278" lon="8.214675119288817"><ele>900.0</ele><time>2026-04-04T14:24:29.999Z</time></trkpt><trkpt lat="44.22919545832914" lon="8.214592786582115"><ele>900.0</ele><time>2026-04-04T14:24:30.999Z</time></trkpt><trkpt lat="44.22912012036795" lon="8.214506477548616"><ele>900.0</ele><time>2026-04-04T14:24:31.999Z</time></trkpt><trkpt lat="44.229034760741186" lon="8.214451374104069"><ele>897.0</ele><time>2026-04-04T14:24:32.999Z</time></trkpt><trkpt lat="44.2289426722607" lon="8.21442606604928"><ele>894.0</ele><time>2026-04-04T14:24:33.999Z</time></trkpt><trkpt lat="44.22884895839458" lon="8.214433189551858"><ele>891.0</ele><time>2026-04-04T14:24:34.999Z</time></trkpt><trkpt lat="44.22876647092322" lon="8.2145025086442"><ele>888.0</ele><time>2026-04-04T14:24:35.999Z</time></trkpt><trkpt lat="44.22869961294778" lon="8.214576249420126"><ele>885.0</ele><time>2026-04-04T14:24:36.999Z</time></trkpt><trkpt lat="44.22864157265686" lon="8.21468630593512"><ele>885.0</ele><time>2026-04-04T14:24:37.998Z</time></trkpt><trkpt lat="44.228596339629" lon="8.214819676948682"><ele>885.0</ele><time>2026-04-04T14:24:38.998Z</time></trkpt><trkpt lat="44.22855560540718" lon="8.214943515498664"><ele>885.0</ele><time>2026-04-04T14:24:39.998Z</time></trkpt><trkpt lat="44.22852701302351" lon="8.215057990156952"><ele>885.0</ele><time>2026-04-04T14:24:40.998Z</time></trkpt><trkpt lat="44.22849091557749" lon="8.21517161027459"><ele>885.0</ele><time>2026-04-04T14:24:41.998Z</time></trkpt><trkpt lat="44.22846726904226" lon="8.215287634347646"><ele>887.8</ele><time>2026-04-04T14:24:42.998Z</time></trkpt><trkpt lat="44.22843966317387" lon="8.215398644047811"><ele>890.6</ele><time>2026-04-04T14:24:43.998Z</time></trkpt><trkpt lat="44.22840431176969" lon="8.215509813124397"><ele>893.4000000000001</ele><time>2026-04-04T14:24:44.998Z</time></trkpt><trkpt lat="44.22834710050144" lon="8.215615512549688"><ele>896.2</ele><time>2026-04-04T14:24:45.998Z</time></trkpt><trkpt lat="44.22828244075376" lon="8.215714899577852"><ele>899.0</ele><time>2026-04-04T14:24:46.998Z</time></trkpt><trkpt lat="44.2282113169313" lon="8.215813681935737"><ele>896.6</ele><time>2026-04-04T14:24:47.998Z</time></trkpt><trkpt lat="44.228141841643804" lon="8.215913402078268"><ele>894.2</ele><time>2026-04-04T14:24:48.998Z</time></trkpt><trkpt lat="44.22807419302854" lon="8.216014520020476"><ele>891.8000000000001</ele><time>2026-04-04T14:24:49.998Z</time></trkpt><trkpt lat="44.228001879455306" lon="8.216111752904432"><ele>889.4000000000001</ele><time>2026-04-04T14:24:50.998Z</time></trkpt><trkpt lat="44.227937784960375" lon="8.216204910738272"><ele>887.0</ele><time>2026-04-04T14:24:51.998Z</time></trkpt><trkpt lat="44.22786952547889" lon="8.216289365780147"><ele>887.0</ele><time>2026-04-04T14:24:53Z</time></trkpt><trkpt lat="44.22779121313145" lon="8.216352121425588"><ele>887.0</ele><time>2026-04-04T14:24:54Z</time></trkpt><trkpt lat="44.22770175917543" lon="8.216371552145569"><ele>887.0</ele><time>2026-04-04T14:24:55Z</time></trkpt><trkpt lat="44.22760231866516" lon="8.216402721365588"><ele>887.0</ele><time>2026-04-04T14:24:56Z</time></trkpt><trkpt lat="44.22751454714153" lon="8.21641539673914"><ele>887.0</ele><time>2026-04-04T14:24:57Z</time></trkpt><trkpt lat="44.22743032404928" lon="8.21639110993228"><ele>887.0</ele><time>2026-04-04T14:24:58Z</time></trkpt><trkpt lat="44.2273679210895" lon="8.216320170836923"><ele>887.0</ele><time>2026-04-04T14:24:59Z</time></trkpt><trkpt lat="44.22731537552509" lon="8.21618731960518"><ele>887.0</ele><time>2026-04-04T14:25:00Z</time></trkpt><trkpt lat="44.227263165597535" lon="8.21603341340461"><ele>887.0</ele><time>2026-04-04T14:25:01Z</time></trkpt><trkpt lat="44.22720205847385" lon="8.215931179970934"><ele>887.0</ele><time>2026-04-04T14:25:02Z</time></trkpt><trkpt lat="44.22713616264224" lon="8.21586576585497"><ele>887.8</ele><time>2026-04-04T14:25:03Z</time></trkpt><trkpt lat="44.22707052961866" lon="8.215796510514922"><ele>888.6</ele><time>2026-04-04T14:25:04Z</time></trkpt><trkpt lat="44.22697889191911" lon="8.215891481118597"><ele>889.3999999999999</ele><time>2026-04-04T14:25:05Z</time></trkpt><trkpt lat="44.22688508034466" lon="8.215873548241445"><ele>890.1999999999999</ele><time>2026-04-04T14:25:06Z</time></trkpt><trkpt lat="44.22677676406331" lon="8.215887898687715"><ele>891.0</ele><time>2026-04-04T14:25:07Z</time></trkpt><trkpt lat="44.22666151077986" lon="8.215928060218378"><ele>891.0</ele><time>2026-04-04T14:25:08Z</time></trkpt><trkpt lat="44.2265472398102" lon="8.215931253806993"><ele>890.9999999999999</ele><time>2026-04-04T14:25:09Z</time></trkpt><trkpt lat="44.22643710658833" lon="8.215916235731749"><ele>890.9999999999999</ele><time>2026-04-04T14:25:10Z</time></trkpt><trkpt lat="44.22633469070289" lon="8.215891324253311"><ele>891.0</ele><time>2026-04-04T14:25:11Z</time></trkpt><trkpt lat="44.22623881745556" lon="8.215876904909507"><ele>891.0</ele><time>2026-04-04T14:25:12Z</time></trkpt><trkpt lat="44.226142249153746" lon="8.21584935556158"><ele>891.8</ele><time>2026-04-04T14:25:13Z</time></trkpt><trkpt lat="44.22606841419071" lon="8.215798471831215"><ele>892.5999999999999</ele><time>2026-04-04T14:25:14Z</time></trkpt><trkpt lat="44.22599581043972" lon="8.215719637864897"><ele>893.4</ele><time>2026-04-04T14:25:15Z</time></trkpt><trkpt lat="44.22592582548884" lon="8.215636567323315"><ele>894.2</ele><time>2026-04-04T14:25:16Z</time></trkpt><trkpt lat="44.22587249883275" lon="8.215536763053938"><ele>895.0</ele><time>2026-04-04T14:25:17Z</time></trkpt><trkpt lat="44.22582032323749" lon="8.215422237435128"><ele>888.6</ele><time>2026-04-04T14:25:18Z</time></trkpt><trkpt lat="44.22578041483159" lon="8.215316153125002"><ele>882.2</ele><time>2026-04-04T14:25:19Z</time></trkpt><trkpt lat="44.22574162488524" lon="8.215225867845575"><ele>875.8</ele><time>2026-04-04T14:25:20Z</time></trkpt><trkpt lat="44.22569221875756" lon="8.21513622300519"><ele>869.4</ele><time>2026-04-04T14:25:21Z</time></trkpt><trkpt lat="44.225615411968526" lon="8.215089874208134"><ele>863.0</ele><time>2026-04-04T14:25:22Z</time></trkpt><trkpt lat="44.225475780576716" lon="8.215086045949606"><ele>862.25</ele><time>2026-04-04T14:25:24Z</time></trkpt><trkpt lat="44.22539225809087" lon="8.215130533501728"><ele>861.5</ele><time>2026-04-04T14:25:25Z</time></trkpt><trkpt lat="44.225274147315275" lon="8.21515076883937"><ele>860.75</ele><time>2026-04-04T14:25:26Z</time></trkpt><trkpt lat="44.225143707638836" lon="8.215159591479926"><ele>860.0</ele><time>2026-04-04T14:25:27Z</time></trkpt><trkpt lat="44.22503055017571" lon="8.215177440732106"><ele>860.0</ele><time>2026-04-04T14:25:28Z</time></trkpt><trkpt lat="44.224934658228676" lon="8.215239624941226"><ele>860.0</ele><time>2026-04-04T14:25:29Z</time></trkpt><trkpt lat="44.224839869484086" lon="8.215326244207775"><ele>860.0</ele><time>2026-04-04T14:25:30Z</time></trkpt><trkpt lat="44.224767454327974" lon="8.215461414593348"><ele>860.0</ele><time>2026-04-04T14:25:31Z</time></trkpt><trkpt lat="44.22472184976907" lon="8.215632508190309"><ele>857.25</ele><time>2026-04-04T14:25:32Z</time></trkpt><trkpt lat="44.22467558877906" lon="8.215811462389674"><ele>854.5</ele><time>2026-04-04T14:25:33Z</time></trkpt><trkpt lat="44.22461116767938" lon="8.215980307493924"><ele>851.75</ele><time>2026-04-04T14:25:34Z</time></trkpt><trkpt lat="44.224514629624956" lon="8.216146428944745"><ele>849.0</ele><time>2026-04-04T14:25:35Z</time></trkpt><trkpt lat="44.22445793766137" lon="8.216327216923474"><ele>849.0</ele><time>2026-04-04T14:25:36Z</time></trkpt><trkpt lat="44.22440808949244" lon="8.21648322867154"><ele>849.0</ele><time>2026-04-04T14:25:37Z</time></trkpt><trkpt lat="44.22432834764628" lon="8.216590355193846"><ele>849.0</ele><time>2026-04-04T14:25:38Z</time></trkpt><trkpt lat="44.22423524953837" lon="8.21671516606258"><ele>849.0</ele><time>2026-04-04T14:25:39Z</time></trkpt><trkpt lat="44.22414996640365" lon="8.216873124113397"><ele>850.75</ele><time>2026-04-04T14:25:40Z</time></trkpt><trkpt lat="44.22408317306231" lon="8.217041275450374"><ele>852.5</ele><time>2026-04-04T14:25:41Z</time></trkpt><trkpt lat="44.224050988711056" lon="8.217222079621711"><ele>854.25</ele><time>2026-04-04T14:25:42Z</time></trkpt><trkpt lat="44.22401418593449" lon="8.217397671931794"><ele>856.0</ele><time>2026-04-04T14:25:43Z</time></trkpt><trkpt lat="44.2240321401681" lon="8.217601988759144"><ele>857.0</ele><time>2026-04-04T14:25:44Z</time></trkpt><trkpt lat="44.224025426957986" lon="8.217804176151684"><ele>858.0</ele><time>2026-04-04T14:25:44.999Z</time></trkpt><trkpt lat="44.2240341605704" lon="8.217965164342685"><ele>859.0</ele><time>2026-04-04T14:25:45.999Z</time></trkpt><trkpt lat="44.22404467622607" lon="8.218120318899341"><ele>860.0</ele><time>2026-04-04T14:25:46.999Z</time></trkpt><trkpt lat="44.22408267265839" lon="8.2182634546469"><ele>860.0</ele><time>2026-04-04T14:25:47.999Z</time></trkpt><trkpt lat="44.22416143219327" lon="8.218379275496128"><ele>860.0</ele><time>2026-04-04T14:25:48.999Z</time></trkpt><trkpt lat="44.22425272130335" lon="8.218485561204956"><ele>860.0</ele><time>2026-04-04T14:25:49.999Z</time></trkpt><trkpt lat="44.22429723578556" lon="8.218618402644767"><ele>860.0</ele><time>2026-04-04T14:25:50.999Z</time></trkpt><trkpt lat="44.22429851532579" lon="8.218752480004094"><ele>860.0</ele><time>2026-04-04T14:25:51.999Z</time></trkpt><trkpt lat="44.22427644626797" lon="8.218929200095335"><ele>857.0</ele><time>2026-04-04T14:25:52.999Z</time></trkpt><trkpt lat="44.22426514467025" lon="8.219101034928194"><ele>854.0</ele><time>2026-04-04T14:25:53.999Z</time></trkpt><trkpt lat="44.224228218975696" lon="8.219241185567856"><ele>851.0</ele><time>2026-04-04T14:25:54.999Z</time></trkpt><trkpt lat="44.224163165563795" lon="8.21939477067333"><ele>848.0</ele><time>2026-04-04T14:25:55.999Z</time></trkpt><trkpt lat="44.22408196281317" lon="8.219533897631656"><ele>848.0</ele><time>2026-04-04T14:25:56.999Z</time></trkpt><trkpt lat="44.22400190999008" lon="8.219664418021711"><ele>848.0</ele><time>2026-04-04T14:25:57.999Z</time></trkpt><trkpt lat="44.22392639062228" lon="8.219773797224851"><ele>848.0</ele><time>2026-04-04T14:25:58.999Z</time></trkpt><trkpt lat="44.22384019748199" lon="8.219843188234332"><ele>848.0</ele><time>2026-04-04T14:25:59.999Z</time></trkpt><trkpt lat="44.22373954603823" lon="8.219889331134684"><ele>848.0</ele><time>2026-04-04T14:26:00.999Z</time></trkpt><trkpt lat="44.22362226549835" lon="8.219945240311283"><ele>843.25</ele><time>2026-04-04T14:26:01.999Z</time></trkpt><trkpt lat="44.22353727339451" lon="8.220092961414577"><ele>838.5</ele><time>2026-04-04T14:26:02.999Z</time></trkpt><trkpt lat="44.22344411533227" lon="8.220204840854883"><ele>833.75</ele><time>2026-04-04T14:26:03.999Z</time></trkpt><trkpt lat="44.22335277589774" lon="8.220286343710434"><ele>829.0</ele><time>2026-04-04T14:26:04.999Z</time></trkpt><trkpt lat="44.22325763276075" lon="8.220362633287442"><ele>829.0</ele><time>2026-04-04T14:26:05.999Z</time></trkpt><trkpt lat="44.223163441080615" lon="8.220422653429562"><ele>829.0</ele><time>2026-04-04T14:26:06.999Z</time></trkpt><trkpt lat="44.22306906093369" lon="8.220440379034676"><ele>829.0</ele><time>2026-04-04T14:26:07.999Z</time></trkpt><trkpt lat="44.222973940619994" lon="8.220385841979772"><ele>829.0</ele><time>2026-04-04T14:26:08.999Z</time></trkpt><trkpt lat="44.2228377218384" lon="8.220367372852035"><ele>829.0</ele><time>2026-04-04T14:26:09.999Z</time></trkpt><trkpt lat="44.222695926401464" lon="8.220432868473084"><ele>822.3333333333333</ele><time>2026-04-04T14:26:10.999Z</time></trkpt><trkpt lat="44.222538053507215" lon="8.220483066116977"><ele>815.6666666666667</ele><time>2026-04-04T14:26:11.999Z</time></trkpt><trkpt lat="44.22239079683632" lon="8.220523725558905"><ele>809.0</ele><time>2026-04-04T14:26:12.999Z</time></trkpt><trkpt lat="44.22224229774709" lon="8.220527671053986"><ele>804.3333333333334</ele><time>2026-04-04T14:26:13.999Z</time></trkpt><trkpt lat="44.22207549469896" lon="8.22053644866929"><ele>799.6666666666667</ele><time>2026-04-04T14:26:14.999Z</time></trkpt><trkpt lat="44.22191327416114" lon="8.220546450701377"><ele>795.0</ele><time>2026-04-04T14:26:15.999Z</time></trkpt><trkpt lat="44.221791289365044" lon="8.220554667149594"><ele>795.0</ele><time>2026-04-04T14:26:16.999Z</time></trkpt><trkpt lat="44.22165272661292" lon="8.220567090120374"><ele>795.0</ele><time>2026-04-04T14:26:17.999Z</time></trkpt><trkpt lat="44.22151529477065" lon="8.220592473869646"><ele>795.0</ele><time>2026-04-04T14:26:18.999Z</time></trkpt><trkpt lat="44.221388718226564" lon="8.220617713714272"><ele>795.0</ele><time>2026-04-04T14:26:19.999Z</time></trkpt><trkpt lat="44.22124877137687" lon="8.2206456196519"><ele>798.0</ele><time>2026-04-04T14:26:20.999Z</time></trkpt><trkpt lat="44.221119015923605" lon="8.220671493382918"><ele>801.0</ele><time>2026-04-04T14:26:21.999Z</time></trkpt><trkpt lat="44.221041916052144" lon="8.221008825841086"><ele>804.0</ele><time>2026-04-04T14:26:22.999Z</time></trkpt><trkpt lat="44.220950593239195" lon="8.22113252076571"><ele>804.0</ele><time>2026-04-04T14:26:23.999Z</time></trkpt><trkpt lat="44.220846336418504" lon="8.221225889329336"><ele>804.0</ele><time>2026-04-04T14:26:24.999Z</time></trkpt><trkpt lat="44.22071606888085" lon="8.221284877809612"><ele>804.0</ele><time>2026-04-04T14:26:25.999Z</time></trkpt><trkpt lat="44.22058442928169" lon="8.221316104333043"><ele>804.0</ele><time>2026-04-04T14:26:26.999Z</time></trkpt><trkpt lat="44.220464358840644" lon="8.221358808663625"><ele>801.5</ele><time>2026-04-04T14:26:27.999Z</time></trkpt><trkpt lat="44.2203603747628" lon="8.22142633782393"><ele>799.0</ele><time>2026-04-04T14:26:28.999Z</time></trkpt><trkpt lat="44.220263574361056" lon="8.22152320571845"><ele>796.5</ele><time>2026-04-04T14:26:29.999Z</time></trkpt><trkpt lat="44.220176751352184" lon="8.22166692289727"><ele>794.0</ele><time>2026-04-04T14:26:30.999Z</time></trkpt><trkpt lat="44.22011573972176" lon="8.221841855762204"><ele>794.0</ele><time>2026-04-04T14:26:31.999Z</time></trkpt><trkpt lat="44.22005977824725" lon="8.222011702306405"><ele>794.0</ele><time>2026-04-04T14:26:32.999Z</time></trkpt><trkpt lat="44.22001088550695" lon="8.222164748651787"><ele>794.0</ele><time>2026-04-04T14:26:33.999Z</time></trkpt><trkpt lat="44.21998491379391" lon="8.222303780212211"><ele>794.0</ele><time>2026-04-04T14:26:34.999Z</time></trkpt><trkpt lat="44.21998057059707" lon="8.222431903910492"><ele>794.0</ele><time>2026-04-04T14:26:35.999Z</time></trkpt><trkpt lat="44.22000900158327" lon="8.222553557670098"><ele>794.0</ele><time>2026-04-04T14:26:36.999Z</time></trkpt><trkpt lat="44.220074470292225" lon="8.222644166715922"><ele>794.0</ele><time>2026-04-04T14:26:37.999Z</time></trkpt><trkpt lat="44.220147219125074" lon="8.222710180343869"><ele>794.0</ele><time>2026-04-04T14:26:38.999Z</time></trkpt><trkpt lat="44.22022273311957" lon="8.222787348763072"><ele>794.0</ele><time>2026-04-04T14:26:39.998Z</time></trkpt><trkpt lat="44.22019763559845" lon="8.222914926807228"><ele>794.0</ele><time>2026-04-04T14:26:40.998Z</time></trkpt><trkpt lat="44.220161322536974" lon="8.223037418149241"><ele>793.2</ele><time>2026-04-04T14:26:41.998Z</time></trkpt><trkpt lat="44.22016036169663" lon="8.22319068945619"><ele>792.4000000000001</ele><time>2026-04-04T14:26:42.998Z</time></trkpt><trkpt lat="44.220179443517694" lon="8.223336415745976"><ele>791.6</ele><time>2026-04-04T14:26:43.998Z</time></trkpt><trkpt lat="44.22023124051015" lon="8.223447121254926"><ele>790.8</ele><time>2026-04-04T14:26:44.998Z</time></trkpt><trkpt lat="44.22022384068881" lon="8.223562630898957"><ele>790.0</ele><time>2026-04-04T14:26:45.998Z</time></trkpt><trkpt lat="44.220191904936584" lon="8.223655203277112"><ele>790.0</ele><time>2026-04-04T14:26:46.998Z</time></trkpt><trkpt lat="44.220119994383516" lon="8.22370204098279"><ele>790.0</ele><time>2026-04-04T14:26:47.998Z</time></trkpt><trkpt lat="44.220026223745144" lon="8.223687294617397"><ele>790.0</ele><time>2026-04-04T14:26:48.998Z</time></trkpt><trkpt lat="44.21992468939243" lon="8.223688616409977"><ele>790.0</ele><time>2026-04-04T14:26:49.998Z</time></trkpt><trkpt lat="44.21980735258954" lon="8.22370013237653"><ele>790.0</ele><time>2026-04-04T14:26:50.998Z</time></trkpt><trkpt lat="44.21969230438319" lon="8.22373054764733"><ele>787.4</ele><time>2026-04-04T14:26:51.998Z</time></trkpt><trkpt lat="44.2195913954759" lon="8.223743148033474"><ele>784.8</ele><time>2026-04-04T14:26:52.998Z</time></trkpt><trkpt lat="44.21950095556987" lon="8.223758237300308"><ele>782.2</ele><time>2026-04-04T14:26:53.998Z</time></trkpt><trkpt lat="44.21942820759212" lon="8.223808061729956"><ele>779.6</ele><time>2026-04-04T14:26:54.998Z</time></trkpt><trkpt lat="44.21936796759231" lon="8.22388212144094"><ele>777.0</ele><time>2026-04-04T14:26:55.998Z</time></trkpt><trkpt lat="44.21930086174147" lon="8.224016583928242"><ele>777.0</ele><time>2026-04-04T14:26:56.998Z</time></trkpt><trkpt lat="44.21924186650682" lon="8.224179368859824"><ele>777.0</ele><time>2026-04-04T14:26:57.998Z</time></trkpt><trkpt lat="44.21915737345134" lon="8.22430499712037"><ele>777.0</ele><time>2026-04-04T14:26:59Z</time></trkpt><trkpt lat="44.21906176999361" lon="8.224420018712362"><ele>777.0</ele><time>2026-04-04T14:27:00Z</time></trkpt><trkpt lat="44.21896390365382" lon="8.224514931796477"><ele>768.25</ele><time>2026-04-04T14:27:01Z</time></trkpt><trkpt lat="44.218881937574935" lon="8.224621011829592"><ele>759.5</ele><time>2026-04-04T14:27:02Z</time></trkpt><trkpt lat="44.21882301737782" lon="8.22477116651376"><ele>750.75</ele><time>2026-04-04T14:27:03Z</time></trkpt><trkpt lat="44.21876971651617" lon="8.224914641806752"><ele>742.0</ele><time>2026-04-04T14:27:04Z</time></trkpt><trkpt lat="44.21873667503558" lon="8.225077843457093"><ele>742.0</ele><time>2026-04-04T14:27:05Z</time></trkpt><trkpt lat="44.21872847204157" lon="8.225254052878496"><ele>742.0</ele><time>2026-04-04T14:27:06Z</time></trkpt><trkpt lat="44.21872313321632" lon="8.225404031972518"><ele>742.0</ele><time>2026-04-04T14:27:07Z</time></trkpt><trkpt lat="44.21869750055643" lon="8.225528527117845"><ele>742.0</ele><time>2026-04-04T14:27:08Z</time></trkpt><trkpt lat="44.21864589362711" lon="8.2256345184123"><ele>742.0</ele><time>2026-04-04T14:27:09Z</time></trkpt><trkpt lat="44.218564849366054" lon="8.22572422968228"><ele>736.75</ele><time>2026-04-04T14:27:10Z</time></trkpt><trkpt lat="44.218459027606265" lon="8.225778494029209"><ele>731.5</ele><time>2026-04-04T14:27:11Z</time></trkpt><trkpt lat="44.218339400809974" lon="8.225835469527327"><ele>726.25</ele><time>2026-04-04T14:27:12Z</time></trkpt><trkpt lat="44.21823582429558" lon="8.225901665185209"><ele>721.0</ele><time>2026-04-04T14:27:13Z</time></trkpt><trkpt lat="44.21814594153886" lon="8.226008372789941"><ele>721.0</ele><time>2026-04-04T14:27:14Z</time></trkpt><trkpt lat="44.21807470135729" lon="8.226134547933883"><ele>721.0</ele><time>2026-04-04T14:27:15Z</time></trkpt><trkpt lat="44.2180477799179" lon="8.226287732794022"><ele>721.0</ele><time>2026-04-04T14:27:16Z</time></trkpt><trkpt lat="44.218054001002926" lon="8.226441551878688"><ele>721.0</ele><time>2026-04-04T14:27:17Z</time></trkpt><trkpt lat="44.21804480176805" lon="8.226580245692206"><ele>721.0</ele><time>2026-04-04T14:27:18Z</time></trkpt><trkpt lat="44.21800835117413" lon="8.226695754366416"><ele>726.4</ele><time>2026-04-04T14:27:19Z</time></trkpt><trkpt lat="44.21794774449496" lon="8.226805051534944"><ele>731.8</ele><time>2026-04-04T14:27:20Z</time></trkpt><trkpt lat="44.21786478938779" lon="8.226831402868152"><ele>737.1999999999999</ele><time>2026-04-04T14:27:21Z</time></trkpt><trkpt lat="44.21776663955756" lon="8.226852053774765"><ele>742.5999999999999</ele><time>2026-04-04T14:27:22Z</time></trkpt><trkpt lat="44.21764871984415" lon="8.22684945211175"><ele>748.0</ele><time>2026-04-04T14:27:23Z</time></trkpt><trkpt lat="44.21748532471975" lon="8.226865848465625"><ele>748.0</ele><time>2026-04-04T14:27:24Z</time></trkpt><trkpt lat="44.217356896947344" lon="8.226869796020528"><ele>748.0</ele><time>2026-04-04T14:27:25Z</time></trkpt><trkpt lat="44.217238123311525" lon="8.226902963052323"><ele>748.0</ele><time>2026-04-04T14:27:26Z</time></trkpt><trkpt lat="44.217112027668975" lon="8.226934733878778"><ele>748.0</ele><time>2026-04-04T14:27:27Z</time></trkpt><trkpt lat="44.21699839305067" lon="8.226987432152859"><ele>748.0</ele><time>2026-04-04T14:27:28Z</time></trkpt><trkpt lat="44.21688655365317" lon="8.227054296371305"><ele>748.0</ele><time>2026-04-04T14:27:29Z</time></trkpt><trkpt lat="44.21678708857051" lon="8.2271669532584"><ele>748.0</ele><time>2026-04-04T14:27:30Z</time></trkpt><trkpt lat="44.21669731424033" lon="8.227319998941478"><ele>748.0</ele><time>2026-04-04T14:27:31Z</time></trkpt><trkpt lat="44.21660136944475" lon="8.227485967190358"><ele>748.0</ele><time>2026-04-04T14:27:32Z</time></trkpt><trkpt lat="44.216490600028386" lon="8.227625675429943"><ele>748.0</ele><time>2026-04-04T14:27:33Z</time></trkpt><trkpt lat="44.21640303799741" lon="8.227772874181353"><ele>748.0</ele><time>2026-04-04T14:27:34Z</time></trkpt><trkpt lat="44.21631406558636" lon="8.22791080389251"><ele>748.0</ele><time>2026-04-04T14:27:35Z</time></trkpt><trkpt lat="44.21620624780252" lon="8.22802025126082"><ele>746.25</ele><time>2026-04-04T14:27:36Z</time></trkpt><trkpt lat="44.21610091361909" lon="8.228130283634327"><ele>744.5</ele><time>2026-04-04T14:27:37Z</time></trkpt><trkpt lat="44.21596380873663" lon="8.228183942004422"><ele>742.75</ele><time>2026-04-04T14:27:38Z</time></trkpt><trkpt lat="44.21583418699178" lon="8.228234548828661"><ele>741.0</ele><time>2026-04-04T14:27:38.999Z</time></trkpt><trkpt lat="44.215713078868475" lon="8.228326110492654"><ele>729.3333333333334</ele><time>2026-04-04T14:27:39.999Z</time></trkpt><trkpt lat="44.215595569273596" lon="8.22846180310061"><ele>717.6666666666667</ele><time>2026-04-04T14:27:40.999Z</time></trkpt><trkpt lat="44.21548341832087" lon="8.228611973312383"><ele>706.0</ele><time>2026-04-04T14:27:41.999Z</time></trkpt><trkpt lat="44.2153719357002" lon="8.228748437563262"><ele>706.0</ele><time>2026-04-04T14:27:42.999Z</time></trkpt><trkpt lat="44.215259092633325" lon="8.228862316955341"><ele>706.0</ele><time>2026-04-04T14:27:43.999Z</time></trkpt><trkpt lat="44.215138673396744" lon="8.228955526638316"><ele>706.0</ele><time>2026-04-04T14:27:44.999Z</time></trkpt><trkpt lat="44.21501645478747" lon="8.229039057462561"><ele>706.0</ele><time>2026-04-04T14:27:45.999Z</time></trkpt><trkpt lat="44.21490593525578" lon="8.229143285416075"><ele>706.0</ele><time>2026-04-04T14:27:46.999Z</time></trkpt><trkpt lat="44.2148100005085" lon="8.229279715590295"><ele>706.0</ele><time>2026-04-04T14:27:47.999Z</time></trkpt><trkpt lat="44.214720288745795" lon="8.229444993207993"><ele>706.0</ele><time>2026-04-04T14:27:48.999Z</time></trkpt><trkpt lat="44.21464490702933" lon="8.229634513868248"><ele>706.0</ele><time>2026-04-04T14:27:49.999Z</time></trkpt><trkpt lat="44.21458735519506" lon="8.229826724292856"><ele>706.0</ele><time>2026-04-04T14:27:50.999Z</time></trkpt><trkpt lat="44.214526693382" lon="8.230019154917926"><ele>706.0</ele><time>2026-04-04T14:27:51.999Z</time></trkpt><trkpt lat="44.21447532992899" lon="8.230185739208345"><ele>706.0</ele><time>2026-04-04T14:27:52.999Z</time></trkpt><trkpt lat="44.21441225448705" lon="8.230316977973573"><ele>706.0</ele><time>2026-04-04T14:27:53.999Z</time></trkpt><trkpt lat="44.21436436108474" lon="8.230440045509612"><ele>706.0</ele><time>2026-04-04T14:27:54.999Z</time></trkpt><trkpt lat="44.21430558204993" lon="8.230533398931694"><ele>706.0</ele><time>2026-04-04T14:27:55.999Z</time></trkpt><trkpt lat="44.21422614827523" lon="8.230591922045111"><ele>706.0</ele><time>2026-04-04T14:27:56.999Z</time></trkpt><trkpt lat="44.21413843538285" lon="8.230576366350254"><ele>706.0</ele><time>2026-04-04T14:27:57.999Z</time></trkpt><trkpt lat="44.21404532132333" lon="8.230587636949755"><ele>706.0</ele><time>2026-04-04T14:27:58.999Z</time></trkpt><trkpt lat="44.2139527890395" lon="8.230608172325075"><ele>703.25</ele><time>2026-04-04T14:27:59.999Z</time></trkpt><trkpt lat="44.21386478648146" lon="8.230671903791057"><ele>700.5</ele><time>2026-04-04T14:28:00.999Z</time></trkpt><trkpt lat="44.213764817921685" lon="8.230784120552318"><ele>697.75</ele><time>2026-04-04T14:28:01.999Z</time></trkpt><trkpt lat="44.21367850640102" lon="8.230909215486408"><ele>695.0</ele><time>2026-04-04T14:28:02.999Z</time></trkpt><trkpt lat="44.21359347305056" lon="8.231045880867486"><ele>695.0</ele><time>2026-04-04T14:28:03.999Z</time></trkpt><trkpt lat="44.21351004154273" lon="8.231174854182967"><ele>695.0</ele><time>2026-04-04T14:28:04.999Z</time></trkpt><trkpt lat="44.213424783763514" lon="8.231298604379665"><ele>695.0</ele><time>2026-04-04T14:28:05.999Z</time></trkpt><trkpt lat="44.21334039545992" lon="8.231425366850097"><ele>695.0</ele><time>2026-04-04T14:28:06.999Z</time></trkpt><trkpt lat="44.21321343956152" lon="8.231494538795822"><ele>697.8</ele><time>2026-04-04T14:28:07.999Z</time></trkpt><trkpt lat="44.21309477345641" lon="8.231580699572136"><ele>700.6</ele><time>2026-04-04T14:28:08.999Z</time></trkpt><trkpt lat="44.212989135576535" lon="8.231662879489855"><ele>703.4000000000001</ele><time>2026-04-04T14:28:09.999Z</time></trkpt><trkpt lat="44.21290203794267" lon="8.231730733500655"><ele>706.2</ele><time>2026-04-04T14:28:10.999Z</time></trkpt><trkpt lat="44.21283207937128" lon="8.231768878961034"><ele>709.0</ele><time>2026-04-04T14:28:11.999Z</time></trkpt><trkpt lat="44.212751115045194" lon="8.231791672619108"><ele>709.0</ele><time>2026-04-04T14:28:12.999Z</time></trkpt><trkpt lat="44.21266987182806" lon="8.231781992216847"><ele>709.0</ele><time>2026-04-04T14:28:13.999Z</time></trkpt><trkpt lat="44.21258129113586" lon="8.231712532431102"><ele>709.0</ele><time>2026-04-04T14:28:14.999Z</time></trkpt><trkpt lat="44.212478701084336" lon="8.23163449572937"><ele>709.0</ele><time>2026-04-04T14:28:15.999Z</time></trkpt><trkpt lat="44.21236307493607" lon="8.231548563723186"><ele>709.0</ele><time>2026-04-04T14:28:16.999Z</time></trkpt><trkpt lat="44.2122156587889" lon="8.231479404711381"><ele>700.3333333333334</ele><time>2026-04-04T14:28:17.999Z</time></trkpt><trkpt lat="44.2120558704514" lon="8.231436763111793"><ele>691.6666666666666</ele><time>2026-04-04T14:28:18.999Z</time></trkpt><trkpt lat="44.2119009687513" lon="8.231389897044735"><ele>683.0</ele><time>2026-04-04T14:28:19.999Z</time></trkpt><trkpt lat="44.21176078955252" lon="8.231352827189792"><ele>683.0</ele><time>2026-04-04T14:28:20.999Z</time></trkpt><trkpt lat="44.21163043836935" lon="8.231300119193923"><ele>683.0</ele><time>2026-04-04T14:28:21.999Z</time></trkpt><trkpt lat="44.211497887624674" lon="8.231234517149652"><ele>683.0</ele><time>2026-04-04T14:28:22.999Z</time></trkpt><trkpt lat="44.21135784668144" lon="8.231166815707619"><ele>683.0</ele><time>2026-04-04T14:28:23.999Z</time></trkpt><trkpt lat="44.21123763393888" lon="8.231118459204463"><ele>682.25</ele><time>2026-04-04T14:28:24.999Z</time></trkpt><trkpt lat="44.211124508416745" lon="8.231079379982509"><ele>681.5</ele><time>2026-04-04T14:28:25.999Z</time></trkpt><trkpt lat="44.211018087157335" lon="8.231060819811702"><ele>680.75</ele><time>2026-04-04T14:28:26.999Z</time></trkpt><trkpt lat="44.210908617755486" lon="8.231098531970021"><ele>680.0</ele><time>2026-04-04T14:28:27.999Z</time></trkpt><trkpt lat="44.210791595101995" lon="8.231189842919532"><ele>680.0</ele><time>2026-04-04T14:28:28.999Z</time></trkpt><trkpt lat="44.21068892858822" lon="8.231318328708808"><ele>680.0</ele><time>2026-04-04T14:28:29.999Z</time></trkpt><trkpt lat="44.210589494949424" lon="8.23142954222158"><ele>680.0</ele><time>2026-04-04T14:28:30.998Z</time></trkpt><trkpt lat="44.2104954611814" lon="8.231511469317304"><ele>680.0</ele><time>2026-04-04T14:28:31.998Z</time></trkpt><trkpt lat="44.210400390933415" lon="8.231587257110883"><ele>678.0</ele><time>2026-04-04T14:28:32.998Z</time></trkpt><trkpt lat="44.21031851106662" lon="8.231670634619759"><ele>676.0</ele><time>2026-04-04T14:28:33.998Z</time></trkpt><trkpt lat="44.21025326044144" lon="8.231764079622303"><ele>674.0</ele><time>2026-04-04T14:28:34.998Z</time></trkpt><trkpt lat="44.21023083653933" lon="8.231898857454777"><ele>672.0</ele><time>2026-04-04T14:28:35.998Z</time></trkpt><trkpt lat="44.21026370017652" lon="8.23203429327665"><ele>670.0</ele><time>2026-04-04T14:28:36.998Z</time></trkpt><trkpt lat="44.210316958705306" lon="8.232161632158807"><ele>670.0</ele><time>2026-04-04T14:28:37.998Z</time></trkpt><trkpt lat="44.21039583074314" lon="8.232250516985044"><ele>670.0</ele><time>2026-04-04T14:28:38.998Z</time></trkpt><trkpt lat="44.21046145016666" lon="8.23233907417053"><ele>670.0</ele><time>2026-04-04T14:28:39.998Z</time></trkpt><trkpt lat="44.210517332731214" lon="8.232415391163414"><ele>670.0</ele><time>2026-04-04T14:28:40.998Z</time></trkpt><trkpt lat="44.21053973925042" lon="8.232504678954069"><ele>670.0</ele><time>2026-04-04T14:28:41.998Z</time></trkpt><trkpt lat="44.21051312033991" lon="8.23259369807751"><ele>670.0</ele><time>2026-04-04T14:28:42.998Z</time></trkpt><trkpt lat="44.210461093459756" lon="8.23267122561637"><ele>669.25</ele><time>2026-04-04T14:28:43.998Z</time></trkpt><trkpt lat="44.21040866545545" lon="8.232782520187456"><ele>668.5</ele><time>2026-04-04T14:28:44.998Z</time></trkpt><trkpt lat="44.21031462238942" lon="8.232876326521971"><ele>667.75</ele><time>2026-04-04T14:28:45.998Z</time></trkpt><trkpt lat="44.21020614316827" lon="8.232960041760013"><ele>667.0</ele><time>2026-04-04T14:28:46.998Z</time></trkpt><trkpt lat="44.210097485025116" lon="8.233036088588811"><ele>667.0</ele><time>2026-04-04T14:28:47.998Z</time></trkpt><trkpt lat="44.20999297446268" lon="8.233100384012015"><ele>667.0</ele><time>2026-04-04T14:28:48.998Z</time></trkpt><trkpt lat="44.20989950330982" lon="8.233155993651856"><ele>667.0</ele><time>2026-04-04T14:28:49.998Z</time></trkpt><trkpt lat="44.20981871046415" lon="8.233222411458364"><ele>667.0</ele><time>2026-04-04T14:28:50.998Z</time></trkpt><trkpt lat="44.20974240290949" lon="8.233287611560971"><ele>667.0</ele><time>2026-04-04T14:28:51.998Z</time></trkpt><trkpt lat="44.20967474975302" lon="8.23336084189566"><ele>664.4000000000001</ele><time>2026-04-04T14:28:52.998Z</time></trkpt><trkpt lat="44.2096083515846" lon="8.233459421342426"><ele>661.8000000000001</ele><time>2026-04-04T14:28:53.998Z</time></trkpt><trkpt lat="44.209589655141706" lon="8.233615762248917"><ele>659.2</ele><time>2026-04-04T14:28:54.998Z</time></trkpt><trkpt lat="44.20957396821237" lon="8.233763162514943"><ele>656.6</ele><time>2026-04-04T14:28:55.998Z</time></trkpt><trkpt lat="44.20957879857908" lon="8.233921763525968"><ele>654.0</ele><time>2026-04-04T14:28:56.998Z</time></trkpt><trkpt lat="44.20961234051408" lon="8.234076947234522"><ele>654.0</ele><time>2026-04-04T14:28:57.998Z</time></trkpt><trkpt lat="44.20962283016364" lon="8.234248778214809"><ele>654.0</ele><time>2026-04-04T14:28:58.998Z</time></trkpt><trkpt lat="44.20963863726638" lon="8.234392651886399"><ele>654.0</ele><time>2026-04-04T14:28:59.998Z</time></trkpt><trkpt lat="44.209624143922596" lon="8.234559109056894"><ele>654.0</ele><time>2026-04-04T14:29:00.998Z</time></trkpt><trkpt lat="44.20960124378618" lon="8.23474090561155"><ele>652.5</ele><time>2026-04-04T14:29:01.998Z</time></trkpt><trkpt lat="44.209583158603415" lon="8.23491727336295"><ele>651.0</ele><time>2026-04-04T14:29:02.998Z</time></trkpt><trkpt lat="44.209569373100116" lon="8.23508256696378"><ele>649.5</ele><time>2026-04-04T14:29:03.998Z</time></trkpt><trkpt lat="44.20954595299397" lon="8.235231190047267"><ele>648.0</ele><time>2026-04-04T14:29:05Z</time></trkpt><trkpt lat="44.20950184810391" lon="8.235377456608596"><ele>648.0</ele><time>2026-04-04T14:29:06Z</time></trkpt><trkpt lat="44.2094521054218" lon="8.235510899949286"><ele>648.0</ele><time>2026-04-04T14:29:07Z</time></trkpt><trkpt lat="44.209391965331115" lon="8.235661191003619"><ele>648.0</ele><time>2026-04-04T14:29:08Z</time></trkpt><trkpt lat="44.20933094843885" lon="8.235808985130836"><ele>648.0</ele><time>2026-04-04T14:29:09Z</time></trkpt><trkpt lat="44.20928559628364" lon="8.235918822790918"><ele>648.0</ele><time>2026-04-04T14:29:10Z</time></trkpt><trkpt lat="44.20924297296335" lon="8.236030359930906"><ele>648.75</ele><time>2026-04-04T14:29:11Z</time></trkpt><trkpt lat="44.20919188016584" lon="8.236164060275508"><ele>649.5</ele><time>2026-04-04T14:29:12Z</time></trkpt><trkpt lat="44.209126108503135" lon="8.236320126038187"><ele>650.25</ele><time>2026-04-04T14:29:13Z</time></trkpt><trkpt lat="44.20904803594195" lon="8.236464861604487"><ele>651.0</ele><time>2026-04-04T14:29:14Z</time></trkpt><trkpt lat="44.20899458136129" lon="8.236557368821654"><ele>645.4</ele><time>2026-04-04T14:29:15Z</time></trkpt><trkpt lat="44.20893193353472" lon="8.236674307896854"><ele>639.8</ele><time>2026-04-04T14:29:16Z</time></trkpt><trkpt lat="44.20888035139837" lon="8.236798556063123"><ele>634.1999999999999</ele><time>2026-04-04T14:29:17Z</time></trkpt><trkpt lat="44.20883328096355" lon="8.236927204660109"><ele>628.5999999999999</ele><time>2026-04-04T14:29:18Z</time></trkpt><trkpt lat="44.20880250061145" lon="8.237061122546498"><ele>623.0</ele><time>2026-04-04T14:29:19Z</time></trkpt><trkpt lat="44.2087755176384" lon="8.23720694629852"><ele>623.6</ele><time>2026-04-04T14:29:20Z</time></trkpt><trkpt lat="44.208760668425235" lon="8.237343511323791"><ele>624.1999999999999</ele><time>2026-04-04T14:29:21Z</time></trkpt><trkpt lat="44.20874920335201" lon="8.237480719628351"><ele>624.8</ele><time>2026-04-04T14:29:22Z</time></trkpt><trkpt lat="44.208746952492845" lon="8.237632380457464"><ele>625.4</ele><time>2026-04-04T14:29:23Z</time></trkpt><trkpt lat="44.2087469524931" lon="8.237799343903646"><ele>626.0</ele><time>2026-04-04T14:29:24Z</time></trkpt><trkpt lat="44.208746367993" lon="8.237942937866741"><ele>626.0</ele><time>2026-04-04T14:29:25Z</time></trkpt><trkpt lat="44.20874445205453" lon="8.23808481961879"><ele>626.0</ele><time>2026-04-04T14:29:26Z</time></trkpt><trkpt lat="44.20874017971885" lon="8.238228700947975"><ele>626.0</ele><time>2026-04-04T14:29:27Z</time></trkpt><trkpt lat="44.20873512651835" lon="8.238382613037237"><ele>626.0</ele><time>2026-04-04T14:29:28Z</time></trkpt><trkpt lat="44.20872975260653" lon="8.238524635933045"><ele>626.0</ele><time>2026-04-04T14:29:29Z</time></trkpt><trkpt lat="44.20871958749872" lon="8.238675628784273"><ele>626.2</ele><time>2026-04-04T14:29:30Z</time></trkpt><trkpt lat="44.20870549918614" lon="8.238827839759429"><ele>626.4000000000001</ele><time>2026-04-04T14:29:31Z</time></trkpt><trkpt lat="44.208687304491356" lon="8.2389840540848"><ele>626.6</ele><time>2026-04-04T14:29:32Z</time></trkpt><trkpt lat="44.20866831985116" lon="8.239143334786645"><ele>626.8000000000001</ele><time>2026-04-04T14:29:33Z</time></trkpt><trkpt lat="44.20864215208502" lon="8.239291819186086"><ele>627.0</ele><time>2026-04-04T14:29:34Z</time></trkpt><trkpt lat="44.20861003528174" lon="8.239441892291252"><ele>627.0</ele><time>2026-04-04T14:29:35Z</time></trkpt><trkpt lat="44.20857162193998" lon="8.239601638035461"><ele>627.0</ele><time>2026-04-04T14:29:36Z</time></trkpt><trkpt lat="44.20853708460459" lon="8.239743277598647"><ele>627.0</ele><time>2026-04-04T14:29:37Z</time></trkpt><trkpt lat="44.208499426848014" lon="8.239894338016274"><ele>627.0</ele><time>2026-04-04T14:29:38Z</time></trkpt><trkpt lat="44.208463213720194" lon="8.240039603507183"><ele>626.6666666666666</ele><time>2026-04-04T14:29:39Z</time></trkpt><trkpt lat="44.20842999947904" lon="8.240173851151942"><ele>626.3333333333334</ele><time>2026-04-04T14:29:39.999Z</time></trkpt><trkpt lat="44.208399288401445" lon="8.24029927210436"><ele>626.0</ele><time>2026-04-04T14:29:40.999Z</time></trkpt><trkpt lat="44.208391143640604" lon="8.240405166981105"><ele>625.6666666666667</ele><time>2026-04-04T14:29:41.999Z</time></trkpt><trkpt lat="44.20837447359372" lon="8.24051722117684"><ele>625.3333333333334</ele><time>2026-04-04T14:29:42.999Z</time></trkpt><trkpt lat="44.20836135243736" lon="8.240639606721677"><ele>625.0</ele><time>2026-04-04T14:29:43.999Z</time></trkpt><trkpt lat="44.20839513171843" lon="8.240758630141922"><ele>625.0</ele><time>2026-04-04T14:29:44.999Z</time></trkpt><trkpt lat="44.20847022431751" lon="8.24086295322266"><ele>625.0</ele><time>2026-04-04T14:29:45.999Z</time></trkpt><trkpt lat="44.208495721811865" lon="8.240960590871904"><ele>625.0</ele><time>2026-04-04T14:29:46.999Z</time></trkpt><trkpt lat="44.20851257365721" lon="8.241063282262035"><ele>625.0</ele><time>2026-04-04T14:29:47.999Z</time></trkpt><trkpt lat="44.208501620465476" lon="8.241163060393475"><ele>625.0</ele><time>2026-04-04T14:29:48.999Z</time></trkpt><trkpt lat="44.20847125054635" lon="8.241257468218251"><ele>625.0</ele><time>2026-04-04T14:29:49.999Z</time></trkpt><trkpt lat="44.208426263771564" lon="8.241347079462935"><ele>625.0</ele><time>2026-04-04T14:29:50.999Z</time></trkpt><trkpt lat="44.208378080447446" lon="8.241434876745899"><ele>625.0</ele><time>2026-04-04T14:29:51.999Z</time></trkpt><trkpt lat="44.20831780314126" lon="8.241544629157623"><ele>625.0</ele><time>2026-04-04T14:29:52.999Z</time></trkpt><trkpt lat="44.20825687376673" lon="8.241659029787789"><ele>625.0</ele><time>2026-04-04T14:29:53.999Z</time></trkpt><trkpt lat="44.20819120762455" lon="8.241784101034696"><ele>625.0</ele><time>2026-04-04T14:29:54.999Z</time></trkpt><trkpt lat="44.20812677506745" lon="8.241906158152537"><ele>619.75</ele><time>2026-04-04T14:29:55.999Z</time></trkpt><trkpt lat="44.208063973728265" lon="8.242025125209288"><ele>614.5</ele><time>2026-04-04T14:29:56.999Z</time></trkpt><trkpt lat="44.20799214037409" lon="8.242164042830087"><ele>609.25</ele><time>2026-04-04T14:29:57.999Z</time></trkpt><trkpt lat="44.20791994849297" lon="8.242319008547913"><ele>604.0</ele><time>2026-04-04T14:29:58.999Z</time></trkpt><trkpt lat="44.20786458748314" lon="8.242492951270272"><ele>604.0</ele><time>2026-04-04T14:29:59.999Z</time></trkpt><trkpt lat="44.20779804852634" lon="8.242655631356529"><ele>604.0</ele><time>2026-04-04T14:30:00.999Z</time></trkpt><trkpt lat="44.207724217890814" lon="8.242813028010906"><ele>604.0</ele><time>2026-04-04T14:30:01.999Z</time></trkpt><trkpt lat="44.207654398580274" lon="8.242969725843723"><ele>604.0</ele><time>2026-04-04T14:30:02.999Z</time></trkpt><trkpt lat="44.20758239098455" lon="8.243130835572023"><ele>606.25</ele><time>2026-04-04T14:30:03.999Z</time></trkpt><trkpt lat="44.20751085713793" lon="8.24329514420379"><ele>608.5</ele><time>2026-04-04T14:30:04.999Z</time></trkpt><trkpt lat="44.20743688524807" lon="8.243449036603756"><ele>610.75</ele><time>2026-04-04T14:30:05.999Z</time></trkpt><trkpt lat="44.20736547996314" lon="8.243606926244746"><ele>613.0</ele><time>2026-04-04T14:30:06.999Z</time></trkpt><trkpt lat="44.20729811794379" lon="8.243761463356734"><ele>607.0</ele><time>2026-04-04T14:30:07.999Z</time></trkpt><trkpt lat="44.207232187562354" lon="8.243914800050371"><ele>601.0</ele><time>2026-04-04T14:30:08.999Z</time></trkpt><trkpt lat="44.207173336303676" lon="8.24407474468937"><ele>595.0</ele><time>2026-04-04T14:30:09.999Z</time></trkpt><trkpt lat="44.20710255927679" lon="8.244227537440558"><ele>589.0</ele><time>2026-04-04T14:30:10.999Z</time></trkpt><trkpt lat="44.20704094283288" lon="8.244370384192546"><ele>589.0</ele><time>2026-04-04T14:30:11.999Z</time></trkpt><trkpt lat="44.206991400404824" lon="8.2445065552858"><ele>589.0</ele><time>2026-04-04T14:30:12.999Z</time></trkpt><trkpt lat="44.206945816830725" lon="8.244636179371165"><ele>589.0</ele><time>2026-04-04T14:30:13.999Z</time></trkpt><trkpt lat="44.20686391586668" lon="8.244732093859543"><ele>589.0</ele><time>2026-04-04T14:30:14.999Z</time></trkpt><trkpt lat="44.206771267114604" lon="8.244809048807603"><ele>589.0</ele><time>2026-04-04T14:30:15.999Z</time></trkpt><trkpt lat="44.20668455921597" lon="8.24487617504684"><ele>590.2</ele><time>2026-04-04T14:30:16.999Z</time></trkpt><trkpt lat="44.20662726300477" lon="8.244972030564165"><ele>591.4</ele><time>2026-04-04T14:30:17.999Z</time></trkpt><trkpt lat="44.20660741373627" lon="8.245096043085272"><ele>592.6</ele><time>2026-04-04T14:30:18.999Z</time></trkpt><trkpt lat="44.206631989956115" lon="8.245235323554219"><ele>593.8</ele><time>2026-04-04T14:30:19.999Z</time></trkpt><trkpt lat="44.20669588769061" lon="8.245361250518512"><ele>595.0</ele><time>2026-04-04T14:30:20.999Z</time></trkpt><trkpt lat="44.20676492089823" lon="8.245494901991194"><ele>595.0</ele><time>2026-04-04T14:30:21.999Z</time></trkpt><trkpt lat="44.20682416559687" lon="8.245624777052306"><ele>595.0</ele><time>2026-04-04T14:30:22.999Z</time></trkpt><trkpt lat="44.20686896008404" lon="8.245753799460681"><ele>595.0</ele><time>2026-04-04T14:30:23.999Z</time></trkpt><trkpt lat="44.20690529516503" lon="8.245861130814518"><ele>595.0</ele><time>2026-04-04T14:30:24.999Z</time></trkpt><trkpt lat="44.20693679656606" lon="8.245966208306426"><ele>595.0</ele><time>2026-04-04T14:30:25.999Z</time></trkpt><trkpt lat="44.206935732860664" lon="8.246054788271287"><ele>595.0</ele><time>2026-04-04T14:30:26.999Z</time></trkpt><trkpt lat="44.206901124650685" lon="8.246138903429717"><ele>595.0</ele><time>2026-04-04T14:30:27.999Z</time></trkpt><trkpt lat="44.20679688166324" lon="8.24616938692808"><ele>595.0</ele><time>2026-04-04T14:30:29.999Z</time></trkpt><trkpt lat="44.20664944142541" lon="8.246281606755643"><ele>595.0</ele><time>2026-04-04T14:30:30.999Z</time></trkpt><trkpt lat="44.20656344077102" lon="8.246319995300988"><ele>595.0</ele><time>2026-04-04T14:30:31.999Z</time></trkpt><trkpt lat="44.20648617991614" lon="8.246400152940417"><ele>592.6</ele><time>2026-04-04T14:30:32.999Z</time></trkpt><trkpt lat="44.206450807625686" lon="8.246529532797634"><ele>590.2</ele><time>2026-04-04T14:30:33.999Z</time></trkpt><trkpt lat="44.20641901693763" lon="8.24664883333598"><ele>587.8</ele><time>2026-04-04T14:30:34.999Z</time></trkpt><trkpt lat="44.20632693124197" lon="8.246695674614426"><ele>585.4</ele><time>2026-04-04T14:30:35.999Z</time></trkpt><trkpt lat="44.20621737679097" lon="8.246697666290892"><ele>583.0</ele><time>2026-04-04T14:30:36.998Z</time></trkpt><trkpt lat="44.2060993700678" lon="8.246717285481518"><ele>583.0</ele><time>2026-04-04T14:30:37.998Z</time></trkpt><trkpt lat="44.2059927957896" lon="8.246759895131792"><ele>583.0</ele><time>2026-04-04T14:30:38.998Z</time></trkpt><trkpt lat="44.20588640866409" lon="8.24681369801219"><ele>583.0</ele><time>2026-04-04T14:30:39.998Z</time></trkpt><trkpt lat="44.205766784198914" lon="8.246859863795638"><ele>583.0</ele><time>2026-04-04T14:30:40.998Z</time></trkpt><trkpt lat="44.20564542297113" lon="8.246879151296634"><ele>581.5</ele><time>2026-04-04T14:30:41.998Z</time></trkpt><trkpt lat="44.20552837424214" lon="8.246880039229296"><ele>580.0</ele><time>2026-04-04T14:30:42.998Z</time></trkpt><trkpt lat="44.20540831434669" lon="8.246859073642023"><ele>578.5</ele><time>2026-04-04T14:30:43.998Z</time></trkpt><trkpt lat="44.20528781962915" lon="8.246837283604712"><ele>577.0</ele><time>2026-04-04T14:30:44.998Z</time></trkpt><trkpt lat="44.205175954544615" lon="8.246776754415931"><ele>577.0</ele><time>2026-04-04T14:30:45.998Z</time></trkpt><trkpt lat="44.20507448469545" lon="8.246716924948116"><ele>577.0</ele><time>2026-04-04T14:30:46.998Z</time></trkpt><trkpt lat="44.204978102434694" lon="8.246678685177399"><ele>577.0</ele><time>2026-04-04T14:30:47.998Z</time></trkpt><trkpt lat="44.20488717162534" lon="8.24663932775622"><ele>577.0</ele><time>2026-04-04T14:30:48.998Z</time></trkpt><trkpt lat="44.20478940621767" lon="8.246655110843296"><ele>577.0</ele><time>2026-04-04T14:30:49.998Z</time></trkpt><trkpt lat="44.2046884590132" lon="8.246734376152691"><ele>572.5</ele><time>2026-04-04T14:30:50.998Z</time></trkpt><trkpt lat="44.20460077561406" lon="8.246853071284384"><ele>568.0</ele><time>2026-04-04T14:30:51.998Z</time></trkpt><trkpt lat="44.20453970827535" lon="8.247002522074869"><ele>563.5</ele><time>2026-04-04T14:30:52.998Z</time></trkpt><trkpt lat="44.20449724708614" lon="8.247147185527778"><ele>559.0</ele><time>2026-04-04T14:30:53.998Z</time></trkpt><trkpt lat="44.204483639881104" lon="8.247299458832558"><ele>559.0</ele><time>2026-04-04T14:30:54.998Z</time></trkpt><trkpt lat="44.20451877236435" lon="8.247446532371645"><ele>559.0</ele><time>2026-04-04T14:30:55.998Z</time></trkpt><trkpt lat="44.204596587116114" lon="8.247559331998435"><ele>559.0</ele><time>2026-04-04T14:30:56.998Z</time></trkpt><trkpt lat="44.204655808445295" lon="8.247697666809596"><ele>559.0</ele><time>2026-04-04T14:30:57.998Z</time></trkpt><trkpt lat="44.204720759826934" lon="8.247818021052204"><ele>559.0</ele><time>2026-04-04T14:30:58.998Z</time></trkpt><trkpt lat="44.20475471061382" lon="8.247947596740955"><ele>559.0</ele><time>2026-04-04T14:30:59.998Z</time></trkpt><trkpt lat="44.20476306350889" lon="8.248064426542511"><ele>559.0</ele><time>2026-04-04T14:31:00.998Z</time></trkpt><trkpt lat="44.204744485699194" lon="8.248176811003452"><ele>559.0</ele><time>2026-04-04T14:31:01.998Z</time></trkpt><trkpt lat="44.204700763118325" lon="8.248280511757622"><ele>559.0</ele><time>2026-04-04T14:31:02.998Z</time></trkpt><trkpt lat="44.204641948766294" lon="8.248336795616193"><ele>559.0</ele><time>2026-04-04T14:31:03.998Z</time></trkpt><trkpt lat="44.2045210333624" lon="8.248323552253945"><ele>559.0</ele><time>2026-04-04T14:31:05.998Z</time></trkpt><trkpt lat="44.204465773764525" lon="8.248227963263878"><ele>559.0</ele><time>2026-04-04T14:31:06.998Z</time></trkpt><trkpt lat="44.20439517200087" lon="8.24812714079689"><ele>559.0</ele><time>2026-04-04T14:31:07.998Z</time></trkpt><trkpt lat="44.20430973870776" lon="8.248048998902165"><ele>559.0</ele><time>2026-04-04T14:31:08.998Z</time></trkpt><trkpt lat="44.20420139615966" lon="8.24799309937636"><ele>559.0</ele><time>2026-04-04T14:31:09.998Z</time></trkpt><trkpt lat="44.20408895037171" lon="8.247959755777346"><ele>559.0</ele><time>2026-04-04T14:31:11Z</time></trkpt><trkpt lat="44.20398481337022" lon="8.24797715802137"><ele>555.5</ele><time>2026-04-04T14:31:12Z</time></trkpt><trkpt lat="44.20387981391513" lon="8.248033946767793"><ele>552.0</ele><time>2026-04-04T14:31:13Z</time></trkpt><trkpt lat="44.203797900454" lon="8.248145458538257"><ele>548.5</ele><time>2026-04-04T14:31:14Z</time></trkpt><trkpt lat="44.203707846183626" lon="8.248212790664002"><ele>545.0</ele><time>2026-04-04T14:31:15Z</time></trkpt><trkpt lat="44.203621163330624" lon="8.24833821692154"><ele>545.0</ele><time>2026-04-04T14:31:16Z</time></trkpt><trkpt lat="44.203566560215165" lon="8.248494302924842"><ele>545.0</ele><time>2026-04-04T14:31:17Z</time></trkpt><trkpt lat="44.2035245545123" lon="8.248663880578368"><ele>545.0</ele><time>2026-04-04T14:31:18Z</time></trkpt><trkpt lat="44.203508611947115" lon="8.24883840232317"><ele>545.0</ele><time>2026-04-04T14:31:19Z</time></trkpt><trkpt lat="44.20347214780025" lon="8.249008949845212"><ele>547.5</ele><time>2026-04-04T14:31:20Z</time></trkpt><trkpt lat="44.20341251368084" lon="8.249144395145077"><ele>550.0</ele><time>2026-04-04T14:31:21Z</time></trkpt><trkpt lat="44.203352215306914" lon="8.249273767659094"><ele>552.5</ele><time>2026-04-04T14:31:22Z</time></trkpt><trkpt lat="44.20327789551375" lon="8.249431650160385"><ele>555.0</ele><time>2026-04-04T14:31:23Z</time></trkpt><trkpt lat="44.20319886942723" lon="8.249586179124616"><ele>550.25</ele><time>2026-04-04T14:31:24Z</time></trkpt><trkpt lat="44.20311146173561" lon="8.249729937833662"><ele>545.5</ele><time>2026-04-04T14:31:25Z</time></trkpt><trkpt lat="44.20301322479788" lon="8.249874323993152"><ele>540.75</ele><time>2026-04-04T14:31:26Z</time></trkpt><trkpt lat="44.202919408601865" lon="8.250007691228818"><ele>536.0</ele><time>2026-04-04T14:31:27Z</time></trkpt><trkpt lat="44.202832960379396" lon="8.250129719969081"><ele>536.0</ele><time>2026-04-04T14:31:28Z</time></trkpt><trkpt lat="44.20276317075092" lon="8.250251427184248"><ele>536.0</ele><time>2026-04-04T14:31:29Z</time></trkpt><trkpt lat="44.202679719601875" lon="8.250335062672212"><ele>536.0</ele><time>2026-04-04T14:31:30Z</time></trkpt><trkpt lat="44.20260897711087" lon="8.250430920817879"><ele>536.0</ele><time>2026-04-04T14:31:31Z</time></trkpt><trkpt lat="44.202550376873084" lon="8.250541580642212"><ele>536.0</ele><time>2026-04-04T14:31:32Z</time></trkpt><trkpt lat="44.202578695443265" lon="8.250679032535746"><ele>536.6</ele><time>2026-04-04T14:31:33Z</time></trkpt><trkpt lat="44.2026397357364" lon="8.250795024246713"><ele>537.2</ele><time>2026-04-04T14:31:34Z</time></trkpt><trkpt lat="44.20269708842362" lon="8.250915205068596"><ele>537.8</ele><time>2026-04-04T14:31:35Z</time></trkpt><trkpt lat="44.20271719686087" lon="8.251042475716778"><ele>538.4</ele><time>2026-04-04T14:31:36Z</time></trkpt><trkpt lat="44.202702094324195" lon="8.251159168430846"><ele>539.0</ele><time>2026-04-04T14:31:37Z</time></trkpt><trkpt lat="44.20263484577172" lon="8.251252716408871"><ele>539.0</ele><time>2026-04-04T14:31:38Z</time></trkpt><trkpt lat="44.202553484039555" lon="8.251335491186408"><ele>539.0</ele><time>2026-04-04T14:31:39Z</time></trkpt><trkpt lat="44.20244529148622" lon="8.251371741131566"><ele>539.0</ele><time>2026-04-04T14:31:40Z</time></trkpt><trkpt lat="44.20233439479065" lon="8.251415965181401"><ele>539.0</ele><time>2026-04-04T14:31:41Z</time></trkpt><trkpt lat="44.20223839471781" lon="8.251471035901266"><ele>539.0</ele><time>2026-04-04T14:31:42Z</time></trkpt><trkpt lat="44.2021573801423" lon="8.251570055596698"><ele>535.25</ele><time>2026-04-04T14:31:43Z</time></trkpt><trkpt lat="44.20206932315814" lon="8.251641331280874"><ele>531.5</ele><time>2026-04-04T14:31:44Z</time></trkpt><trkpt lat="44.20202600128889" lon="8.251818216775261"><ele>527.75</ele><time>2026-04-04T14:31:44.999Z</time></trkpt><trkpt lat="44.201992434794604" lon="8.251971173399236"><ele>524.0</ele><time>2026-04-04T14:31:45.999Z</time></trkpt><trkpt lat="44.20200122146906" lon="8.25213795022048"><ele>523.25</ele><time>2026-04-04T14:31:46.999Z</time></trkpt><trkpt lat="44.20203777810343" lon="8.252304309877692"><ele>522.5</ele><time>2026-04-04T14:31:47.999Z</time></trkpt><trkpt lat="44.202076952599946" lon="8.252445744857786"><ele>521.75</ele><time>2026-04-04T14:31:48.999Z</time></trkpt><trkpt lat="44.20209008415166" lon="8.252601642819194"><ele>521.0</ele><time>2026-04-04T14:31:49.999Z</time></trkpt><trkpt lat="44.202073694785675" lon="8.252771715353814"><ele>521.0</ele><time>2026-04-04T14:31:50.999Z</time></trkpt><trkpt lat="44.20201997064719" lon="8.252932585722087"><ele>521.0</ele><time>2026-04-04T14:31:51.999Z</time></trkpt><trkpt lat="44.20196684444647" lon="8.25307867112837"><ele>521.0</ele><time>2026-04-04T14:31:52.999Z</time></trkpt><trkpt lat="44.201931868675345" lon="8.253237335009569"><ele>521.0</ele><time>2026-04-04T14:31:53.999Z</time></trkpt><trkpt lat="44.20189080200953" lon="8.25337912958714"><ele>521.25</ele><time>2026-04-04T14:31:54.999Z</time></trkpt><trkpt lat="44.201865832529926" lon="8.253540944515423"><ele>521.5</ele><time>2026-04-04T14:31:55.999Z</time></trkpt><trkpt lat="44.20189440940267" lon="8.25370626552298"><ele>521.75</ele><time>2026-04-04T14:31:56.999Z</time></trkpt><trkpt lat="44.20196685481246" lon="8.253853396496462"><ele>522.0</ele><time>2026-04-04T14:31:57.999Z</time></trkpt><trkpt lat="44.20207258779384" lon="8.253935858315767"><ele>520.4</ele><time>2026-04-04T14:31:58.999Z</time></trkpt><trkpt lat="44.20214800489903" lon="8.254061340419845"><ele>518.8000000000001</ele><time>2026-04-04T14:31:59.999Z</time></trkpt><trkpt lat="44.2021917997056" lon="8.254167780355775"><ele>517.2</ele><time>2026-04-04T14:32:00.999Z</time></trkpt><trkpt lat="44.20221077007103" lon="8.254282157421827"><ele>515.6</ele><time>2026-04-04T14:32:01.999Z</time></trkpt><trkpt lat="44.20218885856714" lon="8.254396232469658"><ele>514.0</ele><time>2026-04-04T14:32:02.999Z</time></trkpt><trkpt lat="44.20213687027225" lon="8.254504068921367"><ele>514.0</ele><time>2026-04-04T14:32:03.999Z</time></trkpt><trkpt lat="44.20205329922412" lon="8.254598720839654"><ele>514.0</ele><time>2026-04-04T14:32:04.999Z</time></trkpt><trkpt lat="44.20193127567517" lon="8.254623679350287"><ele>514.0</ele><time>2026-04-04T14:32:05.999Z</time></trkpt><trkpt lat="44.20185217998827" lon="8.2546819687866"><ele>514.0</ele><time>2026-04-04T14:32:06.999Z</time></trkpt><trkpt lat="44.20174529390051" lon="8.254739048797576"><ele>514.0</ele><time>2026-04-04T14:32:07.999Z</time></trkpt><trkpt lat="44.20165132691692" lon="8.25482817586279"><ele>514.0</ele><time>2026-04-04T14:32:08.999Z</time></trkpt><trkpt lat="44.20158501191054" lon="8.254959037299578"><ele>514.0</ele><time>2026-04-04T14:32:09.999Z</time></trkpt><trkpt lat="44.20154620226257" lon="8.255130404823811"><ele>514.0</ele><time>2026-04-04T14:32:10.999Z</time></trkpt><trkpt lat="44.20153672330196" lon="8.255314737493075"><ele>514.0</ele><time>2026-04-04T14:32:11.999Z</time></trkpt><trkpt lat="44.20154990095203" lon="8.255494411927037"><ele>514.0</ele><time>2026-04-04T14:32:12.999Z</time></trkpt><trkpt lat="44.20155380894972" lon="8.255662681841162"><ele>514.0</ele><time>2026-04-04T14:32:13.999Z</time></trkpt><trkpt lat="44.20155595208827" lon="8.25582159908807"><ele>514.0</ele><time>2026-04-04T14:32:14.999Z</time></trkpt><trkpt lat="44.20152289637272" lon="8.255967303344553"><ele>514.0</ele><time>2026-04-04T14:32:15.999Z</time></trkpt><trkpt lat="44.2014548471606" lon="8.2560928469943"><ele>508.25</ele><time>2026-04-04T14:32:16.999Z</time></trkpt><trkpt lat="44.201359203951874" lon="8.256194992576987"><ele>502.5</ele><time>2026-04-04T14:32:17.999Z</time></trkpt><trkpt lat="44.201269747280755" lon="8.256317400768758"><ele>496.75</ele><time>2026-04-04T14:32:18.999Z</time></trkpt><trkpt lat="44.201179533530194" lon="8.256425454196945"><ele>491.0</ele><time>2026-04-04T14:32:19.999Z</time></trkpt><trkpt lat="44.20110192223454" lon="8.256571360116133"><ele>491.0</ele><time>2026-04-04T14:32:20.999Z</time></trkpt><trkpt lat="44.20107219215478" lon="8.256741698268566"><ele>491.0</ele><time>2026-04-04T14:32:21.999Z</time></trkpt><trkpt lat="44.201077023076415" lon="8.25690989370348"><ele>491.0</ele><time>2026-04-04T14:32:22.999Z</time></trkpt><trkpt lat="44.20110925719431" lon="8.257087049816608"><ele>491.0</ele><time>2026-04-04T14:32:23.999Z</time></trkpt><trkpt lat="44.20115377916011" lon="8.25725508547101"><ele>490.0</ele><time>2026-04-04T14:32:24.999Z</time></trkpt><trkpt lat="44.20116751749328" lon="8.25741058055436"><ele>489.0</ele><time>2026-04-04T14:32:25.999Z</time></trkpt><trkpt lat="44.201158851191906" lon="8.257564437107268"><ele>488.0</ele><time>2026-04-04T14:32:26.999Z</time></trkpt><trkpt lat="44.201143094448796" lon="8.257720152294361"><ele>487.0</ele><time>2026-04-04T14:32:27.999Z</time></trkpt><trkpt lat="44.20110503103246" lon="8.257854178177029"><ele>486.0</ele><time>2026-04-04T14:32:28.999Z</time></trkpt><trkpt lat="44.20104966448983" lon="8.257979912390018"><ele>486.0</ele><time>2026-04-04T14:32:29.999Z</time></trkpt><trkpt lat="44.20098185547083" lon="8.258096817691305"><ele>486.0</ele><time>2026-04-04T14:32:30.999Z</time></trkpt><trkpt lat="44.20087045545686" lon="8.25816766250686"><ele>486.0</ele><time>2026-04-04T14:32:31.999Z</time></trkpt><trkpt lat="44.20075141957761" lon="8.258230317042491"><ele>486.0</ele><time>2026-04-04T14:32:32.999Z</time></trkpt><trkpt lat="44.2006207860618" lon="8.258265564658197"><ele>483.75</ele><time>2026-04-04T14:32:33.999Z</time></trkpt><trkpt lat="44.200502048959194" lon="8.258288984976724"><ele>481.5</ele><time>2026-04-04T14:32:34.999Z</time></trkpt><trkpt lat="44.20036303473571" lon="8.258267006143164"><ele>479.25</ele><time>2026-04-04T14:32:35.999Z</time></trkpt><trkpt lat="44.20024022887671" lon="8.258257216291486"><ele>477.0</ele><time>2026-04-04T14:32:36.999Z</time></trkpt><trkpt lat="44.20011451115285" lon="8.258275653138805"><ele>477.0</ele><time>2026-04-04T14:32:37.999Z</time></trkpt><trkpt lat="44.199997886440414" lon="8.258348547677276"><ele>477.0</ele><time>2026-04-04T14:32:38.999Z</time></trkpt><trkpt lat="44.19989200128351" lon="8.258450655957112"><ele>477.0</ele><time>2026-04-04T14:32:39.999Z</time></trkpt><trkpt lat="44.199796509318986" lon="8.25856664351128"><ele>477.0</ele><time>2026-04-04T14:32:40.999Z</time></trkpt><trkpt lat="44.19973005195138" lon="8.258693872951568"><ele>477.8</ele><time>2026-04-04T14:32:41.999Z</time></trkpt><trkpt lat="44.199686516835705" lon="8.258835135456554"><ele>478.6</ele><time>2026-04-04T14:32:42.999Z</time></trkpt><trkpt lat="44.199675339181404" lon="8.25898807453421"><ele>479.40000000000003</ele><time>2026-04-04T14:32:43.998Z</time></trkpt><trkpt lat="44.19970465667485" lon="8.259142754912821"><ele>480.20000000000005</ele><time>2026-04-04T14:32:44.998Z</time></trkpt><trkpt lat="44.199759256542535" lon="8.259282620188534"><ele>481.0</ele><time>2026-04-04T14:32:45.998Z</time></trkpt><trkpt lat="44.19985300666094" lon="8.259402798036923"><ele>481.0</ele><time>2026-04-04T14:32:46.998Z</time></trkpt><trkpt lat="44.19996277862622" lon="8.259511740758386"><ele>481.0</ele><time>2026-04-04T14:32:47.998Z</time></trkpt><trkpt lat="44.20007375861222" lon="8.259595444316062"><ele>481.0</ele><time>2026-04-04T14:32:48.998Z</time></trkpt><trkpt lat="44.20018962042486" lon="8.259649911435588"><ele>481.0</ele><time>2026-04-04T14:32:49.998Z</time></trkpt><trkpt lat="44.200301614535874" lon="8.259672122358069"><ele>481.0</ele><time>2026-04-04T14:32:50.998Z</time></trkpt><trkpt lat="44.200418304016296" lon="8.259703845263793"><ele>481.0</ele><time>2026-04-04T14:32:51.998Z</time></trkpt><trkpt lat="44.20049975142626" lon="8.259747519451924"><ele>481.0</ele><time>2026-04-04T14:32:52.998Z</time></trkpt><trkpt lat="44.20056786328405" lon="8.259841169757216"><ele>481.0</ele><time>2026-04-04T14:32:53.998Z</time></trkpt><trkpt lat="44.20061444254767" lon="8.259958278429954"><ele>481.0</ele><time>2026-04-04T14:32:54.998Z</time></trkpt><trkpt lat="44.20062292881818" lon="8.260098799815813"><ele>479.20000000000005</ele><time>2026-04-04T14:32:55.998Z</time></trkpt><trkpt lat="44.200613315446134" lon="8.26023671976444"><ele>477.40000000000003</ele><time>2026-04-04T14:32:56.998Z</time></trkpt><trkpt lat="44.2005627519537" lon="8.26035164701447"><ele>475.6</ele><time>2026-04-04T14:32:57.998Z</time></trkpt><trkpt lat="44.20048359091661" lon="8.260450082671518"><ele>473.8</ele><time>2026-04-04T14:32:58.998Z</time></trkpt><trkpt lat="44.20037048832633" lon="8.260547602035436"><ele>472.0</ele><time>2026-04-04T14:32:59.998Z</time></trkpt><trkpt lat="44.20026677216188" lon="8.26062950322052"><ele>472.0</ele><time>2026-04-04T14:33:00.998Z</time></trkpt><trkpt lat="44.20015075631733" lon="8.26070058215014"><ele>472.0</ele><time>2026-04-04T14:33:01.998Z</time></trkpt><trkpt lat="44.200032101590665" lon="8.260707807508643"><ele>472.0</ele><time>2026-04-04T14:33:02.998Z</time></trkpt><trkpt lat="44.19990252789454" lon="8.260653122767128"><ele>472.0</ele><time>2026-04-04T14:33:03.998Z</time></trkpt><trkpt lat="44.19979039604715" lon="8.260585077175167"><ele>464.75</ele><time>2026-04-04T14:33:04.998Z</time></trkpt><trkpt lat="44.199651970080566" lon="8.260509097167024"><ele>457.5</ele><time>2026-04-04T14:33:05.998Z</time></trkpt><trkpt lat="44.199525242978794" lon="8.260444055347353"><ele>450.25</ele><time>2026-04-04T14:33:06.998Z</time></trkpt><trkpt lat="44.19939966653155" lon="8.260404634638626"><ele>443.0</ele><time>2026-04-04T14:33:07.998Z</time></trkpt><trkpt lat="44.199285115972074" lon="8.260399384636086"><ele>443.0</ele><time>2026-04-04T14:33:08.998Z</time></trkpt><trkpt lat="44.19917574552146" lon="8.260440500705412"><ele>443.0</ele><time>2026-04-04T14:33:09.998Z</time></trkpt><trkpt lat="44.19908310762829" lon="8.260525535018637"><ele>443.0</ele><time>2026-04-04T14:33:10.998Z</time></trkpt><trkpt lat="44.199018063666166" lon="8.260654681032712"><ele>443.0</ele><time>2026-04-04T14:33:11.998Z</time></trkpt><trkpt lat="44.19898024564339" lon="8.260806687772934"><ele>439.0</ele><time>2026-04-04T14:33:12.998Z</time></trkpt><trkpt lat="44.19897645408281" lon="8.26101021907366"><ele>435.0</ele><time>2026-04-04T14:33:13.998Z</time></trkpt><trkpt lat="44.198969273966235" lon="8.26118896662058"><ele>431.0</ele><time>2026-04-04T14:33:14.998Z</time></trkpt><trkpt lat="44.19892666918124" lon="8.261379709680808"><ele>427.0</ele><time>2026-04-04T14:33:15.998Z</time></trkpt><trkpt lat="44.19888516629736" lon="8.26154744353803"><ele>427.0</ele><time>2026-04-04T14:33:17Z</time></trkpt><trkpt lat="44.19884571873608" lon="8.26170190046478"><ele>427.0</ele><time>2026-04-04T14:33:18Z</time></trkpt><trkpt lat="44.19880500363629" lon="8.26187317316264"><ele>427.0</ele><time>2026-04-04T14:33:19Z</time></trkpt><trkpt lat="44.19879190583382" lon="8.262043844127277"><ele>427.0</ele><time>2026-04-04T14:33:20Z</time></trkpt><trkpt lat="44.19879781046688" lon="8.26220228847859"><ele>425.5</ele><time>2026-04-04T14:33:21Z</time></trkpt><trkpt lat="44.19883593432151" lon="8.262359986610496"><ele>424.0</ele><time>2026-04-04T14:33:22Z</time></trkpt><trkpt lat="44.198905696309964" lon="8.262507669675177"><ele>422.5</ele><time>2026-04-04T14:33:23Z</time></trkpt><trkpt lat="44.198994357595545" lon="8.262655867556644"><ele>421.0</ele><time>2026-04-04T14:33:24Z</time></trkpt><trkpt lat="44.19908948503686" lon="8.262734130651936"><ele>425.20000000000005</ele><time>2026-04-04T14:33:25Z</time></trkpt><trkpt lat="44.199185501576146" lon="8.262843306176059"><ele>429.40000000000003</ele><time>2026-04-04T14:33:26Z</time></trkpt><trkpt lat="44.19924880250844" lon="8.26296629265431"><ele>433.6</ele><time>2026-04-04T14:33:27Z</time></trkpt><trkpt lat="44.19924678339915" lon="8.263113021529053"><ele>437.8</ele><time>2026-04-04T14:33:28Z</time></trkpt><trkpt lat="44.19922799183151" lon="8.263236350476786"><ele>442.0</ele><time>2026-04-04T14:33:29Z</time></trkpt><trkpt lat="44.19917955367869" lon="8.263354082719214"><ele>442.0</ele><time>2026-04-04T14:33:30Z</time></trkpt><trkpt lat="44.19911259050633" lon="8.263444246861225"><ele>442.00000000000006</ele><time>2026-04-04T14:33:31Z</time></trkpt><trkpt lat="44.199029685020115" lon="8.263514179025616"><ele>442.00000000000006</ele><time>2026-04-04T14:33:32Z</time></trkpt><trkpt lat="44.19891774627528" lon="8.263525749893148"><ele>442.0</ele><time>2026-04-04T14:33:33Z</time></trkpt><trkpt lat="44.19881926856046" lon="8.263500796140598"><ele>442.0</ele><time>2026-04-04T14:33:34Z</time></trkpt><trkpt lat="44.19872384921786" lon="8.263509321000848"><ele>436.0</ele><time>2026-04-04T14:33:35Z</time></trkpt><trkpt lat="44.19861378660779" lon="8.263532897588403"><ele>430.0</ele><time>2026-04-04T14:33:36Z</time></trkpt><trkpt lat="44.19851371007716" lon="8.263609092860056"><ele>424.0</ele><time>2026-04-04T14:33:37Z</time></trkpt><trkpt lat="44.19843780795708" lon="8.263719531535065"><ele>418.0</ele><time>2026-04-04T14:33:38Z</time></trkpt><trkpt lat="44.198365382077725" lon="8.263844454048034"><ele>419.75</ele><time>2026-04-04T14:33:39Z</time></trkpt><trkpt lat="44.19832620549504" lon="8.26398754175433"><ele>421.5</ele><time>2026-04-04T14:33:40Z</time></trkpt><trkpt lat="44.19830165140396" lon="8.264167000181518"><ele>423.25</ele><time>2026-04-04T14:33:41Z</time></trkpt><trkpt lat="44.19827853720461" lon="8.26435730307689"><ele>425.0</ele><time>2026-04-04T14:33:42Z</time></trkpt><trkpt lat="44.19826210046881" lon="8.264541187097407"><ele>425.0</ele><time>2026-04-04T14:33:43Z</time></trkpt><trkpt lat="44.19823975202528" lon="8.264711763860017"><ele>425.0</ele><time>2026-04-04T14:33:44Z</time></trkpt><trkpt lat="44.19820285750506" lon="8.264862922728634"><ele>425.0</ele><time>2026-04-04T14:33:45Z</time></trkpt><trkpt lat="44.1981781901317" lon="8.265002155134331"><ele>425.0</ele><time>2026-04-04T14:33:46Z</time></trkpt><trkpt lat="44.198129594169295" lon="8.265132759426539"><ele>425.0</ele><time>2026-04-04T14:33:46.999Z</time></trkpt><trkpt lat="44.19805645448871" lon="8.265263239466222"><ele>421.2</ele><time>2026-04-04T14:33:47.999Z</time></trkpt><trkpt lat="44.19796749188275" lon="8.265371855686626"><ele>417.4</ele><time>2026-04-04T14:33:48.999Z</time></trkpt><trkpt lat="44.197881440840945" lon="8.265464885115318"><ele>413.6</ele><time>2026-04-04T14:33:49.999Z</time></trkpt><trkpt lat="44.19780758048278" lon="8.265550781598721"><ele>409.8</ele><time>2026-04-04T14:33:50.999Z</time></trkpt><trkpt lat="44.197759488441235" lon="8.265667250072996"><ele>406.0</ele><time>2026-04-04T14:33:51.999Z</time></trkpt><trkpt lat="44.19775115889982" lon="8.265809678248035"><ele>406.0</ele><time>2026-04-04T14:33:52.999Z</time></trkpt><trkpt lat="44.19778587842332" lon="8.265957207973825"><ele>406.0</ele><time>2026-04-04T14:33:53.999Z</time></trkpt><trkpt lat="44.19784289643536" lon="8.2661176402537"><ele>406.0</ele><time>2026-04-04T14:33:54.999Z</time></trkpt><trkpt lat="44.19793717306509" lon="8.266281928707881"><ele>406.0</ele><time>2026-04-04T14:33:55.999Z</time></trkpt><trkpt lat="44.19801783962022" lon="8.266437716682475"><ele>408.20000000000005</ele><time>2026-04-04T14:33:56.999Z</time></trkpt><trkpt lat="44.19808405212881" lon="8.266593683359119"><ele>410.40000000000003</ele><time>2026-04-04T14:33:57.999Z</time></trkpt><trkpt lat="44.19814220984429" lon="8.266738358947828"><ele>412.6</ele><time>2026-04-04T14:33:58.999Z</time></trkpt><trkpt lat="44.19818829249078" lon="8.266868769569443"><ele>414.8</ele><time>2026-04-04T14:33:59.999Z</time></trkpt><trkpt lat="44.19820111135699" lon="8.266995674366093"><ele>417.0</ele><time>2026-04-04T14:34:00.999Z</time></trkpt><trkpt lat="44.1982039460062" lon="8.267164068071722"><ele>415.6</ele><time>2026-04-04T14:34:01.999Z</time></trkpt><trkpt lat="44.198207539000165" lon="8.267332898007677"><ele>414.20000000000005</ele><time>2026-04-04T14:34:02.999Z</time></trkpt><trkpt lat="44.198224196066654" lon="8.26746247571865"><ele>412.8</ele><time>2026-04-04T14:34:03.999Z</time></trkpt><trkpt lat="44.1982591524211" lon="8.267574823139462"><ele>411.4</ele><time>2026-04-04T14:34:04.999Z</time></trkpt><trkpt lat="44.198271037710725" lon="8.267685631913297"><ele>410.0</ele><time>2026-04-04T14:34:05.999Z</time></trkpt><trkpt lat="44.198223822014995" lon="8.267775217425132"><ele>405.2</ele><time>2026-04-04T14:34:06.999Z</time></trkpt><trkpt lat="44.19814499344284" lon="8.267806702078326"><ele>400.4</ele><time>2026-04-04T14:34:07.999Z</time></trkpt><trkpt lat="44.19806746149343" lon="8.2677515944435"><ele>395.6</ele><time>2026-04-04T14:34:08.999Z</time></trkpt><trkpt lat="44.19794413365971" lon="8.26776634671587"><ele>390.8</ele><time>2026-04-04T14:34:09.999Z</time></trkpt><trkpt lat="44.197847939382584" lon="8.267789921129568"><ele>386.0</ele><time>2026-04-04T14:34:10.999Z</time></trkpt><trkpt lat="44.19775260519427" lon="8.267868462746076"><ele>386.0</ele><time>2026-04-04T14:34:11.999Z</time></trkpt><trkpt lat="44.197645976658144" lon="8.267987376896007"><ele>386.0</ele><time>2026-04-04T14:34:12.999Z</time></trkpt><trkpt lat="44.19755734373944" lon="8.268129463157898"><ele>386.0</ele><time>2026-04-04T14:34:13.999Z</time></trkpt><trkpt lat="44.197475693299126" lon="8.26829851511565"><ele>386.0</ele><time>2026-04-04T14:34:14.999Z</time></trkpt><trkpt lat="44.197381320697346" lon="8.268416616776374"><ele>381.0</ele><time>2026-04-04T14:34:15.999Z</time></trkpt><trkpt lat="44.197293974250755" lon="8.268546238168373"><ele>376.0</ele><time>2026-04-04T14:34:16.999Z</time></trkpt><trkpt lat="44.19720762397343" lon="8.26867195263687"><ele>371.0</ele><time>2026-04-04T14:34:17.999Z</time></trkpt><trkpt lat="44.19713135121139" lon="8.268790071377191"><ele>366.0</ele><time>2026-04-04T14:34:18.999Z</time></trkpt><trkpt lat="44.197052306522984" lon="8.26889560330916"><ele>367.0</ele><time>2026-04-04T14:34:19.999Z</time></trkpt><trkpt lat="44.19699499518728" lon="8.269015815499827"><ele>368.0</ele><time>2026-04-04T14:34:20.999Z</time></trkpt><trkpt lat="44.19696171730763" lon="8.269149487319812"><ele>369.0</ele><time>2026-04-04T14:34:21.999Z</time></trkpt><trkpt lat="44.19695450387121" lon="8.269290525437896"><ele>370.0</ele><time>2026-04-04T14:34:22.999Z</time></trkpt><trkpt lat="44.19697514765639" lon="8.269416249968844"><ele>371.0</ele><time>2026-04-04T14:34:23.999Z</time></trkpt><trkpt lat="44.19701506322803" lon="8.269531638161611"><ele>371.0</ele><time>2026-04-04T14:34:24.999Z</time></trkpt><trkpt lat="44.19706520645357" lon="8.269630253520932"><ele>371.0</ele><time>2026-04-04T14:34:25.999Z</time></trkpt><trkpt lat="44.197119068361424" lon="8.269721506149205"><ele>371.0</ele><time>2026-04-04T14:34:26.999Z</time></trkpt><trkpt lat="44.19717430723638" lon="8.26981742633845"><ele>371.0</ele><time>2026-04-04T14:34:27.999Z</time></trkpt><trkpt lat="44.19723957702121" lon="8.269897492381284"><ele>371.0</ele><time>2026-04-04T14:34:28.999Z</time></trkpt><trkpt lat="44.19729182073101" lon="8.269986064652715"><ele>371.0</ele><time>2026-04-04T14:34:29.999Z</time></trkpt><trkpt lat="44.19732088796124" lon="8.270103342699247"><ele>371.25</ele><time>2026-04-04T14:34:30.999Z</time></trkpt><trkpt lat="44.197333016952385" lon="8.270242520790452"><ele>371.5</ele><time>2026-04-04T14:34:31.999Z</time></trkpt><trkpt lat="44.19728481731755" lon="8.270383446479814"><ele>371.75</ele><time>2026-04-04T14:34:32.999Z</time></trkpt><trkpt lat="44.19722716597839" lon="8.270527952397787"><ele>372.0</ele><time>2026-04-04T14:34:33.999Z</time></trkpt><trkpt lat="44.19717307053759" lon="8.270690691806921"><ele>371.0</ele><time>2026-04-04T14:34:34.999Z</time></trkpt><trkpt lat="44.19711647316078" lon="8.270845396920697"><ele>370.0</ele><time>2026-04-04T14:34:35.999Z</time></trkpt><trkpt lat="44.197044925711495" lon="8.2709816274279"><ele>369.0</ele><time>2026-04-04T14:34:36.999Z</time></trkpt><trkpt lat="44.19693831545425" lon="8.271074341918348"><ele>368.0</ele><time>2026-04-04T14:34:37.999Z</time></trkpt><trkpt lat="44.196841439800586" lon="8.27119420282663"><ele>368.0</ele><time>2026-04-04T14:34:38.999Z</time></trkpt><trkpt lat="44.19674227536515" lon="8.271292417839073"><ele>368.0</ele><time>2026-04-04T14:34:39.999Z</time></trkpt><trkpt lat="44.196644248305496" lon="8.271389304960454"><ele>368.0</ele><time>2026-04-04T14:34:40.999Z</time></trkpt><trkpt lat="44.19657046147063" lon="8.271493071169761"><ele>368.0</ele><time>2026-04-04T14:34:41.999Z</time></trkpt><trkpt lat="44.196506833552235" lon="8.271615927601607"><ele>363.2</ele><time>2026-04-04T14:34:42.999Z</time></trkpt><trkpt lat="44.196454839485554" lon="8.271746683189113"><ele>358.4</ele><time>2026-04-04T14:34:43.999Z</time></trkpt><trkpt lat="44.196429334564435" lon="8.271889766733143"><ele>353.59999999999997</ele><time>2026-04-04T14:34:44.999Z</time></trkpt><trkpt lat="44.19642226249572" lon="8.272039939476281"><ele>348.79999999999995</ele><time>2026-04-04T14:34:45.999Z</time></trkpt><trkpt lat="44.196440085627046" lon="8.272209817785635"><ele>344.0</ele><time>2026-04-04T14:34:46.999Z</time></trkpt><trkpt lat="44.19643321524908" lon="8.272379417904437"><ele>343.75</ele><time>2026-04-04T14:34:47.999Z</time></trkpt><trkpt lat="44.19643329512294" lon="8.272536483813923"><ele>343.5</ele><time>2026-04-04T14:34:48.999Z</time></trkpt><trkpt lat="44.196452905301314" lon="8.272689997969836"><ele>343.25</ele><time>2026-04-04T14:34:49.999Z</time></trkpt><trkpt lat="44.19651073207873" lon="8.272825501760861"><ele>343.0</ele><time>2026-04-04T14:34:50.998Z</time></trkpt><trkpt lat="44.19657929769215" lon="8.272978490638629"><ele>346.8333333333333</ele><time>2026-04-04T14:34:51.998Z</time></trkpt><trkpt lat="44.196654485808814" lon="8.273113565174086"><ele>350.66666666666663</ele><time>2026-04-04T14:34:52.998Z</time></trkpt><trkpt lat="44.19671638798945" lon="8.273222795483633"><ele>354.5</ele><time>2026-04-04T14:34:53.998Z</time></trkpt><trkpt lat="44.196728692045646" lon="8.273308949306058"><ele>358.3333333333333</ele><time>2026-04-04T14:34:54.998Z</time></trkpt><trkpt lat="44.1967394853172" lon="8.273422619273221"><ele>362.1666666666667</ele><time>2026-04-04T14:34:55.998Z</time></trkpt><trkpt lat="44.19671955230721" lon="8.273533242531041"><ele>366.0</ele><time>2026-04-04T14:34:56.998Z</time></trkpt><trkpt lat="44.19662349729461" lon="8.273550107270685"><ele>362.75</ele><time>2026-04-04T14:34:57.998Z</time></trkpt><trkpt lat="44.19647019089168" lon="8.273543278997728"><ele>359.5</ele><time>2026-04-04T14:34:59.998Z</time></trkpt><trkpt lat="44.196346762179964" lon="8.273548051545967"><ele>356.25</ele><time>2026-04-04T14:35:00.998Z</time></trkpt><trkpt lat="44.19621863047407" lon="8.273545153243173"><ele>353.0</ele><time>2026-04-04T14:35:01.998Z</time></trkpt><trkpt lat="44.196108017754945" lon="8.273540082262093"><ele>353.0</ele><time>2026-04-04T14:35:02.998Z</time></trkpt><trkpt lat="44.19600879942822" lon="8.27357439801261"><ele>353.0</ele><time>2026-04-04T14:35:03.998Z</time></trkpt><trkpt lat="44.19591595967433" lon="8.273607108871957"><ele>353.0</ele><time>2026-04-04T14:35:04.998Z</time></trkpt><trkpt lat="44.19585847433448" lon="8.273698312599278"><ele>353.0</ele><time>2026-04-04T14:35:05.998Z</time></trkpt><trkpt lat="44.195836406434005" lon="8.273847142239337"><ele>353.0</ele><time>2026-04-04T14:35:06.998Z</time></trkpt><trkpt lat="44.19583705877137" lon="8.273986086518896"><ele>352.59999999999997</ele><time>2026-04-04T14:35:07.998Z</time></trkpt><trkpt lat="44.19586764940657" lon="8.274124154547057"><ele>352.2</ele><time>2026-04-04T14:35:08.998Z</time></trkpt><trkpt lat="44.195921863694416" lon="8.274226341389555"><ele>351.8</ele><time>2026-04-04T14:35:09.998Z</time></trkpt><trkpt lat="44.196017377005894" lon="8.274299303389476"><ele>351.4</ele><time>2026-04-04T14:35:10.998Z</time></trkpt><trkpt lat="44.196118408038124" lon="8.274328295601238"><ele>351.0</ele><time>2026-04-04T14:35:11.998Z</time></trkpt><trkpt lat="44.196205985887495" lon="8.274349975950361"><ele>351.0</ele><time>2026-04-04T14:35:12.998Z</time></trkpt><trkpt lat="44.196265427846456" lon="8.274440878592925"><ele>351.0</ele><time>2026-04-04T14:35:13.998Z</time></trkpt><trkpt lat="44.196273079551325" lon="8.274565697522412"><ele>351.0</ele><time>2026-04-04T14:35:14.998Z</time></trkpt><trkpt lat="44.196190906406684" lon="8.274653868915706"><ele>351.0</ele><time>2026-04-04T14:35:15.998Z</time></trkpt><trkpt lat="44.19610893393253" lon="8.274753145889463"><ele>351.0</ele><time>2026-04-04T14:35:16.998Z</time></trkpt><trkpt lat="44.19601713010279" lon="8.27492038308811"><ele>349.0</ele><time>2026-04-04T14:35:17.998Z</time></trkpt><trkpt lat="44.19597817847037" lon="8.27510313873188"><ele>347.0</ele><time>2026-04-04T14:35:18.998Z</time></trkpt><trkpt lat="44.19593457941798" lon="8.275269431833408"><ele>345.0</ele><time>2026-04-04T14:35:19.998Z</time></trkpt><trkpt lat="44.1958755129869" lon="8.275459476212369"><ele>343.0</ele><time>2026-04-04T14:35:20.998Z</time></trkpt><trkpt lat="44.195841216824206" lon="8.275642357610593"><ele>343.0</ele><time>2026-04-04T14:35:21.998Z</time></trkpt><trkpt lat="44.1958185844394" lon="8.275838478740843"><ele>343.0</ele><time>2026-04-04T14:35:22.999Z</time></trkpt><trkpt lat="44.19580332476" lon="8.27601768255071"><ele>343.0</ele><time>2026-04-04T14:35:23.999Z</time></trkpt><trkpt lat="44.19577586523163" lon="8.276251741957573"><ele>343.0</ele><time>2026-04-04T14:35:24.999Z</time></trkpt><trkpt lat="44.19576146741133" lon="8.276448586262129"><ele>342.0</ele><time>2026-04-04T14:35:25.999Z</time></trkpt><trkpt lat="44.19576141897013" lon="8.276637732187433"><ele>341.0</ele><time>2026-04-04T14:35:27Z</time></trkpt><trkpt lat="44.1957414713857" lon="8.276817728599179"><ele>340.0</ele><time>2026-04-04T14:35:27.999Z</time></trkpt><trkpt lat="44.195727545256695" lon="8.27698544947726"><ele>339.0</ele><time>2026-04-04T14:35:29Z</time></trkpt><trkpt lat="44.195731637511" lon="8.277138704446763"><ele>337.8333333333333</ele><time>2026-04-04T14:35:30Z</time></trkpt><trkpt lat="44.19574294847479" lon="8.277272428867699"><ele>336.6666666666667</ele><time>2026-04-04T14:35:31Z</time></trkpt><trkpt lat="44.195758447606515" lon="8.277390709310097"><ele>335.5</ele><time>2026-04-04T14:35:32Z</time></trkpt><trkpt lat="44.19577541241557" lon="8.277496549943114"><ele>334.33333333333337</ele><time>2026-04-04T14:35:33Z</time></trkpt><trkpt lat="44.19577378090026" lon="8.277602571805554"><ele>333.1666666666667</ele><time>2026-04-04T14:35:34Z</time></trkpt><trkpt lat="44.19574800141324" lon="8.277700392044284"><ele>332.0</ele><time>2026-04-04T14:35:35Z</time></trkpt><trkpt lat="44.19569792686598" lon="8.27777617763582"><ele>328.33333333333337</ele><time>2026-04-04T14:35:36Z</time></trkpt><trkpt lat="44.195650903124374" lon="8.277847191813368"><ele>324.6666666666667</ele><time>2026-04-04T14:35:37Z</time></trkpt><trkpt lat="44.19557962696047" lon="8.277902216306314"><ele>321.0</ele><time>2026-04-04T14:35:38Z</time></trkpt><trkpt lat="44.195505427375466" lon="8.27797753034226"><ele>317.3333333333333</ele><time>2026-04-04T14:35:39Z</time></trkpt><trkpt lat="44.19543340050879" lon="8.278067283627733"><ele>313.66666666666663</ele><time>2026-04-04T14:35:40Z</time></trkpt><trkpt lat="44.19536443249142" lon="8.278143681003307"><ele>310.0</ele><time>2026-04-04T14:35:41Z</time></trkpt><trkpt lat="44.19530035912435" lon="8.278220460213296"><ele>310.0</ele><time>2026-04-04T14:35:42Z</time></trkpt><trkpt lat="44.195238540694" lon="8.27831314862146"><ele>310.0</ele><time>2026-04-04T14:35:43Z</time></trkpt><trkpt lat="44.195216716889945" lon="8.278492392146909"><ele>310.0</ele><time>2026-04-04T14:35:44Z</time></trkpt><trkpt lat="44.19523651988195" lon="8.278681656224613"><ele>310.0</ele><time>2026-04-04T14:35:45Z</time></trkpt><trkpt lat="44.19525550950693" lon="8.278877234006812"><ele>309.75</ele><time>2026-04-04T14:35:46Z</time></trkpt><trkpt lat="44.19526970896444" lon="8.279093253433961"><ele>309.5</ele><time>2026-04-04T14:35:47Z</time></trkpt><trkpt lat="44.1952981001772" lon="8.27928561389398"><ele>309.25</ele><time>2026-04-04T14:35:48Z</time></trkpt><trkpt lat="44.19530321774496" lon="8.279476432878205"><ele>309.0</ele><time>2026-04-04T14:35:49Z</time></trkpt><trkpt lat="44.195317922220774" lon="8.279644384289455"><ele>309.25</ele><time>2026-04-04T14:35:50Z</time></trkpt><trkpt lat="44.19532713737964" lon="8.279806015646617"><ele>309.5</ele><time>2026-04-04T14:35:51Z</time></trkpt><trkpt lat="44.19529684645527" lon="8.279961218690358"><ele>309.75</ele><time>2026-04-04T14:35:52Z</time></trkpt><trkpt lat="44.19527873555969" lon="8.280132053979516"><ele>310.0</ele><time>2026-04-04T14:35:52.999Z</time></trkpt><trkpt lat="44.1952498174124" lon="8.280306235725014"><ele>310.0</ele><time>2026-04-04T14:35:53.999Z</time></trkpt><trkpt lat="44.1952223217434" lon="8.280495026585394"><ele>310.0</ele><time>2026-04-04T14:35:54.999Z</time></trkpt><trkpt lat="44.19520747449519" lon="8.280677090018306"><ele>310.0</ele><time>2026-04-04T14:35:55.999Z</time></trkpt><trkpt lat="44.19518887413838" lon="8.280852875512675"><ele>310.0</ele><time>2026-04-04T14:35:56.999Z</time></trkpt><trkpt lat="44.19514518492358" lon="8.281012731443736"><ele>311.25</ele><time>2026-04-04T14:35:57.999Z</time></trkpt><trkpt lat="44.19510966585082" lon="8.281170147785087"><ele>312.5</ele><time>2026-04-04T14:35:58.999Z</time></trkpt><trkpt lat="44.19508723059557" lon="8.28134044098134"><ele>313.75</ele><time>2026-04-04T14:35:59.999Z</time></trkpt><trkpt lat="44.19501826882676" lon="8.28148459651794"><ele>315.0</ele><time>2026-04-04T14:36:00.999Z</time></trkpt><trkpt lat="44.194968763117956" lon="8.281636156645789"><ele>315.0</ele><time>2026-04-04T14:36:01.999Z</time></trkpt><trkpt lat="44.1948919859726" lon="8.281773886865194"><ele>315.0</ele><time>2026-04-04T14:36:02.999Z</time></trkpt><trkpt lat="44.1948406838662" lon="8.281929966486794"><ele>315.0</ele><time>2026-04-04T14:36:03.999Z</time></trkpt><trkpt lat="44.194816765476645" lon="8.282118381509887"><ele>315.0</ele><time>2026-04-04T14:36:04.999Z</time></trkpt><trkpt lat="44.194801813037984" lon="8.282312795688053"><ele>318.2</ele><time>2026-04-04T14:36:05.999Z</time></trkpt><trkpt lat="44.194790387088275" lon="8.282486175516217"><ele>321.4</ele><time>2026-04-04T14:36:06.999Z</time></trkpt><trkpt lat="44.19478116021669" lon="8.282649684666765"><ele>324.6</ele><time>2026-04-04T14:36:07.999Z</time></trkpt><trkpt lat="44.194763821804955" lon="8.28279314415898"><ele>327.8</ele><time>2026-04-04T14:36:08.999Z</time></trkpt><trkpt lat="44.194732833092324" lon="8.282923526282875"><ele>331.0</ele><time>2026-04-04T14:36:09.999Z</time></trkpt><trkpt lat="44.19465693008884" lon="8.283018173176588"><ele>327.0</ele><time>2026-04-04T14:36:10.999Z</time></trkpt><trkpt lat="44.19459762339253" lon="8.28312353951976"><ele>323.0</ele><time>2026-04-04T14:36:11.999Z</time></trkpt><trkpt lat="44.19452983601268" lon="8.283155953038008"><ele>319.0</ele><time>2026-04-04T14:36:12.999Z</time></trkpt><trkpt lat="44.194409949976965" lon="8.283238812378219"><ele>315.0</ele><time>2026-04-04T14:36:14.999Z</time></trkpt><trkpt lat="44.19431753899296" lon="8.283263896791977"><ele>311.0</ele><time>2026-04-04T14:36:15.999Z</time></trkpt><trkpt lat="44.194207931626764" lon="8.28329306293715"><ele>311.0</ele><time>2026-04-04T14:36:16.999Z</time></trkpt><trkpt lat="44.19409837990553" lon="8.283385903980772"><ele>311.0</ele><time>2026-04-04T14:36:17.999Z</time></trkpt><trkpt lat="44.19399162897632" lon="8.283511910452068"><ele>311.0</ele><time>2026-04-04T14:36:18.999Z</time></trkpt><trkpt lat="44.19390745625547" lon="8.283645432964834"><ele>311.0</ele><time>2026-04-04T14:36:19.999Z</time></trkpt><trkpt lat="44.19382131853385" lon="8.283758532908125"><ele>309.40000000000003</ele><time>2026-04-04T14:36:20.999Z</time></trkpt><trkpt lat="44.193705790424744" lon="8.283799575746082"><ele>307.8</ele><time>2026-04-04T14:36:21.999Z</time></trkpt><trkpt lat="44.19361201226821" lon="8.28386483118874"><ele>306.20000000000005</ele><time>2026-04-04T14:36:22.999Z</time></trkpt><trkpt lat="44.19352738866981" lon="8.283936308827181"><ele>304.6</ele><time>2026-04-04T14:36:23.999Z</time></trkpt><trkpt lat="44.19346046197254" lon="8.284041718185835"><ele>303.0</ele><time>2026-04-04T14:36:24.999Z</time></trkpt><trkpt lat="44.193412201776404" lon="8.284222213942076"><ele>303.0</ele><time>2026-04-04T14:36:25.999Z</time></trkpt><trkpt lat="44.19338016577785" lon="8.28440513774315"><ele>303.0</ele><time>2026-04-04T14:36:26.999Z</time></trkpt><trkpt lat="44.19337716426325" lon="8.28460863237865"><ele>303.0</ele><time>2026-04-04T14:36:27.999Z</time></trkpt><trkpt lat="44.19337410354116" lon="8.284825666487786"><ele>303.0</ele><time>2026-04-04T14:36:28.999Z</time></trkpt><trkpt lat="44.19336810620094" lon="8.285030193095668"><ele>301.25</ele><time>2026-04-04T14:36:29.999Z</time></trkpt><trkpt lat="44.19336190582848" lon="8.28521269850221"><ele>299.5</ele><time>2026-04-04T14:36:30.999Z</time></trkpt><trkpt lat="44.19333502991599" lon="8.285391643162825"><ele>297.75</ele><time>2026-04-04T14:36:31.999Z</time></trkpt><trkpt lat="44.193314319883186" lon="8.285560905963981"><ele>296.0</ele><time>2026-04-04T14:36:32.999Z</time></trkpt><trkpt lat="44.19329355710668" lon="8.285717042858032"><ele>295.75</ele><time>2026-04-04T14:36:33.999Z</time></trkpt><trkpt lat="44.19324155737684" lon="8.285861349879521"><ele>295.5</ele><time>2026-04-04T14:36:34.999Z</time></trkpt><trkpt lat="44.19317405138153" lon="8.286011781215716"><ele>295.25</ele><time>2026-04-04T14:36:35.999Z</time></trkpt><trkpt lat="44.1930994681686" lon="8.286154107266519"><ele>295.0</ele><time>2026-04-04T14:36:36.999Z</time></trkpt><trkpt lat="44.19302729513185" lon="8.286289292272718"><ele>292.2</ele><time>2026-04-04T14:36:37.999Z</time></trkpt><trkpt lat="44.192945272208064" lon="8.286415996450325"><ele>289.4</ele><time>2026-04-04T14:36:38.999Z</time></trkpt><trkpt lat="44.19288092331517" lon="8.286546110629258"><ele>286.6</ele><time>2026-04-04T14:36:39.999Z</time></trkpt><trkpt lat="44.19284082610698" lon="8.286675429814588"><ele>283.8</ele><time>2026-04-04T14:36:40.999Z</time></trkpt><trkpt lat="44.192844847851326" lon="8.286814070896495"><ele>281.0</ele><time>2026-04-04T14:36:41.999Z</time></trkpt><trkpt lat="44.1928801668439" lon="8.286935847321145"><ele>281.0</ele><time>2026-04-04T14:36:42.999Z</time></trkpt><trkpt lat="44.192944783390715" lon="8.287040813374539"><ele>281.0</ele><time>2026-04-04T14:36:43.999Z</time></trkpt><trkpt lat="44.19305122494281" lon="8.287137782985578"><ele>281.0</ele><time>2026-04-04T14:36:44.999Z</time></trkpt><trkpt lat="44.193160916730186" lon="8.287236201852455"><ele>281.0</ele><time>2026-04-04T14:36:45.999Z</time></trkpt><trkpt lat="44.19326883639123" lon="8.28735806287389"><ele>283.75</ele><time>2026-04-04T14:36:46.999Z</time></trkpt><trkpt lat="44.19333756210576" lon="8.28750846307007"><ele>286.5</ele><time>2026-04-04T14:36:47.999Z</time></trkpt><trkpt lat="44.19339400982718" lon="8.287646140277875"><ele>289.25</ele><time>2026-04-04T14:36:48.999Z</time></trkpt><trkpt lat="44.193458515648345" lon="8.287802456293955"><ele>292.0</ele><time>2026-04-04T14:36:49.999Z</time></trkpt><trkpt lat="44.193498468919806" lon="8.28796294781439"><ele>290.75</ele><time>2026-04-04T14:36:50.999Z</time></trkpt><trkpt lat="44.1935295074111" lon="8.288118945739596"><ele>289.5</ele><time>2026-04-04T14:36:51.999Z</time></trkpt><trkpt lat="44.193530175881016" lon="8.288292488908612"><ele>288.25</ele><time>2026-04-04T14:36:52.999Z</time></trkpt><trkpt lat="44.19353189911009" lon="8.288473068887459"><ele>287.0</ele><time>2026-04-04T14:36:53.999Z</time></trkpt><trkpt lat="44.19353002139762" lon="8.288661712344231"><ele>287.0</ele><time>2026-04-04T14:36:54.999Z</time></trkpt><trkpt lat="44.1935239620048" lon="8.288842072366753"><ele>287.0</ele><time>2026-04-04T14:36:55.999Z</time></trkpt><trkpt lat="44.19352977437001" lon="8.289015883199667"><ele>287.0</ele><time>2026-04-04T14:36:56.999Z</time></trkpt><trkpt lat="44.193505351481356" lon="8.28917921433199"><ele>287.0</ele><time>2026-04-04T14:36:57.999Z</time></trkpt><trkpt lat="44.19350535148043" lon="8.289327576083286"><ele>287.0</ele><time>2026-04-04T14:36:58.999Z</time></trkpt><trkpt lat="44.19349485329792" lon="8.28946172084788"><ele>287.0</ele><time>2026-04-04T14:36:59.999Z</time></trkpt><trkpt lat="44.19345142355536" lon="8.289592574735513"><ele>287.0</ele><time>2026-04-04T14:37:00.999Z</time></trkpt><trkpt lat="44.19339085468173" lon="8.289741993762194"><ele>287.0</ele><time>2026-04-04T14:37:01.999Z</time></trkpt><trkpt lat="44.193295971264924" lon="8.289844118669153"><ele>287.0</ele><time>2026-04-04T14:37:02.999Z</time></trkpt><trkpt lat="44.193190251806385" lon="8.289875987074083"><ele>281.0</ele><time>2026-04-04T14:37:03.999Z</time></trkpt><trkpt lat="44.193100433406286" lon="8.289979772582225"><ele>275.0</ele><time>2026-04-04T14:37:04.999Z</time></trkpt><trkpt lat="44.19302624510486" lon="8.290102186693634"><ele>269.0</ele><time>2026-04-04T14:37:05.998Z</time></trkpt><trkpt lat="44.19295720724832" lon="8.290278976343751"><ele>263.0</ele><time>2026-04-04T14:37:06.998Z</time></trkpt><trkpt lat="44.19288519093215" lon="8.290465733916117"><ele>264.25</ele><time>2026-04-04T14:37:07.998Z</time></trkpt><trkpt lat="44.19280887092333" lon="8.290640008958118"><ele>265.5</ele><time>2026-04-04T14:37:08.998Z</time></trkpt><trkpt lat="44.19275260403683" lon="8.290828225375789"><ele>266.75</ele><time>2026-04-04T14:37:09.998Z</time></trkpt><trkpt lat="44.19271384802688" lon="8.290987926515047"><ele>268.0</ele><time>2026-04-04T14:37:10.998Z</time></trkpt><trkpt lat="44.19267453125753" lon="8.291139632943716"><ele>268.0</ele><time>2026-04-04T14:37:11.998Z</time></trkpt><trkpt lat="44.19261359623239" lon="8.291274940530936"><ele>268.0</ele><time>2026-04-04T14:37:12.998Z</time></trkpt><trkpt lat="44.19252653490539" lon="8.291380488909956"><ele>268.0</ele><time>2026-04-04T14:37:13.998Z</time></trkpt><trkpt lat="44.19245614717463" lon="8.291482846256768"><ele>268.0</ele><time>2026-04-04T14:37:14.998Z</time></trkpt><trkpt lat="44.192341314839105" lon="8.291560387041185"><ele>265.5</ele><time>2026-04-04T14:37:15.998Z</time></trkpt><trkpt lat="44.19221567707771" lon="8.291587415698327"><ele>263.0</ele><time>2026-04-04T14:37:16.998Z</time></trkpt><trkpt lat="44.19209673875849" lon="8.291636258245449"><ele>260.5</ele><time>2026-04-04T14:37:17.998Z</time></trkpt><trkpt lat="44.191954696058886" lon="8.291690393250912"><ele>258.0</ele><time>2026-04-04T14:37:18.998Z</time></trkpt><trkpt lat="44.19183276183445" lon="8.291765203741857"><ele>258.0</ele><time>2026-04-04T14:37:19.998Z</time></trkpt><trkpt lat="44.19171909370561" lon="8.291832825919453"><ele>258.0</ele><time>2026-04-04T14:37:20.998Z</time></trkpt><trkpt lat="44.19160139591821" lon="8.291875860739378"><ele>258.0</ele><time>2026-04-04T14:37:21.998Z</time></trkpt><trkpt lat="44.19147459323941" lon="8.291930992282387"><ele>258.0</ele><time>2026-04-04T14:37:22.998Z</time></trkpt><trkpt lat="44.19137869621299" lon="8.292002190020824"><ele>256.25</ele><time>2026-04-04T14:37:23.998Z</time></trkpt><trkpt lat="44.191294142957304" lon="8.292111496327218"><ele>254.5</ele><time>2026-04-04T14:37:24.998Z</time></trkpt><trkpt lat="44.19120844125803" lon="8.292253154275512"><ele>252.75</ele><time>2026-04-04T14:37:25.998Z</time></trkpt><trkpt lat="44.19115293143862" lon="8.292431686322292"><ele>251.0</ele><time>2026-04-04T14:37:26.998Z</time></trkpt><trkpt lat="44.19108214618183" lon="8.292589083197504"><ele>251.0</ele><time>2026-04-04T14:37:27.998Z</time></trkpt><trkpt lat="44.190981734150704" lon="8.292709106090049"><ele>251.0</ele><time>2026-04-04T14:37:28.999Z</time></trkpt><trkpt lat="44.19090075501661" lon="8.292821940230153"><ele>251.0</ele><time>2026-04-04T14:37:29.999Z</time></trkpt><trkpt lat="44.1908316913038" lon="8.292955545121265"><ele>251.0</ele><time>2026-04-04T14:37:30.999Z</time></trkpt><trkpt lat="44.19077854303654" lon="8.293088413204265"><ele>251.75</ele><time>2026-04-04T14:37:31.999Z</time></trkpt><trkpt lat="44.19068913529765" lon="8.293171292702333"><ele>252.5</ele><time>2026-04-04T14:37:32.999Z</time></trkpt><trkpt lat="44.19059132502482" lon="8.293250569618452"><ele>253.25</ele><time>2026-04-04T14:37:33.999Z</time></trkpt><trkpt lat="44.19046883035265" lon="8.293243283632409"><ele>254.0</ele><time>2026-04-04T14:37:34.999Z</time></trkpt><trkpt lat="44.190350381665226" lon="8.293236695712944"><ele>254.0</ele><time>2026-04-04T14:37:36Z</time></trkpt><trkpt lat="44.190222619704315" lon="8.293197083838312"><ele>254.0</ele><time>2026-04-04T14:37:37Z</time></trkpt><trkpt lat="44.190102075177364" lon="8.293189060457692"><ele>254.0</ele><time>2026-04-04T14:37:38Z</time></trkpt><trkpt lat="44.18999621233489" lon="8.293179530535244"><ele>254.0</ele><time>2026-04-04T14:37:39Z</time></trkpt><trkpt lat="44.189872182067354" lon="8.293185590740745"><ele>249.5</ele><time>2026-04-04T14:37:40Z</time></trkpt><trkpt lat="44.189752401181615" lon="8.293213199849134"><ele>245.0</ele><time>2026-04-04T14:37:41Z</time></trkpt><trkpt lat="44.18962160025184" lon="8.293311706275253"><ele>240.5</ele><time>2026-04-04T14:37:42Z</time></trkpt><trkpt lat="44.18946566980919" lon="8.293407350323765"><ele>236.0</ele><time>2026-04-04T14:37:43Z</time></trkpt><trkpt lat="44.18931617945507" lon="8.293499541235068"><ele>236.0</ele><time>2026-04-04T14:37:44Z</time></trkpt><trkpt lat="44.18917192961422" lon="8.29360565080282"><ele>236.0</ele><time>2026-04-04T14:37:45Z</time></trkpt><trkpt lat="44.1890089590251" lon="8.293638826066365"><ele>236.0</ele><time>2026-04-04T14:37:46Z</time></trkpt><trkpt lat="44.18885663495776" lon="8.293681638656567"><ele>230.66666666666669</ele><time>2026-04-04T14:37:47Z</time></trkpt><trkpt lat="44.18869255089992" lon="8.293722751654597"><ele>225.33333333333331</ele><time>2026-04-04T14:37:48Z</time></trkpt><trkpt lat="44.188547962097545" lon="8.293768605906678"><ele>220.0</ele><time>2026-04-04T14:37:49Z</time></trkpt><trkpt lat="44.18841248116195" lon="8.293809862970305"><ele>220.0</ele><time>2026-04-04T14:37:50Z</time></trkpt><trkpt lat="44.18827668509599" lon="8.293843786357542"><ele>220.0</ele><time>2026-04-04T14:37:51Z</time></trkpt><trkpt lat="44.188145671355116" lon="8.293869503658836"><ele>220.0</ele><time>2026-04-04T14:37:52Z</time></trkpt><trkpt lat="44.18801718870975" lon="8.293907523594566"><ele>220.0</ele><time>2026-04-04T14:37:53Z</time></trkpt><trkpt lat="44.18791369688857" lon="8.293986998829816"><ele>222.25</ele><time>2026-04-04T14:37:54Z</time></trkpt><trkpt lat="44.18781114955979" lon="8.294089567396837"><ele>224.5</ele><time>2026-04-04T14:37:55Z</time></trkpt><trkpt lat="44.18770623712288" lon="8.294201402960878"><ele>226.75</ele><time>2026-04-04T14:37:56Z</time></trkpt><trkpt lat="44.18763905719998" lon="8.294338822066583"><ele>229.0</ele><time>2026-04-04T14:37:57Z</time></trkpt><trkpt lat="44.1875686951232" lon="8.294483537754104"><ele>229.0</ele><time>2026-04-04T14:37:58Z</time></trkpt><trkpt lat="44.187498822355366" lon="8.294626320604156"><ele>228.99999999999997</ele><time>2026-04-04T14:37:58.999Z</time></trkpt><trkpt lat="44.18743451625684" lon="8.294757235415169"><ele>228.99999999999997</ele><time>2026-04-04T14:37:59.999Z</time></trkpt><trkpt lat="44.18737053215994" lon="8.294845918769914"><ele>229.0</ele><time>2026-04-04T14:38:00.999Z</time></trkpt><trkpt lat="44.187303732867726" lon="8.294925288502604"><ele>229.0</ele><time>2026-04-04T14:38:01.999Z</time></trkpt><trkpt lat="44.18720159406529" lon="8.294974321285817"><ele>231.75</ele><time>2026-04-04T14:38:02.999Z</time></trkpt><trkpt lat="44.187092114370564" lon="8.29488942865123"><ele>234.5</ele><time>2026-04-04T14:38:03.999Z</time></trkpt><trkpt lat="44.18695916573523" lon="8.294843157775501"><ele>237.25</ele><time>2026-04-04T14:38:04.999Z</time></trkpt><trkpt lat="44.18683554337612" lon="8.29481818405412"><ele>240.0</ele><time>2026-04-04T14:38:05.999Z</time></trkpt><trkpt lat="44.186715777541714" lon="8.29480769902086"><ele>240.0</ele><time>2026-04-04T14:38:06.999Z</time></trkpt><trkpt lat="44.18658478926709" lon="8.294830627126707"><ele>240.0</ele><time>2026-04-04T14:38:07.999Z</time></trkpt><trkpt lat="44.18644615547625" lon="8.294843996671064"><ele>240.0</ele><time>2026-04-04T14:38:08.999Z</time></trkpt><trkpt lat="44.186313233784446" lon="8.294792580938479"><ele>240.0</ele><time>2026-04-04T14:38:09.999Z</time></trkpt><trkpt lat="44.18616284562029" lon="8.294745943645061"><ele>233.0</ele><time>2026-04-04T14:38:10.999Z</time></trkpt><trkpt lat="44.186021424680135" lon="8.294717771972273"><ele>226.0</ele><time>2026-04-04T14:38:11.999Z</time></trkpt><trkpt lat="44.18589656732492" lon="8.294667615024537"><ele>219.0</ele><time>2026-04-04T14:38:12.999Z</time></trkpt><trkpt lat="44.185778993130775" lon="8.29463156408375"><ele>212.0</ele><time>2026-04-04T14:38:13.999Z</time></trkpt><trkpt lat="44.185635651236105" lon="8.29463134448745"><ele>211.5</ele><time>2026-04-04T14:38:14.999Z</time></trkpt><trkpt lat="44.18548925136909" lon="8.29462851980952"><ele>211.0</ele><time>2026-04-04T14:38:15.999Z</time></trkpt><trkpt lat="44.18534826863433" lon="8.294674211363024"><ele>210.5</ele><time>2026-04-04T14:38:16.999Z</time></trkpt><trkpt lat="44.18523166458205" lon="8.294650179853404"><ele>210.0</ele><time>2026-04-04T14:38:17.999Z</time></trkpt><trkpt lat="44.18510472887706" lon="8.29464080042335"><ele>210.0</ele><time>2026-04-04T14:38:18.999Z</time></trkpt><trkpt lat="44.18498585768879" lon="8.294563589091696"><ele>210.0</ele><time>2026-04-04T14:38:19.999Z</time></trkpt><trkpt lat="44.18486081589912" lon="8.294535999742145"><ele>210.0</ele><time>2026-04-04T14:38:20.999Z</time></trkpt><trkpt lat="44.184732731216044" lon="8.2945134722633"><ele>210.0</ele><time>2026-04-04T14:38:21.999Z</time></trkpt><trkpt lat="44.18460113686984" lon="8.294517290419956"><ele>208.25</ele><time>2026-04-04T14:38:22.999Z</time></trkpt><trkpt lat="44.184473084381715" lon="8.294544511680467"><ele>206.5</ele><time>2026-04-04T14:38:23.999Z</time></trkpt><trkpt lat="44.18434334108472" lon="8.294592625638925"><ele>204.75</ele><time>2026-04-04T14:38:24.999Z</time></trkpt><trkpt lat="44.18422115900864" lon="8.294634726113518"><ele>203.0</ele><time>2026-04-04T14:38:25.999Z</time></trkpt><trkpt lat="44.184100350656614" lon="8.294673645549365"><ele>200.60000000000002</ele><time>2026-04-04T14:38:26.999Z</time></trkpt><trkpt lat="44.18399235666782" lon="8.294698127930124"><ele>198.20000000000002</ele><time>2026-04-04T14:38:27.999Z</time></trkpt><trkpt lat="44.18388434608613" lon="8.29469263228207"><ele>195.8</ele><time>2026-04-04T14:38:28.999Z</time></trkpt><trkpt lat="44.18377112069443" lon="8.29466851394324"><ele>193.4</ele><time>2026-04-04T14:38:29.999Z</time></trkpt><trkpt lat="44.183686270886966" lon="8.29465081788225"><ele>191.0</ele><time>2026-04-04T14:38:30.999Z</time></trkpt><trkpt lat="44.18357395674914" lon="8.294693280270074"><ele>194.25</ele><time>2026-04-04T14:38:31.999Z</time></trkpt><trkpt lat="44.183487073587635" lon="8.294759870206283"><ele>197.5</ele><time>2026-04-04T14:38:32.999Z</time></trkpt><trkpt lat="44.18341232273593" lon="8.294881423351518"><ele>200.75</ele><time>2026-04-04T14:38:33.999Z</time></trkpt><trkpt lat="44.18333750561531" lon="8.295026787460339"><ele>204.0</ele><time>2026-04-04T14:38:34.999Z</time></trkpt><trkpt lat="44.18325816365919" lon="8.295178136224756"><ele>204.0</ele><time>2026-04-04T14:38:35.999Z</time></trkpt><trkpt lat="44.18318883689201" lon="8.29530548617648"><ele>204.0</ele><time>2026-04-04T14:38:36.999Z</time></trkpt><trkpt lat="44.18313140010757" lon="8.295412674332757"><ele>204.0</ele><time>2026-04-04T14:38:37.999Z</time></trkpt><trkpt lat="44.18308635315908" lon="8.295522032167664"><ele>204.0</ele><time>2026-04-04T14:38:38.999Z</time></trkpt><trkpt lat="44.18306104580524" lon="8.295646889311831"><ele>204.0</ele><time>2026-04-04T14:38:39.999Z</time></trkpt><trkpt lat="44.18306257265393" lon="8.295789589686061"><ele>201.75</ele><time>2026-04-04T14:38:40.999Z</time></trkpt><trkpt lat="44.183083096991425" lon="8.295946594094492"><ele>199.5</ele><time>2026-04-04T14:38:41.999Z</time></trkpt><trkpt lat="44.18310619356882" lon="8.296107646791143"><ele>197.25</ele><time>2026-04-04T14:38:42.999Z</time></trkpt><trkpt lat="44.18309142345566" lon="8.296268863767892"><ele>195.0</ele><time>2026-04-04T14:38:43.999Z</time></trkpt><trkpt lat="44.18308775381743" lon="8.29643258620419"><ele>194.25</ele><time>2026-04-04T14:38:44.999Z</time></trkpt><trkpt lat="44.18309426092283" lon="8.296608071017273"><ele>193.5</ele><time>2026-04-04T14:38:45.999Z</time></trkpt><trkpt lat="44.18306759767283" lon="8.296770271931939"><ele>192.75</ele><time>2026-04-04T14:38:46.999Z</time></trkpt><trkpt lat="44.183059416247" lon="8.296937100524232"><ele>192.0</ele><time>2026-04-04T14:38:47.999Z</time></trkpt><trkpt lat="44.183050952461095" lon="8.297079794121709"><ele>192.0</ele><time>2026-04-04T14:38:48.999Z</time></trkpt><trkpt lat="44.18304154467652" lon="8.297212132295982"><ele>192.0</ele><time>2026-04-04T14:38:49.999Z</time></trkpt><trkpt lat="44.183022591909044" lon="8.297331176920922"><ele>192.0</ele><time>2026-04-04T14:38:50.999Z</time></trkpt><trkpt lat="44.1829966792529" lon="8.297441200301167"><ele>192.0</ele><time>2026-04-04T14:38:51.999Z</time></trkpt><trkpt lat="44.1829901757341" lon="8.297563582868053"><ele>192.0</ele><time>2026-04-04T14:38:52.999Z</time></trkpt><trkpt lat="44.18295355036349" lon="8.297676210346888"><ele>192.0</ele><time>2026-04-04T14:38:53.999Z</time></trkpt><trkpt lat="44.182926720656425" lon="8.297784318423945"><ele>193.16666666666666</ele><time>2026-04-04T14:38:54.999Z</time></trkpt><trkpt lat="44.1828710602661" lon="8.297860150725185"><ele>194.33333333333331</ele><time>2026-04-04T14:38:55.999Z</time></trkpt><trkpt lat="44.18281582712324" lon="8.297919544801958"><ele>195.5</ele><time>2026-04-04T14:38:56.999Z</time></trkpt><trkpt lat="44.1827738827798" lon="8.29799173481369"><ele>196.66666666666666</ele><time>2026-04-04T14:38:57.999Z</time></trkpt><trkpt lat="44.182715168898646" lon="8.298039955473365"><ele>197.83333333333331</ele><time>2026-04-04T14:38:58.999Z</time></trkpt><trkpt lat="44.18263040876032" lon="8.29816886761334"><ele>199.0</ele><time>2026-04-04T14:39:00.999Z</time></trkpt><trkpt lat="44.182578380490995" lon="8.29822049214571"><ele>198.0</ele><time>2026-04-04T14:39:01.999Z</time></trkpt><trkpt lat="44.182547333922976" lon="8.298417872160579"><ele>197.0</ele><time>2026-04-04T14:39:03.999Z</time></trkpt><trkpt lat="44.18249840744179" lon="8.298533060311412"><ele>196.0</ele><time>2026-04-04T14:39:04.999Z</time></trkpt><trkpt lat="44.182464344906585" lon="8.298661842790395"><ele>195.0</ele><time>2026-04-04T14:39:05.999Z</time></trkpt><trkpt lat="44.18239840917858" lon="8.298781176747715"><ele>194.0</ele><time>2026-04-04T14:39:06.999Z</time></trkpt><trkpt lat="44.182354329197906" lon="8.298919177280828"><ele>196.2</ele><time>2026-04-04T14:39:07.999Z</time></trkpt><trkpt lat="44.182296567310715" lon="8.299059679661381"><ele>198.39999999999998</ele><time>2026-04-04T14:39:08.999Z</time></trkpt><trkpt lat="44.18223330018016" lon="8.299194499553941"><ele>200.6</ele><time>2026-04-04T14:39:09.999Z</time></trkpt><trkpt lat="44.182173792582816" lon="8.299328916265086"><ele>202.8</ele><time>2026-04-04T14:39:10.999Z</time></trkpt><trkpt lat="44.18211257026571" lon="8.299446272545337"><ele>205.0</ele><time>2026-04-04T14:39:11.999Z</time></trkpt><trkpt lat="44.18204423658695" lon="8.299551517173517"><ele>205.0</ele><time>2026-04-04T14:39:12.999Z</time></trkpt><trkpt lat="44.18198117388512" lon="8.299658199742236"><ele>205.0</ele><time>2026-04-04T14:39:13.999Z</time></trkpt><trkpt lat="44.18192224326148" lon="8.299762562143485"><ele>205.0</ele><time>2026-04-04T14:39:14.999Z</time></trkpt><trkpt lat="44.18186307776134" lon="8.299868783698944"><ele>205.0</ele><time>2026-04-04T14:39:15.999Z</time></trkpt><trkpt lat="44.181793098064865" lon="8.299974427082416"><ele>205.0</ele><time>2026-04-04T14:39:16.999Z</time></trkpt><trkpt lat="44.18174974592097" lon="8.300107085106783"><ele>204.2</ele><time>2026-04-04T14:39:17.998Z</time></trkpt><trkpt lat="44.181710776495784" lon="8.300248481319786"><ele>203.4</ele><time>2026-04-04T14:39:18.998Z</time></trkpt><trkpt lat="44.181694656579964" lon="8.300402936176638"><ele>202.60000000000002</ele><time>2026-04-04T14:39:19.998Z</time></trkpt><trkpt lat="44.18167961846449" lon="8.300548809827522"><ele>201.8</ele><time>2026-04-04T14:39:20.998Z</time></trkpt><trkpt lat="44.181668269311686" lon="8.300689493921707"><ele>201.0</ele><time>2026-04-04T14:39:21.998Z</time></trkpt><trkpt lat="44.18165927067041" lon="8.300822018329239"><ele>201.60000000000002</ele><time>2026-04-04T14:39:22.998Z</time></trkpt><trkpt lat="44.18164697780758" lon="8.300950471183373"><ele>202.2</ele><time>2026-04-04T14:39:23.998Z</time></trkpt><trkpt lat="44.181618596854584" lon="8.301068936322292"><ele>202.8</ele><time>2026-04-04T14:39:24.998Z</time></trkpt><trkpt lat="44.18156486139313" lon="8.301181648220574"><ele>203.39999999999998</ele><time>2026-04-04T14:39:25.998Z</time></trkpt><trkpt lat="44.181482861779436" lon="8.301293490046179"><ele>204.0</ele><time>2026-04-04T14:39:26.998Z</time></trkpt><trkpt lat="44.181398264546154" lon="8.301407414871525"><ele>202.25</ele><time>2026-04-04T14:39:27.998Z</time></trkpt><trkpt lat="44.18131164006769" lon="8.301532285641873"><ele>200.5</ele><time>2026-04-04T14:39:28.998Z</time></trkpt><trkpt lat="44.18125390229758" lon="8.301679728469747"><ele>198.75</ele><time>2026-04-04T14:39:29.998Z</time></trkpt><trkpt lat="44.18119718681798" lon="8.301825807561"><ele>197.0</ele><time>2026-04-04T14:39:30.998Z</time></trkpt><trkpt lat="44.181145674614214" lon="8.301994982132642"><ele>197.0</ele><time>2026-04-04T14:39:31.998Z</time></trkpt><trkpt lat="44.181109652393665" lon="8.302169185526882"><ele>197.0</ele><time>2026-04-04T14:39:32.998Z</time></trkpt><trkpt lat="44.181082566881486" lon="8.302341190190758"><ele>197.0</ele><time>2026-04-04T14:39:33.998Z</time></trkpt><trkpt lat="44.18106752543901" lon="8.302515094576982"><ele>197.0</ele><time>2026-04-04T14:39:35Z</time></trkpt><trkpt lat="44.18105524855615" lon="8.30268586269345"><ele>195.39999999999998</ele><time>2026-04-04T14:39:36Z</time></trkpt><trkpt lat="44.181039362446676" lon="8.302850033159862"><ele>193.79999999999998</ele><time>2026-04-04T14:39:37Z</time></trkpt><trkpt lat="44.18102653305449" lon="8.303006223501987"><ele>192.2</ele><time>2026-04-04T14:39:38Z</time></trkpt><trkpt lat="44.18102783858889" lon="8.303155818459102"><ele>190.6</ele><time>2026-04-04T14:39:39Z</time></trkpt><trkpt lat="44.181060007750816" lon="8.303300532154289"><ele>189.0</ele><time>2026-04-04T14:39:40Z</time></trkpt><trkpt lat="44.18110499902154" lon="8.303436696245507"><ele>186.75</ele><time>2026-04-04T14:39:41Z</time></trkpt><trkpt lat="44.181129573443734" lon="8.303579538779616"><ele>184.5</ele><time>2026-04-04T14:39:42Z</time></trkpt><trkpt lat="44.181120788592295" lon="8.303749200058618"><ele>182.25</ele><time>2026-04-04T14:39:43Z</time></trkpt><trkpt lat="44.18109517755972" lon="8.303917177773272"><ele>180.0</ele><time>2026-04-04T14:39:44Z</time></trkpt><trkpt lat="44.18105064410687" lon="8.304072082911116"><ele>178.2</ele><time>2026-04-04T14:39:45Z</time></trkpt><trkpt lat="44.18101498036347" lon="8.304223807352956"><ele>176.4</ele><time>2026-04-04T14:39:46Z</time></trkpt><trkpt lat="44.18096911263792" lon="8.304359012840312"><ele>174.60000000000002</ele><time>2026-04-04T14:39:47Z</time></trkpt><trkpt lat="44.18090309678262" lon="8.304476329028224"><ele>172.8</ele><time>2026-04-04T14:39:48Z</time></trkpt><trkpt lat="44.180818957168704" lon="8.304566328376472"><ele>171.0</ele><time>2026-04-04T14:39:49Z</time></trkpt><trkpt lat="44.180743105370496" lon="8.304664321286905"><ele>168.60000000000002</ele><time>2026-04-04T14:39:50Z</time></trkpt><trkpt lat="44.18068074352467" lon="8.304753878128713"><ele>166.20000000000002</ele><time>2026-04-04T14:39:51Z</time></trkpt><trkpt lat="44.18062608274978" lon="8.304859669264772"><ele>163.8</ele><time>2026-04-04T14:39:52Z</time></trkpt><trkpt lat="44.180625251129435" lon="8.305003160555687"><ele>161.4</ele><time>2026-04-04T14:39:53Z</time></trkpt><trkpt lat="44.18067979308689" lon="8.30510463308823"><ele>159.0</ele><time>2026-04-04T14:39:54Z</time></trkpt><trkpt lat="44.18073665729774" lon="8.305207281078967"><ele>159.0</ele><time>2026-04-04T14:39:55Z</time></trkpt><trkpt lat="44.18078830196233" lon="8.305268623470678"><ele>159.0</ele><time>2026-04-04T14:39:56Z</time></trkpt><trkpt lat="44.18084617612085" lon="8.30537639330513"><ele>159.0</ele><time>2026-04-04T14:39:57Z</time></trkpt><trkpt lat="44.180865854458325" lon="8.305505686354616"><ele>159.0</ele><time>2026-04-04T14:39:58Z</time></trkpt><trkpt lat="44.18085284747423" lon="8.305632214361673"><ele>159.0</ele><time>2026-04-04T14:39:59Z</time></trkpt><trkpt lat="44.1807834136395" lon="8.305721680686585"><ele>159.0</ele><time>2026-04-04T14:40:00Z</time></trkpt><trkpt lat="44.18069723358141" lon="8.305792859514714"><ele>163.5</ele><time>2026-04-04T14:40:01Z</time></trkpt><trkpt lat="44.18060642528398" lon="8.305902476697524"><ele>168.0</ele><time>2026-04-04T14:40:02Z</time></trkpt><trkpt lat="44.18050256455589" lon="8.30602683243865"><ele>172.5</ele><time>2026-04-04T14:40:03Z</time></trkpt><trkpt lat="44.18039865995005" lon="8.30615124098488"><ele>177.0</ele><time>2026-04-04T14:40:04Z</time></trkpt><trkpt lat="44.180303828556625" lon="8.306264787353387"><ele>177.0</ele><time>2026-04-04T14:40:05Z</time></trkpt><trkpt lat="44.180195209212734" lon="8.306381100086018"><ele>177.0</ele><time>2026-04-04T14:40:06Z</time></trkpt><trkpt lat="44.180091822272615" lon="8.30649396425665"><ele>177.0</ele><time>2026-04-04T14:40:07Z</time></trkpt><trkpt lat="44.1799941158096" lon="8.30659529782215"><ele>177.0</ele><time>2026-04-04T14:40:08Z</time></trkpt><trkpt lat="44.179930881434" lon="8.3067094031181"><ele>173.2</ele><time>2026-04-04T14:40:09Z</time></trkpt><trkpt lat="44.17988885647717" lon="8.306814221044792"><ele>169.39999999999998</ele><time>2026-04-04T14:40:10Z</time></trkpt><trkpt lat="44.179893042061614" lon="8.306928316361155"><ele>165.60000000000002</ele><time>2026-04-04T14:40:11Z</time></trkpt><trkpt lat="44.17993708636149" lon="8.307047804853099"><ele>161.8</ele><time>2026-04-04T14:40:12Z</time></trkpt><trkpt lat="44.180021506727705" lon="8.307146689075484"><ele>158.0</ele><time>2026-04-04T14:40:13Z</time></trkpt><trkpt lat="44.18014329387939" lon="8.307200389515218"><ele>158.0</ele><time>2026-04-04T14:40:14Z</time></trkpt><trkpt lat="44.18028276933627" lon="8.307232632832957"><ele>158.0</ele><time>2026-04-04T14:40:15Z</time></trkpt><trkpt lat="44.18040333144557" lon="8.307287834953136"><ele>158.0</ele><time>2026-04-04T14:40:16Z</time></trkpt><trkpt lat="44.18051168610009" lon="8.30736062218001"><ele>158.0</ele><time>2026-04-04T14:40:17Z</time></trkpt><trkpt lat="44.180615057291895" lon="8.307470781129982"><ele>156.75</ele><time>2026-04-04T14:40:18Z</time></trkpt><trkpt lat="44.18066028637082" lon="8.30761494055987"><ele>155.5</ele><time>2026-04-04T14:40:19Z</time></trkpt><trkpt lat="44.18066814288345" lon="8.30777422245979"><ele>154.25</ele><time>2026-04-04T14:40:20Z</time></trkpt><trkpt lat="44.18062902530132" lon="8.307942972907911"><ele>153.0</ele><time>2026-04-04T14:40:20.999Z</time></trkpt><trkpt lat="44.18059717080513" lon="8.308086888394163"><ele>150.4</ele><time>2026-04-04T14:40:21.999Z</time></trkpt><trkpt lat="44.18054254973817" lon="8.308199677092357"><ele>147.8</ele><time>2026-04-04T14:40:22.999Z</time></trkpt><trkpt lat="44.18047402935739" lon="8.30828324824582"><ele>145.2</ele><time>2026-04-04T14:40:23.999Z</time></trkpt><trkpt lat="44.18036428512988" lon="8.308317176365358"><ele>142.6</ele><time>2026-04-04T14:40:24.999Z</time></trkpt><trkpt lat="44.180225597500886" lon="8.308347234864776"><ele>140.0</ele><time>2026-04-04T14:40:25.999Z</time></trkpt><trkpt lat="44.18009401548598" lon="8.30837670739459"><ele>140.0</ele><time>2026-04-04T14:40:26.999Z</time></trkpt><trkpt lat="44.179982117726865" lon="8.308420748473713"><ele>140.0</ele><time>2026-04-04T14:40:27.999Z</time></trkpt><trkpt lat="44.17988003536911" lon="8.308440608773038"><ele>140.0</ele><time>2026-04-04T14:40:28.999Z</time></trkpt><trkpt lat="44.17978044002363" lon="8.308513132086118"><ele>140.0</ele><time>2026-04-04T14:40:29.999Z</time></trkpt><trkpt lat="44.17970493421991" lon="8.308652258656746"><ele>141.66666666666666</ele><time>2026-04-04T14:40:30.999Z</time></trkpt><trkpt lat="44.179645724482704" lon="8.308830671188781"><ele>143.33333333333334</ele><time>2026-04-04T14:40:31.999Z</time></trkpt><trkpt lat="44.17957363160665" lon="8.309032825063184"><ele>145.0</ele><time>2026-04-04T14:40:32.999Z</time></trkpt><trkpt lat="44.17951008522521" lon="8.30923492908833"><ele>145.0</ele><time>2026-04-04T14:40:33.999Z</time></trkpt><trkpt lat="44.179454007599" lon="8.309412849512606"><ele>145.0</ele><time>2026-04-04T14:40:34.999Z</time></trkpt><trkpt lat="44.17939799330106" lon="8.309587492753353"><ele>145.0</ele><time>2026-04-04T14:40:35.999Z</time></trkpt><trkpt lat="44.17935105081172" lon="8.309733852489215"><ele>145.0</ele><time>2026-04-04T14:40:36.999Z</time></trkpt><trkpt lat="44.179307931504624" lon="8.309861444535775"><ele>147.4</ele><time>2026-04-04T14:40:37.999Z</time></trkpt><trkpt lat="44.17924744175772" lon="8.309972786245241"><ele>149.8</ele><time>2026-04-04T14:40:38.999Z</time></trkpt><trkpt lat="44.17916026604393" lon="8.310043182074399"><ele>152.2</ele><time>2026-04-04T14:40:39.999Z</time></trkpt><trkpt lat="44.179064166928285" lon="8.310123611802736"><ele>154.6</ele><time>2026-04-04T14:40:40.999Z</time></trkpt><trkpt lat="44.178957876458924" lon="8.31015569511781"><ele>157.0</ele><time>2026-04-04T14:40:41.999Z</time></trkpt><trkpt lat="44.1788717766824" lon="8.310229235553846"><ele>157.0</ele><time>2026-04-04T14:40:42.999Z</time></trkpt><trkpt lat="44.17881099217017" lon="8.310361179815668"><ele>157.0</ele><time>2026-04-04T14:40:43.999Z</time></trkpt><trkpt lat="44.178778945374326" lon="8.31052940485269"><ele>157.0</ele><time>2026-04-04T14:40:44.999Z</time></trkpt><trkpt lat="44.178789109599606" lon="8.310658109542283"><ele>157.0</ele><time>2026-04-04T14:40:45.999Z</time></trkpt><trkpt lat="44.17882117235285" lon="8.310763644933814"><ele>157.0</ele><time>2026-04-04T14:40:46.999Z</time></trkpt><trkpt lat="44.17887872002088" lon="8.310872722173407"><ele>156.5</ele><time>2026-04-04T14:40:47.999Z</time></trkpt><trkpt lat="44.1789344482734" lon="8.311006863935729"><ele>156.0</ele><time>2026-04-04T14:40:48.999Z</time></trkpt><trkpt lat="44.178964322200315" lon="8.311149296832184"><ele>155.5</ele><time>2026-04-04T14:40:49.999Z</time></trkpt><trkpt lat="44.17899635624692" lon="8.311306081727025"><ele>155.0</ele><time>2026-04-04T14:40:50.999Z</time></trkpt><trkpt lat="44.178985227410834" lon="8.3114681939596"><ele>156.5</ele><time>2026-04-04T14:40:51.999Z</time></trkpt><trkpt lat="44.17894550700333" lon="8.311627170938417"><ele>158.0</ele><time>2026-04-04T14:40:52.999Z</time></trkpt><trkpt lat="44.178911582495616" lon="8.311813193463085"><ele>159.5</ele><time>2026-04-04T14:40:53.999Z</time></trkpt><trkpt lat="44.17885124152677" lon="8.311985663908782"><ele>161.0</ele><time>2026-04-04T14:40:54.999Z</time></trkpt><trkpt lat="44.17880103291727" lon="8.312173043628068"><ele>155.25</ele><time>2026-04-04T14:40:55.999Z</time></trkpt><trkpt lat="44.178779121593976" lon="8.312357345053153"><ele>149.5</ele><time>2026-04-04T14:40:56.999Z</time></trkpt><trkpt lat="44.17876521153992" lon="8.31254205615739"><ele>143.75</ele><time>2026-04-04T14:40:57.999Z</time></trkpt><trkpt lat="44.17874838996114" lon="8.312717525057606"><ele>138.0</ele><time>2026-04-04T14:40:58.999Z</time></trkpt><trkpt lat="44.178727769502885" lon="8.31288464508788"><ele>138.0</ele><time>2026-04-04T14:40:59.999Z</time></trkpt><trkpt lat="44.17866695177797" lon="8.313037070826345"><ele>138.0</ele><time>2026-04-04T14:41:00.999Z</time></trkpt><trkpt lat="44.178589849678666" lon="8.31318969443293"><ele>138.0</ele><time>2026-04-04T14:41:01.999Z</time></trkpt><trkpt lat="44.178502171513806" lon="8.313347025969177"><ele>138.0</ele><time>2026-04-04T14:41:02.999Z</time></trkpt><trkpt lat="44.17842292528903" lon="8.313517088262364"><ele>141.33333333333334</ele><time>2026-04-04T14:41:03.999Z</time></trkpt><trkpt lat="44.17831711299176" lon="8.31365589944965"><ele>144.66666666666669</ele><time>2026-04-04T14:41:04.999Z</time></trkpt><trkpt lat="44.178181960920746" lon="8.313773917636386"><ele>148.0</ele><time>2026-04-04T14:41:05.999Z</time></trkpt><trkpt lat="44.17807467984987" lon="8.313915334486845"><ele>138.33333333333334</ele><time>2026-04-04T14:41:06.999Z</time></trkpt><trkpt lat="44.177971105691164" lon="8.314045171008123"><ele>128.66666666666666</ele><time>2026-04-04T14:41:07.999Z</time></trkpt><trkpt lat="44.1778802455715" lon="8.314211613527954"><ele>119.0</ele><time>2026-04-04T14:41:08.999Z</time></trkpt><trkpt lat="44.17780730055729" lon="8.314428290021754"><ele>119.0</ele><time>2026-04-04T14:41:09.999Z</time></trkpt><trkpt lat="44.177721032134826" lon="8.314607122609686"><ele>119.0</ele><time>2026-04-04T14:41:10.999Z</time></trkpt><trkpt lat="44.17764234533542" lon="8.314780467791225"><ele>119.0</ele><time>2026-04-04T14:41:11.999Z</time></trkpt><trkpt lat="44.17753953159549" lon="8.31495582861609"><ele>120.66666666666666</ele><time>2026-04-04T14:41:12.999Z</time></trkpt><trkpt lat="44.17742013814988" lon="8.315139402933065"><ele>122.33333333333334</ele><time>2026-04-04T14:41:13.999Z</time></trkpt><trkpt lat="44.17728804689238" lon="8.315320352304914"><ele>124.0</ele><time>2026-04-04T14:41:14.999Z</time></trkpt><trkpt lat="44.17716062907782" lon="8.315492371470775"><ele>114.0</ele><time>2026-04-04T14:41:15.999Z</time></trkpt><trkpt lat="44.17703978460522" lon="8.315655977404376"><ele>104.0</ele><time>2026-04-04T14:41:16.999Z</time></trkpt><trkpt lat="44.176913846311756" lon="8.31583402597697"><ele>94.0</ele><time>2026-04-04T14:41:17.999Z</time></trkpt><trkpt lat="44.17678788674009" lon="8.316026145451106"><ele>94.0</ele><time>2026-04-04T14:41:18.999Z</time></trkpt><trkpt lat="44.17667190640056" lon="8.316206434699724"><ele>94.0</ele><time>2026-04-04T14:41:19.999Z</time></trkpt><trkpt lat="44.1765558761292" lon="8.316387964163436"><ele>94.0</ele><time>2026-04-04T14:41:20.999Z</time></trkpt><trkpt lat="44.17644527417129" lon="8.316561001063029"><ele>96.66666666666666</ele><time>2026-04-04T14:41:21.999Z</time></trkpt><trkpt lat="44.17633591592551" lon="8.316732497167076"><ele>99.33333333333333</ele><time>2026-04-04T14:41:22.999Z</time></trkpt><trkpt lat="44.176233787678356" lon="8.316890411554049"><ele>102.0</ele><time>2026-04-04T14:41:23.999Z</time></trkpt><trkpt lat="44.176121071733135" lon="8.317046858382984"><ele>102.0</ele><time>2026-04-04T14:41:24.999Z</time></trkpt><trkpt lat="44.175997406616595" lon="8.31718385156505"><ele>102.0</ele><time>2026-04-04T14:41:25.999Z</time></trkpt><trkpt lat="44.175877165326504" lon="8.317318093290236"><ele>102.0</ele><time>2026-04-04T14:41:26.999Z</time></trkpt><trkpt lat="44.17577047311284" lon="8.31746623919525"><ele>102.0</ele><time>2026-04-04T14:41:27.999Z</time></trkpt><trkpt lat="44.17568261223145" lon="8.3176220395093"><ele>102.0</ele><time>2026-04-04T14:41:28.999Z</time></trkpt><trkpt lat="44.17559715842286" lon="8.31778124570804"><ele>102.0</ele><time>2026-04-04T14:41:29.999Z</time></trkpt><trkpt lat="44.175517092171816" lon="8.31793035003417"><ele>102.0</ele><time>2026-04-04T14:41:30.999Z</time></trkpt><trkpt lat="44.175441533230185" lon="8.318071359205748"><ele>102.0</ele><time>2026-04-04T14:41:31.999Z</time></trkpt><trkpt lat="44.17537874781383" lon="8.318209813460884"><ele>102.0</ele><time>2026-04-04T14:41:32.999Z</time></trkpt><trkpt lat="44.175330501493136" lon="8.318364855253366"><ele>102.0</ele><time>2026-04-04T14:41:33.999Z</time></trkpt><trkpt lat="44.17531746611084" lon="8.318555777123029"><ele>102.0</ele><time>2026-04-04T14:41:34.999Z</time></trkpt><trkpt lat="44.17532988045638" lon="8.318751882099688"><ele>101.0</ele><time>2026-04-04T14:41:35.999Z</time></trkpt><trkpt lat="44.17537739495786" lon="8.318921661555914"><ele>100.0</ele><time>2026-04-04T14:41:36.999Z</time></trkpt><trkpt lat="44.17541088229915" lon="8.319067976438799"><ele>99.0</ele><time>2026-04-04T14:41:37.999Z</time></trkpt><trkpt lat="44.17545004243186" lon="8.319199181659236"><ele>98.0</ele><time>2026-04-04T14:41:38.999Z</time></trkpt><trkpt lat="44.17546973435423" lon="8.319322211386197"><ele>97.0</ele><time>2026-04-04T14:41:39.999Z</time></trkpt><trkpt lat="44.17546548389524" lon="8.319460343789371"><ele>97.0</ele><time>2026-04-04T14:41:41Z</time></trkpt><trkpt lat="44.17543431074681" lon="8.319617491505149"><ele>97.0</ele><time>2026-04-04T14:41:42Z</time></trkpt><trkpt lat="44.17538104232999" lon="8.319809765473297"><ele>97.0</ele><time>2026-04-04T14:41:43Z</time></trkpt><trkpt lat="44.175331539847335" lon="8.320040250551946"><ele>97.0</ele><time>2026-04-04T14:41:44Z</time></trkpt><trkpt lat="44.17532495829707" lon="8.320297407402302"><ele>93.66666666666667</ele><time>2026-04-04T14:41:45Z</time></trkpt><trkpt lat="44.17529500432187" lon="8.320546643069068"><ele>90.33333333333334</ele><time>2026-04-04T14:41:46Z</time></trkpt><trkpt lat="44.17528303403999" lon="8.32077338612533"><ele>87.0</ele><time>2026-04-04T14:41:47Z</time></trkpt><trkpt lat="44.175270289340475" lon="8.320990562349346"><ele>84.25</ele><time>2026-04-04T14:41:48Z</time></trkpt><trkpt lat="44.17525669028226" lon="8.321202368773672"><ele>81.5</ele><time>2026-04-04T14:41:49Z</time></trkpt><trkpt lat="44.17523875587977" lon="8.321404238802232"><ele>78.75</ele><time>2026-04-04T14:41:50Z</time></trkpt><trkpt lat="44.17520867591351" lon="8.321610273810428"><ele>76.0</ele><time>2026-04-04T14:41:51Z</time></trkpt><trkpt lat="44.17517414833658" lon="8.321822166488257"><ele>72.66666666666666</ele><time>2026-04-04T14:41:52Z</time></trkpt><trkpt lat="44.17513694277634" lon="8.32203494720286"><ele>69.33333333333333</ele><time>2026-04-04T14:41:53Z</time></trkpt><trkpt lat="44.17509282108599" lon="8.322241182947883"><ele>66.0</ele><time>2026-04-04T14:41:54Z</time></trkpt><trkpt lat="44.17504103072071" lon="8.322445248332839"><ele>60.5</ele><time>2026-04-04T14:41:55Z</time></trkpt><trkpt lat="44.17498960721166" lon="8.322642514394254"><ele>55.0</ele><time>2026-04-04T14:41:56Z</time></trkpt><trkpt lat="44.17493866647969" lon="8.322837927471223"><ele>49.5</ele><time>2026-04-04T14:41:57Z</time></trkpt><trkpt lat="44.17490488278118" lon="8.323027624240938"><ele>44.0</ele><time>2026-04-04T14:41:58Z</time></trkpt><trkpt lat="44.17484729116499" lon="8.323186922770851"><ele>48.5</ele><time>2026-04-04T14:41:59Z</time></trkpt><trkpt lat="44.17481067267701" lon="8.323326117861736"><ele>53.0</ele><time>2026-04-04T14:42:00Z</time></trkpt><trkpt lat="44.174792752497105" lon="8.32346308589947"><ele>57.5</ele><time>2026-04-04T14:42:01Z</time></trkpt><trkpt lat="44.17476253444897" lon="8.323572265784422"><ele>62.0</ele><time>2026-04-04T14:42:02Z</time></trkpt><trkpt lat="44.174735014497124" lon="8.323667671397338"><ele>66.5</ele><time>2026-04-04T14:42:03Z</time></trkpt><trkpt lat="44.1746825564128" lon="8.323756613427657"><ele>71.0</ele><time>2026-04-04T14:42:04Z</time></trkpt><trkpt lat="44.17466854613125" lon="8.32390037130437"><ele>71.0</ele><time>2026-04-04T14:42:05Z</time></trkpt><trkpt lat="44.174674730466556" lon="8.324051882463577"><ele>71.0</ele><time>2026-04-04T14:42:06Z</time></trkpt><trkpt lat="44.17467578570374" lon="8.324219553665687"><ele>71.0</ele><time>2026-04-04T14:42:07Z</time></trkpt><trkpt lat="44.17465214191358" lon="8.324398206493244"><ele>71.0</ele><time>2026-04-04T14:42:08Z</time></trkpt><trkpt lat="44.17462958218116" lon="8.324573974019994"><ele>67.75</ele><time>2026-04-04T14:42:09Z</time></trkpt><trkpt lat="44.17458903147563" lon="8.324761801796907"><ele>64.5</ele><time>2026-04-04T14:42:10Z</time></trkpt><trkpt lat="44.174570946578726" lon="8.324958977149128"><ele>61.25</ele><time>2026-04-04T14:42:11Z</time></trkpt><trkpt lat="44.17455319302594" lon="8.325132881791948"><ele>58.0</ele><time>2026-04-04T14:42:12Z</time></trkpt><trkpt lat="44.1745284594608" lon="8.325304354595632"><ele>58.0</ele><time>2026-04-04T14:42:13Z</time></trkpt><trkpt lat="44.17450586547871" lon="8.325464531564991"><ele>58.0</ele><time>2026-04-04T14:42:14Z</time></trkpt><trkpt lat="44.17448515974894" lon="8.325610553274293"><ele>58.0</ele><time>2026-04-04T14:42:15Z</time></trkpt><trkpt lat="44.174467332452316" lon="8.325745575627984"><ele>58.0</ele><time>2026-04-04T14:42:16Z</time></trkpt><trkpt lat="44.174449058152376" lon="8.325867248973088"><ele>58.0</ele><time>2026-04-04T14:42:17Z</time></trkpt><trkpt lat="44.17443968628623" lon="8.325995127521182"><ele>55.83333333333333</ele><time>2026-04-04T14:42:19Z</time></trkpt><trkpt lat="44.17442641262311" lon="8.32611400644751"><ele>53.666666666666664</ele><time>2026-04-04T14:42:27Z</time></trkpt><trkpt lat="44.17442437203912" lon="8.326213067940122"><ele>51.5</ele><time>2026-04-04T14:42:28Z</time></trkpt><trkpt lat="44.17440157559209" lon="8.326305441066793"><ele>49.33333333333333</ele><time>2026-04-04T14:42:28.999Z</time></trkpt><trkpt lat="44.174387779023164" lon="8.326398598223824"><ele>47.166666666666664</ele><time>2026-04-04T14:42:29.999Z</time></trkpt><trkpt lat="44.17436246854981" lon="8.32655908105763"><ele>45.0</ele><time>2026-04-04T14:42:31.999Z</time></trkpt><trkpt lat="44.17435023075299" lon="8.326652389431255"><ele>43.2</ele><time>2026-04-04T14:42:32.999Z</time></trkpt><trkpt lat="44.17433438659209" lon="8.32675359611146"><ele>41.4</ele><time>2026-04-04T14:42:33.999Z</time></trkpt><trkpt lat="44.17431775304327" lon="8.326870286766026"><ele>39.6</ele><time>2026-04-04T14:42:34.999Z</time></trkpt><trkpt lat="44.17429618067191" lon="8.327008208438818"><ele>37.8</ele><time>2026-04-04T14:42:35.999Z</time></trkpt><trkpt lat="44.17427968526291" lon="8.327163973974448"><ele>36.0</ele><time>2026-04-04T14:42:36.999Z</time></trkpt><trkpt lat="44.17425742097224" lon="8.32732156063002"><ele>35.0</ele><time>2026-04-04T14:42:37.999Z</time></trkpt><trkpt lat="44.17424779420374" lon="8.327461778495513"><ele>34.0</ele><time>2026-04-04T14:42:38.999Z</time></trkpt><trkpt lat="44.17422298585684" lon="8.327583789570722"><ele>33.0</ele><time>2026-04-04T14:42:39.999Z</time></trkpt><trkpt lat="44.17417993281447" lon="8.327681841383223"><ele>32.0</ele><time>2026-04-04T14:42:40.999Z</time></trkpt><trkpt lat="44.17415779964978" lon="8.327794788764248"><ele>31.0</ele><time>2026-04-04T14:42:41.999Z</time></trkpt><trkpt lat="44.17412341908264" lon="8.327889489285322"><ele>30.0</ele><time>2026-04-04T14:42:42.999Z</time></trkpt><trkpt lat="44.17409299254858" lon="8.327986386385438"><ele>28.0</ele><time>2026-04-04T14:42:43.999Z</time></trkpt><trkpt lat="44.17406921261154" lon="8.328093312947615"><ele>26.0</ele><time>2026-04-04T14:42:44.999Z</time></trkpt><trkpt lat="44.17403759269826" lon="8.328206481203399"><ele>24.0</ele><time>2026-04-04T14:42:45.999Z</time></trkpt><trkpt lat="44.17399629349775" lon="8.328322259870353"><ele>22.0</ele><time>2026-04-04T14:42:46.999Z</time></trkpt><trkpt lat="44.17395675750737" lon="8.328439807861459"><ele>20.0</ele><time>2026-04-04T14:42:47.999Z</time></trkpt><trkpt lat="44.17391141031022" lon="8.328567886280434"><ele>22.6</ele><time>2026-04-04T14:42:48.999Z</time></trkpt><trkpt lat="44.17385882424655" lon="8.328695994026333"><ele>25.2</ele><time>2026-04-04T14:42:49.999Z</time></trkpt><trkpt lat="44.17381197303352" lon="8.32882123977083"><ele>27.799999999999997</ele><time>2026-04-04T14:42:50.999Z</time></trkpt><trkpt lat="44.17375019989702" lon="8.328940533489904"><ele>30.4</ele><time>2026-04-04T14:42:51.999Z</time></trkpt><trkpt lat="44.17368394122618" lon="8.32906205058282"><ele>33.0</ele><time>2026-04-04T14:42:52.999Z</time></trkpt><trkpt lat="44.17361095439363" lon="8.329185731260772"><ele>33.0</ele><time>2026-04-04T14:42:53.999Z</time></trkpt><trkpt lat="44.17352651404674" lon="8.329302372305747"><ele>33.0</ele><time>2026-04-04T14:42:54.999Z</time></trkpt><trkpt lat="44.17343006211414" lon="8.329412710200181"><ele>33.0</ele><time>2026-04-04T14:42:55.999Z</time></trkpt><trkpt lat="44.17332226992085" lon="8.329514679012707"><ele>33.0</ele><time>2026-04-04T14:42:56.999Z</time></trkpt><trkpt lat="44.17321034907518" lon="8.329591940205312"><ele>35.0</ele><time>2026-04-04T14:42:57.999Z</time></trkpt><trkpt lat="44.173129668523515" lon="8.329710516702912"><ele>37.0</ele><time>2026-04-04T14:42:58.999Z</time></trkpt><trkpt lat="44.17303370271127" lon="8.329827759622717"><ele>39.0</ele><time>2026-04-04T14:42:59.999Z</time></trkpt><trkpt lat="44.172948095536945" lon="8.329954608182165"><ele>41.0</ele><time>2026-04-04T14:43:00.999Z</time></trkpt><trkpt lat="44.172860412922255" lon="8.330083244467493"><ele>41.0</ele><time>2026-04-04T14:43:01.999Z</time></trkpt><trkpt lat="44.172751686470136" lon="8.330208378074364"><ele>41.0</ele><time>2026-04-04T14:43:02.999Z</time></trkpt><trkpt lat="44.17264420973703" lon="8.330346649149522"><ele>41.0</ele><time>2026-04-04T14:43:03.999Z</time></trkpt><trkpt lat="44.17253561882922" lon="8.330489285020695"><ele>41.0</ele><time>2026-04-04T14:43:04.999Z</time></trkpt><trkpt lat="44.172425954160275" lon="8.330647511916661"><ele>48.0</ele><time>2026-04-04T14:43:05.999Z</time></trkpt><trkpt lat="44.17231887229686" lon="8.330804411343863"><ele>55.0</ele><time>2026-04-04T14:43:06.999Z</time></trkpt><trkpt lat="44.17222644504328" lon="8.330959400869324"><ele>62.0</ele><time>2026-04-04T14:43:07.999Z</time></trkpt><trkpt lat="44.172123638419905" lon="8.33110818835055"><ele>69.0</ele><time>2026-04-04T14:43:08.999Z</time></trkpt><trkpt lat="44.17202719978842" lon="8.331258755181869"><ele>60.25</ele><time>2026-04-04T14:43:09.999Z</time></trkpt><trkpt lat="44.17193546924304" lon="8.331418188111309"><ele>51.5</ele><time>2026-04-04T14:43:10.999Z</time></trkpt><trkpt lat="44.17184762946414" lon="8.331577792390101"><ele>42.75</ele><time>2026-04-04T14:43:11.999Z</time></trkpt><trkpt lat="44.1717669154721" lon="8.331746476986936"><ele>34.0</ele><time>2026-04-04T14:43:12.999Z</time></trkpt><trkpt lat="44.17169341495722" lon="8.331922384102816"><ele>34.0</ele><time>2026-04-04T14:43:13.999Z</time></trkpt><trkpt lat="44.17162007979082" lon="8.332111466281537"><ele>34.0</ele><time>2026-04-04T14:43:14.999Z</time></trkpt><trkpt lat="44.17153362449068" lon="8.332295102942751"><ele>34.0</ele><time>2026-04-04T14:43:15.999Z</time></trkpt><trkpt lat="44.17145208352629" lon="8.332477581175615"><ele>34.25</ele><time>2026-04-04T14:43:16.999Z</time></trkpt><trkpt lat="44.17138147007814" lon="8.33264474491464"><ele>34.5</ele><time>2026-04-04T14:43:17.999Z</time></trkpt><trkpt lat="44.17131190101013" lon="8.332809355879384"><ele>34.75</ele><time>2026-04-04T14:43:18.999Z</time></trkpt><trkpt lat="44.171244417949254" lon="8.332979378720475"><ele>35.0</ele><time>2026-04-04T14:43:19.999Z</time></trkpt><trkpt lat="44.17117606283547" lon="8.333148089588489"><ele>35.0</ele><time>2026-04-04T14:43:20.999Z</time></trkpt><trkpt lat="44.17110777256553" lon="8.333309155631333"><ele>35.0</ele><time>2026-04-04T14:43:21.999Z</time></trkpt><trkpt lat="44.17104246367135" lon="8.333461495773722"><ele>35.0</ele><time>2026-04-04T14:43:22.999Z</time></trkpt><trkpt lat="44.170980772289994" lon="8.333597890852797"><ele>35.0</ele><time>2026-04-04T14:43:23.999Z</time></trkpt><trkpt lat="44.17092525213843" lon="8.333727260453763"><ele>35.0</ele><time>2026-04-04T14:43:24.999Z</time></trkpt><trkpt lat="44.170874778633944" lon="8.333847117201714"><ele>35.0</ele><time>2026-04-04T14:43:25.999Z</time></trkpt><trkpt lat="44.1708364709251" lon="8.333945710020485"><ele>35.0</ele><time>2026-04-04T14:43:26.999Z</time></trkpt><trkpt lat="44.17077423241594" lon="8.33406417207344"><ele>35.0</ele><time>2026-04-04T14:43:28.999Z</time></trkpt><trkpt lat="44.17073949599415" lon="8.334139104380064"><ele>35.0</ele><time>2026-04-04T14:43:30.999Z</time></trkpt><trkpt lat="44.17067306828423" lon="8.334259167044662"><ele>32.6</ele><time>2026-04-04T14:43:32.999Z</time></trkpt><trkpt lat="44.17062399914059" lon="8.334345192465662"><ele>30.2</ele><time>2026-04-04T14:43:33.999Z</time></trkpt><trkpt lat="44.1705788333577" lon="8.334433890341973"><ele>27.799999999999997</ele><time>2026-04-04T14:43:34.999Z</time></trkpt><trkpt lat="44.1705389360663" lon="8.334509238287415"><ele>25.4</ele><time>2026-04-04T14:43:35.999Z</time></trkpt><trkpt lat="44.170539612340974" lon="8.334704120001227"><ele>23.0</ele><time>2026-04-04T14:43:37.999Z</time></trkpt><trkpt lat="44.1705103126997" lon="8.334825520981232"><ele>23.0</ele><time>2026-04-04T14:43:39.999Z</time></trkpt><trkpt lat="44.17038896924053" lon="8.334740679058394"><ele>23.0</ele><time>2026-04-04T14:43:41.999Z</time></trkpt><trkpt lat="44.17052704452033" lon="8.33496341431953"><ele>23.0</ele><time>2026-04-04T14:43:43.999Z</time></trkpt><trkpt lat="44.17058148620843" lon="8.335012656043718"><ele>23.0</ele><time>2026-04-04T14:43:47Z</time></trkpt><trkpt lat="44.170669429694996" lon="8.335099677483397"><ele>23.0</ele><time>2026-04-04T14:44:20Z</time></trkpt><trkpt lat="44.170732621481044" lon="8.335145351551375"><ele>23.0</ele><time>2026-04-04T14:44:22Z</time></trkpt><trkpt lat="44.1707864820175" lon="8.335212913825028"><ele>23.0</ele><time>2026-04-04T14:44:25Z</time></trkpt><trkpt lat="44.17076509060894" lon="8.335300031400328"><ele>23.0</ele><time>2026-04-04T14:44:27Z</time></trkpt><trkpt lat="44.17069566556808" lon="8.335403892756045"><ele>23.0</ele><time>2026-04-04T14:44:29Z</time></trkpt><trkpt lat="44.170627705096436" lon="8.335531276666572"><ele>23.0</ele><time>2026-04-04T14:44:31Z</time></trkpt><trkpt lat="44.17055485552883" lon="8.335662211153364"><ele>20.4</ele><time>2026-04-04T14:44:33Z</time></trkpt><trkpt lat="44.17048715293454" lon="8.335793759095795"><ele>17.799999999999997</ele><time>2026-04-04T14:44:35Z</time></trkpt><trkpt lat="44.17045129103975" lon="8.335867703302844"><ele>15.2</ele><time>2026-04-04T14:44:36Z</time></trkpt><trkpt lat="44.170378381306826" lon="8.335987261192589"><ele>12.6</ele><time>2026-04-04T14:44:38Z</time></trkpt><trkpt lat="44.17032646134883" lon="8.33611165515047"><ele>10.0</ele><time>2026-04-04T14:44:40Z</time></trkpt><trkpt lat="44.17025896170339" lon="8.336240432562315"><ele>10.0</ele><time>2026-04-04T14:44:42Z</time></trkpt><trkpt lat="44.17019810537221" lon="8.336337919083565"><ele>10.0</ele><time>2026-04-04T14:44:44Z</time></trkpt><trkpt lat="44.17014376278347" lon="8.336481366275631"><ele>10.0</ele><time>2026-04-04T14:44:46Z</time></trkpt><trkpt lat="44.170103845957414" lon="8.336569925170293"><ele>10.0</ele><time>2026-04-04T14:44:47Z</time></trkpt><trkpt lat="44.17005104495419" lon="8.33667094224179"><ele>10.0</ele><time>2026-04-04T14:44:48Z</time></trkpt><trkpt lat="44.17001300308785" lon="8.33676849532521"><ele>9.4</ele><time>2026-04-04T14:44:48.999Z</time></trkpt><trkpt lat="44.16996700863919" lon="8.336881366545338"><ele>8.8</ele><time>2026-04-04T14:44:49.999Z</time></trkpt><trkpt lat="44.169924481637295" lon="8.336998322722806"><ele>8.2</ele><time>2026-04-04T14:44:50.999Z</time></trkpt><trkpt lat="44.16988049336236" lon="8.337118518355863"><ele>7.6</ele><time>2026-04-04T14:44:51.999Z</time></trkpt><trkpt lat="44.16983319488204" lon="8.337237257140181"><ele>7.0</ele><time>2026-04-04T14:44:52.999Z</time></trkpt><trkpt lat="44.16978910746966" lon="8.33736857475038"><ele>7.000000000000001</ele><time>2026-04-04T14:44:53.999Z</time></trkpt><trkpt lat="44.16973897986289" lon="8.337496212964925"><ele>7.0</ele><time>2026-04-04T14:44:54.999Z</time></trkpt><trkpt lat="44.16970214410714" lon="8.3376133812475"><ele>7.0</ele><time>2026-04-04T14:44:55.999Z</time></trkpt><trkpt lat="44.16966143440615" lon="8.337716572226752"><ele>7.0</ele><time>2026-04-04T14:44:56.999Z</time></trkpt><trkpt lat="44.16961680774852" lon="8.337818872416264"><ele>7.000000000000001</ele><time>2026-04-04T14:44:57.999Z</time></trkpt><trkpt lat="44.16957201999729" lon="8.337910717920085"><ele>7.0</ele><time>2026-04-04T14:44:58.999Z</time></trkpt><trkpt lat="44.16953608711625" lon="8.337994770768127"><ele>7.166666666666667</ele><time>2026-04-04T14:44:59.999Z</time></trkpt><trkpt lat="44.169524440700386" lon="8.338085062178894"><ele>7.333333333333334</ele><time>2026-04-04T14:45:00.999Z</time></trkpt><trkpt lat="44.16953922227773" lon="8.338180074691408"><ele>7.5</ele><time>2026-04-04T14:45:01.999Z</time></trkpt><trkpt lat="44.16958490701531" lon="8.338260532909507"><ele>7.666666666666666</ele><time>2026-04-04T14:45:02.999Z</time></trkpt><trkpt lat="44.16965372707811" lon="8.338320306266453"><ele>7.833333333333333</ele><time>2026-04-04T14:45:03.999Z</time></trkpt><trkpt lat="44.16974357176281" lon="8.338365068822606"><ele>8.0</ele><time>2026-04-04T14:45:04.999Z</time></trkpt><trkpt lat="44.169829961289345" lon="8.3384297228447"><ele>8.5</ele><time>2026-04-04T14:45:05.999Z</time></trkpt><trkpt lat="44.16990446854201" lon="8.338496342463952"><ele>9.0</ele><time>2026-04-04T14:45:06.999Z</time></trkpt><trkpt lat="44.169959445326796" lon="8.338574434592902"><ele>9.5</ele><time>2026-04-04T14:45:07.999Z</time></trkpt><trkpt lat="44.17005131093527" lon="8.338644018244372"><ele>10.0</ele><time>2026-04-04T14:45:09.999Z</time></trkpt><trkpt lat="44.17010231506119" lon="8.33870373848146"><ele>10.5</ele><time>2026-04-04T14:45:12.999Z</time></trkpt><trkpt lat="44.170180708492616" lon="8.33880263307791"><ele>11.0</ele><time>2026-04-04T14:45:17.999Z</time></trkpt><trkpt lat="44.17019537430236" lon="8.33889656729811"><ele>11.142857142857142</ele><time>2026-04-04T14:45:19.999Z</time></trkpt><trkpt lat="44.17012517601688" lon="8.338939161288886"><ele>11.285714285714285</ele><time>2026-04-04T14:45:20.999Z</time></trkpt><trkpt lat="44.170062779215385" lon="8.339069896985158"><ele>11.428571428571427</ele><time>2026-04-04T14:45:22.999Z</time></trkpt><trkpt lat="44.17001210318794" lon="8.33912379982205"><ele>11.571428571428571</ele><time>2026-04-04T14:45:23.999Z</time></trkpt><trkpt lat="44.16996724781565" lon="8.339191510486932"><ele>11.714285714285714</ele><time>2026-04-04T14:45:24.999Z</time></trkpt><trkpt lat="44.16992153456886" lon="8.339259779758402"><ele>11.857142857142856</ele><time>2026-04-04T14:45:25.999Z</time></trkpt><trkpt lat="44.1698752833026" lon="8.33931952355004"><ele>12.0</ele><time>2026-04-04T14:45:26.999Z</time></trkpt><trkpt lat="44.16980103560039" lon="8.339450661078047"><ele>11.166666666666666</ele><time>2026-04-04T14:45:28.999Z</time></trkpt><trkpt lat="44.169741262746264" lon="8.339601242188515"><ele>10.333333333333334</ele><time>2026-04-04T14:45:30.999Z</time></trkpt><trkpt lat="44.16971061397558" lon="8.339692613065543"><ele>9.5</ele><time>2026-04-04T14:45:31.999Z</time></trkpt><trkpt lat="44.169690464113536" lon="8.339798740671924"><ele>8.666666666666668</ele><time>2026-04-04T14:45:32.999Z</time></trkpt><trkpt lat="44.16967689220296" lon="8.339911729609945"><ele>7.833333333333334</ele><time>2026-04-04T14:45:33.999Z</time></trkpt><trkpt lat="44.16966929678842" lon="8.340017873303328"><ele>7.0</ele><time>2026-04-04T14:45:34.999Z</time></trkpt><trkpt lat="44.16966758527361" lon="8.340119175533504"><ele>7.0</ele><time>2026-04-04T14:45:35.999Z</time></trkpt><trkpt lat="44.169664581830595" lon="8.340209960471245"><ele>6.999999999999999</ele><time>2026-04-04T14:45:36.999Z</time></trkpt><trkpt lat="44.16966216635014" lon="8.340368247887303"><ele>6.999999999999999</ele><time>2026-04-04T14:45:38.999Z</time></trkpt><trkpt lat="44.16965296193353" lon="8.340506812595127"><ele>7.0</ele><time>2026-04-04T14:45:40.999Z</time></trkpt><trkpt lat="44.169652449377814" lon="8.340678072850794"><ele>7.0</ele><time>2026-04-04T14:45:42.999Z</time></trkpt><trkpt lat="44.169617875073264" lon="8.340837836266559"><ele>7.000000000000001</ele><time>2026-04-04T14:45:44.999Z</time></trkpt><trkpt lat="44.16954826471277" lon="8.340957234657576"><ele>7.0</ele><time>2026-04-04T14:45:46.999Z</time></trkpt><trkpt lat="44.169483415905326" lon="8.341063160833512"><ele>7.0</ele><time>2026-04-04T14:45:48.999Z</time></trkpt><trkpt lat="44.169437569641026" lon="8.341156145944435"><ele>7.0</ele><time>2026-04-04T14:45:50.999Z</time></trkpt><trkpt lat="44.16938493022189" lon="8.341211367548725"><ele>7.000000000000001</ele><time>2026-04-04T14:45:53.001Z</time></trkpt><trkpt lat="44.169298397732156" lon="8.341228330922567"><ele>7.0</ele><time>2026-04-04T14:45:55.001Z</time></trkpt><trkpt lat="44.16922475375408" lon="8.3411928911333"><ele>7.000000000000001</ele><time>2026-04-04T14:45:57.001Z</time></trkpt><trkpt lat="44.169137100068575" lon="8.341152634525104"><ele>7.0</ele><time>2026-04-04T14:46:00Z</time></trkpt><trkpt lat="44.169079334148435" lon="8.341097421629236"><ele>7.0</ele><time>2026-04-04T14:46:02Z</time></trkpt><trkpt lat="44.16902372166201" lon="8.341005444182668"><ele>7.0</ele><time>2026-04-04T14:46:04Z</time></trkpt><trkpt lat="44.16896882970301" lon="8.340947799608127"><ele>7.000000000000001</ele><time>2026-04-04T14:46:11Z</time></trkpt><trkpt lat="44.16887233534682" lon="8.340873197938933"><ele>7.0</ele><time>2026-04-04T14:46:13Z</time></trkpt><trkpt lat="44.16878616213303" lon="8.340825260035707"><ele>6.857142857142857</ele><time>2026-04-04T14:46:15Z</time></trkpt><trkpt lat="44.16872041573041" lon="8.34087897304125"><ele>6.714285714285714</ele><time>2026-04-04T14:46:27Z</time></trkpt><trkpt lat="44.168657357340095" lon="8.34090258055105"><ele>6.571428571428571</ele><time>2026-04-04T14:46:29Z</time></trkpt><trkpt lat="44.16859287097021" lon="8.340921418751808"><ele>6.428571428571429</ele><time>2026-04-04T14:46:32Z</time></trkpt><trkpt lat="44.16854739096225" lon="8.340994257352147"><ele>6.285714285714286</ele><time>2026-04-04T14:46:35Z</time></trkpt><trkpt lat="44.168575271904274" lon="8.3410873689422"><ele>6.142857142857142</ele><time>2026-04-04T14:46:37Z</time></trkpt><trkpt lat="44.168662370309036" lon="8.341128041433834"><ele>6.0</ele><time>2026-04-04T14:46:40Z</time></trkpt><trkpt lat="44.16872537608733" lon="8.341137263033458"><ele>6.0</ele><time>2026-04-04T14:46:42Z</time></trkpt><trkpt lat="44.168803687163454" lon="8.341293376144922"><ele>6.0</ele><time>2026-04-04T14:46:51Z</time></trkpt><trkpt lat="44.168827657855964" lon="8.341511170743805"><ele>6.0</ele><time>2026-04-04T14:46:54.999Z</time></trkpt><trkpt lat="44.16895764287613" lon="8.341513039462923"><ele>6.0</ele><time>2026-04-04T14:46:55.999Z</time></trkpt><trkpt lat="44.169008683423996" lon="8.341589355455975"><ele>6.333333333333333</ele><time>2026-04-04T14:46:56.999Z</time></trkpt><trkpt lat="44.16905148475849" lon="8.341656010566536"><ele>6.666666666666666</ele><time>2026-04-04T14:46:57.999Z</time></trkpt><trkpt lat="44.169106260684025" lon="8.34179081472962"><ele>7.0</ele><time>2026-04-04T14:46:59.999Z</time></trkpt><trkpt lat="44.16916931378494" lon="8.34189632784164"><ele>7.333333333333333</ele><time>2026-04-04T14:47:01.999Z</time></trkpt><trkpt lat="44.169226517781624" lon="8.34199074388972"><ele>7.666666666666666</ele><time>2026-04-04T14:47:03.999Z</time></trkpt><trkpt lat="44.1692716549432" lon="8.34206524355481"><ele>8.0</ele><time>2026-04-04T14:47:16.999Z</time></trkpt><trkpt lat="44.169323132364134" lon="8.342150206711116"><ele>8.5</ele><time>2026-04-04T14:47:19.999Z</time></trkpt><trkpt lat="44.16936604387516" lon="8.342221029800365"><ele>9.0</ele><time>2026-04-04T14:47:21.999Z</time></trkpt><trkpt lat="44.1694295691981" lon="8.342348121334142"><ele>9.5</ele><time>2026-04-04T14:47:23.999Z</time></trkpt><trkpt lat="44.16946789190591" lon="8.342436935047656"><ele>10.0</ele><time>2026-04-04T14:47:24.999Z</time></trkpt><trkpt lat="44.16951022856253" lon="8.342527379860028"><ele>10.5</ele><time>2026-04-04T14:47:25.999Z</time></trkpt><trkpt lat="44.169553988362274" lon="8.342621858232455"><ele>11.0</ele><time>2026-04-04T14:47:26.999Z</time></trkpt><trkpt lat="44.16959464315375" lon="8.342709510353044"><ele>11.0</ele><time>2026-04-04T14:47:27.999Z</time></trkpt><trkpt lat="44.16963710109502" lon="8.342802074853116"><ele>11.0</ele><time>2026-04-04T14:47:28.999Z</time></trkpt><trkpt lat="44.16969357937089" lon="8.342885706281482"><ele>11.0</ele><time>2026-04-04T14:47:29.999Z</time></trkpt><trkpt lat="44.169722027775435" lon="8.342985986740423"><ele>11.0</ele><time>2026-04-04T14:47:30.999Z</time></trkpt><trkpt lat="44.169770646812715" lon="8.343091172828169"><ele>11.0</ele><time>2026-04-04T14:47:31.999Z</time></trkpt><trkpt lat="44.16981804850313" lon="8.343191877021392"><ele>11.0</ele><time>2026-04-04T14:47:32.999Z</time></trkpt><trkpt lat="44.16985533610305" lon="8.343271660422868"><ele>11.666666666666666</ele><time>2026-04-04T14:47:33.999Z</time></trkpt><trkpt lat="44.16988978241215" lon="8.34334527054524"><ele>12.333333333333332</ele><time>2026-04-04T14:47:34.999Z</time></trkpt><trkpt lat="44.16992750545291" lon="8.343425834020394"><ele>13.0</ele><time>2026-04-04T14:47:35.999Z</time></trkpt><trkpt lat="44.16997480584477" lon="8.343526851685004"><ele>13.666666666666666</ele><time>2026-04-04T14:47:47.999Z</time></trkpt><trkpt lat="44.17002390423734" lon="8.343631705916179"><ele>14.333333333333334</ele><time>2026-04-04T14:47:50.999Z</time></trkpt><trkpt lat="44.17008433726292" lon="8.343726121359017"><ele>15.0</ele><time>2026-04-04T14:48:01Z</time></trkpt><trkpt lat="44.170136876914995" lon="8.34383685017412"><ele>14.6</ele><time>2026-04-04T14:48:03Z</time></trkpt><trkpt lat="44.17020199043683" lon="8.343981408097193"><ele>14.2</ele><time>2026-04-04T14:48:05Z</time></trkpt><trkpt lat="44.1702696063804" lon="8.344130079690022"><ele>13.8</ele><time>2026-04-04T14:48:07Z</time></trkpt><trkpt lat="44.17031685775414" lon="8.344213725952965"><ele>13.4</ele><time>2026-04-04T14:48:08Z</time></trkpt><trkpt lat="44.17035938707558" lon="8.34432012241655"><ele>13.0</ele><time>2026-04-04T14:48:09Z</time></trkpt><trkpt lat="44.17040085276698" lon="8.344424625911298"><ele>12.999999999999998</ele><time>2026-04-04T14:48:10Z</time></trkpt><trkpt lat="44.17044700724543" lon="8.34451952157354"><ele>13.0</ele><time>2026-04-04T14:48:11Z</time></trkpt><trkpt lat="44.17048862404405" lon="8.344618412968387"><ele>13.0</ele><time>2026-04-04T14:48:12Z</time></trkpt><trkpt lat="44.170519405266404" lon="8.344723301217162"><ele>13.0</ele><time>2026-04-04T14:48:13Z</time></trkpt><trkpt lat="44.17054085678051" lon="8.34482412271481"><ele>12.999999999999998</ele><time>2026-04-04T14:48:14Z</time></trkpt><trkpt lat="44.17054733233322" lon="8.344942951899025"><ele>13.0</ele><time>2026-04-04T14:48:15Z</time></trkpt><trkpt lat="44.170546424660074" lon="8.345066080491481"><ele>12.999999999999998</ele><time>2026-04-04T14:48:16Z</time></trkpt><trkpt lat="44.17056427176505" lon="8.34518357799376"><ele>13.0</ele><time>2026-04-04T14:48:17Z</time></trkpt><trkpt lat="44.17056615426918" lon="8.345297949131748"><ele>13.0</ele><time>2026-04-04T14:48:18Z</time></trkpt><trkpt lat="44.17058079066397" lon="8.345401487127516"><ele>13.0</ele><time>2026-04-04T14:48:19Z</time></trkpt><trkpt lat="44.17059217773645" lon="8.345546557087053"><ele>12.999999999999998</ele><time>2026-04-04T14:48:21Z</time></trkpt><trkpt lat="44.17061749423108" lon="8.345677017114186"><ele>13.0</ele><time>2026-04-04T14:48:23Z</time></trkpt><trkpt lat="44.170651999606136" lon="8.345851289943669"><ele>12.833333333333332</ele><time>2026-04-04T14:48:25Z</time></trkpt><trkpt lat="44.17065248461734" lon="8.345946185575222"><ele>12.666666666666666</ele><time>2026-04-04T14:48:26Z</time></trkpt><trkpt lat="44.170648822089035" lon="8.346044298958427"><ele>12.5</ele><time>2026-04-04T14:48:27Z</time></trkpt><trkpt lat="44.17064369964885" lon="8.346141625184188"><ele>12.333333333333332</ele><time>2026-04-04T14:48:28Z</time></trkpt><trkpt lat="44.170638979168395" lon="8.346231314559361"><ele>12.166666666666666</ele><time>2026-04-04T14:48:29Z</time></trkpt><trkpt lat="44.17063309792701" lon="8.346360985818938"><ele>12.0</ele><time>2026-04-04T14:48:31Z</time></trkpt><trkpt lat="44.17062116505552" lon="8.346501981253743"><ele>12.0</ele><time>2026-04-04T14:48:33Z</time></trkpt><trkpt lat="44.170611224845565" lon="8.346589291402497"><ele>12.0</ele><time>2026-04-04T14:48:34Z</time></trkpt><trkpt lat="44.17060347691146" lon="8.34669174979244"><ele>12.0</ele><time>2026-04-04T14:48:35Z</time></trkpt><trkpt lat="44.17059708598073" lon="8.346790283323692"><ele>12.0</ele><time>2026-04-04T14:48:36Z</time></trkpt><trkpt lat="44.170598019263906" lon="8.346880837131504"><ele>12.0</ele><time>2026-04-04T14:48:37Z</time></trkpt><trkpt lat="44.17059991316445" lon="8.347027188441658"><ele>12.0</ele><time>2026-04-04T14:48:39Z</time></trkpt><trkpt lat="44.17060136008991" lon="8.347127840464927"><ele>12.2</ele><time>2026-04-04T14:48:41Z</time></trkpt><trkpt lat="44.17060303380889" lon="8.34724426843255"><ele>12.399999999999999</ele><time>2026-04-04T14:48:48Z</time></trkpt><trkpt lat="44.17060442412194" lon="8.347340982033634"><ele>12.600000000000001</ele><time>2026-04-04T14:48:50Z</time></trkpt><trkpt lat="44.1706132936512" lon="8.347505561562505"><ele>12.8</ele><time>2026-04-04T14:48:52Z</time></trkpt><trkpt lat="44.170625611927186" lon="8.347671634893748"><ele>13.0</ele><time>2026-04-04T14:48:53.999Z</time></trkpt><trkpt lat="44.17063337836313" lon="8.347770188378327"><ele>12.999999999999998</ele><time>2026-04-04T14:48:54.999Z</time></trkpt><trkpt lat="44.170641950912795" lon="8.347871984424536"><ele>13.0</ele><time>2026-04-04T14:48:55.999Z</time></trkpt><trkpt lat="44.17065015672965" lon="8.3479694258305"><ele>13.0</ele><time>2026-04-04T14:48:56.999Z</time></trkpt><trkpt lat="44.17065938104408" lon="8.348078961416928"><ele>13.0</ele><time>2026-04-04T14:48:57.999Z</time></trkpt><trkpt lat="44.17066876081086" lon="8.348190994909675"><ele>12.999999999999998</ele><time>2026-04-04T14:48:58.999Z</time></trkpt><trkpt lat="44.17067892276188" lon="8.34831555915306"><ele>13.0</ele><time>2026-04-04T14:48:59.999Z</time></trkpt><trkpt lat="44.17069050264538" lon="8.348433725464607"><ele>12.999999999999998</ele><time>2026-04-04T14:49:00.999Z</time></trkpt><trkpt lat="44.17069422902079" lon="8.34855705040109"><ele>13.0</ele><time>2026-04-04T14:49:01.999Z</time></trkpt><trkpt lat="44.17069679110684" lon="8.348680096038166"><ele>13.0</ele><time>2026-04-04T14:49:02.999Z</time></trkpt><trkpt lat="44.170688260160624" lon="8.348804627339065"><ele>13.0</ele><time>2026-04-04T14:49:03.999Z</time></trkpt><trkpt lat="44.170665026847466" lon="8.34892805095262"><ele>12.999999999999998</ele><time>2026-04-04T14:49:04.999Z</time></trkpt><trkpt lat="44.170615898103314" lon="8.349032653416495"><ele>13.0</ele><time>2026-04-04T14:49:05.999Z</time></trkpt><trkpt lat="44.17058032862342" lon="8.349152235636442"><ele>12.4</ele><time>2026-04-04T14:49:06.999Z</time></trkpt><trkpt lat="44.1705259573555" lon="8.349262896697756"><ele>11.8</ele><time>2026-04-04T14:49:07.999Z</time></trkpt><trkpt lat="44.17048037151985" lon="8.349377429548872"><ele>11.2</ele><time>2026-04-04T14:49:08.999Z</time></trkpt><trkpt lat="44.17043491361196" lon="8.349493337880869"><ele>10.6</ele><time>2026-04-04T14:49:09.999Z</time></trkpt><trkpt lat="44.17038412708144" lon="8.349597618322255"><ele>10.0</ele><time>2026-04-04T14:49:10.999Z</time></trkpt><trkpt lat="44.17036795868585" lon="8.34971539499066"><ele>9.333333333333334</ele><time>2026-04-04T14:49:11.999Z</time></trkpt><trkpt lat="44.17033670129751" lon="8.349806865672418"><ele>8.666666666666668</ele><time>2026-04-04T14:49:12.999Z</time></trkpt><trkpt lat="44.17031781052171" lon="8.349902043786711"><ele>8.0</ele><time>2026-04-04T14:49:13.999Z</time></trkpt><trkpt lat="44.170343958412175" lon="8.350003422463212"><ele>7.333333333333334</ele><time>2026-04-04T14:49:14.999Z</time></trkpt><trkpt lat="44.17035371049876" lon="8.350113428549882"><ele>6.666666666666667</ele><time>2026-04-04T14:49:15.999Z</time></trkpt><trkpt lat="44.17037944860145" lon="8.350216496192093"><ele>6.0</ele><time>2026-04-04T14:49:16.999Z</time></trkpt><trkpt lat="44.17040276327011" lon="8.350327889108428"><ele>6.0</ele><time>2026-04-04T14:49:17.999Z</time></trkpt><trkpt lat="44.170437823555204" lon="8.350453818142949"><ele>6.0</ele><time>2026-04-04T14:49:18.999Z</time></trkpt><trkpt lat="44.170427557626454" lon="8.350576939372122"><ele>6.0</ele><time>2026-04-04T14:49:19.999Z</time></trkpt><trkpt lat="44.17042993445052" lon="8.350681019005554"><ele>6.0</ele><time>2026-04-04T14:49:20.999Z</time></trkpt><trkpt lat="44.1704308296255" lon="8.350772255579507"><ele>6.0</ele><time>2026-04-04T14:49:21.999Z</time></trkpt><trkpt lat="44.17044330283794" lon="8.350966940845774"><ele>5.666666666666667</ele><time>2026-04-04T14:49:23.999Z</time></trkpt><trkpt lat="44.17046393866413" lon="8.35108533341714"><ele>5.333333333333333</ele><time>2026-04-04T14:49:24.999Z</time></trkpt><trkpt lat="44.17049061287345" lon="8.351205707886534"><ele>5.0</ele><time>2026-04-04T14:49:25.999Z</time></trkpt><trkpt lat="44.170516687702076" lon="8.351323971020893"><ele>4.666666666666666</ele><time>2026-04-04T14:49:26.999Z</time></trkpt><trkpt lat="44.17054172769234" lon="8.351437350502728"><ele>4.333333333333333</ele><time>2026-04-04T14:49:27.999Z</time></trkpt><trkpt lat="44.17056565423249" lon="8.351544321977737"><ele>4.0</ele><time>2026-04-04T14:49:28.999Z</time></trkpt><trkpt lat="44.17058699536651" lon="8.351639734469124"><ele>3.6666666666666665</ele><time>2026-04-04T14:49:29.999Z</time></trkpt><trkpt lat="44.17061469695467" lon="8.351763583288236"><ele>3.333333333333333</ele><time>2026-04-04T14:49:31.999Z</time></trkpt><trkpt lat="44.170635928709814" lon="8.351858506622035"><ele>3.0</ele><time>2026-04-04T14:49:34.999Z</time></trkpt><trkpt lat="44.17065508316666" lon="8.351944142783655"><ele>2.6666666666666665</ele><time>2026-04-04T14:49:36.999Z</time></trkpt><trkpt lat="44.170680686520626" lon="8.352054000932139"><ele>2.333333333333333</ele><time>2026-04-04T14:49:39.999Z</time></trkpt><trkpt lat="44.170705685797536" lon="8.352158881733407"><ele>2.0</ele><time>2026-04-04T14:49:41.999Z</time></trkpt><trkpt lat="44.170740386242784" lon="8.352267895588358"><ele>3.2</ele><time>2026-04-04T14:49:43.999Z</time></trkpt><trkpt lat="44.170792718969295" lon="8.35243866811478"><ele>4.4</ele><time>2026-04-04T14:49:45.999Z</time></trkpt><trkpt lat="44.17082725129688" lon="8.35255037055768"><ele>5.6000000000000005</ele><time>2026-04-04T14:49:46.999Z</time></trkpt><trkpt lat="44.17086536402584" lon="8.352674600655988"><ele>6.800000000000001</ele><time>2026-04-04T14:49:47.999Z</time></trkpt><trkpt lat="44.17090252211062" lon="8.352800111433364"><ele>8.0</ele><time>2026-04-04T14:49:48.999Z</time></trkpt><trkpt lat="44.17094256542463" lon="8.352935367433332"><ele>8.333333333333332</ele><time>2026-04-04T14:49:49.999Z</time></trkpt><trkpt lat="44.17097761342985" lon="8.353063541069263"><ele>8.666666666666666</ele><time>2026-04-04T14:49:50.999Z</time></trkpt><trkpt lat="44.17100475899367" lon="8.353174966853123"><ele>9.0</ele><time>2026-04-04T14:49:51.999Z</time></trkpt><trkpt lat="44.17102561917816" lon="8.353270783475525"><ele>9.333333333333334</ele><time>2026-04-04T14:49:52.999Z</time></trkpt><trkpt lat="44.17104424841388" lon="8.35336259421914"><ele>9.666666666666668</ele><time>2026-04-04T14:49:53.999Z</time></trkpt><trkpt lat="44.17106090372419" lon="8.353449057265108"><ele>10.0</ele><time>2026-04-04T14:49:54.999Z</time></trkpt><trkpt lat="44.17108904675521" lon="8.353602915176705"><ele>10.0</ele><time>2026-04-04T14:49:56.999Z</time></trkpt><trkpt lat="44.171114848285825" lon="8.353743972041212"><ele>10.0</ele><time>2026-04-04T14:49:58.999Z</time></trkpt><trkpt lat="44.171149335185774" lon="8.353927909054363"><ele>10.0</ele><time>2026-04-04T14:50:00.998Z</time></trkpt><trkpt lat="44.17117119322222" lon="8.354044010359376"><ele>10.0</ele><time>2026-04-04T14:50:01.998Z</time></trkpt><trkpt lat="44.17119855810704" lon="8.354187006948784"><ele>10.0</ele><time>2026-04-04T14:50:02.998Z</time></trkpt><trkpt lat="44.17123055519223" lon="8.354354283759745"><ele>9.0</ele><time>2026-04-04T14:50:03.998Z</time></trkpt><trkpt lat="44.17126727697082" lon="8.354549022339311"><ele>8.0</ele><time>2026-04-04T14:50:05Z</time></trkpt><trkpt lat="44.1713058252704" lon="8.354753783021856"><ele>7.0</ele><time>2026-04-04T14:50:06Z</time></trkpt><trkpt lat="44.171344031539725" lon="8.35495672700849"><ele>6.0</ele><time>2026-04-04T14:50:07Z</time></trkpt><trkpt lat="44.17138081721169" lon="8.355152123541398"><ele>6.0</ele><time>2026-04-04T14:50:08Z</time></trkpt><trkpt lat="44.17141045654924" lon="8.355310454071118"><ele>6.0</ele><time>2026-04-04T14:50:09Z</time></trkpt><trkpt lat="44.17144352409831" lon="8.35548498726883"><ele>6.0</ele><time>2026-04-04T14:50:10Z</time></trkpt><trkpt lat="44.1714775339414" lon="8.355658189046393"><ele>6.0</ele><time>2026-04-04T14:50:11Z</time></trkpt><trkpt lat="44.17151143316959" lon="8.355830700875492"><ele>5.75</ele><time>2026-04-04T14:50:12Z</time></trkpt><trkpt lat="44.17154146377946" lon="8.355983524822555"><ele>5.5</ele><time>2026-04-04T14:50:13Z</time></trkpt><trkpt lat="44.17157288007674" lon="8.356142728997902"><ele>5.25</ele><time>2026-04-04T14:50:14Z</time></trkpt><trkpt lat="44.171606286885876" lon="8.35631424586849"><ele>5.0</ele><time>2026-04-04T14:50:15Z</time></trkpt><trkpt lat="44.17164292225344" lon="8.356501969271179"><ele>5.0</ele><time>2026-04-04T14:50:16Z</time></trkpt><trkpt lat="44.17168121556883" lon="8.35669555928909"><ele>5.0</ele><time>2026-04-04T14:50:17Z</time></trkpt><trkpt lat="44.17172119404439" lon="8.356897508908206"><ele>5.0</ele><time>2026-04-04T14:50:18Z</time></trkpt><trkpt lat="44.17176164228709" lon="8.357101831149686"><ele>5.0</ele><time>2026-04-04T14:50:19Z</time></trkpt><trkpt lat="44.171799919112054" lon="8.35729518484577"><ele>4.6</ele><time>2026-04-04T14:50:20Z</time></trkpt><trkpt lat="44.171831913382306" lon="8.357456802356072"><ele>4.2</ele><time>2026-04-04T14:50:21Z</time></trkpt><trkpt lat="44.17186422126562" lon="8.357620004108417"><ele>3.8</ele><time>2026-04-04T14:50:22Z</time></trkpt><trkpt lat="44.17189365928354" lon="8.357768708712902"><ele>3.4</ele><time>2026-04-04T14:50:23Z</time></trkpt><trkpt lat="44.17191786774686" lon="8.357890996895133"><ele>3.0</ele><time>2026-04-04T14:50:24Z</time></trkpt><trkpt lat="44.17193811626786" lon="8.357993281046978"><ele>2.8</ele><time>2026-04-04T14:50:25Z</time></trkpt><trkpt lat="44.17196546266014" lon="8.35813123504211"><ele>2.5999999999999996</ele><time>2026-04-04T14:50:27Z</time></trkpt><trkpt lat="44.17199975559607" lon="8.358241340897889"><ele>2.4000000000000004</ele><time>2026-04-04T14:50:29Z</time></trkpt><trkpt lat="44.172022078853296" lon="8.358350076080251"><ele>2.2</ele><time>2026-04-04T14:50:31Z</time></trkpt><trkpt lat="44.17205863774978" lon="8.358525558913604"><ele>2.0</ele><time>2026-04-04T14:50:33Z</time></trkpt><trkpt lat="44.17207977958992" lon="8.358627958815227"><ele>2.0</ele><time>2026-04-04T14:50:34Z</time></trkpt><trkpt lat="44.17209963463102" lon="8.358724083658194"><ele>2.0</ele><time>2026-04-04T14:50:35Z</time></trkpt><trkpt lat="44.17213800309626" lon="8.358876709420542"><ele>2.0</ele><time>2026-04-04T14:50:37Z</time></trkpt><trkpt lat="44.172182535970634" lon="8.35897451593655"><ele>2.0</ele><time>2026-04-04T14:50:39Z</time></trkpt><trkpt lat="44.17222761200822" lon="8.359107079678003"><ele>2.0</ele><time>2026-04-04T14:50:41Z</time></trkpt><trkpt lat="44.1723044244371" lon="8.359161594177584"><ele>3.5</ele><time>2026-04-04T14:50:43Z</time></trkpt><trkpt lat="44.1723850924322" lon="8.359094757954807"><ele>5.0</ele><time>2026-04-04T14:50:45Z</time></trkpt><trkpt lat="44.172399577666695" lon="8.358950871587522"><ele>6.5</ele><time>2026-04-04T14:50:47Z</time></trkpt><trkpt lat="44.17243658733386" lon="8.358856900079429"><ele>8.0</ele><time>2026-04-04T14:50:48Z</time></trkpt><trkpt lat="44.17248309432054" lon="8.358771162232815"><ele>9.5</ele><time>2026-04-04T14:50:49Z</time></trkpt><trkpt lat="44.17251740474103" lon="8.358676238758807"><ele>11.0</ele><time>2026-04-04T14:50:50Z</time></trkpt><trkpt lat="44.17253024470525" lon="8.358555475474486"><ele>11.0</ele><time>2026-04-04T14:50:51Z</time></trkpt><trkpt lat="44.172521551145074" lon="8.358420971548016"><ele>11.0</ele><time>2026-04-04T14:50:51.999Z</time></trkpt><trkpt lat="44.17250728799294" lon="8.35831592046519"><ele>11.0</ele><time>2026-04-04T14:50:52.999Z</time></trkpt><trkpt lat="44.172508814653675" lon="8.358213037996963"><ele>11.0</ele><time>2026-04-04T14:50:53.999Z</time></trkpt><trkpt lat="44.172522768529966" lon="8.35810918711199"><ele>11.0</ele><time>2026-04-04T14:50:54.999Z</time></trkpt><trkpt lat="44.17254059064936" lon="8.358020672272406"><ele>11.0</ele><time>2026-04-04T14:50:55.999Z</time></trkpt><trkpt lat="44.17257589015405" lon="8.357894408363618"><ele>11.0</ele><time>2026-04-04T14:50:57.999Z</time></trkpt><trkpt lat="44.17264860379253" lon="8.357877949154679"><ele>11.0</ele><time>2026-04-04T14:50:59.999Z</time></trkpt><trkpt lat="44.1727254198752" lon="8.358005584408117"><ele>11.0</ele><time>2026-04-04T14:51:01.999Z</time></trkpt><trkpt lat="44.172773487845596" lon="8.358089742977269"><ele>11.0</ele><time>2026-04-04T14:51:02.999Z</time></trkpt><trkpt lat="44.172853986205176" lon="8.358151060267613"><ele>11.0</ele><time>2026-04-04T14:51:03.999Z</time></trkpt><trkpt lat="44.17295059898808" lon="8.358181219698976"><ele>11.0</ele><time>2026-04-04T14:51:04.999Z</time></trkpt><trkpt lat="44.173041800043656" lon="8.358170393532381"><ele>11.0</ele><time>2026-04-04T14:51:05.999Z</time></trkpt><trkpt lat="44.1731127156048" lon="8.358146172249562"><ele>11.0</ele><time>2026-04-04T14:51:06.999Z</time></trkpt><trkpt lat="44.17317086376848" lon="8.358087768816427"><ele>11.0</ele><time>2026-04-04T14:51:07.999Z</time></trkpt><trkpt lat="44.17321069729888" lon="8.357988140223545"><ele>11.0</ele><time>2026-04-04T14:51:08.999Z</time></trkpt><trkpt lat="44.173262223212504" lon="8.357896820938878"><ele>11.0</ele><time>2026-04-04T14:51:09.999Z</time></trkpt><trkpt lat="44.173342131031156" lon="8.357850466428816"><ele>11.600000000000001</ele><time>2026-04-04T14:51:10.999Z</time></trkpt><trkpt lat="44.17342822658216" lon="8.357835850530687"><ele>12.2</ele><time>2026-04-04T14:51:11.999Z</time></trkpt><trkpt lat="44.17351676705406" lon="8.3578204099013"><ele>12.799999999999999</ele><time>2026-04-04T14:51:12.999Z</time></trkpt><trkpt lat="44.17361631781623" lon="8.357791456336377"><ele>13.399999999999999</ele><time>2026-04-04T14:51:13.999Z</time></trkpt><trkpt lat="44.17371496569916" lon="8.357771291671737"><ele>14.0</ele><time>2026-04-04T14:51:14.999Z</time></trkpt><trkpt lat="44.17379753438136" lon="8.357752855659065"><ele>14.0</ele><time>2026-04-04T14:51:15.999Z</time></trkpt><trkpt lat="44.17387054718902" lon="8.357713116037296"><ele>13.999999999999998</ele><time>2026-04-04T14:51:16.999Z</time></trkpt><trkpt lat="44.17390899776598" lon="8.357624977099302"><ele>13.999999999999998</ele><time>2026-04-04T14:51:17.999Z</time></trkpt><trkpt lat="44.17393085619653" lon="8.357479871646202"><ele>14.0</ele><time>2026-04-04T14:51:18.999Z</time></trkpt><trkpt lat="44.17397720048742" lon="8.357342176765034"><ele>14.0</ele><time>2026-04-04T14:51:19.999Z</time></trkpt><trkpt lat="44.1740145738551" lon="8.357222927613911"><ele>14.799999999999999</ele><time>2026-04-04T14:51:20.999Z</time></trkpt><trkpt lat="44.174061287232504" lon="8.357127036770471"><ele>15.599999999999998</ele><time>2026-04-04T14:51:21.999Z</time></trkpt><trkpt lat="44.17412269498039" lon="8.357047766357288"><ele>16.4</ele><time>2026-04-04T14:51:22.999Z</time></trkpt><trkpt lat="44.17419739519944" lon="8.356963484188737"><ele>17.2</ele><time>2026-04-04T14:51:23.999Z</time></trkpt><trkpt lat="44.17429771587241" lon="8.356918920810154"><ele>18.0</ele><time>2026-04-04T14:51:24.999Z</time></trkpt><trkpt lat="44.17438991721563" lon="8.356891890497113"><ele>18.0</ele><time>2026-04-04T14:51:25.999Z</time></trkpt><trkpt lat="44.17445651768108" lon="8.356902555086242"><ele>18.0</ele><time>2026-04-04T14:51:26.999Z</time></trkpt><trkpt lat="44.17455584081949" lon="8.356989046852757"><ele>18.0</ele><time>2026-04-04T14:51:28.999Z</time></trkpt><trkpt lat="44.174552679368816" lon="8.357080588132687"><ele>18.0</ele><time>2026-04-04T14:51:29.999Z</time></trkpt><trkpt lat="44.17452904480742" lon="8.357171287551653"><ele>18.0</ele><time>2026-04-04T14:51:30.999Z</time></trkpt><trkpt lat="44.174464718334725" lon="8.357235762419299"><ele>18.0</ele><time>2026-04-04T14:51:31.999Z</time></trkpt><trkpt lat="44.17439169147704" lon="8.357288846785632"><ele>20.4</ele><time>2026-04-04T14:51:32.999Z</time></trkpt><trkpt lat="44.17434029972763" lon="8.357354483715785"><ele>22.8</ele><time>2026-04-04T14:51:33.999Z</time></trkpt><trkpt lat="44.17425091340869" lon="8.357509552300947"><ele>25.2</ele><time>2026-04-04T14:51:35.999Z</time></trkpt><trkpt lat="44.17421814020552" lon="8.357607683922387"><ele>27.6</ele><time>2026-04-04T14:51:36.999Z</time></trkpt><trkpt lat="44.17421213957202" lon="8.357738589499776"><ele>30.0</ele><time>2026-04-04T14:51:37.999Z</time></trkpt><trkpt lat="44.174215131413646" lon="8.35789612971682"><ele>31.8</ele><time>2026-04-04T14:51:38.999Z</time></trkpt><trkpt lat="44.1742262340795" lon="8.358064968684696"><ele>33.6</ele><time>2026-04-04T14:51:39.999Z</time></trkpt><trkpt lat="44.17423447185952" lon="8.358208092508088"><ele>35.4</ele><time>2026-04-04T14:51:40.999Z</time></trkpt><trkpt lat="44.174268270475544" lon="8.358327357128463"><ele>37.2</ele><time>2026-04-04T14:51:41.999Z</time></trkpt><trkpt lat="44.17427584610603" lon="8.358435192589717"><ele>39.0</ele><time>2026-04-04T14:51:42.999Z</time></trkpt><trkpt lat="44.17426421167982" lon="8.358535017937594"><ele>39.0</ele><time>2026-04-04T14:51:43.999Z</time></trkpt><trkpt lat="44.17418013390957" lon="8.358598836887387"><ele>39.0</ele><time>2026-04-04T14:51:45.999Z</time></trkpt><trkpt lat="44.174093451492254" lon="8.358615949332819"><ele>39.0</ele><time>2026-04-04T14:51:46.999Z</time></trkpt><trkpt lat="44.1739996874009" lon="8.358646116910617"><ele>39.0</ele><time>2026-04-04T14:51:47.999Z</time></trkpt><trkpt lat="44.173901942700795" lon="8.358701341018739"><ele>39.0</ele><time>2026-04-04T14:51:49.999Z</time></trkpt><trkpt lat="44.17381844068756" lon="8.358824256218025"><ele>39.0</ele><time>2026-04-04T14:51:51.999Z</time></trkpt><trkpt lat="44.17375795879471" lon="8.35890281308048"><ele>39.0</ele><time>2026-04-04T14:51:52.999Z</time></trkpt><trkpt lat="44.17372548698386" lon="8.359034897193533"><ele>39.0</ele><time>2026-04-04T14:51:53.999Z</time></trkpt><trkpt lat="44.173658951213994" lon="8.359146407370657"><ele>39.0</ele><time>2026-04-04T14:51:54.999Z</time></trkpt><trkpt lat="44.173610542394584" lon="8.359275631459537"><ele>39.0</ele><time>2026-04-04T14:51:55.999Z</time></trkpt><trkpt lat="44.17352561336008" lon="8.359376487801063"><ele>39.0</ele><time>2026-04-04T14:51:56.999Z</time></trkpt><trkpt lat="44.17343320946417" lon="8.359465345500846"><ele>39.0</ele><time>2026-04-04T14:51:57.998Z</time></trkpt><trkpt lat="44.17334096454211" lon="8.359548492502816"><ele>39.0</ele><time>2026-04-04T14:51:58.998Z</time></trkpt><trkpt lat="44.17326274693169" lon="8.359624621124679"><ele>39.0</ele><time>2026-04-04T14:51:59.998Z</time></trkpt><trkpt lat="44.17322002028591" lon="8.35971984572021"><ele>39.0</ele><time>2026-04-04T14:52:00.998Z</time></trkpt><trkpt lat="44.17318143416815" lon="8.359837968775759"><ele>35.8</ele><time>2026-04-04T14:52:01.998Z</time></trkpt><trkpt lat="44.17311449236943" lon="8.359952174795133"><ele>32.599999999999994</ele><time>2026-04-04T14:52:02.998Z</time></trkpt><trkpt lat="44.17308350590464" lon="8.360077328648677"><ele>29.4</ele><time>2026-04-04T14:52:03.998Z</time></trkpt><trkpt lat="44.173047159528025" lon="8.360176325710723"><ele>26.2</ele><time>2026-04-04T14:52:04.998Z</time></trkpt><trkpt lat="44.173039414408805" lon="8.360294375313401"><ele>23.0</ele><time>2026-04-04T14:52:05.998Z</time></trkpt><trkpt lat="44.17305473715375" lon="8.360426483156123"><ele>23.5</ele><time>2026-04-04T14:52:06.998Z</time></trkpt><trkpt lat="44.173042937758574" lon="8.360564618755735"><ele>24.0</ele><time>2026-04-04T14:52:07.998Z</time></trkpt><trkpt lat="44.17302241347487" lon="8.360698674737618"><ele>24.5</ele><time>2026-04-04T14:52:08.998Z</time></trkpt><trkpt lat="44.17298438645594" lon="8.36081656950591"><ele>25.0</ele><time>2026-04-04T14:52:09.998Z</time></trkpt><trkpt lat="44.17296871647272" lon="8.36090327015031"><ele>25.499999999999996</ele><time>2026-04-04T14:52:11Z</time></trkpt><trkpt lat="44.17295474499425" lon="8.360995689827998"><ele>26.0</ele><time>2026-04-04T14:52:12Z</time></trkpt><trkpt lat="44.17298424567819" lon="8.36110068419561"><ele>26.0</ele><time>2026-04-04T14:52:13Z</time></trkpt><trkpt lat="44.17302497126021" lon="8.361174040957192"><ele>26.0</ele><time>2026-04-04T14:52:14Z</time></trkpt><trkpt lat="44.173101357873584" lon="8.361349687028412"><ele>26.0</ele><time>2026-04-04T14:52:15Z</time></trkpt><trkpt lat="44.17315593641163" lon="8.361493586538694"><ele>26.0</ele><time>2026-04-04T14:52:16Z</time></trkpt><trkpt lat="44.173188320201916" lon="8.361626891124137"><ele>26.0</ele><time>2026-04-04T14:52:17Z</time></trkpt><trkpt lat="44.173180524727016" lon="8.361760482685103"><ele>25.0</ele><time>2026-04-04T14:52:18Z</time></trkpt><trkpt lat="44.1731797800913" lon="8.36191182605606"><ele>24.0</ele><time>2026-04-04T14:52:19Z</time></trkpt><trkpt lat="44.17319212950234" lon="8.362054883288168"><ele>23.0</ele><time>2026-04-04T14:52:20Z</time></trkpt><trkpt lat="44.17320694620067" lon="8.36220073392919"><ele>22.0</ele><time>2026-04-04T14:52:21Z</time></trkpt><trkpt lat="44.17323144299242" lon="8.362347710399908"><ele>21.0</ele><time>2026-04-04T14:52:22Z</time></trkpt><trkpt lat="44.173276972804345" lon="8.362471588269772"><ele>28.200000000000003</ele><time>2026-04-04T14:52:23Z</time></trkpt><trkpt lat="44.17330228598256" lon="8.362594090446514"><ele>35.400000000000006</ele><time>2026-04-04T14:52:24Z</time></trkpt><trkpt lat="44.17333488401091" lon="8.362696866317005"><ele>42.6</ele><time>2026-04-04T14:52:25Z</time></trkpt><trkpt lat="44.17339764216804" lon="8.362788225896075"><ele>49.800000000000004</ele><time>2026-04-04T14:52:26Z</time></trkpt><trkpt lat="44.173483938843894" lon="8.36286382680737"><ele>57.0</ele><time>2026-04-04T14:52:27Z</time></trkpt><trkpt lat="44.17356241687794" lon="8.362963121139147"><ele>54.666666666666664</ele><time>2026-04-04T14:52:28Z</time></trkpt><trkpt lat="44.17361298539666" lon="8.363049744697529"><ele>52.333333333333336</ele><time>2026-04-04T14:52:29Z</time></trkpt><trkpt lat="44.173620887789866" lon="8.363154946760108"><ele>50.0</ele><time>2026-04-04T14:52:30Z</time></trkpt><trkpt lat="44.173626250799686" lon="8.363252312116243"><ele>47.66666666666667</ele><time>2026-04-04T14:52:31Z</time></trkpt><trkpt lat="44.173629641351376" lon="8.363419439698232"><ele>45.333333333333336</ele><time>2026-04-04T14:52:33Z</time></trkpt><trkpt lat="44.17362856181122" lon="8.36351190766276"><ele>43.0</ele><time>2026-04-04T14:52:34Z</time></trkpt><trkpt lat="44.173665534682456" lon="8.363622839156566"><ele>43.0</ele><time>2026-04-04T14:52:35Z</time></trkpt><trkpt lat="44.17372964041606" lon="8.36373708715878"><ele>43.0</ele><time>2026-04-04T14:52:36Z</time></trkpt><trkpt lat="44.173813699681915" lon="8.363849010539239"><ele>43.0</ele><time>2026-04-04T14:52:37Z</time></trkpt><trkpt lat="44.173908135235465" lon="8.363980737035574"><ele>43.0</ele><time>2026-04-04T14:52:38Z</time></trkpt><trkpt lat="44.17398114299885" lon="8.364151044411937"><ele>49.25</ele><time>2026-04-04T14:52:39Z</time></trkpt><trkpt lat="44.1740638147855" lon="8.364325926258608"><ele>55.5</ele><time>2026-04-04T14:52:40Z</time></trkpt><trkpt lat="44.1741423183229" lon="8.364469000845915"><ele>61.75</ele><time>2026-04-04T14:52:41Z</time></trkpt><trkpt lat="44.174188840495646" lon="8.364581889233426"><ele>68.0</ele><time>2026-04-04T14:52:42Z</time></trkpt><trkpt lat="44.17424527393626" lon="8.364665264753455"><ele>64.8</ele><time>2026-04-04T14:52:43Z</time></trkpt><trkpt lat="44.17432436677166" lon="8.364708005288364"><ele>61.599999999999994</ele><time>2026-04-04T14:52:44Z</time></trkpt><trkpt lat="44.174418565653944" lon="8.364708072109007"><ele>58.400000000000006</ele><time>2026-04-04T14:52:45Z</time></trkpt><trkpt lat="44.1745102666453" lon="8.364736499810139"><ele>55.2</ele><time>2026-04-04T14:52:45.999Z</time></trkpt><trkpt lat="44.174606700326706" lon="8.364801908322606"><ele>52.0</ele><time>2026-04-04T14:52:46.999Z</time></trkpt><trkpt lat="44.17470278776263" lon="8.364836227628945"><ele>52.0</ele><time>2026-04-04T14:52:47.999Z</time></trkpt><trkpt lat="44.17480640201682" lon="8.364824170877077"><ele>52.0</ele><time>2026-04-04T14:52:49.999Z</time></trkpt><trkpt lat="44.17479277998812" lon="8.364651691685935"><ele>52.0</ele><time>2026-04-04T14:52:51.999Z</time></trkpt><trkpt lat="44.17473569835178" lon="8.36456766651076"><ele>52.0</ele><time>2026-04-04T14:52:52.999Z</time></trkpt><trkpt lat="44.17466911566645" lon="8.364495931093217"><ele>52.0</ele><time>2026-04-04T14:52:53.999Z</time></trkpt><trkpt lat="44.174590912666524" lon="8.364392414066675"><ele>55.2</ele><time>2026-04-04T14:52:55.999Z</time></trkpt><trkpt lat="44.17454390075086" lon="8.364287223957646"><ele>58.400000000000006</ele><time>2026-04-04T14:52:58.999Z</time></trkpt><trkpt lat="44.174479321444444" lon="8.364188040999238"><ele>61.599999999999994</ele><time>2026-04-04T14:53:00.999Z</time></trkpt><trkpt lat="44.17444763555687" lon="8.36408629953073"><ele>64.8</ele><time>2026-04-04T14:53:01.999Z</time></trkpt><trkpt lat="44.17438434276172" lon="8.363960888422692"><ele>68.0</ele><time>2026-04-04T14:53:02.999Z</time></trkpt><trkpt lat="44.174312997650986" lon="8.36381839636375"><ele>71.8</ele><time>2026-04-04T14:53:03.999Z</time></trkpt><trkpt lat="44.174244942540305" lon="8.363685582610989"><ele>75.6</ele><time>2026-04-04T14:53:04.999Z</time></trkpt><trkpt lat="44.17416541939355" lon="8.363585008749254"><ele>79.39999999999999</ele><time>2026-04-04T14:53:05.999Z</time></trkpt><trkpt lat="44.174082616909246" lon="8.36347374208167"><ele>83.19999999999999</ele><time>2026-04-04T14:53:06.999Z</time></trkpt><trkpt lat="44.17400397287455" lon="8.363402562231663"><ele>87.0</ele><time>2026-04-04T14:53:07.999Z</time></trkpt><trkpt lat="44.17396443385506" lon="8.363305712005282"><ele>81.0</ele><time>2026-04-04T14:53:08.999Z</time></trkpt><trkpt lat="44.17394011777797" lon="8.363217861693322"><ele>75.0</ele><time>2026-04-04T14:53:09.999Z</time></trkpt><trkpt lat="44.17394829018238" lon="8.36310996454967"><ele>69.0</ele><time>2026-04-04T14:53:10.999Z</time></trkpt><trkpt lat="44.173942731758174" lon="8.362978255327938"><ele>63.0</ele><time>2026-04-04T14:53:11.999Z</time></trkpt><trkpt lat="44.173951695863025" lon="8.362835724743213"><ele>57.0</ele><time>2026-04-04T14:53:12.999Z</time></trkpt><trkpt lat="44.17392643026845" lon="8.362683861094128"><ele>57.0</ele><time>2026-04-04T14:53:13.999Z</time></trkpt><trkpt lat="44.17389302498224" lon="8.362523119360194"><ele>57.0</ele><time>2026-04-04T14:53:14.999Z</time></trkpt><trkpt lat="44.17383036371978" lon="8.362387853688418"><ele>57.0</ele><time>2026-04-04T14:53:15.999Z</time></trkpt><trkpt lat="44.17376779045131" lon="8.362283728497433"><ele>57.0</ele><time>2026-04-04T14:53:16.999Z</time></trkpt><trkpt lat="44.173730223237946" lon="8.362199338046684"><ele>57.0</ele><time>2026-04-04T14:53:17.999Z</time></trkpt><trkpt lat="44.1737453881159" lon="8.362044383235252"><ele>57.0</ele><time>2026-04-04T14:53:19.999Z</time></trkpt><trkpt lat="44.173806900254405" lon="8.361973348547451"><ele>57.0</ele><time>2026-04-04T14:53:20.999Z</time></trkpt><trkpt lat="44.173853317582314" lon="8.361902238501791"><ele>57.0</ele><time>2026-04-04T14:53:21.999Z</time></trkpt><trkpt lat="44.1739134576341" lon="8.36186611459324"><ele>57.0</ele><time>2026-04-04T14:53:23.999Z</time></trkpt><trkpt lat="44.17394960057665" lon="8.361982208583221"><ele>57.0</ele><time>2026-04-04T14:53:25.999Z</time></trkpt><trkpt lat="44.17390255980085" lon="8.362051311846999"><ele>57.0</ele><time>2026-04-04T14:53:26.999Z</time></trkpt><trkpt lat="44.17389682153313" lon="8.362219226433373"><ele>57.0</ele><time>2026-04-04T14:53:28.999Z</time></trkpt><trkpt lat="44.173955844258046" lon="8.362359501126098"><ele>57.0</ele><time>2026-04-04T14:53:29.999Z</time></trkpt><trkpt lat="44.17400872140117" lon="8.36248564940743"><ele>57.0</ele><time>2026-04-04T14:53:30.999Z</time></trkpt><trkpt lat="44.174069403772954" lon="8.362596167748928"><ele>57.0</ele><time>2026-04-04T14:53:31.999Z</time></trkpt><trkpt lat="44.174114281535125" lon="8.362735260678635"><ele>57.0</ele><time>2026-04-04T14:53:32.999Z</time></trkpt><trkpt lat="44.1741611287276" lon="8.362849990555487"><ele>63.0</ele><time>2026-04-04T14:53:33.999Z</time></trkpt><trkpt lat="44.17420142769176" lon="8.362933812476992"><ele>69.0</ele><time>2026-04-04T14:53:34.999Z</time></trkpt><trkpt lat="44.17429254574621" lon="8.36304611006745"><ele>75.0</ele><time>2026-04-04T14:53:36.999Z</time></trkpt><trkpt lat="44.17437159144854" lon="8.363045605462602"><ele>81.0</ele><time>2026-04-04T14:53:37.999Z</time></trkpt><trkpt lat="44.17447708352463" lon="8.363012669055095"><ele>87.0</ele><time>2026-04-04T14:53:38.999Z</time></trkpt><trkpt lat="44.174550810122845" lon="8.363006889910107"><ele>90.16666666666667</ele><time>2026-04-04T14:53:39.999Z</time></trkpt><trkpt lat="44.1746258808259" lon="8.362941719118242"><ele>93.33333333333334</ele><time>2026-04-04T14:53:41.999Z</time></trkpt><trkpt lat="44.174548639890986" lon="8.362822017666378"><ele>96.5</ele><time>2026-04-04T14:53:43.999Z</time></trkpt><trkpt lat="44.1744807590828" lon="8.362846012722978"><ele>99.66666666666667</ele><time>2026-04-04T14:53:44.999Z</time></trkpt><trkpt lat="44.17440165169332" lon="8.362861003277745"><ele>102.83333333333334</ele><time>2026-04-04T14:53:45.999Z</time></trkpt><trkpt lat="44.17433554529071" lon="8.362845487744968"><ele>106.0</ele><time>2026-04-04T14:53:47.999Z</time></trkpt><trkpt lat="44.17437805222878" lon="8.362757638137662"><ele>106.00000000000001</ele><time>2026-04-04T14:53:50.999Z</time></trkpt><trkpt lat="44.17445527770198" lon="8.362788488582234"><ele>106.0</ele><time>2026-04-04T14:53:51.999Z</time></trkpt><trkpt lat="44.17454351807934" lon="8.36277189043853"><ele>106.0</ele><time>2026-04-04T14:53:52.999Z</time></trkpt><trkpt lat="44.174626171987306" lon="8.362733773507072"><ele>106.0</ele><time>2026-04-04T14:53:53.999Z</time></trkpt><trkpt lat="44.17470125251749" lon="8.362721789417991"><ele>106.00000000000001</ele><time>2026-04-04T14:53:54.999Z</time></trkpt><trkpt lat="44.174791830380514" lon="8.362739209462331"><ele>106.0</ele><time>2026-04-04T14:53:55.999Z</time></trkpt><trkpt lat="44.1748659180839" lon="8.362776669649426"><ele>107.33333333333334</ele><time>2026-04-04T14:53:56.999Z</time></trkpt><trkpt lat="44.17493073278302" lon="8.362810034634645"><ele>108.66666666666667</ele><time>2026-04-04T14:53:57.998Z</time></trkpt><trkpt lat="44.17499749622966" lon="8.362874396306404"><ele>110.0</ele><time>2026-04-04T14:53:58.998Z</time></trkpt><trkpt lat="44.175072029155636" lon="8.36293491695513"><ele>111.33333333333334</ele><time>2026-04-04T14:53:59.998Z</time></trkpt><trkpt lat="44.17512382267518" lon="8.363055585576022"><ele>112.66666666666667</ele><time>2026-04-04T14:54:00.998Z</time></trkpt><trkpt lat="44.175197187781166" lon="8.363158598390537"><ele>114.0</ele><time>2026-04-04T14:54:01.998Z</time></trkpt><trkpt lat="44.17526498974601" lon="8.363281328186888"><ele>114.0</ele><time>2026-04-04T14:54:02.998Z</time></trkpt><trkpt lat="44.17532930229033" lon="8.363418953043235"><ele>114.0</ele><time>2026-04-04T14:54:03.998Z</time></trkpt><trkpt lat="44.17537883389835" lon="8.36355250886533"><ele>114.0</ele><time>2026-04-04T14:54:04.998Z</time></trkpt><trkpt lat="44.17543039634252" lon="8.36366641641726"><ele>114.0</ele><time>2026-04-04T14:54:05.998Z</time></trkpt><trkpt lat="44.17547076719196" lon="8.36380004498134"><ele>114.0</ele><time>2026-04-04T14:54:06.998Z</time></trkpt><trkpt lat="44.17552689902382" lon="8.36391886817898"><ele>117.2</ele><time>2026-04-04T14:54:07.998Z</time></trkpt><trkpt lat="44.17555606351121" lon="8.364063335337898"><ele>120.4</ele><time>2026-04-04T14:54:08.998Z</time></trkpt><trkpt lat="44.17558433488589" lon="8.36421626107681"><ele>123.6</ele><time>2026-04-04T14:54:09.998Z</time></trkpt><trkpt lat="44.17563940847054" lon="8.364351167498388"><ele>126.8</ele><time>2026-04-04T14:54:10.998Z</time></trkpt><trkpt lat="44.17567163678091" lon="8.36448334648246"><ele>130.0</ele><time>2026-04-04T14:54:11.998Z</time></trkpt><trkpt lat="44.175716286975764" lon="8.36458724845314"><ele>130.0</ele><time>2026-04-04T14:54:12.998Z</time></trkpt><trkpt lat="44.17577035135441" lon="8.36469059114392"><ele>130.0</ele><time>2026-04-04T14:54:13.998Z</time></trkpt><trkpt lat="44.17583412665202" lon="8.364784031631768"><ele>130.0</ele><time>2026-04-04T14:54:14.998Z</time></trkpt><trkpt lat="44.17591364023919" lon="8.364854338736734"><ele>130.0</ele><time>2026-04-04T14:54:15.998Z</time></trkpt><trkpt lat="44.17597213466622" lon="8.36495794714118"><ele>130.0</ele><time>2026-04-04T14:54:16.999Z</time></trkpt><trkpt lat="44.17604411073562" lon="8.365053842086173"><ele>128.0</ele><time>2026-04-04T14:54:17.999Z</time></trkpt><trkpt lat="44.17614037195527" lon="8.365155591733199"><ele>126.0</ele><time>2026-04-04T14:54:18.999Z</time></trkpt><trkpt lat="44.1762320395432" lon="8.365286539352331"><ele>124.0</ele><time>2026-04-04T14:54:19.999Z</time></trkpt><trkpt lat="44.1763222800063" lon="8.365397469128032"><ele>122.0</ele><time>2026-04-04T14:54:20.999Z</time></trkpt><trkpt lat="44.17638995392356" lon="8.365486183967828"><ele>123.0</ele><time>2026-04-04T14:54:21.999Z</time></trkpt><trkpt lat="44.17644787104127" lon="8.36555401715702"><ele>123.99999999999999</ele><time>2026-04-04T14:54:22.999Z</time></trkpt><trkpt lat="44.17652861589834" lon="8.365588099055287"><ele>124.99999999999999</ele><time>2026-04-04T14:54:23.999Z</time></trkpt><trkpt lat="44.1766385072263" lon="8.365601832580586"><ele>126.0</ele><time>2026-04-04T14:54:24.999Z</time></trkpt><trkpt lat="44.176753456790266" lon="8.36563790268314"><ele>127.0</ele><time>2026-04-04T14:54:25.999Z</time></trkpt><trkpt lat="44.17688430595657" lon="8.365651436121889"><ele>127.0</ele><time>2026-04-04T14:54:27Z</time></trkpt><trkpt lat="44.17701557741327" lon="8.365685374006768"><ele>126.99999999999999</ele><time>2026-04-04T14:54:28Z</time></trkpt><trkpt lat="44.177107683798056" lon="8.365726869336175"><ele>126.99999999999999</ele><time>2026-04-04T14:54:29Z</time></trkpt><trkpt lat="44.17719275423216" lon="8.365755396646426"><ele>127.0</ele><time>2026-04-04T14:54:30Z</time></trkpt><trkpt lat="44.177264582872695" lon="8.365785401995188"><ele>127.0</ele><time>2026-04-04T14:54:31Z</time></trkpt><trkpt lat="44.177357645031094" lon="8.365809809450642"><ele>130.5</ele><time>2026-04-04T14:54:32Z</time></trkpt><trkpt lat="44.17746159152416" lon="8.36584984325453"><ele>134.0</ele><time>2026-04-04T14:54:33Z</time></trkpt><trkpt lat="44.17757403136921" lon="8.365897299058963"><ele>137.5</ele><time>2026-04-04T14:54:34Z</time></trkpt><trkpt lat="44.17770209158863" lon="8.365946112545718"><ele>141.0</ele><time>2026-04-04T14:54:35Z</time></trkpt><trkpt lat="44.177831741285964" lon="8.36597499770897"><ele>141.0</ele><time>2026-04-04T14:54:36Z</time></trkpt><trkpt lat="44.17793705881925" lon="8.366012636217631"><ele>141.0</ele><time>2026-04-04T14:54:37Z</time></trkpt><trkpt lat="44.178031191683296" lon="8.366068589658074"><ele>141.0</ele><time>2026-04-04T14:54:38Z</time></trkpt><trkpt lat="44.17812391016194" lon="8.366119971028308"><ele>141.0</ele><time>2026-04-04T14:54:39Z</time></trkpt><trkpt lat="44.17821058424425" lon="8.366161358732565"><ele>141.0</ele><time>2026-04-04T14:54:40Z</time></trkpt><trkpt lat="44.17828168367173" lon="8.366244330895956"><ele>141.6</ele><time>2026-04-04T14:54:41Z</time></trkpt><trkpt lat="44.17834050692841" lon="8.36634026028343"><ele>142.2</ele><time>2026-04-04T14:54:42Z</time></trkpt><trkpt lat="44.17841435377236" lon="8.366443205862122"><ele>142.8</ele><time>2026-04-04T14:54:43Z</time></trkpt><trkpt lat="44.17850638694732" lon="8.366535970816827"><ele>143.4</ele><time>2026-04-04T14:54:44Z</time></trkpt><trkpt lat="44.17858254290828" lon="8.366648500026288"><ele>144.0</ele><time>2026-04-04T14:54:45Z</time></trkpt><trkpt lat="44.17864548360951" lon="8.36674022566108"><ele>144.0</ele><time>2026-04-04T14:54:46Z</time></trkpt><trkpt lat="44.17871929333478" lon="8.3668230699174"><ele>144.0</ele><time>2026-04-04T14:54:47Z</time></trkpt><trkpt lat="44.17880996241454" lon="8.366888123561377"><ele>144.0</ele><time>2026-04-04T14:54:48Z</time></trkpt><trkpt lat="44.17890229286542" lon="8.366956572590915"><ele>144.0</ele><time>2026-04-04T14:54:48.999Z</time></trkpt><trkpt lat="44.17898376140818" lon="8.36702693109327"><ele>144.0</ele><time>2026-04-04T14:54:49.999Z</time></trkpt><trkpt lat="44.17903708498571" lon="8.36710478440229"><ele>146.75</ele><time>2026-04-04T14:54:50.999Z</time></trkpt><trkpt lat="44.179114407676934" lon="8.367236358309645"><ele>149.5</ele><time>2026-04-04T14:54:52.999Z</time></trkpt><trkpt lat="44.17915498455292" lon="8.367359970126088"><ele>152.25</ele><time>2026-04-04T14:54:53.999Z</time></trkpt><trkpt lat="44.1792260829961" lon="8.367494388201287"><ele>155.0</ele><time>2026-04-04T14:54:54.999Z</time></trkpt><trkpt lat="44.17928215849138" lon="8.367629767682065"><ele>155.0</ele><time>2026-04-04T14:54:55.999Z</time></trkpt><trkpt lat="44.17934652877028" lon="8.367741703181814"><ele>155.0</ele><time>2026-04-04T14:54:56.999Z</time></trkpt><trkpt lat="44.179417920568824" lon="8.367835487671808"><ele>155.0</ele><time>2026-04-04T14:54:57.999Z</time></trkpt><trkpt lat="44.179500475187155" lon="8.367933806432488"><ele>155.0</ele><time>2026-04-04T14:54:58.999Z</time></trkpt><trkpt lat="44.179578260332214" lon="8.368010115598002"><ele>155.0</ele><time>2026-04-04T14:54:59.999Z</time></trkpt><trkpt lat="44.17964101051902" lon="8.368070961258265"><ele>156.16666666666666</ele><time>2026-04-04T14:55:00.999Z</time></trkpt><trkpt lat="44.17969560149552" lon="8.368115074091415"><ele>157.33333333333331</ele><time>2026-04-04T14:55:01.999Z</time></trkpt><trkpt lat="44.17976260956505" lon="8.368137519930201"><ele>158.5</ele><time>2026-04-04T14:55:02.999Z</time></trkpt><trkpt lat="44.1798242271327" lon="8.368161394507347"><ele>159.66666666666666</ele><time>2026-04-04T14:55:03.999Z</time></trkpt><trkpt lat="44.179933469250145" lon="8.368116344794972"><ele>160.83333333333334</ele><time>2026-04-04T14:55:05.999Z</time></trkpt><trkpt lat="44.18000166981543" lon="8.36804551642652"><ele>162.0</ele><time>2026-04-04T14:55:06.999Z</time></trkpt><trkpt lat="44.18007388621783" lon="8.367979908857553"><ele>162.0</ele><time>2026-04-04T14:55:07.999Z</time></trkpt><trkpt lat="44.180138142269946" lon="8.367960706138359"><ele>162.0</ele><time>2026-04-04T14:55:08.999Z</time></trkpt><trkpt lat="44.180240618264094" lon="8.36798256774489"><ele>162.0</ele><time>2026-04-04T14:55:10.999Z</time></trkpt><trkpt lat="44.18029836133214" lon="8.368137645254807"><ele>162.0</ele><time>2026-04-04T14:55:12.999Z</time></trkpt><trkpt lat="44.180327688409534" lon="8.368215878051915"><ele>162.0</ele><time>2026-04-04T14:55:13.999Z</time></trkpt><trkpt lat="44.18039407939229" lon="8.3683347810476"><ele>162.0</ele><time>2026-04-04T14:55:15.999Z</time></trkpt><trkpt lat="44.180391961926055" lon="8.368506450816328"><ele>162.0</ele><time>2026-04-04T14:55:17.999Z</time></trkpt><trkpt lat="44.180363009976425" lon="8.36858816094744"><ele>162.0</ele><time>2026-04-04T14:55:18.999Z</time></trkpt><trkpt lat="44.18034700309683" lon="8.368744344417358"><ele>162.0</ele><time>2026-04-04T14:55:20.999Z</time></trkpt><trkpt lat="44.18036764360711" lon="8.368832757279554"><ele>162.0</ele><time>2026-04-04T14:55:21.999Z</time></trkpt><trkpt lat="44.18041353448692" lon="8.369012172657614"><ele>158.0</ele><time>2026-04-04T14:55:23.999Z</time></trkpt><trkpt lat="44.180424087494806" lon="8.369161417060274"><ele>154.0</ele><time>2026-04-04T14:55:25.999Z</time></trkpt><trkpt lat="44.18034993796768" lon="8.369302125641546"><ele>150.0</ele><time>2026-04-04T14:55:27.999Z</time></trkpt><trkpt lat="44.180300445874764" lon="8.369441361357305"><ele>146.0</ele><time>2026-04-04T14:55:29.999Z</time></trkpt><trkpt lat="44.18028274053538" lon="8.369597265208036"><ele>143.4</ele><time>2026-04-04T14:55:31.999Z</time></trkpt><trkpt lat="44.180319474499605" lon="8.369750419104022"><ele>140.8</ele><time>2026-04-04T14:55:33.999Z</time></trkpt><trkpt lat="44.180316163917865" lon="8.369900614190016"><ele>138.20000000000002</ele><time>2026-04-04T14:55:35.999Z</time></trkpt><trkpt lat="44.18036602475536" lon="8.37003873323733"><ele>135.6</ele><time>2026-04-04T14:55:37.999Z</time></trkpt><trkpt lat="44.180419239199054" lon="8.370163346457568"><ele>133.0</ele><time>2026-04-04T14:55:39.999Z</time></trkpt><trkpt lat="44.18046282001887" lon="8.370306097893026"><ele>133.0</ele><time>2026-04-04T14:55:41.999Z</time></trkpt><trkpt lat="44.18051541843942" lon="8.370442692955272"><ele>133.0</ele><time>2026-04-04T14:55:43.999Z</time></trkpt><trkpt lat="44.18057713697323" lon="8.37058960665358"><ele>133.0</ele><time>2026-04-04T14:55:45.999Z</time></trkpt><trkpt lat="44.18057804481529" lon="8.37068060969472"><ele>133.0</ele><time>2026-04-04T14:55:46.999Z</time></trkpt><trkpt lat="44.18058569954655" lon="8.370768915294008"><ele>133.0</ele><time>2026-04-04T14:55:47.999Z</time></trkpt><trkpt lat="44.18057726744014" lon="8.37093016811482"><ele>129.8</ele><time>2026-04-04T14:55:49.999Z</time></trkpt><trkpt lat="44.180548569379155" lon="8.371101219843528"><ele>126.60000000000001</ele><time>2026-04-04T14:55:51.999Z</time></trkpt><trkpt lat="44.18050996671003" lon="8.371184155984094"><ele>123.39999999999999</ele><time>2026-04-04T14:55:52.999Z</time></trkpt><trkpt lat="44.18052963354493" lon="8.371355652506388"><ele>120.19999999999999</ele><time>2026-04-04T14:55:54.999Z</time></trkpt><trkpt lat="44.18057571329604" lon="8.37143699510877"><ele>117.0</ele><time>2026-04-04T14:55:55.999Z</time></trkpt><trkpt lat="44.180599586713576" lon="8.371531349777719"><ele>113.8</ele><time>2026-04-04T14:55:56.999Z</time></trkpt><trkpt lat="44.18063336649689" lon="8.371617874716206"><ele>110.6</ele><time>2026-04-04T14:55:57.999Z</time></trkpt><trkpt lat="44.18066366566873" lon="8.371701424916"><ele>107.39999999999999</ele><time>2026-04-04T14:55:58.999Z</time></trkpt><trkpt lat="44.180711417153155" lon="8.371859633072095"><ele>104.19999999999999</ele><time>2026-04-04T14:56:00.999Z</time></trkpt><trkpt lat="44.1807492302076" lon="8.371999606882943"><ele>101.0</ele><time>2026-04-04T14:56:02.999Z</time></trkpt><trkpt lat="44.18079163968406" lon="8.372100834760342"><ele>106.4</ele><time>2026-04-04T14:56:04.999Z</time></trkpt><trkpt lat="44.18082921607215" lon="8.372233298079344"><ele>111.8</ele><time>2026-04-04T14:56:06.999Z</time></trkpt><trkpt lat="44.18087691571794" lon="8.372369620708735"><ele>117.20000000000002</ele><time>2026-04-04T14:56:08.999Z</time></trkpt><trkpt lat="44.18092866949934" lon="8.372506263009598"><ele>122.60000000000001</ele><time>2026-04-04T14:56:10.999Z</time></trkpt><trkpt lat="44.18099631223523" lon="8.372634525910867"><ele>128.0</ele><time>2026-04-04T14:56:12.998Z</time></trkpt><trkpt lat="44.181087820171975" lon="8.372736695705173"><ele>127.99999999999999</ele><time>2026-04-04T14:56:14.998Z</time></trkpt><trkpt lat="44.181165219780645" lon="8.37278292340147"><ele>128.0</ele><time>2026-04-04T14:56:16.998Z</time></trkpt><trkpt lat="44.18118769011626" lon="8.37289403242957"><ele>128.0</ele><time>2026-04-04T14:56:19.998Z</time></trkpt><trkpt lat="44.1811240327265" lon="8.372974259878676"><ele>128.0</ele><time>2026-04-04T14:56:21.998Z</time></trkpt><trkpt lat="44.18108172054754" lon="8.373059745947526"><ele>127.99999999999999</ele><time>2026-04-04T14:56:24Z</time></trkpt><trkpt lat="44.181118733068715" lon="8.373161369568265"><ele>128.0</ele><time>2026-04-04T14:56:26Z</time></trkpt><trkpt lat="44.18118824978835" lon="8.373248114276073"><ele>126.4</ele><time>2026-04-04T14:56:28Z</time></trkpt><trkpt lat="44.1812609455337" lon="8.373369908600758"><ele>124.80000000000001</ele><time>2026-04-04T14:56:30Z</time></trkpt><trkpt lat="44.181320652636096" lon="8.373485967501148"><ele>123.2</ele><time>2026-04-04T14:56:32Z</time></trkpt><trkpt lat="44.1813553379465" lon="8.373611706785272"><ele>121.6</ele><time>2026-04-04T14:56:34Z</time></trkpt><trkpt lat="44.18137925870067" lon="8.373719829471064"><ele>120.0</ele><time>2026-04-04T14:56:36Z</time></trkpt><trkpt lat="44.181382451589094" lon="8.37382695604291"><ele>120.0</ele><time>2026-04-04T14:56:38Z</time></trkpt><trkpt lat="44.18134685312996" lon="8.373918611621058"><ele>118.0</ele><time>2026-04-04T14:56:41Z</time></trkpt><trkpt lat="44.1813412304529" lon="8.374012398806407"><ele>118.0</ele><time>2026-04-04T14:56:56Z</time></trkpt></trkseg></trk></gpx>